<?xml version="1.0" encoding="UTF-8" standalone="no" ?><gpx xmlns="http://www.topografix.com/GPX/1/1" xmlns:gpxx="http://www.garmin.com/xmlschemas/GpxExtensions/v3" xmlns:gpxtrkx="http://www.garmin.com/xmlschemas/TrackStatsExtension/v1" xmlns:wptx1="http://www.garmin.com/xmlschemas/WaypointExtension/v1" xmlns:gpxtpx="http://www.garmin.com/xmlschemas/TrackPointExtension/v1" creator="eTrex 20" version="1.1" xmlns:xsi="http://www.w3.org/2001/XMLSchema-instance" xsi:schemaLocation="http://www.topografix.com/GPX/1/1 http://www.topografix.com/GPX/1/1/gpx.xsd http://www.garmin.com/xmlschemas/GpxExtensions/v3 http://www8.garmin.com/xmlschemas/GpxExtensionsv3.xsd http://www.garmin.com/xmlschemas/TrackStatsExtension/v1 http://www8.garmin.com/xmlschemas/TrackStatsExtension.xsd http://www.garmin.com/xmlschemas/WaypointExtension/v1 http://www8.garmin.com/xmlschemas/WaypointExtensionv1.xsd http://www.garmin.com/xmlschemas/TrackPointExtension/v1 http://www.garmin.com/xmlschemas/TrackPointExtensionv1.xsd"><metadata><link href="http://www.garmin.com"><text>Garmin International</text></link><time>2014-09-09T06:15:36Z</time></metadata><trk><name>Current Track: 06 SEP 2014 09:37</name><extensions><gpxx:TrackExtension><gpxx:DisplayColor>Cyan</gpxx:DisplayColor></gpxx:TrackExtension><gpxtrkx:TrackStatsExtension><gpxtrkx:Distance>403653</gpxtrkx:Distance></gpxtrkx:TrackStatsExtension></extensions><trkseg><trkpt lat="45.6269584782" lon="6.8123630527"><ele>1006.64</ele><time>2014-09-06T07:37:28Z</time></trkpt><trkpt lat="45.6268418860" lon="6.8123176228"><ele>1037.88</ele><time>2014-09-06T07:37:56Z</time></trkpt><trkpt lat="45.6268567219" lon="6.8123914674"><ele>1029.23</ele><time>2014-09-06T07:38:27Z</time></trkpt><trkpt lat="45.6268549617" lon="6.8123962451"><ele>1035.00</ele><time>2014-09-06T07:39:01Z</time></trkpt><trkpt lat="45.6268583145" lon="6.8123585265"><ele>1031.63</ele><time>2014-09-06T07:39:21Z</time></trkpt><trkpt lat="45.6268582307" lon="6.8123226520"><ele>1032.59</ele><time>2014-09-06T07:39:29Z</time></trkpt><trkpt lat="45.6268466637" lon="6.8122678343"><ele>1032.59</ele><time>2014-09-06T07:39:32Z</time></trkpt><trkpt lat="45.6268457416" lon="6.8122235779"><ele>1032.59</ele><time>2014-09-06T07:39:33Z</time></trkpt><trkpt lat="45.6268456578" lon="6.8121868651"><ele>1032.59</ele><time>2014-09-06T07:39:34Z</time></trkpt><trkpt lat="45.6269093603" lon="6.8116884772"><ele>1030.67</ele><time>2014-09-06T07:39:46Z</time></trkpt><trkpt lat="45.6268429756" lon="6.8112231139"><ele>1027.79</ele><time>2014-09-06T07:39:55Z</time></trkpt><trkpt lat="45.6268311571" lon="6.8111553881"><ele>1027.31</ele><time>2014-09-06T07:39:56Z</time></trkpt><trkpt lat="45.6267812010" lon="6.8107117340"><ele>1026.34</ele><time>2014-09-06T07:40:02Z</time></trkpt><trkpt lat="45.6267830450" lon="6.8105600215"><ele>1025.38</ele><time>2014-09-06T07:40:04Z</time></trkpt><trkpt lat="45.6267983839" lon="6.8100452889"><ele>1022.02</ele><time>2014-09-06T07:40:11Z</time></trkpt><trkpt lat="45.6268029939" lon="6.8099805806"><ele>1022.02</ele><time>2014-09-06T07:40:12Z</time></trkpt><trkpt lat="45.6268062629" lon="6.8099158723"><ele>1021.54</ele><time>2014-09-06T07:40:13Z</time></trkpt><trkpt lat="45.6268043350" lon="6.8098477274"><ele>1021.06</ele><time>2014-09-06T07:40:14Z</time></trkpt><trkpt lat="45.6268061791" lon="6.8097831868"><ele>1021.06</ele><time>2014-09-06T07:40:15Z</time></trkpt><trkpt lat="45.6268123817" lon="6.8097153772"><ele>1020.58</ele><time>2014-09-06T07:40:16Z</time></trkpt><trkpt lat="45.6268207636" lon="6.8093461543"><ele>1019.13</ele><time>2014-09-06T07:40:21Z</time></trkpt><trkpt lat="45.6268116273" lon="6.8092847988"><ele>1018.65</ele><time>2014-09-06T07:40:22Z</time></trkpt><trkpt lat="45.6267941929" lon="6.8092134688"><ele>1018.17</ele><time>2014-09-06T07:40:23Z</time></trkpt><trkpt lat="45.6267779320" lon="6.8091609143"><ele>1017.69</ele><time>2014-09-06T07:40:24Z</time></trkpt><trkpt lat="45.6267486792" lon="6.8091143947"><ele>1017.21</ele><time>2014-09-06T07:40:25Z</time></trkpt><trkpt lat="45.6267168280" lon="6.8090819567"><ele>1016.73</ele><time>2014-09-06T07:40:26Z</time></trkpt><trkpt lat="45.6266853958" lon="6.8090636004"><ele>1015.77</ele><time>2014-09-06T07:40:27Z</time></trkpt><trkpt lat="45.6266503595" lon="6.8090514466"><ele>1015.77</ele><time>2014-09-06T07:40:28Z</time></trkpt><trkpt lat="45.6266167480" lon="6.8090500217"><ele>1015.29</ele><time>2014-09-06T07:40:29Z</time></trkpt><trkpt lat="45.6265834719" lon="6.8090667855"><ele>1014.81</ele><time>2014-09-06T07:40:30Z</time></trkpt><trkpt lat="45.6265509501" lon="6.8090910092"><ele>1014.81</ele><time>2014-09-06T07:40:31Z</time></trkpt><trkpt lat="45.6265184283" lon="6.8091226928"><ele>1014.33</ele><time>2014-09-06T07:40:32Z</time></trkpt><trkpt lat="45.6264819670" lon="6.8091570586"><ele>1014.33</ele><time>2014-09-06T07:40:33Z</time></trkpt><trkpt lat="45.6264511216" lon="6.8091935199"><ele>1013.85</ele><time>2014-09-06T07:40:34Z</time></trkpt><trkpt lat="45.6259832438" lon="6.8099632300"><ele>1009.04</ele><time>2014-09-06T07:40:48Z</time></trkpt><trkpt lat="45.6258912943" lon="6.8101872783"><ele>1008.08</ele><time>2014-09-06T07:40:51Z</time></trkpt><trkpt lat="45.6258618739" lon="6.8102536630"><ele>1007.12</ele><time>2014-09-06T07:40:52Z</time></trkpt><trkpt lat="45.6254836824" lon="6.8113641813"><ele>1000.87</ele><time>2014-09-06T07:41:06Z</time></trkpt><trkpt lat="45.6254410185" lon="6.8114978727"><ele>1000.39</ele><time>2014-09-06T07:41:08Z</time></trkpt><trkpt lat="45.6254184712" lon="6.8115515169"><ele>999.91</ele><time>2014-09-06T07:41:09Z</time></trkpt><trkpt lat="45.6253902242" lon="6.8116020598"><ele>999.43</ele><time>2014-09-06T07:41:10Z</time></trkpt><trkpt lat="45.6253571156" lon="6.8116397783"><ele>998.95</ele><time>2014-09-06T07:41:11Z</time></trkpt><trkpt lat="45.6253183912" lon="6.8116565421"><ele>998.47</ele><time>2014-09-06T07:41:12Z</time></trkpt><trkpt lat="45.6252679322" lon="6.8116443884"><ele>997.99</ele><time>2014-09-06T07:41:13Z</time></trkpt><trkpt lat="45.6252240110" lon="6.8116050772"><ele>997.51</ele><time>2014-09-06T07:41:14Z</time></trkpt><trkpt lat="45.6251947582" lon="6.8115487508"><ele>997.51</ele><time>2014-09-06T07:41:15Z</time></trkpt><trkpt lat="45.6251693610" lon="6.8114644289"><ele>997.02</ele><time>2014-09-06T07:41:16Z</time></trkpt><trkpt lat="45.6251524296" lon="6.8113811128"><ele>996.54</ele><time>2014-09-06T07:41:17Z</time></trkpt><trkpt lat="45.6251389347" lon="6.8112988025"><ele>996.06</ele><time>2014-09-06T07:41:18Z</time></trkpt><trkpt lat="45.6249212567" lon="6.8098952528"><ele>989.81</ele><time>2014-09-06T07:41:30Z</time></trkpt><trkpt lat="45.6247125473" lon="6.8084738497"><ele>982.60</ele><time>2014-09-06T07:41:41Z</time></trkpt><trkpt lat="45.6246402953" lon="6.8080853485"><ele>980.20</ele><time>2014-09-06T07:41:45Z</time></trkpt><trkpt lat="45.6246062648" lon="6.8080290221"><ele>979.72</ele><time>2014-09-06T07:41:46Z</time></trkpt><trkpt lat="45.6245486811" lon="6.8079817481"><ele>979.24</ele><time>2014-09-06T07:41:47Z</time></trkpt><trkpt lat="45.6244931091" lon="6.8079678342"><ele>979.24</ele><time>2014-09-06T07:41:48Z</time></trkpt><trkpt lat="45.6244225334" lon="6.8079914711"><ele>978.76</ele><time>2014-09-06T07:41:49Z</time></trkpt><trkpt lat="45.6243766006" lon="6.8080431875"><ele>978.28</ele><time>2014-09-06T07:41:50Z</time></trkpt><trkpt lat="45.6243318412" lon="6.8081310298"><ele>977.80</ele><time>2014-09-06T07:41:51Z</time></trkpt><trkpt lat="45.6242974754" lon="6.8082099035"><ele>977.80</ele><time>2014-09-06T07:41:52Z</time></trkpt><trkpt lat="45.6237872690" lon="6.8094410375"><ele>971.07</ele><time>2014-09-06T07:42:04Z</time></trkpt><trkpt lat="45.6233038846" lon="6.8105919566"><ele>963.38</ele><time>2014-09-06T07:42:17Z</time></trkpt><trkpt lat="45.6231702771" lon="6.8108921126"><ele>960.49</ele><time>2014-09-06T07:42:22Z</time></trkpt><trkpt lat="45.6231430359" lon="6.8109353632"><ele>959.53</ele><time>2014-09-06T07:42:23Z</time></trkpt><trkpt lat="45.6231157947" lon="6.8109688908"><ele>959.05</ele><time>2014-09-06T07:42:24Z</time></trkpt><trkpt lat="45.6230847817" lon="6.8109879177"><ele>959.05</ele><time>2014-09-06T07:42:25Z</time></trkpt><trkpt lat="45.6230527628" lon="6.8109895103"><ele>959.05</ele><time>2014-09-06T07:42:26Z</time></trkpt><trkpt lat="45.6230188161" lon="6.8109752610"><ele>959.05</ele><time>2014-09-06T07:42:27Z</time></trkpt><trkpt lat="45.6229860429" lon="6.8109381292"><ele>958.57</ele><time>2014-09-06T07:42:28Z</time></trkpt><trkpt lat="45.6229647528" lon="6.8108897656"><ele>958.57</ele><time>2014-09-06T07:42:29Z</time></trkpt><trkpt lat="45.6229470670" lon="6.8108284939"><ele>958.09</ele><time>2014-09-06T07:42:30Z</time></trkpt><trkpt lat="45.6229333207" lon="6.8107609358"><ele>958.09</ele><time>2014-09-06T07:42:31Z</time></trkpt><trkpt lat="45.6227751542" lon="6.8095984496"><ele>953.28</ele><time>2014-09-06T07:42:43Z</time></trkpt><trkpt lat="45.6225868966" lon="6.8082428444"><ele>947.04</ele><time>2014-09-06T07:42:57Z</time></trkpt><trkpt lat="45.6225717254" lon="6.8081728555"><ele>946.56</ele><time>2014-09-06T07:42:58Z</time></trkpt><trkpt lat="45.6225468311" lon="6.8081139307"><ele>946.56</ele><time>2014-09-06T07:42:59Z</time></trkpt><trkpt lat="45.6225131359" lon="6.8080683332"><ele>946.07</ele><time>2014-09-06T07:43:00Z</time></trkpt><trkpt lat="45.6224691309" lon="6.8080359790"><ele>945.59</ele><time>2014-09-06T07:43:01Z</time></trkpt><trkpt lat="45.6224208511" lon="6.8080322072"><ele>945.11</ele><time>2014-09-06T07:43:02Z</time></trkpt><trkpt lat="45.6223711465" lon="6.8080593646"><ele>945.11</ele><time>2014-09-06T07:43:03Z</time></trkpt><trkpt lat="45.6223358586" lon="6.8080976699"><ele>945.11</ele><time>2014-09-06T07:43:04Z</time></trkpt><trkpt lat="45.6223057676" lon="6.8081558403"><ele>945.11</ele><time>2014-09-06T07:43:05Z</time></trkpt><trkpt lat="45.6222828012" lon="6.8082261644"><ele>944.63</ele><time>2014-09-06T07:43:06Z</time></trkpt><trkpt lat="45.6222638581" lon="6.8082996737"><ele>944.15</ele><time>2014-09-06T07:43:07Z</time></trkpt><trkpt lat="45.6220212020" lon="6.8094638363"><ele>940.31</ele><time>2014-09-06T07:43:21Z</time></trkpt><trkpt lat="45.6217975728" lon="6.8104609475"><ele>935.98</ele><time>2014-09-06T07:43:34Z</time></trkpt><trkpt lat="45.6217618659" lon="6.8105382286"><ele>935.50</ele><time>2014-09-06T07:43:35Z</time></trkpt><trkpt lat="45.6217265781" lon="6.8105877656"><ele>935.50</ele><time>2014-09-06T07:43:36Z</time></trkpt><trkpt lat="45.6216793042" lon="6.8106295075"><ele>935.02</ele><time>2014-09-06T07:43:37Z</time></trkpt><trkpt lat="45.6216264144" lon="6.8106579222"><ele>935.02</ele><time>2014-09-06T07:43:38Z</time></trkpt><trkpt lat="45.6215669028" lon="6.8106713332"><ele>934.54</ele><time>2014-09-06T07:43:39Z</time></trkpt><trkpt lat="45.6215018593" lon="6.8106659688"><ele>934.06</ele><time>2014-09-06T07:43:40Z</time></trkpt><trkpt lat="45.6214496400" lon="6.8106436729"><ele>934.06</ele><time>2014-09-06T07:43:41Z</time></trkpt><trkpt lat="45.6213969178" lon="6.8106001709"><ele>933.58</ele><time>2014-09-06T07:43:42Z</time></trkpt><trkpt lat="45.6213528290" lon="6.8105386477"><ele>933.10</ele><time>2014-09-06T07:43:43Z</time></trkpt><trkpt lat="45.6213156972" lon="6.8104634620"><ele>933.10</ele><time>2014-09-06T07:43:44Z</time></trkpt><trkpt lat="45.6212923955" lon="6.8103890307"><ele>932.62</ele><time>2014-09-06T07:43:45Z</time></trkpt><trkpt lat="45.6212777272" lon="6.8103033677"><ele>932.14</ele><time>2014-09-06T07:43:46Z</time></trkpt><trkpt lat="45.6212692615" lon="6.8102079816"><ele>931.65</ele><time>2014-09-06T07:43:47Z</time></trkpt><trkpt lat="45.6211939082" lon="6.8089539651"><ele>926.85</ele><time>2014-09-06T07:44:00Z</time></trkpt><trkpt lat="45.6211483106" lon="6.8082478736"><ele>923.48</ele><time>2014-09-06T07:44:11Z</time></trkpt><trkpt lat="45.6211413536" lon="6.8081732746"><ele>923.48</ele><time>2014-09-06T07:44:12Z</time></trkpt><trkpt lat="45.6211367436" lon="6.8081024475"><ele>923.00</ele><time>2014-09-06T07:44:13Z</time></trkpt><trkpt lat="45.6210588757" lon="6.8068905082"><ele>919.16</ele><time>2014-09-06T07:44:26Z</time></trkpt><trkpt lat="45.6210457161" lon="6.8066982273"><ele>918.68</ele><time>2014-09-06T07:44:28Z</time></trkpt><trkpt lat="45.6209881324" lon="6.8057763856"><ele>914.83</ele><time>2014-09-06T07:44:38Z</time></trkpt><trkpt lat="45.6209550239" lon="6.8052981980"><ele>913.39</ele><time>2014-09-06T07:44:43Z</time></trkpt><trkpt lat="45.6209553592" lon="6.8052156363"><ele>913.39</ele><time>2014-09-06T07:44:44Z</time></trkpt><trkpt lat="45.6209570356" lon="6.8051297218"><ele>912.91</ele><time>2014-09-06T07:44:45Z</time></trkpt><trkpt lat="45.6210262701" lon="6.8043806311"><ele>910.51</ele><time>2014-09-06T07:44:54Z</time></trkpt><trkpt lat="45.6210444588" lon="6.8043049425"><ele>910.03</ele><time>2014-09-06T07:44:55Z</time></trkpt><trkpt lat="45.6211449578" lon="6.8039196264"><ele>908.58</ele><time>2014-09-06T07:45:00Z</time></trkpt></trkseg><trkseg><trkpt lat="45.6271608174" lon="6.7870294210"><ele>840.33</ele><time>2014-09-06T07:56:19Z</time></trkpt><trkpt lat="45.6271571293" lon="6.7869248148"><ele>840.33</ele><time>2014-09-06T07:56:20Z</time></trkpt><trkpt lat="45.6271567103" lon="6.7868231423"><ele>838.89</ele><time>2014-09-06T07:56:21Z</time></trkpt><trkpt lat="45.6271468196" lon="6.7867103219"><ele>837.93</ele><time>2014-09-06T07:56:22Z</time></trkpt><trkpt lat="45.6271305587" lon="6.7866057996"><ele>837.93</ele><time>2014-09-06T07:56:23Z</time></trkpt><trkpt lat="45.6269895751" lon="6.7861550208"><ele>837.93</ele><time>2014-09-06T07:56:28Z</time></trkpt><trkpt lat="45.6269478332" lon="6.7860845290"><ele>838.41</ele><time>2014-09-06T07:56:29Z</time></trkpt><trkpt lat="45.6269012298" lon="6.7860203236"><ele>837.93</ele><time>2014-09-06T07:56:30Z</time></trkpt><trkpt lat="45.6263995729" lon="6.7854761705"><ele>836.00</ele><time>2014-09-06T07:56:41Z</time></trkpt><trkpt lat="45.6263269018" lon="6.7853926029"><ele>837.45</ele><time>2014-09-06T07:56:43Z</time></trkpt><trkpt lat="45.6263085455" lon="6.7853398807"><ele>837.45</ele><time>2014-09-06T07:56:44Z</time></trkpt><trkpt lat="45.6262979005" lon="6.7852940317"><ele>837.45</ele><time>2014-09-06T07:56:45Z</time></trkpt><trkpt lat="45.6262869202" lon="6.7852705624"><ele>838.41</ele><time>2014-09-06T07:56:46Z</time></trkpt><trkpt lat="45.6262826454" lon="6.7852784414"><ele>836.96</ele><time>2014-09-06T07:57:00Z</time></trkpt><trkpt lat="45.6261777040" lon="6.7849590909"><ele>837.45</ele><time>2014-09-06T07:57:09Z</time></trkpt><trkpt lat="45.6258930545" lon="6.7839748040"><ele>834.08</ele><time>2014-09-06T07:57:22Z</time></trkpt><trkpt lat="45.6256772205" lon="6.7829802074"><ele>830.72</ele><time>2014-09-06T07:57:33Z</time></trkpt><trkpt lat="45.6256742869" lon="6.7828801274"><ele>830.24</ele><time>2014-09-06T07:57:34Z</time></trkpt><trkpt lat="45.6256782264" lon="6.7827767786"><ele>829.76</ele><time>2014-09-06T07:57:35Z</time></trkpt><trkpt lat="45.6256068125" lon="6.7814438883"><ele>824.47</ele><time>2014-09-06T07:57:48Z</time></trkpt><trkpt lat="45.6250171456" lon="6.7800383270"><ele>820.14</ele><time>2014-09-06T07:58:03Z</time></trkpt><trkpt lat="45.6244708970" lon="6.7793568783"><ele>818.70</ele><time>2014-09-06T07:58:15Z</time></trkpt><trkpt lat="45.6240497902" lon="6.7788600828"><ele>818.70</ele><time>2014-09-06T07:58:29Z</time></trkpt><trkpt lat="45.6238693278" lon="6.7786456738"><ele>817.74</ele><time>2014-09-06T07:58:41Z</time></trkpt><trkpt lat="45.6236054655" lon="6.7783425003"><ele>816.78</ele><time>2014-09-06T07:58:51Z</time></trkpt><trkpt lat="45.6235800683" lon="6.7782874312"><ele>816.78</ele><time>2014-09-06T07:58:52Z</time></trkpt><trkpt lat="45.6235489715" lon="6.7782383971"><ele>816.30</ele><time>2014-09-06T07:58:53Z</time></trkpt><trkpt lat="45.6235082354" lon="6.7781954817"><ele>816.30</ele><time>2014-09-06T07:58:54Z</time></trkpt><trkpt lat="45.6234578602" lon="6.7781622894"><ele>816.30</ele><time>2014-09-06T07:58:55Z</time></trkpt><trkpt lat="45.6234115083" lon="6.7781286780"><ele>815.82</ele><time>2014-09-06T07:58:56Z</time></trkpt><trkpt lat="45.6233697664" lon="6.7780760396"><ele>815.82</ele><time>2014-09-06T07:58:57Z</time></trkpt><trkpt lat="45.6233439501" lon="6.7780285142"><ele>815.82</ele><time>2014-09-06T07:58:58Z</time></trkpt><trkpt lat="45.6233155355" lon="6.7779675778"><ele>815.82</ele><time>2014-09-06T07:58:59Z</time></trkpt><trkpt lat="45.6232157908" lon="6.7777388357"><ele>814.85</ele><time>2014-09-06T07:59:03Z</time></trkpt><trkpt lat="45.6231542677" lon="6.7775753886"><ele>814.85</ele><time>2014-09-06T07:59:06Z</time></trkpt><trkpt lat="45.6229342427" lon="6.7770306487"><ele>813.89</ele><time>2014-09-06T07:59:17Z</time></trkpt><trkpt lat="45.6229191553" lon="6.7769776750"><ele>813.89</ele><time>2014-09-06T07:59:18Z</time></trkpt><trkpt lat="45.6229008827" lon="6.7769252043"><ele>813.89</ele><time>2014-09-06T07:59:19Z</time></trkpt><trkpt lat="45.6228785031" lon="6.7768794391"><ele>813.89</ele><time>2014-09-06T07:59:20Z</time></trkpt><trkpt lat="45.6228525192" lon="6.7768309079"><ele>813.89</ele><time>2014-09-06T07:59:21Z</time></trkpt><trkpt lat="45.6228074245" lon="6.7767296545"><ele>813.89</ele><time>2014-09-06T07:59:23Z</time></trkpt><trkpt lat="45.6227557920" lon="6.7765615135"><ele>813.89</ele><time>2014-09-06T07:59:26Z</time></trkpt><trkpt lat="45.6227568816" lon="6.7764957994"><ele>813.89</ele><time>2014-09-06T07:59:27Z</time></trkpt><trkpt lat="45.6227766629" lon="6.7764490284"><ele>813.89</ele><time>2014-09-06T07:59:28Z</time></trkpt><trkpt lat="45.6228075922" lon="6.7764237989"><ele>813.89</ele><time>2014-09-06T07:59:29Z</time></trkpt><trkpt lat="45.6228496693" lon="6.7764273193"><ele>813.89</ele><time>2014-09-06T07:59:30Z</time></trkpt><trkpt lat="45.6228831969" lon="6.7764485255"><ele>813.89</ele><time>2014-09-06T07:59:31Z</time></trkpt><trkpt lat="45.6229177304" lon="6.7764781974"><ele>813.41</ele><time>2014-09-06T07:59:32Z</time></trkpt><trkpt lat="45.6229488272" lon="6.7765063606"><ele>813.41</ele><time>2014-09-06T07:59:33Z</time></trkpt><trkpt lat="45.6229827739" lon="6.7765417323"><ele>813.41</ele><time>2014-09-06T07:59:34Z</time></trkpt><trkpt lat="45.6230156310" lon="6.7765884195"><ele>813.41</ele><time>2014-09-06T07:59:35Z</time></trkpt><trkpt lat="45.6230380945" lon="6.7766296584"><ele>812.93</ele><time>2014-09-06T07:59:36Z</time></trkpt><trkpt lat="45.6234450359" lon="6.7773903161"><ele>812.93</ele><time>2014-09-06T07:59:52Z</time></trkpt><trkpt lat="45.6235371530" lon="6.7774317227"><ele>811.97</ele><time>2014-09-06T08:00:01Z</time></trkpt><trkpt lat="45.6235247478" lon="6.7773957644"><ele>813.89</ele><time>2014-09-06T08:00:20Z</time></trkpt><trkpt lat="45.6234954949" lon="6.7773971893"><ele>814.85</ele><time>2014-09-06T08:00:39Z</time></trkpt><trkpt lat="45.6234959979" lon="6.7773807608"><ele>814.85</ele><time>2014-09-06T08:00:40Z</time></trkpt><trkpt lat="45.6235105824" lon="6.7773673497"><ele>815.34</ele><time>2014-09-06T08:00:42Z</time></trkpt><trkpt lat="45.6235216465" lon="6.7773574591"><ele>815.34</ele><time>2014-09-06T08:00:43Z</time></trkpt><trkpt lat="45.6235285196" lon="6.7773461435"><ele>815.34</ele><time>2014-09-06T08:00:44Z</time></trkpt><trkpt lat="45.6235379074" lon="6.7773295473"><ele>815.34</ele><time>2014-09-06T08:00:45Z</time></trkpt><trkpt lat="45.6235477980" lon="6.7773151305"><ele>815.34</ele><time>2014-09-06T08:00:46Z</time></trkpt><trkpt lat="45.6235875282" lon="6.7772958521"><ele>815.82</ele><time>2014-09-06T08:01:03Z</time></trkpt><trkpt lat="45.6235975865" lon="6.7773712892"><ele>816.30</ele><time>2014-09-06T08:01:28Z</time></trkpt><trkpt lat="45.6237056293" lon="6.7772666831"><ele>818.70</ele><time>2014-09-06T08:01:50Z</time></trkpt><trkpt lat="45.6236509793" lon="6.7771363445"><ele>821.58</ele><time>2014-09-06T08:02:16Z</time></trkpt><trkpt lat="45.6236307789" lon="6.7771995440"><ele>822.06</ele><time>2014-09-06T08:02:40Z</time></trkpt><trkpt lat="45.6235224009" lon="6.7774054036"><ele>817.26</ele><time>2014-09-06T08:02:57Z</time></trkpt><trkpt lat="45.6235022843" lon="6.7774339858"><ele>818.70</ele><time>2014-09-06T08:02:58Z</time></trkpt><trkpt lat="45.6234961655" lon="6.7774367519"><ele>820.62</ele><time>2014-09-06T08:02:59Z</time></trkpt><trkpt lat="45.6235070620" lon="6.7774323933"><ele>819.66</ele><time>2014-09-06T08:03:00Z</time></trkpt><trkpt lat="45.6235219818" lon="6.7774395179"><ele>819.66</ele><time>2014-09-06T08:03:01Z</time></trkpt><trkpt lat="45.6235054694" lon="6.7774280347"><ele>819.66</ele><time>2014-09-06T08:03:12Z</time></trkpt><trkpt lat="45.6234959979" lon="6.7774292082"><ele>814.37</ele><time>2014-09-06T08:03:47Z</time></trkpt><trkpt lat="45.6235301960" lon="6.7774299625"><ele>815.82</ele><time>2014-09-06T08:04:14Z</time></trkpt><trkpt lat="45.6235463731" lon="6.7774346564"><ele>812.93</ele><time>2014-09-06T08:04:38Z</time></trkpt><trkpt lat="45.6234994344" lon="6.7773971893"><ele>813.41</ele><time>2014-09-06T08:05:07Z</time></trkpt><trkpt lat="45.6235107500" lon="6.7774434574"><ele>812.93</ele><time>2014-09-06T08:05:38Z</time></trkpt><trkpt lat="45.6235310342" lon="6.7774549406"><ele>812.45</ele><time>2014-09-06T08:06:00Z</time></trkpt><trkpt lat="45.6235507317" lon="6.7774313036"><ele>810.05</ele><time>2014-09-06T08:06:25Z</time></trkpt><trkpt lat="45.6235622149" lon="6.7774346564"><ele>808.13</ele><time>2014-09-06T08:06:53Z</time></trkpt><trkpt lat="45.6235239096" lon="6.7774189822"><ele>811.01</ele><time>2014-09-06T08:07:16Z</time></trkpt><trkpt lat="45.6235302798" lon="6.7774149589"><ele>810.05</ele><time>2014-09-06T08:07:51Z</time></trkpt><trkpt lat="45.6235721055" lon="6.7774549406"><ele>806.68</ele><time>2014-09-06T08:08:20Z</time></trkpt><trkpt lat="45.6235400029" lon="6.7774397694"><ele>808.61</ele><time>2014-09-06T08:09:02Z</time></trkpt><trkpt lat="45.6235345546" lon="6.7774260230"><ele>806.68</ele><time>2014-09-06T08:09:39Z</time></trkpt><trkpt lat="45.6234716903" lon="6.7774329800"><ele>811.97</ele><time>2014-09-06T08:10:13Z</time></trkpt><trkpt lat="45.6234472990" lon="6.7774550244"><ele>819.18</ele><time>2014-09-06T08:10:44Z</time></trkpt><trkpt lat="45.6234517414" lon="6.7774887197"><ele>821.10</ele><time>2014-09-06T08:11:16Z</time></trkpt><trkpt lat="45.6234510709" lon="6.7774869595"><ele>820.14</ele><time>2014-09-06T08:11:51Z</time></trkpt><trkpt lat="45.6234570220" lon="6.7774572875"><ele>816.30</ele><time>2014-09-06T08:12:25Z</time></trkpt><trkpt lat="45.6234481372" lon="6.7774408590"><ele>814.37</ele><time>2014-09-06T08:13:06Z</time></trkpt><trkpt lat="45.6234343909" lon="6.7774589639"><ele>818.22</ele><time>2014-09-06T08:13:41Z</time></trkpt><trkpt lat="45.6234282721" lon="6.7774837743"><ele>821.10</ele><time>2014-09-06T08:14:09Z</time></trkpt><trkpt lat="45.6234321278" lon="6.7774809245"><ele>818.70</ele><time>2014-09-06T08:14:37Z</time></trkpt><trkpt lat="45.6234409288" lon="6.7774516717"><ele>821.58</ele><time>2014-09-06T08:15:16Z</time></trkpt><trkpt lat="45.6234475505" lon="6.7774106003"><ele>826.39</ele><time>2014-09-06T08:15:48Z</time></trkpt><trkpt lat="45.6234916393" lon="6.7774474807"><ele>826.39</ele><time>2014-09-06T08:16:22Z</time></trkpt><trkpt lat="45.6235050503" lon="6.7774446309"><ele>824.95</ele><time>2014-09-06T08:16:59Z</time></trkpt><trkpt lat="45.6235094089" lon="6.7774559464"><ele>822.55</ele><time>2014-09-06T08:17:26Z</time></trkpt><trkpt lat="45.6235083193" lon="6.7774336506"><ele>819.66</ele><time>2014-09-06T08:17:59Z</time></trkpt><trkpt lat="45.6235121749" lon="6.7774254363"><ele>818.22</ele><time>2014-09-06T08:18:27Z</time></trkpt><trkpt lat="45.6234957464" lon="6.7774348240"><ele>817.26</ele><time>2014-09-06T08:19:03Z</time></trkpt><trkpt lat="45.6234861910" lon="6.7774257716"><ele>816.78</ele><time>2014-09-06T08:19:07Z</time></trkpt><trkpt lat="45.6234786473" lon="6.7774233408"><ele>816.78</ele><time>2014-09-06T08:19:08Z</time></trkpt><trkpt lat="45.6234712712" lon="6.7774223350"><ele>816.78</ele><time>2014-09-06T08:19:09Z</time></trkpt><trkpt lat="45.6234619673" lon="6.7774246819"><ele>816.78</ele><time>2014-09-06T08:19:10Z</time></trkpt><trkpt lat="45.6234493107" lon="6.7774279509"><ele>816.30</ele><time>2014-09-06T08:19:11Z</time></trkpt><trkpt lat="45.6234358996" lon="6.7774354946"><ele>816.30</ele><time>2014-09-06T08:19:12Z</time></trkpt><trkpt lat="45.6234225724" lon="6.7774439603"><ele>816.30</ele><time>2014-09-06T08:19:13Z</time></trkpt><trkpt lat="45.6233493146" lon="6.7774821818"><ele>815.82</ele><time>2014-09-06T08:19:18Z</time></trkpt><trkpt lat="45.6233359873" lon="6.7774664238"><ele>815.34</ele><time>2014-09-06T08:19:19Z</time></trkpt><trkpt lat="45.6233228277" lon="6.7774548568"><ele>815.82</ele><time>2014-09-06T08:19:20Z</time></trkpt><trkpt lat="45.6233071536" lon="6.7774306331"><ele>815.82</ele><time>2014-09-06T08:19:21Z</time></trkpt><trkpt lat="45.6232919823" lon="6.7774034757"><ele>815.34</ele><time>2014-09-06T08:19:22Z</time></trkpt><trkpt lat="45.6232033856" lon="6.7771904077"><ele>813.89</ele><time>2014-09-06T08:19:29Z</time></trkpt><trkpt lat="45.6231006235" lon="6.7769975401"><ele>812.45</ele><time>2014-09-06T08:19:35Z</time></trkpt><trkpt lat="45.6231014617" lon="6.7769531999"><ele>812.45</ele><time>2014-09-06T08:19:36Z</time></trkpt><trkpt lat="45.6230114400" lon="6.7764553148"><ele>811.97</ele><time>2014-09-06T08:19:48Z</time></trkpt><trkpt lat="45.6228714623" lon="6.7762980703"><ele>811.49</ele><time>2014-09-06T08:19:54Z</time></trkpt><trkpt lat="45.6228386052" lon="6.7763008364"><ele>811.49</ele><time>2014-09-06T08:19:55Z</time></trkpt><trkpt lat="45.6228171475" lon="6.7763090506"><ele>811.49</ele><time>2014-09-06T08:19:56Z</time></trkpt><trkpt lat="45.6227919180" lon="6.7763219588"><ele>811.49</ele><time>2014-09-06T08:19:57Z</time></trkpt><trkpt lat="45.6227658503" lon="6.7763381358"><ele>811.49</ele><time>2014-09-06T08:19:58Z</time></trkpt><trkpt lat="45.6225967873" lon="6.7763111461"><ele>811.01</ele><time>2014-09-06T08:20:07Z</time></trkpt><trkpt lat="45.6225587334" lon="6.7762536462"><ele>811.01</ele><time>2014-09-06T08:20:15Z</time></trkpt><trkpt lat="45.6225455739" lon="6.7762199510"><ele>811.01</ele><time>2014-09-06T08:20:16Z</time></trkpt><trkpt lat="45.6222114712" lon="6.7755369935"><ele>810.05</ele><time>2014-09-06T08:20:31Z</time></trkpt><trkpt lat="45.6218480319" lon="6.7747439817"><ele>810.53</ele><time>2014-09-06T08:20:48Z</time></trkpt><trkpt lat="45.6215640530" lon="6.7740419134"><ele>811.49</ele><time>2014-09-06T08:21:02Z</time></trkpt><trkpt lat="45.6212476362" lon="6.7731591314"><ele>813.41</ele><time>2014-09-06T08:21:20Z</time></trkpt><trkpt lat="45.6209296267" lon="6.7723988090"><ele>816.78</ele><time>2014-09-06T08:21:37Z</time></trkpt><trkpt lat="45.6206578854" lon="6.7717514746"><ele>817.26</ele><time>2014-09-06T08:21:51Z</time></trkpt><trkpt lat="45.6204723101" lon="6.7712695152"><ele>817.26</ele><time>2014-09-06T08:22:03Z</time></trkpt><trkpt lat="45.6204788480" lon="6.7712028790"><ele>817.26</ele><time>2014-09-06T08:22:04Z</time></trkpt><trkpt lat="45.6204853859" lon="6.7711623106"><ele>817.26</ele><time>2014-09-06T08:22:05Z</time></trkpt><trkpt lat="45.6204879843" lon="6.7711138632"><ele>817.26</ele><time>2014-09-06T08:22:06Z</time></trkpt><trkpt lat="45.6204841286" lon="6.7710636556"><ele>816.78</ele><time>2014-09-06T08:22:07Z</time></trkpt><trkpt lat="45.6204744056" lon="6.7710207403"><ele>816.78</ele><time>2014-09-06T08:22:08Z</time></trkpt><trkpt lat="45.6204531156" lon="6.7709798366"><ele>817.26</ele><time>2014-09-06T08:22:09Z</time></trkpt><trkpt lat="45.6204248685" lon="6.7709536850"><ele>816.78</ele><time>2014-09-06T08:22:10Z</time></trkpt><trkpt lat="45.6203909218" lon="6.7709387653"><ele>817.26</ele><time>2014-09-06T08:22:11Z</time></trkpt><trkpt lat="45.6203601602" lon="6.7709321436"><ele>816.78</ele><time>2014-09-06T08:22:12Z</time></trkpt><trkpt lat="45.6203242019" lon="6.7709308863"><ele>817.26</ele><time>2014-09-06T08:22:13Z</time></trkpt><trkpt lat="45.6202899199" lon="6.7709379271"><ele>816.78</ele><time>2014-09-06T08:22:14Z</time></trkpt><trkpt lat="45.6202564761" lon="6.7709457222"><ele>816.30</ele><time>2014-09-06T08:22:15Z</time></trkpt><trkpt lat="45.6202202663" lon="6.7709422018"><ele>816.30</ele><time>2014-09-06T08:22:16Z</time></trkpt><trkpt lat="45.6201729085" lon="6.7709237617"><ele>816.78</ele><time>2014-09-06T08:22:17Z</time></trkpt><trkpt lat="45.6201372016" lon="6.7709070817"><ele>816.78</ele><time>2014-09-06T08:22:18Z</time></trkpt><trkpt lat="45.6199165899" lon="6.7707129568"><ele>818.70</ele><time>2014-09-06T08:22:28Z</time></trkpt><trkpt lat="45.6196415797" lon="6.7704179138"><ele>819.18</ele><time>2014-09-06T08:22:42Z</time></trkpt><trkpt lat="45.6194012705" lon="6.7701306660"><ele>820.14</ele><time>2014-09-06T08:22:56Z</time></trkpt><trkpt lat="45.6192041282" lon="6.7699776124"><ele>819.66</ele><time>2014-09-06T08:23:12Z</time></trkpt><trkpt lat="45.6191628054" lon="6.7699512094"><ele>818.70</ele><time>2014-09-06T08:23:15Z</time></trkpt><trkpt lat="45.6191474665" lon="6.7699483596"><ele>818.22</ele><time>2014-09-06T08:23:16Z</time></trkpt><trkpt lat="45.6191359833" lon="6.7699370440"><ele>818.22</ele><time>2014-09-06T08:23:17Z</time></trkpt><trkpt lat="45.6190965045" lon="6.7698756047"><ele>817.26</ele><time>2014-09-06T08:23:21Z</time></trkpt><trkpt lat="45.6190854404" lon="6.7698621098"><ele>817.26</ele><time>2014-09-06T08:23:22Z</time></trkpt><trkpt lat="45.6190741248" lon="6.7698513810"><ele>817.26</ele><time>2014-09-06T08:23:23Z</time></trkpt><trkpt lat="45.6190633122" lon="6.7698425800"><ele>817.26</ele><time>2014-09-06T08:23:24Z</time></trkpt><trkpt lat="45.6190526672" lon="6.7698363774"><ele>817.26</ele><time>2014-09-06T08:23:25Z</time></trkpt><trkpt lat="45.6189771462" lon="6.7697313521"><ele>816.78</ele><time>2014-09-06T08:23:33Z</time></trkpt><trkpt lat="45.6189701054" lon="6.7697145883"><ele>816.78</ele><time>2014-09-06T08:23:34Z</time></trkpt><trkpt lat="45.6189619750" lon="6.7697012611"><ele>816.30</ele><time>2014-09-06T08:23:35Z</time></trkpt><trkpt lat="45.6189551856" lon="6.7696861736"><ele>816.30</ele><time>2014-09-06T08:23:36Z</time></trkpt><trkpt lat="45.6188508309" lon="6.7695742752"><ele>817.74</ele><time>2014-09-06T08:23:51Z</time></trkpt><trkpt lat="45.6187818479" lon="6.7695027776"><ele>819.66</ele><time>2014-09-06T08:24:03Z</time></trkpt><trkpt lat="45.6186027266" lon="6.7693304457"><ele>820.14</ele><time>2014-09-06T08:24:18Z</time></trkpt><trkpt lat="45.6185072567" lon="6.7692361493"><ele>821.58</ele><time>2014-09-06T08:24:31Z</time></trkpt><trkpt lat="45.6184233539" lon="6.7691496480"><ele>820.14</ele><time>2014-09-06T08:24:44Z</time></trkpt><trkpt lat="45.6183732301" lon="6.7690774798"><ele>818.70</ele><time>2014-09-06T08:24:53Z</time></trkpt><trkpt lat="45.6182676181" lon="6.7689901404"><ele>818.22</ele><time>2014-09-06T08:25:09Z</time></trkpt><trkpt lat="45.6181819551" lon="6.7688561138"><ele>817.74</ele><time>2014-09-06T08:25:26Z</time></trkpt><trkpt lat="45.6181123853" lon="6.7687883042"><ele>814.85</ele><time>2014-09-06T08:25:42Z</time></trkpt><trkpt lat="45.6180708949" lon="6.7686769925"><ele>815.82</ele><time>2014-09-06T08:25:58Z</time></trkpt><trkpt lat="45.6179980561" lon="6.7685222626"><ele>826.39</ele><time>2014-09-06T08:26:12Z</time></trkpt><trkpt lat="45.6179573201" lon="6.7684668582"><ele>828.31</ele><time>2014-09-06T08:26:19Z</time></trkpt><trkpt lat="45.6178762671" lon="6.7683627550"><ele>829.27</ele><time>2014-09-06T08:26:31Z</time></trkpt><trkpt lat="45.6178068649" lon="6.7682374455"><ele>832.64</ele><time>2014-09-06T08:26:44Z</time></trkpt><trkpt lat="45.6177413184" lon="6.7681374494"><ele>834.08</ele><time>2014-09-06T08:26:55Z</time></trkpt><trkpt lat="45.6176736765" lon="6.7680175044"><ele>836.48</ele><time>2014-09-06T08:27:08Z</time></trkpt><trkpt lat="45.6176177692" lon="6.7678185180"><ele>836.00</ele><time>2014-09-06T08:27:25Z</time></trkpt><trkpt lat="45.6175290886" lon="6.7677111458"><ele>836.00</ele><time>2014-09-06T08:27:40Z</time></trkpt><trkpt lat="45.6173984148" lon="6.7675838247"><ele>837.45</ele><time>2014-09-06T08:27:58Z</time></trkpt><trkpt lat="45.6173078902" lon="6.7674683221"><ele>839.85</ele><time>2014-09-06T08:28:13Z</time></trkpt><trkpt lat="45.6172259152" lon="6.7673177831"><ele>840.33</ele><time>2014-09-06T08:28:30Z</time></trkpt><trkpt lat="45.6171386596" lon="6.7671990115"><ele>838.89</ele><time>2014-09-06T08:28:47Z</time></trkpt><trkpt lat="45.6170315389" lon="6.7671453673"><ele>837.93</ele><time>2014-09-06T08:29:01Z</time></trkpt><trkpt lat="45.6169989333" lon="6.7671159469"><ele>835.52</ele><time>2014-09-06T08:29:13Z</time></trkpt><trkpt lat="45.6169426069" lon="6.7670910526"><ele>836.96</ele><time>2014-09-06T08:29:26Z</time></trkpt><trkpt lat="45.6168877892" lon="6.7669918947"><ele>836.48</ele><time>2014-09-06T08:29:44Z</time></trkpt><trkpt lat="45.6168102566" lon="6.7669044714"><ele>836.48</ele><time>2014-09-06T08:30:01Z</time></trkpt><trkpt lat="45.6167276949" lon="6.7668551859"><ele>836.96</ele><time>2014-09-06T08:30:17Z</time></trkpt><trkpt lat="45.6166463066" lon="6.7668132763"><ele>838.41</ele><time>2014-09-06T08:30:32Z</time></trkpt><trkpt lat="45.6165387668" lon="6.7668387573"><ele>839.37</ele><time>2014-09-06T08:30:48Z</time></trkpt><trkpt lat="45.6165098492" lon="6.7668351531"><ele>839.85</ele><time>2014-09-06T08:30:51Z</time></trkpt><trkpt lat="45.6164701190" lon="6.7668535095"><ele>840.81</ele><time>2014-09-06T08:31:02Z</time></trkpt><trkpt lat="45.6164741423" lon="6.7668504082"><ele>843.21</ele><time>2014-09-06T08:31:25Z</time></trkpt><trkpt lat="45.6164673530" lon="6.7668393441"><ele>843.69</ele><time>2014-09-06T08:31:46Z</time></trkpt><trkpt lat="45.6164706219" lon="6.7668243404"><ele>845.14</ele><time>2014-09-06T08:32:03Z</time></trkpt><trkpt lat="45.6164559536" lon="6.7668132763"><ele>843.21</ele><time>2014-09-06T08:32:31Z</time></trkpt><trkpt lat="45.6164478231" lon="6.7668161262"><ele>843.21</ele><time>2014-09-06T08:32:33Z</time></trkpt><trkpt lat="45.6163359247" lon="6.7667573690"><ele>845.14</ele><time>2014-09-06T08:32:46Z</time></trkpt><trkpt lat="45.6162022334" lon="6.7667707801"><ele>844.66</ele><time>2014-09-06T08:32:59Z</time></trkpt><trkpt lat="45.6161216833" lon="6.7667813413"><ele>845.62</ele><time>2014-09-06T08:33:07Z</time></trkpt><trkpt lat="45.6161052547" lon="6.7667630687"><ele>845.62</ele><time>2014-09-06T08:33:09Z</time></trkpt><trkpt lat="45.6160615850" lon="6.7667874601"><ele>846.10</ele><time>2014-09-06T08:33:16Z</time></trkpt><trkpt lat="45.6160485093" lon="6.7668128572"><ele>845.62</ele><time>2014-09-06T08:33:19Z</time></trkpt><trkpt lat="45.6160068512" lon="6.7671915516"><ele>843.21</ele><time>2014-09-06T08:33:29Z</time></trkpt><trkpt lat="45.6160611659" lon="6.7676561605"><ele>837.45</ele><time>2014-09-06T08:33:42Z</time></trkpt><trkpt lat="45.6160821207" lon="6.7679597531"><ele>836.00</ele><time>2014-09-06T08:33:47Z</time></trkpt><trkpt lat="45.6160951126" lon="6.7681817897"><ele>834.56</ele><time>2014-09-06T08:33:50Z</time></trkpt><trkpt lat="45.6161445659" lon="6.7683887389"><ele>833.12</ele><time>2014-09-06T08:33:53Z</time></trkpt><trkpt lat="45.6161677837" lon="6.7684406228"><ele>832.64</ele><time>2014-09-06T08:33:54Z</time></trkpt><trkpt lat="45.6161895767" lon="6.7684842926"><ele>832.16</ele><time>2014-09-06T08:33:55Z</time></trkpt><trkpt lat="45.6162164826" lon="6.7685338296"><ele>831.68</ele><time>2014-09-06T08:33:56Z</time></trkpt><trkpt lat="45.6162454840" lon="6.7685805168"><ele>831.20</ele><time>2014-09-06T08:33:57Z</time></trkpt><trkpt lat="45.6162806880" lon="6.7686343286"><ele>830.72</ele><time>2014-09-06T08:33:58Z</time></trkpt><trkpt lat="45.6163104437" lon="6.7686703708"><ele>830.72</ele><time>2014-09-06T08:33:59Z</time></trkpt><trkpt lat="45.6163439713" lon="6.7687069997"><ele>830.24</ele><time>2014-09-06T08:34:00Z</time></trkpt><trkpt lat="45.6167489011" lon="6.7691377457"><ele>827.35</ele><time>2014-09-06T08:34:13Z</time></trkpt><trkpt lat="45.6167546008" lon="6.7691724468"><ele>827.35</ele><time>2014-09-06T08:34:14Z</time></trkpt><trkpt lat="45.6167360768" lon="6.7692094948"><ele>826.87</ele><time>2014-09-06T08:34:15Z</time></trkpt><trkpt lat="45.6165116932" lon="6.7695107404"><ele>825.91</ele><time>2014-09-06T08:34:26Z</time></trkpt><trkpt lat="45.6164241862" lon="6.7696210463"><ele>825.91</ele><time>2014-09-06T08:34:30Z</time></trkpt><trkpt lat="45.6164144631" lon="6.7696581781"><ele>825.91</ele><time>2014-09-06T08:34:31Z</time></trkpt><trkpt lat="45.6164032314" lon="6.7697013449"><ele>825.91</ele><time>2014-09-06T08:34:32Z</time></trkpt><trkpt lat="45.6163040735" lon="6.7698856629"><ele>825.91</ele><time>2014-09-06T08:34:38Z</time></trkpt><trkpt lat="45.6162803527" lon="6.7698866688"><ele>825.91</ele><time>2014-09-06T08:34:39Z</time></trkpt><trkpt lat="45.6162578892" lon="6.7698745988"><ele>825.91</ele><time>2014-09-06T08:34:40Z</time></trkpt><trkpt lat="45.6162360124" lon="6.7698616907"><ele>825.91</ele><time>2014-09-06T08:34:41Z</time></trkpt><trkpt lat="45.6162224337" lon="6.7698555719"><ele>825.91</ele><time>2014-09-06T08:34:42Z</time></trkpt><trkpt lat="45.6162060052" lon="6.7698455974"><ele>825.91</ele><time>2014-09-06T08:34:43Z</time></trkpt><trkpt lat="45.6161890738" lon="6.7698317673"><ele>825.91</ele><time>2014-09-06T08:34:44Z</time></trkpt><trkpt lat="45.6161676161" lon="6.7698150035"><ele>825.91</ele><time>2014-09-06T08:34:45Z</time></trkpt><trkpt lat="45.6161469128" lon="6.7697968148"><ele>826.39</ele><time>2014-09-06T08:34:46Z</time></trkpt><trkpt lat="45.6161273830" lon="6.7697812244"><ele>826.39</ele><time>2014-09-06T08:34:47Z</time></trkpt><trkpt lat="45.6161079369" lon="6.7697650474"><ele>826.39</ele><time>2014-09-06T08:34:48Z</time></trkpt><trkpt lat="45.6160889938" lon="6.7697471101"><ele>826.39</ele><time>2014-09-06T08:34:49Z</time></trkpt><trkpt lat="45.6157948729" lon="6.7694746144"><ele>828.31</ele><time>2014-09-06T08:35:05Z</time></trkpt><trkpt lat="45.6156843994" lon="6.7693560105"><ele>829.27</ele><time>2014-09-06T08:35:11Z</time></trkpt><trkpt lat="45.6156226248" lon="6.7693205550"><ele>829.76</ele><time>2014-09-06T08:35:14Z</time></trkpt><trkpt lat="45.6156057771" lon="6.7693003546"><ele>829.76</ele><time>2014-09-06T08:35:15Z</time></trkpt><trkpt lat="45.6155883428" lon="6.7692801543"><ele>830.24</ele><time>2014-09-06T08:35:16Z</time></trkpt><trkpt lat="45.6154393964" lon="6.7690393422"><ele>831.20</ele><time>2014-09-06T08:35:30Z</time></trkpt><trkpt lat="45.6154246442" lon="6.7690283619"><ele>831.20</ele><time>2014-09-06T08:35:31Z</time></trkpt><trkpt lat="45.6154072937" lon="6.7690395098"><ele>831.20</ele><time>2014-09-06T08:35:32Z</time></trkpt><trkpt lat="45.6152518094" lon="6.7691997718"><ele>831.68</ele><time>2014-09-06T08:35:42Z</time></trkpt><trkpt lat="45.6152330339" lon="6.7691996880"><ele>831.68</ele><time>2014-09-06T08:35:43Z</time></trkpt><trkpt lat="45.6151540764" lon="6.7691962514"><ele>831.20</ele><time>2014-09-06T08:35:53Z</time></trkpt><trkpt lat="45.6151575968" lon="6.7692113388"><ele>831.68</ele><time>2014-09-06T08:35:54Z</time></trkpt><trkpt lat="45.6151570100" lon="6.7692587804"><ele>830.24</ele><time>2014-09-06T08:36:05Z</time></trkpt><trkpt lat="45.6151591893" lon="6.7692587804"><ele>831.20</ele><time>2014-09-06T08:36:16Z</time></trkpt><trkpt lat="45.6151507236" lon="6.7692721914"><ele>830.72</ele><time>2014-09-06T08:36:31Z</time></trkpt><trkpt lat="45.6151162740" lon="6.7692565173"><ele>832.16</ele><time>2014-09-06T08:37:16Z</time></trkpt><trkpt lat="45.6151169445" lon="6.7692633905"><ele>832.16</ele><time>2014-09-06T08:37:56Z</time></trkpt><trkpt lat="45.6151601952" lon="6.7692881171"><ele>834.08</ele><time>2014-09-06T08:38:28Z</time></trkpt><trkpt lat="45.6151349656" lon="6.7692829203"><ele>827.83</ele><time>2014-09-06T08:39:03Z</time></trkpt><trkpt lat="45.6151187886" lon="6.7692810763"><ele>828.79</ele><time>2014-09-06T08:39:43Z</time></trkpt><trkpt lat="45.6151468679" lon="6.7692697607"><ele>832.64</ele><time>2014-09-06T08:40:28Z</time></trkpt><trkpt lat="45.6151365582" lon="6.7692801543"><ele>836.48</ele><time>2014-09-06T08:41:03Z</time></trkpt><trkpt lat="45.6151389889" lon="6.7693018634"><ele>838.41</ele><time>2014-09-06T08:41:41Z</time></trkpt><trkpt lat="45.6151788868" lon="6.7693137657"><ele>841.77</ele><time>2014-09-06T08:42:15Z</time></trkpt><trkpt lat="45.6151855085" lon="6.7693153583"><ele>840.33</ele><time>2014-09-06T08:42:47Z</time></trkpt><trkpt lat="45.6152073853" lon="6.7693198845"><ele>841.29</ele><time>2014-09-06T08:43:24Z</time></trkpt><trkpt lat="45.6152120791" lon="6.7692779750"><ele>839.85</ele><time>2014-09-06T08:43:38Z</time></trkpt><trkpt lat="45.6151814014" lon="6.7692716047"><ele>835.04</ele><time>2014-09-06T08:43:42Z</time></trkpt><trkpt lat="45.6151890289" lon="6.7692837585"><ele>835.04</ele><time>2014-09-06T08:43:43Z</time></trkpt><trkpt lat="45.6152021885" lon="6.7692818306"><ele>835.04</ele><time>2014-09-06T08:43:44Z</time></trkpt><trkpt lat="45.6152170245" lon="6.7692638934"><ele>834.56</ele><time>2014-09-06T08:43:45Z</time></trkpt><trkpt lat="45.6152253225" lon="6.7692524102"><ele>834.56</ele><time>2014-09-06T08:43:46Z</time></trkpt><trkpt lat="45.6153072137" lon="6.7691997718"><ele>834.08</ele><time>2014-09-06T08:43:51Z</time></trkpt><trkpt lat="45.6153260730" lon="6.7691759672"><ele>834.08</ele><time>2014-09-06T08:43:52Z</time></trkpt><trkpt lat="45.6153420825" lon="6.7691502348"><ele>834.08</ele><time>2014-09-06T08:43:53Z</time></trkpt><trkpt lat="45.6153564155" lon="6.7691286933"><ele>834.08</ele><time>2014-09-06T08:43:54Z</time></trkpt><trkpt lat="45.6153700780" lon="6.7691152822"><ele>834.08</ele><time>2014-09-06T08:43:55Z</time></trkpt><trkpt lat="45.6153900269" lon="6.7691141088"><ele>834.08</ele><time>2014-09-06T08:43:56Z</time></trkpt><trkpt lat="45.6154103111" lon="6.7691301182"><ele>834.08</ele><time>2014-09-06T08:43:57Z</time></trkpt><trkpt lat="45.6154225487" lon="6.7691476364"><ele>834.08</ele><time>2014-09-06T08:43:58Z</time></trkpt><trkpt lat="45.6154335290" lon="6.7691779789"><ele>833.60</ele><time>2014-09-06T08:43:59Z</time></trkpt><trkpt lat="45.6154375523" lon="6.7692161165"><ele>833.60</ele><time>2014-09-06T08:44:00Z</time></trkpt><trkpt lat="45.6154357083" lon="6.7692453694"><ele>833.12</ele><time>2014-09-06T08:44:01Z</time></trkpt><trkpt lat="45.6154287513" lon="6.7692677490"><ele>833.12</ele><time>2014-09-06T08:44:02Z</time></trkpt><trkpt lat="45.6154134125" lon="6.7692876980"><ele>833.12</ele><time>2014-09-06T08:44:03Z</time></trkpt><trkpt lat="45.6153949723" lon="6.7693089042"><ele>832.64</ele><time>2014-09-06T08:44:04Z</time></trkpt><trkpt lat="45.6153744366" lon="6.7693327926"><ele>832.16</ele><time>2014-09-06T08:44:05Z</time></trkpt><trkpt lat="45.6150309462" lon="6.7696664762"><ele>828.31</ele><time>2014-09-06T08:44:16Z</time></trkpt><trkpt lat="45.6149161141" lon="6.7698133271"><ele>827.83</ele><time>2014-09-06T08:44:20Z</time></trkpt><trkpt lat="45.6148249190" lon="6.7699360382"><ele>827.83</ele><time>2014-09-06T08:44:23Z</time></trkpt><trkpt lat="45.6147457939" lon="6.7700875830"><ele>826.39</ele><time>2014-09-06T08:44:26Z</time></trkpt><trkpt lat="45.6146873720" lon="6.7702030018"><ele>825.43</ele><time>2014-09-06T08:44:28Z</time></trkpt><trkpt lat="45.6142274570" lon="6.7710669246"><ele>822.55</ele><time>2014-09-06T08:44:43Z</time></trkpt><trkpt lat="45.6140386127" lon="6.7714369018"><ele>820.14</ele><time>2014-09-06T08:44:51Z</time></trkpt><trkpt lat="45.6139988825" lon="6.7714628018"><ele>820.14</ele><time>2014-09-06T08:44:52Z</time></trkpt><trkpt lat="45.6139780954" lon="6.7714752071"><ele>820.14</ele><time>2014-09-06T08:44:53Z</time></trkpt><trkpt lat="45.6139423884" lon="6.7714963295"><ele>820.14</ele><time>2014-09-06T08:44:54Z</time></trkpt><trkpt lat="45.6139046699" lon="6.7715146858"><ele>819.66</ele><time>2014-09-06T08:44:55Z</time></trkpt><trkpt lat="45.6138646882" lon="6.7715337127"><ele>819.66</ele><time>2014-09-06T08:44:56Z</time></trkpt><trkpt lat="45.6137786061" lon="6.7715647258"><ele>818.70</ele><time>2014-09-06T08:44:58Z</time></trkpt><trkpt lat="45.6136026699" lon="6.7716334574"><ele>817.74</ele><time>2014-09-06T08:45:02Z</time></trkpt><trkpt lat="45.6135517079" lon="6.7716382351"><ele>817.74</ele><time>2014-09-06T08:45:03Z</time></trkpt><trkpt lat="45.6130105723" lon="6.7715745326"><ele>814.37</ele><time>2014-09-06T08:45:12Z</time></trkpt><trkpt lat="45.6129510608" lon="6.7715767119"><ele>813.89</ele><time>2014-09-06T08:45:13Z</time></trkpt><trkpt lat="45.6128898729" lon="6.7715881113"><ele>813.41</ele><time>2014-09-06T08:45:14Z</time></trkpt><trkpt lat="45.6128319539" lon="6.7716130894"><ele>812.45</ele><time>2014-09-06T08:45:15Z</time></trkpt><trkpt lat="45.6127768848" lon="6.7716554180"><ele>811.97</ele><time>2014-09-06T08:45:16Z</time></trkpt><trkpt lat="45.6127264258" lon="6.7717065476"><ele>811.49</ele><time>2014-09-06T08:45:17Z</time></trkpt><trkpt lat="45.6126807444" lon="6.7717706691"><ele>810.53</ele><time>2014-09-06T08:45:18Z</time></trkpt><trkpt lat="45.6126403436" lon="6.7718508840"><ele>810.05</ele><time>2014-09-06T08:45:19Z</time></trkpt><trkpt lat="45.6126037985" lon="6.7719450127"><ele>809.57</ele><time>2014-09-06T08:45:20Z</time></trkpt><trkpt lat="45.6125688460" lon="6.7720409855"><ele>808.61</ele><time>2014-09-06T08:45:21Z</time></trkpt><trkpt lat="45.6123447977" lon="6.7727460712"><ele>805.72</ele><time>2014-09-06T08:45:30Z</time></trkpt><trkpt lat="45.6123396847" lon="6.7728052475"><ele>805.24</ele><time>2014-09-06T08:45:31Z</time></trkpt><trkpt lat="45.6123377569" lon="6.7728650104"><ele>805.24</ele><time>2014-09-06T08:45:32Z</time></trkpt><trkpt lat="45.6123306323" lon="6.7729244381"><ele>804.76</ele><time>2014-09-06T08:45:33Z</time></trkpt><trkpt lat="45.6123133656" lon="6.7729753163"><ele>804.76</ele><time>2014-09-06T08:45:34Z</time></trkpt><trkpt lat="45.6122882199" lon="6.7730198242"><ele>804.76</ele><time>2014-09-06T08:45:35Z</time></trkpt><trkpt lat="45.6122615654" lon="6.7730531842"><ele>805.24</ele><time>2014-09-06T08:45:36Z</time></trkpt><trkpt lat="45.6122328993" lon="6.7730777431"><ele>805.24</ele><time>2014-09-06T08:45:37Z</time></trkpt><trkpt lat="45.6122023053" lon="6.7730908189"><ele>805.72</ele><time>2014-09-06T08:45:38Z</time></trkpt><trkpt lat="45.6121707056" lon="6.7730922438"><ele>806.68</ele><time>2014-09-06T08:45:39Z</time></trkpt><trkpt lat="45.6121396087" lon="6.7730871309"><ele>806.68</ele><time>2014-09-06T08:45:40Z</time></trkpt><trkpt lat="45.6121097691" lon="6.7730761506"><ele>807.16</ele><time>2014-09-06T08:45:41Z</time></trkpt><trkpt lat="45.6117344275" lon="6.7730186507"><ele>808.13</ele><time>2014-09-06T08:45:53Z</time></trkpt><trkpt lat="45.6114803720" lon="6.7727692053"><ele>809.09</ele><time>2014-09-06T08:46:04Z</time></trkpt><trkpt lat="45.6114230398" lon="6.7727053352"><ele>809.57</ele><time>2014-09-06T08:46:07Z</time></trkpt><trkpt lat="45.6114088744" lon="6.7727089394"><ele>809.57</ele><time>2014-09-06T08:46:08Z</time></trkpt><trkpt lat="45.6114108860" lon="6.7727710493"><ele>809.09</ele><time>2014-09-06T08:46:10Z</time></trkpt><trkpt lat="45.6114267278" lon="6.7728054989"><ele>809.09</ele><time>2014-09-06T08:46:11Z</time></trkpt><trkpt lat="45.6114486884" lon="6.7728354223"><ele>809.09</ele><time>2014-09-06T08:46:12Z</time></trkpt><trkpt lat="45.6114734150" lon="6.7728643399"><ele>809.57</ele><time>2014-09-06T08:46:13Z</time></trkpt><trkpt lat="45.6115066912" lon="6.7728996277"><ele>809.57</ele><time>2014-09-06T08:46:14Z</time></trkpt><trkpt lat="45.6118931808" lon="6.7731737159"><ele>809.57</ele><time>2014-09-06T08:46:27Z</time></trkpt><trkpt lat="45.6122935843" lon="6.7731144559"><ele>809.57</ele><time>2014-09-06T08:46:41Z</time></trkpt><trkpt lat="45.6123284530" lon="6.7730707023"><ele>809.09</ele><time>2014-09-06T08:46:42Z</time></trkpt><trkpt lat="45.6123601366" lon="6.7730160523"><ele>809.09</ele><time>2014-09-06T08:46:43Z</time></trkpt><trkpt lat="45.6123810913" lon="6.7729536071"><ele>808.61</ele><time>2014-09-06T08:46:44Z</time></trkpt><trkpt lat="45.6123956759" lon="6.7728830315"><ele>808.61</ele><time>2014-09-06T08:46:45Z</time></trkpt><trkpt lat="45.6124043092" lon="6.7728199158"><ele>808.61</ele><time>2014-09-06T08:46:46Z</time></trkpt><trkpt lat="45.6124100089" lon="6.7727638409"><ele>808.61</ele><time>2014-09-06T08:46:47Z</time></trkpt><trkpt lat="45.6126007810" lon="6.7720516305"><ele>810.53</ele><time>2014-09-06T08:47:01Z</time></trkpt><trkpt lat="45.6129302736" lon="6.7716731038"><ele>813.41</ele><time>2014-09-06T08:47:15Z</time></trkpt><trkpt lat="45.6133254804" lon="6.7717166059"><ele>817.26</ele><time>2014-09-06T08:47:29Z</time></trkpt><trkpt lat="45.6136562303" lon="6.7717082240"><ele>819.66</ele><time>2014-09-06T08:47:44Z</time></trkpt><trkpt lat="45.6140159816" lon="6.7715261690"><ele>820.62</ele><time>2014-09-06T08:47:59Z</time></trkpt><trkpt lat="45.6143859588" lon="6.7713078205"><ele>822.55</ele><time>2014-09-06T08:48:14Z</time></trkpt><trkpt lat="45.6147700176" lon="6.7710442096"><ele>823.03</ele><time>2014-09-06T08:48:29Z</time></trkpt><trkpt lat="45.6147965882" lon="6.7710277811"><ele>822.06</ele><time>2014-09-06T08:48:30Z</time></trkpt><trkpt lat="45.6148230750" lon="6.7710145377"><ele>821.58</ele><time>2014-09-06T08:48:31Z</time></trkpt><trkpt lat="45.6153281685" lon="6.7706329934"><ele>823.99</ele><time>2014-09-06T08:48:50Z</time></trkpt><trkpt lat="45.6157976389" lon="6.7702905089"><ele>826.87</ele><time>2014-09-06T08:49:08Z</time></trkpt><trkpt lat="45.6160091981" lon="6.7701336835"><ele>829.76</ele><time>2014-09-06T08:49:22Z</time></trkpt><trkpt lat="45.6160065997" lon="6.7701455858"><ele>828.79</ele><time>2014-09-06T08:49:46Z</time></trkpt><trkpt lat="45.6160646025" lon="6.7701055203"><ele>828.31</ele><time>2014-09-06T08:50:13Z</time></trkpt><trkpt lat="45.6160784326" lon="6.7700728308"><ele>828.79</ele><time>2014-09-06T08:50:15Z</time></trkpt><trkpt lat="45.6160900835" lon="6.7700276524"><ele>829.27</ele><time>2014-09-06T08:50:30Z</time></trkpt><trkpt lat="45.6161225215" lon="6.7700008303"><ele>832.16</ele><time>2014-09-06T08:50:52Z</time></trkpt><trkpt lat="45.6161742378" lon="6.7699287459"><ele>831.20</ele><time>2014-09-06T08:50:56Z</time></trkpt><trkpt lat="45.6161747407" lon="6.7698841542"><ele>831.20</ele><time>2014-09-06T08:50:57Z</time></trkpt><trkpt lat="45.6161598209" lon="6.7698539793"><ele>831.20</ele><time>2014-09-06T08:50:58Z</time></trkpt><trkpt lat="45.6161483377" lon="6.7698381376"><ele>831.20</ele><time>2014-09-06T08:50:59Z</time></trkpt><trkpt lat="45.6161291432" lon="6.7698093876"><ele>831.20</ele><time>2014-09-06T08:51:00Z</time></trkpt><trkpt lat="45.6157970522" lon="6.7694661487"><ele>832.16</ele><time>2014-09-06T08:51:14Z</time></trkpt><trkpt lat="45.6155392248" lon="6.7691288609"><ele>834.08</ele><time>2014-09-06T08:51:30Z</time></trkpt><trkpt lat="45.6154995784" lon="6.7690828443"><ele>834.56</ele><time>2014-09-06T08:51:34Z</time></trkpt><trkpt lat="45.6154917832" lon="6.7690529209"><ele>834.56</ele><time>2014-09-06T08:51:35Z</time></trkpt><trkpt lat="45.6154808030" lon="6.7690213211"><ele>834.56</ele><time>2014-09-06T08:51:36Z</time></trkpt><trkpt lat="45.6152426731" lon="6.7685799301"><ele>836.48</ele><time>2014-09-06T08:51:51Z</time></trkpt><trkpt lat="45.6151541602" lon="6.7683759145"><ele>837.93</ele><time>2014-09-06T08:52:05Z</time></trkpt><trkpt lat="45.6151494663" lon="6.7683738191"><ele>837.45</ele><time>2014-09-06T08:52:09Z</time></trkpt><trkpt lat="45.6149782240" lon="6.7681550514"><ele>839.37</ele><time>2014-09-06T08:52:22Z</time></trkpt><trkpt lat="45.6149602868" lon="6.7681107111"><ele>839.85</ele><time>2014-09-06T08:52:25Z</time></trkpt><trkpt lat="45.6149545871" lon="6.7680964619"><ele>839.85</ele><time>2014-09-06T08:52:26Z</time></trkpt><trkpt lat="45.6149474625" lon="6.7680832185"><ele>839.85</ele><time>2014-09-06T08:52:27Z</time></trkpt><trkpt lat="45.6148895435" lon="6.7679837253"><ele>839.85</ele><time>2014-09-06T08:52:39Z</time></trkpt><trkpt lat="45.6148746237" lon="6.7679797858"><ele>838.89</ele><time>2014-09-06T08:52:46Z</time></trkpt><trkpt lat="45.6148611289" lon="6.7679803725"><ele>838.41</ele><time>2014-09-06T08:52:47Z</time></trkpt><trkpt lat="45.6148566864" lon="6.7680067755"><ele>837.93</ele><time>2014-09-06T08:52:48Z</time></trkpt><trkpt lat="45.6148700975" lon="6.7680465057"><ele>837.93</ele><time>2014-09-06T08:52:49Z</time></trkpt><trkpt lat="45.6148850173" lon="6.7680749204"><ele>837.93</ele><time>2014-09-06T08:52:50Z</time></trkpt><trkpt lat="45.6149038766" lon="6.7681132257"><ele>837.45</ele><time>2014-09-06T08:52:51Z</time></trkpt><trkpt lat="45.6149234902" lon="6.7681527883"><ele>837.45</ele><time>2014-09-06T08:52:52Z</time></trkpt><trkpt lat="45.6149466243" lon="6.7683797702"><ele>836.48</ele><time>2014-09-06T08:52:58Z</time></trkpt><trkpt lat="45.6149522401" lon="6.7684008088"><ele>836.48</ele><time>2014-09-06T08:52:59Z</time></trkpt><trkpt lat="45.6149619631" lon="6.7684265412"><ele>836.48</ele><time>2014-09-06T08:53:00Z</time></trkpt><trkpt lat="45.6150258332" lon="6.7685868032"><ele>836.96</ele><time>2014-09-06T08:53:11Z</time></trkpt><trkpt lat="45.6150235701" lon="6.7686180677"><ele>837.45</ele><time>2014-09-06T08:53:21Z</time></trkpt><trkpt lat="45.6149556767" lon="6.7686107755"><ele>837.93</ele><time>2014-09-06T08:54:02Z</time></trkpt><trkpt lat="45.6149395835" lon="6.7686109431"><ele>838.41</ele><time>2014-09-06T08:54:43Z</time></trkpt><trkpt lat="45.6148865260" lon="6.7685623281"><ele>835.52</ele><time>2014-09-06T08:55:19Z</time></trkpt><trkpt lat="45.6148589496" lon="6.7685492523"><ele>828.79</ele><time>2014-09-06T08:55:58Z</time></trkpt><trkpt lat="45.6149260886" lon="6.7685811035"><ele>827.83</ele><time>2014-09-06T08:56:36Z</time></trkpt><trkpt lat="45.6149631366" lon="6.7685683630"><ele>828.31</ele><time>2014-09-06T08:57:16Z</time></trkpt><trkpt lat="45.6149904616" lon="6.7686125357"><ele>834.56</ele><time>2014-09-06T08:57:51Z</time></trkpt><trkpt lat="45.6150502246" lon="6.7686179839"><ele>833.12</ele><time>2014-09-06T08:58:27Z</time></trkpt><trkpt lat="45.6150275096" lon="6.7686359212"><ele>837.45</ele><time>2014-09-06T08:59:18Z</time></trkpt><trkpt lat="45.6150738616" lon="6.7686572950"><ele>839.37</ele><time>2014-09-06T09:00:07Z</time></trkpt><trkpt lat="45.6150972471" lon="6.7686443869"><ele>841.29</ele><time>2014-09-06T09:00:50Z</time></trkpt><trkpt lat="45.6150543317" lon="6.7686717957"><ele>845.62</ele><time>2014-09-06T09:01:37Z</time></trkpt><trkpt lat="45.6150894519" lon="6.7686861288"><ele>841.29</ele><time>2014-09-06T09:02:19Z</time></trkpt><trkpt lat="45.6150687486" lon="6.7686292995"><ele>836.48</ele><time>2014-09-06T09:02:53Z</time></trkpt><trkpt lat="45.6149963289" lon="6.7685838696"><ele>832.16</ele><time>2014-09-06T09:03:36Z</time></trkpt><trkpt lat="45.6150232349" lon="6.7686174810"><ele>832.16</ele><time>2014-09-06T09:04:10Z</time></trkpt><trkpt lat="45.6150396634" lon="6.7685956042"><ele>831.20</ele><time>2014-09-06T09:04:45Z</time></trkpt><trkpt lat="45.6150508951" lon="6.7685915809"><ele>832.16</ele><time>2014-09-06T09:05:24Z</time></trkpt><trkpt lat="45.6150615402" lon="6.7685581371"><ele>832.16</ele><time>2014-09-06T09:06:02Z</time></trkpt><trkpt lat="45.6150938105" lon="6.7685101926"><ele>827.83</ele><time>2014-09-06T09:06:36Z</time></trkpt><trkpt lat="45.6150578521" lon="6.7685181554"><ele>824.47</ele><time>2014-09-06T09:07:04Z</time></trkpt><trkpt lat="45.6149587780" lon="6.7685342487"><ele>822.06</ele><time>2014-09-06T09:07:36Z</time></trkpt><trkpt lat="45.6149222329" lon="6.7685387749"><ele>819.18</ele><time>2014-09-06T09:08:18Z</time></trkpt><trkpt lat="45.6149244122" lon="6.7685641721"><ele>819.66</ele><time>2014-09-06T09:08:54Z</time></trkpt><trkpt lat="45.6149271782" lon="6.7685803492"><ele>822.06</ele><time>2014-09-06T09:09:38Z</time></trkpt><trkpt lat="45.6149851810" lon="6.7685791757"><ele>825.91</ele><time>2014-09-06T09:10:15Z</time></trkpt><trkpt lat="45.6150388252" lon="6.7686325684"><ele>832.16</ele><time>2014-09-06T09:10:53Z</time></trkpt><trkpt lat="45.6150695868" lon="6.7686464824"><ele>833.60</ele><time>2014-09-06T09:11:20Z</time></trkpt><trkpt lat="45.6151055451" lon="6.7685896531"><ele>835.52</ele><time>2014-09-06T09:11:52Z</time></trkpt><trkpt lat="45.6150480453" lon="6.7686436325"><ele>835.04</ele><time>2014-09-06T09:12:23Z</time></trkpt><trkpt lat="45.6150076445" lon="6.7686310597"><ele>834.08</ele><time>2014-09-06T09:12:54Z</time></trkpt><trkpt lat="45.6149863545" lon="6.7686210852"><ele>837.45</ele><time>2014-09-06T09:13:35Z</time></trkpt><trkpt lat="45.6149576046" lon="6.7686464824"><ele>844.18</ele><time>2014-09-06T09:14:14Z</time></trkpt><trkpt lat="45.6150098238" lon="6.7686118651"><ele>846.58</ele><time>2014-09-06T09:14:54Z</time></trkpt><trkpt lat="45.6150066387" lon="6.7685712129"><ele>842.25</ele><time>2014-09-06T09:15:23Z</time></trkpt><trkpt lat="45.6149933115" lon="6.7685739789"><ele>840.81</ele><time>2014-09-06T09:15:56Z</time></trkpt><trkpt lat="45.6149749551" lon="6.7685971968"><ele>841.77</ele><time>2014-09-06T09:16:28Z</time></trkpt><trkpt lat="45.6150083151" lon="6.7685816064"><ele>842.25</ele><time>2014-09-06T09:16:56Z</time></trkpt><trkpt lat="45.6150580198" lon="6.7685626633"><ele>842.73</ele><time>2014-09-06T09:17:30Z</time></trkpt><trkpt lat="45.6150164455" lon="6.7685827799"><ele>845.14</ele><time>2014-09-06T09:18:05Z</time></trkpt><trkpt lat="45.6150112487" lon="6.7685700394"><ele>833.12</ele><time>2014-09-06T09:18:41Z</time></trkpt><trkpt lat="45.6149480492" lon="6.7686341610"><ele>826.87</ele><time>2014-09-06T09:19:19Z</time></trkpt><trkpt lat="45.6150722690" lon="6.7686033156"><ele>833.12</ele><time>2014-09-06T09:20:00Z</time></trkpt><trkpt lat="45.6150368974" lon="6.7685749009"><ele>823.99</ele><time>2014-09-06T09:20:41Z</time></trkpt><trkpt lat="45.6149828341" lon="6.7685137969"><ele>810.05</ele><time>2014-09-06T09:21:28Z</time></trkpt><trkpt lat="45.6149328779" lon="6.7684891541"><ele>803.80</ele><time>2014-09-06T09:22:02Z</time></trkpt><trkpt lat="45.6149253342" lon="6.7685223464"><ele>812.93</ele><time>2014-09-06T09:22:39Z</time></trkpt><trkpt lat="45.6149480492" lon="6.7685137969"><ele>816.30</ele><time>2014-09-06T09:23:17Z</time></trkpt><trkpt lat="45.6149689201" lon="6.7685019784"><ele>817.74</ele><time>2014-09-06T09:23:51Z</time></trkpt><trkpt lat="45.6149776373" lon="6.7685660999"><ele>821.58</ele><time>2014-09-06T09:24:19Z</time></trkpt><trkpt lat="45.6149848457" lon="6.7685728054"><ele>824.47</ele><time>2014-09-06T09:25:01Z</time></trkpt><trkpt lat="45.6149469595" lon="6.7686263658"><ele>830.24</ele><time>2014-09-06T09:25:32Z</time></trkpt><trkpt lat="45.6149781402" lon="6.7686139606"><ele>836.00</ele><time>2014-09-06T09:25:36Z</time></trkpt><trkpt lat="45.6149747875" lon="6.7685952689"><ele>836.96</ele><time>2014-09-06T09:25:37Z</time></trkpt><trkpt lat="45.6149706803" lon="6.7685774155"><ele>837.45</ele><time>2014-09-06T09:25:38Z</time></trkpt><trkpt lat="45.6149660703" lon="6.7685525212"><ele>837.93</ele><time>2014-09-06T09:25:39Z</time></trkpt><trkpt lat="45.6149594486" lon="6.7685247771"><ele>838.41</ele><time>2014-09-06T09:25:40Z</time></trkpt><trkpt lat="45.6149506476" lon="6.7684967816"><ele>839.37</ele><time>2014-09-06T09:25:41Z</time></trkpt><trkpt lat="45.6149378233" lon="6.7684703786"><ele>839.85</ele><time>2014-09-06T09:25:42Z</time></trkpt><trkpt lat="45.6149242446" lon="6.7684469093"><ele>839.85</ele><time>2014-09-06T09:25:43Z</time></trkpt><trkpt lat="45.6149129290" lon="6.7684220988"><ele>840.33</ele><time>2014-09-06T09:25:44Z</time></trkpt><trkpt lat="45.6149081513" lon="6.7683965340"><ele>840.33</ele><time>2014-09-06T09:25:45Z</time></trkpt><trkpt lat="45.6149174552" lon="6.7683588993"><ele>840.81</ele><time>2014-09-06T09:25:46Z</time></trkpt><trkpt lat="45.6149262562" lon="6.7683282215"><ele>840.81</ele><time>2014-09-06T09:25:47Z</time></trkpt><trkpt lat="45.6149362307" lon="6.7683029082"><ele>840.81</ele><time>2014-09-06T09:25:48Z</time></trkpt><trkpt lat="45.6149598677" lon="6.7682271358"><ele>842.25</ele><time>2014-09-06T09:25:54Z</time></trkpt><trkpt lat="45.6150014419" lon="6.7681127228"><ele>842.25</ele><time>2014-09-06T09:25:58Z</time></trkpt><trkpt lat="45.6149971671" lon="6.7680783570"><ele>842.25</ele><time>2014-09-06T09:25:59Z</time></trkpt><trkpt lat="45.6149861868" lon="6.7680403031"><ele>842.25</ele><time>2014-09-06T09:26:00Z</time></trkpt><trkpt lat="45.6147656590" lon="6.7676148377"><ele>843.69</ele><time>2014-09-06T09:26:15Z</time></trkpt><trkpt lat="45.6145398505" lon="6.7671819963"><ele>846.58</ele><time>2014-09-06T09:26:30Z</time></trkpt><trkpt lat="45.6143396068" lon="6.7668103427"><ele>848.50</ele><time>2014-09-06T09:26:44Z</time></trkpt><trkpt lat="45.6141294725" lon="6.7664925009"><ele>850.42</ele><time>2014-09-06T09:26:57Z</time></trkpt><trkpt lat="45.6140490901" lon="6.7663645931"><ele>851.87</ele><time>2014-09-06T09:27:02Z</time></trkpt><trkpt lat="45.6140445638" lon="6.7663285509"><ele>852.35</ele><time>2014-09-06T09:27:03Z</time></trkpt><trkpt lat="45.6140404567" lon="6.7662939336"><ele>852.35</ele><time>2014-09-06T09:27:04Z</time></trkpt><trkpt lat="45.6138117146" lon="6.7660476733"><ele>854.27</ele><time>2014-09-06T09:27:15Z</time></trkpt><trkpt lat="45.6134787016" lon="6.7659084499"><ele>855.71</ele><time>2014-09-06T09:27:29Z</time></trkpt><trkpt lat="45.6133839861" lon="6.7658619303"><ele>856.19</ele><time>2014-09-06T09:27:33Z</time></trkpt><trkpt lat="45.6133181881" lon="6.7658157460"><ele>856.19</ele><time>2014-09-06T09:27:36Z</time></trkpt><trkpt lat="45.6132925395" lon="6.7658069450"><ele>856.19</ele><time>2014-09-06T09:27:37Z</time></trkpt><trkpt lat="45.6132673938" lon="6.7657945398"><ele>856.19</ele><time>2014-09-06T09:27:38Z</time></trkpt><trkpt lat="45.6132413261" lon="6.7657817155"><ele>856.19</ele><time>2014-09-06T09:27:39Z</time></trkpt><trkpt lat="45.6132142525" lon="6.7657703999"><ele>856.19</ele><time>2014-09-06T09:27:40Z</time></trkpt><trkpt lat="45.6129890308" lon="6.7656458449"><ele>855.71</ele><time>2014-09-06T09:27:50Z</time></trkpt><trkpt lat="45.6129791401" lon="6.7656260636"><ele>855.23</ele><time>2014-09-06T09:27:51Z</time></trkpt><trkpt lat="45.6129695848" lon="6.7656058632"><ele>855.23</ele><time>2014-09-06T09:27:52Z</time></trkpt><trkpt lat="45.6129586883" lon="6.7655915301"><ele>855.71</ele><time>2014-09-06T09:27:53Z</time></trkpt><trkpt lat="45.6129482109" lon="6.7655833159"><ele>855.23</ele><time>2014-09-06T09:27:54Z</time></trkpt><trkpt lat="45.6129472051" lon="6.7655906081"><ele>853.31</ele><time>2014-09-06T09:28:08Z</time></trkpt><trkpt lat="45.6129397452" lon="6.7655898537"><ele>855.71</ele><time>2014-09-06T09:28:20Z</time></trkpt><trkpt lat="45.6129277591" lon="6.7655980680"><ele>855.71</ele><time>2014-09-06T09:28:21Z</time></trkpt><trkpt lat="45.6129170302" lon="6.7656107247"><ele>855.71</ele><time>2014-09-06T09:28:22Z</time></trkpt><trkpt lat="45.6129063014" lon="6.7656222917"><ele>855.71</ele><time>2014-09-06T09:28:23Z</time></trkpt><trkpt lat="45.6128894538" lon="6.7656266503"><ele>855.71</ele><time>2014-09-06T09:28:24Z</time></trkpt><trkpt lat="45.6128659844" lon="6.7656232137"><ele>856.19</ele><time>2014-09-06T09:28:25Z</time></trkpt><trkpt lat="45.6128411740" lon="6.7656145804"><ele>856.19</ele><time>2014-09-06T09:28:26Z</time></trkpt><trkpt lat="45.6128147710" lon="6.7656061146"><ele>856.19</ele><time>2014-09-06T09:28:27Z</time></trkpt><trkpt lat="45.6127876975" lon="6.7655978166"><ele>856.67</ele><time>2014-09-06T09:28:28Z</time></trkpt><trkpt lat="45.6127609592" lon="6.7655859143"><ele>856.67</ele><time>2014-09-06T09:28:29Z</time></trkpt><trkpt lat="45.6127346400" lon="6.7655776162"><ele>857.15</ele><time>2014-09-06T09:28:30Z</time></trkpt><trkpt lat="45.6127086561" lon="6.7655718327"><ele>857.15</ele><time>2014-09-06T09:28:31Z</time></trkpt><trkpt lat="45.6122805085" lon="6.7654544860"><ele>858.59</ele><time>2014-09-06T09:28:46Z</time></trkpt><trkpt lat="45.6119074300" lon="6.7653084733"><ele>860.04</ele><time>2014-09-06T09:29:00Z</time></trkpt><trkpt lat="45.6115612574" lon="6.7651081458"><ele>859.56</ele><time>2014-09-06T09:29:13Z</time></trkpt><trkpt lat="45.6111831497" lon="6.7647780664"><ele>861.48</ele><time>2014-09-06T09:29:28Z</time></trkpt><trkpt lat="45.6108560041" lon="6.7643738911"><ele>861.96</ele><time>2014-09-06T09:29:43Z</time></trkpt><trkpt lat="45.6105600391" lon="6.7638034187"><ele>858.11</ele><time>2014-09-06T09:29:59Z</time></trkpt><trkpt lat="45.6102173030" lon="6.7631570902"><ele>855.71</ele><time>2014-09-06T09:30:15Z</time></trkpt><trkpt lat="45.6098572165" lon="6.7623887211"><ele>852.35</ele><time>2014-09-06T09:30:30Z</time></trkpt><trkpt lat="45.6097299792" lon="6.7621104419"><ele>852.35</ele><time>2014-09-06T09:30:35Z</time></trkpt><trkpt lat="45.6094761752" lon="6.7613564897"><ele>850.90</ele><time>2014-09-06T09:30:47Z</time></trkpt><trkpt lat="45.6093843095" lon="6.7610238120"><ele>849.94</ele><time>2014-09-06T09:30:52Z</time></trkpt><trkpt lat="45.6093708146" lon="6.7609562539"><ele>849.94</ele><time>2014-09-06T09:30:53Z</time></trkpt><trkpt lat="45.6091895979" lon="6.7602507491"><ele>848.50</ele><time>2014-09-06T09:31:04Z</time></trkpt><trkpt lat="45.6091713253" lon="6.7601930816"><ele>848.50</ele><time>2014-09-06T09:31:05Z</time></trkpt><trkpt lat="45.6088741031" lon="6.7595922668"><ele>847.06</ele><time>2014-09-06T09:31:15Z</time></trkpt><trkpt lat="45.6082342286" lon="6.7590908613"><ele>847.06</ele><time>2014-09-06T09:31:30Z</time></trkpt><trkpt lat="45.6074567232" lon="6.7587113287"><ele>845.62</ele><time>2014-09-06T09:31:46Z</time></trkpt><trkpt lat="45.6072165817" lon="6.7585661542"><ele>845.14</ele><time>2014-09-06T09:31:51Z</time></trkpt><trkpt lat="45.6066259090" lon="6.7579707876"><ele>843.69</ele><time>2014-09-06T09:32:04Z</time></trkpt><trkpt lat="45.6058976892" lon="6.7571916059"><ele>842.73</ele><time>2014-09-06T09:32:21Z</time></trkpt><trkpt lat="45.6051123049" lon="6.7565941438"><ele>840.81</ele><time>2014-09-06T09:32:38Z</time></trkpt><trkpt lat="45.6041799858" lon="6.7560836021"><ele>839.85</ele><time>2014-09-06T09:32:55Z</time></trkpt><trkpt lat="45.6039277744" lon="6.7558967695"><ele>839.37</ele><time>2014-09-06T09:33:00Z</time></trkpt><trkpt lat="45.6033075135" lon="6.7552079447"><ele>836.00</ele><time>2014-09-06T09:33:14Z</time></trkpt><trkpt lat="45.6027968042" lon="6.7542356439"><ele>834.08</ele><time>2014-09-06T09:33:29Z</time></trkpt><trkpt lat="45.6026354525" lon="6.7539981846"><ele>833.12</ele><time>2014-09-06T09:33:33Z</time></trkpt><trkpt lat="45.6021171995" lon="6.7535254452"><ele>833.12</ele><time>2014-09-06T09:33:44Z</time></trkpt><trkpt lat="45.6014568731" lon="6.7532421369"><ele>833.12</ele><time>2014-09-06T09:33:58Z</time></trkpt><trkpt lat="45.6006672140" lon="6.7527596746"><ele>833.60</ele><time>2014-09-06T09:34:15Z</time></trkpt><trkpt lat="45.6001172774" lon="6.7521265056"><ele>833.60</ele><time>2014-09-06T09:34:32Z</time></trkpt><trkpt lat="45.5999841727" lon="6.7519054748"><ele>834.08</ele><time>2014-09-06T09:34:40Z</time></trkpt><trkpt lat="45.5999839213" lon="6.7518745456"><ele>834.08</ele><time>2014-09-06T09:34:41Z</time></trkpt><trkpt lat="45.5999797303" lon="6.7518386710"><ele>834.08</ele><time>2014-09-06T09:34:42Z</time></trkpt><trkpt lat="45.5999720190" lon="6.7518011201"><ele>834.08</ele><time>2014-09-06T09:34:43Z</time></trkpt><trkpt lat="45.5999629665" lon="6.7517638206"><ele>834.08</ele><time>2014-09-06T09:34:44Z</time></trkpt><trkpt lat="45.5998785608" lon="6.7516173888"><ele>833.12</ele><time>2014-09-06T09:34:54Z</time></trkpt><trkpt lat="45.5998669099" lon="6.7516195681"><ele>834.56</ele><time>2014-09-06T09:35:20Z</time></trkpt><trkpt lat="45.5998812430" lon="6.7515988648"><ele>835.04</ele><time>2014-09-06T09:35:50Z</time></trkpt><trkpt lat="45.5998712685" lon="6.7515997030"><ele>835.04</ele><time>2014-09-06T09:35:52Z</time></trkpt><trkpt lat="45.5998586118" lon="6.7516032234"><ele>835.52</ele><time>2014-09-06T09:35:53Z</time></trkpt><trkpt lat="45.5995725375" lon="6.7516722064"><ele>837.45</ele><time>2014-09-06T09:36:03Z</time></trkpt><trkpt lat="45.5995297898" lon="6.7516735476"><ele>837.45</ele><time>2014-09-06T09:36:04Z</time></trkpt><trkpt lat="45.5994856171" lon="6.7516655847"><ele>837.45</ele><time>2014-09-06T09:36:05Z</time></trkpt><trkpt lat="45.5988229439" lon="6.7515576258"><ele>836.00</ele><time>2014-09-06T09:36:17Z</time></trkpt><trkpt lat="45.5983879231" lon="6.7515060771"><ele>835.04</ele><time>2014-09-06T09:36:25Z</time></trkpt><trkpt lat="45.5983361229" lon="6.7514862120"><ele>835.04</ele><time>2014-09-06T09:36:26Z</time></trkpt><trkpt lat="45.5976911355" lon="6.7511247005"><ele>833.60</ele><time>2014-09-06T09:36:40Z</time></trkpt><trkpt lat="45.5976037960" lon="6.7510606628"><ele>833.60</ele><time>2014-09-06T09:36:42Z</time></trkpt><trkpt lat="45.5970507581" lon="6.7507584952"><ele>833.12</ele><time>2014-09-06T09:36:53Z</time></trkpt><trkpt lat="45.5969996285" lon="6.7507299967"><ele>832.64</ele><time>2014-09-06T09:36:54Z</time></trkpt><trkpt lat="45.5962241348" lon="6.7503290065"><ele>831.20</ele><time>2014-09-06T09:37:10Z</time></trkpt><trkpt lat="45.5956199672" lon="6.7499699257"><ele>830.72</ele><time>2014-09-06T09:37:23Z</time></trkpt><trkpt lat="45.5956213921" lon="6.7498224881"><ele>831.20</ele><time>2014-09-06T09:37:27Z</time></trkpt><trkpt lat="45.5956193805" lon="6.7497901339"><ele>831.20</ele><time>2014-09-06T09:37:28Z</time></trkpt><trkpt lat="45.5956178717" lon="6.7497696821"><ele>831.20</ele><time>2014-09-06T09:37:29Z</time></trkpt><trkpt lat="45.5955959950" lon="6.7497250903"><ele>828.79</ele><time>2014-09-06T09:37:42Z</time></trkpt><trkpt lat="45.5955876131" lon="6.7497688439"><ele>832.16</ele><time>2014-09-06T09:38:25Z</time></trkpt><trkpt lat="45.5955892894" lon="6.7497715261"><ele>834.08</ele><time>2014-09-06T09:39:03Z</time></trkpt><trkpt lat="45.5956021138" lon="6.7497939058"><ele>834.08</ele><time>2014-09-06T09:39:15Z</time></trkpt><trkpt lat="45.5956208054" lon="6.7497875355"><ele>832.64</ele><time>2014-09-06T09:39:31Z</time></trkpt><trkpt lat="45.5956153572" lon="6.7498770542"><ele>832.64</ele><time>2014-09-06T09:39:35Z</time></trkpt><trkpt lat="45.5955362320" lon="6.7499078158"><ele>833.60</ele><time>2014-09-06T09:39:40Z</time></trkpt><trkpt lat="45.5955085717" lon="6.7499056365"><ele>833.60</ele><time>2014-09-06T09:39:41Z</time></trkpt><trkpt lat="45.5951170530" lon="6.7496837676"><ele>833.60</ele><time>2014-09-06T09:39:52Z</time></trkpt><trkpt lat="45.5945523642" lon="6.7493846174"><ele>834.08</ele><time>2014-09-06T09:40:04Z</time></trkpt><trkpt lat="45.5939254817" lon="6.7489381973"><ele>834.08</ele><time>2014-09-06T09:40:20Z</time></trkpt><trkpt lat="45.5935837515" lon="6.7487026658"><ele>832.16</ele><time>2014-09-06T09:40:34Z</time></trkpt><trkpt lat="45.5932113435" lon="6.7484594230"><ele>830.72</ele><time>2014-09-06T09:40:50Z</time></trkpt><trkpt lat="45.5929609761" lon="6.7483414058"><ele>830.72</ele><time>2014-09-06T09:41:06Z</time></trkpt><trkpt lat="45.5929375906" lon="6.7483418249"><ele>831.68</ele><time>2014-09-06T09:41:20Z</time></trkpt><trkpt lat="45.5929219164" lon="6.7483317666"><ele>831.68</ele><time>2014-09-06T09:41:21Z</time></trkpt><trkpt lat="45.5925157294" lon="6.7481535673"><ele>830.72</ele><time>2014-09-06T09:41:33Z</time></trkpt><trkpt lat="45.5917331949" lon="6.7476521619"><ele>829.76</ele><time>2014-09-06T09:41:50Z</time></trkpt><trkpt lat="45.5909036379" lon="6.7471888103"><ele>829.27</ele><time>2014-09-06T09:42:06Z</time></trkpt><trkpt lat="45.5907469802" lon="6.7471181508"><ele>829.27</ele><time>2014-09-06T09:42:09Z</time></trkpt><trkpt lat="45.5906952638" lon="6.7470983695"><ele>829.27</ele><time>2014-09-06T09:42:10Z</time></trkpt><trkpt lat="45.5896762758" lon="6.7466910090"><ele>830.24</ele><time>2014-09-06T09:42:27Z</time></trkpt><trkpt lat="45.5886683520" lon="6.7466463335"><ele>830.72</ele><time>2014-09-06T09:42:43Z</time></trkpt><trkpt lat="45.5878092069" lon="6.7463541403"><ele>833.12</ele><time>2014-09-06T09:42:58Z</time></trkpt><trkpt lat="45.5870927218" lon="6.7457683291"><ele>832.16</ele><time>2014-09-06T09:43:13Z</time></trkpt><trkpt lat="45.5866254307" lon="6.7453295365"><ele>830.24</ele><time>2014-09-06T09:43:23Z</time></trkpt><trkpt lat="45.5859547108" lon="6.7444249615"><ele>828.79</ele><time>2014-09-06T09:43:38Z</time></trkpt><trkpt lat="45.5851502996" lon="6.7431993596"><ele>826.39</ele><time>2014-09-06T09:43:56Z</time></trkpt><trkpt lat="45.5844575353" lon="6.7422177549"><ele>828.79</ele><time>2014-09-06T09:44:13Z</time></trkpt><trkpt lat="45.5839276314" lon="6.7414281797"><ele>831.20</ele><time>2014-09-06T09:44:30Z</time></trkpt><trkpt lat="45.5834891740" lon="6.7403403763"><ele>829.76</ele><time>2014-09-06T09:44:49Z</time></trkpt><trkpt lat="45.5832172651" lon="6.7398438323"><ele>827.35</ele><time>2014-09-06T09:44:57Z</time></trkpt><trkpt lat="45.5824856926" lon="6.7388951685"><ele>824.47</ele><time>2014-09-06T09:45:11Z</time></trkpt><trkpt lat="45.5811956339" lon="6.7373641301"><ele>817.74</ele><time>2014-09-06T09:45:30Z</time></trkpt><trkpt lat="45.5798621569" lon="6.7361795995"><ele>808.61</ele><time>2014-09-06T09:45:47Z</time></trkpt><trkpt lat="45.5787465256" lon="6.7346805800"><ele>801.88</ele><time>2014-09-06T09:46:04Z</time></trkpt><trkpt lat="45.5778343230" lon="6.7331585940"><ele>796.11</ele><time>2014-09-06T09:46:20Z</time></trkpt><trkpt lat="45.5771267228" lon="6.7318981234"><ele>792.26</ele><time>2014-09-06T09:46:34Z</time></trkpt><trkpt lat="45.5764008500" lon="6.7302080803"><ele>786.50</ele><time>2014-09-06T09:46:51Z</time></trkpt><trkpt lat="45.5753780901" lon="6.7284513172"><ele>777.84</ele><time>2014-09-06T09:47:09Z</time></trkpt><trkpt lat="45.5746625271" lon="6.7269922793"><ele>773.52</ele><time>2014-09-06T09:47:24Z</time></trkpt><trkpt lat="45.5738958344" lon="6.7259733751"><ele>773.52</ele><time>2014-09-06T09:47:38Z</time></trkpt><trkpt lat="45.5738541763" lon="6.7259009555"><ele>773.52</ele><time>2014-09-06T09:47:39Z</time></trkpt><trkpt lat="45.5737233348" lon="6.7256014701"><ele>774.00</ele><time>2014-09-06T09:47:43Z</time></trkpt><trkpt lat="45.5735193193" lon="6.7243871838"><ele>774.48</ele><time>2014-09-06T09:47:57Z</time></trkpt><trkpt lat="45.5732694548" lon="6.7232189979"><ele>774.48</ele><time>2014-09-06T09:48:11Z</time></trkpt><trkpt lat="45.5727431551" lon="6.7224078812"><ele>774.48</ele><time>2014-09-06T09:48:23Z</time></trkpt><trkpt lat="45.5723288376" lon="6.7213695310"><ele>773.04</ele><time>2014-09-06T09:48:37Z</time></trkpt><trkpt lat="45.5716861971" lon="6.7201566696"><ele>771.60</ele><time>2014-09-06T09:48:55Z</time></trkpt><trkpt lat="45.5711930897" lon="6.7190031521"><ele>769.19</ele><time>2014-09-06T09:49:12Z</time></trkpt><trkpt lat="45.5707773473" lon="6.7180749401"><ele>769.19</ele><time>2014-09-06T09:49:28Z</time></trkpt><trkpt lat="45.5702621117" lon="6.7171641625"><ele>767.27</ele><time>2014-09-06T09:49:44Z</time></trkpt><trkpt lat="45.5694275256" lon="6.7162541393"><ele>761.50</ele><time>2014-09-06T09:49:58Z</time></trkpt><trkpt lat="45.5688039958" lon="6.7152863648"><ele>759.10</ele><time>2014-09-06T09:50:09Z</time></trkpt><trkpt lat="45.5685351044" lon="6.7142289039"><ele>759.10</ele><time>2014-09-06T09:50:21Z</time></trkpt><trkpt lat="45.5683307536" lon="6.7131354008"><ele>760.54</ele><time>2014-09-06T09:50:36Z</time></trkpt><trkpt lat="45.5681321863" lon="6.7119528819"><ele>765.35</ele><time>2014-09-06T09:50:56Z</time></trkpt><trkpt lat="45.5680071283" lon="6.7108401004"><ele>769.19</ele><time>2014-09-06T09:51:16Z</time></trkpt><trkpt lat="45.5679640453" lon="6.7100972962"><ele>771.60</ele><time>2014-09-06T09:51:31Z</time></trkpt><trkpt lat="45.5679689068" lon="6.7099016625"><ele>772.56</ele><time>2014-09-06T09:51:42Z</time></trkpt><trkpt lat="45.5679782946" lon="6.7098576576"><ele>773.04</ele><time>2014-09-06T09:52:12Z</time></trkpt><trkpt lat="45.5679733492" lon="6.7093112413"><ele>774.48</ele><time>2014-09-06T09:52:24Z</time></trkpt><trkpt lat="45.5679788813" lon="6.7091866024"><ele>774.48</ele><time>2014-09-06T09:52:26Z</time></trkpt><trkpt lat="45.5680184439" lon="6.7089096643"><ele>774.00</ele><time>2014-09-06T09:52:31Z</time></trkpt><trkpt lat="45.5680840742" lon="6.7077833042"><ele>772.08</ele><time>2014-09-06T09:52:45Z</time></trkpt><trkpt lat="45.5682284106" lon="6.7059438117"><ele>769.19</ele><time>2014-09-06T09:53:03Z</time></trkpt><trkpt lat="45.5681975652" lon="6.7041516770"><ele>763.90</ele><time>2014-09-06T09:53:18Z</time></trkpt><trkpt lat="45.5678454414" lon="6.7024979275"><ele>758.14</ele><time>2014-09-06T09:53:31Z</time></trkpt><trkpt lat="45.5673276912" lon="6.7007544078"><ele>755.73</ele><time>2014-09-06T09:53:47Z</time></trkpt><trkpt lat="45.5669985339" lon="6.6997634992"><ele>756.21</ele><time>2014-09-06T09:53:57Z</time></trkpt><trkpt lat="45.5669855420" lon="6.6996603180"><ele>756.21</ele><time>2014-09-06T09:53:58Z</time></trkpt><trkpt lat="45.5670579616" lon="6.6986530647"><ele>755.73</ele><time>2014-09-06T09:54:09Z</time></trkpt><trkpt lat="45.5670170579" lon="6.6976549476"><ele>756.21</ele><time>2014-09-06T09:54:22Z</time></trkpt><trkpt lat="45.5669960193" lon="6.6975868866"><ele>756.21</ele><time>2014-09-06T09:54:23Z</time></trkpt><trkpt lat="45.5665953644" lon="6.6966452636"><ele>757.66</ele><time>2014-09-06T09:54:38Z</time></trkpt><trkpt lat="45.5662943702" lon="6.6954182368"><ele>758.14</ele><time>2014-09-06T09:54:56Z</time></trkpt><trkpt lat="45.5660223775" lon="6.6942817345"><ele>759.10</ele><time>2014-09-06T09:55:12Z</time></trkpt><trkpt lat="45.5657756981" lon="6.6932569630"><ele>760.06</ele><time>2014-09-06T09:55:28Z</time></trkpt><trkpt lat="45.5655964930" lon="6.6922233067"><ele>760.06</ele><time>2014-09-06T09:55:46Z</time></trkpt><trkpt lat="45.5654779729" lon="6.6918408405"><ele>761.02</ele><time>2014-09-06T09:55:52Z</time></trkpt><trkpt lat="45.5650466401" lon="6.6904455889"><ele>758.14</ele><time>2014-09-06T09:56:12Z</time></trkpt><trkpt lat="45.5648700334" lon="6.6893413570"><ele>752.85</ele><time>2014-09-06T09:56:22Z</time></trkpt><trkpt lat="45.5648792535" lon="6.6890763212"><ele>751.89</ele><time>2014-09-06T09:56:24Z</time></trkpt><trkpt lat="45.5648386851" lon="6.6878271662"><ele>747.08</ele><time>2014-09-06T09:56:33Z</time></trkpt><trkpt lat="45.5647983681" lon="6.6876912955"><ele>746.60</ele><time>2014-09-06T09:56:34Z</time></trkpt><trkpt lat="45.5647522677" lon="6.6875569336"><ele>746.12</ele><time>2014-09-06T09:56:35Z</time></trkpt><trkpt lat="45.5644787662" lon="6.6867685318"><ele>742.76</ele><time>2014-09-06T09:56:41Z</time></trkpt><trkpt lat="45.5644604098" lon="6.6866367683"><ele>742.28</ele><time>2014-09-06T09:56:42Z</time></trkpt><trkpt lat="45.5644525308" lon="6.6865042504"><ele>742.28</ele><time>2014-09-06T09:56:43Z</time></trkpt><trkpt lat="45.5645537842" lon="6.6852307040"><ele>741.31</ele><time>2014-09-06T09:56:54Z</time></trkpt><trkpt lat="45.5646533612" lon="6.6849749722"><ele>742.28</ele><time>2014-09-06T09:56:57Z</time></trkpt><trkpt lat="45.5649399385" lon="6.6843174119"><ele>743.72</ele><time>2014-09-06T09:57:07Z</time></trkpt><trkpt lat="45.5650472268" lon="6.6834757011"><ele>747.08</ele><time>2014-09-06T09:57:22Z</time></trkpt><trkpt lat="45.5650085863" lon="6.6826379299"><ele>749.49</ele><time>2014-09-06T09:57:38Z</time></trkpt><trkpt lat="45.5649577081" lon="6.6818473488"><ele>751.41</ele><time>2014-09-06T09:57:55Z</time></trkpt><trkpt lat="45.5648765713" lon="6.6807958391"><ele>753.81</ele><time>2014-09-06T09:58:15Z</time></trkpt><trkpt lat="45.5646757409" lon="6.6798358597"><ele>751.41</ele><time>2014-09-06T09:58:31Z</time></trkpt><trkpt lat="45.5643207673" lon="6.6786916461"><ele>748.52</ele><time>2014-09-06T09:58:45Z</time></trkpt><trkpt lat="45.5637035239" lon="6.6769811511"><ele>741.79</ele><time>2014-09-06T09:59:00Z</time></trkpt><trkpt lat="45.5629875418" lon="6.6758320760"><ele>735.07</ele><time>2014-09-06T09:59:10Z</time></trkpt><trkpt lat="45.5621836334" lon="6.6739546135"><ele>727.86</ele><time>2014-09-06T09:59:23Z</time></trkpt><trkpt lat="45.5615541525" lon="6.6724452842"><ele>726.89</ele><time>2014-09-06T09:59:36Z</time></trkpt><trkpt lat="45.5612378195" lon="6.6716613248"><ele>724.97</ele><time>2014-09-06T09:59:44Z</time></trkpt><trkpt lat="45.5608975142" lon="6.6700033005"><ele>716.80</ele><time>2014-09-06T09:59:57Z</time></trkpt><trkpt lat="45.5604728870" lon="6.6688465141"><ele>711.51</ele><time>2014-09-06T10:00:06Z</time></trkpt><trkpt lat="45.5600577313" lon="6.6674843710"><ele>705.75</ele><time>2014-09-06T10:00:16Z</time></trkpt><trkpt lat="45.5595496204" lon="6.6659979243"><ele>698.53</ele><time>2014-09-06T10:00:27Z</time></trkpt><trkpt lat="45.5592119973" lon="6.6650113743"><ele>694.69</ele><time>2014-09-06T10:00:36Z</time></trkpt><trkpt lat="45.5584144592" lon="6.6637700982"><ele>691.81</ele><time>2014-09-06T10:00:51Z</time></trkpt><trkpt lat="45.5577180907" lon="6.6626018286"><ele>691.33</ele><time>2014-09-06T10:01:06Z</time></trkpt><trkpt lat="45.5576888379" lon="6.6625369526"><ele>691.33</ele><time>2014-09-06T10:01:07Z</time></trkpt><trkpt lat="45.5576664582" lon="6.6624991503"><ele>691.33</ele><time>2014-09-06T10:01:08Z</time></trkpt><trkpt lat="45.5576518737" lon="6.6624823865"><ele>691.81</ele><time>2014-09-06T10:01:09Z</time></trkpt><trkpt lat="45.5576405581" lon="6.6624792013"><ele>692.77</ele><time>2014-09-06T10:01:17Z</time></trkpt></trkseg><trkseg><trkpt lat="45.5541170575" lon="6.6535371356"><ele>656.24</ele><time>2014-09-06T10:03:25Z</time></trkpt><trkpt lat="45.5540023092" lon="6.6532494687"><ele>660.56</ele><time>2014-09-06T10:03:29Z</time></trkpt><trkpt lat="45.5539837014" lon="6.6531830002"><ele>660.56</ele><time>2014-09-06T10:03:30Z</time></trkpt><trkpt lat="45.5539312307" lon="6.6530069802"><ele>659.60</ele><time>2014-09-06T10:03:33Z</time></trkpt><trkpt lat="45.5537991319" lon="6.6522615775"><ele>658.64</ele><time>2014-09-06T10:03:48Z</time></trkpt><trkpt lat="45.5537820328" lon="6.6522932611"><ele>662.49</ele><time>2014-09-06T10:04:10Z</time></trkpt><trkpt lat="45.5537719745" lon="6.6521855537"><ele>661.04</ele><time>2014-09-06T10:04:30Z</time></trkpt><trkpt lat="45.5537288077" lon="6.6516414843"><ele>659.60</ele><time>2014-09-06T10:04:42Z</time></trkpt><trkpt lat="45.5537289754" lon="6.6516240500"><ele>659.60</ele><time>2014-09-06T10:04:43Z</time></trkpt><trkpt lat="45.5537327472" lon="6.6515649576"><ele>656.24</ele><time>2014-09-06T10:04:56Z</time></trkpt><trkpt lat="45.5537369382" lon="6.6515911929"><ele>659.60</ele><time>2014-09-06T10:05:20Z</time></trkpt><trkpt lat="45.5537388660" lon="6.6515662149"><ele>655.76</ele><time>2014-09-06T10:05:44Z</time></trkpt><trkpt lat="45.5537459906" lon="6.6515573300"><ele>654.80</ele><time>2014-09-06T10:06:01Z</time></trkpt><trkpt lat="45.5537453201" lon="6.6515308432"><ele>655.28</ele><time>2014-09-06T10:06:02Z</time></trkpt><trkpt lat="45.5536965374" lon="6.6509008594"><ele>655.28</ele><time>2014-09-06T10:06:14Z</time></trkpt><trkpt lat="45.5536360200" lon="6.6497422289"><ele>654.80</ele><time>2014-09-06T10:06:31Z</time></trkpt><trkpt lat="45.5535580683" lon="6.6483958438"><ele>652.87</ele><time>2014-09-06T10:06:50Z</time></trkpt><trkpt lat="45.5534703936" lon="6.6469048709"><ele>650.95</ele><time>2014-09-06T10:07:11Z</time></trkpt><trkpt lat="45.5533781089" lon="6.6453316715"><ele>649.03</ele><time>2014-09-06T10:07:33Z</time></trkpt><trkpt lat="45.5533016659" lon="6.6442114301"><ele>649.99</ele><time>2014-09-06T10:07:50Z</time></trkpt><trkpt lat="45.5532584991" lon="6.6435078532"><ele>653.35</ele><time>2014-09-06T10:08:06Z</time></trkpt><trkpt lat="45.5532103870" lon="6.6427886859"><ele>656.72</ele><time>2014-09-06T10:08:24Z</time></trkpt><trkpt lat="45.5531839002" lon="6.6422702651"><ele>658.16</ele><time>2014-09-06T10:08:40Z</time></trkpt><trkpt lat="45.5531782005" lon="6.6422162019"><ele>658.64</ele><time>2014-09-06T10:08:42Z</time></trkpt><trkpt lat="45.5531788711" lon="6.6421870328"><ele>659.12</ele><time>2014-09-06T10:08:43Z</time></trkpt><trkpt lat="45.5531516299" lon="6.6416824423"><ele>662.49</ele><time>2014-09-06T10:09:00Z</time></trkpt><trkpt lat="45.5531309266" lon="6.6412167437"><ele>665.85</ele><time>2014-09-06T10:09:16Z</time></trkpt><trkpt lat="45.5531271547" lon="6.6406849958"><ele>667.77</ele><time>2014-09-06T10:09:35Z</time></trkpt><trkpt lat="45.5531386379" lon="6.6401299462"><ele>670.66</ele><time>2014-09-06T10:09:55Z</time></trkpt><trkpt lat="45.5531692319" lon="6.6396309715"><ele>671.62</ele><time>2014-09-06T10:10:12Z</time></trkpt><trkpt lat="45.5531952158" lon="6.6391009837"><ele>673.06</ele><time>2014-09-06T10:10:28Z</time></trkpt><trkpt lat="45.5532141589" lon="6.6385471914"><ele>674.98</ele><time>2014-09-06T10:10:44Z</time></trkpt><trkpt lat="45.5532279052" lon="6.6381543316"><ele>675.46</ele><time>2014-09-06T10:10:58Z</time></trkpt><trkpt lat="45.5532206129" lon="6.6381534096"><ele>676.91</ele><time>2014-09-06T10:11:11Z</time></trkpt><trkpt lat="45.5531963892" lon="6.6381829977"><ele>683.63</ele><time>2014-09-06T10:11:35Z</time></trkpt><trkpt lat="45.5531978980" lon="6.6381721850"><ele>680.27</ele><time>2014-09-06T10:12:02Z</time></trkpt><trkpt lat="45.5532092135" lon="6.6381207202"><ele>676.91</ele><time>2014-09-06T10:12:22Z</time></trkpt><trkpt lat="45.5532046873" lon="6.6378502361"><ele>676.42</ele><time>2014-09-06T10:12:33Z</time></trkpt><trkpt lat="45.5531354528" lon="6.6373653430"><ele>676.91</ele><time>2014-09-06T10:12:48Z</time></trkpt><trkpt lat="45.5530450121" lon="6.6369659454"><ele>678.83</ele><time>2014-09-06T10:13:00Z</time></trkpt><trkpt lat="45.5530489516" lon="6.6368122213"><ele>679.31</ele><time>2014-09-06T10:13:04Z</time></trkpt><trkpt lat="45.5529482849" lon="6.6366064455"><ele>680.75</ele><time>2014-09-06T10:13:11Z</time></trkpt><trkpt lat="45.5529318564" lon="6.6365811322"><ele>680.75</ele><time>2014-09-06T10:13:12Z</time></trkpt><trkpt lat="45.5526832491" lon="6.6361561697"><ele>683.63</ele><time>2014-09-06T10:13:26Z</time></trkpt><trkpt lat="45.5524089094" lon="6.6357128508"><ele>686.52</ele><time>2014-09-06T10:13:41Z</time></trkpt><trkpt lat="45.5520802550" lon="6.6351065040"><ele>686.52</ele><time>2014-09-06T10:14:00Z</time></trkpt><trkpt lat="45.5517951027" lon="6.6344770230"><ele>687.96</ele><time>2014-09-06T10:14:17Z</time></trkpt><trkpt lat="45.5515946075" lon="6.6336730309"><ele>687.96</ele><time>2014-09-06T10:14:33Z</time></trkpt><trkpt lat="45.5515459087" lon="6.6327684559"><ele>687.96</ele><time>2014-09-06T10:14:48Z</time></trkpt><trkpt lat="45.5515475851" lon="6.6327184159"><ele>687.96</ele><time>2014-09-06T10:14:49Z</time></trkpt><trkpt lat="45.5516195856" lon="6.6316285171"><ele>687.96</ele><time>2014-09-06T10:15:07Z</time></trkpt><trkpt lat="45.5516782589" lon="6.6304066870"><ele>689.88</ele><time>2014-09-06T10:15:28Z</time></trkpt><trkpt lat="45.5516096111" lon="6.6295783874"><ele>689.40</ele><time>2014-09-06T10:15:44Z</time></trkpt><trkpt lat="45.5514632631" lon="6.6288168076"><ele>688.44</ele><time>2014-09-06T10:16:01Z</time></trkpt><trkpt lat="45.5513362773" lon="6.6282598302"><ele>687.96</ele><time>2014-09-06T10:16:17Z</time></trkpt><trkpt lat="45.5513195135" lon="6.6282501910"><ele>690.84</ele><time>2014-09-06T10:16:28Z</time></trkpt><trkpt lat="45.5513542984" lon="6.6282470897"><ele>692.29</ele><time>2014-09-06T10:16:56Z</time></trkpt><trkpt lat="45.5513595790" lon="6.6282489337"><ele>693.73</ele><time>2014-09-06T10:17:26Z</time></trkpt><trkpt lat="45.5513275601" lon="6.6282547172"><ele>695.17</ele><time>2014-09-06T10:17:46Z</time></trkpt><trkpt lat="45.5512905121" lon="6.6282775160"><ele>694.69</ele><time>2014-09-06T10:18:07Z</time></trkpt><trkpt lat="45.5513052642" lon="6.6282542143"><ele>696.13</ele><time>2014-09-06T10:18:37Z</time></trkpt><trkpt lat="45.5513282306" lon="6.6282028332"><ele>697.57</ele><time>2014-09-06T10:19:02Z</time></trkpt><trkpt lat="45.5513236206" lon="6.6282017436"><ele>703.82</ele><time>2014-09-06T10:19:35Z</time></trkpt><trkpt lat="45.5513061862" lon="6.6282612551"><ele>703.82</ele><time>2014-09-06T10:20:00Z</time></trkpt><trkpt lat="45.5512905959" lon="6.6282947827"><ele>703.82</ele><time>2014-09-06T10:20:13Z</time></trkpt><trkpt lat="45.5512808729" lon="6.6283254605"><ele>703.34</ele><time>2014-09-06T10:20:15Z</time></trkpt><trkpt lat="45.5512791965" lon="6.6283625923"><ele>701.42</ele><time>2014-09-06T10:20:17Z</time></trkpt><trkpt lat="45.5512466747" lon="6.6283585690"><ele>699.98</ele><time>2014-09-06T10:20:18Z</time></trkpt><trkpt lat="45.5512242950" lon="6.6283399612"><ele>699.02</ele><time>2014-09-06T10:20:19Z</time></trkpt><trkpt lat="45.5512154941" lon="6.6283211019"><ele>698.05</ele><time>2014-09-06T10:20:20Z</time></trkpt><trkpt lat="45.5512013286" lon="6.6282885801"><ele>697.57</ele><time>2014-09-06T10:20:21Z</time></trkpt><trkpt lat="45.5509264022" lon="6.6276856698"><ele>696.61</ele><time>2014-09-06T10:20:34Z</time></trkpt><trkpt lat="45.5504606199" lon="6.6266046558"><ele>694.69</ele><time>2014-09-06T10:20:53Z</time></trkpt><trkpt lat="45.5502093304" lon="6.6257886775"><ele>691.33</ele><time>2014-09-06T10:21:05Z</time></trkpt><trkpt lat="45.5499794986" lon="6.6247409396"><ele>685.56</ele><time>2014-09-06T10:21:18Z</time></trkpt><trkpt lat="45.5497333221" lon="6.6236750968"><ele>684.60</ele><time>2014-09-06T10:21:33Z</time></trkpt><trkpt lat="45.5496980343" lon="6.6230641399"><ele>682.67</ele><time>2014-09-06T10:21:41Z</time></trkpt><trkpt lat="45.5496379361" lon="6.6226894688"><ele>682.19</ele><time>2014-09-06T10:21:46Z</time></trkpt><trkpt lat="45.5496162269" lon="6.6223849542"><ele>681.71</ele><time>2014-09-06T10:21:50Z</time></trkpt><trkpt lat="45.5496206693" lon="6.6223096009"><ele>681.71</ele><time>2014-09-06T10:21:51Z</time></trkpt><trkpt lat="45.5496292189" lon="6.6222295538"><ele>681.71</ele><time>2014-09-06T10:21:52Z</time></trkpt><trkpt lat="45.5496409535" lon="6.6221571341"><ele>681.71</ele><time>2014-09-06T10:21:53Z</time></trkpt><trkpt lat="45.5496550351" lon="6.6220820323"><ele>681.23</ele><time>2014-09-06T10:21:54Z</time></trkpt><trkpt lat="45.5496733915" lon="6.6220054217"><ele>681.23</ele><time>2014-09-06T10:21:55Z</time></trkpt><trkpt lat="45.5497163907" lon="6.6218644381"><ele>681.71</ele><time>2014-09-06T10:21:57Z</time></trkpt><trkpt lat="45.5497529358" lon="6.6217830498"><ele>681.71</ele><time>2014-09-06T10:21:58Z</time></trkpt><trkpt lat="45.5502457917" lon="6.6210064664"><ele>682.67</ele><time>2014-09-06T10:22:12Z</time></trkpt><trkpt lat="45.5505244900" lon="6.6199326608"><ele>683.63</ele><time>2014-09-06T10:22:26Z</time></trkpt><trkpt lat="45.5505307764" lon="6.6198557150"><ele>683.63</ele><time>2014-09-06T10:22:27Z</time></trkpt><trkpt lat="45.5505331233" lon="6.6197796073"><ele>683.63</ele><time>2014-09-06T10:22:28Z</time></trkpt><trkpt lat="45.5505028646" lon="6.6194869950"><ele>683.15</ele><time>2014-09-06T10:22:32Z</time></trkpt><trkpt lat="45.5504714325" lon="6.6193652898"><ele>682.67</ele><time>2014-09-06T10:22:34Z</time></trkpt><trkpt lat="45.5504495557" lon="6.6193062812"><ele>682.67</ele><time>2014-09-06T10:22:35Z</time></trkpt><trkpt lat="45.5504218955" lon="6.6192504577"><ele>682.67</ele><time>2014-09-06T10:22:36Z</time></trkpt><trkpt lat="45.5503565166" lon="6.6191491205"><ele>682.67</ele><time>2014-09-06T10:22:38Z</time></trkpt><trkpt lat="45.5503181275" lon="6.6191030201"><ele>682.67</ele><time>2014-09-06T10:22:39Z</time></trkpt><trkpt lat="45.5497849546" lon="6.6183281131"><ele>681.23</ele><time>2014-09-06T10:22:53Z</time></trkpt><trkpt lat="45.5493616685" lon="6.6171718296"><ele>680.27</ele><time>2014-09-06T10:23:09Z</time></trkpt><trkpt lat="45.5493567232" lon="6.6170969792"><ele>680.75</ele><time>2014-09-06T10:23:10Z</time></trkpt><trkpt lat="45.5493621714" lon="6.6170279961"><ele>680.75</ele><time>2014-09-06T10:23:11Z</time></trkpt><trkpt lat="45.5493832100" lon="6.6169557441"><ele>680.75</ele><time>2014-09-06T10:23:12Z</time></trkpt><trkpt lat="45.5494174920" lon="6.6168780439"><ele>680.75</ele><time>2014-09-06T10:23:14Z</time></trkpt><trkpt lat="45.5494443979" lon="6.6167800594"><ele>681.23</ele><time>2014-09-06T10:23:15Z</time></trkpt><trkpt lat="45.5494498461" lon="6.6167404130"><ele>681.23</ele><time>2014-09-06T10:23:16Z</time></trkpt><trkpt lat="45.5494544562" lon="6.6166762076"><ele>681.23</ele><time>2014-09-06T10:23:17Z</time></trkpt><trkpt lat="45.5494516902" lon="6.6166195460"><ele>681.23</ele><time>2014-09-06T10:23:18Z</time></trkpt><trkpt lat="45.5494474154" lon="6.6165662371"><ele>681.23</ele><time>2014-09-06T10:23:19Z</time></trkpt><trkpt lat="45.5493295658" lon="6.6159835272"><ele>679.79</ele><time>2014-09-06T10:23:30Z</time></trkpt><trkpt lat="45.5491558928" lon="6.6153643560"><ele>681.71</ele><time>2014-09-06T10:23:44Z</time></trkpt><trkpt lat="45.5490931123" lon="6.6151382960"><ele>684.12</ele><time>2014-09-06T10:23:52Z</time></trkpt><trkpt lat="45.5490761809" lon="6.6151007451"><ele>684.60</ele><time>2014-09-06T10:23:54Z</time></trkpt><trkpt lat="45.5490616802" lon="6.6150942910"><ele>685.08</ele><time>2014-09-06T10:23:55Z</time></trkpt><trkpt lat="45.5490449164" lon="6.6151547246"><ele>685.08</ele><time>2014-09-06T10:23:58Z</time></trkpt><trkpt lat="45.5490569025" lon="6.6152022500"><ele>684.60</ele><time>2014-09-06T10:24:00Z</time></trkpt><trkpt lat="45.5492033344" lon="6.6157321539"><ele>682.19</ele><time>2014-09-06T10:24:08Z</time></trkpt><trkpt lat="45.5494019017" lon="6.6164687555"><ele>682.67</ele><time>2014-09-06T10:24:19Z</time></trkpt><trkpt lat="45.5494202580" lon="6.6166146006"><ele>683.15</ele><time>2014-09-06T10:24:21Z</time></trkpt><trkpt lat="45.5494151451" lon="6.6166874394"><ele>683.15</ele><time>2014-09-06T10:24:22Z</time></trkpt><trkpt lat="45.5493982136" lon="6.6167534888"><ele>683.15</ele><time>2014-09-06T10:24:23Z</time></trkpt><trkpt lat="45.5493716430" lon="6.6168063786"><ele>682.67</ele><time>2014-09-06T10:24:24Z</time></trkpt><trkpt lat="45.5493326671" lon="6.6168426722"><ele>682.67</ele><time>2014-09-06T10:24:25Z</time></trkpt><trkpt lat="45.5492858123" lon="6.6168539878"><ele>682.19</ele><time>2014-09-06T10:24:26Z</time></trkpt><trkpt lat="45.5492322519" lon="6.6168352962"><ele>681.71</ele><time>2014-09-06T10:24:27Z</time></trkpt><trkpt lat="45.5491872411" lon="6.6168054566"><ele>681.71</ele><time>2014-09-06T10:24:28Z</time></trkpt><trkpt lat="45.5491453316" lon="6.6167643014"><ele>681.71</ele><time>2014-09-06T10:24:29Z</time></trkpt><trkpt lat="45.5491097085" lon="6.6167195421"><ele>681.71</ele><time>2014-09-06T10:24:30Z</time></trkpt><trkpt lat="45.5490691401" lon="6.6166680772"><ele>681.23</ele><time>2014-09-06T10:24:31Z</time></trkpt><trkpt lat="45.5483299401" lon="6.6160515044"><ele>677.87</ele><time>2014-09-06T10:24:45Z</time></trkpt><trkpt lat="45.5473770853" lon="6.6154249571"><ele>674.50</ele><time>2014-09-06T10:25:02Z</time></trkpt><trkpt lat="45.5468377098" lon="6.6153748333"><ele>673.06</ele><time>2014-09-06T10:25:10Z</time></trkpt><trkpt lat="45.5467656255" lon="6.6154039185"><ele>672.58</ele><time>2014-09-06T10:25:11Z</time></trkpt><trkpt lat="45.5466994084" lon="6.6154361889"><ele>672.58</ele><time>2014-09-06T10:25:12Z</time></trkpt><trkpt lat="45.5461291876" lon="6.6157634184"><ele>671.62</ele><time>2014-09-06T10:25:21Z</time></trkpt><trkpt lat="45.5459906347" lon="6.6157920845"><ele>671.14</ele><time>2014-09-06T10:25:23Z</time></trkpt><trkpt lat="45.5459358171" lon="6.6157930065"><ele>671.14</ele><time>2014-09-06T10:25:24Z</time></trkpt><trkpt lat="45.5458708573" lon="6.6157885641"><ele>671.14</ele><time>2014-09-06T10:25:25Z</time></trkpt><trkpt lat="45.5458007846" lon="6.6157766618"><ele>670.66</ele><time>2014-09-06T10:25:26Z</time></trkpt><trkpt lat="45.5457435362" lon="6.6157588921"><ele>670.66</ele><time>2014-09-06T10:25:27Z</time></trkpt><trkpt lat="45.5456824321" lon="6.6157352552"><ele>670.66</ele><time>2014-09-06T10:25:28Z</time></trkpt><trkpt lat="45.5447751749" lon="6.6153257992"><ele>669.22</ele><time>2014-09-06T10:25:43Z</time></trkpt><trkpt lat="45.5436894670" lon="6.6150357854"><ele>667.77</ele><time>2014-09-06T10:26:00Z</time></trkpt><trkpt lat="45.5433238484" lon="6.6148671415"><ele>666.33</ele><time>2014-09-06T10:26:06Z</time></trkpt><trkpt lat="45.5426031724" lon="6.6140669212"><ele>663.45</ele><time>2014-09-06T10:26:21Z</time></trkpt><trkpt lat="45.5425645318" lon="6.6139934957"><ele>662.97</ele><time>2014-09-06T10:26:22Z</time></trkpt><trkpt lat="45.5425318424" lon="6.6139133647"><ele>662.97</ele><time>2014-09-06T10:26:23Z</time></trkpt><trkpt lat="45.5425035954" lon="6.6138283722"><ele>662.49</ele><time>2014-09-06T10:26:24Z</time></trkpt><trkpt lat="45.5424787849" lon="6.6137414519"><ele>662.49</ele><time>2014-09-06T10:26:25Z</time></trkpt><trkpt lat="45.5424599256" lon="6.6136502568"><ele>662.01</ele><time>2014-09-06T10:26:26Z</time></trkpt><trkpt lat="45.5424478557" lon="6.6135597322"><ele>661.52</ele><time>2014-09-06T10:26:27Z</time></trkpt><trkpt lat="45.5424427427" lon="6.6134720575"><ele>661.52</ele><time>2014-09-06T10:26:28Z</time></trkpt><trkpt lat="45.5424412340" lon="6.6133808624"><ele>661.04</ele><time>2014-09-06T10:26:29Z</time></trkpt><trkpt lat="45.5424424075" lon="6.6132905055"><ele>660.56</ele><time>2014-09-06T10:26:30Z</time></trkpt><trkpt lat="45.5424952134" lon="6.6120610479"><ele>658.16</ele><time>2014-09-06T10:26:44Z</time></trkpt><trkpt lat="45.5427691340" lon="6.6109372862"><ele>658.64</ele><time>2014-09-06T10:26:58Z</time></trkpt><trkpt lat="45.5427820422" lon="6.6108548921"><ele>658.64</ele><time>2014-09-06T10:26:59Z</time></trkpt><trkpt lat="45.5428064335" lon="6.6105055343"><ele>659.12</ele><time>2014-09-06T10:27:03Z</time></trkpt><trkpt lat="45.5428023264" lon="6.6104163509"><ele>659.12</ele><time>2014-09-06T10:27:04Z</time></trkpt><trkpt lat="45.5427871551" lon="6.6102387384"><ele>659.12</ele><time>2014-09-06T10:27:06Z</time></trkpt><trkpt lat="45.5427714810" lon="6.6101519018"><ele>659.12</ele><time>2014-09-06T10:27:07Z</time></trkpt><trkpt lat="45.5425930303" lon="6.6096002888"><ele>658.64</ele><time>2014-09-06T10:27:14Z</time></trkpt><trkpt lat="45.5419705063" lon="6.6084614396"><ele>659.12</ele><time>2014-09-06T10:27:31Z</time></trkpt><trkpt lat="45.5416173767" lon="6.6073867958"><ele>658.16</ele><time>2014-09-06T10:27:46Z</time></trkpt><trkpt lat="45.5412720423" lon="6.6060209647"><ele>655.28</ele><time>2014-09-06T10:28:05Z</time></trkpt><trkpt lat="45.5410533585" lon="6.6053087544"><ele>654.80</ele><time>2014-09-06T10:28:18Z</time></trkpt><trkpt lat="45.5408426374" lon="6.6049501766"><ele>653.83</ele><time>2014-09-06T10:28:30Z</time></trkpt><trkpt lat="45.5403490271" lon="6.6042528860"><ele>652.39</ele><time>2014-09-06T10:28:45Z</time></trkpt><trkpt lat="45.5396011099" lon="6.6037296876"><ele>649.51</ele><time>2014-09-06T10:28:58Z</time></trkpt><trkpt lat="45.5389956012" lon="6.6035736166"><ele>645.66</ele><time>2014-09-06T10:29:11Z</time></trkpt><trkpt lat="45.5389506742" lon="6.6035653185"><ele>644.70</ele><time>2014-09-06T10:29:21Z</time></trkpt><trkpt lat="45.5389440525" lon="6.6035866085"><ele>645.18</ele><time>2014-09-06T10:29:46Z</time></trkpt><trkpt lat="45.5389375146" lon="6.6035822500"><ele>645.18</ele><time>2014-09-06T10:30:14Z</time></trkpt><trkpt lat="45.5389155541" lon="6.6035819985"><ele>645.18</ele><time>2014-09-06T10:30:16Z</time></trkpt><trkpt lat="45.5388920009" lon="6.6035832558"><ele>645.18</ele><time>2014-09-06T10:30:17Z</time></trkpt><trkpt lat="45.5388604011" lon="6.6035785619"><ele>645.18</ele><time>2014-09-06T10:30:18Z</time></trkpt><trkpt lat="45.5386858899" lon="6.6035485547"><ele>644.22</ele><time>2014-09-06T10:30:22Z</time></trkpt><trkpt lat="45.5386315752" lon="6.6035261750"><ele>643.26</ele><time>2014-09-06T10:30:23Z</time></trkpt><trkpt lat="45.5385806970" lon="6.6035010293"><ele>642.78</ele><time>2014-09-06T10:30:24Z</time></trkpt><trkpt lat="45.5385174975" lon="6.6034854390"><ele>642.30</ele><time>2014-09-06T10:30:25Z</time></trkpt><trkpt lat="45.5384551361" lon="6.6034792364"><ele>641.82</ele><time>2014-09-06T10:30:26Z</time></trkpt><trkpt lat="45.5383870751" lon="6.6034721956"><ele>641.34</ele><time>2014-09-06T10:30:27Z</time></trkpt><trkpt lat="45.5383167509" lon="6.6034616344"><ele>640.86</ele><time>2014-09-06T10:30:28Z</time></trkpt><trkpt lat="45.5370881315" lon="6.6032727063"><ele>631.72</ele><time>2014-09-06T10:30:43Z</time></trkpt><trkpt lat="45.5356603581" lon="6.6026847158"><ele>618.75</ele><time>2014-09-06T10:30:57Z</time></trkpt><trkpt lat="45.5340372864" lon="6.6014567669"><ele>605.77</ele><time>2014-09-06T10:31:12Z</time></trkpt><trkpt lat="45.5328602158" lon="6.6002834681"><ele>601.44</ele><time>2014-09-06T10:31:25Z</time></trkpt><trkpt lat="45.5322130490" lon="6.5996325295"><ele>602.40</ele><time>2014-09-06T10:31:36Z</time></trkpt><trkpt lat="45.5315376353" lon="6.5988263581"><ele>603.85</ele><time>2014-09-06T10:31:53Z</time></trkpt><trkpt lat="45.5311225634" lon="6.5982335899"><ele>603.36</ele><time>2014-09-06T10:32:03Z</time></trkpt><trkpt lat="45.5304472335" lon="6.5970920585"><ele>600.48</ele><time>2014-09-06T10:32:18Z</time></trkpt><trkpt lat="45.5299030803" lon="6.5957154147"><ele>600.00</ele><time>2014-09-06T10:32:35Z</time></trkpt><trkpt lat="45.5297641922" lon="6.5953455213"><ele>600.96</ele><time>2014-09-06T10:32:41Z</time></trkpt><trkpt lat="45.5296307523" lon="6.5950025339"><ele>601.44</ele><time>2014-09-06T10:32:47Z</time></trkpt><trkpt lat="45.5296108872" lon="6.5949497279"><ele>601.44</ele><time>2014-09-06T10:32:48Z</time></trkpt><trkpt lat="45.5294940434" lon="6.5946477279"><ele>601.92</ele><time>2014-09-06T10:32:54Z</time></trkpt><trkpt lat="45.5294785369" lon="6.5945947543"><ele>601.92</ele><time>2014-09-06T10:32:55Z</time></trkpt><trkpt lat="45.5292582605" lon="6.5938533749"><ele>602.40</ele><time>2014-09-06T10:33:10Z</time></trkpt><trkpt lat="45.5291178636" lon="6.5932472795"><ele>604.33</ele><time>2014-09-06T10:33:24Z</time></trkpt><trkpt lat="45.5290053785" lon="6.5925729554"><ele>606.73</ele><time>2014-09-06T10:33:41Z</time></trkpt><trkpt lat="45.5289508123" lon="6.5919973701"><ele>610.57</ele><time>2014-09-06T10:33:57Z</time></trkpt><trkpt lat="45.5289304443" lon="6.5915458370"><ele>612.02</ele><time>2014-09-06T10:34:10Z</time></trkpt><trkpt lat="45.5289303605" lon="6.5910401568"><ele>615.38</ele><time>2014-09-06T10:34:27Z</time></trkpt><trkpt lat="45.5289156083" lon="6.5906785615"><ele>615.86</ele><time>2014-09-06T10:34:41Z</time></trkpt><trkpt lat="45.5289293546" lon="6.5906674974"><ele>617.30</ele><time>2014-09-06T10:34:54Z</time></trkpt><trkpt lat="45.5289298575" lon="6.5906348918"><ele>617.30</ele><time>2014-09-06T10:35:19Z</time></trkpt><trkpt lat="45.5289187096" lon="6.5905926470"><ele>616.82</ele><time>2014-09-06T10:35:29Z</time></trkpt><trkpt lat="45.5289178714" lon="6.5905604605"><ele>616.82</ele><time>2014-09-06T10:35:30Z</time></trkpt><trkpt lat="45.5289053824" lon="6.5902080853"><ele>617.78</ele><time>2014-09-06T10:35:42Z</time></trkpt><trkpt lat="45.5288984254" lon="6.5897416323"><ele>619.23</ele><time>2014-09-06T10:35:57Z</time></trkpt><trkpt lat="45.5288921390" lon="6.5893095452"><ele>621.15</ele><time>2014-09-06T10:36:11Z</time></trkpt><trkpt lat="45.5288846791" lon="6.5887771267"><ele>622.59</ele><time>2014-09-06T10:36:28Z</time></trkpt><trkpt lat="45.5288741179" lon="6.5882772300"><ele>623.55</ele><time>2014-09-06T10:36:43Z</time></trkpt><trkpt lat="45.5288617127" lon="6.5876617469"><ele>625.96</ele><time>2014-09-06T10:37:00Z</time></trkpt><trkpt lat="45.5288423505" lon="6.5870236326"><ele>626.92</ele><time>2014-09-06T10:37:18Z</time></trkpt><trkpt lat="45.5287676677" lon="6.5863774717"><ele>629.80</ele><time>2014-09-06T10:37:37Z</time></trkpt><trkpt lat="45.5287722778" lon="6.5862697642"><ele>631.24</ele><time>2014-09-06T10:37:47Z</time></trkpt><trkpt lat="45.5287867785" lon="6.5862656571"><ele>632.20</ele><time>2014-09-06T10:38:05Z</time></trkpt><trkpt lat="45.5287791509" lon="6.5862511564"><ele>632.20</ele><time>2014-09-06T10:38:06Z</time></trkpt><trkpt lat="45.5287726130" lon="6.5862276871"><ele>632.20</ele><time>2014-09-06T10:38:07Z</time></trkpt><trkpt lat="45.5287664942" lon="6.5861998592"><ele>632.68</ele><time>2014-09-06T10:38:08Z</time></trkpt><trkpt lat="45.5287640635" lon="6.5861680079"><ele>632.68</ele><time>2014-09-06T10:38:09Z</time></trkpt><trkpt lat="45.5287594534" lon="6.5861320496"><ele>632.20</ele><time>2014-09-06T10:38:10Z</time></trkpt><trkpt lat="45.5287532508" lon="6.5860958397"><ele>632.20</ele><time>2014-09-06T10:38:11Z</time></trkpt><trkpt lat="45.5287447851" lon="6.5860625636"><ele>632.20</ele><time>2014-09-06T10:38:12Z</time></trkpt><trkpt lat="45.5286187213" lon="6.5856283810"><ele>631.72</ele><time>2014-09-06T10:38:23Z</time></trkpt></trkseg><trkseg><trkpt lat="45.5194624979" lon="6.5705935936"><ele>628.84</ele><time>2014-09-06T10:42:48Z</time></trkpt><trkpt lat="45.5185357109" lon="6.5695822332"><ele>619.71</ele><time>2014-09-06T10:43:07Z</time></trkpt><trkpt lat="45.5176440440" lon="6.5691379085"><ele>612.50</ele><time>2014-09-06T10:43:21Z</time></trkpt><trkpt lat="45.5174442194" lon="6.5690713562"><ele>609.61</ele><time>2014-09-06T10:43:24Z</time></trkpt><trkpt lat="45.5171704665" lon="6.5689353179"><ele>607.21</ele><time>2014-09-06T10:43:28Z</time></trkpt><trkpt lat="45.5164836533" lon="6.5684996266"><ele>606.25</ele><time>2014-09-06T10:43:41Z</time></trkpt><trkpt lat="45.5160922185" lon="6.5682769194"><ele>603.85</ele><time>2014-09-06T10:43:53Z</time></trkpt><trkpt lat="45.5154002924" lon="6.5679484326"><ele>603.36</ele><time>2014-09-06T10:44:08Z</time></trkpt><trkpt lat="45.5152667686" lon="6.5678563155"><ele>602.88</ele><time>2014-09-06T10:44:11Z</time></trkpt><trkpt lat="45.5145433266" lon="6.5673726797"><ele>601.92</ele><time>2014-09-06T10:44:26Z</time></trkpt><trkpt lat="45.5143873394" lon="6.5672520641"><ele>601.92</ele><time>2014-09-06T10:44:34Z</time></trkpt><trkpt lat="45.5143925361" lon="6.5672536567"><ele>604.81</ele><time>2014-09-06T10:44:48Z</time></trkpt><trkpt lat="45.5142070446" lon="6.5671416745"><ele>603.85</ele><time>2014-09-06T10:44:59Z</time></trkpt><trkpt lat="45.5135019589" lon="6.5666478127"><ele>600.48</ele><time>2014-09-06T10:45:19Z</time></trkpt><trkpt lat="45.5134048127" lon="6.5665820148"><ele>600.48</ele><time>2014-09-06T10:45:22Z</time></trkpt><trkpt lat="45.5127604958" lon="6.5661151428"><ele>598.56</ele><time>2014-09-06T10:45:37Z</time></trkpt><trkpt lat="45.5119565874" lon="6.5655740071"><ele>595.67</ele><time>2014-09-06T10:45:51Z</time></trkpt><trkpt lat="45.5108578037" lon="6.5649730247"><ele>587.50</ele><time>2014-09-06T10:46:07Z</time></trkpt><trkpt lat="45.5104481801" lon="6.5649100766"><ele>586.06</ele><time>2014-09-06T10:46:12Z</time></trkpt><trkpt lat="45.5091884639" lon="6.5650287643"><ele>577.41</ele><time>2014-09-06T10:46:27Z</time></trkpt><trkpt lat="45.5079743452" lon="6.5647506528"><ele>570.20</ele><time>2014-09-06T10:46:42Z</time></trkpt><trkpt lat="45.5069077481" lon="6.5638341755"><ele>565.39</ele><time>2014-09-06T10:46:56Z</time></trkpt><trkpt lat="45.5060706474" lon="6.5633823071"><ele>563.95</ele><time>2014-09-06T10:47:09Z</time></trkpt><trkpt lat="45.5053330399" lon="6.5632735938"><ele>562.99</ele><time>2014-09-06T10:47:21Z</time></trkpt><trkpt lat="45.5051753763" lon="6.5632697381"><ele>563.95</ele><time>2014-09-06T10:47:33Z</time></trkpt><trkpt lat="45.5051435251" lon="6.5632492863"><ele>561.07</ele><time>2014-09-06T10:48:01Z</time></trkpt><trkpt lat="45.5047041457" lon="6.5632050298"><ele>560.59</ele><time>2014-09-06T10:48:14Z</time></trkpt><trkpt lat="45.5042112898" lon="6.5631627850"><ele>560.11</ele><time>2014-09-06T10:48:27Z</time></trkpt><trkpt lat="45.5033947248" lon="6.5630631242"><ele>557.22</ele><time>2014-09-06T10:48:41Z</time></trkpt><trkpt lat="45.5031586066" lon="6.5630004276"><ele>555.30</ele><time>2014-09-06T10:48:45Z</time></trkpt><trkpt lat="45.5030970834" lon="6.5629721805"><ele>554.82</ele><time>2014-09-06T10:48:46Z</time></trkpt><trkpt lat="45.5022675265" lon="6.5623401850"><ele>549.53</ele><time>2014-09-06T10:48:58Z</time></trkpt><trkpt lat="45.5009316187" lon="6.5609398205"><ele>539.44</ele><time>2014-09-06T10:49:15Z</time></trkpt><trkpt lat="45.4998687096" lon="6.5597684495"><ele>531.75</ele><time>2014-09-06T10:49:29Z</time></trkpt><trkpt lat="45.4988228995" lon="6.5583990142"><ele>523.09</ele><time>2014-09-06T10:49:45Z</time></trkpt><trkpt lat="45.4974706471" lon="6.5563446097"><ele>512.04</ele><time>2014-09-06T10:50:04Z</time></trkpt><trkpt lat="45.4964716081" lon="6.5551195107"><ele>506.75</ele><time>2014-09-06T10:50:18Z</time></trkpt><trkpt lat="45.4962920677" lon="6.5548960492"><ele>505.79</ele><time>2014-09-06T10:50:21Z</time></trkpt><trkpt lat="45.4962484818" lon="6.5548197739"><ele>505.31</ele><time>2014-09-06T10:50:22Z</time></trkpt><trkpt lat="45.4961970169" lon="6.5547098871"><ele>504.83</ele><time>2014-09-06T10:50:24Z</time></trkpt><trkpt lat="45.4961687699" lon="6.5546681453"><ele>504.35</ele><time>2014-09-06T10:50:25Z</time></trkpt><trkpt lat="45.4961380083" lon="6.5546306781"><ele>503.87</ele><time>2014-09-06T10:50:26Z</time></trkpt><trkpt lat="45.4960659239" lon="6.5545538999"><ele>503.39</ele><time>2014-09-06T10:50:28Z</time></trkpt><trkpt lat="45.4960308038" lon="6.5545081347"><ele>503.39</ele><time>2014-09-06T10:50:29Z</time></trkpt><trkpt lat="45.4958272073" lon="6.5541956574"><ele>503.87</ele><time>2014-09-06T10:50:36Z</time></trkpt><trkpt lat="45.4958018940" lon="6.5541512333"><ele>503.87</ele><time>2014-09-06T10:50:37Z</time></trkpt><trkpt lat="45.4957760777" lon="6.5541058034"><ele>503.87</ele><time>2014-09-06T10:50:38Z</time></trkpt><trkpt lat="45.4957497586" lon="6.5540615469"><ele>504.35</ele><time>2014-09-06T10:50:39Z</time></trkpt><trkpt lat="45.4957222659" lon="6.5540176257"><ele>504.35</ele><time>2014-09-06T10:50:40Z</time></trkpt><trkpt lat="45.4955324158" lon="6.5537592117"><ele>504.83</ele><time>2014-09-06T10:50:46Z</time></trkpt><trkpt lat="45.4948026035" lon="6.5530609991"><ele>503.39</ele><time>2014-09-06T10:51:01Z</time></trkpt><trkpt lat="45.4937790055" lon="6.5521427616"><ele>499.54</ele><time>2014-09-06T10:51:19Z</time></trkpt><trkpt lat="45.4933120497" lon="6.5517152846"><ele>499.54</ele><time>2014-09-06T10:51:31Z</time></trkpt><trkpt lat="45.4932387080" lon="6.5516183060"><ele>500.02</ele><time>2014-09-06T10:51:35Z</time></trkpt><trkpt lat="45.4932528734" lon="6.5516048949"><ele>500.02</ele><time>2014-09-06T10:51:36Z</time></trkpt><trkpt lat="45.4932832159" lon="6.5516129415"><ele>500.02</ele><time>2014-09-06T10:51:37Z</time></trkpt><trkpt lat="45.4933076911" lon="6.5516291186"><ele>500.50</ele><time>2014-09-06T10:51:38Z</time></trkpt><trkpt lat="45.4933258798" lon="6.5516388416"><ele>500.50</ele><time>2014-09-06T10:51:39Z</time></trkpt><trkpt lat="45.4935313202" lon="6.5515094250"><ele>501.46</ele><time>2014-09-06T10:51:46Z</time></trkpt><trkpt lat="45.4935366847" lon="6.5514601395"><ele>501.46</ele><time>2014-09-06T10:51:47Z</time></trkpt><trkpt lat="45.4935198370" lon="6.5514240973"><ele>500.98</ele><time>2014-09-06T10:51:48Z</time></trkpt><trkpt lat="45.4934816156" lon="6.5514029749"><ele>500.50</ele><time>2014-09-06T10:51:49Z</time></trkpt><trkpt lat="45.4934425559" lon="6.5514018852"><ele>500.98</ele><time>2014-09-06T10:51:51Z</time></trkpt><trkpt lat="45.4933950305" lon="6.5513957664"><ele>500.50</ele><time>2014-09-06T10:51:52Z</time></trkpt><trkpt lat="45.4933625087" lon="6.5513838641"><ele>500.02</ele><time>2014-09-06T10:51:53Z</time></trkpt><trkpt lat="45.4933338426" lon="6.5513692796"><ele>500.02</ele><time>2014-09-06T10:51:54Z</time></trkpt><trkpt lat="45.4929652903" lon="6.5511468239"><ele>497.62</ele><time>2014-09-06T10:52:07Z</time></trkpt><trkpt lat="45.4926375579" lon="6.5509020723"><ele>495.22</ele><time>2014-09-06T10:52:18Z</time></trkpt><trkpt lat="45.4923244938" lon="6.5505740885"><ele>496.18</ele><time>2014-09-06T10:52:29Z</time></trkpt><trkpt lat="45.4922927264" lon="6.5505367890"><ele>496.18</ele><time>2014-09-06T10:52:30Z</time></trkpt><trkpt lat="45.4922617134" lon="6.5505009145"><ele>496.18</ele><time>2014-09-06T10:52:31Z</time></trkpt><trkpt lat="45.4922297783" lon="6.5504685603"><ele>496.18</ele><time>2014-09-06T10:52:32Z</time></trkpt><trkpt lat="45.4921974242" lon="6.5504350327"><ele>496.18</ele><time>2014-09-06T10:52:33Z</time></trkpt><trkpt lat="45.4921702668" lon="6.5504019242"><ele>496.18</ele><time>2014-09-06T10:52:34Z</time></trkpt><trkpt lat="45.4921514913" lon="6.5503657144"><ele>496.18</ele><time>2014-09-06T10:52:35Z</time></trkpt><trkpt lat="45.4921418522" lon="6.5503236372"><ele>496.18</ele><time>2014-09-06T10:52:36Z</time></trkpt><trkpt lat="45.4921324644" lon="6.5502894390"><ele>495.70</ele><time>2014-09-06T10:52:37Z</time></trkpt><trkpt lat="45.4921172932" lon="6.5502653830"><ele>495.70</ele><time>2014-09-06T10:52:38Z</time></trkpt><trkpt lat="45.4920985177" lon="6.5502515528"><ele>496.18</ele><time>2014-09-06T10:52:39Z</time></trkpt><trkpt lat="45.4920843523" lon="6.5502633713"><ele>496.66</ele><time>2014-09-06T10:52:40Z</time></trkpt><trkpt lat="45.4921094980" lon="6.5503688995"><ele>498.10</ele><time>2014-09-06T10:52:43Z</time></trkpt><trkpt lat="45.4921379127" lon="6.5504141618"><ele>498.10</ele><time>2014-09-06T10:52:44Z</time></trkpt><trkpt lat="45.4924606998" lon="6.5507621784"><ele>500.02</ele><time>2014-09-06T10:52:54Z</time></trkpt><trkpt lat="45.4925058782" lon="6.5508114640"><ele>500.02</ele><time>2014-09-06T10:52:56Z</time></trkpt><trkpt lat="45.4929697327" lon="6.5512250271"><ele>502.43</ele><time>2014-09-06T10:53:09Z</time></trkpt><trkpt lat="45.4934990499" lon="6.5514277853"><ele>502.91</ele><time>2014-09-06T10:53:23Z</time></trkpt><trkpt lat="45.4935231898" lon="6.5514605585"><ele>502.43</ele><time>2014-09-06T10:53:24Z</time></trkpt><trkpt lat="45.4935174063" lon="6.5515436232"><ele>502.91</ele><time>2014-09-06T10:53:26Z</time></trkpt><trkpt lat="45.4934721440" lon="6.5515832696"><ele>503.39</ele><time>2014-09-06T10:53:28Z</time></trkpt><trkpt lat="45.4934345931" lon="6.5516018774"><ele>502.91</ele><time>2014-09-06T10:53:30Z</time></trkpt><trkpt lat="45.4933919292" lon="6.5516081639"><ele>502.91</ele><time>2014-09-06T10:53:31Z</time></trkpt><trkpt lat="45.4933187552" lon="6.5516011231"><ele>502.43</ele><time>2014-09-06T10:53:33Z</time></trkpt><trkpt lat="45.4932924360" lon="6.5515815932"><ele>502.43</ele><time>2014-09-06T10:53:34Z</time></trkpt><trkpt lat="45.4932592437" lon="6.5515559446"><ele>502.43</ele><time>2014-09-06T10:53:35Z</time></trkpt><trkpt lat="45.4932257161" lon="6.5515306313"><ele>501.95</ele><time>2014-09-06T10:53:36Z</time></trkpt><trkpt lat="45.4931910150" lon="6.5515042283"><ele>501.95</ele><time>2014-09-06T10:53:37Z</time></trkpt><trkpt lat="45.4931532126" lon="6.5514819324"><ele>501.95</ele><time>2014-09-06T10:53:38Z</time></trkpt><trkpt lat="45.4929144960" lon="6.5513172280"><ele>500.02</ele><time>2014-09-06T10:53:44Z</time></trkpt><trkpt lat="45.4923027009" lon="6.5507363621"><ele>500.98</ele><time>2014-09-06T10:53:59Z</time></trkpt><trkpt lat="45.4916823562" lon="6.5502030216"><ele>498.58</ele><time>2014-09-06T10:54:14Z</time></trkpt><trkpt lat="45.4909414798" lon="6.5494279470"><ele>497.62</ele><time>2014-09-06T10:54:32Z</time></trkpt><trkpt lat="45.4902051296" lon="6.5485274792"><ele>496.66</ele><time>2014-09-06T10:54:51Z</time></trkpt><trkpt lat="45.4893521871" lon="6.5474851895"><ele>494.26</ele><time>2014-09-06T10:55:13Z</time></trkpt><trkpt lat="45.4885716643" lon="6.5465832129"><ele>491.85</ele><time>2014-09-06T10:55:31Z</time></trkpt><trkpt lat="45.4882639647" lon="6.5462310892"><ele>491.85</ele><time>2014-09-06T10:55:38Z</time></trkpt><trkpt lat="45.4875047319" lon="6.5453362372"><ele>489.45</ele><time>2014-09-06T10:55:56Z</time></trkpt><trkpt lat="45.4867798649" lon="6.5446858015"><ele>488.01</ele><time>2014-09-06T10:56:12Z</time></trkpt><trkpt lat="45.4858565982" lon="6.5436730999"><ele>484.64</ele><time>2014-09-06T10:56:32Z</time></trkpt><trkpt lat="45.4854354076" lon="6.5431674197"><ele>483.68</ele><time>2014-09-06T10:56:42Z</time></trkpt><trkpt lat="45.4853956774" lon="6.5431197267"><ele>483.68</ele><time>2014-09-06T10:56:43Z</time></trkpt><trkpt lat="45.4853592999" lon="6.5430674236"><ele>483.68</ele><time>2014-09-06T10:56:44Z</time></trkpt><trkpt lat="45.4851193260" lon="6.5426591411"><ele>484.16</ele><time>2014-09-06T10:56:51Z</time></trkpt><trkpt lat="45.4850993771" lon="6.5425981209"><ele>484.16</ele><time>2014-09-06T10:56:52Z</time></trkpt><trkpt lat="45.4848639295" lon="6.5414099023"><ele>481.28</ele><time>2014-09-06T10:57:09Z</time></trkpt><trkpt lat="45.4847893305" lon="6.5405204147"><ele>478.39</ele><time>2014-09-06T10:57:21Z</time></trkpt><trkpt lat="45.4847721476" lon="6.5401661117"><ele>478.39</ele><time>2014-09-06T10:57:26Z</time></trkpt><trkpt lat="45.4846010730" lon="6.5393265802"><ele>478.87</ele><time>2014-09-06T10:57:40Z</time></trkpt><trkpt lat="45.4845799506" lon="6.5392642189"><ele>478.87</ele><time>2014-09-06T10:57:41Z</time></trkpt><trkpt lat="45.4845069442" lon="6.5390824992"><ele>479.35</ele><time>2014-09-06T10:57:44Z</time></trkpt><trkpt lat="45.4844779428" lon="6.5390239935"><ele>479.35</ele><time>2014-09-06T10:57:45Z</time></trkpt><trkpt lat="45.4843907710" lon="6.5388535894"><ele>479.84</ele><time>2014-09-06T10:57:48Z</time></trkpt><trkpt lat="45.4843530525" lon="6.5387983527"><ele>479.84</ele><time>2014-09-06T10:57:49Z</time></trkpt><trkpt lat="45.4841292556" lon="6.5385077521"><ele>479.84</ele><time>2014-09-06T10:57:55Z</time></trkpt><trkpt lat="45.4840908665" lon="6.5384617355"><ele>479.35</ele><time>2014-09-06T10:57:56Z</time></trkpt><trkpt lat="45.4835155327" lon="6.5377294086"><ele>479.84</ele><time>2014-09-06T10:58:13Z</time></trkpt><trkpt lat="45.4832379241" lon="6.5371977445"><ele>480.32</ele><time>2014-09-06T10:58:26Z</time></trkpt><trkpt lat="45.4830587190" lon="6.5365431178"><ele>478.39</ele><time>2014-09-06T10:58:40Z</time></trkpt><trkpt lat="45.4831923265" lon="6.5359715559"><ele>479.35</ele><time>2014-09-06T10:58:53Z</time></trkpt><trkpt lat="45.4835412651" lon="6.5356465895"><ele>479.84</ele><time>2014-09-06T10:59:05Z</time></trkpt><trkpt lat="45.4838196281" lon="6.5354455914"><ele>480.32</ele><time>2014-09-06T10:59:13Z</time></trkpt><trkpt lat="45.4838484619" lon="6.5354028437"><ele>480.32</ele><time>2014-09-06T10:59:14Z</time></trkpt><trkpt lat="45.4838723503" lon="6.5353557374"><ele>480.32</ele><time>2014-09-06T10:59:15Z</time></trkpt><trkpt lat="45.4841860849" lon="6.5345243365"><ele>480.80</ele><time>2014-09-06T10:59:31Z</time></trkpt><trkpt lat="45.4844056908" lon="6.5339619108"><ele>481.28</ele><time>2014-09-06T10:59:44Z</time></trkpt><trkpt lat="45.4844711535" lon="6.5337248705"><ele>481.76</ele><time>2014-09-06T10:59:51Z</time></trkpt><trkpt lat="45.4844414815" lon="6.5336892474"><ele>481.76</ele><time>2014-09-06T10:59:52Z</time></trkpt><trkpt lat="45.4840327799" lon="6.5333876666"><ele>481.76</ele><time>2014-09-06T11:00:08Z</time></trkpt><trkpt lat="45.4837696720" lon="6.5332101379"><ele>481.28</ele><time>2014-09-06T11:00:22Z</time></trkpt><trkpt lat="45.4836105835" lon="6.5330494568"><ele>481.28</ele><time>2014-09-06T11:00:35Z</time></trkpt><trkpt lat="45.4836081527" lon="6.5330248978"><ele>481.28</ele><time>2014-09-06T11:00:36Z</time></trkpt><trkpt lat="45.4836011119" lon="6.5329584293"><ele>481.28</ele><time>2014-09-06T11:00:39Z</time></trkpt><trkpt lat="45.4835841805" lon="6.5329309367"><ele>480.80</ele><time>2014-09-06T11:00:40Z</time></trkpt><trkpt lat="45.4835814983" lon="6.5329180285"><ele>481.28</ele><time>2014-09-06T11:00:41Z</time></trkpt><trkpt lat="45.4835953284" lon="6.5328472853"><ele>482.24</ele><time>2014-09-06T11:00:51Z</time></trkpt><trkpt lat="45.4836287722" lon="6.5328384843"><ele>482.24</ele><time>2014-09-06T11:01:08Z</time></trkpt><trkpt lat="45.4836125113" lon="6.5328862611"><ele>492.33</ele><time>2014-09-06T11:01:26Z</time></trkpt><trkpt lat="45.4836011119" lon="6.5329302661"><ele>494.26</ele><time>2014-09-06T11:01:55Z</time></trkpt><trkpt lat="45.4836417641" lon="6.5329261590"><ele>493.29</ele><time>2014-09-06T11:02:23Z</time></trkpt><trkpt lat="45.4836288560" lon="6.5328213014"><ele>493.77</ele><time>2014-09-06T11:03:02Z</time></trkpt><trkpt lat="45.4836215638" lon="6.5328024421"><ele>495.70</ele><time>2014-09-06T11:03:25Z</time></trkpt><trkpt lat="45.4836250003" lon="6.5327745304"><ele>495.22</ele><time>2014-09-06T11:03:28Z</time></trkpt><trkpt lat="45.4836198874" lon="6.5327513963"><ele>496.18</ele><time>2014-09-06T11:03:29Z</time></trkpt><trkpt lat="45.4836250003" lon="6.5327296034"><ele>496.66</ele><time>2014-09-06T11:03:30Z</time></trkpt><trkpt lat="45.4836325441" lon="6.5327064693"><ele>496.66</ele><time>2014-09-06T11:03:31Z</time></trkpt><trkpt lat="45.4836403392" lon="6.5326838382"><ele>497.14</ele><time>2014-09-06T11:03:32Z</time></trkpt><trkpt lat="45.4838097375" lon="6.5323521663"><ele>500.02</ele><time>2014-09-06T11:03:47Z</time></trkpt><trkpt lat="45.4839919601" lon="6.5319834463"><ele>499.06</ele><time>2014-09-06T11:04:06Z</time></trkpt><trkpt lat="45.4841523897" lon="6.5317249484"><ele>497.14</ele><time>2014-09-06T11:04:24Z</time></trkpt><trkpt lat="45.4842682276" lon="6.5314870700"><ele>495.22</ele><time>2014-09-06T11:04:38Z</time></trkpt><trkpt lat="45.4842543975" lon="6.5314388741"><ele>492.81</ele><time>2014-09-06T11:05:01Z</time></trkpt><trkpt lat="45.4843658768" lon="6.5313249640"><ele>490.41</ele><time>2014-09-06T11:05:21Z</time></trkpt><trkpt lat="45.4844282381" lon="6.5311693959"><ele>491.37</ele><time>2014-09-06T11:05:38Z</time></trkpt><trkpt lat="45.4845470097" lon="6.5309519693"><ele>495.22</ele><time>2014-09-06T11:05:55Z</time></trkpt><trkpt lat="45.4845654499" lon="6.5309305955"><ele>495.22</ele><time>2014-09-06T11:05:56Z</time></trkpt><trkpt lat="45.4845729098" lon="6.5309196152"><ele>495.22</ele><time>2014-09-06T11:05:57Z</time></trkpt><trkpt lat="45.4846481793" lon="6.5308180265"><ele>496.66</ele><time>2014-09-06T11:06:12Z</time></trkpt><trkpt lat="45.4846602492" lon="6.5308091417"><ele>498.10</ele><time>2014-09-06T11:06:21Z</time></trkpt><trkpt lat="45.4846765939" lon="6.5308284201"><ele>498.10</ele><time>2014-09-06T11:06:23Z</time></trkpt><trkpt lat="45.4846801143" lon="6.5308516379"><ele>498.10</ele><time>2014-09-06T11:06:24Z</time></trkpt><trkpt lat="45.4846945312" lon="6.5308819804"><ele>497.62</ele><time>2014-09-06T11:06:25Z</time></trkpt><trkpt lat="45.4847090319" lon="6.5309081320"><ele>497.62</ele><time>2014-09-06T11:06:26Z</time></trkpt><trkpt lat="45.4848514404" lon="6.5312973037"><ele>496.18</ele><time>2014-09-06T11:06:41Z</time></trkpt><trkpt lat="45.4849122092" lon="6.5316968691"><ele>489.45</ele><time>2014-09-06T11:06:56Z</time></trkpt><trkpt lat="45.4849192500" lon="6.5318007208"><ele>487.05</ele><time>2014-09-06T11:07:01Z</time></trkpt><trkpt lat="45.4849214293" lon="6.5321105998"><ele>484.64</ele><time>2014-09-06T11:07:14Z</time></trkpt><trkpt lat="45.4848974571" lon="6.5324973408"><ele>484.16</ele><time>2014-09-06T11:07:28Z</time></trkpt><trkpt lat="45.4848842975" lon="6.5325811598"><ele>483.68</ele><time>2014-09-06T11:07:31Z</time></trkpt><trkpt lat="45.4848862253" lon="6.5326123405"><ele>483.68</ele><time>2014-09-06T11:07:32Z</time></trkpt><trkpt lat="45.4848961160" lon="6.5326489694"><ele>483.68</ele><time>2014-09-06T11:07:33Z</time></trkpt><trkpt lat="45.4849148914" lon="6.5326728579"><ele>484.16</ele><time>2014-09-06T11:07:34Z</time></trkpt><trkpt lat="45.4849269614" lon="6.5326862689"><ele>484.16</ele><time>2014-09-06T11:07:35Z</time></trkpt><trkpt lat="45.4849480838" lon="6.5327047091"><ele>484.16</ele><time>2014-09-06T11:07:36Z</time></trkpt><trkpt lat="45.4849660210" lon="6.5327162761"><ele>484.64</ele><time>2014-09-06T11:07:37Z</time></trkpt><trkpt lat="45.4849861376" lon="6.5327252448"><ele>484.64</ele><time>2014-09-06T11:07:38Z</time></trkpt><trkpt lat="45.4850073438" lon="6.5327363089"><ele>484.64</ele><time>2014-09-06T11:07:39Z</time></trkpt><trkpt lat="45.4850282148" lon="6.5327513125"><ele>484.16</ele><time>2014-09-06T11:07:40Z</time></trkpt><trkpt lat="45.4850471579" lon="6.5327679086"><ele>484.16</ele><time>2014-09-06T11:07:41Z</time></trkpt><trkpt lat="45.4853534326" lon="6.5330295078"><ele>484.16</ele><time>2014-09-06T11:07:56Z</time></trkpt><trkpt lat="45.4857134353" lon="6.5333068650"><ele>484.16</ele><time>2014-09-06T11:08:12Z</time></trkpt><trkpt lat="45.4859474581" lon="6.5335088689"><ele>484.16</ele><time>2014-09-06T11:08:24Z</time></trkpt><trkpt lat="45.4860654753" lon="6.5336132236"><ele>484.64</ele><time>2014-09-06T11:08:31Z</time></trkpt><trkpt lat="45.4860775452" lon="6.5335917659"><ele>484.16</ele><time>2014-09-06T11:08:32Z</time></trkpt><trkpt lat="45.4860698339" lon="6.5335558914"><ele>484.16</ele><time>2014-09-06T11:08:33Z</time></trkpt><trkpt lat="45.4860506393" lon="6.5335325897"><ele>484.16</ele><time>2014-09-06T11:08:34Z</time></trkpt><trkpt lat="45.4860285111" lon="6.5335107129"><ele>483.68</ele><time>2014-09-06T11:08:35Z</time></trkpt><trkpt lat="45.4860146809" lon="6.5334958769"><ele>483.68</ele><time>2014-09-06T11:08:36Z</time></trkpt><trkpt lat="45.4857487231" lon="6.5332409833"><ele>482.72</ele><time>2014-09-06T11:08:49Z</time></trkpt><trkpt lat="45.4857379943" lon="6.5331947152"><ele>482.72</ele><time>2014-09-06T11:08:50Z</time></trkpt><trkpt lat="45.4857557639" lon="6.5328528173"><ele>479.35</ele><time>2014-09-06T11:09:00Z</time></trkpt><trkpt lat="45.4857646488" lon="6.5328466147"><ele>476.95</ele><time>2014-09-06T11:09:10Z</time></trkpt><trkpt lat="45.4857773054" lon="6.5328267496"><ele>476.95</ele><time>2014-09-06T11:09:12Z</time></trkpt><trkpt lat="45.4858928919" lon="6.5325666592"><ele>477.91</ele><time>2014-09-06T11:09:22Z</time></trkpt><trkpt lat="45.4859080631" lon="6.5325192176"><ele>478.87</ele><time>2014-09-06T11:09:24Z</time></trkpt><trkpt lat="45.4859038722" lon="6.5324870311"><ele>478.87</ele><time>2014-09-06T11:09:36Z</time></trkpt><trkpt lat="45.4859036207" lon="6.5324669145"><ele>478.87</ele><time>2014-09-06T11:09:37Z</time></trkpt><trkpt lat="45.4859091528" lon="6.5324440319"><ele>478.87</ele><time>2014-09-06T11:09:38Z</time></trkpt><trkpt lat="45.4859200493" lon="6.5324162040"><ele>479.35</ele><time>2014-09-06T11:09:39Z</time></trkpt><trkpt lat="45.4859324545" lon="6.5323884599"><ele>479.84</ele><time>2014-09-06T11:09:40Z</time></trkpt><trkpt lat="45.4859426804" lon="6.5323582012"><ele>479.84</ele><time>2014-09-06T11:09:41Z</time></trkpt><trkpt lat="45.4861234780" lon="6.5318702068"><ele>481.28</ele><time>2014-09-06T11:09:55Z</time></trkpt><trkpt lat="45.4861767869" lon="6.5316717234"><ele>480.32</ele><time>2014-09-06T11:10:03Z</time></trkpt><trkpt lat="45.4860191233" lon="6.5313444100"><ele>479.35</ele><time>2014-09-06T11:10:19Z</time></trkpt><trkpt lat="45.4857069813" lon="6.5312826354"><ele>480.32</ele><time>2014-09-06T11:10:31Z</time></trkpt><trkpt lat="45.4854710307" lon="6.5311730839"><ele>482.24</ele><time>2014-09-06T11:10:42Z</time></trkpt><trkpt lat="45.4854634870" lon="6.5311539732"><ele>482.24</ele><time>2014-09-06T11:10:43Z</time></trkpt><trkpt lat="45.4854577873" lon="6.5311230440"><ele>482.24</ele><time>2014-09-06T11:10:44Z</time></trkpt><trkpt lat="45.4854577035" lon="6.5310810506"><ele>481.76</ele><time>2014-09-06T11:10:45Z</time></trkpt><trkpt lat="45.4854652472" lon="6.5310514625"><ele>481.76</ele><time>2014-09-06T11:10:46Z</time></trkpt><trkpt lat="45.4854813404" lon="6.5310189407"><ele>481.76</ele><time>2014-09-06T11:10:47Z</time></trkpt><trkpt lat="45.4854962602" lon="6.5309933759"><ele>481.76</ele><time>2014-09-06T11:10:48Z</time></trkpt><trkpt lat="45.4857794009" lon="6.5305673238"><ele>480.32</ele><time>2014-09-06T11:11:02Z</time></trkpt><trkpt lat="45.4858254176" lon="6.5305228997"><ele>480.80</ele><time>2014-09-06T11:11:04Z</time></trkpt><trkpt lat="45.4858290218" lon="6.5305010229"><ele>480.80</ele><time>2014-09-06T11:11:05Z</time></trkpt><trkpt lat="45.4858168680" lon="6.5304778051"><ele>480.32</ele><time>2014-09-06T11:11:06Z</time></trkpt><trkpt lat="45.4857909679" lon="6.5304763801"><ele>480.32</ele><time>2014-09-06T11:11:07Z</time></trkpt><trkpt lat="45.4857650679" lon="6.5304999333"><ele>480.32</ele><time>2014-09-06T11:11:08Z</time></trkpt><trkpt lat="45.4857463762" lon="6.5305255819"><ele>480.32</ele><time>2014-09-06T11:11:09Z</time></trkpt><trkpt lat="45.4857333004" lon="6.5305431839"><ele>480.32</ele><time>2014-09-06T11:11:10Z</time></trkpt><trkpt lat="45.4857068975" lon="6.5305674914"><ele>480.32</ele><time>2014-09-06T11:11:11Z</time></trkpt><trkpt lat="45.4856818356" lon="6.5305977501"><ele>480.32</ele><time>2014-09-06T11:11:12Z</time></trkpt><trkpt lat="45.4856618866" lon="6.5306275059"><ele>480.32</ele><time>2014-09-06T11:11:13Z</time></trkpt><trkpt lat="45.4856418539" lon="6.5306586027"><ele>480.32</ele><time>2014-09-06T11:11:14Z</time></trkpt><trkpt lat="45.4856239166" lon="6.5306934714"><ele>480.32</ele><time>2014-09-06T11:11:15Z</time></trkpt><trkpt lat="45.4854388442" lon="6.5309636202"><ele>481.76</ele><time>2014-09-06T11:11:26Z</time></trkpt><trkpt lat="45.4854085855" lon="6.5309903584"><ele>482.72</ele><time>2014-09-06T11:11:28Z</time></trkpt><trkpt lat="45.4853752255" lon="6.5309929568"><ele>484.64</ele><time>2014-09-06T11:11:29Z</time></trkpt><trkpt lat="45.4853482358" lon="6.5309920348"><ele>485.60</ele><time>2014-09-06T11:11:30Z</time></trkpt><trkpt lat="45.4853218328" lon="6.5309918672"><ele>486.56</ele><time>2014-09-06T11:11:31Z</time></trkpt><trkpt lat="45.4852848686" lon="6.5309907775"><ele>488.01</ele><time>2014-09-06T11:11:32Z</time></trkpt><trkpt lat="45.4849998839" lon="6.5309564956"><ele>492.81</ele><time>2014-09-06T11:11:42Z</time></trkpt><trkpt lat="45.4847184196" lon="6.5309325233"><ele>490.89</ele><time>2014-09-06T11:11:55Z</time></trkpt><trkpt lat="45.4845178407" lon="6.5307665616"><ele>484.16</ele><time>2014-09-06T11:12:07Z</time></trkpt><trkpt lat="45.4845143203" lon="6.5307848342"><ele>476.95</ele><time>2014-09-06T11:12:24Z</time></trkpt><trkpt lat="45.4843978956" lon="6.5306077246"><ele>479.84</ele><time>2014-09-06T11:12:36Z</time></trkpt><trkpt lat="45.4841223825" lon="6.5301727038"><ele>482.24</ele><time>2014-09-06T11:12:52Z</time></trkpt><trkpt lat="45.4839030281" lon="6.5299437940"><ele>480.80</ele><time>2014-09-06T11:13:05Z</time></trkpt><trkpt lat="45.4839056265" lon="6.5299043991"><ele>480.32</ele><time>2014-09-06T11:13:06Z</time></trkpt><trkpt lat="45.4839153495" lon="6.5298712905"><ele>479.84</ele><time>2014-09-06T11:13:07Z</time></trkpt><trkpt lat="45.4839235637" lon="6.5298461448"><ele>479.35</ele><time>2014-09-06T11:13:08Z</time></trkpt><trkpt lat="45.4839399923" lon="6.5298147127"><ele>478.87</ele><time>2014-09-06T11:13:09Z</time></trkpt><trkpt lat="45.4839570075" lon="6.5297832806"><ele>478.39</ele><time>2014-09-06T11:13:10Z</time></trkpt><trkpt lat="45.4839727655" lon="6.5297515970"><ele>477.91</ele><time>2014-09-06T11:13:11Z</time></trkpt><trkpt lat="45.4839901999" lon="6.5297218412"><ele>477.43</ele><time>2014-09-06T11:13:12Z</time></trkpt><trkpt lat="45.4841734283" lon="6.5291522909"><ele>480.80</ele><time>2014-09-06T11:13:26Z</time></trkpt><trkpt lat="45.4844196886" lon="6.5284625441"><ele>483.20</ele><time>2014-09-06T11:13:42Z</time></trkpt><trkpt lat="45.4846842214" lon="6.5278763138"><ele>485.12</ele><time>2014-09-06T11:13:57Z</time></trkpt><trkpt lat="45.4849636741" lon="6.5272359364"><ele>486.08</ele><time>2014-09-06T11:14:14Z</time></trkpt><trkpt lat="45.4851862136" lon="6.5266897716"><ele>486.56</ele><time>2014-09-06T11:14:28Z</time></trkpt><trkpt lat="45.4853398539" lon="6.5261985920"><ele>485.60</ele><time>2014-09-06T11:14:40Z</time></trkpt><trkpt lat="45.4854995292" lon="6.5255545266"><ele>485.60</ele><time>2014-09-06T11:14:54Z</time></trkpt><trkpt lat="45.4856987670" lon="6.5254755691"><ele>486.56</ele><time>2014-09-06T11:15:03Z</time></trkpt><trkpt lat="45.4859605338" lon="6.5255960170"><ele>486.08</ele><time>2014-09-06T11:15:15Z</time></trkpt><trkpt lat="45.4859601147" lon="6.5256142896"><ele>486.08</ele><time>2014-09-06T11:15:16Z</time></trkpt><trkpt lat="45.4859422613" lon="6.5256551094"><ele>479.35</ele><time>2014-09-06T11:15:24Z</time></trkpt><trkpt lat="45.4858884495" lon="6.5255445521"><ele>479.35</ele><time>2014-09-06T11:15:47Z</time></trkpt><trkpt lat="45.4859104939" lon="6.5255761519"><ele>481.76</ele><time>2014-09-06T11:16:12Z</time></trkpt><trkpt lat="45.4858951550" lon="6.5255375952"><ele>487.05</ele><time>2014-09-06T11:16:45Z</time></trkpt><trkpt lat="45.4858784750" lon="6.5255230945"><ele>489.45</ele><time>2014-09-06T11:17:13Z</time></trkpt><trkpt lat="45.4858768824" lon="6.5255655907"><ele>491.37</ele><time>2014-09-06T11:17:40Z</time></trkpt><trkpt lat="45.4858918022" lon="6.5256157145"><ele>492.33</ele><time>2014-09-06T11:18:11Z</time></trkpt><trkpt lat="45.4859260004" lon="6.5256018844"><ele>491.37</ele><time>2014-09-06T11:18:49Z</time></trkpt><trkpt lat="45.4859424289" lon="6.5255523473"><ele>488.49</ele><time>2014-09-06T11:19:21Z</time></trkpt><trkpt lat="45.4858844262" lon="6.5255214181"><ele>490.89</ele><time>2014-09-06T11:20:00Z</time></trkpt><trkpt lat="45.4858766310" lon="6.5254935902"><ele>497.14</ele><time>2014-09-06T11:20:33Z</time></trkpt><trkpt lat="45.4858806543" lon="6.5254515130"><ele>498.10</ele><time>2014-09-06T11:21:00Z</time></trkpt><trkpt lat="45.4858743679" lon="6.5254498366"><ele>497.62</ele><time>2014-09-06T11:21:30Z</time></trkpt><trkpt lat="45.4858234059" lon="6.5253681131"><ele>496.18</ele><time>2014-09-06T11:22:04Z</time></trkpt><trkpt lat="45.4858221486" lon="6.5253683645"><ele>496.66</ele><time>2014-09-06T11:22:36Z</time></trkpt><trkpt lat="45.4857828375" lon="6.5253855474"><ele>496.66</ele><time>2014-09-06T11:23:07Z</time></trkpt><trkpt lat="45.4858048819" lon="6.5254493337"><ele>499.06</ele><time>2014-09-06T11:23:41Z</time></trkpt><trkpt lat="45.4858458694" lon="6.5255331527"><ele>500.02</ele><time>2014-09-06T11:24:16Z</time></trkpt><trkpt lat="45.4858401697" lon="6.5255360026"><ele>498.10</ele><time>2014-09-06T11:24:44Z</time></trkpt><trkpt lat="45.4858560953" lon="6.5255382657"><ele>494.74</ele><time>2014-09-06T11:25:11Z</time></trkpt><trkpt lat="45.4858321231" lon="6.5254930034"><ele>494.74</ele><time>2014-09-06T11:25:32Z</time></trkpt><trkpt lat="45.4858214781" lon="6.5254717134"><ele>494.74</ele><time>2014-09-06T11:25:54Z</time></trkpt><trkpt lat="45.4858733620" lon="6.5255023073"><ele>498.10</ele><time>2014-09-06T11:26:25Z</time></trkpt><trkpt lat="45.4858874436" lon="6.5255701169"><ele>500.50</ele><time>2014-09-06T11:26:58Z</time></trkpt><trkpt lat="45.4858925566" lon="6.5255753137"><ele>500.02</ele><time>2014-09-06T11:27:21Z</time></trkpt><trkpt lat="45.4858881142" lon="6.5255503356"><ele>498.58</ele><time>2014-09-06T11:27:42Z</time></trkpt><trkpt lat="45.4858753737" lon="6.5255318955"><ele>497.62</ele><time>2014-09-06T11:28:07Z</time></trkpt><trkpt lat="45.4859061353" lon="6.5255981963"><ele>493.29</ele><time>2014-09-06T11:28:48Z</time></trkpt><trkpt lat="45.4859337118" lon="6.5256370883"><ele>492.33</ele><time>2014-09-06T11:29:27Z</time></trkpt><trkpt lat="45.4859339632" lon="6.5255648363"><ele>492.33</ele><time>2014-09-06T11:30:03Z</time></trkpt><trkpt lat="45.4859056324" lon="6.5255520120"><ele>492.81</ele><time>2014-09-06T11:30:39Z</time></trkpt><trkpt lat="45.4858790617" lon="6.5255153831"><ele>492.81</ele><time>2014-09-06T11:31:11Z</time></trkpt><trkpt lat="45.4858610407" lon="6.5254954342"><ele>493.29</ele><time>2014-09-06T11:31:44Z</time></trkpt><trkpt lat="45.4858870246" lon="6.5254857112"><ele>494.74</ele><time>2014-09-06T11:32:19Z</time></trkpt><trkpt lat="45.4858932272" lon="6.5255303867"><ele>494.74</ele><time>2014-09-06T11:32:44Z</time></trkpt><trkpt lat="45.4858871922" lon="6.5255706199"><ele>495.70</ele><time>2014-09-06T11:33:12Z</time></trkpt><trkpt lat="45.4858471267" lon="6.5254939254"><ele>500.50</ele><time>2014-09-06T11:33:42Z</time></trkpt><trkpt lat="45.4858594481" lon="6.5254717134"><ele>503.87</ele><time>2014-09-06T11:34:07Z</time></trkpt><trkpt lat="45.4858316202" lon="6.5254553687"><ele>505.79</ele><time>2014-09-06T11:34:31Z</time></trkpt><trkpt lat="45.4857971705" lon="6.5254229307"><ele>511.08</ele><time>2014-09-06T11:34:58Z</time></trkpt><trkpt lat="45.4857889563" lon="6.5254295524"><ele>509.64</ele><time>2014-09-06T11:35:25Z</time></trkpt><trkpt lat="45.4858399183" lon="6.5255195741"><ele>508.67</ele><time>2014-09-06T11:35:52Z</time></trkpt><trkpt lat="45.4858406726" lon="6.5254913270"><ele>510.60</ele><time>2014-09-06T11:36:22Z</time></trkpt><trkpt lat="45.4858474620" lon="6.5254790895"><ele>506.27</ele><time>2014-09-06T11:36:53Z</time></trkpt><trkpt lat="45.4858357273" lon="6.5254661813"><ele>501.46</ele><time>2014-09-06T11:37:28Z</time></trkpt><trkpt lat="45.4858756252" lon="6.5255136229"><ele>500.98</ele><time>2014-09-06T11:37:56Z</time></trkpt><trkpt lat="45.4859146848" lon="6.5255300514"><ele>500.98</ele><time>2014-09-06T11:38:23Z</time></trkpt><trkpt lat="45.4859324545" lon="6.5255617350"><ele>499.54</ele><time>2014-09-06T11:39:06Z</time></trkpt><trkpt lat="45.4859420937" lon="6.5256489068"><ele>495.22</ele><time>2014-09-06T11:39:45Z</time></trkpt><trkpt lat="45.4859155230" lon="6.5256173071"><ele>495.70</ele><time>2014-09-06T11:40:15Z</time></trkpt><trkpt lat="45.4859099910" lon="6.5256168041"><ele>495.70</ele><time>2014-09-06T11:40:48Z</time></trkpt><trkpt lat="45.4859200493" lon="6.5255953465"><ele>496.18</ele><time>2014-09-06T11:41:19Z</time></trkpt><trkpt lat="45.4859048780" lon="6.5255920775"><ele>490.89</ele><time>2014-09-06T11:41:54Z</time></trkpt><trkpt lat="45.4859160259" lon="6.5255642496"><ele>493.29</ele><time>2014-09-06T11:42:24Z</time></trkpt><trkpt lat="45.4859389924" lon="6.5255003795"><ele>490.89</ele><time>2014-09-06T11:42:57Z</time></trkpt><trkpt lat="45.4859194625" lon="6.5255698655"><ele>493.29</ele><time>2014-09-06T11:43:33Z</time></trkpt><trkpt lat="45.4858988430" lon="6.5256095957"><ele>491.85</ele><time>2014-09-06T11:44:10Z</time></trkpt><trkpt lat="45.4859053809" lon="6.5256195702"><ele>491.85</ele><time>2014-09-06T11:44:33Z</time></trkpt><trkpt lat="45.4858007748" lon="6.5255606454"><ele>492.81</ele><time>2014-09-06T11:44:43Z</time></trkpt><trkpt lat="45.4857365694" lon="6.5255132038"><ele>493.77</ele><time>2014-09-06T11:44:48Z</time></trkpt><trkpt lat="45.4857239965" lon="6.5255097672"><ele>494.26</ele><time>2014-09-06T11:44:49Z</time></trkpt><trkpt lat="45.4857122619" lon="6.5255100187"><ele>494.26</ele><time>2014-09-06T11:44:50Z</time></trkpt><trkpt lat="45.4857010301" lon="6.5255073365"><ele>494.74</ele><time>2014-09-06T11:44:51Z</time></trkpt><trkpt lat="45.4856904689" lon="6.5255054086"><ele>494.74</ele><time>2014-09-06T11:44:52Z</time></trkpt><trkpt lat="45.4856722802" lon="6.5254945122"><ele>495.22</ele><time>2014-09-06T11:44:54Z</time></trkpt><trkpt lat="45.4856043030" lon="6.5254513454"><ele>493.29</ele><time>2014-09-06T11:45:03Z</time></trkpt><trkpt lat="45.4855481442" lon="6.5254848730"><ele>492.33</ele><time>2014-09-06T11:45:09Z</time></trkpt><trkpt lat="45.4855402652" lon="6.5254954342"><ele>492.33</ele><time>2014-09-06T11:45:10Z</time></trkpt><trkpt lat="45.4855339788" lon="6.5255152993"><ele>492.33</ele><time>2014-09-06T11:45:11Z</time></trkpt><trkpt lat="45.4854529258" lon="6.5257630683"><ele>494.74</ele><time>2014-09-06T11:45:29Z</time></trkpt><trkpt lat="45.4853602219" lon="6.5260645654"><ele>495.22</ele><time>2014-09-06T11:45:46Z</time></trkpt><trkpt lat="45.4853494931" lon="6.5261839237"><ele>492.81</ele><time>2014-09-06T11:45:51Z</time></trkpt><trkpt lat="45.4853499122" lon="6.5262030344"><ele>492.33</ele><time>2014-09-06T11:45:52Z</time></trkpt><trkpt lat="45.4853473976" lon="6.5262234025"><ele>492.33</ele><time>2014-09-06T11:45:53Z</time></trkpt><trkpt lat="45.4853453860" lon="6.5262412559"><ele>492.33</ele><time>2014-09-06T11:45:54Z</time></trkpt><trkpt lat="45.4853429552" lon="6.5262596123"><ele>492.33</ele><time>2014-09-06T11:45:55Z</time></trkpt><trkpt lat="45.4853397701" lon="6.5262791421"><ele>491.85</ele><time>2014-09-06T11:45:56Z</time></trkpt><trkpt lat="45.4853425361" lon="6.5263948124"><ele>489.45</ele><time>2014-09-06T11:46:08Z</time></trkpt><trkpt lat="45.4853505827" lon="6.5264368895"><ele>488.97</ele><time>2014-09-06T11:46:21Z</time></trkpt><trkpt lat="45.4853715375" lon="6.5264471993"><ele>485.60</ele><time>2014-09-06T11:46:57Z</time></trkpt><trkpt lat="45.4853578750" lon="6.5264292620"><ele>485.60</ele><time>2014-09-06T11:47:32Z</time></trkpt><trkpt lat="45.4853507504" lon="6.5264470316"><ele>481.76</ele><time>2014-09-06T11:48:01Z</time></trkpt><trkpt lat="45.4853714537" lon="6.5264365543"><ele>481.28</ele><time>2014-09-06T11:48:27Z</time></trkpt><trkpt lat="45.4853447992" lon="6.5264300164"><ele>482.24</ele><time>2014-09-06T11:49:02Z</time></trkpt><trkpt lat="45.4853273649" lon="6.5264301840"><ele>484.16</ele><time>2014-09-06T11:49:26Z</time></trkpt><trkpt lat="45.4853332322" lon="6.5263828263"><ele>489.45</ele><time>2014-09-06T11:49:56Z</time></trkpt><trkpt lat="45.4853444640" lon="6.5263957344"><ele>483.68</ele><time>2014-09-06T11:50:33Z</time></trkpt><trkpt lat="45.4853789136" lon="6.5263845026"><ele>476.47</ele><time>2014-09-06T11:51:05Z</time></trkpt><trkpt lat="45.4853777401" lon="6.5264528990"><ele>481.28</ele><time>2014-09-06T11:51:40Z</time></trkpt><trkpt lat="45.4853544384" lon="6.5264154319"><ele>489.45</ele><time>2014-09-06T11:52:24Z</time></trkpt><trkpt lat="45.4853184801" lon="6.5264057089"><ele>489.45</ele><time>2014-09-06T11:52:52Z</time></trkpt><trkpt lat="45.4853114393" lon="6.5264491271"><ele>489.45</ele><time>2014-09-06T11:53:26Z</time></trkpt><trkpt lat="45.4853336513" lon="6.5264074691"><ele>488.49</ele><time>2014-09-06T11:53:56Z</time></trkpt><trkpt lat="45.4853188992" lon="6.5263793897"><ele>486.08</ele><time>2014-09-06T11:54:30Z</time></trkpt><trkpt lat="45.4853223357" lon="6.5263620391"><ele>489.45</ele><time>2014-09-06T11:55:00Z</time></trkpt><trkpt lat="45.4853493255" lon="6.5263854247"><ele>484.64</ele><time>2014-09-06T11:55:38Z</time></trkpt><trkpt lat="45.4853100143" lon="6.5264300164"><ele>485.12</ele><time>2014-09-06T11:55:56Z</time></trkpt><trkpt lat="45.4852898140" lon="6.5264707524"><ele>484.16</ele><time>2014-09-06T11:56:12Z</time></trkpt><trkpt lat="45.4852740560" lon="6.5265194513"><ele>484.64</ele><time>2014-09-06T11:56:14Z</time></trkpt><trkpt lat="45.4852583818" lon="6.5265424177"><ele>484.64</ele><time>2014-09-06T11:56:15Z</time></trkpt><trkpt lat="45.4852359183" lon="6.5265675634"><ele>484.64</ele><time>2014-09-06T11:56:16Z</time></trkpt><trkpt lat="45.4852130357" lon="6.5265917033"><ele>484.64</ele><time>2014-09-06T11:56:17Z</time></trkpt><trkpt lat="45.4851914942" lon="6.5266234707"><ele>484.64</ele><time>2014-09-06T11:56:18Z</time></trkpt><trkpt lat="45.4851738922" lon="6.5266580041"><ele>484.64</ele><time>2014-09-06T11:56:19Z</time></trkpt><trkpt lat="45.4851561226" lon="6.5266903583"><ele>484.64</ele><time>2014-09-06T11:56:20Z</time></trkpt><trkpt lat="45.4849651828" lon="6.5272998065"><ele>488.49</ele><time>2014-09-06T11:56:35Z</time></trkpt><trkpt lat="45.4847344290" lon="6.5277950931"><ele>491.37</ele><time>2014-09-06T11:56:47Z</time></trkpt><trkpt lat="45.4844624363" lon="6.5284244902"><ele>491.85</ele><time>2014-09-06T11:57:01Z</time></trkpt><trkpt lat="45.4842108116" lon="6.5290707350"><ele>493.77</ele><time>2014-09-06T11:57:15Z</time></trkpt><trkpt lat="45.4839582648" lon="6.5296913311"><ele>493.29</ele><time>2014-09-06T11:57:30Z</time></trkpt><trkpt lat="45.4838637169" lon="6.5298800915"><ele>493.29</ele><time>2014-09-06T11:57:36Z</time></trkpt><trkpt lat="45.4838332068" lon="6.5298805106"><ele>493.77</ele><time>2014-09-06T11:57:37Z</time></trkpt><trkpt lat="45.4838037025" lon="6.5298621543"><ele>493.77</ele><time>2014-09-06T11:57:39Z</time></trkpt><trkpt lat="45.4835652374" lon="6.5297111124"><ele>489.93</ele><time>2014-09-06T11:57:50Z</time></trkpt><trkpt lat="45.4835461266" lon="6.5297114477"><ele>489.45</ele><time>2014-09-06T11:57:51Z</time></trkpt><trkpt lat="45.4835262615" lon="6.5297154710"><ele>489.45</ele><time>2014-09-06T11:57:52Z</time></trkpt><trkpt lat="45.4835075699" lon="6.5297191590"><ele>489.45</ele><time>2014-09-06T11:57:53Z</time></trkpt><trkpt lat="45.4834905546" lon="6.5297242720"><ele>488.97</ele><time>2014-09-06T11:57:54Z</time></trkpt><trkpt lat="45.4834715277" lon="6.5297300555"><ele>488.97</ele><time>2014-09-06T11:57:55Z</time></trkpt><trkpt lat="45.4834417719" lon="6.5297508426"><ele>488.97</ele><time>2014-09-06T11:57:57Z</time></trkpt><trkpt lat="45.4834323004" lon="6.5297971107"><ele>488.97</ele><time>2014-09-06T11:57:58Z</time></trkpt><trkpt lat="45.4834348988" lon="6.5298296325"><ele>488.97</ele><time>2014-09-06T11:57:59Z</time></trkpt><trkpt lat="45.4834389221" lon="6.5298629925"><ele>488.97</ele><time>2014-09-06T11:58:00Z</time></trkpt><trkpt lat="45.4834419396" lon="6.5298959333"><ele>488.97</ele><time>2014-09-06T11:58:01Z</time></trkpt><trkpt lat="45.4835943226" lon="6.5304362308"><ele>488.97</ele><time>2014-09-06T11:58:15Z</time></trkpt><trkpt lat="45.4836180434" lon="6.5305627976"><ele>489.93</ele><time>2014-09-06T11:58:19Z</time></trkpt><trkpt lat="45.4835385829" lon="6.5307202097"><ele>490.89</ele><time>2014-09-06T11:58:25Z</time></trkpt><trkpt lat="45.4833053984" lon="6.5311074536"><ele>490.41</ele><time>2014-09-06T11:58:38Z</time></trkpt><trkpt lat="45.4831310548" lon="6.5313597489"><ele>493.29</ele><time>2014-09-06T11:58:51Z</time></trkpt><trkpt lat="45.4829117004" lon="6.5316540375"><ele>498.10</ele><time>2014-09-06T11:59:05Z</time></trkpt><trkpt lat="45.4828557931" lon="6.5317899920"><ele>501.46</ele><time>2014-09-06T11:59:11Z</time></trkpt><trkpt lat="45.4828307312" lon="6.5318011399"><ele>501.46</ele><time>2014-09-06T11:59:13Z</time></trkpt><trkpt lat="45.4826509394" lon="6.5318363439"><ele>498.58</ele><time>2014-09-06T11:59:22Z</time></trkpt><trkpt lat="45.4826510232" lon="6.5318634175"><ele>498.10</ele><time>2014-09-06T11:59:23Z</time></trkpt><trkpt lat="45.4826638475" lon="6.5318873059"><ele>497.14</ele><time>2014-09-06T11:59:24Z</time></trkpt><trkpt lat="45.4826853890" lon="6.5318922512"><ele>496.18</ele><time>2014-09-06T11:59:26Z</time></trkpt><trkpt lat="45.4827329982" lon="6.5318962745"><ele>494.74</ele><time>2014-09-06T11:59:28Z</time></trkpt><trkpt lat="45.4827542044" lon="6.5318953525"><ele>494.74</ele><time>2014-09-06T11:59:29Z</time></trkpt><trkpt lat="45.4827994667" lon="6.5318920836"><ele>494.26</ele><time>2014-09-06T11:59:31Z</time></trkpt><trkpt lat="45.4828940984" lon="6.5319491643"><ele>493.29</ele><time>2014-09-06T11:59:35Z</time></trkpt><trkpt lat="45.4828906618" lon="6.5319892298"><ele>492.33</ele><time>2014-09-06T11:59:37Z</time></trkpt><trkpt lat="45.4828957748" lon="6.5320536029"><ele>490.89</ele><time>2014-09-06T11:59:39Z</time></trkpt><trkpt lat="45.4830432124" lon="6.5324524976"><ele>493.29</ele><time>2014-09-06T11:59:51Z</time></trkpt><trkpt lat="45.4831394367" lon="6.5325663239"><ele>493.77</ele><time>2014-09-06T11:59:59Z</time></trkpt><trkpt lat="45.4831573740" lon="6.5325856861"><ele>493.77</ele><time>2014-09-06T12:00:00Z</time></trkpt><trkpt lat="45.4833922349" lon="6.5328429267"><ele>491.85</ele><time>2014-09-06T12:00:11Z</time></trkpt><trkpt lat="45.4835494794" lon="6.5330295078"><ele>492.33</ele><time>2014-09-06T12:00:21Z</time></trkpt><trkpt lat="45.4835659079" lon="6.5330380574"><ele>492.33</ele><time>2014-09-06T12:00:22Z</time></trkpt><trkpt lat="45.4835814983" lon="6.5330473613"><ele>492.33</ele><time>2014-09-06T12:00:23Z</time></trkpt><trkpt lat="45.4836033750" lon="6.5330595151"><ele>492.33</ele><time>2014-09-06T12:00:24Z</time></trkpt><trkpt lat="45.4836146068" lon="6.5330723394"><ele>492.33</ele><time>2014-09-06T12:00:25Z</time></trkpt><trkpt lat="45.4836286884" lon="6.5330838226"><ele>492.33</ele><time>2014-09-06T12:00:26Z</time></trkpt><trkpt lat="45.4836412612" lon="6.5330979042"><ele>492.33</ele><time>2014-09-06T12:00:27Z</time></trkpt><trkpt lat="45.4836540855" lon="6.5331080463"><ele>492.81</ele><time>2014-09-06T12:00:28Z</time></trkpt><trkpt lat="45.4836692568" lon="6.5331172664"><ele>493.29</ele><time>2014-09-06T12:00:29Z</time></trkpt><trkpt lat="45.4836856853" lon="6.5331255645"><ele>493.77</ele><time>2014-09-06T12:00:30Z</time></trkpt><trkpt lat="45.4837024491" lon="6.5331352036"><ele>493.77</ele><time>2014-09-06T12:00:31Z</time></trkpt><trkpt lat="45.4837205540" lon="6.5331451781"><ele>494.26</ele><time>2014-09-06T12:00:32Z</time></trkpt><trkpt lat="45.4837374017" lon="6.5331562422"><ele>494.74</ele><time>2014-09-06T12:00:33Z</time></trkpt><trkpt lat="45.4837543331" lon="6.5331716649"><ele>494.74</ele><time>2014-09-06T12:00:34Z</time></trkpt><trkpt lat="45.4837759584" lon="6.5331815556"><ele>494.74</ele><time>2014-09-06T12:00:35Z</time></trkpt><trkpt lat="45.4837985896" lon="6.5331941284"><ele>495.22</ele><time>2014-09-06T12:00:36Z</time></trkpt><trkpt lat="45.4838134255" lon="6.5332015883"><ele>495.22</ele><time>2014-09-06T12:00:37Z</time></trkpt><trkpt lat="45.4840719234" lon="6.5334008262"><ele>501.95</ele><time>2014-09-06T12:00:51Z</time></trkpt><trkpt lat="45.4843600933" lon="6.5335843060"><ele>505.79</ele><time>2014-09-06T12:01:05Z</time></trkpt><trkpt lat="45.4843869992" lon="6.5336261317"><ele>505.31</ele><time>2014-09-06T12:01:07Z</time></trkpt><trkpt lat="45.4843903519" lon="6.5336568095"><ele>504.83</ele><time>2014-09-06T12:01:08Z</time></trkpt><trkpt lat="45.4843836464" lon="6.5336997248"><ele>504.35</ele><time>2014-09-06T12:01:09Z</time></trkpt><trkpt lat="45.4843755998" lon="6.5337436460"><ele>503.87</ele><time>2014-09-06T12:01:10Z</time></trkpt><trkpt lat="45.4843704030" lon="6.5337739885"><ele>503.39</ele><time>2014-09-06T12:01:11Z</time></trkpt><trkpt lat="45.4842155892" lon="6.5342078358"><ele>504.35</ele><time>2014-09-06T12:01:22Z</time></trkpt><trkpt lat="45.4839154333" lon="6.5349907055"><ele>501.95</ele><time>2014-09-06T12:01:39Z</time></trkpt><trkpt lat="45.4836175404" lon="6.5354778618"><ele>498.10</ele><time>2014-09-06T12:01:53Z</time></trkpt><trkpt lat="45.4832141194" lon="6.5357955359"><ele>496.18</ele><time>2014-09-06T12:02:10Z</time></trkpt><trkpt lat="45.4830055777" lon="6.5360408742"><ele>496.18</ele><time>2014-09-06T12:02:20Z</time></trkpt><trkpt lat="45.4829707928" lon="6.5360151418"><ele>496.18</ele><time>2014-09-06T12:02:21Z</time></trkpt><trkpt lat="45.4829440545" lon="6.5359957796"><ele>495.70</ele><time>2014-09-06T12:02:22Z</time></trkpt><trkpt lat="45.4829142150" lon="6.5359872300"><ele>495.70</ele><time>2014-09-06T12:02:23Z</time></trkpt><trkpt lat="45.4828766640" lon="6.5359820332"><ele>494.74</ele><time>2014-09-06T12:02:25Z</time></trkpt><trkpt lat="45.4828324076" lon="6.5359378606"><ele>493.77</ele><time>2014-09-06T12:02:26Z</time></trkpt><trkpt lat="45.4828043282" lon="6.5358677041"><ele>493.77</ele><time>2014-09-06T12:02:28Z</time></trkpt><trkpt lat="45.4827864747" lon="6.5357799456"><ele>493.29</ele><time>2014-09-06T12:02:29Z</time></trkpt><trkpt lat="45.4827794340" lon="6.5357333422"><ele>493.29</ele><time>2014-09-06T12:02:30Z</time></trkpt><trkpt lat="45.4826444853" lon="6.5348266717"><ele>491.85</ele><time>2014-09-06T12:02:44Z</time></trkpt><trkpt lat="45.4825169127" lon="6.5339489188"><ele>493.29</ele><time>2014-09-06T12:03:00Z</time></trkpt><trkpt lat="45.4824108817" lon="6.5331045259"><ele>495.70</ele><time>2014-09-06T12:03:17Z</time></trkpt><trkpt lat="45.4822921101" lon="6.5323721152"><ele>496.66</ele><time>2014-09-06T12:03:32Z</time></trkpt><trkpt lat="45.4822116438" lon="6.5316510201"><ele>495.22</ele><time>2014-09-06T12:03:45Z</time></trkpt><trkpt lat="45.4822087940" lon="6.5316029917"><ele>495.22</ele><time>2014-09-06T12:03:46Z</time></trkpt><trkpt lat="45.4821276572" lon="6.5308093932"><ele>492.81</ele><time>2014-09-06T12:03:59Z</time></trkpt><trkpt lat="45.4818088934" lon="6.5297582187"><ele>490.41</ele><time>2014-09-06T12:04:12Z</time></trkpt><trkpt lat="45.4815705959" lon="6.5291769337"><ele>490.41</ele><time>2014-09-06T12:04:21Z</time></trkpt><trkpt lat="45.4815514013" lon="6.5291240439"><ele>490.41</ele><time>2014-09-06T12:04:22Z</time></trkpt><trkpt lat="45.4815301951" lon="6.5290776081"><ele>490.41</ele><time>2014-09-06T12:04:23Z</time></trkpt><trkpt lat="45.4815061390" lon="6.5290387161"><ele>490.89</ele><time>2014-09-06T12:04:24Z</time></trkpt><trkpt lat="45.4814835079" lon="6.5290011652"><ele>490.89</ele><time>2014-09-06T12:04:25Z</time></trkpt><trkpt lat="45.4814615473" lon="6.5289626084"><ele>490.89</ele><time>2014-09-06T12:04:26Z</time></trkpt><trkpt lat="45.4814381618" lon="6.5289362054"><ele>491.37</ele><time>2014-09-06T12:04:27Z</time></trkpt><trkpt lat="45.4814151116" lon="6.5289165080"><ele>491.37</ele><time>2014-09-06T12:04:28Z</time></trkpt><trkpt lat="45.4813946597" lon="6.5288825613"><ele>491.37</ele><time>2014-09-06T12:04:29Z</time></trkpt><trkpt lat="45.4813825898" lon="6.5288253967"><ele>491.37</ele><time>2014-09-06T12:04:30Z</time></trkpt><trkpt lat="45.4813755490" lon="6.5287888516"><ele>491.37</ele><time>2014-09-06T12:04:31Z</time></trkpt><trkpt lat="45.4813605454" lon="6.5287402365"><ele>491.85</ele><time>2014-09-06T12:04:32Z</time></trkpt><trkpt lat="45.4813383333" lon="6.5286918730"><ele>491.85</ele><time>2014-09-06T12:04:33Z</time></trkpt><trkpt lat="45.4813144449" lon="6.5286428388"><ele>491.85</ele><time>2014-09-06T12:04:34Z</time></trkpt><trkpt lat="45.4813008662" lon="6.5285834111"><ele>491.85</ele><time>2014-09-06T12:04:35Z</time></trkpt><trkpt lat="45.4813049734" lon="6.5284949820"><ele>491.85</ele><time>2014-09-06T12:04:37Z</time></trkpt><trkpt lat="45.4813191388" lon="6.5284147672"><ele>492.81</ele><time>2014-09-06T12:04:38Z</time></trkpt><trkpt lat="45.4813901335" lon="6.5273922589"><ele>491.85</ele><time>2014-09-06T12:04:53Z</time></trkpt><trkpt lat="45.4814045504" lon="6.5272598248"><ele>491.37</ele><time>2014-09-06T12:04:55Z</time></trkpt><trkpt lat="45.4814180452" lon="6.5271895844"><ele>491.37</ele><time>2014-09-06T12:04:56Z</time></trkpt><trkpt lat="45.4814294446" lon="6.5271219425"><ele>490.89</ele><time>2014-09-06T12:04:57Z</time></trkpt><trkpt lat="45.4814403411" lon="6.5270548873"><ele>490.89</ele><time>2014-09-06T12:04:58Z</time></trkpt><trkpt lat="45.4814502317" lon="6.5269927774"><ele>490.89</ele><time>2014-09-06T12:04:59Z</time></trkpt><trkpt lat="45.4814617988" lon="6.5269324277"><ele>490.89</ele><time>2014-09-06T12:05:00Z</time></trkpt><trkpt lat="45.4814750422" lon="6.5268698148"><ele>490.89</ele><time>2014-09-06T12:05:01Z</time></trkpt><trkpt lat="45.4814909678" lon="6.5268106386"><ele>490.89</ele><time>2014-09-06T12:05:02Z</time></trkpt><trkpt lat="45.4817165248" lon="6.5261648130"><ele>492.33</ele><time>2014-09-06T12:05:15Z</time></trkpt><trkpt lat="45.4823049344" lon="6.5254821908"><ele>491.85</ele><time>2014-09-06T12:05:32Z</time></trkpt><trkpt lat="45.4824378714" lon="6.5253945161"><ele>491.85</ele><time>2014-09-06T12:05:35Z</time></trkpt><trkpt lat="45.4831587989" lon="6.5250753332"><ele>491.37</ele><time>2014-09-06T12:05:51Z</time></trkpt><trkpt lat="45.4839207977" lon="6.5247133188"><ele>493.29</ele><time>2014-09-06T12:06:11Z</time></trkpt><trkpt lat="45.4847574793" lon="6.5240031201"><ele>488.97</ele><time>2014-09-06T12:06:30Z</time></trkpt><trkpt lat="45.4854740482" lon="6.5233142115"><ele>487.05</ele><time>2014-09-06T12:06:47Z</time></trkpt><trkpt lat="45.4855583701" lon="6.5232542809"><ele>486.56</ele><time>2014-09-06T12:06:49Z</time></trkpt><trkpt lat="45.4855962563" lon="6.5232161433"><ele>486.56</ele><time>2014-09-06T12:06:50Z</time></trkpt><trkpt lat="45.4856347293" lon="6.5231729764"><ele>486.08</ele><time>2014-09-06T12:06:51Z</time></trkpt><trkpt lat="45.4862610251" lon="6.5223440062"><ele>485.60</ele><time>2014-09-06T12:07:10Z</time></trkpt><trkpt lat="45.4866330139" lon="6.5216970071"><ele>486.56</ele><time>2014-09-06T12:07:26Z</time></trkpt><trkpt lat="45.4867284000" lon="6.5215450432"><ele>488.01</ele><time>2014-09-06T12:07:36Z</time></trkpt><trkpt lat="45.4868029151" lon="6.5214012936"><ele>488.97</ele><time>2014-09-06T12:07:45Z</time></trkpt><trkpt lat="45.4872269556" lon="6.5208205953"><ele>489.93</ele><time>2014-09-06T12:08:01Z</time></trkpt><trkpt lat="45.4879825003" lon="6.5203147475"><ele>492.33</ele><time>2014-09-06T12:08:21Z</time></trkpt></trkseg><trkseg><trkpt lat="45.4987374041" lon="6.5128862858"><ele>499.06</ele><time>2014-09-06T12:13:26Z</time></trkpt><trkpt lat="45.4992465209" lon="6.5128104296"><ele>501.95</ele><time>2014-09-06T12:13:39Z</time></trkpt><trkpt lat="45.4993499536" lon="6.5127835236"><ele>502.91</ele><time>2014-09-06T12:13:43Z</time></trkpt><trkpt lat="45.4993693996" lon="6.5127660893"><ele>502.91</ele><time>2014-09-06T12:13:44Z</time></trkpt><trkpt lat="45.4993916117" lon="6.5127511695"><ele>503.39</ele><time>2014-09-06T12:13:45Z</time></trkpt><trkpt lat="45.4994175956" lon="6.5127410274"><ele>503.39</ele><time>2014-09-06T12:13:46Z</time></trkpt><trkpt lat="45.4994449206" lon="6.5127349924"><ele>503.39</ele><time>2014-09-06T12:13:47Z</time></trkpt><trkpt lat="45.4994754307" lon="6.5127318911"><ele>503.87</ele><time>2014-09-06T12:13:48Z</time></trkpt><trkpt lat="45.4999576416" lon="6.5126775764"><ele>506.75</ele><time>2014-09-06T12:14:06Z</time></trkpt><trkpt lat="45.5003932491" lon="6.5126138739"><ele>509.64</ele><time>2014-09-06T12:14:25Z</time></trkpt><trkpt lat="45.5004151259" lon="6.5126059111"><ele>509.64</ele><time>2014-09-06T12:14:26Z</time></trkpt><trkpt lat="45.5007468816" lon="6.5125430468"><ele>512.04</ele><time>2014-09-06T12:14:41Z</time></trkpt><trkpt lat="45.5011119135" lon="6.5124622453"><ele>514.44</ele><time>2014-09-06T12:14:58Z</time></trkpt><trkpt lat="45.5014246423" lon="6.5123449825"><ele>516.37</ele><time>2014-09-06T12:15:13Z</time></trkpt><trkpt lat="45.5017777719" lon="6.5121709742"><ele>517.33</ele><time>2014-09-06T12:15:29Z</time></trkpt><trkpt lat="45.5020933505" lon="6.5119982231"><ele>518.29</ele><time>2014-09-06T12:15:44Z</time></trkpt><trkpt lat="45.5021800194" lon="6.5119604208"><ele>515.88</ele><time>2014-09-06T12:15:56Z</time></trkpt><trkpt lat="45.5021807738" lon="6.5119740833"><ele>518.77</ele><time>2014-09-06T12:16:26Z</time></trkpt><trkpt lat="45.5021869764" lon="6.5119605884"><ele>519.73</ele><time>2014-09-06T12:16:55Z</time></trkpt><trkpt lat="45.5021679495" lon="6.5119641088"><ele>519.25</ele><time>2014-09-06T12:17:14Z</time></trkpt><trkpt lat="45.5023267865" lon="6.5118530486"><ele>519.73</ele><time>2014-09-06T12:17:26Z</time></trkpt><trkpt lat="45.5028062314" lon="6.5115552396"><ele>520.21</ele><time>2014-09-06T12:17:43Z</time></trkpt><trkpt lat="45.5031334609" lon="6.5113419201"><ele>520.21</ele><time>2014-09-06T12:17:55Z</time></trkpt><trkpt lat="45.5032885261" lon="6.5112651419"><ele>520.21</ele><time>2014-09-06T12:18:08Z</time></trkpt><trkpt lat="45.5033142585" lon="6.5113213845"><ele>521.17</ele><time>2014-09-06T12:18:29Z</time></trkpt><trkpt lat="45.5033121631" lon="6.5113310236"><ele>520.69</ele><time>2014-09-06T12:19:01Z</time></trkpt><trkpt lat="45.5033834092" lon="6.5112016909"><ele>521.65</ele><time>2014-09-06T12:19:15Z</time></trkpt><trkpt lat="45.5038431566" lon="6.5109505691"><ele>521.17</ele><time>2014-09-06T12:19:27Z</time></trkpt><trkpt lat="45.5045002978" lon="6.5107173007"><ele>515.88</ele><time>2014-09-06T12:19:40Z</time></trkpt><trkpt lat="45.5045519304" lon="6.5106717031"><ele>515.40</ele><time>2014-09-06T12:19:43Z</time></trkpt><trkpt lat="45.5045681074" lon="6.5106493235"><ele>515.40</ele><time>2014-09-06T12:19:44Z</time></trkpt><trkpt lat="45.5045853741" lon="6.5106278658"><ele>515.40</ele><time>2014-09-06T12:19:45Z</time></trkpt><trkpt lat="45.5045979470" lon="6.5106118564"><ele>514.92</ele><time>2014-09-06T12:19:46Z</time></trkpt><trkpt lat="45.5046084244" lon="6.5105910692"><ele>514.44</ele><time>2014-09-06T12:19:47Z</time></trkpt><trkpt lat="45.5046165548" lon="6.5105593856"><ele>514.44</ele><time>2014-09-06T12:19:48Z</time></trkpt><trkpt lat="45.5046209972" lon="6.5105113573"><ele>513.96</ele><time>2014-09-06T12:19:49Z</time></trkpt><trkpt lat="45.5046128668" lon="6.5104565397"><ele>513.48</ele><time>2014-09-06T12:19:50Z</time></trkpt><trkpt lat="45.5046007130" lon="6.5104211681"><ele>513.48</ele><time>2014-09-06T12:19:51Z</time></trkpt><trkpt lat="45.5045830272" lon="6.5103712119"><ele>513.48</ele><time>2014-09-06T12:19:52Z</time></trkpt><trkpt lat="45.5045682751" lon="6.5103217587"><ele>513.00</ele><time>2014-09-06T12:19:53Z</time></trkpt><trkpt lat="45.5045350827" lon="6.5102228522"><ele>513.00</ele><time>2014-09-06T12:19:55Z</time></trkpt><trkpt lat="45.5045123678" lon="6.5101588145"><ele>513.00</ele><time>2014-09-06T12:19:56Z</time></trkpt><trkpt lat="45.5044870544" lon="6.5100838803"><ele>513.00</ele><time>2014-09-06T12:19:57Z</time></trkpt><trkpt lat="45.5044495873" lon="6.5100178309"><ele>513.00</ele><time>2014-09-06T12:19:58Z</time></trkpt><trkpt lat="45.5044117011" lon="6.5099789388"><ele>512.52</ele><time>2014-09-06T12:19:59Z</time></trkpt><trkpt lat="45.5043645948" lon="6.5099472553"><ele>512.04</ele><time>2014-09-06T12:20:00Z</time></trkpt><trkpt lat="45.5043079332" lon="6.5099272225"><ele>511.08</ele><time>2014-09-06T12:20:01Z</time></trkpt><trkpt lat="45.5042342562" lon="6.5099303238"><ele>510.60</ele><time>2014-09-06T12:20:02Z</time></trkpt><trkpt lat="45.5041749123" lon="6.5099445730"><ele>510.12</ele><time>2014-09-06T12:20:03Z</time></trkpt><trkpt lat="45.5041114613" lon="6.5099606663"><ele>509.16</ele><time>2014-09-06T12:20:04Z</time></trkpt><trkpt lat="45.5032135081" lon="6.5100134723"><ele>498.58</ele><time>2014-09-06T12:20:16Z</time></trkpt><trkpt lat="45.5025277007" lon="6.5099886619"><ele>490.89</ele><time>2014-09-06T12:20:27Z</time></trkpt><trkpt lat="45.5024841987" lon="6.5099770948"><ele>490.41</ele><time>2014-09-06T12:20:28Z</time></trkpt><trkpt lat="45.5024450552" lon="6.5099573974"><ele>490.41</ele><time>2014-09-06T12:20:29Z</time></trkpt><trkpt lat="45.5024113599" lon="6.5099253785"><ele>489.93</ele><time>2014-09-06T12:20:30Z</time></trkpt><trkpt lat="45.5023764912" lon="6.5098779369"><ele>489.45</ele><time>2014-09-06T12:20:31Z</time></trkpt><trkpt lat="45.5023432150" lon="6.5098296572"><ele>489.45</ele><time>2014-09-06T12:20:32Z</time></trkpt><trkpt lat="45.5023161415" lon="6.5097983927"><ele>489.45</ele><time>2014-09-06T12:20:33Z</time></trkpt><trkpt lat="45.5022858828" lon="6.5097564831"><ele>489.45</ele><time>2014-09-06T12:20:34Z</time></trkpt><trkpt lat="45.5022654310" lon="6.5097061917"><ele>489.45</ele><time>2014-09-06T12:20:35Z</time></trkpt><trkpt lat="45.5021930952" lon="6.5095483605"><ele>488.97</ele><time>2014-09-06T12:20:39Z</time></trkpt><trkpt lat="45.5020703841" lon="6.5095056966"><ele>488.01</ele><time>2014-09-06T12:20:43Z</time></trkpt><trkpt lat="45.5020289775" lon="6.5095254779"><ele>487.53</ele><time>2014-09-06T12:20:44Z</time></trkpt><trkpt lat="45.5019843020" lon="6.5095498692"><ele>487.05</ele><time>2014-09-06T12:20:45Z</time></trkpt><trkpt lat="45.5014191102" lon="6.5098104626"><ele>483.20</ele><time>2014-09-06T12:20:56Z</time></trkpt><trkpt lat="45.5011493806" lon="6.5098527074"><ele>481.28</ele><time>2014-09-06T12:21:01Z</time></trkpt><trkpt lat="45.5011000112" lon="6.5098783560"><ele>480.80</ele><time>2014-09-06T12:21:02Z</time></trkpt><trkpt lat="45.5009100772" lon="6.5100186691"><ele>479.84</ele><time>2014-09-06T12:21:06Z</time></trkpt><trkpt lat="45.5008673295" lon="6.5100457426"><ele>479.84</ele><time>2014-09-06T12:21:07Z</time></trkpt><trkpt lat="45.5007854383" lon="6.5101042483"><ele>479.35</ele><time>2014-09-06T12:21:09Z</time></trkpt><trkpt lat="45.5007475521" lon="6.5101112891"><ele>478.87</ele><time>2014-09-06T12:21:10Z</time></trkpt><trkpt lat="45.5007160362" lon="6.5100922622"><ele>478.87</ele><time>2014-09-06T12:21:11Z</time></trkpt><trkpt lat="45.5006918125" lon="6.5100547951"><ele>478.39</ele><time>2014-09-06T12:21:12Z</time></trkpt><trkpt lat="45.5006679241" lon="6.5100117121"><ele>478.39</ele><time>2014-09-06T12:21:13Z</time></trkpt><trkpt lat="45.5006005336" lon="6.5098434873"><ele>478.39</ele><time>2014-09-06T12:21:17Z</time></trkpt><trkpt lat="45.5005656648" lon="6.5098254662"><ele>478.39</ele><time>2014-09-06T12:21:18Z</time></trkpt><trkpt lat="45.5005210731" lon="6.5098312497"><ele>478.39</ele><time>2014-09-06T12:21:19Z</time></trkpt><trkpt lat="45.5005021300" lon="6.5098372847"><ele>478.39</ele><time>2014-09-06T12:21:20Z</time></trkpt><trkpt lat="45.5004676804" lon="6.5098531265"><ele>478.39</ele><time>2014-09-06T12:21:21Z</time></trkpt><trkpt lat="45.5004354101" lon="6.5098755062"><ele>478.39</ele><time>2014-09-06T12:21:22Z</time></trkpt><trkpt lat="45.5001443904" lon="6.5100635961"><ele>478.87</ele><time>2014-09-06T12:21:35Z</time></trkpt><trkpt lat="45.5001387745" lon="6.5100677870"><ele>479.35</ele><time>2014-09-06T12:21:37Z</time></trkpt><trkpt lat="45.5001353379" lon="6.5100827068"><ele>479.35</ele><time>2014-09-06T12:21:38Z</time></trkpt><trkpt lat="45.5001358408" lon="6.5100966208"><ele>478.87</ele><time>2014-09-06T12:21:39Z</time></trkpt><trkpt lat="45.5001475755" lon="6.5101166535"><ele>478.87</ele><time>2014-09-06T12:21:40Z</time></trkpt><trkpt lat="45.5001719669" lon="6.5101205930"><ele>478.39</ele><time>2014-09-06T12:21:41Z</time></trkpt><trkpt lat="45.5001868866" lon="6.5101105347"><ele>478.39</ele><time>2014-09-06T12:21:42Z</time></trkpt><trkpt lat="45.5002091825" lon="6.5100902505"><ele>478.39</ele><time>2014-09-06T12:21:43Z</time></trkpt><trkpt lat="45.5006514117" lon="6.5098011587"><ele>477.91</ele><time>2014-09-06T12:21:57Z</time></trkpt><trkpt lat="45.5011468660" lon="6.5094284993"><ele>477.91</ele><time>2014-09-06T12:22:13Z</time></trkpt><trkpt lat="45.5015108082" lon="6.5090654790"><ele>475.03</ele><time>2014-09-06T12:22:28Z</time></trkpt><trkpt lat="45.5017409753" lon="6.5087987669"><ele>474.07</ele><time>2014-09-06T12:22:40Z</time></trkpt><trkpt lat="45.5017925240" lon="6.5087171271"><ele>477.43</ele><time>2014-09-06T12:22:49Z</time></trkpt><trkpt lat="45.5017906800" lon="6.5087138582"><ele>477.91</ele><time>2014-09-06T12:23:09Z</time></trkpt><trkpt lat="45.5017887522" lon="6.5087006986"><ele>475.99</ele><time>2014-09-06T12:23:39Z</time></trkpt><trkpt lat="45.5017952062" lon="6.5087119304"><ele>476.47</ele><time>2014-09-06T12:23:58Z</time></trkpt><trkpt lat="45.5017540511" lon="6.5086812526"><ele>476.47</ele><time>2014-09-06T12:24:17Z</time></trkpt><trkpt lat="45.5017508660" lon="6.5086727869"><ele>476.95</ele><time>2014-09-06T12:24:33Z</time></trkpt><trkpt lat="45.5017670430" lon="6.5086689312"><ele>475.51</ele><time>2014-09-06T12:24:52Z</time></trkpt><trkpt lat="45.5017708149" lon="6.5087032970"><ele>475.51</ele><time>2014-09-06T12:25:10Z</time></trkpt><trkpt lat="45.5017798673" lon="6.5086966753"><ele>475.51</ele><time>2014-09-06T12:25:21Z</time></trkpt><trkpt lat="45.5020235293" lon="6.5084456373"><ele>475.99</ele><time>2014-09-06T12:25:31Z</time></trkpt><trkpt lat="45.5020597391" lon="6.5084180608"><ele>475.51</ele><time>2014-09-06T12:25:32Z</time></trkpt><trkpt lat="45.5021340866" lon="6.5083464794"><ele>475.03</ele><time>2014-09-06T12:25:34Z</time></trkpt><trkpt lat="45.5027402658" lon="6.5077232849"><ele>473.59</ele><time>2014-09-06T12:25:49Z</time></trkpt><trkpt lat="45.5029279366" lon="6.5075392183"><ele>473.59</ele><time>2014-09-06T12:26:00Z</time></trkpt><trkpt lat="45.5029979255" lon="6.5074413177"><ele>474.07</ele><time>2014-09-06T12:26:17Z</time></trkpt><trkpt lat="45.5031523202" lon="6.5072932094"><ele>473.59</ele><time>2014-09-06T12:26:22Z</time></trkpt><trkpt lat="45.5031845905" lon="6.5072558261"><ele>473.59</ele><time>2014-09-06T12:26:23Z</time></trkpt><trkpt lat="45.5036527198" lon="6.5067586955"><ele>471.66</ele><time>2014-09-06T12:26:36Z</time></trkpt><trkpt lat="45.5036919471" lon="6.5067244973"><ele>471.66</ele><time>2014-09-06T12:26:37Z</time></trkpt><trkpt lat="45.5044026487" lon="6.5059935115"><ele>470.70</ele><time>2014-09-06T12:26:55Z</time></trkpt><trkpt lat="45.5044705421" lon="6.5059143025"><ele>471.18</ele><time>2014-09-06T12:26:57Z</time></trkpt><trkpt lat="45.5051133502" lon="6.5052562393"><ele>470.22</ele><time>2014-09-06T12:27:14Z</time></trkpt><trkpt lat="45.5055674817" lon="6.5048112441"><ele>470.22</ele><time>2014-09-06T12:27:25Z</time></trkpt><trkpt lat="45.5056933779" lon="6.5047052968"><ele>471.18</ele><time>2014-09-06T12:27:28Z</time></trkpt><trkpt lat="45.5057504587" lon="6.5046220645"><ele>471.66</ele><time>2014-09-06T12:27:30Z</time></trkpt><trkpt lat="45.5058394745" lon="6.5044862777"><ele>472.14</ele><time>2014-09-06T12:27:33Z</time></trkpt><trkpt lat="45.5058792047" lon="6.5044407640"><ele>472.14</ele><time>2014-09-06T12:27:34Z</time></trkpt><trkpt lat="45.5062751658" lon="6.5040783305"><ele>470.22</ele><time>2014-09-06T12:27:44Z</time></trkpt><trkpt lat="45.5069990270" lon="6.5033198521"><ele>469.74</ele><time>2014-09-06T12:28:00Z</time></trkpt><trkpt lat="45.5077046156" lon="6.5026154369"><ele>467.82</ele><time>2014-09-06T12:28:16Z</time></trkpt><trkpt lat="45.5084466655" lon="6.5019054897"><ele>467.82</ele><time>2014-09-06T12:28:34Z</time></trkpt><trkpt lat="45.5089896452" lon="6.5013863146"><ele>466.38</ele><time>2014-09-06T12:28:48Z</time></trkpt><trkpt lat="45.5093390029" lon="6.5010589175"><ele>464.45</ele><time>2014-09-06T12:28:57Z</time></trkpt><trkpt lat="45.5098909512" lon="6.5005225595"><ele>459.17</ele><time>2014-09-06T12:29:11Z</time></trkpt><trkpt lat="45.5106859747" lon="6.4998045657"><ele>460.13</ele><time>2014-09-06T12:29:29Z</time></trkpt><trkpt lat="45.5112048984" lon="6.4992472529"><ele>462.05</ele><time>2014-09-06T12:29:44Z</time></trkpt><trkpt lat="45.5116294418" lon="6.4986151736"><ele>459.65</ele><time>2014-09-06T12:30:00Z</time></trkpt><trkpt lat="45.5119271670" lon="6.4981415123"><ele>462.05</ele><time>2014-09-06T12:30:14Z</time></trkpt><trkpt lat="45.5122410692" lon="6.4976157993"><ele>466.38</ele><time>2014-09-06T12:30:31Z</time></trkpt><trkpt lat="45.5124389660" lon="6.4971324150"><ele>469.26</ele><time>2014-09-06T12:30:44Z</time></trkpt><trkpt lat="45.5127202626" lon="6.4969496895"><ele>471.18</ele><time>2014-09-06T12:30:58Z</time></trkpt><trkpt lat="45.5128629226" lon="6.4969056845"><ele>472.14</ele><time>2014-09-06T12:31:04Z</time></trkpt><trkpt lat="45.5130146351" lon="6.4967647009"><ele>472.63</ele><time>2014-09-06T12:31:16Z</time></trkpt><trkpt lat="45.5130469892" lon="6.4967769384"><ele>473.11</ele><time>2014-09-06T12:31:17Z</time></trkpt><trkpt lat="45.5130690336" lon="6.4967980608"><ele>473.11</ele><time>2014-09-06T12:31:18Z</time></trkpt><trkpt lat="45.5131065845" lon="6.4967994019"><ele>473.59</ele><time>2014-09-06T12:31:19Z</time></trkpt><trkpt lat="45.5131742265" lon="6.4968076162"><ele>474.07</ele><time>2014-09-06T12:31:20Z</time></trkpt><trkpt lat="45.5132039823" lon="6.4968029223"><ele>474.55</ele><time>2014-09-06T12:31:21Z</time></trkpt><trkpt lat="45.5132287089" lon="6.4967937861"><ele>474.55</ele><time>2014-09-06T12:31:22Z</time></trkpt><trkpt lat="45.5134519190" lon="6.4965239726"><ele>477.91</ele><time>2014-09-06T12:31:37Z</time></trkpt><trkpt lat="45.5135049764" lon="6.4961923845"><ele>480.80</ele><time>2014-09-06T12:31:50Z</time></trkpt><trkpt lat="45.5134881288" lon="6.4958040509"><ele>483.20</ele><time>2014-09-06T12:32:03Z</time></trkpt><trkpt lat="45.5134835187" lon="6.4951367676"><ele>482.72</ele><time>2014-09-06T12:32:17Z</time></trkpt><trkpt lat="45.5135447066" lon="6.4940574300"><ele>480.80</ele><time>2014-09-06T12:32:35Z</time></trkpt><trkpt lat="45.5136615504" lon="6.4929143060"><ele>480.80</ele><time>2014-09-06T12:32:52Z</time></trkpt><trkpt lat="45.5137141887" lon="6.4925801195"><ele>480.32</ele><time>2014-09-06T12:32:57Z</time></trkpt><trkpt lat="45.5140069686" lon="6.4913426992"><ele>477.91</ele><time>2014-09-06T12:33:17Z</time></trkpt><trkpt lat="45.5142375547" lon="6.4905126393"><ele>475.99</ele><time>2014-09-06T12:33:33Z</time></trkpt><trkpt lat="45.5144833960" lon="6.4896078128"><ele>475.51</ele><time>2014-09-06T12:33:49Z</time></trkpt><trkpt lat="45.5146037601" lon="6.4891931601"><ele>475.03</ele><time>2014-09-06T12:33:56Z</time></trkpt><trkpt lat="45.5146216135" lon="6.4891370013"><ele>475.03</ele><time>2014-09-06T12:33:57Z</time></trkpt><trkpt lat="45.5146387964" lon="6.4890805911"><ele>475.03</ele><time>2014-09-06T12:33:58Z</time></trkpt><trkpt lat="45.5150165688" lon="6.4881868288"><ele>472.63</ele><time>2014-09-06T12:34:14Z</time></trkpt><trkpt lat="45.5156193953" lon="6.4874234051"><ele>471.18</ele><time>2014-09-06T12:34:30Z</time></trkpt><trkpt lat="45.5163741857" lon="6.4869758952"><ele>467.34</ele><time>2014-09-06T12:34:46Z</time></trkpt><trkpt lat="45.5167538021" lon="6.4868132025"><ele>465.90</ele><time>2014-09-06T12:34:55Z</time></trkpt><trkpt lat="45.5172331631" lon="6.4866805170"><ele>463.97</ele><time>2014-09-06T12:35:05Z</time></trkpt><trkpt lat="45.5179389194" lon="6.4864930138"><ele>460.61</ele><time>2014-09-06T12:35:20Z</time></trkpt><trkpt lat="45.5187807977" lon="6.4862842206"><ele>459.17</ele><time>2014-09-06T12:35:37Z</time></trkpt><trkpt lat="45.5192169920" lon="6.4861650299"><ele>458.69</ele><time>2014-09-06T12:35:47Z</time></trkpt><trkpt lat="45.5192584824" lon="6.4861544687"><ele>458.69</ele><time>2014-09-06T12:35:48Z</time></trkpt><trkpt lat="45.5198452156" lon="6.4861169178"><ele>462.05</ele><time>2014-09-06T12:36:05Z</time></trkpt><trkpt lat="45.5199461337" lon="6.4864968695"><ele>465.42</ele><time>2014-09-06T12:36:15Z</time></trkpt><trkpt lat="45.5196962692" lon="6.4867880568"><ele>468.78</ele><time>2014-09-06T12:36:28Z</time></trkpt><trkpt lat="45.5195786711" lon="6.4869397692"><ele>470.70</ele><time>2014-09-06T12:36:35Z</time></trkpt><trkpt lat="45.5195645057" lon="6.4869550243"><ele>471.18</ele><time>2014-09-06T12:36:36Z</time></trkpt><trkpt lat="45.5194998812" lon="6.4870481472"><ele>472.14</ele><time>2014-09-06T12:36:41Z</time></trkpt><trkpt lat="45.5194832850" lon="6.4870600495"><ele>472.14</ele><time>2014-09-06T12:36:42Z</time></trkpt><trkpt lat="45.5194683652" lon="6.4870673418"><ele>472.14</ele><time>2014-09-06T12:36:43Z</time></trkpt><trkpt lat="45.5194557086" lon="6.4870724548"><ele>472.63</ele><time>2014-09-06T12:36:44Z</time></trkpt><trkpt lat="45.5194423813" lon="6.4870891348"><ele>475.03</ele><time>2014-09-06T12:36:57Z</time></trkpt><trkpt lat="45.5194371846" lon="6.4871001150"><ele>475.51</ele><time>2014-09-06T12:37:27Z</time></trkpt><trkpt lat="45.5194257852" lon="6.4870985225"><ele>475.99</ele><time>2014-09-06T12:37:28Z</time></trkpt><trkpt lat="45.5194095243" lon="6.4871229976"><ele>472.14</ele><time>2014-09-06T12:37:44Z</time></trkpt><trkpt lat="45.5194121227" lon="6.4870920684"><ele>466.38</ele><time>2014-09-06T12:38:24Z</time></trkpt><trkpt lat="45.5193832889" lon="6.4871030487"><ele>466.38</ele><time>2014-09-06T12:38:59Z</time></trkpt><trkpt lat="45.5193726439" lon="6.4870765619"><ele>470.22</ele><time>2014-09-06T12:39:36Z</time></trkpt><trkpt lat="45.5194007233" lon="6.4871037193"><ele>474.55</ele><time>2014-09-06T12:40:19Z</time></trkpt><trkpt lat="45.5194011424" lon="6.4870828483"><ele>473.11</ele><time>2014-09-06T12:40:52Z</time></trkpt><trkpt lat="45.5193784274" lon="6.4871241711"><ele>471.66</ele><time>2014-09-06T12:41:17Z</time></trkpt><trkpt lat="45.5193766672" lon="6.4871368278"><ele>471.66</ele><time>2014-09-06T12:41:18Z</time></trkpt><trkpt lat="45.5193692073" lon="6.4871639851"><ele>472.14</ele><time>2014-09-06T12:41:20Z</time></trkpt><trkpt lat="45.5193733145" lon="6.4871836826"><ele>472.14</ele><time>2014-09-06T12:41:21Z</time></trkpt><trkpt lat="45.5193820316" lon="6.4872013684"><ele>472.14</ele><time>2014-09-06T12:41:22Z</time></trkpt><trkpt lat="45.5196277890" lon="6.4874112513"><ele>474.07</ele><time>2014-09-06T12:41:34Z</time></trkpt><trkpt lat="45.5199419428" lon="6.4875731058"><ele>477.43</ele><time>2014-09-06T12:41:48Z</time></trkpt><trkpt lat="45.5202711001" lon="6.4877564181"><ele>478.87</ele><time>2014-09-06T12:42:03Z</time></trkpt><trkpt lat="45.5205958150" lon="6.4879178535"><ele>481.28</ele><time>2014-09-06T12:42:17Z</time></trkpt><trkpt lat="45.5209254753" lon="6.4880895149"><ele>481.28</ele><time>2014-09-06T12:42:31Z</time></trkpt><trkpt lat="45.5213685427" lon="6.4882591646"><ele>482.24</ele><time>2014-09-06T12:42:50Z</time></trkpt><trkpt lat="45.5217089318" lon="6.4882249665"><ele>483.20</ele><time>2014-09-06T12:43:05Z</time></trkpt><trkpt lat="45.5221506581" lon="6.4881797042"><ele>483.68</ele><time>2014-09-06T12:43:23Z</time></trkpt><trkpt lat="45.5224969145" lon="6.4881318435"><ele>484.64</ele><time>2014-09-06T12:43:34Z</time></trkpt><trkpt lat="45.5229199491" lon="6.4880943764"><ele>485.60</ele><time>2014-09-06T12:43:48Z</time></trkpt><trkpt lat="45.5234481767" lon="6.4880402293"><ele>486.08</ele><time>2014-09-06T12:44:06Z</time></trkpt><trkpt lat="45.5237718020" lon="6.4880907722"><ele>487.53</ele><time>2014-09-06T12:44:17Z</time></trkpt><trkpt lat="45.5237867218" lon="6.4880840667"><ele>487.53</ele><time>2014-09-06T12:44:18Z</time></trkpt><trkpt lat="45.5237987917" lon="6.4880658779"><ele>488.01</ele><time>2014-09-06T12:44:19Z</time></trkpt><trkpt lat="45.5238060839" lon="6.4880498685"><ele>488.01</ele><time>2014-09-06T12:44:20Z</time></trkpt><trkpt lat="45.5238109455" lon="6.4880224597"><ele>487.05</ele><time>2014-09-06T12:44:34Z</time></trkpt><trkpt lat="45.5237975344" lon="6.4880754333"><ele>485.12</ele><time>2014-09-06T12:45:00Z</time></trkpt><trkpt lat="45.5237931758" lon="6.4881199412"><ele>488.97</ele><time>2014-09-06T12:45:28Z</time></trkpt><trkpt lat="45.5237932596" lon="6.4881111402"><ele>491.85</ele><time>2014-09-06T12:45:57Z</time></trkpt><trkpt lat="45.5237964448" lon="6.4880792052"><ele>495.22</ele><time>2014-09-06T12:46:23Z</time></trkpt><trkpt lat="45.5238019768" lon="6.4881129842"><ele>495.22</ele><time>2014-09-06T12:46:48Z</time></trkpt><trkpt lat="45.5237764120" lon="6.4881664608"><ele>498.10</ele><time>2014-09-06T12:47:23Z</time></trkpt><trkpt lat="45.5237901583" lon="6.4881515410"><ele>501.95</ele><time>2014-09-06T12:47:55Z</time></trkpt><trkpt lat="45.5237989593" lon="6.4881196897"><ele>499.06</ele><time>2014-09-06T12:48:22Z</time></trkpt><trkpt lat="45.5238023121" lon="6.4881589171"><ele>501.95</ele><time>2014-09-06T12:48:50Z</time></trkpt><trkpt lat="45.5238046590" lon="6.4881790336"><ele>509.16</ele><time>2014-09-06T12:49:19Z</time></trkpt><trkpt lat="45.5237746518" lon="6.4881222881"><ele>510.12</ele><time>2014-09-06T12:50:01Z</time></trkpt><trkpt lat="45.5238006357" lon="6.4882025868"><ele>516.85</ele><time>2014-09-06T12:50:29Z</time></trkpt><trkpt lat="45.5237918347" lon="6.4882169198"><ele>522.13</ele><time>2014-09-06T12:51:03Z</time></trkpt><trkpt lat="45.5237965286" lon="6.4881746750"><ele>515.88</ele><time>2014-09-06T12:51:39Z</time></trkpt><trkpt lat="45.5238106940" lon="6.4881359506"><ele>515.88</ele><time>2014-09-06T12:52:09Z</time></trkpt><trkpt lat="45.5237834528" lon="6.4881647006"><ele>514.92</ele><time>2014-09-06T12:52:37Z</time></trkpt><trkpt lat="45.5237785075" lon="6.4881218690"><ele>512.52</ele><time>2014-09-06T12:53:09Z</time></trkpt><trkpt lat="45.5237782560" lon="6.4881398901"><ele>502.91</ele><time>2014-09-06T12:53:39Z</time></trkpt><trkpt lat="45.5237520207" lon="6.4880921133"><ele>499.54</ele><time>2014-09-06T12:54:15Z</time></trkpt><trkpt lat="45.5237615760" lon="6.4880902693"><ele>496.18</ele><time>2014-09-06T12:54:40Z</time></trkpt><trkpt lat="45.5238084309" lon="6.4880682249"><ele>495.70</ele><time>2014-09-06T12:55:09Z</time></trkpt><trkpt lat="45.5238238536" lon="6.4880569093"><ele>497.14</ele><time>2014-09-06T12:55:41Z</time></trkpt><trkpt lat="45.5238132086" lon="6.4880797081"><ele>501.95</ele><time>2014-09-06T12:56:11Z</time></trkpt><trkpt lat="45.5238045752" lon="6.4881044347"><ele>499.06</ele><time>2014-09-06T12:56:36Z</time></trkpt><trkpt lat="45.5237973668" lon="6.4881573245"><ele>492.33</ele><time>2014-09-06T12:57:02Z</time></trkpt><trkpt lat="45.5238032341" lon="6.4881621860"><ele>494.26</ele><time>2014-09-06T12:57:27Z</time></trkpt><trkpt lat="45.5238437187" lon="6.4881937020"><ele>500.02</ele><time>2014-09-06T12:57:59Z</time></trkpt><trkpt lat="45.5238336604" lon="6.4881550614"><ele>498.10</ele><time>2014-09-06T12:58:24Z</time></trkpt><trkpt lat="45.5238025635" lon="6.4881073684"><ele>498.10</ele><time>2014-09-06T12:58:57Z</time></trkpt><trkpt lat="45.5238672718" lon="6.4880654588"><ele>504.83</ele><time>2014-09-06T12:59:29Z</time></trkpt><trkpt lat="45.5238482449" lon="6.4880405646"><ele>503.87</ele><time>2014-09-06T12:59:58Z</time></trkpt><trkpt lat="45.5238413718" lon="6.4880693983"><ele>504.83</ele><time>2014-09-06T13:00:25Z</time></trkpt><trkpt lat="45.5238325708" lon="6.4881276526"><ele>506.27</ele><time>2014-09-06T13:00:53Z</time></trkpt><trkpt lat="45.5238273740" lon="6.4881141577"><ele>503.39</ele><time>2014-09-06T13:01:16Z</time></trkpt><trkpt lat="45.5238576327" lon="6.4881502837"><ele>502.43</ele><time>2014-09-06T13:01:47Z</time></trkpt><trkpt lat="45.5238355044" lon="6.4881377108"><ele>502.43</ele><time>2014-09-06T13:02:17Z</time></trkpt><trkpt lat="45.5238573812" lon="6.4881313406"><ele>508.19</ele><time>2014-09-06T13:02:52Z</time></trkpt><trkpt lat="45.5238761567" lon="6.4880895149"><ele>505.31</ele><time>2014-09-06T13:03:20Z</time></trkpt><trkpt lat="45.5238763243" lon="6.4881007466"><ele>501.46</ele><time>2014-09-06T13:03:45Z</time></trkpt><trkpt lat="45.5238787550" lon="6.4881092124"><ele>500.98</ele><time>2014-09-06T13:04:21Z</time></trkpt><trkpt lat="45.5238215905" lon="6.4880722482"><ele>497.14</ele><time>2014-09-06T13:04:52Z</time></trkpt><trkpt lat="45.5238221772" lon="6.4880995732"><ele>497.14</ele><time>2014-09-06T13:05:22Z</time></trkpt><trkpt lat="45.5238159746" lon="6.4880970586"><ele>494.26</ele><time>2014-09-06T13:05:53Z</time></trkpt><trkpt lat="45.5238182377" lon="6.4880689792"><ele>490.41</ele><time>2014-09-06T13:06:21Z</time></trkpt><trkpt lat="45.5238254461" lon="6.4881157503"><ele>487.05</ele><time>2014-09-06T13:06:52Z</time></trkpt><trkpt lat="45.5238453951" lon="6.4881459251"><ele>483.20</ele><time>2014-09-06T13:07:17Z</time></trkpt><trkpt lat="45.5238247756" lon="6.4881558996"><ele>476.95</ele><time>2014-09-06T13:07:40Z</time></trkpt><trkpt lat="45.5238174833" lon="6.4881757647"><ele>474.55</ele><time>2014-09-06T13:08:09Z</time></trkpt><trkpt lat="45.5238381866" lon="6.4882253855"><ele>474.55</ele><time>2014-09-06T13:08:38Z</time></trkpt><trkpt lat="45.5238691159" lon="6.4880862460"><ele>474.07</ele><time>2014-09-06T13:09:03Z</time></trkpt><trkpt lat="45.5238632485" lon="6.4880931191"><ele>475.51</ele><time>2014-09-06T13:09:29Z</time></trkpt><trkpt lat="45.5238313973" lon="6.4880801272"><ele>481.28</ele><time>2014-09-06T13:09:59Z</time></trkpt><trkpt lat="45.5238102749" lon="6.4881157503"><ele>480.32</ele><time>2014-09-06T13:10:29Z</time></trkpt><trkpt lat="45.5238387734" lon="6.4881113917"><ele>485.12</ele><time>2014-09-06T13:10:52Z</time></trkpt><trkpt lat="45.5238551181" lon="6.4880979806"><ele>486.08</ele><time>2014-09-06T13:11:15Z</time></trkpt><trkpt lat="45.5238236859" lon="6.4880703203"><ele>488.49</ele><time>2014-09-06T13:11:45Z</time></trkpt><trkpt lat="45.5238232668" lon="6.4880958013"><ele>485.60</ele><time>2014-09-06T13:12:07Z</time></trkpt><trkpt lat="45.5238403659" lon="6.4880199451"><ele>482.24</ele><time>2014-09-06T13:12:32Z</time></trkpt><trkpt lat="45.5238619912" lon="6.4880115632"><ele>479.84</ele><time>2014-09-06T13:13:09Z</time></trkpt><trkpt lat="45.5238550343" lon="6.4880523831"><ele>484.16</ele><time>2014-09-06T13:13:25Z</time></trkpt><trkpt lat="45.5238525197" lon="6.4880670514"><ele>485.12</ele><time>2014-09-06T13:13:26Z</time></trkpt><trkpt lat="45.5238495022" lon="6.4880820550"><ele>485.60</ele><time>2014-09-06T13:13:27Z</time></trkpt><trkpt lat="45.5238531064" lon="6.4880947117"><ele>484.64</ele><time>2014-09-06T13:13:28Z</time></trkpt><trkpt lat="45.5238557048" lon="6.4881145768"><ele>485.12</ele><time>2014-09-06T13:13:29Z</time></trkpt><trkpt lat="45.5238635000" lon="6.4881346095"><ele>485.12</ele><time>2014-09-06T13:13:30Z</time></trkpt><trkpt lat="45.5238774139" lon="6.4881425723"><ele>485.12</ele><time>2014-09-06T13:13:31Z</time></trkpt><trkpt lat="45.5238930881" lon="6.4881325979"><ele>485.12</ele><time>2014-09-06T13:13:32Z</time></trkpt><trkpt lat="45.5238929205" lon="6.4881134033"><ele>484.64</ele><time>2014-09-06T13:13:33Z</time></trkpt><trkpt lat="45.5238816049" lon="6.4880890958"><ele>484.64</ele><time>2014-09-06T13:13:34Z</time></trkpt><trkpt lat="45.5238693673" lon="6.4880729187"><ele>484.64</ele><time>2014-09-06T13:13:35Z</time></trkpt><trkpt lat="45.5238557048" lon="6.4880621061"><ele>484.64</ele><time>2014-09-06T13:13:36Z</time></trkpt><trkpt lat="45.5238303915" lon="6.4880641177"><ele>484.64</ele><time>2014-09-06T13:13:38Z</time></trkpt><trkpt lat="45.5238190759" lon="6.4880747627"><ele>484.64</ele><time>2014-09-06T13:13:39Z</time></trkpt><trkpt lat="45.5238169804" lon="6.4880967233"><ele>484.64</ele><time>2014-09-06T13:13:40Z</time></trkpt><trkpt lat="45.5238272902" lon="6.4881173428"><ele>484.64</ele><time>2014-09-06T13:13:41Z</time></trkpt><trkpt lat="45.5238390248" lon="6.4881196059"><ele>484.64</ele><time>2014-09-06T13:13:42Z</time></trkpt><trkpt lat="45.5238601472" lon="6.4881236292"><ele>484.64</ele><time>2014-09-06T13:13:43Z</time></trkpt><trkpt lat="45.5241408572" lon="6.4881843142"><ele>486.08</ele><time>2014-09-06T13:13:56Z</time></trkpt><trkpt lat="45.5243870337" lon="6.4883788582"><ele>486.56</ele><time>2014-09-06T13:14:07Z</time></trkpt><trkpt lat="45.5246384908" lon="6.4887607377"><ele>486.08</ele><time>2014-09-06T13:14:19Z</time></trkpt><trkpt lat="45.5247588549" lon="6.4888877235"><ele>486.08</ele><time>2014-09-06T13:14:23Z</time></trkpt><trkpt lat="45.5248010159" lon="6.4888842031"><ele>485.60</ele><time>2014-09-06T13:14:24Z</time></trkpt><trkpt lat="45.5248749442" lon="6.4888564590"><ele>485.12</ele><time>2014-09-06T13:14:26Z</time></trkpt><trkpt lat="45.5249124113" lon="6.4888294693"><ele>484.64</ele><time>2014-09-06T13:14:27Z</time></trkpt><trkpt lat="45.5249377247" lon="6.4887986239"><ele>484.64</ele><time>2014-09-06T13:14:28Z</time></trkpt><trkpt lat="45.5249546561" lon="6.4887443930"><ele>484.64</ele><time>2014-09-06T13:14:29Z</time></trkpt><trkpt lat="45.5249569193" lon="6.4886713866"><ele>484.64</ele><time>2014-09-06T13:14:30Z</time></trkpt><trkpt lat="45.5249553267" lon="6.4886369370"><ele>484.64</ele><time>2014-09-06T13:14:31Z</time></trkpt><trkpt lat="45.5249476992" lon="6.4885748271"><ele>484.64</ele><time>2014-09-06T13:14:32Z</time></trkpt><trkpt lat="45.5249329470" lon="6.4885008149"><ele>484.16</ele><time>2014-09-06T13:14:33Z</time></trkpt><trkpt lat="45.5249165185" lon="6.4884199295"><ele>484.16</ele><time>2014-09-06T13:14:34Z</time></trkpt><trkpt lat="45.5249036942" lon="6.4883371163"><ele>483.68</ele><time>2014-09-06T13:14:35Z</time></trkpt><trkpt lat="45.5248935521" lon="6.4882533811"><ele>483.68</ele><time>2014-09-06T13:14:36Z</time></trkpt><trkpt lat="45.5248248205" lon="6.4877434261"><ele>481.28</ele><time>2014-09-06T13:14:42Z</time></trkpt><trkpt lat="45.5247522332" lon="6.4874539152"><ele>480.32</ele><time>2014-09-06T13:14:46Z</time></trkpt><trkpt lat="45.5247340444" lon="6.4873883687"><ele>479.84</ele><time>2014-09-06T13:14:47Z</time></trkpt><trkpt lat="45.5246721860" lon="6.4871013723"><ele>478.87</ele><time>2014-09-06T13:14:51Z</time></trkpt><trkpt lat="45.5246550031" lon="6.4869586285"><ele>478.39</ele><time>2014-09-06T13:14:53Z</time></trkpt><trkpt lat="45.5246383231" lon="6.4866972808"><ele>477.43</ele><time>2014-09-06T13:14:56Z</time></trkpt><trkpt lat="45.5246027838" lon="6.4862626791"><ele>475.03</ele><time>2014-09-06T13:15:01Z</time></trkpt><trkpt lat="45.5246288516" lon="6.4855929650"><ele>471.18</ele><time>2014-09-06T13:15:10Z</time></trkpt><trkpt lat="45.5247740261" lon="6.4851529989"><ele>468.78</ele><time>2014-09-06T13:15:16Z</time></trkpt><trkpt lat="45.5253770202" lon="6.4843267947"><ele>459.17</ele><time>2014-09-06T13:15:27Z</time></trkpt><trkpt lat="45.5260981992" lon="6.4834539033"><ele>450.03</ele><time>2014-09-06T13:15:38Z</time></trkpt><trkpt lat="45.5266916379" lon="6.4826012962"><ele>445.23</ele><time>2014-09-06T13:15:50Z</time></trkpt><trkpt lat="45.5267380737" lon="6.4825325646"><ele>444.75</ele><time>2014-09-06T13:15:51Z</time></trkpt><trkpt lat="45.5273478571" lon="6.4815423265"><ele>439.46</ele><time>2014-09-06T13:16:04Z</time></trkpt><trkpt lat="45.5273863301" lon="6.4814471919"><ele>438.98</ele><time>2014-09-06T13:16:05Z</time></trkpt><trkpt lat="45.5274127331" lon="6.4813538175"><ele>438.50</ele><time>2014-09-06T13:16:06Z</time></trkpt><trkpt lat="45.5274305027" lon="6.4812562522"><ele>438.50</ele><time>2014-09-06T13:16:07Z</time></trkpt><trkpt lat="45.5274380464" lon="6.4811586868"><ele>438.02</ele><time>2014-09-06T13:16:08Z</time></trkpt><trkpt lat="45.5274392199" lon="6.4810591098"><ele>438.02</ele><time>2014-09-06T13:16:09Z</time></trkpt><trkpt lat="45.5274366215" lon="6.4809669927"><ele>437.54</ele><time>2014-09-06T13:16:10Z</time></trkpt><trkpt lat="45.5274243839" lon="6.4808747079"><ele>437.54</ele><time>2014-09-06T13:16:11Z</time></trkpt><trkpt lat="45.5273978133" lon="6.4807838481"><ele>437.06</ele><time>2014-09-06T13:16:12Z</time></trkpt><trkpt lat="45.5271696579" lon="6.4801311493"><ele>435.61</ele><time>2014-09-06T13:16:19Z</time></trkpt><trkpt lat="45.5270538200" lon="6.4799730666"><ele>435.61</ele><time>2014-09-06T13:16:23Z</time></trkpt><trkpt lat="45.5270473659" lon="6.4799370244"><ele>435.61</ele><time>2014-09-06T13:16:24Z</time></trkpt><trkpt lat="45.5270616151" lon="6.4799013175"><ele>435.61</ele><time>2014-09-06T13:16:25Z</time></trkpt><trkpt lat="45.5270760320" lon="6.4798868168"><ele>435.61</ele><time>2014-09-06T13:16:26Z</time></trkpt><trkpt lat="45.5271039438" lon="6.4798616711"><ele>435.13</ele><time>2014-09-06T13:16:27Z</time></trkpt><trkpt lat="45.5271358788" lon="6.4798362739"><ele>435.13</ele><time>2014-09-06T13:16:28Z</time></trkpt><trkpt lat="45.5271683168" lon="6.4798102062"><ele>434.65</ele><time>2014-09-06T13:16:29Z</time></trkpt><trkpt lat="45.5272002518" lon="6.4797789417"><ele>434.65</ele><time>2014-09-06T13:16:30Z</time></trkpt><trkpt lat="45.5272331927" lon="6.4797428995"><ele>434.65</ele><time>2014-09-06T13:16:31Z</time></trkpt><trkpt lat="45.5277136434" lon="6.4792516362"><ele>435.13</ele><time>2014-09-06T13:16:46Z</time></trkpt><trkpt lat="45.5281747319" lon="6.4787413459"><ele>434.17</ele><time>2014-09-06T13:17:01Z</time></trkpt><trkpt lat="45.5283828545" lon="6.4785330556"><ele>435.13</ele><time>2014-09-06T13:17:07Z</time></trkpt><trkpt lat="45.5284166336" lon="6.4784955885"><ele>435.13</ele><time>2014-09-06T13:17:08Z</time></trkpt><trkpt lat="45.5289146025" lon="6.4779604878"><ele>434.65</ele><time>2014-09-06T13:17:23Z</time></trkpt><trkpt lat="45.5289513152" lon="6.4779299777"><ele>434.65</ele><time>2014-09-06T13:17:24Z</time></trkpt><trkpt lat="45.5289881956" lon="6.4778930973"><ele>434.65</ele><time>2014-09-06T13:17:25Z</time></trkpt><trkpt lat="45.5292021856" lon="6.4776905067"><ele>435.13</ele><time>2014-09-06T13:17:31Z</time></trkpt><trkpt lat="45.5292394850" lon="6.4776569791"><ele>435.13</ele><time>2014-09-06T13:17:32Z</time></trkpt><trkpt lat="45.5292706657" lon="6.4776193444"><ele>434.65</ele><time>2014-09-06T13:17:33Z</time></trkpt><trkpt lat="45.5299634300" lon="6.4769969881"><ele>434.17</ele><time>2014-09-06T13:17:52Z</time></trkpt><trkpt lat="45.5301386118" lon="6.4768169448"><ele>434.17</ele><time>2014-09-06T13:17:57Z</time></trkpt><trkpt lat="45.5302850436" lon="6.4766565990"><ele>433.69</ele><time>2014-09-06T13:18:01Z</time></trkpt><trkpt lat="45.5303196609" lon="6.4766104147"><ele>433.69</ele><time>2014-09-06T13:18:02Z</time></trkpt><trkpt lat="45.5304641649" lon="6.4764414355"><ele>433.69</ele><time>2014-09-06T13:18:06Z</time></trkpt><trkpt lat="45.5304975249" lon="6.4763995260"><ele>433.69</ele><time>2014-09-06T13:18:07Z</time></trkpt><trkpt lat="45.5305697769" lon="6.4763229154"><ele>433.69</ele><time>2014-09-06T13:18:09Z</time></trkpt><trkpt lat="45.5306131952" lon="6.4762778208"><ele>434.17</ele><time>2014-09-06T13:18:10Z</time></trkpt><trkpt lat="45.5306393467" lon="6.4762456343"><ele>434.17</ele><time>2014-09-06T13:18:11Z</time></trkpt><trkpt lat="45.5309723597" lon="6.4758802671"><ele>435.61</ele><time>2014-09-06T13:18:23Z</time></trkpt><trkpt lat="45.5312803108" lon="6.4755372796"><ele>437.54</ele><time>2014-09-06T13:18:37Z</time></trkpt><trkpt lat="45.5316054448" lon="6.4751331881"><ele>438.02</ele><time>2014-09-06T13:18:53Z</time></trkpt><trkpt lat="45.5319665372" lon="6.4747369755"><ele>438.50</ele><time>2014-09-06T13:19:07Z</time></trkpt><trkpt lat="45.5324238539" lon="6.4745763782"><ele>434.17</ele><time>2014-09-06T13:19:20Z</time></trkpt><trkpt lat="45.5329149496" lon="6.4745653141"><ele>434.65</ele><time>2014-09-06T13:19:35Z</time></trkpt><trkpt lat="45.5332704261" lon="6.4744864404"><ele>438.50</ele><time>2014-09-06T13:19:48Z</time></trkpt><trkpt lat="45.5336227175" lon="6.4743227419"><ele>437.54</ele><time>2014-09-06T13:20:01Z</time></trkpt><trkpt lat="45.5341956206" lon="6.4740871266"><ele>433.69</ele><time>2014-09-06T13:20:18Z</time></trkpt><trkpt lat="45.5347705353" lon="6.4735716395"><ele>427.44</ele><time>2014-09-06T13:20:32Z</time></trkpt><trkpt lat="45.5353946518" lon="6.4727515541"><ele>420.23</ele><time>2014-09-06T13:20:47Z</time></trkpt><trkpt lat="45.5361655354" lon="6.4716780838"><ele>411.10</ele><time>2014-09-06T13:21:02Z</time></trkpt><trkpt lat="45.5363493506" lon="6.4713774249"><ele>417.35</ele><time>2014-09-06T13:21:06Z</time></trkpt><trkpt lat="45.5365117919" lon="6.4711395465"><ele>425.52</ele><time>2014-09-06T13:21:10Z</time></trkpt><trkpt lat="45.5365853850" lon="6.4710372034"><ele>427.92</ele><time>2014-09-06T13:21:12Z</time></trkpt><trkpt lat="45.5366505962" lon="6.4709354471"><ele>429.37</ele><time>2014-09-06T13:21:14Z</time></trkpt><trkpt lat="45.5372579489" lon="6.4702980872"><ele>435.61</ele><time>2014-09-06T13:21:33Z</time></trkpt><trkpt lat="45.5373593699" lon="6.4702260029"><ele>436.10</ele><time>2014-09-06T13:21:36Z</time></trkpt><trkpt lat="45.5380795430" lon="6.4698924031"><ele>434.65</ele><time>2014-09-06T13:21:53Z</time></trkpt><trkpt lat="45.5382736679" lon="6.4698470570"><ele>434.65</ele><time>2014-09-06T13:21:57Z</time></trkpt><trkpt lat="45.5389365926" lon="6.4696440473"><ele>432.73</ele><time>2014-09-06T13:22:13Z</time></trkpt><trkpt lat="45.5389956012" lon="6.4696292952"><ele>432.73</ele><time>2014-09-06T13:22:23Z</time></trkpt><trkpt lat="45.5390178971" lon="6.4696371742"><ele>435.61</ele><time>2014-09-06T13:22:48Z</time></trkpt><trkpt lat="45.5389961880" lon="6.4696349949"><ele>435.61</ele><time>2014-09-06T13:23:15Z</time></trkpt><trkpt lat="45.5390024744" lon="6.4696121961"><ele>437.06</ele><time>2014-09-06T13:23:26Z</time></trkpt><trkpt lat="45.5390116945" lon="6.4695907384"><ele>437.06</ele><time>2014-09-06T13:23:27Z</time></trkpt><trkpt lat="45.5390259437" lon="6.4695638325"><ele>437.54</ele><time>2014-09-06T13:23:28Z</time></trkpt><trkpt lat="45.5390307214" lon="6.4695419557"><ele>437.54</ele><time>2014-09-06T13:23:29Z</time></trkpt><trkpt lat="45.5390322302" lon="6.4695065003"><ele>437.54</ele><time>2014-09-06T13:23:30Z</time></trkpt><trkpt lat="45.5390299670" lon="6.4694681950"><ele>437.54</ele><time>2014-09-06T13:23:31Z</time></trkpt><trkpt lat="45.5390251055" lon="6.4694254473"><ele>437.54</ele><time>2014-09-06T13:23:32Z</time></trkpt><trkpt lat="45.5390139576" lon="6.4693803526"><ele>437.06</ele><time>2014-09-06T13:23:33Z</time></trkpt><trkpt lat="45.5389958527" lon="6.4693339169"><ele>437.06</ele><time>2014-09-06T13:23:34Z</time></trkpt><trkpt lat="45.5389770772" lon="6.4692867268"><ele>437.06</ele><time>2014-09-06T13:23:35Z</time></trkpt><trkpt lat="45.5389606487" lon="6.4691810310"><ele>436.10</ele><time>2014-09-06T13:23:38Z</time></trkpt><trkpt lat="45.5390125327" lon="6.4691464137"><ele>435.61</ele><time>2014-09-06T13:23:40Z</time></trkpt><trkpt lat="45.5390483234" lon="6.4691279735"><ele>435.13</ele><time>2014-09-06T13:23:41Z</time></trkpt><trkpt lat="45.5392528418" lon="6.4690231998"><ele>433.21</ele><time>2014-09-06T13:23:48Z</time></trkpt><trkpt lat="45.5393328052" lon="6.4690051787"><ele>433.21</ele><time>2014-09-06T13:23:53Z</time></trkpt><trkpt lat="45.5393626448" lon="6.4689976349"><ele>433.69</ele><time>2014-09-06T13:23:55Z</time></trkpt><trkpt lat="45.5393967591" lon="6.4690028317"><ele>433.69</ele><time>2014-09-06T13:23:58Z</time></trkpt><trkpt lat="45.5393761396" lon="6.4689462539"><ele>434.65</ele><time>2014-09-06T13:24:03Z</time></trkpt><trkpt lat="45.5390094314" lon="6.4690813702"><ele>434.65</ele><time>2014-09-06T13:24:17Z</time></trkpt><trkpt lat="45.5388881452" lon="6.4690993074"><ele>435.13</ele><time>2014-09-06T13:24:22Z</time></trkpt><trkpt lat="45.5388690345" lon="6.4690817054"><ele>435.61</ele><time>2014-09-06T13:24:23Z</time></trkpt><trkpt lat="45.5388488341" lon="6.4690516144"><ele>435.61</ele><time>2014-09-06T13:24:24Z</time></trkpt><trkpt lat="45.5388039909" lon="6.4689166658"><ele>436.58</ele><time>2014-09-06T13:24:27Z</time></trkpt><trkpt lat="45.5387939326" lon="6.4688558970"><ele>436.58</ele><time>2014-09-06T13:24:28Z</time></trkpt><trkpt lat="45.5387403723" lon="6.4684826508"><ele>435.61</ele><time>2014-09-06T13:24:38Z</time></trkpt><trkpt lat="45.5387112033" lon="6.4682385698"><ele>434.65</ele><time>2014-09-06T13:24:42Z</time></trkpt><trkpt lat="45.5386801902" lon="6.4672903251"><ele>434.65</ele><time>2014-09-06T13:24:55Z</time></trkpt><trkpt lat="45.5386571400" lon="6.4668192621"><ele>436.10</ele><time>2014-09-06T13:25:07Z</time></trkpt><trkpt lat="45.5386678688" lon="6.4664059505"><ele>435.13</ele><time>2014-09-06T13:25:15Z</time></trkpt><trkpt lat="45.5386958644" lon="6.4663704112"><ele>435.13</ele><time>2014-09-06T13:25:16Z</time></trkpt><trkpt lat="45.5387385283" lon="6.4663388953"><ele>435.13</ele><time>2014-09-06T13:25:17Z</time></trkpt><trkpt lat="45.5387889873" lon="6.4663160965"><ele>435.13</ele><time>2014-09-06T13:25:18Z</time></trkpt><trkpt lat="45.5388439726" lon="6.4663054515"><ele>434.65</ele><time>2014-09-06T13:25:19Z</time></trkpt><trkpt lat="45.5388976168" lon="6.4663065411"><ele>434.65</ele><time>2014-09-06T13:25:20Z</time></trkpt><trkpt lat="45.5390097667" lon="6.4662932139"><ele>434.17</ele><time>2014-09-06T13:25:22Z</time></trkpt><trkpt lat="45.5390648358" lon="6.4662718400"><ele>434.17</ele><time>2014-09-06T13:25:23Z</time></trkpt><trkpt lat="45.5395244993" lon="6.4660543296"><ele>431.77</ele><time>2014-09-06T13:25:35Z</time></trkpt><trkpt lat="45.5401612725" lon="6.4659895375"><ele>434.17</ele><time>2014-09-06T13:25:52Z</time></trkpt><trkpt lat="45.5405760091" lon="6.4659609552"><ele>434.65</ele><time>2014-09-06T13:26:04Z</time></trkpt><trkpt lat="45.5408771709" lon="6.4660481270"><ele>436.10</ele><time>2014-09-06T13:26:16Z</time></trkpt><trkpt lat="45.5411302205" lon="6.4662248176"><ele>446.19</ele><time>2014-09-06T13:26:30Z</time></trkpt><trkpt lat="45.5413405225" lon="6.4662904479"><ele>451.96</ele><time>2014-09-06T13:26:42Z</time></trkpt><trkpt lat="45.5413661711" lon="6.4662906155"><ele>452.44</ele><time>2014-09-06T13:26:44Z</time></trkpt><trkpt lat="45.5413794145" lon="6.4662893582"><ele>452.44</ele><time>2014-09-06T13:26:45Z</time></trkpt><trkpt lat="45.5413950887" lon="6.4662887715"><ele>452.44</ele><time>2014-09-06T13:26:46Z</time></trkpt><trkpt lat="45.5414121877" lon="6.4662818145"><ele>452.44</ele><time>2014-09-06T13:26:47Z</time></trkpt><trkpt lat="45.5414306279" lon="6.4662739355"><ele>452.44</ele><time>2014-09-06T13:26:48Z</time></trkpt><trkpt lat="45.5414494872" lon="6.4662696607"><ele>452.44</ele><time>2014-09-06T13:26:49Z</time></trkpt><trkpt lat="45.5414670892" lon="6.4662691578"><ele>452.44</ele><time>2014-09-06T13:26:50Z</time></trkpt><trkpt lat="45.5414830148" lon="6.4662686549"><ele>452.44</ele><time>2014-09-06T13:26:51Z</time></trkpt><trkpt lat="45.5414960068" lon="6.4662647154"><ele>452.92</ele><time>2014-09-06T13:26:52Z</time></trkpt><trkpt lat="45.5415113457" lon="6.4662608597"><ele>453.40</ele><time>2014-09-06T13:26:53Z</time></trkpt><trkpt lat="45.5415275227" lon="6.4662622008"><ele>453.40</ele><time>2014-09-06T13:26:54Z</time></trkpt><trkpt lat="45.5415440351" lon="6.4662582614"><ele>453.88</ele><time>2014-09-06T13:26:55Z</time></trkpt><trkpt lat="45.5415603798" lon="6.4662512206"><ele>454.36</ele><time>2014-09-06T13:26:56Z</time></trkpt><trkpt lat="45.5415751319" lon="6.4662423357"><ele>454.84</ele><time>2014-09-06T13:26:57Z</time></trkpt><trkpt lat="45.5415913090" lon="6.4662350435"><ele>455.32</ele><time>2014-09-06T13:26:58Z</time></trkpt><trkpt lat="45.5416074861" lon="6.4662315231"><ele>455.32</ele><time>2014-09-06T13:26:59Z</time></trkpt><trkpt lat="45.5416243337" lon="6.4662266616"><ele>455.80</ele><time>2014-09-06T13:27:00Z</time></trkpt><trkpt lat="45.5416669138" lon="6.4661971573"><ele>456.76</ele><time>2014-09-06T13:27:03Z</time></trkpt><trkpt lat="45.5416804086" lon="6.4661826566"><ele>457.24</ele><time>2014-09-06T13:27:04Z</time></trkpt><trkpt lat="45.5416914728" lon="6.4661714248"><ele>458.21</ele><time>2014-09-06T13:27:05Z</time></trkpt><trkpt lat="45.5417045485" lon="6.4661596902"><ele>458.69</ele><time>2014-09-06T13:27:06Z</time></trkpt><trkpt lat="45.5417160317" lon="6.4661427587"><ele>459.65</ele><time>2014-09-06T13:27:07Z</time></trkpt><trkpt lat="45.5417283531" lon="6.4661294315"><ele>460.61</ele><time>2014-09-06T13:27:08Z</time></trkpt><trkpt lat="45.5417400878" lon="6.4661156014"><ele>461.57</ele><time>2014-09-06T13:27:09Z</time></trkpt><trkpt lat="45.5419643875" lon="6.4658565167"><ele>465.42</ele><time>2014-09-06T13:27:26Z</time></trkpt><trkpt lat="45.5420721788" lon="6.4657757152"><ele>463.49</ele><time>2014-09-06T13:27:34Z</time></trkpt><trkpt lat="45.5420890264" lon="6.4657676686"><ele>463.01</ele><time>2014-09-06T13:27:35Z</time></trkpt><trkpt lat="45.5421036109" lon="6.4657576941"><ele>462.53</ele><time>2014-09-06T13:27:36Z</time></trkpt><trkpt lat="45.5421186984" lon="6.4657473844"><ele>462.05</ele><time>2014-09-06T13:27:37Z</time></trkpt><trkpt lat="45.5421326961" lon="6.4657382481"><ele>461.57</ele><time>2014-09-06T13:27:38Z</time></trkpt><trkpt lat="45.5423716642" lon="6.4656455442"><ele>457.72</ele><time>2014-09-06T13:27:53Z</time></trkpt><trkpt lat="45.5425261427" lon="6.4655786566"><ele>451.96</ele><time>2014-09-06T13:28:07Z</time></trkpt><trkpt lat="45.5425016675" lon="6.4655218273"><ele>454.84</ele><time>2014-09-06T13:28:50Z</time></trkpt><trkpt lat="45.5426037591" lon="6.4655178878"><ele>455.80</ele><time>2014-09-06T13:29:12Z</time></trkpt><trkpt lat="45.5426623486" lon="6.4655105956"><ele>458.21</ele><time>2014-09-06T13:29:15Z</time></trkpt><trkpt lat="45.5429452378" lon="6.4654361643"><ele>463.01</ele><time>2014-09-06T13:29:31Z</time></trkpt><trkpt lat="45.5430245306" lon="6.4654152934"><ele>463.97</ele><time>2014-09-06T13:29:36Z</time></trkpt><trkpt lat="45.5430411268" lon="6.4654069114"><ele>463.97</ele><time>2014-09-06T13:29:37Z</time></trkpt><trkpt lat="45.5430572201" lon="6.4653973561"><ele>463.97</ele><time>2014-09-06T13:29:38Z</time></trkpt><trkpt lat="45.5430722237" lon="6.4653862081"><ele>463.97</ele><time>2014-09-06T13:29:39Z</time></trkpt><trkpt lat="45.5430895742" lon="6.4653795026"><ele>464.45</ele><time>2014-09-06T13:29:40Z</time></trkpt><trkpt lat="45.5431086011" lon="6.4653773233"><ele>464.45</ele><time>2014-09-06T13:29:41Z</time></trkpt><trkpt lat="45.5431291368" lon="6.4653717913"><ele>464.45</ele><time>2014-09-06T13:29:42Z</time></trkpt><trkpt lat="45.5431483313" lon="6.4653638285"><ele>464.45</ele><time>2014-09-06T13:29:43Z</time></trkpt><trkpt lat="45.5434100144" lon="6.4652828593"><ele>466.38</ele><time>2014-09-06T13:30:00Z</time></trkpt><trkpt lat="45.5434922408" lon="6.4652560372"><ele>466.38</ele><time>2014-09-06T13:30:05Z</time></trkpt><trkpt lat="45.5435092561" lon="6.4652451407"><ele>466.38</ele><time>2014-09-06T13:30:06Z</time></trkpt><trkpt lat="45.5435247626" lon="6.4652370103"><ele>466.38</ele><time>2014-09-06T13:30:07Z</time></trkpt><trkpt lat="45.5435388442" lon="6.4652341604"><ele>466.86</ele><time>2014-09-06T13:30:08Z</time></trkpt><trkpt lat="45.5435556080" lon="6.4652314782"><ele>466.38</ele><time>2014-09-06T13:30:09Z</time></trkpt><trkpt lat="45.5435705278" lon="6.4652283769"><ele>466.86</ele><time>2014-09-06T13:30:10Z</time></trkpt><trkpt lat="45.5435858667" lon="6.4652243536"><ele>466.86</ele><time>2014-09-06T13:30:11Z</time></trkpt><trkpt lat="45.5436003674" lon="6.4652150497"><ele>466.86</ele><time>2014-09-06T13:30:12Z</time></trkpt><trkpt lat="45.5436183885" lon="6.4652116969"><ele>466.38</ele><time>2014-09-06T13:30:13Z</time></trkpt><trkpt lat="45.5438507348" lon="6.4651262015"><ele>465.90</ele><time>2014-09-06T13:30:28Z</time></trkpt><trkpt lat="45.5440988392" lon="6.4651075937"><ele>468.78</ele><time>2014-09-06T13:30:45Z</time></trkpt><trkpt lat="45.5441164412" lon="6.4651099406"><ele>469.26</ele><time>2014-09-06T13:30:46Z</time></trkpt><trkpt lat="45.5441325344" lon="6.4651122876"><ele>469.74</ele><time>2014-09-06T13:30:47Z</time></trkpt><trkpt lat="45.5441461969" lon="6.4651126228"><ele>470.22</ele><time>2014-09-06T13:30:48Z</time></trkpt><trkpt lat="45.5441601109" lon="6.4651107788"><ele>470.70</ele><time>2014-09-06T13:30:49Z</time></trkpt><trkpt lat="45.5441746116" lon="6.4651102759"><ele>470.70</ele><time>2014-09-06T13:30:50Z</time></trkpt><trkpt lat="45.5441890284" lon="6.4651056658"><ele>471.18</ele><time>2014-09-06T13:30:51Z</time></trkpt><trkpt lat="45.5442030262" lon="6.4650997147"><ele>471.18</ele><time>2014-09-06T13:30:52Z</time></trkpt><trkpt lat="45.5444114003" lon="6.4650251996"><ele>471.18</ele><time>2014-09-06T13:31:06Z</time></trkpt><trkpt lat="45.5446514580" lon="6.4649480861"><ele>471.18</ele><time>2014-09-06T13:31:20Z</time></trkpt><trkpt lat="45.5448044278" lon="6.4648911729"><ele>471.66</ele><time>2014-09-06T13:31:25Z</time></trkpt><trkpt lat="45.5454680230" lon="6.4647974633"><ele>474.55</ele><time>2014-09-06T13:31:36Z</time></trkpt><trkpt lat="45.5464930460" lon="6.4650636725"><ele>470.22</ele><time>2014-09-06T13:31:51Z</time></trkpt><trkpt lat="45.5466821417" lon="6.4651266206"><ele>466.38</ele><time>2014-09-06T13:31:57Z</time></trkpt><trkpt lat="45.5466963910" lon="6.4651473239"><ele>465.42</ele><time>2014-09-06T13:31:58Z</time></trkpt><trkpt lat="45.5467057787" lon="6.4651721343"><ele>464.93</ele><time>2014-09-06T13:31:59Z</time></trkpt><trkpt lat="45.5466720834" lon="6.4652785007"><ele>461.57</ele><time>2014-09-06T13:32:07Z</time></trkpt><trkpt lat="45.5466489494" lon="6.4652503375"><ele>451.48</ele><time>2014-09-06T13:32:37Z</time></trkpt><trkpt lat="45.5466445908" lon="6.4653041493"><ele>456.76</ele><time>2014-09-06T13:33:05Z</time></trkpt><trkpt lat="45.5466414057" lon="6.4653468970"><ele>465.42</ele><time>2014-09-06T13:33:33Z</time></trkpt><trkpt lat="45.5466362927" lon="6.4652887266"><ele>467.82</ele><time>2014-09-06T13:33:53Z</time></trkpt><trkpt lat="45.5466367956" lon="6.4652942587"><ele>468.78</ele><time>2014-09-06T13:33:55Z</time></trkpt><trkpt lat="45.5466819741" lon="6.4652333222"><ele>470.70</ele><time>2014-09-06T13:34:02Z</time></trkpt><trkpt lat="45.5467457604" lon="6.4651860483"><ele>471.18</ele><time>2014-09-06T13:34:09Z</time></trkpt><trkpt lat="45.5467764381" lon="6.4651794266"><ele>470.70</ele><time>2014-09-06T13:34:11Z</time></trkpt><trkpt lat="45.5468017515" lon="6.4651732240"><ele>470.22</ele><time>2014-09-06T13:34:12Z</time></trkpt><trkpt lat="45.5468226224" lon="6.4651767444"><ele>470.22</ele><time>2014-09-06T13:34:13Z</time></trkpt><trkpt lat="45.5468544737" lon="6.4651900716"><ele>469.74</ele><time>2014-09-06T13:34:14Z</time></trkpt><trkpt lat="45.5468877498" lon="6.4652034827"><ele>469.26</ele><time>2014-09-06T13:34:15Z</time></trkpt><trkpt lat="45.5469641928" lon="6.4652294666"><ele>468.30</ele><time>2014-09-06T13:34:17Z</time></trkpt><trkpt lat="45.5472769216" lon="6.4654074144"><ele>464.93</ele><time>2014-09-06T13:34:24Z</time></trkpt><trkpt lat="45.5479729548" lon="6.4659832511"><ele>451.96</ele><time>2014-09-06T13:34:38Z</time></trkpt><trkpt lat="45.5489318445" lon="6.4667807054"><ele>435.61</ele><time>2014-09-06T13:34:51Z</time></trkpt><trkpt lat="45.5501720309" lon="6.4678551815"><ele>425.04</ele><time>2014-09-06T13:35:07Z</time></trkpt><trkpt lat="45.5505624600" lon="6.4680956583"><ele>423.12</ele><time>2014-09-06T13:35:13Z</time></trkpt><trkpt lat="45.5511171743" lon="6.4683181979"><ele>420.71</ele><time>2014-09-06T13:35:24Z</time></trkpt><trkpt lat="45.5512947030" lon="6.4683731832"><ele>420.23</ele><time>2014-09-06T13:35:28Z</time></trkpt><trkpt lat="45.5518577993" lon="6.4683955628"><ele>419.75</ele><time>2014-09-06T13:35:40Z</time></trkpt><trkpt lat="45.5525880307" lon="6.4680772182"><ele>418.31</ele><time>2014-09-06T13:35:56Z</time></trkpt><trkpt lat="45.5528923776" lon="6.4679234941"><ele>417.83</ele><time>2014-09-06T13:36:03Z</time></trkpt><trkpt lat="45.5531442538" lon="6.4677913114"><ele>417.83</ele><time>2014-09-06T13:36:09Z</time></trkpt><trkpt lat="45.5531877559" lon="6.4677716140"><ele>418.31</ele><time>2014-09-06T13:36:10Z</time></trkpt><trkpt lat="45.5539247766" lon="6.4673844539"><ele>417.83</ele><time>2014-09-06T13:36:28Z</time></trkpt><trkpt lat="45.5544378329" lon="6.4671213459"><ele>419.27</ele><time>2014-09-06T13:36:41Z</time></trkpt><trkpt lat="45.5545202270" lon="6.4671041630"><ele>419.27</ele><time>2014-09-06T13:36:43Z</time></trkpt><trkpt lat="45.5545610469" lon="6.4671156462"><ele>419.27</ele><time>2014-09-06T13:36:44Z</time></trkpt><trkpt lat="45.5546145234" lon="6.4671552926"><ele>420.23</ele><time>2014-09-06T13:36:45Z</time></trkpt><trkpt lat="45.5546438601" lon="6.4671983756"><ele>420.23</ele><time>2014-09-06T13:36:46Z</time></trkpt><trkpt lat="45.5546563491" lon="6.4672370162"><ele>420.71</ele><time>2014-09-06T13:36:47Z</time></trkpt><trkpt lat="45.5546725262" lon="6.4672935940"><ele>421.19</ele><time>2014-09-06T13:36:49Z</time></trkpt><trkpt lat="45.5548483785" lon="6.4679826703"><ele>424.56</ele><time>2014-09-06T13:37:05Z</time></trkpt><trkpt lat="45.5550456885" lon="6.4687192719"><ele>427.92</ele><time>2014-09-06T13:37:24Z</time></trkpt><trkpt lat="45.5551176053" lon="6.4689445775"><ele>428.40</ele><time>2014-09-06T13:37:37Z</time></trkpt><trkpt lat="45.5551035237" lon="6.4689397998"><ele>428.89</ele><time>2014-09-06T13:38:02Z</time></trkpt><trkpt lat="45.5551019311" lon="6.4689330105"><ele>426.48</ele><time>2014-09-06T13:38:31Z</time></trkpt><trkpt lat="45.5551762786" lon="6.4691634290"><ele>426.48</ele><time>2014-09-06T13:38:49Z</time></trkpt><trkpt lat="45.5552722514" lon="6.4692376088"><ele>426.00</ele><time>2014-09-06T13:38:52Z</time></trkpt><trkpt lat="45.5553129036" lon="6.4692480024"><ele>425.52</ele><time>2014-09-06T13:38:53Z</time></trkpt><trkpt lat="45.5553579144" lon="6.4692502655"><ele>425.04</ele><time>2014-09-06T13:38:54Z</time></trkpt><trkpt lat="45.5557923485" lon="6.4691998903"><ele>420.71</ele><time>2014-09-06T13:39:03Z</time></trkpt><trkpt lat="45.5558376107" lon="6.4692423027"><ele>420.23</ele><time>2014-09-06T13:39:04Z</time></trkpt><trkpt lat="45.5558609124" lon="6.4693128783"><ele>419.75</ele><time>2014-09-06T13:39:05Z</time></trkpt><trkpt lat="45.5558665283" lon="6.4693657681"><ele>419.75</ele><time>2014-09-06T13:39:06Z</time></trkpt><trkpt lat="45.5558663607" lon="6.4694507606"><ele>419.27</ele><time>2014-09-06T13:39:07Z</time></trkpt><trkpt lat="45.5558679532" lon="6.4695313945"><ele>418.31</ele><time>2014-09-06T13:39:08Z</time></trkpt><trkpt lat="45.5558827054" lon="6.4696009643"><ele>418.31</ele><time>2014-09-06T13:39:09Z</time></trkpt><trkpt lat="45.5559174903" lon="6.4696649183"><ele>417.83</ele><time>2014-09-06T13:39:10Z</time></trkpt><trkpt lat="45.5559616629" lon="6.4697105996"><ele>417.83</ele><time>2014-09-06T13:39:11Z</time></trkpt><trkpt lat="45.5560008064" lon="6.4697398525"><ele>417.35</ele><time>2014-09-06T13:39:12Z</time></trkpt><trkpt lat="45.5560396984" lon="6.4697658364"><ele>417.35</ele><time>2014-09-06T13:39:13Z</time></trkpt><trkpt lat="45.5560799316" lon="6.4697879646"><ele>417.35</ele><time>2014-09-06T13:39:14Z</time></trkpt><trkpt lat="45.5561190750" lon="6.4698085841"><ele>417.35</ele><time>2014-09-06T13:39:15Z</time></trkpt><trkpt lat="45.5561555363" lon="6.4698284492"><ele>417.35</ele><time>2014-09-06T13:39:16Z</time></trkpt><trkpt lat="45.5561899021" lon="6.4698468056"><ele>417.35</ele><time>2014-09-06T13:39:17Z</time></trkpt><trkpt lat="45.5562225077" lon="6.4698703587"><ele>417.35</ele><time>2014-09-06T13:39:18Z</time></trkpt><trkpt lat="45.5565441214" lon="6.4700424392"><ele>419.27</ele><time>2014-09-06T13:39:28Z</time></trkpt><trkpt lat="45.5570446048" lon="6.4702568483"><ele>419.27</ele><time>2014-09-06T13:39:43Z</time></trkpt><trkpt lat="45.5575804599" lon="6.4704670664"><ele>418.79</ele><time>2014-09-06T13:40:00Z</time></trkpt><trkpt lat="45.5580984615" lon="6.4706735965"><ele>421.19</ele><time>2014-09-06T13:40:16Z</time></trkpt><trkpt lat="45.5586210731" lon="6.4708848204"><ele>425.04</ele><time>2014-09-06T13:40:31Z</time></trkpt><trkpt lat="45.5589559302" lon="6.4708999917"><ele>428.89</ele><time>2014-09-06T13:40:44Z</time></trkpt><trkpt lat="45.5592867639" lon="6.4707646240"><ele>435.61</ele><time>2014-09-06T13:40:54Z</time></trkpt><trkpt lat="45.5595076270" lon="6.4707350358"><ele>436.10</ele><time>2014-09-06T13:41:00Z</time></trkpt><trkpt lat="45.5595510453" lon="6.4707267378"><ele>436.10</ele><time>2014-09-06T13:41:01Z</time></trkpt><trkpt lat="45.5600366089" lon="6.4706977364"><ele>427.92</ele><time>2014-09-06T13:41:13Z</time></trkpt><trkpt lat="45.5603065901" lon="6.4708101377"><ele>425.52</ele><time>2014-09-06T13:41:24Z</time></trkpt><trkpt lat="45.5606464762" lon="6.4709709026"><ele>426.00</ele><time>2014-09-06T13:41:37Z</time></trkpt><trkpt lat="45.5609525833" lon="6.4711460844"><ele>426.00</ele><time>2014-09-06T13:41:50Z</time></trkpt><trkpt lat="45.5612389930" lon="6.4711776003"><ele>422.64</ele><time>2014-09-06T13:41:59Z</time></trkpt><trkpt lat="45.5612739455" lon="6.4711776003"><ele>422.16</ele><time>2014-09-06T13:42:00Z</time></trkpt><trkpt lat="45.5613114126" lon="6.4711770136"><ele>422.16</ele><time>2014-09-06T13:42:01Z</time></trkpt><trkpt lat="45.5613436829" lon="6.4711716492"><ele>422.16</ele><time>2014-09-06T13:42:02Z</time></trkpt><trkpt lat="45.5613794737" lon="6.4711638540"><ele>421.68</ele><time>2014-09-06T13:42:03Z</time></trkpt><trkpt lat="45.5614154320" lon="6.4711565617"><ele>421.68</ele><time>2014-09-06T13:42:04Z</time></trkpt><trkpt lat="45.5614509713" lon="6.4711451624"><ele>421.68</ele><time>2014-09-06T13:42:05Z</time></trkpt><trkpt lat="45.5614855886" lon="6.4711338468"><ele>421.68</ele><time>2014-09-06T13:42:06Z</time></trkpt><trkpt lat="45.5615208764" lon="6.4711209387"><ele>421.68</ele><time>2014-09-06T13:42:07Z</time></trkpt><trkpt lat="45.5615570862" lon="6.4711114671"><ele>421.68</ele><time>2014-09-06T13:42:08Z</time></trkpt><trkpt lat="45.5615939666" lon="6.4711071923"><ele>421.68</ele><time>2014-09-06T13:42:09Z</time></trkpt><trkpt lat="45.5619865749" lon="6.4710615948"><ele>422.64</ele><time>2014-09-06T13:42:20Z</time></trkpt><trkpt lat="45.5624060053" lon="6.4711555559"><ele>424.08</ele><time>2014-09-06T13:42:35Z</time></trkpt><trkpt lat="45.5626818538" lon="6.4711990580"><ele>423.12</ele><time>2014-09-06T13:42:46Z</time></trkpt><trkpt lat="45.5631329678" lon="6.4712247066"><ele>423.60</ele><time>2014-09-06T13:42:58Z</time></trkpt><trkpt lat="45.5635492131" lon="6.4711623453"><ele>424.56</ele><time>2014-09-06T13:43:10Z</time></trkpt><trkpt lat="45.5640116427" lon="6.4711263031"><ele>423.12</ele><time>2014-09-06T13:43:22Z</time></trkpt><trkpt lat="45.5642316677" lon="6.4710883331"><ele>422.64</ele><time>2014-09-06T13:43:27Z</time></trkpt><trkpt lat="45.5648217537" lon="6.4710553922"><ele>422.16</ele><time>2014-09-06T13:43:43Z</time></trkpt><trkpt lat="45.5653198902" lon="6.4709481876"><ele>423.60</ele><time>2014-09-06T13:43:57Z</time></trkpt><trkpt lat="45.5656705890" lon="6.4708444197"><ele>426.00</ele><time>2014-09-06T13:44:09Z</time></trkpt><trkpt lat="45.5658953078" lon="6.4708015043"><ele>424.08</ele><time>2014-09-06T13:44:16Z</time></trkpt><trkpt lat="45.5661781132" lon="6.4707480278"><ele>421.19</ele><time>2014-09-06T13:44:21Z</time></trkpt><trkpt lat="45.5663543008" lon="6.4706618618"><ele>420.23</ele><time>2014-09-06T13:44:24Z</time></trkpt><trkpt lat="45.5668609869" lon="6.4703848399"><ele>419.27</ele><time>2014-09-06T13:44:36Z</time></trkpt><trkpt lat="45.5671616457" lon="6.4702312835"><ele>421.68</ele><time>2014-09-06T13:44:50Z</time></trkpt><trkpt lat="45.5673017073" lon="6.4700937364"><ele>423.60</ele><time>2014-09-06T13:44:59Z</time></trkpt><trkpt lat="45.5674594548" lon="6.4698841888"><ele>427.44</ele><time>2014-09-06T13:45:10Z</time></trkpt><trkpt lat="45.5674715247" lon="6.4698741306"><ele>427.44</ele><time>2014-09-06T13:45:11Z</time></trkpt><trkpt lat="45.5675884522" lon="6.4696747251"><ele>428.40</ele><time>2014-09-06T13:45:22Z</time></trkpt><trkpt lat="45.5677009374" lon="6.4693552908"><ele>426.96</ele><time>2014-09-06T13:45:39Z</time></trkpt><trkpt lat="45.5677966587" lon="6.4691651892"><ele>425.04</ele><time>2014-09-06T13:45:44Z</time></trkpt><trkpt lat="45.5678466149" lon="6.4690917637"><ele>424.08</ele><time>2014-09-06T13:45:45Z</time></trkpt><trkpt lat="45.5679005105" lon="6.4690360241"><ele>423.60</ele><time>2014-09-06T13:45:46Z</time></trkpt><trkpt lat="45.5679548252" lon="6.4689952880"><ele>423.12</ele><time>2014-09-06T13:45:47Z</time></trkpt><trkpt lat="45.5680210423" lon="6.4689532947"><ele>422.16</ele><time>2014-09-06T13:45:48Z</time></trkpt><trkpt lat="45.5687095318" lon="6.4684808068"><ele>417.83</ele><time>2014-09-06T13:45:58Z</time></trkpt><trkpt lat="45.5687567219" lon="6.4684345387"><ele>418.31</ele><time>2014-09-06T13:45:59Z</time></trkpt><trkpt lat="45.5688303150" lon="6.4683434274"><ele>418.31</ele><time>2014-09-06T13:46:01Z</time></trkpt><trkpt lat="45.5691074207" lon="6.4679850172"><ele>419.27</ele><time>2014-09-06T13:46:13Z</time></trkpt><trkpt lat="45.5693592969" lon="6.4676997811"><ele>419.27</ele><time>2014-09-06T13:46:26Z</time></trkpt><trkpt lat="45.5696108378" lon="6.4674444683"><ele>419.75</ele><time>2014-09-06T13:46:38Z</time></trkpt><trkpt lat="45.5698731076" lon="6.4671648480"><ele>419.75</ele><time>2014-09-06T13:46:49Z</time></trkpt><trkpt lat="45.5698750354" lon="6.4671317395"><ele>419.75</ele><time>2014-09-06T13:46:50Z</time></trkpt><trkpt lat="45.5698615406" lon="6.4671004750"><ele>419.75</ele><time>2014-09-06T13:46:51Z</time></trkpt><trkpt lat="45.5698386580" lon="6.4670792688"><ele>420.23</ele><time>2014-09-06T13:46:52Z</time></trkpt><trkpt lat="45.5698099080" lon="6.4670769218"><ele>419.75</ele><time>2014-09-06T13:46:53Z</time></trkpt><trkpt lat="45.5697775539" lon="6.4670798555"><ele>419.75</ele><time>2014-09-06T13:46:54Z</time></trkpt><trkpt lat="45.5697428528" lon="6.4670811966"><ele>419.27</ele><time>2014-09-06T13:46:55Z</time></trkpt><trkpt lat="45.5697104987" lon="6.4670701325"><ele>418.79</ele><time>2014-09-06T13:46:56Z</time></trkpt><trkpt lat="45.5696889572" lon="6.4670423884"><ele>418.31</ele><time>2014-09-06T13:46:57Z</time></trkpt><trkpt lat="45.5696788989" lon="6.4670007303"><ele>417.83</ele><time>2014-09-06T13:46:58Z</time></trkpt><trkpt lat="45.5696789827" lon="6.4669496845"><ele>417.83</ele><time>2014-09-06T13:46:59Z</time></trkpt><trkpt lat="45.5696910527" lon="6.4668865688"><ele>417.35</ele><time>2014-09-06T13:47:00Z</time></trkpt><trkpt lat="45.5697128456" lon="6.4668175858"><ele>416.87</ele><time>2014-09-06T13:47:01Z</time></trkpt><trkpt lat="45.5697387457" lon="6.4667528775"><ele>416.39</ele><time>2014-09-06T13:47:02Z</time></trkpt><trkpt lat="45.5697690882" lon="6.4666950423"><ele>415.91</ele><time>2014-09-06T13:47:03Z</time></trkpt><trkpt lat="45.5698043760" lon="6.4666398894"><ele>414.95</ele><time>2014-09-06T13:47:04Z</time></trkpt><trkpt lat="45.5700559169" lon="6.4662547410"><ele>408.70</ele><time>2014-09-06T13:47:12Z</time></trkpt><trkpt lat="45.5700801406" lon="6.4661973249"><ele>408.22</ele><time>2014-09-06T13:47:13Z</time></trkpt><trkpt lat="45.5700995866" lon="6.4661385678"><ele>407.26</ele><time>2014-09-06T13:47:14Z</time></trkpt><trkpt lat="45.5701145902" lon="6.4660793077"><ele>406.77</ele><time>2014-09-06T13:47:15Z</time></trkpt><trkpt lat="45.5701256543" lon="6.4660166111"><ele>406.29</ele><time>2014-09-06T13:47:16Z</time></trkpt><trkpt lat="45.5701325275" lon="6.4659530763"><ele>405.81</ele><time>2014-09-06T13:47:17Z</time></trkpt><trkpt lat="45.5701725930" lon="6.4655323047"><ele>405.81</ele><time>2014-09-06T13:47:26Z</time></trkpt><trkpt lat="45.5701884348" lon="6.4655150380"><ele>405.33</ele><time>2014-09-06T13:47:27Z</time></trkpt><trkpt lat="45.5704372935" lon="6.4653433766"><ele>405.81</ele><time>2014-09-06T13:47:37Z</time></trkpt><trkpt lat="45.5704692286" lon="6.4653644152"><ele>405.81</ele><time>2014-09-06T13:47:38Z</time></trkpt><trkpt lat="45.5704994034" lon="6.4653926622"><ele>406.29</ele><time>2014-09-06T13:47:39Z</time></trkpt><trkpt lat="45.5707034189" lon="6.4654133655"><ele>407.26</ele><time>2014-09-06T13:47:45Z</time></trkpt><trkpt lat="45.5708796903" lon="6.4653003775"><ele>406.77</ele><time>2014-09-06T13:47:49Z</time></trkpt><trkpt lat="45.5709265452" lon="6.4652664308"><ele>406.77</ele><time>2014-09-06T13:47:50Z</time></trkpt><trkpt lat="45.5709720589" lon="6.4652273711"><ele>406.29</ele><time>2014-09-06T13:47:51Z</time></trkpt><trkpt lat="45.5710153095" lon="6.4651831146"><ele>406.29</ele><time>2014-09-06T13:47:52Z</time></trkpt><trkpt lat="45.5710592307" lon="6.4651363436"><ele>406.29</ele><time>2014-09-06T13:47:53Z</time></trkpt><trkpt lat="45.5711066723" lon="6.4650932606"><ele>406.29</ele><time>2014-09-06T13:47:54Z</time></trkpt><trkpt lat="45.5712670181" lon="6.4649620838"><ele>404.85</ele><time>2014-09-06T13:47:57Z</time></trkpt><trkpt lat="45.5713230930" lon="6.4649251197"><ele>404.85</ele><time>2014-09-06T13:47:58Z</time></trkpt><trkpt lat="45.5713795032" lon="6.4648939390"><ele>404.37</ele><time>2014-09-06T13:47:59Z</time></trkpt><trkpt lat="45.5720956530" lon="6.4644968882"><ele>403.41</ele><time>2014-09-06T13:48:12Z</time></trkpt><trkpt lat="45.5728689674" lon="6.4640260767"><ele>402.93</ele><time>2014-09-06T13:48:25Z</time></trkpt><trkpt lat="45.5733157229" lon="6.4637154434"><ele>404.85</ele><time>2014-09-06T13:48:37Z</time></trkpt><trkpt lat="45.5736588780" lon="6.4634258486"><ele>408.70</ele><time>2014-09-06T13:48:54Z</time></trkpt><trkpt lat="45.5739498977" lon="6.4632269461"><ele>407.26</ele><time>2014-09-06T13:49:06Z</time></trkpt><trkpt lat="45.5743259937" lon="6.4629308134"><ele>407.26</ele><time>2014-09-06T13:49:20Z</time></trkpt><trkpt lat="45.5747667979" lon="6.4625497721"><ele>406.77</ele><time>2014-09-06T13:49:34Z</time></trkpt><trkpt lat="45.5752667785" lon="6.4620811399"><ele>405.81</ele><time>2014-09-06T13:49:48Z</time></trkpt><trkpt lat="45.5758222472" lon="6.4615581091"><ele>405.81</ele><time>2014-09-06T13:50:04Z</time></trkpt><trkpt lat="45.5758614745" lon="6.4615259226"><ele>405.81</ele><time>2014-09-06T13:50:05Z</time></trkpt><trkpt lat="45.5760913901" lon="6.4613068197"><ele>405.81</ele><time>2014-09-06T13:50:11Z</time></trkpt><trkpt lat="45.5761343054" lon="6.4612672571"><ele>405.81</ele><time>2014-09-06T13:50:12Z</time></trkpt><trkpt lat="45.5769804586" lon="6.4607416280"><ele>402.93</ele><time>2014-09-06T13:50:29Z</time></trkpt><trkpt lat="45.5771776848" lon="6.4606454037"><ele>401.49</ele><time>2014-09-06T13:50:32Z</time></trkpt><trkpt lat="45.5775881466" lon="6.4604900032"><ele>400.05</ele><time>2014-09-06T13:50:39Z</time></trkpt><trkpt lat="45.5783013627" lon="6.4602856524"><ele>399.57</ele><time>2014-09-06T13:50:53Z</time></trkpt><trkpt lat="45.5783989280" lon="6.4602611773"><ele>399.57</ele><time>2014-09-06T13:50:55Z</time></trkpt><trkpt lat="45.5787847470" lon="6.4601362869"><ele>399.57</ele><time>2014-09-06T13:51:03Z</time></trkpt><trkpt lat="45.5788341165" lon="6.4601236302"><ele>399.57</ele><time>2014-09-06T13:51:04Z</time></trkpt><trkpt lat="45.5796669424" lon="6.4598627854"><ele>398.60</ele><time>2014-09-06T13:51:21Z</time></trkpt><trkpt lat="45.5805027019" lon="6.4596125018"><ele>397.16</ele><time>2014-09-06T13:51:36Z</time></trkpt><trkpt lat="45.5808347929" lon="6.4595090691"><ele>396.20</ele><time>2014-09-06T13:51:42Z</time></trkpt><trkpt lat="45.5809433386" lon="6.4594686683"><ele>396.68</ele><time>2014-09-06T13:51:44Z</time></trkpt><trkpt lat="45.5812026747" lon="6.4593194705"><ele>396.68</ele><time>2014-09-06T13:51:49Z</time></trkpt><trkpt lat="45.5819451436" lon="6.4587684441"><ele>398.60</ele><time>2014-09-06T13:52:05Z</time></trkpt><trkpt lat="45.5820902344" lon="6.4587035682"><ele>398.60</ele><time>2014-09-06T13:52:08Z</time></trkpt><trkpt lat="45.5821389332" lon="6.4586807694"><ele>398.60</ele><time>2014-09-06T13:52:09Z</time></trkpt><trkpt lat="45.5822427012" lon="6.4586441405"><ele>399.08</ele><time>2014-09-06T13:52:11Z</time></trkpt><trkpt lat="45.5826814938" lon="6.4585424680"><ele>399.57</ele><time>2014-09-06T13:52:23Z</time></trkpt><trkpt lat="45.5830201227" lon="6.4583894983"><ele>401.01</ele><time>2014-09-06T13:52:38Z</time></trkpt><trkpt lat="45.5832355376" lon="6.4581638575"><ele>402.45</ele><time>2014-09-06T13:52:52Z</time></trkpt><trkpt lat="45.5834010802" lon="6.4579405636"><ele>405.33</ele><time>2014-09-06T13:53:04Z</time></trkpt><trkpt lat="45.5835590791" lon="6.4576219674"><ele>407.74</ele><time>2014-09-06T13:53:20Z</time></trkpt><trkpt lat="45.5837128032" lon="6.4572757948"><ele>408.22</ele><time>2014-09-06T13:53:36Z</time></trkpt><trkpt lat="45.5839060899" lon="6.4568903949"><ele>407.74</ele><time>2014-09-06T13:53:51Z</time></trkpt><trkpt lat="45.5842264462" lon="6.4564012270"><ele>409.18</ele><time>2014-09-06T13:54:07Z</time></trkpt><trkpt lat="45.5844323058" lon="6.4561609179"><ele>409.66</ele><time>2014-09-06T13:54:13Z</time></trkpt><trkpt lat="45.5844671745" lon="6.4561315812"><ele>409.66</ele><time>2014-09-06T13:54:14Z</time></trkpt><trkpt lat="45.5845212378" lon="6.4560874924"><ele>409.18</ele><time>2014-09-06T13:54:21Z</time></trkpt><trkpt lat="45.5845333915" lon="6.4560766798"><ele>409.18</ele><time>2014-09-06T13:54:22Z</time></trkpt><trkpt lat="45.5845514964" lon="6.4560636040"><ele>409.18</ele><time>2014-09-06T13:54:23Z</time></trkpt><trkpt lat="45.5848442763" lon="6.4557864144"><ele>411.58</ele><time>2014-09-06T13:54:35Z</time></trkpt><trkpt lat="45.5852517206" lon="6.4554760326"><ele>414.95</ele><time>2014-09-06T13:54:49Z</time></trkpt><trkpt lat="45.5853951350" lon="6.4552716818"><ele>414.95</ele><time>2014-09-06T13:54:57Z</time></trkpt><trkpt lat="45.5853995774" lon="6.4552293532"><ele>414.47</ele><time>2014-09-06T13:54:58Z</time></trkpt><trkpt lat="45.5854027625" lon="6.4551799837"><ele>414.47</ele><time>2014-09-06T13:54:59Z</time></trkpt><trkpt lat="45.5854085460" lon="6.4551218972"><ele>413.98</ele><time>2014-09-06T13:55:00Z</time></trkpt><trkpt lat="45.5854174308" lon="6.4550568536"><ele>413.50</ele><time>2014-09-06T13:55:01Z</time></trkpt><trkpt lat="45.5854300875" lon="6.4549882058"><ele>413.02</ele><time>2014-09-06T13:55:02Z</time></trkpt><trkpt lat="45.5854868330" lon="6.4547648281"><ele>411.10</ele><time>2014-09-06T13:55:05Z</time></trkpt><trkpt lat="45.5856074486" lon="6.4543628320"><ele>407.74</ele><time>2014-09-06T13:55:11Z</time></trkpt><trkpt lat="45.5856266432" lon="6.4542364329"><ele>406.77</ele><time>2014-09-06T13:55:13Z</time></trkpt><trkpt lat="45.5856286548" lon="6.4541709702"><ele>406.29</ele><time>2014-09-06T13:55:14Z</time></trkpt><trkpt lat="45.5856268946" lon="6.4541088603"><ele>405.81</ele><time>2014-09-06T13:55:15Z</time></trkpt><trkpt lat="45.5856315047" lon="6.4539396297"><ele>404.85</ele><time>2014-09-06T13:55:18Z</time></trkpt><trkpt lat="45.5856522918" lon="6.4538809564"><ele>404.37</ele><time>2014-09-06T13:55:19Z</time></trkpt><trkpt lat="45.5856841430" lon="6.4538268931"><ele>403.89</ele><time>2014-09-06T13:55:20Z</time></trkpt><trkpt lat="45.5857265554" lon="6.4537822176"><ele>403.41</ele><time>2014-09-06T13:55:21Z</time></trkpt><trkpt lat="45.5857754219" lon="6.4537438285"><ele>403.41</ele><time>2014-09-06T13:55:22Z</time></trkpt><trkpt lat="45.5862514302" lon="6.4534718357"><ele>401.97</ele><time>2014-09-06T13:55:31Z</time></trkpt><trkpt lat="45.5863023922" lon="6.4534594305"><ele>401.97</ele><time>2014-09-06T13:55:32Z</time></trkpt><trkpt lat="45.5864021368" lon="6.4534352068"><ele>401.97</ele><time>2014-09-06T13:55:34Z</time></trkpt><trkpt lat="45.5868480541" lon="6.4532740228"><ele>402.45</ele><time>2014-09-06T13:55:44Z</time></trkpt><trkpt lat="45.5876134057" lon="6.4530239906"><ele>403.89</ele><time>2014-09-06T13:56:03Z</time></trkpt><trkpt lat="45.5877444986" lon="6.4529713523"><ele>403.41</ele><time>2014-09-06T13:56:06Z</time></trkpt><trkpt lat="45.5884874705" lon="6.4526821766"><ele>402.45</ele><time>2014-09-06T13:56:23Z</time></trkpt><trkpt lat="45.5888222437" lon="6.4525670093"><ele>400.05</ele><time>2014-09-06T13:56:28Z</time></trkpt><trkpt lat="45.5888933223" lon="6.4525610581"><ele>399.57</ele><time>2014-09-06T13:56:29Z</time></trkpt><trkpt lat="45.5889627244" lon="6.4525631536"><ele>399.08</ele><time>2014-09-06T13:56:30Z</time></trkpt><trkpt lat="45.5890266784" lon="6.4525721222"><ele>399.08</ele><time>2014-09-06T13:56:31Z</time></trkpt><trkpt lat="45.5890886206" lon="6.4525832701"><ele>399.08</ele><time>2014-09-06T13:56:32Z</time></trkpt><trkpt lat="45.5891455337" lon="6.4525859524"><ele>398.60</ele><time>2014-09-06T13:56:33Z</time></trkpt><trkpt lat="45.5892014410" lon="6.4525762293"><ele>398.60</ele><time>2014-09-06T13:56:34Z</time></trkpt><trkpt lat="45.5892467033" lon="6.4525559451"><ele>398.60</ele><time>2014-09-06T13:56:35Z</time></trkpt><trkpt lat="45.5892862659" lon="6.4525295421"><ele>398.60</ele><time>2014-09-06T13:56:36Z</time></trkpt><trkpt lat="45.5893171951" lon="6.4525032230"><ele>398.60</ele><time>2014-09-06T13:56:37Z</time></trkpt><trkpt lat="45.5893502198" lon="6.4524823520"><ele>398.60</ele><time>2014-09-06T13:56:38Z</time></trkpt><trkpt lat="45.5893806461" lon="6.4524712879"><ele>398.12</ele><time>2014-09-06T13:56:39Z</time></trkpt><trkpt lat="45.5894022714" lon="6.4524664264"><ele>398.12</ele><time>2014-09-06T13:56:40Z</time></trkpt><trkpt lat="45.5894307699" lon="6.4524665102"><ele>398.12</ele><time>2014-09-06T13:56:41Z</time></trkpt><trkpt lat="45.5894624535" lon="6.4524740539"><ele>398.12</ele><time>2014-09-06T13:56:42Z</time></trkpt><trkpt lat="45.5894966517" lon="6.4524845313"><ele>397.64</ele><time>2014-09-06T13:56:43Z</time></trkpt><trkpt lat="45.5901512783" lon="6.4526067395"><ele>395.24</ele><time>2014-09-06T13:56:58Z</time></trkpt><trkpt lat="45.5902491789" lon="6.4526227489"><ele>395.24</ele><time>2014-09-06T13:57:00Z</time></trkpt><trkpt lat="45.5902967881" lon="6.4526361600"><ele>395.24</ele><time>2014-09-06T13:57:01Z</time></trkpt><trkpt lat="45.5903446488" lon="6.4526420273"><ele>395.72</ele><time>2014-09-06T13:57:02Z</time></trkpt><trkpt lat="45.5907911528" lon="6.4526721183"><ele>397.16</ele><time>2014-09-06T13:57:12Z</time></trkpt><trkpt lat="45.5908307992" lon="6.4526767284"><ele>397.16</ele><time>2014-09-06T13:57:13Z</time></trkpt><trkpt lat="45.5908697750" lon="6.4526810031"><ele>397.16</ele><time>2014-09-06T13:57:14Z</time></trkpt><trkpt lat="45.5909097567" lon="6.4526850265"><ele>397.64</ele><time>2014-09-06T13:57:15Z</time></trkpt><trkpt lat="45.5909458827" lon="6.4526862837"><ele>397.64</ele><time>2014-09-06T13:57:16Z</time></trkpt><trkpt lat="45.5913514830" lon="6.4526354056"><ele>399.57</ele><time>2014-09-06T13:57:30Z</time></trkpt><trkpt lat="45.5916778743" lon="6.4525922388"><ele>399.08</ele><time>2014-09-06T13:57:41Z</time></trkpt><trkpt lat="45.5920453370" lon="6.4523097686"><ele>397.16</ele><time>2014-09-06T13:57:52Z</time></trkpt><trkpt lat="45.5923527014" lon="6.4519160707"><ele>394.28</ele><time>2014-09-06T13:58:03Z</time></trkpt><trkpt lat="45.5925737321" lon="6.4512746874"><ele>391.87</ele><time>2014-09-06T13:58:16Z</time></trkpt><trkpt lat="45.5926885642" lon="6.4507783949"><ele>390.43</ele><time>2014-09-06T13:58:25Z</time></trkpt><trkpt lat="45.5927050766" lon="6.4507258404"><ele>390.43</ele><time>2014-09-06T13:58:26Z</time></trkpt><trkpt lat="45.5927900691" lon="6.4504086692"><ele>389.47</ele><time>2014-09-06T13:58:32Z</time></trkpt><trkpt lat="45.5928131193" lon="6.4503556117"><ele>388.99</ele><time>2014-09-06T13:58:33Z</time></trkpt><trkpt lat="45.5928322300" lon="6.4503082540"><ele>388.99</ele><time>2014-09-06T13:58:34Z</time></trkpt><trkpt lat="45.5929304659" lon="6.4500404522"><ele>388.51</ele><time>2014-09-06T13:58:39Z</time></trkpt><trkpt lat="45.5929533485" lon="6.4499163162"><ele>388.03</ele><time>2014-09-06T13:58:41Z</time></trkpt><trkpt lat="45.5929593835" lon="6.4498511888"><ele>388.03</ele><time>2014-09-06T13:58:42Z</time></trkpt><trkpt lat="45.5930778198" lon="6.4490608592"><ele>387.07</ele><time>2014-09-06T13:58:56Z</time></trkpt><trkpt lat="45.5933761317" lon="6.4484908897"><ele>386.59</ele><time>2014-09-06T13:59:10Z</time></trkpt><trkpt lat="45.5939336959" lon="6.4483481459"><ele>385.15</ele><time>2014-09-06T13:59:25Z</time></trkpt><trkpt lat="45.5943017453" lon="6.4483060688"><ele>387.07</ele><time>2014-09-06T13:59:39Z</time></trkpt><trkpt lat="45.5946239457" lon="6.4482303802"><ele>388.99</ele><time>2014-09-06T13:59:48Z</time></trkpt><trkpt lat="45.5953636486" lon="6.4480157197"><ele>388.51</ele><time>2014-09-06T14:00:03Z</time></trkpt><trkpt lat="45.5955029558" lon="6.4479705412"><ele>388.51</ele><time>2014-09-06T14:00:06Z</time></trkpt><trkpt lat="45.5955483019" lon="6.4479463175"><ele>388.51</ele><time>2014-09-06T14:00:07Z</time></trkpt><trkpt lat="45.5955907144" lon="6.4479142148"><ele>388.51</ele><time>2014-09-06T14:00:08Z</time></trkpt><trkpt lat="45.5956301931" lon="6.4478825312"><ele>388.51</ele><time>2014-09-06T14:00:09Z</time></trkpt><trkpt lat="45.5956719350" lon="6.4478548709"><ele>388.99</ele><time>2014-09-06T14:00:10Z</time></trkpt><trkpt lat="45.5957148504" lon="6.4478304796"><ele>388.99</ele><time>2014-09-06T14:00:11Z</time></trkpt><trkpt lat="45.5958016030" lon="6.4477904141"><ele>389.47</ele><time>2014-09-06T14:00:13Z</time></trkpt><trkpt lat="45.5958452728" lon="6.4477738179"><ele>389.47</ele><time>2014-09-06T14:00:14Z</time></trkpt><trkpt lat="45.5958914571" lon="6.4477578923"><ele>389.47</ele><time>2014-09-06T14:00:15Z</time></trkpt><trkpt lat="45.5959333666" lon="6.4477474988"><ele>389.47</ele><time>2014-09-06T14:00:16Z</time></trkpt><trkpt lat="45.5959803052" lon="6.4477394521"><ele>389.47</ele><time>2014-09-06T14:00:17Z</time></trkpt><trkpt lat="45.5960249808" lon="6.4477366861"><ele>389.47</ele><time>2014-09-06T14:00:18Z</time></trkpt><trkpt lat="45.5961580016" lon="6.4477465767"><ele>388.99</ele><time>2014-09-06T14:00:21Z</time></trkpt><trkpt lat="45.5962003302" lon="6.4477589820"><ele>388.99</ele><time>2014-09-06T14:00:22Z</time></trkpt><trkpt lat="45.5962415691" lon="6.4477679506"><ele>388.99</ele><time>2014-09-06T14:00:23Z</time></trkpt><trkpt lat="45.5963264778" lon="6.4477843791"><ele>388.99</ele><time>2014-09-06T14:00:25Z</time></trkpt><trkpt lat="45.5963675492" lon="6.4477949403"><ele>388.99</ele><time>2014-09-06T14:00:26Z</time></trkpt><trkpt lat="45.5969099421" lon="6.4479734749"><ele>388.03</ele><time>2014-09-06T14:00:40Z</time></trkpt><trkpt lat="45.5971805938" lon="6.4480515942"><ele>388.51</ele><time>2014-09-06T14:00:47Z</time></trkpt><trkpt lat="45.5980670638" lon="6.4483577851"><ele>386.11</ele><time>2014-09-06T14:01:07Z</time></trkpt><trkpt lat="45.5990373529" lon="6.4486449491"><ele>382.26</ele><time>2014-09-06T14:01:24Z</time></trkpt><trkpt lat="45.5997675844" lon="6.4488822408"><ele>382.26</ele><time>2014-09-06T14:01:38Z</time></trkpt><trkpt lat="45.5998181272" lon="6.4489187859"><ele>381.78</ele><time>2014-09-06T14:01:39Z</time></trkpt><trkpt lat="45.5999884475" lon="6.4490730129"><ele>381.78</ele><time>2014-09-06T14:01:43Z</time></trkpt><trkpt lat="45.6000588555" lon="6.4491533954"><ele>382.26</ele><time>2014-09-06T14:01:45Z</time></trkpt><trkpt lat="45.6000898685" lon="6.4491810557"><ele>382.26</ele><time>2014-09-06T14:01:46Z</time></trkpt><trkpt lat="45.6001202948" lon="6.4492036868"><ele>382.26</ele><time>2014-09-06T14:01:47Z</time></trkpt><trkpt lat="45.6001565047" lon="6.4492257312"><ele>382.26</ele><time>2014-09-06T14:01:48Z</time></trkpt><trkpt lat="45.6001928821" lon="6.4492463507"><ele>382.26</ele><time>2014-09-06T14:01:49Z</time></trkpt><trkpt lat="45.6002258230" lon="6.4492637850"><ele>382.26</ele><time>2014-09-06T14:01:50Z</time></trkpt><trkpt lat="45.6002646312" lon="6.4492794592"><ele>382.26</ele><time>2014-09-06T14:01:51Z</time></trkpt><trkpt lat="45.6006662920" lon="6.4494154975"><ele>383.70</ele><time>2014-09-06T14:02:01Z</time></trkpt><trkpt lat="45.6007071119" lon="6.4494222868"><ele>383.70</ele><time>2014-09-06T14:02:02Z</time></trkpt><trkpt lat="45.6008377019" lon="6.4494321775"><ele>383.70</ele><time>2014-09-06T14:02:05Z</time></trkpt><trkpt lat="45.6008822098" lon="6.4494185988"><ele>383.70</ele><time>2014-09-06T14:02:06Z</time></trkpt><trkpt lat="45.6009274721" lon="6.4493999910"><ele>383.70</ele><time>2014-09-06T14:02:07Z</time></trkpt><trkpt lat="45.6011117902" lon="6.4493231289"><ele>382.74</ele><time>2014-09-06T14:02:11Z</time></trkpt><trkpt lat="45.6011621654" lon="6.4493154176"><ele>382.74</ele><time>2014-09-06T14:02:12Z</time></trkpt><trkpt lat="45.6012149714" lon="6.4493152499"><ele>382.26</ele><time>2014-09-06T14:02:13Z</time></trkpt><trkpt lat="45.6012702081" lon="6.4493192732"><ele>381.78</ele><time>2014-09-06T14:02:14Z</time></trkpt><trkpt lat="45.6013249420" lon="6.4493314270"><ele>381.78</ele><time>2014-09-06T14:02:15Z</time></trkpt><trkpt lat="45.6013794243" lon="6.4493474364"><ele>381.30</ele><time>2014-09-06T14:02:16Z</time></trkpt><trkpt lat="45.6014816836" lon="6.4493770245"><ele>380.82</ele><time>2014-09-06T14:02:18Z</time></trkpt><trkpt lat="45.6015307177" lon="6.4493950456"><ele>380.82</ele><time>2014-09-06T14:02:19Z</time></trkpt><trkpt lat="45.6016201526" lon="6.4494232088"><ele>380.34</ele><time>2014-09-06T14:02:21Z</time></trkpt><trkpt lat="45.6016622297" lon="6.4494341891"><ele>380.34</ele><time>2014-09-06T14:02:22Z</time></trkpt><trkpt lat="45.6022373121" lon="6.4496226143"><ele>379.86</ele><time>2014-09-06T14:02:36Z</time></trkpt><trkpt lat="45.6024010107" lon="6.4496669546"><ele>379.86</ele><time>2014-09-06T14:02:40Z</time></trkpt><trkpt lat="45.6024414953" lon="6.4496840537"><ele>379.86</ele><time>2014-09-06T14:02:41Z</time></trkpt><trkpt lat="45.6031324156" lon="6.4499146398"><ele>379.38</ele><time>2014-09-06T14:02:59Z</time></trkpt><trkpt lat="45.6032736506" lon="6.4500679448"><ele>379.86</ele><time>2014-09-06T14:03:08Z</time></trkpt><trkpt lat="45.6032716390" lon="6.4500810206"><ele>381.30</ele><time>2014-09-06T14:03:31Z</time></trkpt><trkpt lat="45.6032622512" lon="6.4500864688"><ele>379.38</ele><time>2014-09-06T14:04:07Z</time></trkpt><trkpt lat="45.6032604072" lon="6.4500809368"><ele>380.34</ele><time>2014-09-06T14:04:38Z</time></trkpt><trkpt lat="45.6032509357" lon="6.4500842057"><ele>380.34</ele><time>2014-09-06T14:05:12Z</time></trkpt><trkpt lat="45.6032514386" lon="6.4500939287"><ele>380.34</ele><time>2014-09-06T14:05:42Z</time></trkpt><trkpt lat="45.6032615807" lon="6.4501008857"><ele>380.34</ele><time>2014-09-06T14:06:10Z</time></trkpt><trkpt lat="45.6032595690" lon="6.4500973653"><ele>379.86</ele><time>2014-09-06T14:06:45Z</time></trkpt><trkpt lat="45.6032682024" lon="6.4500894025"><ele>379.38</ele><time>2014-09-06T14:07:09Z</time></trkpt><trkpt lat="45.6032692920" lon="6.4500780869"><ele>379.38</ele><time>2014-09-06T14:07:36Z</time></trkpt><trkpt lat="45.6032726448" lon="6.4500780869"><ele>378.42</ele><time>2014-09-06T14:08:05Z</time></trkpt><trkpt lat="45.6032721419" lon="6.4500758238"><ele>377.45</ele><time>2014-09-06T14:08:30Z</time></trkpt><trkpt lat="45.6032735668" lon="6.4500709623"><ele>376.49</ele><time>2014-09-06T14:08:59Z</time></trkpt><trkpt lat="45.6032607425" lon="6.4500748180"><ele>376.49</ele><time>2014-09-06T14:09:29Z</time></trkpt><trkpt lat="45.6032666937" lon="6.4500793442"><ele>375.53</ele><time>2014-09-06T14:10:03Z</time></trkpt><trkpt lat="45.6032642629" lon="6.4500901569"><ele>375.53</ele><time>2014-09-06T14:10:32Z</time></trkpt><trkpt lat="45.6032699626" lon="6.4500825293"><ele>375.53</ele><time>2014-09-06T14:10:59Z</time></trkpt><trkpt lat="45.6032669451" lon="6.4500665199"><ele>375.53</ele><time>2014-09-06T14:11:33Z</time></trkpt><trkpt lat="45.6032648496" lon="6.4500747342"><ele>376.01</ele><time>2014-09-06T14:12:05Z</time></trkpt><trkpt lat="45.6032757461" lon="6.4500787575"><ele>376.97</ele><time>2014-09-06T14:12:36Z</time></trkpt><trkpt lat="45.6032720581" lon="6.4500653464"><ele>377.94</ele><time>2014-09-06T14:12:52Z</time></trkpt><trkpt lat="45.6032876484" lon="6.4500689507"><ele>378.42</ele><time>2014-09-06T14:12:56Z</time></trkpt><trkpt lat="45.6032982934" lon="6.4500709623"><ele>378.42</ele><time>2014-09-06T14:12:57Z</time></trkpt><trkpt lat="45.6033112854" lon="6.4500693697"><ele>378.90</ele><time>2014-09-06T14:12:58Z</time></trkpt><trkpt lat="45.6036872976" lon="6.4500682801"><ele>378.42</ele><time>2014-09-06T14:13:11Z</time></trkpt><trkpt lat="45.6041647308" lon="6.4502116945"><ele>377.94</ele><time>2014-09-06T14:13:25Z</time></trkpt><trkpt lat="45.6047950499" lon="6.4504120219"><ele>377.94</ele><time>2014-09-06T14:13:43Z</time></trkpt><trkpt lat="45.6052754167" lon="6.4505469706"><ele>378.42</ele><time>2014-09-06T14:13:56Z</time></trkpt><trkpt lat="45.6058544386" lon="6.4507337194"><ele>377.45</ele><time>2014-09-06T14:14:10Z</time></trkpt><trkpt lat="45.6058973540" lon="6.4507463761"><ele>377.94</ele><time>2014-09-06T14:14:11Z</time></trkpt><trkpt lat="45.6065407488" lon="6.4509393275"><ele>376.97</ele><time>2014-09-06T14:14:27Z</time></trkpt><trkpt lat="45.6073029153" lon="6.4511763677"><ele>376.49</ele><time>2014-09-06T14:14:46Z</time></trkpt><trkpt lat="45.6078142114" lon="6.4513668045"><ele>378.42</ele><time>2014-09-06T14:15:01Z</time></trkpt><trkpt lat="45.6082357373" lon="6.4515539724"><ele>381.78</ele><time>2014-09-06T14:15:17Z</time></trkpt><trkpt lat="45.6085863523" lon="6.4517035894"><ele>383.22</ele><time>2014-09-06T14:15:31Z</time></trkpt><trkpt lat="45.6090369634" lon="6.4518009871"><ele>384.66</ele><time>2014-09-06T14:15:47Z</time></trkpt><trkpt lat="45.6094975490" lon="6.4517329261"><ele>384.18</ele><time>2014-09-06T14:16:01Z</time></trkpt><trkpt lat="45.6098303106" lon="6.4517385419"><ele>383.22</ele><time>2014-09-06T14:16:09Z</time></trkpt><trkpt lat="45.6106873602" lon="6.4520000573"><ele>377.94</ele><time>2014-09-06T14:16:24Z</time></trkpt><trkpt lat="45.6114028394" lon="6.4522310626"><ele>376.49</ele><time>2014-09-06T14:16:37Z</time></trkpt><trkpt lat="45.6118179951" lon="6.4523377642"><ele>376.97</ele><time>2014-09-06T14:16:47Z</time></trkpt><trkpt lat="45.6123155449" lon="6.4524990320"><ele>377.45</ele><time>2014-09-06T14:16:59Z</time></trkpt><trkpt lat="45.6129900366" lon="6.4527074061"><ele>377.94</ele><time>2014-09-06T14:17:17Z</time></trkpt><trkpt lat="45.6130278390" lon="6.4527012873"><ele>377.94</ele><time>2014-09-06T14:17:18Z</time></trkpt><trkpt lat="45.6130583491" lon="6.4526752196"><ele>377.94</ele><time>2014-09-06T14:17:19Z</time></trkpt><trkpt lat="45.6130797230" lon="6.4526352379"><ele>378.42</ele><time>2014-09-06T14:17:20Z</time></trkpt><trkpt lat="45.6130955648" lon="6.4526014589"><ele>378.42</ele><time>2014-09-06T14:17:21Z</time></trkpt><trkpt lat="45.6131090596" lon="6.4525638241"><ele>377.94</ele><time>2014-09-06T14:17:22Z</time></trkpt><trkpt lat="45.6131262425" lon="6.4525256865"><ele>377.94</ele><time>2014-09-06T14:17:23Z</time></trkpt><trkpt lat="45.6131513882" lon="6.4524946734"><ele>377.94</ele><time>2014-09-06T14:17:24Z</time></trkpt><trkpt lat="45.6131815631" lon="6.4524689410"><ele>377.94</ele><time>2014-09-06T14:17:25Z</time></trkpt><trkpt lat="45.6132120732" lon="6.4524522610"><ele>377.94</ele><time>2014-09-06T14:17:26Z</time></trkpt><trkpt lat="45.6132458523" lon="6.4524474833"><ele>377.94</ele><time>2014-09-06T14:17:27Z</time></trkpt><trkpt lat="45.6132818107" lon="6.4524540212"><ele>377.94</ele><time>2014-09-06T14:17:28Z</time></trkpt><trkpt lat="45.6133139133" lon="6.4524613135"><ele>377.45</ele><time>2014-09-06T14:17:29Z</time></trkpt><trkpt lat="45.6133483630" lon="6.4524676837"><ele>377.45</ele><time>2014-09-06T14:17:30Z</time></trkpt><trkpt lat="45.6137326732" lon="6.4523112774"><ele>376.97</ele><time>2014-09-06T14:17:42Z</time></trkpt><trkpt lat="45.6137693860" lon="6.4522796776"><ele>376.97</ele><time>2014-09-06T14:17:43Z</time></trkpt><trkpt lat="45.6142097712" lon="6.4519100357"><ele>376.01</ele><time>2014-09-06T14:17:55Z</time></trkpt><trkpt lat="45.6145340670" lon="6.4515672158"><ele>377.94</ele><time>2014-09-06T14:18:10Z</time></trkpt><trkpt lat="45.6147716939" lon="6.4513496216"><ele>378.42</ele><time>2014-09-06T14:18:21Z</time></trkpt><trkpt lat="45.6148008630" lon="6.4513165131"><ele>378.42</ele><time>2014-09-06T14:18:23Z</time></trkpt><trkpt lat="45.6147952471" lon="6.4512954745"><ele>379.38</ele><time>2014-09-06T14:18:37Z</time></trkpt><trkpt lat="45.6148096640" lon="6.4512932952"><ele>380.34</ele><time>2014-09-06T14:19:19Z</time></trkpt><trkpt lat="45.6148006115" lon="6.4513210393"><ele>381.78</ele><time>2014-09-06T14:19:55Z</time></trkpt><trkpt lat="45.6148183811" lon="6.4513108134"><ele>381.78</ele><time>2014-09-06T14:19:59Z</time></trkpt><trkpt lat="45.6148301996" lon="6.4513020124"><ele>381.78</ele><time>2014-09-06T14:20:00Z</time></trkpt><trkpt lat="45.6148446165" lon="6.4512892719"><ele>381.78</ele><time>2014-09-06T14:20:01Z</time></trkpt><trkpt lat="45.6148642302" lon="6.4512766991"><ele>381.78</ele><time>2014-09-06T14:20:02Z</time></trkpt><trkpt lat="45.6148882862" lon="6.4512669761"><ele>381.30</ele><time>2014-09-06T14:20:03Z</time></trkpt><trkpt lat="45.6149137672" lon="6.4512543194"><ele>381.30</ele><time>2014-09-06T14:20:04Z</time></trkpt><trkpt lat="45.6149389129" lon="6.4512362983"><ele>381.30</ele><time>2014-09-06T14:20:05Z</time></trkpt><trkpt lat="45.6149626337" lon="6.4512118232"><ele>381.30</ele><time>2014-09-06T14:20:06Z</time></trkpt><trkpt lat="45.6149861030" lon="6.4511875156"><ele>381.30</ele><time>2014-09-06T14:20:07Z</time></trkpt><trkpt lat="45.6150106620" lon="6.4511632081"><ele>381.30</ele><time>2014-09-06T14:20:08Z</time></trkpt><trkpt lat="45.6150358077" lon="6.4511396550"><ele>381.78</ele><time>2014-09-06T14:20:09Z</time></trkpt><trkpt lat="45.6150644738" lon="6.4511156827"><ele>381.78</ele><time>2014-09-06T14:20:10Z</time></trkpt><trkpt lat="45.6154475268" lon="6.4507977571"><ele>381.78</ele><time>2014-09-06T14:20:24Z</time></trkpt><trkpt lat="45.6159335095" lon="6.4504405204"><ele>382.74</ele><time>2014-09-06T14:20:41Z</time></trkpt><trkpt lat="45.6160636805" lon="6.4504043944"><ele>385.15</ele><time>2014-09-06T14:20:47Z</time></trkpt><trkpt lat="45.6162330788" lon="6.4507553447"><ele>385.15</ele><time>2014-09-06T14:20:58Z</time></trkpt><trkpt lat="45.6163027324" lon="6.4511870965"><ele>387.07</ele><time>2014-09-06T14:21:13Z</time></trkpt><trkpt lat="45.6163092703" lon="6.4516061917"><ele>388.51</ele><time>2014-09-06T14:21:26Z</time></trkpt><trkpt lat="45.6163217593" lon="6.4516328461"><ele>388.51</ele><time>2014-09-06T14:21:27Z</time></trkpt><trkpt lat="45.6163362600" lon="6.4516552258"><ele>388.03</ele><time>2014-09-06T14:21:28Z</time></trkpt><trkpt lat="45.6163469050" lon="6.4516816288"><ele>388.03</ele><time>2014-09-06T14:21:29Z</time></trkpt><trkpt lat="45.6164576299" lon="6.4518729039"><ele>389.47</ele><time>2014-09-06T14:21:40Z</time></trkpt><trkpt lat="45.6164852064" lon="6.4518725686"><ele>389.47</ele><time>2014-09-06T14:21:41Z</time></trkpt><trkpt lat="45.6165068317" lon="6.4518604148"><ele>389.47</ele><time>2014-09-06T14:21:42Z</time></trkpt><trkpt lat="45.6165331509" lon="6.4518448245"><ele>389.47</ele><time>2014-09-06T14:21:43Z</time></trkpt><trkpt lat="45.6165623199" lon="6.4518312458"><ele>389.47</ele><time>2014-09-06T14:21:44Z</time></trkpt><trkpt lat="45.6170529965" lon="6.4515896793"><ele>391.39</ele><time>2014-09-06T14:22:02Z</time></trkpt><trkpt lat="45.6173715927" lon="6.4514414035"><ele>392.36</ele><time>2014-09-06T14:22:13Z</time></trkpt><trkpt lat="45.6176983193" lon="6.4512760285"><ele>393.32</ele><time>2014-09-06T14:22:26Z</time></trkpt><trkpt lat="45.6177435815" lon="6.4512432553"><ele>392.84</ele><time>2014-09-06T14:22:30Z</time></trkpt><trkpt lat="45.6177530531" lon="6.4512193669"><ele>392.84</ele><time>2014-09-06T14:22:31Z</time></trkpt><trkpt lat="45.6177638657" lon="6.4512040280"><ele>392.84</ele><time>2014-09-06T14:22:32Z</time></trkpt><trkpt lat="45.6177787017" lon="6.4511906169"><ele>392.36</ele><time>2014-09-06T14:22:33Z</time></trkpt><trkpt lat="45.6177906878" lon="6.4511812292"><ele>391.87</ele><time>2014-09-06T14:22:34Z</time></trkpt><trkpt lat="45.6178018358" lon="6.4511757810"><ele>391.87</ele><time>2014-09-06T14:22:35Z</time></trkpt><trkpt lat="45.6178158335" lon="6.4511843305"><ele>391.87</ele><time>2014-09-06T14:22:36Z</time></trkpt><trkpt lat="45.6178356986" lon="6.4511956461"><ele>391.87</ele><time>2014-09-06T14:22:37Z</time></trkpt><trkpt lat="45.6178600062" lon="6.4511972386"><ele>391.87</ele><time>2014-09-06T14:22:38Z</time></trkpt><trkpt lat="45.6178869121" lon="6.4511916228"><ele>391.87</ele><time>2014-09-06T14:22:39Z</time></trkpt><trkpt lat="45.6179170869" lon="6.4511772059"><ele>391.87</ele><time>2014-09-06T14:22:40Z</time></trkpt><trkpt lat="45.6181865651" lon="6.4510792214"><ele>391.39</ele><time>2014-09-06T14:22:47Z</time></trkpt><trkpt lat="45.6190779805" lon="6.4506871998"><ele>388.03</ele><time>2014-09-06T14:23:02Z</time></trkpt><trkpt lat="45.6202800293" lon="6.4501736406"><ele>380.34</ele><time>2014-09-06T14:23:19Z</time></trkpt><trkpt lat="45.6209157966" lon="6.4499233570"><ele>376.97</ele><time>2014-09-06T14:23:31Z</time></trkpt><trkpt lat="45.6209559459" lon="6.4499332476"><ele>376.49</ele><time>2014-09-06T14:23:32Z</time></trkpt><trkpt lat="45.6210697722" lon="6.4499207586"><ele>376.01</ele><time>2014-09-06T14:23:35Z</time></trkpt><trkpt lat="45.6210926548" lon="6.4498773403"><ele>375.53</ele><time>2014-09-06T14:23:36Z</time></trkpt><trkpt lat="45.6211160403" lon="6.4498419687"><ele>375.53</ele><time>2014-09-06T14:23:37Z</time></trkpt><trkpt lat="45.6211443711" lon="6.4498133026"><ele>375.53</ele><time>2014-09-06T14:23:38Z</time></trkpt><trkpt lat="45.6211757194" lon="6.4497897495"><ele>375.53</ele><time>2014-09-06T14:23:39Z</time></trkpt><trkpt lat="45.6212070677" lon="6.4497718122"><ele>375.53</ele><time>2014-09-06T14:23:40Z</time></trkpt><trkpt lat="45.6212488934" lon="6.4497527014"><ele>375.53</ele><time>2014-09-06T14:23:41Z</time></trkpt><trkpt lat="45.6212909706" lon="6.4497383684"><ele>375.05</ele><time>2014-09-06T14:23:42Z</time></trkpt><trkpt lat="45.6213214807" lon="6.4497242868"><ele>375.05</ele><time>2014-09-06T14:23:43Z</time></trkpt><trkpt lat="45.6213604566" lon="6.4497054275"><ele>375.05</ele><time>2014-09-06T14:23:44Z</time></trkpt><trkpt lat="45.6214019470" lon="6.4496890828"><ele>374.57</ele><time>2014-09-06T14:23:45Z</time></trkpt><trkpt lat="45.6214438565" lon="6.4496792760"><ele>374.57</ele><time>2014-09-06T14:23:46Z</time></trkpt><trkpt lat="45.6214861013" lon="6.4496692177"><ele>374.57</ele><time>2014-09-06T14:23:47Z</time></trkpt><trkpt lat="45.6215285137" lon="6.4496583212"><ele>374.57</ele><time>2014-09-06T14:23:48Z</time></trkpt><trkpt lat="45.6217942201" lon="6.4495921880"><ele>373.61</ele><time>2014-09-06T14:23:54Z</time></trkpt><trkpt lat="45.6218359619" lon="6.4495823812"><ele>373.13</ele><time>2014-09-06T14:23:55Z</time></trkpt><trkpt lat="45.6218782067" lon="6.4495793637"><ele>373.13</ele><time>2014-09-06T14:23:56Z</time></trkpt><trkpt lat="45.6224590726" lon="6.4494589157"><ele>371.69</ele><time>2014-09-06T14:24:11Z</time></trkpt><trkpt lat="45.6230867095" lon="6.4493075386"><ele>371.21</ele><time>2014-09-06T14:24:27Z</time></trkpt><trkpt lat="45.6232934073" lon="6.4492696524"><ele>370.73</ele><time>2014-09-06T14:24:33Z</time></trkpt><trkpt lat="45.6233235821" lon="6.4492802136"><ele>371.21</ele><time>2014-09-06T14:24:34Z</time></trkpt><trkpt lat="45.6233547628" lon="6.4492921159"><ele>370.73</ele><time>2014-09-06T14:24:35Z</time></trkpt><trkpt lat="45.6233870331" lon="6.4493046887"><ele>371.21</ele><time>2014-09-06T14:24:36Z</time></trkpt><trkpt lat="45.6234204769" lon="6.4493094664"><ele>370.73</ele><time>2014-09-06T14:24:37Z</time></trkpt><trkpt lat="45.6234526634" lon="6.4492962230"><ele>370.24</ele><time>2014-09-06T14:24:38Z</time></trkpt><trkpt lat="45.6234768871" lon="6.4492695685"><ele>370.24</ele><time>2014-09-06T14:24:39Z</time></trkpt><trkpt lat="45.6234985124" lon="6.4492388908"><ele>369.76</ele><time>2014-09-06T14:24:40Z</time></trkpt><trkpt lat="45.6235265080" lon="6.4492072072"><ele>369.76</ele><time>2014-09-06T14:24:41Z</time></trkpt><trkpt lat="45.6235588621" lon="6.4491848275"><ele>369.76</ele><time>2014-09-06T14:24:42Z</time></trkpt><trkpt lat="45.6235809065" lon="6.4491695724"><ele>369.76</ele><time>2014-09-06T14:24:43Z</time></trkpt><trkpt lat="45.6239876803" lon="6.4490583446"><ele>368.32</ele><time>2014-09-06T14:24:56Z</time></trkpt><trkpt lat="45.6245563086" lon="6.4490067959"><ele>366.88</ele><time>2014-09-06T14:25:12Z</time></trkpt><trkpt lat="45.6246762536" lon="6.4489834104"><ele>366.88</ele><time>2014-09-06T14:25:15Z</time></trkpt><trkpt lat="45.6250215881" lon="6.4489131700"><ele>366.88</ele><time>2014-09-06T14:25:23Z</time></trkpt><trkpt lat="45.6255899649" lon="6.4487838373"><ele>366.88</ele><time>2014-09-06T14:25:38Z</time></trkpt><trkpt lat="45.6261237245" lon="6.4486497268"><ele>368.32</ele><time>2014-09-06T14:25:52Z</time></trkpt><trkpt lat="45.6266049296" lon="6.4485063963"><ele>368.80</ele><time>2014-09-06T14:26:05Z</time></trkpt><trkpt lat="45.6270512659" lon="6.4483550191"><ele>368.80</ele><time>2014-09-06T14:26:16Z</time></trkpt><trkpt lat="45.6272159703" lon="6.4482909814"><ele>369.28</ele><time>2014-09-06T14:26:20Z</time></trkpt><trkpt lat="45.6272566225" lon="6.4482765645"><ele>369.28</ele><time>2014-09-06T14:26:21Z</time></trkpt><trkpt lat="45.6278236583" lon="6.4480764046"><ele>367.84</ele><time>2014-09-06T14:26:36Z</time></trkpt><trkpt lat="45.6283994950" lon="6.4478204213"><ele>368.80</ele><time>2014-09-06T14:26:52Z</time></trkpt><trkpt lat="45.6289113779" lon="6.4475699700"><ele>369.28</ele><time>2014-09-06T14:27:08Z</time></trkpt><trkpt lat="45.6292702071" lon="6.4474648610"><ele>367.36</ele><time>2014-09-06T14:27:21Z</time></trkpt><trkpt lat="45.6294689421" lon="6.4474429842"><ele>365.92</ele><time>2014-09-06T14:27:34Z</time></trkpt><trkpt lat="45.6294837780" lon="6.4474377036"><ele>363.04</ele><time>2014-09-06T14:27:52Z</time></trkpt><trkpt lat="45.6294922438" lon="6.4474179223"><ele>361.11</ele><time>2014-09-06T14:28:26Z</time></trkpt><trkpt lat="45.6294807605" lon="6.4474332612"><ele>361.59</ele><time>2014-09-06T14:28:55Z</time></trkpt><trkpt lat="45.6294760667" lon="6.4474416431"><ele>362.55</ele><time>2014-09-06T14:29:20Z</time></trkpt><trkpt lat="45.6294807605" lon="6.4474475104"><ele>362.07</ele><time>2014-09-06T14:29:47Z</time></trkpt><trkpt lat="45.6294912379" lon="6.4474425651"><ele>362.07</ele><time>2014-09-06T14:29:48Z</time></trkpt><trkpt lat="45.6295045651" lon="6.4474384580"><ele>362.07</ele><time>2014-09-06T14:29:49Z</time></trkpt><trkpt lat="45.6295201555" lon="6.4474338479"><ele>362.07</ele><time>2014-09-06T14:29:50Z</time></trkpt><trkpt lat="45.6295339856" lon="6.4474278130"><ele>362.07</ele><time>2014-09-06T14:29:51Z</time></trkpt><trkpt lat="45.6295441277" lon="6.4474163298"><ele>362.55</ele><time>2014-09-06T14:29:52Z</time></trkpt><trkpt lat="45.6295525096" lon="6.4474076126"><ele>362.55</ele><time>2014-09-06T14:29:53Z</time></trkpt><trkpt lat="45.6295616459" lon="6.4474001527"><ele>362.55</ele><time>2014-09-06T14:29:54Z</time></trkpt><trkpt lat="45.6295745540" lon="6.4473885018"><ele>362.55</ele><time>2014-09-06T14:29:55Z</time></trkpt><trkpt lat="45.6295876298" lon="6.4473620988"><ele>362.55</ele><time>2014-09-06T14:29:56Z</time></trkpt><trkpt lat="45.6296002027" lon="6.4473257214"><ele>362.55</ele><time>2014-09-06T14:29:57Z</time></trkpt><trkpt lat="45.6295385957" lon="6.4468805585"><ele>363.52</ele><time>2014-09-06T14:30:07Z</time></trkpt><trkpt lat="45.6294570398" lon="6.4465181250"><ele>363.52</ele><time>2014-09-06T14:30:15Z</time></trkpt><trkpt lat="45.6293439679" lon="6.4459417015"><ele>364.48</ele><time>2014-09-06T14:30:28Z</time></trkpt><trkpt lat="45.6292515155" lon="6.4455012325"><ele>364.48</ele><time>2014-09-06T14:30:39Z</time></trkpt><trkpt lat="45.6291500945" lon="6.4449498709"><ele>364.96</ele><time>2014-09-06T14:30:51Z</time></trkpt><trkpt lat="45.6289790198" lon="6.4441171288"><ele>365.44</ele><time>2014-09-06T14:31:06Z</time></trkpt><trkpt lat="45.6289839651" lon="6.4440129418"><ele>364.96</ele><time>2014-09-06T14:31:08Z</time></trkpt><trkpt lat="45.6290019862" lon="6.4439609740"><ele>364.96</ele><time>2014-09-06T14:31:09Z</time></trkpt><trkpt lat="45.6290547084" lon="6.4437063318"><ele>364.00</ele><time>2014-09-06T14:31:14Z</time></trkpt><trkpt lat="45.6290759984" lon="6.4436550345"><ele>364.00</ele><time>2014-09-06T14:31:15Z</time></trkpt><trkpt lat="45.6290989649" lon="6.4436215069"><ele>363.52</ele><time>2014-09-06T14:31:16Z</time></trkpt><trkpt lat="45.6291349232" lon="6.4435809385"><ele>363.52</ele><time>2014-09-06T14:31:17Z</time></trkpt><trkpt lat="45.6291731447" lon="6.4435443096"><ele>363.52</ele><time>2014-09-06T14:31:18Z</time></trkpt><trkpt lat="45.6292137131" lon="6.4435148053"><ele>363.52</ele><time>2014-09-06T14:31:19Z</time></trkpt><trkpt lat="45.6292564608" lon="6.4434953593"><ele>363.52</ele><time>2014-09-06T14:31:20Z</time></trkpt><trkpt lat="45.6293019745" lon="6.4434858877"><ele>363.52</ele><time>2014-09-06T14:31:21Z</time></trkpt><trkpt lat="45.6293440517" lon="6.4434847981"><ele>363.52</ele><time>2014-09-06T14:31:22Z</time></trkpt><trkpt lat="45.6293843687" lon="6.4434899110"><ele>363.04</ele><time>2014-09-06T14:31:23Z</time></trkpt><trkpt lat="45.6294249371" lon="6.4434972871"><ele>363.04</ele><time>2014-09-06T14:31:24Z</time></trkpt><trkpt lat="45.6299277674" lon="6.4434813615"><ele>363.52</ele><time>2014-09-06T14:31:36Z</time></trkpt><trkpt lat="45.6299714372" lon="6.4434666932"><ele>363.52</ele><time>2014-09-06T14:31:37Z</time></trkpt><trkpt lat="45.6300120894" lon="6.4434575569"><ele>363.04</ele><time>2014-09-06T14:31:38Z</time></trkpt><trkpt lat="45.6300562620" lon="6.4434474986"><ele>363.04</ele><time>2014-09-06T14:31:39Z</time></trkpt><trkpt lat="45.6301008537" lon="6.4434372727"><ele>363.04</ele><time>2014-09-06T14:31:40Z</time></trkpt><trkpt lat="45.6308057718" lon="6.4432405494"><ele>362.55</ele><time>2014-09-06T14:31:56Z</time></trkpt><trkpt lat="45.6316195708" lon="6.4429933671"><ele>362.55</ele><time>2014-09-06T14:32:15Z</time></trkpt><trkpt lat="45.6324585993" lon="6.4427032694"><ele>362.07</ele><time>2014-09-06T14:32:33Z</time></trkpt><trkpt lat="45.6325969007" lon="6.4426640421"><ele>362.07</ele><time>2014-09-06T14:32:36Z</time></trkpt><trkpt lat="45.6330749206" lon="6.4424876869"><ele>362.07</ele><time>2014-09-06T14:32:51Z</time></trkpt><trkpt lat="45.6330698915" lon="6.4424907882"><ele>363.52</ele><time>2014-09-06T14:33:19Z</time></trkpt><trkpt lat="45.6330814585" lon="6.4425130002"><ele>361.59</ele><time>2014-09-06T14:33:51Z</time></trkpt><trkpt lat="45.6330628507" lon="6.4425040316"><ele>363.52</ele><time>2014-09-06T14:34:24Z</time></trkpt><trkpt lat="45.6331233680" lon="6.4424666483"><ele>363.52</ele><time>2014-09-06T14:34:45Z</time></trkpt><trkpt lat="45.6334666070" lon="6.4423120022"><ele>364.00</ele><time>2014-09-06T14:34:55Z</time></trkpt><trkpt lat="45.6335071754" lon="6.4422916342"><ele>364.48</ele><time>2014-09-06T14:34:56Z</time></trkpt><trkpt lat="45.6335448101" lon="6.4422765467"><ele>364.48</ele><time>2014-09-06T14:34:57Z</time></trkpt><trkpt lat="45.6340445392" lon="6.4420800749"><ele>366.40</ele><time>2014-09-06T14:35:09Z</time></trkpt><trkpt lat="45.6348048616" lon="6.4418113511"><ele>365.92</ele><time>2014-09-06T14:35:27Z</time></trkpt><trkpt lat="45.6349870842" lon="6.4417378418"><ele>366.88</ele><time>2014-09-06T14:35:31Z</time></trkpt><trkpt lat="45.6350274011" lon="6.4417190664"><ele>367.36</ele><time>2014-09-06T14:35:32Z</time></trkpt><trkpt lat="45.6356131285" lon="6.4414923359"><ele>367.36</ele><time>2014-09-06T14:35:44Z</time></trkpt><trkpt lat="45.6356615759" lon="6.4414706267"><ele>367.36</ele><time>2014-09-06T14:35:45Z</time></trkpt><trkpt lat="45.6362943258" lon="6.4412677847"><ele>365.44</ele><time>2014-09-06T14:35:58Z</time></trkpt><trkpt lat="45.6367651373" lon="6.4411063492"><ele>364.00</ele><time>2014-09-06T14:36:09Z</time></trkpt><trkpt lat="45.6369282492" lon="6.4410466701"><ele>363.52</ele><time>2014-09-06T14:36:13Z</time></trkpt><trkpt lat="45.6369690690" lon="6.4410292357"><ele>363.04</ele><time>2014-09-06T14:36:14Z</time></trkpt><trkpt lat="45.6370927859" lon="6.4409972169"><ele>363.04</ele><time>2014-09-06T14:36:17Z</time></trkpt><trkpt lat="45.6376123801" lon="6.4408121444"><ele>362.07</ele><time>2014-09-06T14:36:32Z</time></trkpt><trkpt lat="45.6378852110" lon="6.4407391381"><ele>361.59</ele><time>2014-09-06T14:36:43Z</time></trkpt><trkpt lat="45.6378894858" lon="6.4407546446"><ele>360.15</ele><time>2014-09-06T14:36:59Z</time></trkpt><trkpt lat="45.6378909107" lon="6.4407534711"><ele>361.59</ele><time>2014-09-06T14:37:32Z</time></trkpt><trkpt lat="45.6378986221" lon="6.4407406468"><ele>362.55</ele><time>2014-09-06T14:37:40Z</time></trkpt><trkpt lat="45.6379261985" lon="6.4407253079"><ele>362.55</ele><time>2014-09-06T14:37:42Z</time></trkpt><trkpt lat="45.6383564416" lon="6.4405819774"><ele>362.07</ele><time>2014-09-06T14:37:55Z</time></trkpt><trkpt lat="45.6387991738" lon="6.4404315222"><ele>361.59</ele><time>2014-09-06T14:38:06Z</time></trkpt><trkpt lat="45.6390044466" lon="6.4403648023"><ele>361.11</ele><time>2014-09-06T14:38:11Z</time></trkpt><trkpt lat="45.6397568062" lon="6.4401069749"><ele>360.63</ele><time>2014-09-06T14:38:29Z</time></trkpt><trkpt lat="45.6399509311" lon="6.4400327951"><ele>360.63</ele><time>2014-09-06T14:38:34Z</time></trkpt><trkpt lat="45.6404670887" lon="6.4398276899"><ele>359.19</ele><time>2014-09-06T14:38:48Z</time></trkpt><trkpt lat="45.6404770631" lon="6.4397755545"><ele>359.19</ele><time>2014-09-06T14:38:49Z</time></trkpt><trkpt lat="45.6404753868" lon="6.4397312980"><ele>359.19</ele><time>2014-09-06T14:38:50Z</time></trkpt><trkpt lat="45.6404693518" lon="6.4396820124"><ele>358.71</ele><time>2014-09-06T14:38:51Z</time></trkpt><trkpt lat="45.6404578686" lon="6.4396376722"><ele>358.71</ele><time>2014-09-06T14:38:52Z</time></trkpt><trkpt lat="45.6402815133" lon="6.4392437227"><ele>358.23</ele><time>2014-09-06T14:39:02Z</time></trkpt><trkpt lat="45.6402391009" lon="6.4392412920"><ele>358.23</ele><time>2014-09-06T14:39:10Z</time></trkpt><trkpt lat="45.6402463093" lon="6.4392512664"><ele>362.07</ele><time>2014-09-06T14:39:30Z</time></trkpt><trkpt lat="45.6402587146" lon="6.4393189084"><ele>364.00</ele><time>2014-09-06T14:39:59Z</time></trkpt><trkpt lat="45.6402783282" lon="6.4392816089"><ele>362.07</ele><time>2014-09-06T14:40:43Z</time></trkpt><trkpt lat="45.6402236782" lon="6.4392807707"><ele>360.63</ele><time>2014-09-06T14:41:17Z</time></trkpt><trkpt lat="45.6401992030" lon="6.4393070899"><ele>358.71</ele><time>2014-09-06T14:41:51Z</time></trkpt><trkpt lat="45.6402076688" lon="6.4393207524"><ele>361.59</ele><time>2014-09-06T14:42:17Z</time></trkpt><trkpt lat="45.6402330659" lon="6.4393417910"><ele>360.15</ele><time>2014-09-06T14:42:50Z</time></trkpt><trkpt lat="45.6402181461" lon="6.4393146336"><ele>362.55</ele><time>2014-09-06T14:43:27Z</time></trkpt><trkpt lat="45.6401832774" lon="6.4393299725"><ele>362.07</ele><time>2014-09-06T14:43:50Z</time></trkpt><trkpt lat="45.6402026396" lon="6.4393020608"><ele>359.67</ele><time>2014-09-06T14:44:16Z</time></trkpt><trkpt lat="45.6402502488" lon="6.4393176511"><ele>364.00</ele><time>2014-09-06T14:44:44Z</time></trkpt><trkpt lat="45.6402750593" lon="6.4393541124"><ele>363.52</ele><time>2014-09-06T14:45:13Z</time></trkpt><trkpt lat="45.6402475666" lon="6.4392951038"><ele>364.96</ele><time>2014-09-06T14:45:40Z</time></trkpt><trkpt lat="45.6402413640" lon="6.4392883144"><ele>363.52</ele><time>2014-09-06T14:46:02Z</time></trkpt><trkpt lat="45.6402808428" lon="6.4392499253"><ele>366.40</ele><time>2014-09-06T14:46:26Z</time></trkpt><trkpt lat="45.6402582955" lon="6.4392845426"><ele>365.92</ele><time>2014-09-06T14:46:32Z</time></trkpt><trkpt lat="45.6402301323" lon="6.4393519331"><ele>364.96</ele><time>2014-09-06T14:46:35Z</time></trkpt><trkpt lat="45.6402280368" lon="6.4393759891"><ele>364.48</ele><time>2014-09-06T14:46:36Z</time></trkpt><trkpt lat="45.6402328145" lon="6.4394027274"><ele>364.48</ele><time>2014-09-06T14:46:37Z</time></trkpt><trkpt lat="45.6402402744" lon="6.4394212514"><ele>364.48</ele><time>2014-09-06T14:46:38Z</time></trkpt><trkpt lat="45.6402499974" lon="6.4394400269"><ele>364.48</ele><time>2014-09-06T14:46:39Z</time></trkpt><trkpt lat="45.6402624026" lon="6.4394593053"><ele>364.48</ele><time>2014-09-06T14:46:40Z</time></trkpt><trkpt lat="45.6402715389" lon="6.4394790027"><ele>364.48</ele><time>2014-09-06T14:46:41Z</time></trkpt><trkpt lat="45.6402813457" lon="6.4395028912"><ele>364.48</ele><time>2014-09-06T14:46:42Z</time></trkpt><trkpt lat="45.6402937509" lon="6.4395283721"><ele>364.48</ele><time>2014-09-06T14:46:43Z</time></trkpt><trkpt lat="45.6403092574" lon="6.4395456389"><ele>364.00</ele><time>2014-09-06T14:46:44Z</time></trkpt><trkpt lat="45.6403288711" lon="6.4395536855"><ele>364.00</ele><time>2014-09-06T14:46:45Z</time></trkpt><trkpt lat="45.6403482333" lon="6.4395570382"><ele>364.00</ele><time>2014-09-06T14:46:46Z</time></trkpt><trkpt lat="45.6403651647" lon="6.4395762328"><ele>364.00</ele><time>2014-09-06T14:46:47Z</time></trkpt><trkpt lat="45.6403722893" lon="6.4395884704"><ele>364.00</ele><time>2014-09-06T14:46:48Z</time></trkpt><trkpt lat="45.6403867900" lon="6.4396054018"><ele>364.00</ele><time>2014-09-06T14:46:49Z</time></trkpt><trkpt lat="45.6404032186" lon="6.4396217465"><ele>364.00</ele><time>2014-09-06T14:46:50Z</time></trkpt><trkpt lat="45.6404186413" lon="6.4396408573"><ele>364.48</ele><time>2014-09-06T14:46:51Z</time></trkpt><trkpt lat="45.6404603831" lon="6.4396813419"><ele>364.00</ele><time>2014-09-06T14:46:54Z</time></trkpt><trkpt lat="45.6404736266" lon="6.4397073258"><ele>364.00</ele><time>2014-09-06T14:46:55Z</time></trkpt><trkpt lat="45.6404913962" lon="6.4397333935"><ele>363.52</ele><time>2014-09-06T14:46:56Z</time></trkpt><trkpt lat="45.6405217387" lon="6.4397592098"><ele>363.52</ele><time>2014-09-06T14:46:57Z</time></trkpt><trkpt lat="45.6405534223" lon="6.4397662506"><ele>363.52</ele><time>2014-09-06T14:46:58Z</time></trkpt><trkpt lat="45.6405855250" lon="6.4397699386"><ele>363.52</ele><time>2014-09-06T14:46:59Z</time></trkpt><trkpt lat="45.6411277503" lon="6.4395917393"><ele>361.59</ele><time>2014-09-06T14:47:14Z</time></trkpt><trkpt lat="45.6417314149" lon="6.4393876400"><ele>360.15</ele><time>2014-09-06T14:47:30Z</time></trkpt><trkpt lat="45.6423608959" lon="6.4391573891"><ele>359.19</ele><time>2014-09-06T14:47:47Z</time></trkpt><trkpt lat="45.6427475531" lon="6.4389909245"><ele>359.67</ele><time>2014-09-06T14:48:01Z</time></trkpt><trkpt lat="45.6432806421" lon="6.4387968834"><ele>359.19</ele><time>2014-09-06T14:48:16Z</time></trkpt><trkpt lat="45.6439050939" lon="6.4384676423"><ele>358.23</ele><time>2014-09-06T14:48:33Z</time></trkpt><trkpt lat="45.6440642662" lon="6.4380131755"><ele>357.75</ele><time>2014-09-06T14:48:43Z</time></trkpt><trkpt lat="45.6440131366" lon="6.4372826926"><ele>356.31</ele><time>2014-09-06T14:48:56Z</time></trkpt><trkpt lat="45.6439919304" lon="6.4367161598"><ele>356.31</ele><time>2014-09-06T14:49:06Z</time></trkpt><trkpt lat="45.6440167408" lon="6.4366703108"><ele>356.31</ele><time>2014-09-06T14:49:07Z</time></trkpt><trkpt lat="45.6440480892" lon="6.4366355259"><ele>356.31</ele><time>2014-09-06T14:49:08Z</time></trkpt><trkpt lat="45.6440891605" lon="6.4366066922"><ele>356.31</ele><time>2014-09-06T14:49:09Z</time></trkpt><trkpt lat="45.6441248674" lon="6.4365892578"><ele>356.31</ele><time>2014-09-06T14:49:10Z</time></trkpt><trkpt lat="45.6441682018" lon="6.4365824685"><ele>356.31</ele><time>2014-09-06T14:49:11Z</time></trkpt><trkpt lat="45.6442108657" lon="6.4365874138"><ele>356.31</ele><time>2014-09-06T14:49:12Z</time></trkpt><trkpt lat="45.6442543678" lon="6.4365952089"><ele>355.83</ele><time>2014-09-06T14:49:13Z</time></trkpt><trkpt lat="45.6444727164" lon="6.4366104640"><ele>355.83</ele><time>2014-09-06T14:49:18Z</time></trkpt><trkpt lat="45.6453217193" lon="6.4366895892"><ele>356.31</ele><time>2014-09-06T14:49:37Z</time></trkpt><trkpt lat="45.6461333390" lon="6.4369010646"><ele>356.79</ele><time>2014-09-06T14:49:55Z</time></trkpt><trkpt lat="45.6461749133" lon="6.4369153976"><ele>356.79</ele><time>2014-09-06T14:49:56Z</time></trkpt><trkpt lat="45.6466007140" lon="6.4370396174"><ele>356.31</ele><time>2014-09-06T14:50:09Z</time></trkpt><trkpt lat="45.6469754688" lon="6.4372911584"><ele>356.31</ele><time>2014-09-06T14:50:20Z</time></trkpt><trkpt lat="45.6472065579" lon="6.4374203235"><ele>356.31</ele><time>2014-09-06T14:50:26Z</time></trkpt><trkpt lat="45.6472519040" lon="6.4374259394"><ele>356.31</ele><time>2014-09-06T14:50:27Z</time></trkpt><trkpt lat="45.6472917181" lon="6.4374243468"><ele>356.31</ele><time>2014-09-06T14:50:28Z</time></trkpt><trkpt lat="45.6473346334" lon="6.4374302980"><ele>356.31</ele><time>2014-09-06T14:50:29Z</time></trkpt><trkpt lat="45.6473766267" lon="6.4374398533"><ele>356.31</ele><time>2014-09-06T14:50:30Z</time></trkpt><trkpt lat="45.6474215537" lon="6.4374420326"><ele>356.31</ele><time>2014-09-06T14:50:31Z</time></trkpt><trkpt lat="45.6474629603" lon="6.4374384284"><ele>356.31</ele><time>2014-09-06T14:50:32Z</time></trkpt><trkpt lat="45.6475938018" lon="6.4374151267"><ele>356.79</ele><time>2014-09-06T14:50:35Z</time></trkpt><trkpt lat="45.6482612528" lon="6.4371633343"><ele>356.31</ele><time>2014-09-06T14:50:51Z</time></trkpt><trkpt lat="45.6486408692" lon="6.4370143041"><ele>354.86</ele><time>2014-09-06T14:51:00Z</time></trkpt><trkpt lat="45.6487323996" lon="6.4369903319"><ele>354.86</ele><time>2014-09-06T14:51:02Z</time></trkpt><trkpt lat="45.6492181309" lon="6.4368053433"><ele>355.34</ele><time>2014-09-06T14:51:13Z</time></trkpt><trkpt lat="45.6492614653" lon="6.4367847238"><ele>355.34</ele><time>2014-09-06T14:51:14Z</time></trkpt><trkpt lat="45.6493991800" lon="6.4367435686"><ele>355.34</ele><time>2014-09-06T14:51:17Z</time></trkpt><trkpt lat="45.6500550639" lon="6.4364843164"><ele>355.34</ele><time>2014-09-06T14:51:32Z</time></trkpt><trkpt lat="45.6500940397" lon="6.4364680555"><ele>355.34</ele><time>2014-09-06T14:51:33Z</time></trkpt><trkpt lat="45.6501358654" lon="6.4364512917"><ele>355.34</ele><time>2014-09-06T14:51:34Z</time></trkpt><trkpt lat="45.6508848723" lon="6.4360643830"><ele>354.86</ele><time>2014-09-06T14:51:52Z</time></trkpt><trkpt lat="45.6510567851" lon="6.4359385706"><ele>354.38</ele><time>2014-09-06T14:51:56Z</time></trkpt><trkpt lat="45.6514133513" lon="6.4357694238"><ele>353.90</ele><time>2014-09-06T14:52:06Z</time></trkpt><trkpt lat="45.6514440291" lon="6.4358167816"><ele>353.90</ele><time>2014-09-06T14:52:07Z</time></trkpt><trkpt lat="45.6514609605" lon="6.4358515665"><ele>353.90</ele><time>2014-09-06T14:52:08Z</time></trkpt><trkpt lat="45.6514845975" lon="6.4359069709"><ele>353.90</ele><time>2014-09-06T14:52:09Z</time></trkpt><trkpt lat="45.6515070610" lon="6.4359705895"><ele>353.90</ele><time>2014-09-06T14:52:10Z</time></trkpt><trkpt lat="45.6515271775" lon="6.4360362198"><ele>353.90</ele><time>2014-09-06T14:52:11Z</time></trkpt><trkpt lat="45.6515483838" lon="6.4360957313"><ele>353.42</ele><time>2014-09-06T14:52:12Z</time></trkpt><trkpt lat="45.6518190354" lon="6.4365896769"><ele>357.75</ele><time>2014-09-06T14:52:25Z</time></trkpt><trkpt lat="45.6520501245" lon="6.4370090235"><ele>360.15</ele><time>2014-09-06T14:52:38Z</time></trkpt><trkpt lat="45.6522946246" lon="6.4370733965"><ele>362.07</ele><time>2014-09-06T14:52:48Z</time></trkpt><trkpt lat="45.6524957903" lon="6.4369993005"><ele>363.52</ele><time>2014-09-06T14:52:58Z</time></trkpt><trkpt lat="45.6525120512" lon="6.4370152261"><ele>363.52</ele><time>2014-09-06T14:52:59Z</time></trkpt><trkpt lat="45.6525276415" lon="6.4370334987"><ele>363.52</ele><time>2014-09-06T14:53:00Z</time></trkpt><trkpt lat="45.6525428127" lon="6.4370495081"><ele>363.52</ele><time>2014-09-06T14:53:01Z</time></trkpt><trkpt lat="45.6525586545" lon="6.4370634221"><ele>364.00</ele><time>2014-09-06T14:53:02Z</time></trkpt><trkpt lat="45.6525875721" lon="6.4370920043"><ele>364.48</ele><time>2014-09-06T14:53:04Z</time></trkpt><trkpt lat="45.6525981333" lon="6.4371137135"><ele>364.48</ele><time>2014-09-06T14:53:05Z</time></trkpt><trkpt lat="45.6526124664" lon="6.4371345006"><ele>364.96</ele><time>2014-09-06T14:53:06Z</time></trkpt><trkpt lat="45.6526232790" lon="6.4371530246"><ele>365.44</ele><time>2014-09-06T14:53:07Z</time></trkpt><trkpt lat="45.6526360195" lon="6.4371752366"><ele>365.44</ele><time>2014-09-06T14:53:08Z</time></trkpt><trkpt lat="45.6526475027" lon="6.4371988736"><ele>365.44</ele><time>2014-09-06T14:53:09Z</time></trkpt><trkpt lat="45.6526570581" lon="6.4372228459"><ele>365.92</ele><time>2014-09-06T14:53:10Z</time></trkpt><trkpt lat="45.6527985446" lon="6.4376537595"><ele>369.76</ele><time>2014-09-06T14:53:26Z</time></trkpt><trkpt lat="45.6528319884" lon="6.4376921486"><ele>369.76</ele><time>2014-09-06T14:53:28Z</time></trkpt><trkpt lat="45.6528533623" lon="6.4377024584"><ele>369.76</ele><time>2014-09-06T14:53:29Z</time></trkpt><trkpt lat="45.6528777536" lon="6.4377080742"><ele>369.76</ele><time>2014-09-06T14:53:30Z</time></trkpt><trkpt lat="45.6529016420" lon="6.4377057273"><ele>369.76</ele><time>2014-09-06T14:53:31Z</time></trkpt><trkpt lat="45.6529256981" lon="6.4376994409"><ele>369.76</ele><time>2014-09-06T14:53:32Z</time></trkpt><trkpt lat="45.6529474910" lon="6.4376827609"><ele>369.76</ele><time>2014-09-06T14:53:33Z</time></trkpt><trkpt lat="45.6529628299" lon="6.4376556035"><ele>369.76</ele><time>2014-09-06T14:53:34Z</time></trkpt><trkpt lat="45.6529781688" lon="6.4376220759"><ele>369.76</ele><time>2014-09-06T14:53:35Z</time></trkpt><trkpt lat="45.6529925019" lon="6.4375869557"><ele>369.76</ele><time>2014-09-06T14:53:36Z</time></trkpt><trkpt lat="45.6532950047" lon="6.4373707864"><ele>369.76</ele><time>2014-09-06T14:53:47Z</time></trkpt><trkpt lat="45.6535939034" lon="6.4371051639"><ele>369.28</ele><time>2014-09-06T14:54:00Z</time></trkpt><trkpt lat="45.6538518146" lon="6.4366764296"><ele>366.88</ele><time>2014-09-06T14:54:12Z</time></trkpt><trkpt lat="45.6539679039" lon="6.4365009125"><ele>366.40</ele><time>2014-09-06T14:54:16Z</time></trkpt><trkpt lat="45.6540250685" lon="6.4364457596"><ele>366.40</ele><time>2014-09-06T14:54:18Z</time></trkpt><trkpt lat="45.6544852350" lon="6.4360717591"><ele>365.44</ele><time>2014-09-06T14:54:32Z</time></trkpt><trkpt lat="45.6548594031" lon="6.4359471202"><ele>368.32</ele><time>2014-09-06T14:54:44Z</time></trkpt><trkpt lat="45.6552936696" lon="6.4357809070"><ele>369.28</ele><time>2014-09-06T14:54:59Z</time></trkpt><trkpt lat="45.6554483995" lon="6.4357141033"><ele>368.32</ele><time>2014-09-06T14:55:03Z</time></trkpt><trkpt lat="45.6554882135" lon="6.4356930647"><ele>368.32</ele><time>2014-09-06T14:55:04Z</time></trkpt><trkpt lat="45.6555264350" lon="6.4356806595"><ele>368.32</ele><time>2014-09-06T14:55:05Z</time></trkpt><trkpt lat="45.6555614714" lon="6.4356704336"><ele>367.84</ele><time>2014-09-06T14:55:06Z</time></trkpt><trkpt lat="45.6555999443" lon="6.4356576931"><ele>367.84</ele><time>2014-09-06T14:55:07Z</time></trkpt><trkpt lat="45.6559174508" lon="6.4355788194"><ele>366.40</ele><time>2014-09-06T14:55:15Z</time></trkpt><trkpt lat="45.6559602823" lon="6.4355661627"><ele>365.92</ele><time>2014-09-06T14:55:16Z</time></trkpt><trkpt lat="45.6561855040" lon="6.4354971796"><ele>365.44</ele><time>2014-09-06T14:55:21Z</time></trkpt><trkpt lat="45.6562290899" lon="6.4354647417"><ele>365.44</ele><time>2014-09-06T14:55:22Z</time></trkpt><trkpt lat="45.6562691554" lon="6.4354215749"><ele>364.96</ele><time>2014-09-06T14:55:23Z</time></trkpt><trkpt lat="45.6562984083" lon="6.4353821799"><ele>364.96</ele><time>2014-09-06T14:55:24Z</time></trkpt><trkpt lat="45.6563352048" lon="6.4353309665"><ele>364.48</ele><time>2014-09-06T14:55:25Z</time></trkpt><trkpt lat="45.6569526996" lon="6.4347353484"><ele>362.07</ele><time>2014-09-06T14:55:39Z</time></trkpt><trkpt lat="45.6573365070" lon="6.4345372841"><ele>361.11</ele><time>2014-09-06T14:55:47Z</time></trkpt><trkpt lat="45.6573799253" lon="6.4345107973"><ele>361.11</ele><time>2014-09-06T14:55:48Z</time></trkpt><trkpt lat="45.6574222539" lon="6.4344857354"><ele>361.11</ele><time>2014-09-06T14:55:49Z</time></trkpt><trkpt lat="45.6574645825" lon="6.4344665408"><ele>361.11</ele><time>2014-09-06T14:55:50Z</time></trkpt><trkpt lat="45.6575062405" lon="6.4344502799"><ele>361.11</ele><time>2014-09-06T14:55:51Z</time></trkpt><trkpt lat="45.6575459708" lon="6.4344289899"><ele>360.63</ele><time>2014-09-06T14:55:52Z</time></trkpt><trkpt lat="45.6575838570" lon="6.4344038442"><ele>361.11</ele><time>2014-09-06T14:55:53Z</time></trkpt><trkpt lat="45.6576224975" lon="6.4343802072"><ele>361.11</ele><time>2014-09-06T14:55:54Z</time></trkpt><trkpt lat="45.6583329476" lon="6.4341279119"><ele>359.67</ele><time>2014-09-06T14:56:11Z</time></trkpt><trkpt lat="45.6583751924" lon="6.4341315161"><ele>359.67</ele><time>2014-09-06T14:56:12Z</time></trkpt><trkpt lat="45.6588264741" lon="6.4340411592"><ele>359.67</ele><time>2014-09-06T14:56:24Z</time></trkpt><trkpt lat="45.6594955176" lon="6.4336369839"><ele>359.19</ele><time>2014-09-06T14:56:40Z</time></trkpt><trkpt lat="45.6603052095" lon="6.4331592992"><ele>357.75</ele><time>2014-09-06T14:56:58Z</time></trkpt><trkpt lat="45.6603989191" lon="6.4331447147"><ele>357.75</ele><time>2014-09-06T14:57:00Z</time></trkpt><trkpt lat="45.6604852527" lon="6.4331532642"><ele>357.75</ele><time>2014-09-06T14:57:02Z</time></trkpt><trkpt lat="45.6605247315" lon="6.4331592154"><ele>358.23</ele><time>2014-09-06T14:57:03Z</time></trkpt><trkpt lat="45.6605654676" lon="6.4331625681"><ele>358.23</ele><time>2014-09-06T14:57:04Z</time></trkpt><trkpt lat="45.6606050301" lon="6.4331704471"><ele>358.23</ele><time>2014-09-06T14:57:05Z</time></trkpt><trkpt lat="45.6606435031" lon="6.4331805892"><ele>358.71</ele><time>2014-09-06T14:57:06Z</time></trkpt><trkpt lat="45.6612102874" lon="6.4332586247"><ele>359.19</ele><time>2014-09-06T14:57:21Z</time></trkpt><trkpt lat="45.6618958432" lon="6.4330049884"><ele>358.23</ele><time>2014-09-06T14:57:38Z</time></trkpt><trkpt lat="45.6622246653" lon="6.4325801935"><ele>357.75</ele><time>2014-09-06T14:57:50Z</time></trkpt><trkpt lat="45.6625087280" lon="6.4318335336"><ele>359.19</ele><time>2014-09-06T14:58:06Z</time></trkpt><trkpt lat="45.6625277549" lon="6.4317762014"><ele>359.19</ele><time>2014-09-06T14:58:07Z</time></trkpt><trkpt lat="45.6625462789" lon="6.4317117445"><ele>359.19</ele><time>2014-09-06T14:58:08Z</time></trkpt><trkpt lat="45.6627979036" lon="6.4308729675"><ele>355.34</ele><time>2014-09-06T14:58:20Z</time></trkpt><trkpt lat="45.6628305092" lon="6.4308038168"><ele>355.34</ele><time>2014-09-06T14:58:21Z</time></trkpt><trkpt lat="45.6628671382" lon="6.4307381865"><ele>355.34</ele><time>2014-09-06T14:58:22Z</time></trkpt><trkpt lat="45.6629072037" lon="6.4306759927"><ele>355.34</ele><time>2014-09-06T14:58:23Z</time></trkpt><trkpt lat="45.6629483588" lon="6.4306158107"><ele>355.34</ele><time>2014-09-06T14:58:24Z</time></trkpt><trkpt lat="45.6631159969" lon="6.4304107893"><ele>355.34</ele><time>2014-09-06T14:58:28Z</time></trkpt><trkpt lat="45.6637090165" lon="6.4299604297"><ele>354.38</ele><time>2014-09-06T14:58:42Z</time></trkpt><trkpt lat="45.6639302149" lon="6.4297624491"><ele>354.86</ele><time>2014-09-06T14:58:48Z</time></trkpt><trkpt lat="45.6639625691" lon="6.4297235571"><ele>355.34</ele><time>2014-09-06T14:58:49Z</time></trkpt><trkpt lat="45.6639954261" lon="6.4296839945"><ele>355.34</ele><time>2014-09-06T14:58:50Z</time></trkpt><trkpt lat="45.6642931513" lon="6.4292450342"><ele>354.86</ele><time>2014-09-06T14:58:59Z</time></trkpt><trkpt lat="45.6643179618" lon="6.4291819185"><ele>354.86</ele><time>2014-09-06T14:59:00Z</time></trkpt><trkpt lat="45.6643646490" lon="6.4290550165"><ele>354.38</ele><time>2014-09-06T14:59:02Z</time></trkpt><trkpt lat="45.6643809937" lon="6.4289873745"><ele>354.38</ele><time>2014-09-06T14:59:03Z</time></trkpt><trkpt lat="45.6643924769" lon="6.4289168827"><ele>354.38</ele><time>2014-09-06T14:59:04Z</time></trkpt><trkpt lat="45.6644149404" lon="6.4287144598"><ele>353.90</ele><time>2014-09-06T14:59:07Z</time></trkpt><trkpt lat="45.6644134317" lon="6.4286486618"><ele>353.42</ele><time>2014-09-06T14:59:08Z</time></trkpt><trkpt lat="45.6644053850" lon="6.4285807684"><ele>353.42</ele><time>2014-09-06T14:59:09Z</time></trkpt><trkpt lat="45.6643755455" lon="6.4284491725"><ele>353.42</ele><time>2014-09-06T14:59:11Z</time></trkpt><trkpt lat="45.6641977653" lon="6.4276361279"><ele>356.31</ele><time>2014-09-06T14:59:27Z</time></trkpt><trkpt lat="45.6643813290" lon="6.4270596206"><ele>356.31</ele><time>2014-09-06T14:59:41Z</time></trkpt><trkpt lat="45.6647290941" lon="6.4265246037"><ele>352.94</ele><time>2014-09-06T14:59:55Z</time></trkpt><trkpt lat="45.6651823875" lon="6.4258279838"><ele>351.02</ele><time>2014-09-06T15:00:07Z</time></trkpt><trkpt lat="45.6652616803" lon="6.4255604334"><ele>351.02</ele><time>2014-09-06T15:00:11Z</time></trkpt><trkpt lat="45.6652711518" lon="6.4254924562"><ele>351.02</ele><time>2014-09-06T15:00:12Z</time></trkpt><trkpt lat="45.6652512029" lon="6.4246922359"><ele>351.02</ele><time>2014-09-06T15:00:25Z</time></trkpt><trkpt lat="45.6651482731" lon="6.4233854134"><ele>348.13</ele><time>2014-09-06T15:00:39Z</time></trkpt><trkpt lat="45.6650940422" lon="6.4227534179"><ele>347.17</ele><time>2014-09-06T15:00:47Z</time></trkpt><trkpt lat="45.6650231313" lon="6.4217494335"><ele>347.65</ele><time>2014-09-06T15:01:01Z</time></trkpt><trkpt lat="45.6650029309" lon="6.4215440769"><ele>347.17</ele><time>2014-09-06T15:01:04Z</time></trkpt><trkpt lat="45.6649974827" lon="6.4214677177"><ele>347.17</ele><time>2014-09-06T15:01:05Z</time></trkpt><trkpt lat="45.6649873406" lon="6.4213409834"><ele>347.65</ele><time>2014-09-06T15:01:07Z</time></trkpt><trkpt lat="45.6649876758" lon="6.4212745149"><ele>347.65</ele><time>2014-09-06T15:01:08Z</time></trkpt><trkpt lat="45.6649884302" lon="6.4210714214"><ele>347.65</ele><time>2014-09-06T15:01:11Z</time></trkpt><trkpt lat="45.6650586706" lon="6.4205078222"><ele>347.65</ele><time>2014-09-06T15:01:20Z</time></trkpt><trkpt lat="45.6652164180" lon="6.4196045045"><ele>347.65</ele><time>2014-09-06T15:01:35Z</time></trkpt><trkpt lat="45.6653519534" lon="6.4188477024"><ele>346.69</ele><time>2014-09-06T15:01:47Z</time></trkpt><trkpt lat="45.6654265523" lon="6.4183327183"><ele>346.21</ele><time>2014-09-06T15:01:55Z</time></trkpt><trkpt lat="45.6654316653" lon="6.4179592207"><ele>345.25</ele><time>2014-09-06T15:02:01Z</time></trkpt><trkpt lat="45.6654328387" lon="6.4178992901"><ele>344.77</ele><time>2014-09-06T15:02:02Z</time></trkpt><trkpt lat="45.6654322520" lon="6.4178397786"><ele>344.77</ele><time>2014-09-06T15:02:03Z</time></trkpt><trkpt lat="45.6654393766" lon="6.4177200012"><ele>343.81</ele><time>2014-09-06T15:02:05Z</time></trkpt><trkpt lat="45.6654488482" lon="6.4176614117"><ele>343.33</ele><time>2014-09-06T15:02:06Z</time></trkpt><trkpt lat="45.6654996425" lon="6.4174212702"><ele>341.41</ele><time>2014-09-06T15:02:10Z</time></trkpt><trkpt lat="45.6655179150" lon="6.4173637703"><ele>340.92</ele><time>2014-09-06T15:02:11Z</time></trkpt><trkpt lat="45.6655361876" lon="6.4173060190"><ele>340.44</ele><time>2014-09-06T15:02:12Z</time></trkpt><trkpt lat="45.6658091024" lon="6.4165490493"><ele>339.48</ele><time>2014-09-06T15:02:25Z</time></trkpt><trkpt lat="45.6659606472" lon="6.4153312426"><ele>342.37</ele><time>2014-09-06T15:02:43Z</time></trkpt><trkpt lat="45.6661963463" lon="6.4142700098"><ele>343.33</ele><time>2014-09-06T15:03:00Z</time></trkpt><trkpt lat="45.6663119327" lon="6.4137964323"><ele>343.81</ele><time>2014-09-06T15:03:08Z</time></trkpt><trkpt lat="45.6664211489" lon="6.4134548698"><ele>343.81</ele><time>2014-09-06T15:03:14Z</time></trkpt><trkpt lat="45.6664406788" lon="6.4134055842"><ele>344.29</ele><time>2014-09-06T15:03:15Z</time></trkpt><trkpt lat="45.6664604601" lon="6.4133562148"><ele>344.29</ele><time>2014-09-06T15:03:16Z</time></trkpt><trkpt lat="45.6666692533" lon="6.4129030891"><ele>345.25</ele><time>2014-09-06T15:03:26Z</time></trkpt><trkpt lat="45.6668370590" lon="6.4126099739"><ele>345.73</ele><time>2014-09-06T15:03:32Z</time></trkpt><trkpt lat="45.6668651383" lon="6.4125625324"><ele>345.73</ele><time>2014-09-06T15:03:33Z</time></trkpt><trkpt lat="45.6672302540" lon="6.4119441994"><ele>345.25</ele><time>2014-09-06T15:03:46Z</time></trkpt><trkpt lat="45.6675191782" lon="6.4109699707"><ele>344.29</ele><time>2014-09-06T15:04:03Z</time></trkpt><trkpt lat="45.6675369479" lon="6.4109095372"><ele>344.29</ele><time>2014-09-06T15:04:04Z</time></trkpt><trkpt lat="45.6675539631" lon="6.4108522050"><ele>344.29</ele><time>2014-09-06T15:04:05Z</time></trkpt><trkpt lat="45.6675724033" lon="6.4107936993"><ele>344.29</ele><time>2014-09-06T15:04:06Z</time></trkpt><trkpt lat="45.6675938610" lon="6.4107380435"><ele>344.29</ele><time>2014-09-06T15:04:07Z</time></trkpt><trkpt lat="45.6676227786" lon="6.4106885903"><ele>344.29</ele><time>2014-09-06T15:04:08Z</time></trkpt><trkpt lat="45.6676614191" lon="6.4106347784"><ele>344.29</ele><time>2014-09-06T15:04:09Z</time></trkpt><trkpt lat="45.6679743156" lon="6.4102423377"><ele>344.29</ele><time>2014-09-06T15:04:18Z</time></trkpt><trkpt lat="45.6681859586" lon="6.4098773897"><ele>344.77</ele><time>2014-09-06T15:04:25Z</time></trkpt><trkpt lat="45.6682125293" lon="6.4098244999"><ele>344.77</ele><time>2014-09-06T15:04:26Z</time></trkpt><trkpt lat="45.6682622340" lon="6.4097227436"><ele>344.29</ele><time>2014-09-06T15:04:28Z</time></trkpt><trkpt lat="45.6684194785" lon="6.4087602496"><ele>344.29</ele><time>2014-09-06T15:04:44Z</time></trkpt><trkpt lat="45.6685362384" lon="6.4076790679"><ele>345.25</ele><time>2014-09-06T15:05:01Z</time></trkpt><trkpt lat="45.6685877871" lon="6.4070453122"><ele>344.77</ele><time>2014-09-06T15:05:11Z</time></trkpt><trkpt lat="45.6686044671" lon="6.4069930930"><ele>344.77</ele><time>2014-09-06T15:05:12Z</time></trkpt><trkpt lat="45.6686290260" lon="6.4069397002"><ele>344.77</ele><time>2014-09-06T15:05:13Z</time></trkpt><trkpt lat="45.6686517410" lon="6.4069041610"><ele>344.77</ele><time>2014-09-06T15:05:14Z</time></trkpt><trkpt lat="45.6686734501" lon="6.4068685379"><ele>344.77</ele><time>2014-09-06T15:05:15Z</time></trkpt><trkpt lat="45.6686799042" lon="6.4068247005"><ele>344.77</ele><time>2014-09-06T15:05:16Z</time></trkpt><trkpt lat="45.6686716061" lon="6.4067675360"><ele>344.77</ele><time>2014-09-06T15:05:18Z</time></trkpt><trkpt lat="45.6686353125" lon="6.4064826351"><ele>345.73</ele><time>2014-09-06T15:05:26Z</time></trkpt><trkpt lat="45.6686405092" lon="6.4064813778"><ele>345.73</ele><time>2014-09-06T15:05:45Z</time></trkpt><trkpt lat="45.6686373241" lon="6.4064734988"><ele>349.58</ele><time>2014-09-06T15:06:11Z</time></trkpt><trkpt lat="45.6686346419" lon="6.4064531308"><ele>349.58</ele><time>2014-09-06T15:06:12Z</time></trkpt><trkpt lat="45.6686348934" lon="6.4064294938"><ele>349.58</ele><time>2014-09-06T15:06:13Z</time></trkpt><trkpt lat="45.6686350610" lon="6.4064001571"><ele>349.58</ele><time>2014-09-06T15:06:14Z</time></trkpt><trkpt lat="45.6686347257" lon="6.4063659590"><ele>349.58</ele><time>2014-09-06T15:06:15Z</time></trkpt><trkpt lat="45.6686327141" lon="6.4063274860"><ele>349.58</ele><time>2014-09-06T15:06:16Z</time></trkpt><trkpt lat="45.6686333846" lon="6.4062857442"><ele>349.58</ele><time>2014-09-06T15:06:17Z</time></trkpt><trkpt lat="45.6686333846" lon="6.4062415715"><ele>349.58</ele><time>2014-09-06T15:06:18Z</time></trkpt><trkpt lat="45.6686357316" lon="6.4061937109"><ele>349.58</ele><time>2014-09-06T15:06:19Z</time></trkpt><trkpt lat="45.6686372403" lon="6.4061430003"><ele>349.10</ele><time>2014-09-06T15:06:20Z</time></trkpt><trkpt lat="45.6686384138" lon="6.4053701889"><ele>347.65</ele><time>2014-09-06T15:06:34Z</time></trkpt><trkpt lat="45.6686368212" lon="6.4053135272"><ele>347.65</ele><time>2014-09-06T15:06:35Z</time></trkpt><trkpt lat="45.6687099952" lon="6.4045356866"><ele>346.69</ele><time>2014-09-06T15:06:50Z</time></trkpt><trkpt lat="45.6689297687" lon="6.4036555868"><ele>346.21</ele><time>2014-09-06T15:07:06Z</time></trkpt><trkpt lat="45.6689832453" lon="6.4033928141"><ele>346.21</ele><time>2014-09-06T15:07:10Z</time></trkpt><trkpt lat="45.6689927168" lon="6.4024877362"><ele>344.77</ele><time>2014-09-06T15:07:25Z</time></trkpt><trkpt lat="45.6687997654" lon="6.4015677385"><ele>345.73</ele><time>2014-09-06T15:07:41Z</time></trkpt><trkpt lat="45.6687674113" lon="6.4014534932"><ele>346.21</ele><time>2014-09-06T15:07:43Z</time></trkpt><trkpt lat="45.6685209833" lon="6.4008976053"><ele>347.17</ele><time>2014-09-06T15:07:53Z</time></trkpt><trkpt lat="45.6680345815" lon="6.4000525419"><ele>346.21</ele><time>2014-09-06T15:08:09Z</time></trkpt><trkpt lat="45.6679830328" lon="6.3999388833"><ele>346.21</ele><time>2014-09-06T15:08:11Z</time></trkpt><trkpt lat="45.6679133791" lon="6.3997424114"><ele>346.21</ele><time>2014-09-06T15:08:14Z</time></trkpt><trkpt lat="45.6678969506" lon="6.3996792119"><ele>346.21</ele><time>2014-09-06T15:08:15Z</time></trkpt><trkpt lat="45.6678834558" lon="6.3996155933"><ele>346.21</ele><time>2014-09-06T15:08:16Z</time></trkpt><trkpt lat="45.6676925998" lon="6.3983970322"><ele>342.85</ele><time>2014-09-06T15:08:36Z</time></trkpt><trkpt lat="45.6676831283" lon="6.3973462768"><ele>342.85</ele><time>2014-09-06T15:08:53Z</time></trkpt><trkpt lat="45.6676862296" lon="6.3972865976"><ele>342.85</ele><time>2014-09-06T15:08:54Z</time></trkpt><trkpt lat="45.6676841341" lon="6.3972153515"><ele>342.85</ele><time>2014-09-06T15:08:55Z</time></trkpt><trkpt lat="45.6676811166" lon="6.3971627969"><ele>342.85</ele><time>2014-09-06T15:08:56Z</time></trkpt><trkpt lat="45.6676805299" lon="6.3971055485"><ele>342.85</ele><time>2014-09-06T15:08:57Z</time></trkpt><trkpt lat="45.6676846370" lon="6.3970441930"><ele>342.85</ele><time>2014-09-06T15:08:58Z</time></trkpt><trkpt lat="45.6676899176" lon="6.3969837595"><ele>342.85</ele><time>2014-09-06T15:08:59Z</time></trkpt><trkpt lat="45.6679167319" lon="6.3959366083"><ele>342.85</ele><time>2014-09-06T15:09:17Z</time></trkpt><trkpt lat="45.6682412792" lon="6.3950441871"><ele>344.77</ele><time>2014-09-06T15:09:35Z</time></trkpt><trkpt lat="45.6683584582" lon="6.3948519900"><ele>344.77</ele><time>2014-09-06T15:09:48Z</time></trkpt><trkpt lat="45.6683527585" lon="6.3948568515"><ele>347.65</ele><time>2014-09-06T15:10:19Z</time></trkpt><trkpt lat="45.6683390122" lon="6.3948275149"><ele>348.62</ele><time>2014-09-06T15:10:56Z</time></trkpt><trkpt lat="45.6683657505" lon="6.3948485535"><ele>348.13</ele><time>2014-09-06T15:11:37Z</time></trkpt><trkpt lat="45.6683594640" lon="6.3948404230"><ele>347.17</ele><time>2014-09-06T15:12:24Z</time></trkpt><trkpt lat="45.6683532614" lon="6.3948548399"><ele>350.06</ele><time>2014-09-06T15:12:48Z</time></trkpt><trkpt lat="45.6684237532" lon="6.3947893772"><ele>349.58</ele><time>2014-09-06T15:13:07Z</time></trkpt><trkpt lat="45.6684276089" lon="6.3947730325"><ele>350.06</ele><time>2014-09-06T15:13:09Z</time></trkpt><trkpt lat="45.6684350688" lon="6.3947573584"><ele>349.58</ele><time>2014-09-06T15:13:10Z</time></trkpt><trkpt lat="45.6684482284" lon="6.3947416842"><ele>349.58</ele><time>2014-09-06T15:13:11Z</time></trkpt><trkpt lat="45.6684676744" lon="6.3947274350"><ele>349.58</ele><time>2014-09-06T15:13:12Z</time></trkpt><trkpt lat="45.6684854440" lon="6.3947159518"><ele>349.58</ele><time>2014-09-06T15:13:13Z</time></trkpt><trkpt lat="45.6685065664" lon="6.3947055582"><ele>350.06</ele><time>2014-09-06T15:13:14Z</time></trkpt><trkpt lat="45.6690002605" lon="6.3945841882"><ele>351.02</ele><time>2014-09-06T15:13:30Z</time></trkpt><trkpt lat="45.6695045158" lon="6.3944763970"><ele>352.94</ele><time>2014-09-06T15:13:44Z</time></trkpt><trkpt lat="45.6700288877" lon="6.3943825196"><ele>354.86</ele><time>2014-09-06T15:13:59Z</time></trkpt><trkpt lat="45.6705521699" lon="6.3943150453"><ele>356.79</ele><time>2014-09-06T15:14:13Z</time></trkpt><trkpt lat="45.6709346361" lon="6.3942980301"><ele>355.34</ele><time>2014-09-06T15:14:24Z</time></trkpt><trkpt lat="45.6709587760" lon="6.3943512551"><ele>354.86</ele><time>2014-09-06T15:14:32Z</time></trkpt><trkpt lat="45.6709659845" lon="6.3943718746"><ele>354.86</ele><time>2014-09-06T15:14:33Z</time></trkpt><trkpt lat="45.6709721033" lon="6.3943882193"><ele>354.86</ele><time>2014-09-06T15:14:35Z</time></trkpt><trkpt lat="45.6709757075" lon="6.3944271114"><ele>354.38</ele><time>2014-09-06T15:14:36Z</time></trkpt><trkpt lat="45.6709773839" lon="6.3944438752"><ele>353.90</ele><time>2014-09-06T15:14:37Z</time></trkpt><trkpt lat="45.6709792279" lon="6.3944615610"><ele>353.90</ele><time>2014-09-06T15:14:38Z</time></trkpt><trkpt lat="45.6709806528" lon="6.3944929093"><ele>351.98</ele><time>2014-09-06T15:14:52Z</time></trkpt><trkpt lat="45.6709895376" lon="6.3945039734"><ele>351.02</ele><time>2014-09-06T15:15:08Z</time></trkpt><trkpt lat="45.6709897052" lon="6.3945259340"><ele>347.65</ele><time>2014-09-06T15:15:46Z</time></trkpt><trkpt lat="45.6709804013" lon="6.3944847789"><ele>343.81</ele><time>2014-09-06T15:16:36Z</time></trkpt><trkpt lat="45.6710424274" lon="6.3944649138"><ele>351.98</ele><time>2014-09-06T15:17:18Z</time></trkpt><trkpt lat="45.6709788926" lon="6.3944339007"><ele>354.86</ele><time>2014-09-06T15:18:07Z</time></trkpt><trkpt lat="45.6709867716" lon="6.3944552746"><ele>355.34</ele><time>2014-09-06T15:19:04Z</time></trkpt><trkpt lat="45.6709990930" lon="6.3944899756"><ele>352.94</ele><time>2014-09-06T15:19:49Z</time></trkpt><trkpt lat="45.6710065529" lon="6.3944816776"><ele>356.31</ele><time>2014-09-06T15:20:36Z</time></trkpt><trkpt lat="45.6710047089" lon="6.3945384230"><ele>343.81</ele><time>2014-09-06T15:21:29Z</time></trkpt><trkpt lat="45.6710112467" lon="6.3944851141"><ele>351.50</ele><time>2014-09-06T15:22:17Z</time></trkpt><trkpt lat="45.6709674932" lon="6.3944726251"><ele>352.94</ele><time>2014-09-06T15:22:59Z</time></trkpt><trkpt lat="45.6710369792" lon="6.3944865391"><ele>356.79</ele><time>2014-09-06T15:23:43Z</time></trkpt><trkpt lat="45.6709856819" lon="6.3944691047"><ele>363.04</ele><time>2014-09-06T15:24:26Z</time></trkpt><trkpt lat="45.6710166112" lon="6.3944963459"><ele>364.00</ele><time>2014-09-06T15:25:07Z</time></trkpt><trkpt lat="45.6709965784" lon="6.3944939151"><ele>354.86</ele><time>2014-09-06T15:25:51Z</time></trkpt><trkpt lat="45.6709964108" lon="6.3944629021"><ele>354.86</ele><time>2014-09-06T15:26:31Z</time></trkpt><trkpt lat="45.6710125878" lon="6.3945025485"><ele>349.10</ele><time>2014-09-06T15:27:13Z</time></trkpt><trkpt lat="45.6710181199" lon="6.3944747206"><ele>353.90</ele><time>2014-09-06T15:27:48Z</time></trkpt><trkpt lat="45.6709969975" lon="6.3945362438"><ele>351.50</ele><time>2014-09-06T15:28:21Z</time></trkpt><trkpt lat="45.6709840894" lon="6.3945214078"><ele>345.73</ele><time>2014-09-06T15:28:51Z</time></trkpt><trkpt lat="45.6709901243" lon="6.3945474755"><ele>339.96</ele><time>2014-09-06T15:29:30Z</time></trkpt><trkpt lat="45.6709762942" lon="6.3945282809"><ele>340.92</ele><time>2014-09-06T15:30:15Z</time></trkpt><trkpt lat="45.6709827483" lon="6.3945416920"><ele>344.77</ele><time>2014-09-06T15:31:01Z</time></trkpt><trkpt lat="45.6709948182" lon="6.3945038058"><ele>344.29</ele><time>2014-09-06T15:31:45Z</time></trkpt><trkpt lat="45.6710045412" lon="6.3945022132"><ele>347.65</ele><time>2014-09-06T15:32:45Z</time></trkpt><trkpt lat="45.6709832512" lon="6.3944648299"><ele>347.65</ele><time>2014-09-06T15:33:35Z</time></trkpt><trkpt lat="45.6710232329" lon="6.3944764808"><ele>342.37</ele><time>2014-09-06T15:34:24Z</time></trkpt><trkpt lat="45.6710548326" lon="6.3944986928"><ele>349.58</ele><time>2014-09-06T15:35:13Z</time></trkpt><trkpt lat="45.6710164435" lon="6.3944922388"><ele>349.10</ele><time>2014-09-06T15:35:55Z</time></trkpt><trkpt lat="45.6710186228" lon="6.3944696076"><ele>353.42</ele><time>2014-09-06T15:36:49Z</time></trkpt><trkpt lat="45.6709638052" lon="6.3944731280"><ele>349.10</ele><time>2014-09-06T15:37:35Z</time></trkpt><trkpt lat="45.6709481310" lon="6.3944758940"><ele>349.10</ele><time>2014-09-06T15:38:07Z</time></trkpt><trkpt lat="45.6709775515" lon="6.3944874611"><ele>349.10</ele><time>2014-09-06T15:38:40Z</time></trkpt><trkpt lat="45.6709460355" lon="6.3944204897"><ele>350.06</ele><time>2014-09-06T15:38:49Z</time></trkpt><trkpt lat="45.6709451973" lon="6.3943919074"><ele>350.06</ele><time>2014-09-06T15:38:50Z</time></trkpt><trkpt lat="45.6709455326" lon="6.3943758979"><ele>350.06</ele><time>2014-09-06T15:38:51Z</time></trkpt><trkpt lat="45.6709451135" lon="6.3943532668"><ele>350.06</ele><time>2014-09-06T15:38:52Z</time></trkpt><trkpt lat="45.6709497236" lon="6.3943281211"><ele>350.54</ele><time>2014-09-06T15:38:53Z</time></trkpt><trkpt lat="45.6709678285" lon="6.3943095133"><ele>350.54</ele><time>2014-09-06T15:38:54Z</time></trkpt><trkpt lat="45.6709907949" lon="6.3943033107"><ele>350.54</ele><time>2014-09-06T15:38:55Z</time></trkpt><trkpt lat="45.6710057985" lon="6.3943009637"><ele>350.54</ele><time>2014-09-06T15:38:56Z</time></trkpt><trkpt lat="45.6710277591" lon="6.3942992873"><ele>350.54</ele><time>2014-09-06T15:38:57Z</time></trkpt><trkpt lat="45.6710513122" lon="6.3942988683"><ele>351.02</ele><time>2014-09-06T15:38:58Z</time></trkpt><trkpt lat="45.6710766256" lon="6.3943009637"><ele>351.02</ele><time>2014-09-06T15:38:59Z</time></trkpt><trkpt lat="45.6711035315" lon="6.3943062443"><ele>351.02</ele><time>2014-09-06T15:39:00Z</time></trkpt><trkpt lat="45.6711304374" lon="6.3943107706"><ele>351.02</ele><time>2014-09-06T15:39:01Z</time></trkpt><trkpt lat="45.6715226267" lon="6.3943676837"><ele>353.42</ele><time>2014-09-06T15:39:14Z</time></trkpt><trkpt lat="45.6722740643" lon="6.3945163786"><ele>354.38</ele><time>2014-09-06T15:39:35Z</time></trkpt><trkpt lat="45.6730470434" lon="6.3946930692"><ele>354.86</ele><time>2014-09-06T15:39:56Z</time></trkpt><trkpt lat="45.6736162584" lon="6.3948504813"><ele>352.46</ele><time>2014-09-06T15:40:12Z</time></trkpt><trkpt lat="45.6742660236" lon="6.3950084802"><ele>351.98</ele><time>2014-09-06T15:40:30Z</time></trkpt><trkpt lat="45.6748669222" lon="6.3951428421"><ele>352.46</ele><time>2014-09-06T15:40:47Z</time></trkpt><trkpt lat="45.6754832435" lon="6.3952877652"><ele>354.38</ele><time>2014-09-06T15:41:04Z</time></trkpt><trkpt lat="45.6758875027" lon="6.3953982387"><ele>356.79</ele><time>2014-09-06T15:41:17Z</time></trkpt><trkpt lat="45.6760815438" lon="6.3951868471"><ele>356.79</ele><time>2014-09-06T15:41:23Z</time></trkpt><trkpt lat="45.6762531213" lon="6.3948605396"><ele>358.71</ele><time>2014-09-06T15:41:32Z</time></trkpt><trkpt lat="45.6762894150" lon="6.3948604558"><ele>358.71</ele><time>2014-09-06T15:41:34Z</time></trkpt><trkpt lat="45.6763700489" lon="6.3948933966"><ele>358.23</ele><time>2014-09-06T15:41:36Z</time></trkpt><trkpt lat="45.6764136348" lon="6.3949063048"><ele>357.75</ele><time>2014-09-06T15:41:37Z</time></trkpt><trkpt lat="45.6767690275" lon="6.3950067200"><ele>356.79</ele><time>2014-09-06T15:41:44Z</time></trkpt><trkpt lat="45.6774574332" lon="6.3952147588"><ele>353.90</ele><time>2014-09-06T15:42:00Z</time></trkpt><trkpt lat="45.6780245528" lon="6.3952658046"><ele>352.46</ele><time>2014-09-06T15:42:16Z</time></trkpt><trkpt lat="45.6783646066" lon="6.3952893578"><ele>352.46</ele><time>2014-09-06T15:42:26Z</time></trkpt><trkpt lat="45.6787944306" lon="6.3954221271"><ele>351.50</ele><time>2014-09-06T15:42:38Z</time></trkpt><trkpt lat="45.6793063972" lon="6.3956297468"><ele>352.46</ele><time>2014-09-06T15:42:52Z</time></trkpt><trkpt lat="45.6798876822" lon="6.3957656175"><ele>353.90</ele><time>2014-09-06T15:43:06Z</time></trkpt><trkpt lat="45.6801708229" lon="6.3958952017"><ele>354.38</ele><time>2014-09-06T15:43:13Z</time></trkpt><trkpt lat="45.6802102178" lon="6.3959135581"><ele>353.90</ele><time>2014-09-06T15:43:14Z</time></trkpt><trkpt lat="45.6806342583" lon="6.3961033244"><ele>353.42</ele><time>2014-09-06T15:43:25Z</time></trkpt><trkpt lat="45.6812700257" lon="6.3961764146"><ele>352.94</ele><time>2014-09-06T15:43:39Z</time></trkpt><trkpt lat="45.6815860234" lon="6.3962941803"><ele>352.94</ele><time>2014-09-06T15:43:46Z</time></trkpt><trkpt lat="45.6817178708" lon="6.3963826094"><ele>352.94</ele><time>2014-09-06T15:43:49Z</time></trkpt><trkpt lat="45.6818057969" lon="6.3964334875"><ele>352.46</ele><time>2014-09-06T15:43:51Z</time></trkpt><trkpt lat="45.6824605074" lon="6.3968431950"><ele>353.90</ele><time>2014-09-06T15:44:06Z</time></trkpt><trkpt lat="45.6825034227" lon="6.3968725316"><ele>353.90</ele><time>2014-09-06T15:44:07Z</time></trkpt><trkpt lat="45.6827652734" lon="6.3970709313"><ele>354.86</ele><time>2014-09-06T15:44:13Z</time></trkpt><trkpt lat="45.6828065962" lon="6.3971042074"><ele>354.86</ele><time>2014-09-06T15:44:14Z</time></trkpt><trkpt lat="45.6829350069" lon="6.3971905410"><ele>355.34</ele><time>2014-09-06T15:44:17Z</time></trkpt><trkpt lat="45.6831427943" lon="6.3972983323"><ele>355.83</ele><time>2014-09-06T15:44:22Z</time></trkpt><trkpt lat="45.6831807643" lon="6.3973224722"><ele>355.83</ele><time>2014-09-06T15:44:23Z</time></trkpt><trkpt lat="45.6832222547" lon="6.3973470312"><ele>355.83</ele><time>2014-09-06T15:44:24Z</time></trkpt><trkpt lat="45.6838731933" lon="6.3977415673"><ele>357.75</ele><time>2014-09-06T15:44:40Z</time></trkpt><trkpt lat="45.6841492094" lon="6.3979661185"><ele>357.75</ele><time>2014-09-06T15:44:47Z</time></trkpt><trkpt lat="45.6841932982" lon="6.3979868218"><ele>357.75</ele><time>2014-09-06T15:44:48Z</time></trkpt><trkpt lat="45.6842356268" lon="6.3980059326"><ele>357.27</ele><time>2014-09-06T15:44:49Z</time></trkpt><trkpt lat="45.6848988030" lon="6.3983683661"><ele>354.86</ele><time>2014-09-06T15:45:05Z</time></trkpt><trkpt lat="45.6853577960" lon="6.3986764010"><ele>354.38</ele><time>2014-09-06T15:45:17Z</time></trkpt><trkpt lat="45.6854773220" lon="6.3987550233"><ele>353.90</ele><time>2014-09-06T15:45:20Z</time></trkpt><trkpt lat="45.6855162140" lon="6.3987836055"><ele>353.90</ele><time>2014-09-06T15:45:21Z</time></trkpt><trkpt lat="45.6861666497" lon="6.3991830871"><ele>354.86</ele><time>2014-09-06T15:45:38Z</time></trkpt><trkpt lat="45.6865098048" lon="6.3993930537"><ele>355.83</ele><time>2014-09-06T15:45:47Z</time></trkpt><trkpt lat="45.6870408822" lon="6.3997457642"><ele>358.23</ele><time>2014-09-06T15:46:02Z</time></trkpt><trkpt lat="45.6874381844" lon="6.4000657853"><ele>360.15</ele><time>2014-09-06T15:46:16Z</time></trkpt><trkpt lat="45.6878274400" lon="6.4004484192"><ele>363.04</ele><time>2014-09-06T15:46:32Z</time></trkpt><trkpt lat="45.6881898735" lon="6.4007726312"><ele>362.07</ele><time>2014-09-06T15:46:47Z</time></trkpt><trkpt lat="45.6888010819" lon="6.4010367449"><ele>360.15</ele><time>2014-09-06T15:47:03Z</time></trkpt><trkpt lat="45.6889201887" lon="6.4010904729"><ele>360.15</ele><time>2014-09-06T15:47:06Z</time></trkpt><trkpt lat="45.6889596675" lon="6.4011116792"><ele>359.67</ele><time>2014-09-06T15:47:07Z</time></trkpt><trkpt lat="45.6890011579" lon="6.4011276886"><ele>359.67</ele><time>2014-09-06T15:47:08Z</time></trkpt><trkpt lat="45.6895271223" lon="6.4013071451"><ele>359.67</ele><time>2014-09-06T15:47:20Z</time></trkpt><trkpt lat="45.6895717140" lon="6.4013234060"><ele>359.67</ele><time>2014-09-06T15:47:21Z</time></trkpt><trkpt lat="45.6896149646" lon="6.4013338834"><ele>359.67</ele><time>2014-09-06T15:47:22Z</time></trkpt><trkpt lat="45.6903525721" lon="6.4015687443"><ele>359.19</ele><time>2014-09-06T15:47:39Z</time></trkpt><trkpt lat="45.6910709012" lon="6.4018782880"><ele>358.23</ele><time>2014-09-06T15:47:56Z</time></trkpt><trkpt lat="45.6916985381" lon="6.4021472633"><ele>358.71</ele><time>2014-09-06T15:48:12Z</time></trkpt><trkpt lat="45.6923693419" lon="6.4024482574"><ele>359.67</ele><time>2014-09-06T15:48:29Z</time></trkpt><trkpt lat="45.6928959768" lon="6.4026448131"><ele>360.15</ele><time>2014-09-06T15:48:45Z</time></trkpt><trkpt lat="45.6929212902" lon="6.4026591461"><ele>360.15</ele><time>2014-09-06T15:48:46Z</time></trkpt><trkpt lat="45.6929429155" lon="6.4026804361"><ele>360.15</ele><time>2014-09-06T15:48:47Z</time></trkpt><trkpt lat="45.6929616071" lon="6.4027191605"><ele>360.63</ele><time>2014-09-06T15:48:48Z</time></trkpt><trkpt lat="45.6929714140" lon="6.4027653448"><ele>360.63</ele><time>2014-09-06T15:48:50Z</time></trkpt><trkpt lat="45.6929711625" lon="6.4028101042"><ele>361.11</ele><time>2014-09-06T15:48:51Z</time></trkpt><trkpt lat="45.6931269821" lon="6.4030995313"><ele>361.11</ele><time>2014-09-06T15:48:58Z</time></trkpt><trkpt lat="45.6937356759" lon="6.4031105954"><ele>361.59</ele><time>2014-09-06T15:49:14Z</time></trkpt><trkpt lat="45.6941671763" lon="6.4033281896"><ele>363.52</ele><time>2014-09-06T15:49:26Z</time></trkpt><trkpt lat="45.6946006883" lon="6.4038312715"><ele>363.04</ele><time>2014-09-06T15:49:40Z</time></trkpt><trkpt lat="45.6949480344" lon="6.4042049367"><ele>364.48</ele><time>2014-09-06T15:49:51Z</time></trkpt><trkpt lat="45.6950268243" lon="6.4042512048"><ele>364.48</ele><time>2014-09-06T15:49:53Z</time></trkpt><trkpt lat="45.6950654648" lon="6.4042776916"><ele>364.48</ele><time>2014-09-06T15:49:54Z</time></trkpt><trkpt lat="45.6951046083" lon="6.4043014962"><ele>364.96</ele><time>2014-09-06T15:49:55Z</time></trkpt><trkpt lat="45.6951451767" lon="6.4043220319"><ele>364.96</ele><time>2014-09-06T15:49:56Z</time></trkpt><trkpt lat="45.6951860804" lon="6.4043423161"><ele>365.44</ele><time>2014-09-06T15:49:57Z</time></trkpt><trkpt lat="45.6959341653" lon="6.4046514407"><ele>363.52</ele><time>2014-09-06T15:50:14Z</time></trkpt><trkpt lat="45.6965517439" lon="6.4049102738"><ele>363.04</ele><time>2014-09-06T15:50:30Z</time></trkpt><trkpt lat="45.6966026220" lon="6.4049070887"><ele>365.44</ele><time>2014-09-06T15:50:50Z</time></trkpt><trkpt lat="45.6966486387" lon="6.4049294684"><ele>365.92</ele><time>2014-09-06T15:50:53Z</time></trkpt><trkpt lat="45.6966717727" lon="6.4049365092"><ele>365.92</ele><time>2014-09-06T15:50:54Z</time></trkpt><trkpt lat="45.6970172748" lon="6.4050779957"><ele>366.88</ele><time>2014-09-06T15:51:07Z</time></trkpt><trkpt lat="45.6976320036" lon="6.4053595439"><ele>366.40</ele><time>2014-09-06T15:51:24Z</time></trkpt><trkpt lat="45.6982583832" lon="6.4056576882"><ele>364.48</ele><time>2014-09-06T15:51:40Z</time></trkpt><trkpt lat="45.6988957431" lon="6.4059556648"><ele>364.48</ele><time>2014-09-06T15:51:56Z</time></trkpt><trkpt lat="45.6990969088" lon="6.4060525596"><ele>364.48</ele><time>2014-09-06T15:52:01Z</time></trkpt><trkpt lat="45.6991362199" lon="6.4060757775"><ele>364.48</ele><time>2014-09-06T15:52:02Z</time></trkpt><trkpt lat="45.6998491846" lon="6.4065126423"><ele>365.44</ele><time>2014-09-06T15:52:20Z</time></trkpt><trkpt lat="45.7003650069" lon="6.4069253672"><ele>365.92</ele><time>2014-09-06T15:52:35Z</time></trkpt><trkpt lat="45.7010149397" lon="6.4073077496"><ele>367.36</ele><time>2014-09-06T15:52:53Z</time></trkpt><trkpt lat="45.7016833965" lon="6.4074941631"><ele>366.40</ele><time>2014-09-06T15:53:10Z</time></trkpt><trkpt lat="45.7023542002" lon="6.4075193089"><ele>368.32</ele><time>2014-09-06T15:53:28Z</time></trkpt><trkpt lat="45.7029348146" lon="6.4075477235"><ele>368.80</ele><time>2014-09-06T15:53:46Z</time></trkpt><trkpt lat="45.7033517305" lon="6.4075930696"><ele>371.21</ele><time>2014-09-06T15:54:00Z</time></trkpt><trkpt lat="45.7035559136" lon="6.4072165545"><ele>375.05</ele><time>2014-09-06T15:54:12Z</time></trkpt><trkpt lat="45.7035871781" lon="6.4065464213"><ele>377.45</ele><time>2014-09-06T15:54:28Z</time></trkpt><trkpt lat="45.7036150061" lon="6.4062404819"><ele>377.94</ele><time>2014-09-06T15:54:41Z</time></trkpt><trkpt lat="45.7036107313" lon="6.4062227122"><ele>376.01</ele><time>2014-09-06T15:55:13Z</time></trkpt><trkpt lat="45.7036179397" lon="6.4061922859"><ele>377.45</ele><time>2014-09-06T15:55:45Z</time></trkpt><trkpt lat="45.7036225498" lon="6.4059491269"><ele>377.94</ele><time>2014-09-06T15:55:55Z</time></trkpt><trkpt lat="45.7036388945" lon="6.4058625419"><ele>377.45</ele><time>2014-09-06T15:55:57Z</time></trkpt><trkpt lat="45.7036683150" lon="6.4058320317"><ele>377.45</ele><time>2014-09-06T15:55:58Z</time></trkpt><trkpt lat="45.7037126552" lon="6.4058175310"><ele>377.45</ele><time>2014-09-06T15:56:00Z</time></trkpt><trkpt lat="45.7037664670" lon="6.4058064669"><ele>376.97</ele><time>2014-09-06T15:56:01Z</time></trkpt><trkpt lat="45.7045301422" lon="6.4057875238"><ele>374.57</ele><time>2014-09-06T15:56:17Z</time></trkpt><trkpt lat="45.7053328771" lon="6.4055914711"><ele>370.73</ele><time>2014-09-06T15:56:33Z</time></trkpt><trkpt lat="45.7061995659" lon="6.4053194784"><ele>372.17</ele><time>2014-09-06T15:56:52Z</time></trkpt><trkpt lat="45.7067374326" lon="6.4051796682"><ele>372.17</ele><time>2014-09-06T15:57:05Z</time></trkpt><trkpt lat="45.7074348908" lon="6.4052091725"><ele>372.17</ele><time>2014-09-06T15:57:22Z</time></trkpt><trkpt lat="45.7080928702" lon="6.4054343104"><ele>373.13</ele><time>2014-09-06T15:57:39Z</time></trkpt><trkpt lat="45.7087244466" lon="6.4055880345"><ele>374.09</ele><time>2014-09-06T15:57:55Z</time></trkpt><trkpt lat="45.7092997804" lon="6.4056069776"><ele>375.53</ele><time>2014-09-06T15:58:09Z</time></trkpt><trkpt lat="45.7093435340" lon="6.4056067262"><ele>376.01</ele><time>2014-09-06T15:58:10Z</time></trkpt><trkpt lat="45.7100467756" lon="6.4056066424"><ele>377.45</ele><time>2014-09-06T15:58:27Z</time></trkpt><trkpt lat="45.7107438147" lon="6.4056942333"><ele>379.38</ele><time>2014-09-06T15:58:44Z</time></trkpt><trkpt lat="45.7115177996" lon="6.4059079718"><ele>378.90</ele><time>2014-09-06T15:59:02Z</time></trkpt><trkpt lat="45.7119818218" lon="6.4060865063"><ele>377.94</ele><time>2014-09-06T15:59:13Z</time></trkpt><trkpt lat="45.7120222226" lon="6.4061023481"><ele>377.45</ele><time>2014-09-06T15:59:14Z</time></trkpt><trkpt lat="45.7120580971" lon="6.4061225485"><ele>377.45</ele><time>2014-09-06T15:59:15Z</time></trkpt><trkpt lat="45.7128103729" lon="6.4064900111"><ele>377.45</ele><time>2014-09-06T15:59:33Z</time></trkpt><trkpt lat="45.7135383412" lon="6.4068329986"><ele>377.94</ele><time>2014-09-06T15:59:51Z</time></trkpt><trkpt lat="45.7140977494" lon="6.4070946816"><ele>379.86</ele><time>2014-09-06T16:00:05Z</time></trkpt><trkpt lat="45.7148066908" lon="6.4074250124"><ele>379.38</ele><time>2014-09-06T16:00:23Z</time></trkpt><trkpt lat="45.7149242889" lon="6.4074783213"><ele>378.90</ele><time>2014-09-06T16:00:26Z</time></trkpt><trkpt lat="45.7149635162" lon="6.4074979350"><ele>378.90</ele><time>2014-09-06T16:00:27Z</time></trkpt><trkpt lat="45.7152666897" lon="6.4076488093"><ele>379.86</ele><time>2014-09-06T16:00:35Z</time></trkpt><trkpt lat="45.7156929933" lon="6.4078393299"><ele>379.86</ele><time>2014-09-06T16:00:46Z</time></trkpt><trkpt lat="45.7158110943" lon="6.4078928065"><ele>379.86</ele><time>2014-09-06T16:00:49Z</time></trkpt><trkpt lat="45.7164927945" lon="6.4082146715"><ele>381.30</ele><time>2014-09-06T16:01:06Z</time></trkpt><trkpt lat="45.7172135543" lon="6.4085550606"><ele>380.82</ele><time>2014-09-06T16:01:24Z</time></trkpt><trkpt lat="45.7180221565" lon="6.4089318272"><ele>382.26</ele><time>2014-09-06T16:01:44Z</time></trkpt><trkpt lat="45.7182229031" lon="6.4090257045"><ele>382.74</ele><time>2014-09-06T16:01:49Z</time></trkpt><trkpt lat="45.7186733466" lon="6.4092431311"><ele>382.74</ele><time>2014-09-06T16:02:00Z</time></trkpt><trkpt lat="45.7187157590" lon="6.4092590567"><ele>382.74</ele><time>2014-09-06T16:02:01Z</time></trkpt><trkpt lat="45.7187557407" lon="6.4092789218"><ele>382.74</ele><time>2014-09-06T16:02:02Z</time></trkpt><trkpt lat="45.7194629218" lon="6.4096521679"><ele>385.63</ele><time>2014-09-06T16:02:20Z</time></trkpt><trkpt lat="45.7202006970" lon="6.4101049583"><ele>386.11</ele><time>2014-09-06T16:02:39Z</time></trkpt><trkpt lat="45.7208217122" lon="6.4105350338"><ele>386.59</ele><time>2014-09-06T16:02:55Z</time></trkpt><trkpt lat="45.7214185875" lon="6.4110139757"><ele>386.59</ele><time>2014-09-06T16:03:11Z</time></trkpt><trkpt lat="45.7215305697" lon="6.4111155644"><ele>386.59</ele><time>2014-09-06T16:03:14Z</time></trkpt><trkpt lat="45.7219463959" lon="6.4114534389"><ele>387.07</ele><time>2014-09-06T16:03:25Z</time></trkpt><trkpt lat="45.7219847851" lon="6.4114856254"><ele>387.55</ele><time>2014-09-06T16:03:26Z</time></trkpt><trkpt lat="45.7220214978" lon="6.4115147106"><ele>387.55</ele><time>2014-09-06T16:03:27Z</time></trkpt><trkpt lat="45.7220943365" lon="6.4115784131"><ele>387.55</ele><time>2014-09-06T16:03:29Z</time></trkpt><trkpt lat="45.7227331214" lon="6.4121168666"><ele>388.03</ele><time>2014-09-06T16:03:46Z</time></trkpt><trkpt lat="45.7228069659" lon="6.4121785574"><ele>388.03</ele><time>2014-09-06T16:03:48Z</time></trkpt><trkpt lat="45.7229542360" lon="6.4122976642"><ele>388.03</ele><time>2014-09-06T16:03:52Z</time></trkpt><trkpt lat="45.7230673078" lon="6.4123818185"><ele>388.03</ele><time>2014-09-06T16:03:55Z</time></trkpt><trkpt lat="45.7238091063" lon="6.4130037557"><ele>388.51</ele><time>2014-09-06T16:04:15Z</time></trkpt><trkpt lat="45.7242100965" lon="6.4133412950"><ele>388.51</ele><time>2014-09-06T16:04:26Z</time></trkpt><trkpt lat="45.7245125994" lon="6.4135919139"><ele>389.47</ele><time>2014-09-06T16:04:34Z</time></trkpt><trkpt lat="45.7245523296" lon="6.4136225916"><ele>389.47</ele><time>2014-09-06T16:04:35Z</time></trkpt><trkpt lat="45.7252290007" lon="6.4141918067"><ele>390.43</ele><time>2014-09-06T16:04:52Z</time></trkpt><trkpt lat="45.7255632710" lon="6.4144657273"><ele>390.43</ele><time>2014-09-06T16:05:01Z</time></trkpt><trkpt lat="45.7261589728" lon="6.4148379676"><ele>390.43</ele><time>2014-09-06T16:05:16Z</time></trkpt><trkpt lat="45.7263149600" lon="6.4149526320"><ele>390.43</ele><time>2014-09-06T16:05:20Z</time></trkpt><trkpt lat="45.7263383456" lon="6.4150131494"><ele>390.91</ele><time>2014-09-06T16:05:21Z</time></trkpt><trkpt lat="45.7263434585" lon="6.4150782768"><ele>390.91</ele><time>2014-09-06T16:05:23Z</time></trkpt><trkpt lat="45.7263632398" lon="6.4151547197"><ele>390.91</ele><time>2014-09-06T16:05:24Z</time></trkpt><trkpt lat="45.7263886370" lon="6.4151956234"><ele>391.39</ele><time>2014-09-06T16:05:25Z</time></trkpt><trkpt lat="45.7264200691" lon="6.4152295701"><ele>391.39</ele><time>2014-09-06T16:05:26Z</time></trkpt><trkpt lat="45.7264561113" lon="6.4152595773"><ele>391.39</ele><time>2014-09-06T16:05:27Z</time></trkpt><trkpt lat="45.7264907286" lon="6.4152799454"><ele>391.39</ele><time>2014-09-06T16:05:28Z</time></trkpt><trkpt lat="45.7265286148" lon="6.4152935240"><ele>391.39</ele><time>2014-09-06T16:05:29Z</time></trkpt><trkpt lat="45.7265669201" lon="6.4153050911"><ele>391.87</ele><time>2014-09-06T16:05:30Z</time></trkpt><trkpt lat="45.7270147651" lon="6.4156979509"><ele>391.87</ele><time>2014-09-06T16:05:43Z</time></trkpt><trkpt lat="45.7276793662" lon="6.4162577782"><ele>392.84</ele><time>2014-09-06T16:06:01Z</time></trkpt><trkpt lat="45.7283683587" lon="6.4168390632"><ele>393.32</ele><time>2014-09-06T16:06:20Z</time></trkpt><trkpt lat="45.7289649826" lon="6.4173357747"><ele>393.32</ele><time>2014-09-06T16:06:36Z</time></trkpt><trkpt lat="45.7296828087" lon="6.4179401100"><ele>393.80</ele><time>2014-09-06T16:06:55Z</time></trkpt><trkpt lat="45.7302728109" lon="6.4184394199"><ele>394.76</ele><time>2014-09-06T16:07:11Z</time></trkpt><trkpt lat="45.7303108647" lon="6.4184681699"><ele>395.24</ele><time>2014-09-06T16:07:12Z</time></trkpt><trkpt lat="45.7307042275" lon="6.4187653083"><ele>397.64</ele><time>2014-09-06T16:07:26Z</time></trkpt><trkpt lat="45.7311130129" lon="6.4191086311"><ele>400.05</ele><time>2014-09-06T16:07:42Z</time></trkpt><trkpt lat="45.7314408291" lon="6.4193571545"><ele>399.57</ele><time>2014-09-06T16:07:53Z</time></trkpt><trkpt lat="45.7320051827" lon="6.4198946021"><ele>397.16</ele><time>2014-09-06T16:08:08Z</time></trkpt><trkpt lat="45.7323292270" lon="6.4202183113"><ele>397.64</ele><time>2014-09-06T16:08:20Z</time></trkpt><trkpt lat="45.7323907502" lon="6.4202802535"><ele>398.12</ele><time>2014-09-06T16:08:31Z</time></trkpt><trkpt lat="45.7323897444" lon="6.4202888869"><ele>395.72</ele><time>2014-09-06T16:09:16Z</time></trkpt><trkpt lat="45.7323936839" lon="6.4202876296"><ele>397.64</ele><time>2014-09-06T16:09:54Z</time></trkpt><trkpt lat="45.7323917560" lon="6.4202879649"><ele>397.64</ele><time>2014-09-06T16:10:15Z</time></trkpt><trkpt lat="45.7324064244" lon="6.4202865399"><ele>397.64</ele><time>2014-09-06T16:10:19Z</time></trkpt><trkpt lat="45.7324167341" lon="6.4202959277"><ele>397.64</ele><time>2014-09-06T16:10:20Z</time></trkpt><trkpt lat="45.7324288040" lon="6.4203051478"><ele>398.12</ele><time>2014-09-06T16:10:21Z</time></trkpt><trkpt lat="45.7324454840" lon="6.4203135297"><ele>398.12</ele><time>2014-09-06T16:10:22Z</time></trkpt><trkpt lat="45.7324648462" lon="6.4203230012"><ele>398.12</ele><time>2014-09-06T16:10:23Z</time></trkpt><trkpt lat="45.7324841246" lon="6.4203355741"><ele>398.12</ele><time>2014-09-06T16:10:24Z</time></trkpt><trkpt lat="45.7325067557" lon="6.4203551877"><ele>398.60</ele><time>2014-09-06T16:10:25Z</time></trkpt><trkpt lat="45.7325288840" lon="6.4203750528"><ele>398.60</ele><time>2014-09-06T16:10:26Z</time></trkpt><trkpt lat="45.7329515833" lon="6.4207244944"><ele>399.08</ele><time>2014-09-06T16:10:40Z</time></trkpt><trkpt lat="45.7333047967" lon="6.4209824894"><ele>399.57</ele><time>2014-09-06T16:10:51Z</time></trkpt><trkpt lat="45.7338120695" lon="6.4214009978"><ele>401.01</ele><time>2014-09-06T16:11:07Z</time></trkpt><trkpt lat="45.7343299035" lon="6.4218348451"><ele>401.97</ele><time>2014-09-06T16:11:23Z</time></trkpt><trkpt lat="45.7349815965" lon="6.4223691914"><ele>402.45</ele><time>2014-09-06T16:11:43Z</time></trkpt><trkpt lat="45.7354117557" lon="6.4225474745"><ele>402.45</ele><time>2014-09-06T16:11:57Z</time></trkpt><trkpt lat="45.7354835887" lon="6.4224449638"><ele>402.45</ele><time>2014-09-06T16:12:02Z</time></trkpt><trkpt lat="45.7355140988" lon="6.4224599674"><ele>402.45</ele><time>2014-09-06T16:12:03Z</time></trkpt><trkpt lat="45.7355525717" lon="6.4224896394"><ele>402.45</ele><time>2014-09-06T16:12:05Z</time></trkpt><trkpt lat="45.7355885301" lon="6.4225059841"><ele>402.45</ele><time>2014-09-06T16:12:06Z</time></trkpt><trkpt lat="45.7356217224" lon="6.4225180540"><ele>402.45</ele><time>2014-09-06T16:12:07Z</time></trkpt><trkpt lat="45.7356568426" lon="6.4225318003"><ele>401.97</ele><time>2014-09-06T16:12:08Z</time></trkpt><trkpt lat="45.7356938068" lon="6.4225509111"><ele>402.45</ele><time>2014-09-06T16:12:09Z</time></trkpt><trkpt lat="45.7357259933" lon="6.4225720335"><ele>402.45</ele><time>2014-09-06T16:12:10Z</time></trkpt><trkpt lat="45.7362669613" lon="6.4228545036"><ele>403.89</ele><time>2014-09-06T16:12:25Z</time></trkpt><trkpt lat="45.7369148824" lon="6.4230885264"><ele>405.81</ele><time>2014-09-06T16:12:42Z</time></trkpt><trkpt lat="45.7375026215" lon="6.4232673123"><ele>408.22</ele><time>2014-09-06T16:12:57Z</time></trkpt><trkpt lat="45.7381855790" lon="6.4233972318"><ele>408.70</ele><time>2014-09-06T16:13:14Z</time></trkpt><trkpt lat="45.7386773452" lon="6.4234540612"><ele>409.66</ele><time>2014-09-06T16:13:26Z</time></trkpt><trkpt lat="45.7387185842" lon="6.4234559890"><ele>410.14</ele><time>2014-09-06T16:13:27Z</time></trkpt><trkpt lat="45.7387600746" lon="6.4234600123"><ele>410.14</ele><time>2014-09-06T16:13:28Z</time></trkpt><trkpt lat="45.7393821795" lon="6.4234093018"><ele>409.66</ele><time>2014-09-06T16:13:44Z</time></trkpt><trkpt lat="45.7394069061" lon="6.4233921189"><ele>409.66</ele><time>2014-09-06T16:13:45Z</time></trkpt><trkpt lat="45.7394265197" lon="6.4233706612"><ele>410.14</ele><time>2014-09-06T16:13:46Z</time></trkpt><trkpt lat="45.7397867739" lon="6.4232777059"><ele>410.62</ele><time>2014-09-06T16:13:58Z</time></trkpt><trkpt lat="45.7403409015" lon="6.4230281767"><ele>408.70</ele><time>2014-09-06T16:14:13Z</time></trkpt><trkpt lat="45.7409478351" lon="6.4227320440"><ele>409.66</ele><time>2014-09-06T16:14:30Z</time></trkpt><trkpt lat="45.7412795071" lon="6.4224529266"><ele>410.62</ele><time>2014-09-06T16:14:43Z</time></trkpt><trkpt lat="45.7415726222" lon="6.4223358314"><ele>410.62</ele><time>2014-09-06T16:14:54Z</time></trkpt><trkpt lat="45.7420192938" lon="6.4221567940"><ele>409.66</ele><time>2014-09-06T16:15:08Z</time></trkpt><trkpt lat="45.7425433304" lon="6.4218979608"><ele>411.58</ele><time>2014-09-06T16:15:26Z</time></trkpt><trkpt lat="45.7430261280" lon="6.4216095395"><ele>411.58</ele><time>2014-09-06T16:15:43Z</time></trkpt><trkpt lat="45.7434292976" lon="6.4214136545"><ele>412.54</ele><time>2014-09-06T16:15:58Z</time></trkpt><trkpt lat="45.7439146098" lon="6.4211411588"><ele>414.95</ele><time>2014-09-06T16:16:15Z</time></trkpt><trkpt lat="45.7443168573" lon="6.4208384883"><ele>414.47</ele><time>2014-09-06T16:16:30Z</time></trkpt><trkpt lat="45.7445686497" lon="6.4207242429"><ele>415.43</ele><time>2014-09-06T16:16:40Z</time></trkpt><trkpt lat="45.7447695639" lon="6.4202755596"><ele>414.47</ele><time>2014-09-06T16:16:52Z</time></trkpt><trkpt lat="45.7450117171" lon="6.4197931811"><ele>413.02</ele><time>2014-09-06T16:17:07Z</time></trkpt><trkpt lat="45.7450727373" lon="6.4197190851"><ele>413.50</ele><time>2014-09-06T16:17:12Z</time></trkpt><trkpt lat="45.7450770959" lon="6.4197000582"><ele>413.50</ele><time>2014-09-06T16:17:13Z</time></trkpt><trkpt lat="45.7450838014" lon="6.4196734037"><ele>413.50</ele><time>2014-09-06T16:17:14Z</time></trkpt><trkpt lat="45.7450890820" lon="6.4196415525"><ele>413.50</ele><time>2014-09-06T16:17:15Z</time></trkpt><trkpt lat="45.7450934406" lon="6.4196091983"><ele>413.50</ele><time>2014-09-06T16:17:16Z</time></trkpt><trkpt lat="45.7450986374" lon="6.4195722342"><ele>413.50</ele><time>2014-09-06T16:17:17Z</time></trkpt><trkpt lat="45.7451021578" lon="6.4195355214"><ele>413.50</ele><time>2014-09-06T16:17:18Z</time></trkpt><trkpt lat="45.7451061811" lon="6.4195023291"><ele>413.98</ele><time>2014-09-06T16:17:19Z</time></trkpt><trkpt lat="45.7451058459" lon="6.4194719866"><ele>413.50</ele><time>2014-09-06T16:17:20Z</time></trkpt><trkpt lat="45.7451070193" lon="6.4194390457"><ele>413.98</ele><time>2014-09-06T16:17:21Z</time></trkpt><trkpt lat="45.7451104559" lon="6.4194042608"><ele>413.98</ele><time>2014-09-06T16:17:22Z</time></trkpt><trkpt lat="45.7451205980" lon="6.4193699788"><ele>413.98</ele><time>2014-09-06T16:17:23Z</time></trkpt><trkpt lat="45.7451381162" lon="6.4193402231"><ele>413.98</ele><time>2014-09-06T16:17:24Z</time></trkpt><trkpt lat="45.7451546285" lon="6.4193111379"><ele>413.98</ele><time>2014-09-06T16:17:25Z</time></trkpt><trkpt lat="45.7451684587" lon="6.4192767721"><ele>413.98</ele><time>2014-09-06T16:17:26Z</time></trkpt><trkpt lat="45.7451836299" lon="6.4192430768"><ele>413.98</ele><time>2014-09-06T16:17:27Z</time></trkpt><trkpt lat="45.7452031597" lon="6.4192102198"><ele>413.98</ele><time>2014-09-06T16:17:28Z</time></trkpt><trkpt lat="45.7452269644" lon="6.4191785362"><ele>413.98</ele><time>2014-09-06T16:17:29Z</time></trkpt><trkpt lat="45.7455983665" lon="6.4186103269"><ele>413.98</ele><time>2014-09-06T16:17:45Z</time></trkpt><trkpt lat="45.7457560301" lon="6.4181996137"><ele>413.50</ele><time>2014-09-06T16:17:56Z</time></trkpt><trkpt lat="45.7457618136" lon="6.4181616437"><ele>413.50</ele><time>2014-09-06T16:17:57Z</time></trkpt><trkpt lat="45.7457753923" lon="6.4181231707"><ele>413.50</ele><time>2014-09-06T16:17:58Z</time></trkpt><trkpt lat="45.7459216565" lon="6.4176756609"><ele>413.02</ele><time>2014-09-06T16:18:10Z</time></trkpt><trkpt lat="45.7461819984" lon="6.4171833917"><ele>413.50</ele><time>2014-09-06T16:18:25Z</time></trkpt><trkpt lat="45.7463954017" lon="6.4166208822"><ele>413.02</ele><time>2014-09-06T16:18:39Z</time></trkpt><trkpt lat="45.7463234011" lon="6.4161188062"><ele>412.54</ele><time>2014-09-06T16:18:50Z</time></trkpt><trkpt lat="45.7460552640" lon="6.4157024771"><ele>412.54</ele><time>2014-09-06T16:19:03Z</time></trkpt><trkpt lat="45.7456042338" lon="6.4152403828"><ele>412.54</ele><time>2014-09-06T16:19:20Z</time></trkpt><trkpt lat="45.7455992885" lon="6.4146462735"><ele>412.54</ele><time>2014-09-06T16:19:32Z</time></trkpt><trkpt lat="45.7458561100" lon="6.4140706882"><ele>412.54</ele><time>2014-09-06T16:19:46Z</time></trkpt><trkpt lat="45.7462840900" lon="6.4135384373"><ele>415.43</ele><time>2014-09-06T16:20:02Z</time></trkpt><trkpt lat="45.7466523070" lon="6.4133200049"><ele>415.91</ele><time>2014-09-06T16:20:14Z</time></trkpt><trkpt lat="45.7471025828" lon="6.4131381176"><ele>417.35</ele><time>2014-09-06T16:20:27Z</time></trkpt><trkpt lat="45.7474961132" lon="6.4129445795"><ele>417.35</ele><time>2014-09-06T16:20:39Z</time></trkpt><trkpt lat="45.7479274459" lon="6.4128356148"><ele>418.79</ele><time>2014-09-06T16:20:51Z</time></trkpt><trkpt lat="45.7483571023" lon="6.4123372268"><ele>418.31</ele><time>2014-09-06T16:21:06Z</time></trkpt><trkpt lat="45.7485063002" lon="6.4120281022"><ele>418.79</ele><time>2014-09-06T16:21:19Z</time></trkpt><trkpt lat="45.7485156041" lon="6.4119930658"><ele>419.27</ele><time>2014-09-06T16:21:21Z</time></trkpt><trkpt lat="45.7485220581" lon="6.4119781461"><ele>419.27</ele><time>2014-09-06T16:21:22Z</time></trkpt><trkpt lat="45.7485335413" lon="6.4119548444"><ele>418.31</ele><time>2014-09-06T16:21:40Z</time></trkpt><trkpt lat="45.7485635486" lon="6.4119737875"><ele>417.83</ele><time>2014-09-06T16:21:58Z</time></trkpt><trkpt lat="45.7485678233" lon="6.4119733684"><ele>416.39</ele><time>2014-09-06T16:22:08Z</time></trkpt><trkpt lat="45.7485780492" lon="6.4119604602"><ele>416.39</ele><time>2014-09-06T16:22:09Z</time></trkpt><trkpt lat="45.7485894486" lon="6.4119511563"><ele>416.87</ele><time>2014-09-06T16:22:10Z</time></trkpt><trkpt lat="45.7486072183" lon="6.4119400922"><ele>417.35</ele><time>2014-09-06T16:22:11Z</time></trkpt><trkpt lat="45.7486253232" lon="6.4119193051"><ele>417.35</ele><time>2014-09-06T16:22:12Z</time></trkpt><trkpt lat="45.7486415002" lon="6.4118866995"><ele>417.35</ele><time>2014-09-06T16:22:13Z</time></trkpt><trkpt lat="45.7486590184" lon="6.4118492324"><ele>417.83</ele><time>2014-09-06T16:22:14Z</time></trkpt><trkpt lat="45.7486811467" lon="6.4118096698"><ele>417.83</ele><time>2014-09-06T16:22:15Z</time></trkpt><trkpt lat="45.7489614375" lon="6.4112479985"><ele>418.31</ele><time>2014-09-06T16:22:29Z</time></trkpt><trkpt lat="45.7492043450" lon="6.4108944498"><ele>419.75</ele><time>2014-09-06T16:22:39Z</time></trkpt><trkpt lat="45.7494846359" lon="6.4102710877"><ele>419.27</ele><time>2014-09-06T16:22:53Z</time></trkpt><trkpt lat="45.7497378532" lon="6.4095933270"><ele>420.23</ele><time>2014-09-06T16:23:07Z</time></trkpt><trkpt lat="45.7499950938" lon="6.4087579865"><ele>421.68</ele><time>2014-09-06T16:23:24Z</time></trkpt><trkpt lat="45.7501779031" lon="6.4081965666"><ele>422.16</ele><time>2014-09-06T16:23:38Z</time></trkpt><trkpt lat="45.7503752131" lon="6.4075858612"><ele>422.64</ele><time>2014-09-06T16:23:51Z</time></trkpt><trkpt lat="45.7506466191" lon="6.4067178313"><ele>423.60</ele><time>2014-09-06T16:24:09Z</time></trkpt><trkpt lat="45.7508987468" lon="6.4059430081"><ele>424.08</ele><time>2014-09-06T16:24:25Z</time></trkpt><trkpt lat="45.7511652075" lon="6.4051323943"><ele>425.52</ele><time>2014-09-06T16:24:42Z</time></trkpt><trkpt lat="45.7515508588" lon="6.4042351954"><ele>426.96</ele><time>2014-09-06T16:25:02Z</time></trkpt><trkpt lat="45.7518991269" lon="6.4036400802"><ele>426.96</ele><time>2014-09-06T16:25:17Z</time></trkpt><trkpt lat="45.7521644980" lon="6.4032519981"><ele>427.92</ele><time>2014-09-06T16:25:29Z</time></trkpt><trkpt lat="45.7524917275" lon="6.4028567076"><ele>427.92</ele><time>2014-09-06T16:25:42Z</time></trkpt><trkpt lat="45.7530839927" lon="6.4023147337"><ele>427.92</ele><time>2014-09-06T16:26:00Z</time></trkpt><trkpt lat="45.7536973804" lon="6.4018186089"><ele>429.37</ele><time>2014-09-06T16:26:17Z</time></trkpt><trkpt lat="45.7543191500" lon="6.4013058878"><ele>430.81</ele><time>2014-09-06T16:26:34Z</time></trkpt><trkpt lat="45.7549431827" lon="6.4007199090"><ele>432.73</ele><time>2014-09-06T16:26:51Z</time></trkpt><trkpt lat="45.7555269822" lon="6.4000281505"><ele>432.73</ele><time>2014-09-06T16:27:07Z</time></trkpt><trkpt lat="45.7558388729" lon="6.3995891064"><ele>433.69</ele><time>2014-09-06T16:27:17Z</time></trkpt><trkpt lat="45.7558672875" lon="6.3995432574"><ele>433.69</ele><time>2014-09-06T16:27:18Z</time></trkpt><trkpt lat="45.7558972109" lon="6.3994978275"><ele>433.69</ele><time>2014-09-06T16:27:19Z</time></trkpt><trkpt lat="45.7561585587" lon="6.3990834262"><ele>433.21</ele><time>2014-09-06T16:27:28Z</time></trkpt><trkpt lat="45.7561866380" lon="6.3990392536"><ele>432.73</ele><time>2014-09-06T16:27:29Z</time></trkpt><trkpt lat="45.7563775778" lon="6.3986672647"><ele>432.25</ele><time>2014-09-06T16:27:39Z</time></trkpt><trkpt lat="45.7565478981" lon="6.3983621635"><ele>432.73</ele><time>2014-09-06T16:27:49Z</time></trkpt><trkpt lat="45.7568180468" lon="6.3978144899"><ele>432.73</ele><time>2014-09-06T16:28:01Z</time></trkpt><trkpt lat="45.7568628062" lon="6.3977113925"><ele>433.21</ele><time>2014-09-06T16:28:03Z</time></trkpt><trkpt lat="45.7572218031" lon="6.3969306182"><ele>433.69</ele><time>2014-09-06T16:28:19Z</time></trkpt><trkpt lat="45.7576127350" lon="6.3960929308"><ele>434.17</ele><time>2014-09-06T16:28:35Z</time></trkpt><trkpt lat="45.7578562293" lon="6.3955704030"><ele>434.17</ele><time>2014-09-06T16:28:46Z</time></trkpt><trkpt lat="45.7581893262" lon="6.3948599529"><ele>434.65</ele><time>2014-09-06T16:29:01Z</time></trkpt><trkpt lat="45.7584091835" lon="6.3943665940"><ele>435.13</ele><time>2014-09-06T16:29:11Z</time></trkpt><trkpt lat="45.7585714571" lon="6.3940195832"><ele>435.61</ele><time>2014-09-06T16:29:18Z</time></trkpt><trkpt lat="45.7585881371" lon="6.3939749915"><ele>435.61</ele><time>2014-09-06T16:29:19Z</time></trkpt><trkpt lat="45.7586122770" lon="6.3939207606"><ele>435.61</ele><time>2014-09-06T16:29:20Z</time></trkpt><trkpt lat="45.7586344052" lon="6.3938814495"><ele>435.61</ele><time>2014-09-06T16:29:21Z</time></trkpt><trkpt lat="45.7586592995" lon="6.3938340079"><ele>435.61</ele><time>2014-09-06T16:29:22Z</time></trkpt><trkpt lat="45.7586808410" lon="6.3937841356"><ele>435.61</ele><time>2014-09-06T16:29:23Z</time></trkpt><trkpt lat="45.7588882092" lon="6.3933444209"><ele>436.10</ele><time>2014-09-06T16:29:32Z</time></trkpt><trkpt lat="45.7589104213" lon="6.3932915311"><ele>436.10</ele><time>2014-09-06T16:29:33Z</time></trkpt><trkpt lat="45.7591672428" lon="6.3927555922"><ele>436.58</ele><time>2014-09-06T16:29:44Z</time></trkpt><trkpt lat="45.7595894393" lon="6.3918196689"><ele>437.54</ele><time>2014-09-06T16:30:03Z</time></trkpt><trkpt lat="45.7599487714" lon="6.3910429180"><ele>437.06</ele><time>2014-09-06T16:30:20Z</time></trkpt><trkpt lat="45.7600156590" lon="6.3908953965"><ele>437.54</ele><time>2014-09-06T16:30:29Z</time></trkpt><trkpt lat="45.7600400504" lon="6.3908835780"><ele>439.46</ele><time>2014-09-06T16:31:04Z</time></trkpt><trkpt lat="45.7600815408" lon="6.3907533232"><ele>438.98</ele><time>2014-09-06T16:31:26Z</time></trkpt><trkpt lat="45.7603301480" lon="6.3902141992"><ele>438.50</ele><time>2014-09-06T16:31:40Z</time></trkpt><trkpt lat="45.7604731433" lon="6.3899204973"><ele>438.50</ele><time>2014-09-06T16:31:46Z</time></trkpt><trkpt lat="45.7604979537" lon="6.3898723852"><ele>438.50</ele><time>2014-09-06T16:31:47Z</time></trkpt><trkpt lat="45.7605444733" lon="6.3897673599"><ele>438.98</ele><time>2014-09-06T16:31:49Z</time></trkpt><trkpt lat="45.7607557811" lon="6.3893217780"><ele>438.02</ele><time>2014-09-06T16:31:58Z</time></trkpt><trkpt lat="45.7611298654" lon="6.3885154389"><ele>439.46</ele><time>2014-09-06T16:32:14Z</time></trkpt><trkpt lat="45.7615801413" lon="6.3876382727"><ele>439.46</ele><time>2014-09-06T16:32:32Z</time></trkpt><trkpt lat="45.7621027529" lon="6.3867903594"><ele>440.90</ele><time>2014-09-06T16:32:50Z</time></trkpt><trkpt lat="45.7621337660" lon="6.3867443427"><ele>440.90</ele><time>2014-09-06T16:32:51Z</time></trkpt><trkpt lat="45.7621958759" lon="6.3866546564"><ele>440.90</ele><time>2014-09-06T16:32:53Z</time></trkpt><trkpt lat="45.7628093474" lon="6.3858387619"><ele>441.38</ele><time>2014-09-06T16:33:12Z</time></trkpt><trkpt lat="45.7632804941" lon="6.3852823712"><ele>441.38</ele><time>2014-09-06T16:33:26Z</time></trkpt><trkpt lat="45.7635234855" lon="6.3850113004"><ele>440.90</ele><time>2014-09-06T16:33:33Z</time></trkpt><trkpt lat="45.7639559079" lon="6.3844979927"><ele>441.38</ele><time>2014-09-06T16:33:46Z</time></trkpt><trkpt lat="45.7643118873" lon="6.3840592839"><ele>440.90</ele><time>2014-09-06T16:33:57Z</time></trkpt><trkpt lat="45.7647885662" lon="6.3834059145"><ele>442.34</ele><time>2014-09-06T16:34:12Z</time></trkpt><trkpt lat="45.7652068231" lon="6.3826985657"><ele>442.34</ele><time>2014-09-06T16:34:27Z</time></trkpt><trkpt lat="45.7652914803" lon="6.3825569116"><ele>441.86</ele><time>2014-09-06T16:34:30Z</time></trkpt><trkpt lat="45.7655912172" lon="6.3819533307"><ele>441.86</ele><time>2014-09-06T16:34:42Z</time></trkpt><trkpt lat="45.7656993438" lon="6.3816978503"><ele>442.34</ele><time>2014-09-06T16:34:47Z</time></trkpt><trkpt lat="45.7657233160" lon="6.3816509116"><ele>442.34</ele><time>2014-09-06T16:34:48Z</time></trkpt><trkpt lat="45.7657463662" lon="6.3816027157"><ele>442.34</ele><time>2014-09-06T16:34:49Z</time></trkpt><trkpt lat="45.7657669857" lon="6.3815468084"><ele>442.34</ele><time>2014-09-06T16:34:50Z</time></trkpt><trkpt lat="45.7657874376" lon="6.3814930804"><ele>442.34</ele><time>2014-09-06T16:34:51Z</time></trkpt><trkpt lat="45.7658066321" lon="6.3814384304"><ele>442.34</ele><time>2014-09-06T16:34:52Z</time></trkpt><trkpt lat="45.7658251561" lon="6.3813832775"><ele>441.86</ele><time>2014-09-06T16:34:53Z</time></trkpt><trkpt lat="45.7658472005" lon="6.3813307229"><ele>441.86</ele><time>2014-09-06T16:34:54Z</time></trkpt><trkpt lat="45.7661865000" lon="6.3803386409"><ele>440.90</ele><time>2014-09-06T16:35:12Z</time></trkpt><trkpt lat="45.7664345205" lon="6.3793435413"><ele>440.90</ele><time>2014-09-06T16:35:29Z</time></trkpt><trkpt lat="45.7666213531" lon="6.3783045206"><ele>440.90</ele><time>2014-09-06T16:35:46Z</time></trkpt><trkpt lat="45.7667266298" lon="6.3773380872"><ele>442.82</ele><time>2014-09-06T16:36:02Z</time></trkpt><trkpt lat="45.7667391188" lon="6.3771548588"><ele>443.31</ele><time>2014-09-06T16:36:05Z</time></trkpt><trkpt lat="45.7667943556" lon="6.3763639424"><ele>444.27</ele><time>2014-09-06T16:36:18Z</time></trkpt><trkpt lat="45.7668073475" lon="6.3761129882"><ele>443.79</ele><time>2014-09-06T16:36:22Z</time></trkpt><trkpt lat="45.7668267936" lon="6.3751959242"><ele>445.23</ele><time>2014-09-06T16:36:37Z</time></trkpt><trkpt lat="45.7668399531" lon="6.3745696284"><ele>448.59</ele><time>2014-09-06T16:36:48Z</time></trkpt><trkpt lat="45.7668451499" lon="6.3743140642"><ele>450.03</ele><time>2014-09-06T16:36:52Z</time></trkpt><trkpt lat="45.7668635063" lon="6.3735211361"><ele>453.88</ele><time>2014-09-06T16:37:05Z</time></trkpt><trkpt lat="45.7668583095" lon="6.3724938501"><ele>453.40</ele><time>2014-09-06T16:37:20Z</time></trkpt><trkpt lat="45.7668575551" lon="6.3712258358"><ele>448.11</ele><time>2014-09-06T16:37:39Z</time></trkpt><trkpt lat="45.7668625843" lon="6.3703459874"><ele>450.52</ele><time>2014-09-06T16:37:54Z</time></trkpt><trkpt lat="45.7668857183" lon="6.3696388900"><ele>452.92</ele><time>2014-09-06T16:38:06Z</time></trkpt><trkpt lat="45.7668983750" lon="6.3688923977"><ele>453.40</ele><time>2014-09-06T16:38:19Z</time></trkpt><trkpt lat="45.7668632548" lon="6.3680761680"><ele>454.84</ele><time>2014-09-06T16:38:33Z</time></trkpt><trkpt lat="45.7668184955" lon="6.3676517922"><ele>453.88</ele><time>2014-09-06T16:38:40Z</time></trkpt><trkpt lat="45.7668144722" lon="6.3676047698"><ele>453.88</ele><time>2014-09-06T16:38:41Z</time></trkpt><trkpt lat="45.7668065932" lon="6.3675424922"><ele>453.88</ele><time>2014-09-06T16:38:42Z</time></trkpt><trkpt lat="45.7667959481" lon="6.3674840704"><ele>453.88</ele><time>2014-09-06T16:38:43Z</time></trkpt><trkpt lat="45.7667850517" lon="6.3674277440"><ele>453.88</ele><time>2014-09-06T16:38:44Z</time></trkpt><trkpt lat="45.7666558027" lon="6.3667416014"><ele>453.40</ele><time>2014-09-06T16:38:56Z</time></trkpt><trkpt lat="45.7665812038" lon="6.3663846161"><ele>452.92</ele><time>2014-09-06T16:39:02Z</time></trkpt><trkpt lat="45.7663056906" lon="6.3654729165"><ele>450.52</ele><time>2014-09-06T16:39:18Z</time></trkpt><trkpt lat="45.7660128269" lon="6.3646405097"><ele>450.03</ele><time>2014-09-06T16:39:33Z</time></trkpt><trkpt lat="45.7657785527" lon="6.3640070893"><ele>450.03</ele><time>2014-09-06T16:39:45Z</time></trkpt><trkpt lat="45.7657563407" lon="6.3639546186"><ele>450.03</ele><time>2014-09-06T16:39:46Z</time></trkpt><trkpt lat="45.7657388225" lon="6.3638994657"><ele>450.03</ele><time>2014-09-06T16:39:47Z</time></trkpt><trkpt lat="45.7657231484" lon="6.3638443965"><ele>450.03</ele><time>2014-09-06T16:39:48Z</time></trkpt><trkpt lat="45.7657091506" lon="6.3637900818"><ele>450.03</ele><time>2014-09-06T16:39:49Z</time></trkpt><trkpt lat="45.7655175403" lon="6.3630803023"><ele>452.92</ele><time>2014-09-06T16:40:02Z</time></trkpt><trkpt lat="45.7653680071" lon="6.3622729573"><ele>455.80</ele><time>2014-09-06T16:40:17Z</time></trkpt><trkpt lat="45.7652833499" lon="6.3613284007"><ele>456.76</ele><time>2014-09-06T16:40:35Z</time></trkpt><trkpt lat="45.7652826793" lon="6.3611530513"><ele>457.24</ele><time>2014-09-06T16:40:38Z</time></trkpt><trkpt lat="45.7652838528" lon="6.3610950485"><ele>457.24</ele><time>2014-09-06T16:40:39Z</time></trkpt><trkpt lat="45.7652636524" lon="6.3602240849"><ele>458.69</ele><time>2014-09-06T16:40:55Z</time></trkpt><trkpt lat="45.7652566954" lon="6.3594911713"><ele>460.13</ele><time>2014-09-06T16:41:10Z</time></trkpt><trkpt lat="45.7652519178" lon="6.3588927034"><ele>459.65</ele><time>2014-09-06T16:41:23Z</time></trkpt><trkpt lat="45.7652327232" lon="6.3582184631"><ele>459.65</ele><time>2014-09-06T16:41:39Z</time></trkpt><trkpt lat="45.7652310468" lon="6.3579473924"><ele>459.65</ele><time>2014-09-06T16:41:48Z</time></trkpt><trkpt lat="45.7652275264" lon="6.3579194807"><ele>460.13</ele><time>2014-09-06T16:41:49Z</time></trkpt><trkpt lat="45.7652261853" lon="6.3578927424"><ele>460.13</ele><time>2014-09-06T16:41:50Z</time></trkpt><trkpt lat="45.7652285323" lon="6.3578613941"><ele>460.13</ele><time>2014-09-06T16:41:51Z</time></trkpt><trkpt lat="45.7652339805" lon="6.3578265253"><ele>460.13</ele><time>2014-09-06T16:41:52Z</time></trkpt><trkpt lat="45.7652373333" lon="6.3577891421"><ele>460.13</ele><time>2014-09-06T16:41:53Z</time></trkpt><trkpt lat="45.7652386744" lon="6.3577417005"><ele>460.13</ele><time>2014-09-06T16:41:54Z</time></trkpt><trkpt lat="45.7652384229" lon="6.3577037305"><ele>460.13</ele><time>2014-09-06T16:41:55Z</time></trkpt><trkpt lat="45.7652637362" lon="6.3569405582"><ele>459.65</ele><time>2014-09-06T16:42:10Z</time></trkpt><trkpt lat="45.7652780693" lon="6.3567370456"><ele>459.17</ele><time>2014-09-06T16:42:20Z</time></trkpt><trkpt lat="45.7652839366" lon="6.3567427453"><ele>460.13</ele><time>2014-09-06T16:42:37Z</time></trkpt><trkpt lat="45.7652944978" lon="6.3567886781"><ele>458.69</ele><time>2014-09-06T16:43:15Z</time></trkpt><trkpt lat="45.7652942464" lon="6.3567750994"><ele>455.80</ele><time>2014-09-06T16:43:47Z</time></trkpt><trkpt lat="45.7652729563" lon="6.3567400631"><ele>455.80</ele><time>2014-09-06T16:44:20Z</time></trkpt><trkpt lat="45.7652634010" lon="6.3567700703"><ele>457.72</ele><time>2014-09-06T16:44:52Z</time></trkpt><trkpt lat="45.7652986050" lon="6.3567683939"><ele>459.65</ele><time>2014-09-06T16:45:21Z</time></trkpt><trkpt lat="45.7652675919" lon="6.3566897716"><ele>460.61</ele><time>2014-09-06T16:45:40Z</time></trkpt><trkpt lat="45.7652805839" lon="6.3562716823"><ele>460.61</ele><time>2014-09-06T16:45:51Z</time></trkpt><trkpt lat="45.7653054781" lon="6.3554819394"><ele>459.17</ele><time>2014-09-06T16:46:06Z</time></trkpt><trkpt lat="45.7653152850" lon="6.3546918612"><ele>459.17</ele><time>2014-09-06T16:46:21Z</time></trkpt><trkpt lat="45.7652904745" lon="6.3537312113"><ele>460.13</ele><time>2014-09-06T16:46:39Z</time></trkpt><trkpt lat="45.7651727088" lon="6.3528277259"><ele>462.53</ele><time>2014-09-06T16:46:56Z</time></trkpt><trkpt lat="45.7649935875" lon="6.3518615440"><ele>462.05</ele><time>2014-09-06T16:47:14Z</time></trkpt><trkpt lat="45.7648098562" lon="6.3509273808"><ele>462.53</ele><time>2014-09-06T16:47:31Z</time></trkpt><trkpt lat="45.7646794338" lon="6.3502343651"><ele>462.53</ele><time>2014-09-06T16:47:44Z</time></trkpt><trkpt lat="45.7644962892" lon="6.3493350707"><ele>463.49</ele><time>2014-09-06T16:48:01Z</time></trkpt><trkpt lat="45.7644470874" lon="6.3491257746"><ele>463.97</ele><time>2014-09-06T16:48:06Z</time></trkpt><trkpt lat="45.7644496020" lon="6.3490909897"><ele>463.49</ele><time>2014-09-06T16:48:07Z</time></trkpt><trkpt lat="45.7644460816" lon="6.3490551990"><ele>463.97</ele><time>2014-09-06T16:48:08Z</time></trkpt><trkpt lat="45.7644377835" lon="6.3490173128"><ele>463.49</ele><time>2014-09-06T16:48:09Z</time></trkpt><trkpt lat="45.7644293178" lon="6.3489783369"><ele>463.49</ele><time>2014-09-06T16:48:10Z</time></trkpt><trkpt lat="45.7643915154" lon="6.3488190807"><ele>464.45</ele><time>2014-09-06T16:48:14Z</time></trkpt><trkpt lat="45.7643908449" lon="6.3487778418"><ele>464.45</ele><time>2014-09-06T16:48:15Z</time></trkpt><trkpt lat="45.7643822953" lon="6.3487221021"><ele>464.93</ele><time>2014-09-06T16:48:16Z</time></trkpt><trkpt lat="45.7642361987" lon="6.3479497097"><ele>465.90</ele><time>2014-09-06T16:48:32Z</time></trkpt><trkpt lat="45.7641279884" lon="6.3473641500"><ele>466.38</ele><time>2014-09-06T16:48:44Z</time></trkpt><trkpt lat="45.7639752701" lon="6.3465235289"><ele>466.38</ele><time>2014-09-06T16:49:01Z</time></trkpt><trkpt lat="45.7638104819" lon="6.3456491288"><ele>466.86</ele><time>2014-09-06T16:49:18Z</time></trkpt><trkpt lat="45.7636635471" lon="6.3449023850"><ele>466.86</ele><time>2014-09-06T16:49:33Z</time></trkpt><trkpt lat="45.7635099906" lon="6.3440294936"><ele>468.78</ele><time>2014-09-06T16:49:49Z</time></trkpt><trkpt lat="45.7632783148" lon="6.3434430957"><ele>469.74</ele><time>2014-09-06T16:50:03Z</time></trkpt><trkpt lat="45.7631262671" lon="6.3429306261"><ele>470.22</ele><time>2014-09-06T16:50:15Z</time></trkpt><trkpt lat="45.7630912308" lon="6.3427561149"><ele>470.22</ele><time>2014-09-06T16:50:20Z</time></trkpt><trkpt lat="45.7630909793" lon="6.3427296281"><ele>470.22</ele><time>2014-09-06T16:50:21Z</time></trkpt><trkpt lat="45.7630985230" lon="6.3427128643"><ele>470.22</ele><time>2014-09-06T16:50:22Z</time></trkpt><trkpt lat="45.7631078269" lon="6.3426870480"><ele>470.22</ele><time>2014-09-06T16:50:23Z</time></trkpt><trkpt lat="45.7631132752" lon="6.3426711224"><ele>470.22</ele><time>2014-09-06T16:50:24Z</time></trkpt><trkpt lat="45.7631154545" lon="6.3426495809"><ele>469.74</ele><time>2014-09-06T16:50:25Z</time></trkpt><trkpt lat="45.7631116826" lon="6.3426274527"><ele>470.22</ele><time>2014-09-06T16:50:26Z</time></trkpt><trkpt lat="45.7631095033" lon="6.3426075038"><ele>469.74</ele><time>2014-09-06T16:50:27Z</time></trkpt><trkpt lat="45.7631081622" lon="6.3425953500"><ele>469.74</ele><time>2014-09-06T16:50:28Z</time></trkpt><trkpt lat="45.7631058991" lon="6.3425801788"><ele>470.22</ele><time>2014-09-06T16:50:29Z</time></trkpt><trkpt lat="45.7631127723" lon="6.3425661810"><ele>469.74</ele><time>2014-09-06T16:50:30Z</time></trkpt><trkpt lat="45.7631224114" lon="6.3425525185"><ele>469.74</ele><time>2014-09-06T16:50:31Z</time></trkpt><trkpt lat="45.7631307095" lon="6.3425323181"><ele>469.74</ele><time>2014-09-06T16:50:32Z</time></trkpt><trkpt lat="45.7631292008" lon="6.3425116148"><ele>469.26</ele><time>2014-09-06T16:50:33Z</time></trkpt><trkpt lat="45.7631285302" lon="6.3424900733"><ele>469.74</ele><time>2014-09-06T16:50:34Z</time></trkpt><trkpt lat="45.7631353196" lon="6.3424641732"><ele>469.26</ele><time>2014-09-06T16:50:35Z</time></trkpt><trkpt lat="45.7631350681" lon="6.3423684519"><ele>468.30</ele><time>2014-09-06T16:50:45Z</time></trkpt><trkpt lat="45.7631484792" lon="6.3423772529"><ele>468.78</ele><time>2014-09-06T16:51:11Z</time></trkpt><trkpt lat="45.7631294522" lon="6.3423247822"><ele>470.22</ele><time>2014-09-06T16:51:37Z</time></trkpt><trkpt lat="45.7631245907" lon="6.3423143886"><ele>470.22</ele><time>2014-09-06T16:51:38Z</time></trkpt><trkpt lat="45.7631211542" lon="6.3422971219"><ele>469.74</ele><time>2014-09-06T16:51:39Z</time></trkpt><trkpt lat="45.7631203998" lon="6.3422748260"><ele>469.74</ele><time>2014-09-06T16:51:40Z</time></trkpt><trkpt lat="45.7631200645" lon="6.3422481716"><ele>470.22</ele><time>2014-09-06T16:51:41Z</time></trkpt><trkpt lat="45.7631156221" lon="6.3422196731"><ele>470.22</ele><time>2014-09-06T16:51:42Z</time></trkpt><trkpt lat="45.7631084975" lon="6.3421853911"><ele>470.22</ele><time>2014-09-06T16:51:43Z</time></trkpt><trkpt lat="45.7631023787" lon="6.3421513606"><ele>470.22</ele><time>2014-09-06T16:51:44Z</time></trkpt><trkpt lat="45.7629786618" lon="6.3414917048"><ele>470.22</ele><time>2014-09-06T16:51:58Z</time></trkpt><trkpt lat="45.7629067451" lon="6.3408521656"><ele>471.18</ele><time>2014-09-06T16:52:10Z</time></trkpt><trkpt lat="45.7627656776" lon="6.3401304837"><ele>472.63</ele><time>2014-09-06T16:52:24Z</time></trkpt><trkpt lat="45.7626136299" lon="6.3393010944"><ele>474.55</ele><time>2014-09-06T16:52:42Z</time></trkpt><trkpt lat="45.7624754962" lon="6.3385926560"><ele>475.99</ele><time>2014-09-06T16:52:58Z</time></trkpt><trkpt lat="45.7623727340" lon="6.3380321581"><ele>476.47</ele><time>2014-09-06T16:53:11Z</time></trkpt><trkpt lat="45.7622615900" lon="6.3374607638"><ele>476.95</ele><time>2014-09-06T16:53:24Z</time></trkpt><trkpt lat="45.7621300779" lon="6.3367750403"><ele>478.87</ele><time>2014-09-06T16:53:40Z</time></trkpt><trkpt lat="45.7620223705" lon="6.3362506684"><ele>480.80</ele><time>2014-09-06T16:53:57Z</time></trkpt><trkpt lat="45.7620242145" lon="6.3362265285"><ele>481.28</ele><time>2014-09-06T16:53:58Z</time></trkpt><trkpt lat="45.7620303333" lon="6.3361980300"><ele>481.28</ele><time>2014-09-06T16:53:59Z</time></trkpt><trkpt lat="45.7620281540" lon="6.3361742254"><ele>481.28</ele><time>2014-09-06T16:54:00Z</time></trkpt><trkpt lat="45.7619757671" lon="6.3359394483"><ele>481.76</ele><time>2014-09-06T16:54:08Z</time></trkpt><trkpt lat="45.7619694807" lon="6.3359051663"><ele>481.76</ele><time>2014-09-06T16:54:09Z</time></trkpt><trkpt lat="45.7619614340" lon="6.3358645141"><ele>481.76</ele><time>2014-09-06T16:54:10Z</time></trkpt><trkpt lat="45.7618578337" lon="6.3353432436"><ele>482.24</ele><time>2014-09-06T16:54:21Z</time></trkpt><trkpt lat="45.7617085520" lon="6.3345689233"><ele>484.16</ele><time>2014-09-06T16:54:36Z</time></trkpt><trkpt lat="45.7615479548" lon="6.3337241951"><ele>485.12</ele><time>2014-09-06T16:54:53Z</time></trkpt><trkpt lat="45.7614326198" lon="6.3331142440"><ele>485.60</ele><time>2014-09-06T16:55:07Z</time></trkpt><trkpt lat="45.7612672448" lon="6.3322147820"><ele>487.05</ele><time>2014-09-06T16:55:27Z</time></trkpt><trkpt lat="45.7611291111" lon="6.3315090258"><ele>488.01</ele><time>2014-09-06T16:55:43Z</time></trkpt><trkpt lat="45.7609702740" lon="6.3306996692"><ele>490.41</ele><time>2014-09-06T16:56:02Z</time></trkpt><trkpt lat="45.7608271111" lon="6.3298821822"><ele>489.93</ele><time>2014-09-06T16:56:19Z</time></trkpt><trkpt lat="45.7606717106" lon="6.3290965464"><ele>491.85</ele><time>2014-09-06T16:56:36Z</time></trkpt><trkpt lat="45.7605184894" lon="6.3282690011"><ele>491.85</ele><time>2014-09-06T16:56:54Z</time></trkpt><trkpt lat="45.7604128774" lon="6.3277180586"><ele>492.81</ele><time>2014-09-06T16:57:06Z</time></trkpt><trkpt lat="45.7602475025" lon="6.3268644456"><ele>494.26</ele><time>2014-09-06T16:57:24Z</time></trkpt><trkpt lat="45.7600833010" lon="6.3260070607"><ele>496.18</ele><time>2014-09-06T16:57:41Z</time></trkpt><trkpt lat="45.7599879988" lon="6.3255448826"><ele>496.18</ele><time>2014-09-06T16:57:52Z</time></trkpt><trkpt lat="45.7599859871" lon="6.3255204912"><ele>496.66</ele><time>2014-09-06T16:57:53Z</time></trkpt><trkpt lat="45.7599781081" lon="6.3254918251"><ele>496.66</ele><time>2014-09-06T16:57:54Z</time></trkpt><trkpt lat="45.7599484362" lon="6.3253267016"><ele>496.18</ele><time>2014-09-06T16:57:59Z</time></trkpt><trkpt lat="45.7599479333" lon="6.3252946828"><ele>496.66</ele><time>2014-09-06T16:58:00Z</time></trkpt><trkpt lat="45.7599425688" lon="6.3252564613"><ele>496.66</ele><time>2014-09-06T16:58:01Z</time></trkpt><trkpt lat="45.7598092966" lon="6.3245885074"><ele>496.66</ele><time>2014-09-06T16:58:17Z</time></trkpt><trkpt lat="45.7597899344" lon="6.3244353700"><ele>497.62</ele><time>2014-09-06T16:58:27Z</time></trkpt><trkpt lat="45.7597816363" lon="6.3244424108"><ele>498.58</ele><time>2014-09-06T16:58:52Z</time></trkpt><trkpt lat="45.7597730868" lon="6.3244011719"><ele>497.14</ele><time>2014-09-06T16:59:20Z</time></trkpt><trkpt lat="45.7596423291" lon="6.3238526601"><ele>497.62</ele><time>2014-09-06T16:59:33Z</time></trkpt><trkpt lat="45.7594500482" lon="6.3231434673"><ele>499.06</ele><time>2014-09-06T16:59:49Z</time></trkpt><trkpt lat="45.7591582742" lon="6.3222549018"><ele>499.54</ele><time>2014-09-06T17:00:09Z</time></trkpt><trkpt lat="45.7589673344" lon="6.3217819110"><ele>500.98</ele><time>2014-09-06T17:00:22Z</time></trkpt><trkpt lat="45.7587357424" lon="6.3212531805"><ele>501.95</ele><time>2014-09-06T17:00:36Z</time></trkpt><trkpt lat="45.7584777474" lon="6.3206941914"><ele>505.31</ele><time>2014-09-06T17:00:50Z</time></trkpt><trkpt lat="45.7581842970" lon="6.3200552389"><ele>504.35</ele><time>2014-09-06T17:01:06Z</time></trkpt><trkpt lat="45.7579206023" lon="6.3194984291"><ele>502.91</ele><time>2014-09-06T17:01:19Z</time></trkpt><trkpt lat="45.7577116415" lon="6.3190334011"><ele>501.46</ele><time>2014-09-06T17:01:30Z</time></trkpt><trkpt lat="45.7572167739" lon="6.3179800473"><ele>500.50</ele><time>2014-09-06T17:01:50Z</time></trkpt><trkpt lat="45.7570141833" lon="6.3175923843"><ele>500.02</ele><time>2014-09-06T17:01:58Z</time></trkpt><trkpt lat="45.7569918036" lon="6.3175513968"><ele>500.02</ele><time>2014-09-06T17:01:59Z</time></trkpt><trkpt lat="45.7569684181" lon="6.3174992613"><ele>500.02</ele><time>2014-09-06T17:02:00Z</time></trkpt><trkpt lat="45.7568327151" lon="6.3171788212"><ele>500.50</ele><time>2014-09-06T17:02:06Z</time></trkpt><trkpt lat="45.7566514146" lon="6.3167780824"><ele>500.98</ele><time>2014-09-06T17:02:14Z</time></trkpt><trkpt lat="45.7561654318" lon="6.3157347869"><ele>500.50</ele><time>2014-09-06T17:02:34Z</time></trkpt><trkpt lat="45.7560697943" lon="6.3155235630"><ele>500.50</ele><time>2014-09-06T17:02:38Z</time></trkpt><trkpt lat="45.7559716422" lon="6.3153166976"><ele>500.50</ele><time>2014-09-06T17:02:42Z</time></trkpt><trkpt lat="45.7555713225" lon="6.3144490868"><ele>499.54</ele><time>2014-09-06T17:02:59Z</time></trkpt><trkpt lat="45.7554231305" lon="6.3141449913"><ele>500.02</ele><time>2014-09-06T17:03:05Z</time></trkpt><trkpt lat="45.7553968113" lon="6.3140955381"><ele>500.02</ele><time>2014-09-06T17:03:06Z</time></trkpt><trkpt lat="45.7553742640" lon="6.3140418101"><ele>500.50</ele><time>2014-09-06T17:03:07Z</time></trkpt><trkpt lat="45.7553505432" lon="6.3139877468"><ele>500.50</ele><time>2014-09-06T17:03:08Z</time></trkpt><trkpt lat="45.7553245593" lon="6.3139348570"><ele>500.50</ele><time>2014-09-06T17:03:09Z</time></trkpt><trkpt lat="45.7548260037" lon="6.3128764741"><ele>501.95</ele><time>2014-09-06T17:03:29Z</time></trkpt><trkpt lat="45.7546252571" lon="6.3124514278"><ele>500.98</ele><time>2014-09-06T17:03:37Z</time></trkpt><trkpt lat="45.7545988541" lon="6.3123994600"><ele>500.98</ele><time>2014-09-06T17:03:38Z</time></trkpt><trkpt lat="45.7544707786" lon="6.3121298142"><ele>500.98</ele><time>2014-09-06T17:03:43Z</time></trkpt><trkpt lat="45.7544449624" lon="6.3120738231"><ele>500.98</ele><time>2014-09-06T17:03:44Z</time></trkpt><trkpt lat="45.7541246898" lon="6.3113824837"><ele>500.50</ele><time>2014-09-06T17:03:57Z</time></trkpt><trkpt lat="45.7540991250" lon="6.3113299292"><ele>500.50</ele><time>2014-09-06T17:03:58Z</time></trkpt><trkpt lat="45.7540484983" lon="6.3112214673"><ele>500.50</ele><time>2014-09-06T17:04:00Z</time></trkpt><trkpt lat="45.7540222630" lon="6.3111665659"><ele>500.50</ele><time>2014-09-06T17:04:01Z</time></trkpt><trkpt lat="45.7539967820" lon="6.3111137599"><ele>500.50</ele><time>2014-09-06T17:04:02Z</time></trkpt><trkpt lat="45.7539701276" lon="6.3110623788"><ele>500.50</ele><time>2014-09-06T17:04:03Z</time></trkpt><trkpt lat="45.7539464068" lon="6.3110102434"><ele>500.50</ele><time>2014-09-06T17:04:04Z</time></trkpt><trkpt lat="45.7536800299" lon="6.3104486559"><ele>500.02</ele><time>2014-09-06T17:04:15Z</time></trkpt><trkpt lat="45.7536581531" lon="6.3103904016"><ele>500.02</ele><time>2014-09-06T17:04:16Z</time></trkpt><trkpt lat="45.7532611862" lon="6.3095445000"><ele>501.95</ele><time>2014-09-06T17:04:33Z</time></trkpt><trkpt lat="45.7529684063" lon="6.3089174498"><ele>503.87</ele><time>2014-09-06T17:04:45Z</time></trkpt><trkpt lat="45.7526027039" lon="6.3081267849"><ele>504.83</ele><time>2014-09-06T17:05:01Z</time></trkpt><trkpt lat="45.7525364030" lon="6.3079846278"><ele>504.35</ele><time>2014-09-06T17:05:04Z</time></trkpt><trkpt lat="45.7522183098" lon="6.3073254749"><ele>506.27</ele><time>2014-09-06T17:05:18Z</time></trkpt><trkpt lat="45.7518889848" lon="6.3065141905"><ele>506.75</ele><time>2014-09-06T17:05:34Z</time></trkpt><trkpt lat="45.7516902499" lon="6.3058515172"><ele>506.75</ele><time>2014-09-06T17:05:46Z</time></trkpt><trkpt lat="45.7515047584" lon="6.3048057072"><ele>507.23</ele><time>2014-09-06T17:06:04Z</time></trkpt><trkpt lat="45.7514575683" lon="6.3042887114"><ele>506.27</ele><time>2014-09-06T17:06:18Z</time></trkpt><trkpt lat="45.7514582388" lon="6.3042662479"><ele>506.27</ele><time>2014-09-06T17:06:19Z</time></trkpt><trkpt lat="45.7514552213" lon="6.3042474724"><ele>506.75</ele><time>2014-09-06T17:06:20Z</time></trkpt><trkpt lat="45.7514477614" lon="6.3041955046"><ele>507.23</ele><time>2014-09-06T17:06:28Z</time></trkpt><trkpt lat="45.7514532935" lon="6.3041817583"><ele>507.23</ele><time>2014-09-06T17:06:29Z</time></trkpt><trkpt lat="45.7514656987" lon="6.3041367475"><ele>507.23</ele><time>2014-09-06T17:06:31Z</time></trkpt><trkpt lat="45.7514625974" lon="6.3041086681"><ele>507.23</ele><time>2014-09-06T17:06:32Z</time></trkpt><trkpt lat="45.7514541317" lon="6.3040803373"><ele>507.71</ele><time>2014-09-06T17:06:33Z</time></trkpt><trkpt lat="45.7512167562" lon="6.3036459871"><ele>508.19</ele><time>2014-09-06T17:06:46Z</time></trkpt><trkpt lat="45.7508310210" lon="6.3029855769"><ele>509.16</ele><time>2014-09-06T17:07:03Z</time></trkpt><trkpt lat="45.7503313757" lon="6.3021112606"><ele>510.60</ele><time>2014-09-06T17:07:23Z</time></trkpt><trkpt lat="45.7499703672" lon="6.3014920894"><ele>512.04</ele><time>2014-09-06T17:07:38Z</time></trkpt><trkpt lat="45.7495913375" lon="6.3008463476"><ele>513.48</ele><time>2014-09-06T17:07:54Z</time></trkpt><trkpt lat="45.7493040059" lon="6.3003187068"><ele>514.92</ele><time>2014-09-06T17:08:08Z</time></trkpt><trkpt lat="45.7491501141" lon="6.3000587840"><ele>514.92</ele><time>2014-09-06T17:08:21Z</time></trkpt><trkpt lat="45.7491433248" lon="6.3000545930"><ele>514.44</ele><time>2014-09-06T17:08:31Z</time></trkpt><trkpt lat="45.7491299137" lon="6.3000950776"><ele>515.88</ele><time>2014-09-06T17:08:54Z</time></trkpt><trkpt lat="45.7491092104" lon="6.3001005258"><ele>517.33</ele><time>2014-09-06T17:09:13Z</time></trkpt><trkpt lat="45.7491180953" lon="6.3000974245"><ele>515.88</ele><time>2014-09-06T17:09:32Z</time></trkpt><trkpt lat="45.7491156645" lon="6.3000771403"><ele>516.37</ele><time>2014-09-06T17:09:51Z</time></trkpt><trkpt lat="45.7491081208" lon="6.3000579458"><ele>516.37</ele><time>2014-09-06T17:09:52Z</time></trkpt><trkpt lat="45.7490978949" lon="6.3000329677"><ele>516.37</ele><time>2014-09-06T17:09:53Z</time></trkpt><trkpt lat="45.7490876690" lon="6.3000089116"><ele>516.37</ele><time>2014-09-06T17:09:54Z</time></trkpt><trkpt lat="45.7490755152" lon="6.2999797426"><ele>516.37</ele><time>2014-09-06T17:09:55Z</time></trkpt><trkpt lat="45.7490584999" lon="6.2999510765"><ele>516.85</ele><time>2014-09-06T17:09:56Z</time></trkpt><trkpt lat="45.7490393892" lon="6.2999214046"><ele>516.85</ele><time>2014-09-06T17:09:57Z</time></trkpt><trkpt lat="45.7490204461" lon="6.2998865359"><ele>516.85</ele><time>2014-09-06T17:09:58Z</time></trkpt><trkpt lat="45.7486440986" lon="6.2992153969"><ele>517.33</ele><time>2014-09-06T17:10:15Z</time></trkpt><trkpt lat="45.7483757939" lon="6.2986599281"><ele>517.81</ele><time>2014-09-06T17:10:29Z</time></trkpt><trkpt lat="45.7480903063" lon="6.2982597761"><ele>518.29</ele><time>2014-09-06T17:10:41Z</time></trkpt><trkpt lat="45.7479257695" lon="6.2979672477"><ele>519.25</ele><time>2014-09-06T17:10:51Z</time></trkpt><trkpt lat="45.7479240932" lon="6.2979386654"><ele>519.25</ele><time>2014-09-06T17:10:52Z</time></trkpt><trkpt lat="45.7479225844" lon="6.2979095802"><ele>519.25</ele><time>2014-09-06T17:10:53Z</time></trkpt><trkpt lat="45.7479170524" lon="6.2978810817"><ele>519.25</ele><time>2014-09-06T17:10:54Z</time></trkpt><trkpt lat="45.7479086705" lon="6.2978540920"><ele>519.25</ele><time>2014-09-06T17:10:55Z</time></trkpt><trkpt lat="45.7478991151" lon="6.2978301197"><ele>519.25</ele><time>2014-09-06T17:10:56Z</time></trkpt><trkpt lat="45.7477608137" lon="6.2975859549"><ele>520.21</ele><time>2014-09-06T17:11:11Z</time></trkpt><trkpt lat="45.7477648370" lon="6.2975753937"><ele>518.29</ele><time>2014-09-06T17:11:25Z</time></trkpt><trkpt lat="45.7477743085" lon="6.2975725438"><ele>520.21</ele><time>2014-09-06T17:12:00Z</time></trkpt><trkpt lat="45.7476759050" lon="6.2974332366"><ele>519.73</ele><time>2014-09-06T17:12:10Z</time></trkpt><trkpt lat="45.7474466600" lon="6.2971602380"><ele>519.73</ele><time>2014-09-06T17:12:21Z</time></trkpt><trkpt lat="45.7472624257" lon="6.2968299910"><ele>519.25</ele><time>2014-09-06T17:12:33Z</time></trkpt><trkpt lat="45.7470236253" lon="6.2964580022"><ele>521.17</ele><time>2014-09-06T17:12:46Z</time></trkpt><trkpt lat="45.7470061071" lon="6.2964237202"><ele>521.65</ele><time>2014-09-06T17:12:47Z</time></trkpt><trkpt lat="45.7469868287" lon="6.2963922881"><ele>522.13</ele><time>2014-09-06T17:12:48Z</time></trkpt><trkpt lat="45.7468442526" lon="6.2960984185"><ele>525.50</ele><time>2014-09-06T17:12:58Z</time></trkpt><trkpt lat="45.7468429953" lon="6.2960710097"><ele>525.50</ele><time>2014-09-06T17:12:59Z</time></trkpt><trkpt lat="45.7468388043" lon="6.2960446067"><ele>525.50</ele><time>2014-09-06T17:13:00Z</time></trkpt><trkpt lat="45.7468271535" lon="6.2960201316"><ele>525.50</ele><time>2014-09-06T17:13:01Z</time></trkpt><trkpt lat="45.7468105573" lon="6.2959973328"><ele>525.50</ele><time>2014-09-06T17:13:02Z</time></trkpt><trkpt lat="45.7467935421" lon="6.2959746178"><ele>525.98</ele><time>2014-09-06T17:13:03Z</time></trkpt><trkpt lat="45.7467784546" lon="6.2959480472"><ele>525.98</ele><time>2014-09-06T17:13:04Z</time></trkpt><trkpt lat="45.7467629481" lon="6.2959161121"><ele>525.98</ele><time>2014-09-06T17:13:05Z</time></trkpt><trkpt lat="45.7464725152" lon="6.2955404352"><ele>532.71</ele><time>2014-09-06T17:13:20Z</time></trkpt><trkpt lat="45.7461477164" lon="6.2952744775"><ele>537.51</ele><time>2014-09-06T17:13:35Z</time></trkpt><trkpt lat="45.7458761428" lon="6.2951296382"><ele>534.15</ele><time>2014-09-06T17:13:47Z</time></trkpt><trkpt lat="45.7458466385" lon="6.2951338291"><ele>533.67</ele><time>2014-09-06T17:13:49Z</time></trkpt><trkpt lat="45.7458687667" lon="6.2951726373"><ele>532.71</ele><time>2014-09-06T17:13:52Z</time></trkpt><trkpt lat="45.7458965108" lon="6.2951800134"><ele>532.23</ele><time>2014-09-06T17:13:53Z</time></trkpt><trkpt lat="45.7459178008" lon="6.2951735593"><ele>531.75</ele><time>2014-09-06T17:13:54Z</time></trkpt><trkpt lat="45.7461399212" lon="6.2949223537"><ele>528.86</ele><time>2014-09-06T17:14:08Z</time></trkpt><trkpt lat="45.7463728543" lon="6.2942768633"><ele>527.42</ele><time>2014-09-06T17:14:24Z</time></trkpt><trkpt lat="45.7466392312" lon="6.2937017810"><ele>526.94</ele><time>2014-09-06T17:14:39Z</time></trkpt><trkpt lat="45.7468283270" lon="6.2932971027"><ele>525.02</ele><time>2014-09-06T17:14:51Z</time></trkpt><trkpt lat="45.7470541354" lon="6.2927055079"><ele>523.09</ele><time>2014-09-06T17:15:07Z</time></trkpt><trkpt lat="45.7472750824" lon="6.2922012527"><ele>522.13</ele><time>2014-09-06T17:15:20Z</time></trkpt><trkpt lat="45.7472885773" lon="6.2921882607"><ele>521.65</ele><time>2014-09-06T17:15:21Z</time></trkpt><trkpt lat="45.7472962048" lon="6.2921737600"><ele>520.69</ele><time>2014-09-06T17:15:32Z</time></trkpt><trkpt lat="45.7473407127" lon="6.2920921203"><ele>520.21</ele><time>2014-09-06T17:15:52Z</time></trkpt><trkpt lat="45.7475627493" lon="6.2915234081"><ele>520.21</ele><time>2014-09-06T17:16:06Z</time></trkpt><trkpt lat="45.7478439622" lon="6.2908504251"><ele>519.25</ele><time>2014-09-06T17:16:22Z</time></trkpt><trkpt lat="45.7479273621" lon="6.2906602398"><ele>519.25</ele><time>2014-09-06T17:16:26Z</time></trkpt><trkpt lat="45.7479857840" lon="6.2906240299"><ele>519.25</ele><time>2014-09-06T17:16:28Z</time></trkpt><trkpt lat="45.7480349857" lon="6.2906355131"><ele>519.25</ele><time>2014-09-06T17:16:29Z</time></trkpt><trkpt lat="45.7481317967" lon="6.2906526122"><ele>519.25</ele><time>2014-09-06T17:16:32Z</time></trkpt><trkpt lat="45.7485856768" lon="6.2905001454"><ele>518.29</ele><time>2014-09-06T17:16:44Z</time></trkpt><trkpt lat="45.7487450168" lon="6.2903976347"><ele>517.81</ele><time>2014-09-06T17:16:48Z</time></trkpt><trkpt lat="45.7487899438" lon="6.2903606705"><ele>517.81</ele><time>2014-09-06T17:16:49Z</time></trkpt><trkpt lat="45.7491526287" lon="6.2899837364"><ele>517.33</ele><time>2014-09-06T17:17:01Z</time></trkpt><trkpt lat="45.7493364438" lon="6.2895291019"><ele>517.81</ele><time>2014-09-06T17:17:11Z</time></trkpt><trkpt lat="45.7496560458" lon="6.2888585497"><ele>516.37</ele><time>2014-09-06T17:17:24Z</time></trkpt><trkpt lat="45.7503321301" lon="6.2882889993"><ele>514.44</ele><time>2014-09-06T17:17:39Z</time></trkpt><trkpt lat="45.7511203643" lon="6.2877627835"><ele>513.00</ele><time>2014-09-06T17:17:55Z</time></trkpt><trkpt lat="45.7518300600" lon="6.2873371504"><ele>512.04</ele><time>2014-09-06T17:18:10Z</time></trkpt><trkpt lat="45.7519516815" lon="6.2872793991"><ele>512.52</ele><time>2014-09-06T17:18:14Z</time></trkpt><trkpt lat="45.7519702893" lon="6.2872529123"><ele>512.04</ele><time>2014-09-06T17:18:15Z</time></trkpt><trkpt lat="45.7519920822" lon="6.2872290239"><ele>512.04</ele><time>2014-09-06T17:18:16Z</time></trkpt><trkpt lat="45.7520167250" lon="6.2872027047"><ele>512.04</ele><time>2014-09-06T17:18:17Z</time></trkpt><trkpt lat="45.7520319801" lon="6.2871646509"><ele>511.56</ele><time>2014-09-06T17:18:18Z</time></trkpt><trkpt lat="45.7520396914" lon="6.2871151976"><ele>511.56</ele><time>2014-09-06T17:18:19Z</time></trkpt><trkpt lat="45.7520493306" lon="6.2870729528"><ele>511.56</ele><time>2014-09-06T17:18:20Z</time></trkpt><trkpt lat="45.7520634122" lon="6.2870326359"><ele>511.56</ele><time>2014-09-06T17:18:21Z</time></trkpt><trkpt lat="45.7520873006" lon="6.2869302090"><ele>511.08</ele><time>2014-09-06T17:18:23Z</time></trkpt><trkpt lat="45.7522363309" lon="6.2862177473"><ele>511.08</ele><time>2014-09-06T17:18:35Z</time></trkpt><trkpt lat="45.7522704452" lon="6.2860998139"><ele>511.08</ele><time>2014-09-06T17:18:37Z</time></trkpt><trkpt lat="45.7522981055" lon="6.2859866582"><ele>510.60</ele><time>2014-09-06T17:18:39Z</time></trkpt><trkpt lat="45.7523164619" lon="6.2859364506"><ele>510.60</ele><time>2014-09-06T17:18:40Z</time></trkpt><trkpt lat="45.7523361593" lon="6.2858842313"><ele>510.12</ele><time>2014-09-06T17:18:41Z</time></trkpt><trkpt lat="45.7523513306" lon="6.2858294137"><ele>510.12</ele><time>2014-09-06T17:18:42Z</time></trkpt><trkpt lat="45.7523657475" lon="6.2857730035"><ele>510.12</ele><time>2014-09-06T17:18:43Z</time></trkpt><trkpt lat="45.7523887977" lon="6.2857145816"><ele>510.12</ele><time>2014-09-06T17:18:44Z</time></trkpt><trkpt lat="45.7524126861" lon="6.2856562436"><ele>510.12</ele><time>2014-09-06T17:18:45Z</time></trkpt><trkpt lat="45.7524282765" lon="6.2856139150"><ele>510.12</ele><time>2014-09-06T17:18:46Z</time></trkpt><trkpt lat="45.7528155204" lon="6.2847334798"><ele>510.12</ele><time>2014-09-06T17:19:01Z</time></trkpt><trkpt lat="45.7528382353" lon="6.2846939173"><ele>510.12</ele><time>2014-09-06T17:19:02Z</time></trkpt><trkpt lat="45.7528620400" lon="6.2846451346"><ele>510.12</ele><time>2014-09-06T17:19:03Z</time></trkpt><trkpt lat="45.7529522292" lon="6.2844698690"><ele>510.12</ele><time>2014-09-06T17:19:08Z</time></trkpt><trkpt lat="45.7529692445" lon="6.2844466511"><ele>510.60</ele><time>2014-09-06T17:19:09Z</time></trkpt><trkpt lat="45.7529808953" lon="6.2844213378"><ele>511.08</ele><time>2014-09-06T17:19:10Z</time></trkpt><trkpt lat="45.7530681510" lon="6.2842412107"><ele>513.00</ele><time>2014-09-06T17:19:17Z</time></trkpt><trkpt lat="45.7530835737" lon="6.2842297275"><ele>513.00</ele><time>2014-09-06T17:19:18Z</time></trkpt><trkpt lat="45.7531036064" lon="6.2842215132"><ele>513.00</ele><time>2014-09-06T17:19:19Z</time></trkpt><trkpt lat="45.7531239744" lon="6.2842019834"><ele>512.52</ele><time>2014-09-06T17:19:20Z</time></trkpt><trkpt lat="45.7531456836" lon="6.2841759995"><ele>512.52</ele><time>2014-09-06T17:19:21Z</time></trkpt><trkpt lat="45.7531672250" lon="6.2841438130"><ele>512.52</ele><time>2014-09-06T17:19:22Z</time></trkpt><trkpt lat="45.7535943668" lon="6.2835882604"><ele>511.56</ele><time>2014-09-06T17:19:36Z</time></trkpt><trkpt lat="45.7538109552" lon="6.2833571713"><ele>511.08</ele><time>2014-09-06T17:19:42Z</time></trkpt><trkpt lat="45.7538558822" lon="6.2833142560"><ele>510.60</ele><time>2014-09-06T17:19:43Z</time></trkpt><trkpt lat="45.7546400093" lon="6.2826400995"><ele>504.83</ele><time>2014-09-06T17:19:55Z</time></trkpt><trkpt lat="45.7551995013" lon="6.2821792625"><ele>505.31</ele><time>2014-09-06T17:20:05Z</time></trkpt><trkpt lat="45.7555996533" lon="6.2818717305"><ele>508.19</ele><time>2014-09-06T17:20:18Z</time></trkpt><trkpt lat="45.7561734784" lon="6.2814009190"><ele>508.19</ele><time>2014-09-06T17:20:33Z</time></trkpt><trkpt lat="45.7567146979" lon="6.2808783911"><ele>506.75</ele><time>2014-09-06T17:20:48Z</time></trkpt><trkpt lat="45.7572438475" lon="6.2802118622"><ele>503.39</ele><time>2014-09-06T17:21:03Z</time></trkpt><trkpt lat="45.7573456876" lon="6.2800528575"><ele>503.39</ele><time>2014-09-06T17:21:06Z</time></trkpt><trkpt lat="45.7579242904" lon="6.2790546566"><ele>502.43</ele><time>2014-09-06T17:21:24Z</time></trkpt><trkpt lat="45.7579580694" lon="6.2790017668"><ele>502.43</ele><time>2014-09-06T17:21:25Z</time></trkpt><trkpt lat="45.7582506817" lon="6.2784865312"><ele>501.46</ele><time>2014-09-06T17:21:35Z</time></trkpt><trkpt lat="45.7586417813" lon="6.2778039929"><ele>501.46</ele><time>2014-09-06T17:21:50Z</time></trkpt><trkpt lat="45.7591067255" lon="6.2770130765"><ele>500.02</ele><time>2014-09-06T17:22:04Z</time></trkpt><trkpt lat="45.7596179377" lon="6.2760271132"><ele>498.58</ele><time>2014-09-06T17:22:19Z</time></trkpt><trkpt lat="45.7598886732" lon="6.2752812915"><ele>496.18</ele><time>2014-09-06T17:22:30Z</time></trkpt><trkpt lat="45.7600081991" lon="6.2748806365"><ele>495.22</ele><time>2014-09-06T17:22:36Z</time></trkpt><trkpt lat="45.7600272261" lon="6.2748129107"><ele>494.74</ele><time>2014-09-06T17:22:37Z</time></trkpt><trkpt lat="45.7602033298" lon="6.2740594614"><ele>494.26</ele><time>2014-09-06T17:22:47Z</time></trkpt><trkpt lat="45.7602395397" lon="6.2739036418"><ele>494.74</ele><time>2014-09-06T17:22:49Z</time></trkpt><trkpt lat="45.7603214309" lon="6.2735094409"><ele>494.26</ele><time>2014-09-06T17:22:54Z</time></trkpt><trkpt lat="45.7603349257" lon="6.2734306511"><ele>494.26</ele><time>2014-09-06T17:22:55Z</time></trkpt><trkpt lat="45.7604724728" lon="6.2727652118"><ele>494.26</ele><time>2014-09-06T17:23:04Z</time></trkpt><trkpt lat="45.7607424539" lon="6.2714490853"><ele>493.29</ele><time>2014-09-06T17:23:22Z</time></trkpt><trkpt lat="45.7609919831" lon="6.2702322844"><ele>492.33</ele><time>2014-09-06T17:23:37Z</time></trkpt><trkpt lat="45.7612752914" lon="6.2688638549"><ele>490.41</ele><time>2014-09-06T17:23:56Z</time></trkpt><trkpt lat="45.7615066320" lon="6.2677615508"><ele>489.45</ele><time>2014-09-06T17:24:11Z</time></trkpt><trkpt lat="45.7617765293" lon="6.2664595898"><ele>488.01</ele><time>2014-09-06T17:24:28Z</time></trkpt><trkpt lat="45.7620230410" lon="6.2652437948"><ele>488.49</ele><time>2014-09-06T17:24:45Z</time></trkpt><trkpt lat="45.7623000629" lon="6.2639202923"><ele>488.01</ele><time>2014-09-06T17:25:03Z</time></trkpt><trkpt lat="45.7625349239" lon="6.2626974564"><ele>488.01</ele><time>2014-09-06T17:25:20Z</time></trkpt><trkpt lat="45.7625961956" lon="6.2621986493"><ele>488.01</ele><time>2014-09-06T17:25:27Z</time></trkpt><trkpt lat="45.7626488339" lon="6.2617911212"><ele>488.01</ele><time>2014-09-06T17:25:33Z</time></trkpt><trkpt lat="45.7626564614" lon="6.2617167737"><ele>487.53</ele><time>2014-09-06T17:25:34Z</time></trkpt><trkpt lat="45.7627243549" lon="6.2609648332"><ele>487.53</ele><time>2014-09-06T17:25:45Z</time></trkpt><trkpt lat="45.7627541106" lon="6.2597550731"><ele>487.05</ele><time>2014-09-06T17:26:02Z</time></trkpt><trkpt lat="45.7627376821" lon="6.2583841290"><ele>487.53</ele><time>2014-09-06T17:26:21Z</time></trkpt><trkpt lat="45.7627151348" lon="6.2573452760"><ele>487.05</ele><time>2014-09-06T17:26:37Z</time></trkpt><trkpt lat="45.7627099380" lon="6.2571330462"><ele>486.56</ele><time>2014-09-06T17:26:40Z</time></trkpt><trkpt lat="45.7626514323" lon="6.2566203251"><ele>484.16</ele><time>2014-09-06T17:26:46Z</time></trkpt><trkpt lat="45.7625835389" lon="6.2564413715"><ele>483.68</ele><time>2014-09-06T17:26:48Z</time></trkpt><trkpt lat="45.7625235245" lon="6.2563262880"><ele>483.20</ele><time>2014-09-06T17:26:50Z</time></trkpt><trkpt lat="45.7621995639" lon="6.2557434943"><ele>484.16</ele><time>2014-09-06T17:26:59Z</time></trkpt><trkpt lat="45.7621829677" lon="6.2556486111"><ele>484.16</ele><time>2014-09-06T17:27:01Z</time></trkpt><trkpt lat="45.7621868234" lon="6.2556027621"><ele>484.16</ele><time>2014-09-06T17:27:02Z</time></trkpt><trkpt lat="45.7621998154" lon="6.2555583380"><ele>484.64</ele><time>2014-09-06T17:27:03Z</time></trkpt><trkpt lat="45.7622190099" lon="6.2555190269"><ele>484.64</ele><time>2014-09-06T17:27:04Z</time></trkpt><trkpt lat="45.7622448262" lon="6.2554895226"><ele>484.64</ele><time>2014-09-06T17:27:05Z</time></trkpt><trkpt lat="45.7622693013" lon="6.2554697413"><ele>485.12</ele><time>2014-09-06T17:27:06Z</time></trkpt><trkpt lat="45.7622947823" lon="6.2554526422"><ele>485.12</ele><time>2014-09-06T17:27:07Z</time></trkpt><trkpt lat="45.7623840496" lon="6.2553946394"><ele>485.12</ele><time>2014-09-06T17:27:11Z</time></trkpt><trkpt lat="45.7624006458" lon="6.2553957291"><ele>485.12</ele><time>2014-09-06T17:27:12Z</time></trkpt><trkpt lat="45.7624167390" lon="6.2553903647"><ele>485.12</ele><time>2014-09-06T17:27:13Z</time></trkpt><trkpt lat="45.7624361850" lon="6.2553820666"><ele>485.60</ele><time>2014-09-06T17:27:14Z</time></trkpt><trkpt lat="45.7624543738" lon="6.2553679850"><ele>485.60</ele><time>2014-09-06T17:27:15Z</time></trkpt><trkpt lat="45.7624751609" lon="6.2553505506"><ele>486.08</ele><time>2014-09-06T17:27:16Z</time></trkpt><trkpt lat="45.7624940202" lon="6.2553374749"><ele>486.08</ele><time>2014-09-06T17:27:17Z</time></trkpt><trkpt lat="45.7625626680" lon="6.2552715093"><ele>486.08</ele><time>2014-09-06T17:27:21Z</time></trkpt><trkpt lat="45.7625798509" lon="6.2552463636"><ele>486.08</ele><time>2014-09-06T17:27:22Z</time></trkpt><trkpt lat="45.7626042422" lon="6.2552246545"><ele>486.08</ele><time>2014-09-06T17:27:23Z</time></trkpt><trkpt lat="45.7628417015" lon="6.2547046412"><ele>486.08</ele><time>2014-09-06T17:27:36Z</time></trkpt><trkpt lat="45.7628837787" lon="6.2544784974"><ele>486.08</ele><time>2014-09-06T17:27:40Z</time></trkpt><trkpt lat="45.7628904842" lon="6.2544215843"><ele>486.08</ele><time>2014-09-06T17:27:41Z</time></trkpt><trkpt lat="45.7629458047" lon="6.2541299779"><ele>486.08</ele><time>2014-09-06T17:27:46Z</time></trkpt><trkpt lat="45.7629609760" lon="6.2540708017"><ele>486.08</ele><time>2014-09-06T17:27:47Z</time></trkpt><trkpt lat="45.7630897220" lon="6.2536035944"><ele>485.60</ele><time>2014-09-06T17:27:55Z</time></trkpt><trkpt lat="45.7635114156" lon="6.2525133602"><ele>485.60</ele><time>2014-09-06T17:28:12Z</time></trkpt><trkpt lat="45.7636537403" lon="6.2522441335"><ele>484.64</ele><time>2014-09-06T17:28:17Z</time></trkpt><trkpt lat="45.7636824902" lon="6.2521925848"><ele>484.64</ele><time>2014-09-06T17:28:18Z</time></trkpt><trkpt lat="45.7637130842" lon="6.2521418743"><ele>484.64</ele><time>2014-09-06T17:28:19Z</time></trkpt><trkpt lat="45.7637366373" lon="6.2520924211"><ele>484.64</ele><time>2014-09-06T17:28:20Z</time></trkpt><trkpt lat="45.7637588494" lon="6.2520376872"><ele>484.64</ele><time>2014-09-06T17:28:21Z</time></trkpt><trkpt lat="45.7637855038" lon="6.2519899942"><ele>484.64</ele><time>2014-09-06T17:28:22Z</time></trkpt><trkpt lat="45.7638150919" lon="6.2519483361"><ele>484.64</ele><time>2014-09-06T17:28:23Z</time></trkpt><trkpt lat="45.7638393994" lon="6.2519024033"><ele>484.16</ele><time>2014-09-06T17:28:24Z</time></trkpt><trkpt lat="45.7638626173" lon="6.2518522795"><ele>484.64</ele><time>2014-09-06T17:28:25Z</time></trkpt><trkpt lat="45.7638863381" lon="6.2518021557"><ele>484.16</ele><time>2014-09-06T17:28:26Z</time></trkpt><trkpt lat="45.7639122382" lon="6.2517535407"><ele>484.64</ele><time>2014-09-06T17:28:27Z</time></trkpt><trkpt lat="45.7639737613" lon="6.2516526226"><ele>484.64</ele><time>2014-09-06T17:28:29Z</time></trkpt><trkpt lat="45.7644514460" lon="6.2507861853"><ele>483.68</ele><time>2014-09-06T17:28:44Z</time></trkpt><trkpt lat="45.7650416158" lon="6.2496993039"><ele>483.20</ele><time>2014-09-06T17:29:02Z</time></trkpt><trkpt lat="45.7655514032" lon="6.2487747800"><ele>482.24</ele><time>2014-09-06T17:29:17Z</time></trkpt><trkpt lat="45.7661999110" lon="6.2475962006"><ele>480.80</ele><time>2014-09-06T17:29:33Z</time></trkpt><trkpt lat="45.7671907358" lon="6.2461348157"><ele>479.35</ele><time>2014-09-06T17:29:53Z</time></trkpt><trkpt lat="45.7681875955" lon="6.2448382191"><ele>476.95</ele><time>2014-09-06T17:30:12Z</time></trkpt><trkpt lat="45.7690314017" lon="6.2437334005"><ele>475.03</ele><time>2014-09-06T17:30:31Z</time></trkpt><trkpt lat="45.7697871979" lon="6.2427292485"><ele>472.63</ele><time>2014-09-06T17:30:51Z</time></trkpt><trkpt lat="45.7699994277" lon="6.2424409948"><ele>472.63</ele><time>2014-09-06T17:30:57Z</time></trkpt><trkpt lat="45.7700468693" lon="6.2423951458"><ele>472.63</ele><time>2014-09-06T17:30:58Z</time></trkpt><trkpt lat="45.7700906228" lon="6.2423433457"><ele>472.63</ele><time>2014-09-06T17:30:59Z</time></trkpt><trkpt lat="45.7709665317" lon="6.2411852181"><ele>472.63</ele><time>2014-09-06T17:31:18Z</time></trkpt><trkpt lat="45.7716945838" lon="6.2402453553"><ele>472.14</ele><time>2014-09-06T17:31:34Z</time></trkpt><trkpt lat="45.7722871844" lon="6.2394672632"><ele>471.66</ele><time>2014-09-06T17:31:48Z</time></trkpt><trkpt lat="45.7723279204" lon="6.2394110207"><ele>471.66</ele><time>2014-09-06T17:31:49Z</time></trkpt><trkpt lat="45.7726806309" lon="6.2389266305"><ele>471.18</ele><time>2014-09-06T17:31:58Z</time></trkpt><trkpt lat="45.7729166653" lon="6.2386300787"><ele>471.66</ele><time>2014-09-06T17:32:04Z</time></trkpt><trkpt lat="45.7729569823" lon="6.2385821342"><ele>471.66</ele><time>2014-09-06T17:32:05Z</time></trkpt><trkpt lat="45.7729954552" lon="6.2385310885"><ele>471.66</ele><time>2014-09-06T17:32:06Z</time></trkpt><trkpt lat="45.7737123594" lon="6.2376066484"><ele>471.66</ele><time>2014-09-06T17:32:23Z</time></trkpt><trkpt lat="45.7739632297" lon="6.2372753117"><ele>471.66</ele><time>2014-09-06T17:32:29Z</time></trkpt><trkpt lat="45.7740075700" lon="6.2372236792"><ele>471.18</ele><time>2014-09-06T17:32:30Z</time></trkpt><trkpt lat="45.7747093029" lon="6.2363015860"><ele>471.66</ele><time>2014-09-06T17:32:47Z</time></trkpt><trkpt lat="45.7755051646" lon="6.2352629844"><ele>471.66</ele><time>2014-09-06T17:33:06Z</time></trkpt><trkpt lat="45.7762083225" lon="6.2343445793"><ele>471.66</ele><time>2014-09-06T17:33:23Z</time></trkpt><trkpt lat="45.7768425811" lon="6.2335021980"><ele>472.14</ele><time>2014-09-06T17:33:39Z</time></trkpt><trkpt lat="45.7774305716" lon="6.2327437196"><ele>472.14</ele><time>2014-09-06T17:33:56Z</time></trkpt><trkpt lat="45.7775241975" lon="6.2326039094"><ele>472.63</ele><time>2014-09-06T17:34:01Z</time></trkpt><trkpt lat="45.7775391173" lon="6.2325929292"><ele>472.63</ele><time>2014-09-06T17:34:02Z</time></trkpt><trkpt lat="45.7776344195" lon="6.2324328348"><ele>472.63</ele><time>2014-09-06T17:34:08Z</time></trkpt><trkpt lat="45.7776444778" lon="6.2324034981"><ele>472.14</ele><time>2014-09-06T17:34:09Z</time></trkpt><trkpt lat="45.7776424661" lon="6.2323613372"><ele>472.14</ele><time>2014-09-06T17:34:10Z</time></trkpt><trkpt lat="45.7776208408" lon="6.2321805395"><ele>471.66</ele><time>2014-09-06T17:34:14Z</time></trkpt><trkpt lat="45.7776403707" lon="6.2321353611"><ele>472.14</ele><time>2014-09-06T17:34:15Z</time></trkpt><trkpt lat="45.7776657678" lon="6.2320895959"><ele>471.66</ele><time>2014-09-06T17:34:16Z</time></trkpt><trkpt lat="45.7776958589" lon="6.2320377957"><ele>471.66</ele><time>2014-09-06T17:34:17Z</time></trkpt><trkpt lat="45.7777242735" lon="6.2319915276"><ele>471.66</ele><time>2014-09-06T17:34:18Z</time></trkpt><trkpt lat="45.7782553509" lon="6.2310526706"><ele>471.18</ele><time>2014-09-06T17:34:35Z</time></trkpt><trkpt lat="45.7782738749" lon="6.2309876271"><ele>471.66</ele><time>2014-09-06T17:34:36Z</time></trkpt><trkpt lat="45.7783069834" lon="6.2308518402"><ele>471.66</ele><time>2014-09-06T17:34:38Z</time></trkpt><trkpt lat="45.7783295307" lon="6.2307926640"><ele>471.66</ele><time>2014-09-06T17:34:39Z</time></trkpt><trkpt lat="45.7783588674" lon="6.2307364214"><ele>471.18</ele><time>2014-09-06T17:34:40Z</time></trkpt><trkpt lat="45.7783926465" lon="6.2306809332"><ele>471.18</ele><time>2014-09-06T17:34:41Z</time></trkpt><trkpt lat="45.7784290239" lon="6.2306270376"><ele>471.18</ele><time>2014-09-06T17:34:42Z</time></trkpt><trkpt lat="45.7787357178" lon="6.2302135583"><ele>471.18</ele><time>2014-09-06T17:34:50Z</time></trkpt><trkpt lat="45.7790726703" lon="6.2297513802"><ele>471.66</ele><time>2014-09-06T17:34:59Z</time></trkpt><trkpt lat="45.7797425520" lon="6.2289063167"><ele>472.63</ele><time>2014-09-06T17:35:16Z</time></trkpt><trkpt lat="45.7802113518" lon="6.2283514347"><ele>472.63</ele><time>2014-09-06T17:35:28Z</time></trkpt><trkpt lat="45.7802455500" lon="6.2283286359"><ele>472.63</ele><time>2014-09-06T17:35:29Z</time></trkpt><trkpt lat="45.7802899741" lon="6.2283024844"><ele>472.63</ele><time>2014-09-06T17:35:30Z</time></trkpt><trkpt lat="45.7807625458" lon="6.2283015624"><ele>472.63</ele><time>2014-09-06T17:35:43Z</time></trkpt><trkpt lat="45.7807965763" lon="6.2282834575"><ele>472.63</ele><time>2014-09-06T17:35:44Z</time></trkpt><trkpt lat="45.7808456104" lon="6.2282424700"><ele>472.63</ele><time>2014-09-06T17:35:46Z</time></trkpt><trkpt lat="45.7808679901" lon="6.2282144744"><ele>473.11</ele><time>2014-09-06T17:35:47Z</time></trkpt><trkpt lat="45.7808930520" lon="6.2281784322"><ele>473.11</ele><time>2014-09-06T17:35:48Z</time></trkpt><trkpt lat="45.7809088938" lon="6.2281329185"><ele>473.11</ele><time>2014-09-06T17:35:49Z</time></trkpt><trkpt lat="45.7809157670" lon="6.2281179149"><ele>473.11</ele><time>2014-09-06T17:35:50Z</time></trkpt><trkpt lat="45.7809356321" lon="6.2280971278"><ele>473.11</ele><time>2014-09-06T17:35:51Z</time></trkpt><trkpt lat="45.7809758652" lon="6.2280666176"><ele>473.59</ele><time>2014-09-06T17:35:53Z</time></trkpt><trkpt lat="45.7810041960" lon="6.2280309107"><ele>473.59</ele><time>2014-09-06T17:35:54Z</time></trkpt><trkpt lat="45.7810311019" lon="6.2279984728"><ele>473.59</ele><time>2014-09-06T17:35:55Z</time></trkpt><trkpt lat="45.7810576726" lon="6.2279684655"><ele>473.59</ele><time>2014-09-06T17:35:56Z</time></trkpt><trkpt lat="45.7813041005" lon="6.2276919466"><ele>472.63</ele><time>2014-09-06T17:36:07Z</time></trkpt><trkpt lat="45.7813080400" lon="6.2276937068"><ele>472.63</ele><time>2014-09-06T17:36:30Z</time></trkpt><trkpt lat="45.7812908571" lon="6.2276904378"><ele>474.07</ele><time>2014-09-06T17:37:09Z</time></trkpt><trkpt lat="45.7813026756" lon="6.2277032621"><ele>473.11</ele><time>2014-09-06T17:37:50Z</time></trkpt><trkpt lat="45.7813036814" lon="6.2277049385"><ele>473.59</ele><time>2014-09-06T17:38:16Z</time></trkpt><trkpt lat="45.7813071180" lon="6.2276947964"><ele>473.11</ele><time>2014-09-06T17:38:48Z</time></trkpt><trkpt lat="45.7813051902" lon="6.2277059443"><ele>473.11</ele><time>2014-09-06T17:39:22Z</time></trkpt><trkpt lat="45.7813134044" lon="6.2276699021"><ele>473.11</ele><time>2014-09-06T17:39:45Z</time></trkpt><trkpt lat="45.7813214511" lon="6.2276540603"><ele>473.59</ele><time>2014-09-06T17:39:46Z</time></trkpt><trkpt lat="45.7815404702" lon="6.2273705844"><ele>473.59</ele><time>2014-09-06T17:39:57Z</time></trkpt><trkpt lat="45.7820897363" lon="6.2266615592"><ele>473.11</ele><time>2014-09-06T17:40:15Z</time></trkpt><trkpt lat="45.7825973444" lon="6.2259906717"><ele>473.11</ele><time>2014-09-06T17:40:31Z</time></trkpt><trkpt lat="45.7826245017" lon="6.2259503547"><ele>473.11</ele><time>2014-09-06T17:40:32Z</time></trkpt><trkpt lat="45.7826577779" lon="6.2259082776"><ele>473.11</ele><time>2014-09-06T17:40:33Z</time></trkpt><trkpt lat="45.7831327803" lon="6.2253010925"><ele>472.63</ele><time>2014-09-06T17:40:48Z</time></trkpt><trkpt lat="45.7835190184" lon="6.2247844320"><ele>473.11</ele><time>2014-09-06T17:41:03Z</time></trkpt><trkpt lat="45.7836665399" lon="6.2245871220"><ele>473.59</ele><time>2014-09-06T17:41:11Z</time></trkpt><trkpt lat="45.7837129757" lon="6.2245463021"><ele>474.07</ele><time>2014-09-06T17:41:14Z</time></trkpt><trkpt lat="45.7837392110" lon="6.2245530915"><ele>474.07</ele><time>2014-09-06T17:41:15Z</time></trkpt><trkpt lat="45.7840770856" lon="6.2247026246"><ele>471.66</ele><time>2014-09-06T17:41:29Z</time></trkpt><trkpt lat="45.7841738965" lon="6.2247657403"><ele>471.18</ele><time>2014-09-06T17:41:38Z</time></trkpt><trkpt lat="45.7841973659" lon="6.2247673329"><ele>471.18</ele><time>2014-09-06T17:41:39Z</time></trkpt><trkpt lat="45.7842242718" lon="6.2247522455"><ele>471.18</ele><time>2014-09-06T17:41:40Z</time></trkpt><trkpt lat="45.7842529379" lon="6.2247215677"><ele>471.18</ele><time>2014-09-06T17:41:41Z</time></trkpt><trkpt lat="45.7842769101" lon="6.2246910576"><ele>471.18</ele><time>2014-09-06T17:41:42Z</time></trkpt><trkpt lat="45.7847030461" lon="6.2241495866"><ele>469.74</ele><time>2014-09-06T17:41:54Z</time></trkpt><trkpt lat="45.7854322717" lon="6.2231935468"><ele>467.34</ele><time>2014-09-06T17:42:09Z</time></trkpt><trkpt lat="45.7865264453" lon="6.2217493448"><ele>465.42</ele><time>2014-09-06T17:42:29Z</time></trkpt><trkpt lat="45.7876549009" lon="6.2202774826"><ele>462.53</ele><time>2014-09-06T17:42:50Z</time></trkpt><trkpt lat="45.7884914987" lon="6.2192268949"><ele>461.09</ele><time>2014-09-06T17:43:07Z</time></trkpt><trkpt lat="45.7887981925" lon="6.2190064508"><ele>460.13</ele><time>2014-09-06T17:43:15Z</time></trkpt><trkpt lat="45.7888550218" lon="6.2189350370"><ele>460.13</ele><time>2014-09-06T17:43:17Z</time></trkpt><trkpt lat="45.7889421936" lon="6.2188018486"><ele>459.65</ele><time>2014-09-06T17:43:20Z</time></trkpt><trkpt lat="45.7895802241" lon="6.2179551926"><ele>458.69</ele><time>2014-09-06T17:43:39Z</time></trkpt><trkpt lat="45.7898902707" lon="6.2175853830"><ele>458.21</ele><time>2014-09-06T17:43:51Z</time></trkpt><trkpt lat="45.7901802007" lon="6.2173691299"><ele>458.21</ele><time>2014-09-06T17:44:06Z</time></trkpt><trkpt lat="45.7901957072" lon="6.2173905876"><ele>458.69</ele><time>2014-09-06T17:44:08Z</time></trkpt><trkpt lat="45.7902014069" lon="6.2174025737"><ele>458.69</ele><time>2014-09-06T17:44:09Z</time></trkpt><trkpt lat="45.7902566437" lon="6.2173867319"><ele>459.17</ele><time>2014-09-06T17:44:19Z</time></trkpt><trkpt lat="45.7902364433" lon="6.2173671182"><ele>458.69</ele><time>2014-09-06T17:44:24Z</time></trkpt><trkpt lat="45.7901914325" lon="6.2173118815"><ele>459.65</ele><time>2014-09-06T17:44:27Z</time></trkpt><trkpt lat="45.7901923545" lon="6.2172711454"><ele>459.65</ele><time>2014-09-06T17:44:28Z</time></trkpt><trkpt lat="45.7903999742" lon="6.2168828119"><ele>459.17</ele><time>2014-09-06T17:44:39Z</time></trkpt><trkpt lat="45.7908193208" lon="6.2164771277"><ele>457.72</ele><time>2014-09-06T17:44:53Z</time></trkpt><trkpt lat="45.7911162917" lon="6.2160618044"><ele>456.76</ele><time>2014-09-06T17:45:09Z</time></trkpt><trkpt lat="45.7911245897" lon="6.2160469685"><ele>456.76</ele><time>2014-09-06T17:45:10Z</time></trkpt><trkpt lat="45.7911198121" lon="6.2159976829"><ele>458.21</ele><time>2014-09-06T17:45:20Z</time></trkpt><trkpt lat="45.7911410183" lon="6.2159600481"><ele>458.21</ele><time>2014-09-06T17:45:36Z</time></trkpt><trkpt lat="45.7911359891" lon="6.2159743812"><ele>459.65</ele><time>2014-09-06T17:45:53Z</time></trkpt><trkpt lat="45.7912075706" lon="6.2158314697"><ele>458.69</ele><time>2014-09-06T17:46:08Z</time></trkpt><trkpt lat="45.7915543299" lon="6.2153412122"><ele>456.28</ele><time>2014-09-06T17:46:24Z</time></trkpt><trkpt lat="45.7917272486" lon="6.2151532061"><ele>455.80</ele><time>2014-09-06T17:46:33Z</time></trkpt><trkpt lat="45.7917960640" lon="6.2152744923"><ele>455.32</ele><time>2014-09-06T17:46:38Z</time></trkpt><trkpt lat="45.7918100618" lon="6.2153796852"><ele>454.84</ele><time>2014-09-06T17:46:41Z</time></trkpt><trkpt lat="45.7921322621" lon="6.2157937512"><ele>453.88</ele><time>2014-09-06T17:46:56Z</time></trkpt><trkpt lat="45.7923815399" lon="6.2160115130"><ele>454.36</ele><time>2014-09-06T17:47:09Z</time></trkpt><trkpt lat="45.7925868966" lon="6.2161799893"><ele>454.84</ele><time>2014-09-06T17:47:19Z</time></trkpt><trkpt lat="45.7927385252" lon="6.2161012832"><ele>455.80</ele><time>2014-09-06T17:47:27Z</time></trkpt><trkpt lat="45.7927576359" lon="6.2160701025"><ele>455.32</ele><time>2014-09-06T17:47:30Z</time></trkpt><trkpt lat="45.7928106934" lon="6.2159654964"><ele>455.32</ele><time>2014-09-06T17:47:37Z</time></trkpt><trkpt lat="45.7928170636" lon="6.2157819327"><ele>454.84</ele><time>2014-09-06T17:47:47Z</time></trkpt><trkpt lat="45.7928457297" lon="6.2156774104"><ele>454.84</ele><time>2014-09-06T17:47:52Z</time></trkpt><trkpt lat="45.7928522676" lon="6.2156009674"><ele>454.36</ele><time>2014-09-06T17:47:55Z</time></trkpt><trkpt lat="45.7926928438" lon="6.2154146377"><ele>454.36</ele><time>2014-09-06T17:48:07Z</time></trkpt><trkpt lat="45.7926724758" lon="6.2153863907"><ele>454.36</ele><time>2014-09-06T17:48:08Z</time></trkpt><trkpt lat="45.7924052607" lon="6.2150952872"><ele>456.76</ele><time>2014-09-06T17:48:24Z</time></trkpt><trkpt lat="45.7921776921" lon="6.2148279045"><ele>457.24</ele><time>2014-09-06T17:48:36Z</time></trkpt><trkpt lat="45.7921577431" lon="6.2148080394"><ele>456.76</ele><time>2014-09-06T17:48:37Z</time></trkpt><trkpt lat="45.7920399774" lon="6.2148572411"><ele>456.28</ele><time>2014-09-06T17:48:44Z</time></trkpt><trkpt lat="45.7918570843" lon="6.2150574848"><ele>456.76</ele><time>2014-09-06T17:48:54Z</time></trkpt><trkpt lat="45.7920405641" lon="6.2153642625"><ele>455.80</ele><time>2014-09-06T17:49:06Z</time></trkpt><trkpt lat="45.7921774406" lon="6.2155156396"><ele>455.32</ele><time>2014-09-06T17:49:13Z</time></trkpt><trkpt lat="45.7921970543" lon="6.2156139594"><ele>455.80</ele><time>2014-09-06T17:49:27Z</time></trkpt><trkpt lat="45.7921461761" lon="6.2156106904"><ele>455.80</ele><time>2014-09-06T17:49:41Z</time></trkpt><trkpt lat="45.7921324298" lon="6.2155908253"><ele>457.24</ele><time>2014-09-06T17:49:59Z</time></trkpt><trkpt lat="45.7921278197" lon="6.2155967765"><ele>457.24</ele><time>2014-09-06T17:50:14Z</time></trkpt><trkpt lat="45.7921415661" lon="6.2156342436"><ele>457.24</ele><time>2014-09-06T17:50:31Z</time></trkpt><trkpt lat="45.7921288256" lon="6.2156489119"><ele>455.32</ele><time>2014-09-06T17:50:55Z</time></trkpt><trkpt lat="45.7921553124" lon="6.2156301364"><ele>453.88</ele><time>2014-09-06T17:51:22Z</time></trkpt><trkpt lat="45.7921366207" lon="6.2155339960"><ele>455.32</ele><time>2014-09-06T17:51:55Z</time></trkpt><trkpt lat="45.7921485230" lon="6.2155663501"><ele>453.40</ele><time>2014-09-06T17:52:31Z</time></trkpt><trkpt lat="45.7921784464" lon="6.2155870534"><ele>455.80</ele><time>2014-09-06T17:53:06Z</time></trkpt><trkpt lat="45.7921479363" lon="6.2156172283"><ele>457.72</ele><time>2014-09-06T17:53:47Z</time></trkpt><trkpt lat="45.7921566535" lon="6.2155957706"><ele>456.76</ele><time>2014-09-06T17:54:25Z</time></trkpt><trkpt lat="45.7921444997" lon="6.2155803479"><ele>460.13</ele><time>2014-09-06T17:54:55Z</time></trkpt><trkpt lat="45.7921541389" lon="6.2155172322"><ele>460.13</ele><time>2014-09-06T17:55:29Z</time></trkpt><trkpt lat="45.7921251375" lon="6.2155588903"><ele>464.93</ele><time>2014-09-06T17:56:04Z</time></trkpt><trkpt lat="45.7921407279" lon="6.2155930884"><ele>463.49</ele><time>2014-09-06T17:56:36Z</time></trkpt><trkpt lat="45.7921312563" lon="6.2155868020"><ele>466.86</ele><time>2014-09-06T17:56:57Z</time></trkpt><trkpt lat="45.7921009976" lon="6.2155693676"><ele>464.93</ele><time>2014-09-06T17:57:24Z</time></trkpt><trkpt lat="45.7920893468" lon="6.2155438028"><ele>464.93</ele><time>2014-09-06T17:57:54Z</time></trkpt><trkpt lat="45.7921471819" lon="6.2155468203"><ele>463.01</ele><time>2014-09-06T17:58:21Z</time></trkpt><trkpt lat="45.7921500318" lon="6.2155840360"><ele>461.09</ele><time>2014-09-06T17:58:55Z</time></trkpt><trkpt lat="45.7921374589" lon="6.2155562080"><ele>463.49</ele><time>2014-09-06T17:59:38Z</time></trkpt><trkpt lat="45.7921382133" lon="6.2156288791"><ele>456.76</ele><time>2014-09-06T18:00:16Z</time></trkpt><trkpt lat="45.7921324298" lon="6.2155900709"><ele>458.21</ele><time>2014-09-06T18:00:43Z</time></trkpt><trkpt lat="45.7921276521" lon="6.2155863829"><ele>455.32</ele><time>2014-09-06T18:01:16Z</time></trkpt><trkpt lat="45.7921218686" lon="6.2155805994"><ele>459.65</ele><time>2014-09-06T18:01:47Z</time></trkpt><trkpt lat="45.7921557315" lon="6.2156228442"><ele>461.09</ele><time>2014-09-06T18:02:20Z</time></trkpt><trkpt lat="45.7921404764" lon="6.2156052422"><ele>459.65</ele><time>2014-09-06T18:02:55Z</time></trkpt><trkpt lat="45.7921382133" lon="6.2155874725"><ele>459.17</ele><time>2014-09-06T18:03:31Z</time></trkpt><trkpt lat="45.7921433263" lon="6.2155792583"><ele>456.28</ele><time>2014-09-06T18:04:03Z</time></trkpt><trkpt lat="45.7921581622" lon="6.2155941781"><ele>452.44</ele><time>2014-09-06T18:04:30Z</time></trkpt><trkpt lat="45.7921797037" lon="6.2155681942"><ele>450.03</ele><time>2014-09-06T18:05:04Z</time></trkpt><trkpt lat="45.7921706513" lon="6.2155924179"><ele>450.03</ele><time>2014-09-06T18:05:27Z</time></trkpt><trkpt lat="45.7921356149" lon="6.2156216707"><ele>448.59</ele><time>2014-09-06T18:05:56Z</time></trkpt><trkpt lat="45.7921564020" lon="6.2156020571"><ele>451.96</ele><time>2014-09-06T18:06:21Z</time></trkpt><trkpt lat="45.7921486907" lon="6.2156406138"><ele>453.88</ele><time>2014-09-06T18:06:50Z</time></trkpt><trkpt lat="45.7921402249" lon="6.2156433798"><ele>458.69</ele><time>2014-09-06T18:07:20Z</time></trkpt><trkpt lat="45.7921509538" lon="6.2155763246"><ele>460.13</ele><time>2014-09-06T18:08:00Z</time></trkpt><trkpt lat="45.7921092957" lon="6.2155434676"><ele>459.17</ele><time>2014-09-06T18:08:28Z</time></trkpt><trkpt lat="45.7921117265" lon="6.2155939266"><ele>460.13</ele><time>2014-09-06T18:08:51Z</time></trkpt><trkpt lat="45.7921147440" lon="6.2155888136"><ele>463.01</ele><time>2014-09-06T18:09:20Z</time></trkpt><trkpt lat="45.7921657898" lon="6.2155913282"><ele>455.32</ele><time>2014-09-06T18:09:52Z</time></trkpt><trkpt lat="45.7921299152" lon="6.2156121153"><ele>455.80</ele><time>2014-09-06T18:10:26Z</time></trkpt><trkpt lat="45.7921610959" lon="6.2156526837"><ele>456.76</ele><time>2014-09-06T18:10:56Z</time></trkpt><trkpt lat="45.7921434101" lon="6.2155832816"><ele>460.13</ele><time>2014-09-06T18:11:33Z</time></trkpt><trkpt lat="45.7921385486" lon="6.2155840360"><ele>459.17</ele><time>2014-09-06T18:12:09Z</time></trkpt><trkpt lat="45.7921420690" lon="6.2155759055"><ele>462.53</ele><time>2014-09-06T18:12:42Z</time></trkpt><trkpt lat="45.7921206951" lon="6.2155812699"><ele>462.05</ele><time>2014-09-06T18:13:22Z</time></trkpt><trkpt lat="45.7921335194" lon="6.2155671883"><ele>459.17</ele><time>2014-09-06T18:13:53Z</time></trkpt><trkpt lat="45.7921287417" lon="6.2156247720"><ele>462.05</ele><time>2014-09-06T18:14:24Z</time></trkpt><trkpt lat="45.7921177614" lon="6.2155783363"><ele>462.05</ele><time>2014-09-06T18:14:53Z</time></trkpt><trkpt lat="45.7921494450" lon="6.2156101037"><ele>461.09</ele><time>2014-09-06T18:15:32Z</time></trkpt><trkpt lat="45.7921247184" lon="6.2156109419"><ele>463.97</ele><time>2014-09-06T18:16:04Z</time></trkpt><trkpt lat="45.7921274845" lon="6.2156199943"><ele>462.53</ele><time>2014-09-06T18:16:26Z</time></trkpt><trkpt lat="45.7921458408" lon="6.2156476546"><ele>458.69</ele><time>2014-09-06T18:16:58Z</time></trkpt><trkpt lat="45.7921580784" lon="6.2156210840"><ele>459.17</ele><time>2014-09-06T18:17:29Z</time></trkpt><trkpt lat="45.7921441644" lon="6.2156159710"><ele>458.69</ele><time>2014-09-06T18:17:56Z</time></trkpt><trkpt lat="45.7921426557" lon="6.2156043202"><ele>458.69</ele><time>2014-09-06T18:18:22Z</time></trkpt><trkpt lat="45.7921357825" lon="6.2156046554"><ele>460.61</ele><time>2014-09-06T18:18:54Z</time></trkpt><trkpt lat="45.7921423204" lon="6.2156044878"><ele>460.61</ele><time>2014-09-06T18:18:59Z</time></trkpt></trkseg></trk><trk><name>Current Track: 07 SEP 2014 11:33</name><trkseg><trkpt lat="45.7923784386" lon="6.2142091524"><ele>464.93</ele><time>2014-09-07T09:33:58Z</time></trkpt><trkpt lat="45.7928656787" lon="6.2136960123"><ele>463.01</ele><time>2014-09-07T09:34:11Z</time></trkpt><trkpt lat="45.7935366500" lon="6.2134418730"><ele>456.76</ele><time>2014-09-07T09:34:26Z</time></trkpt><trkpt lat="45.7937548310" lon="6.2134116981"><ele>458.21</ele><time>2014-09-07T09:34:31Z</time></trkpt><trkpt lat="45.7945138123" lon="6.2133140489"><ele>461.09</ele><time>2014-09-07T09:34:48Z</time></trkpt><trkpt lat="45.7945572305" lon="6.2133086845"><ele>461.57</ele><time>2014-09-07T09:34:49Z</time></trkpt><trkpt lat="45.7945982181" lon="6.2133061700"><ele>461.57</ele><time>2014-09-07T09:34:50Z</time></trkpt><trkpt lat="45.7951550279" lon="6.2132366002"><ele>460.13</ele><time>2014-09-07T09:35:04Z</time></trkpt><trkpt lat="45.7957579382" lon="6.2131376937"><ele>457.72</ele><time>2014-09-07T09:35:20Z</time></trkpt><trkpt lat="45.7958342973" lon="6.2131233606"><ele>457.72</ele><time>2014-09-07T09:35:22Z</time></trkpt><trkpt lat="45.7961480319" lon="6.2130818702"><ele>458.21</ele><time>2014-09-07T09:35:30Z</time></trkpt><trkpt lat="45.7968341745" lon="6.2129934411"><ele>457.24</ele><time>2014-09-07T09:35:46Z</time></trkpt><trkpt lat="45.7974629849" lon="6.2129261345"><ele>456.28</ele><time>2014-09-07T09:36:01Z</time></trkpt><trkpt lat="45.7982261572" lon="6.2128446624"><ele>456.76</ele><time>2014-09-07T09:36:19Z</time></trkpt><trkpt lat="45.7984880917" lon="6.2128164992"><ele>456.76</ele><time>2014-09-07T09:36:25Z</time></trkpt><trkpt lat="45.7991738152" lon="6.2127427384"><ele>456.76</ele><time>2014-09-07T09:36:41Z</time></trkpt><trkpt lat="45.7992159761" lon="6.2127418164"><ele>457.24</ele><time>2014-09-07T09:36:42Z</time></trkpt><trkpt lat="45.8000850119" lon="6.2126298342"><ele>457.24</ele><time>2014-09-07T09:37:01Z</time></trkpt><trkpt lat="45.8007829729" lon="6.2125513796"><ele>456.76</ele><time>2014-09-07T09:37:16Z</time></trkpt><trkpt lat="45.8014536090" lon="6.2124573346"><ele>457.72</ele><time>2014-09-07T09:37:30Z</time></trkpt><trkpt lat="45.8017822634" lon="6.2124247290"><ele>459.17</ele><time>2014-09-07T09:37:37Z</time></trkpt><trkpt lat="45.8018288668" lon="6.2124212924"><ele>459.17</ele><time>2014-09-07T09:37:38Z</time></trkpt><trkpt lat="45.8024605270" lon="6.2123476993"><ele>460.61</ele><time>2014-09-07T09:37:51Z</time></trkpt><trkpt lat="45.8028009161" lon="6.2122689094"><ele>460.13</ele><time>2014-09-07T09:37:58Z</time></trkpt><trkpt lat="45.8033685386" lon="6.2121565081"><ele>460.61</ele><time>2014-09-07T09:38:09Z</time></trkpt><trkpt lat="45.8038512524" lon="6.2120731082"><ele>460.61</ele><time>2014-09-07T09:38:19Z</time></trkpt><trkpt lat="45.8043245785" lon="6.2119749561"><ele>459.17</ele><time>2014-09-07T09:38:32Z</time></trkpt><trkpt lat="45.8047263231" lon="6.2119011953"><ele>458.69</ele><time>2014-09-07T09:38:41Z</time></trkpt><trkpt lat="45.8047748543" lon="6.2118901312"><ele>458.69</ele><time>2014-09-07T09:38:42Z</time></trkpt><trkpt lat="45.8050819673" lon="6.2118208967"><ele>459.65</ele><time>2014-09-07T09:38:49Z</time></trkpt><trkpt lat="45.8051310014" lon="6.2118162028"><ele>459.65</ele><time>2014-09-07T09:38:50Z</time></trkpt><trkpt lat="45.8057789225" lon="6.2117146980"><ele>460.61</ele><time>2014-09-07T09:39:04Z</time></trkpt><trkpt lat="45.8064075653" lon="6.2115935795"><ele>460.61</ele><time>2014-09-07T09:39:20Z</time></trkpt><trkpt lat="45.8065059688" lon="6.2115461379"><ele>461.09</ele><time>2014-09-07T09:39:36Z</time></trkpt><trkpt lat="45.8070731722" lon="6.2113714591"><ele>459.65</ele><time>2014-09-07T09:39:50Z</time></trkpt><trkpt lat="45.8078070916" lon="6.2111480813"><ele>458.69</ele><time>2014-09-07T09:40:07Z</time></trkpt><trkpt lat="45.8084878698" lon="6.2109464966"><ele>458.21</ele><time>2014-09-07T09:40:23Z</time></trkpt><trkpt lat="45.8092948794" lon="6.2108360231"><ele>458.69</ele><time>2014-09-07T09:40:40Z</time></trkpt><trkpt lat="45.8093847334" lon="6.2108195946"><ele>459.65</ele><time>2014-09-07T09:40:42Z</time></trkpt><trkpt lat="45.8094288222" lon="6.2108150683"><ele>460.13</ele><time>2014-09-07T09:40:43Z</time></trkpt><trkpt lat="45.8099882305" lon="6.2107181735"><ele>461.09</ele><time>2014-09-07T09:40:55Z</time></trkpt><trkpt lat="45.8100310620" lon="6.2107084505"><ele>461.09</ele><time>2014-09-07T09:40:56Z</time></trkpt><trkpt lat="45.8107284363" lon="6.2104983162"><ele>460.13</ele><time>2014-09-07T09:41:10Z</time></trkpt><trkpt lat="45.8115802892" lon="6.2102704123"><ele>458.21</ele><time>2014-09-07T09:41:26Z</time></trkpt><trkpt lat="45.8124535158" lon="6.2100280076"><ele>458.69</ele><time>2014-09-07T09:41:43Z</time></trkpt><trkpt lat="45.8125561941" lon="6.2099983357"><ele>458.69</ele><time>2014-09-07T09:41:45Z</time></trkpt><trkpt lat="45.8126055636" lon="6.2099832483"><ele>458.69</ele><time>2014-09-07T09:41:46Z</time></trkpt><trkpt lat="45.8126545977" lon="6.2099655624"><ele>458.69</ele><time>2014-09-07T09:41:47Z</time></trkpt><trkpt lat="45.8135322668" lon="6.2097322103"><ele>457.72</ele><time>2014-09-07T09:42:04Z</time></trkpt><trkpt lat="45.8142671082" lon="6.2094405200"><ele>456.28</ele><time>2014-09-07T09:42:18Z</time></trkpt><trkpt lat="45.8149379957" lon="6.2087926827"><ele>457.72</ele><time>2014-09-07T09:42:34Z</time></trkpt><trkpt lat="45.8152307756" lon="6.2085144874"><ele>457.72</ele><time>2014-09-07T09:42:41Z</time></trkpt><trkpt lat="45.8156666346" lon="6.2082823925"><ele>457.24</ele><time>2014-09-07T09:42:50Z</time></trkpt><trkpt lat="45.8167730458" lon="6.2081321049"><ele>456.76</ele><time>2014-09-07T09:43:12Z</time></trkpt><trkpt lat="45.8174764551" lon="6.2080624513"><ele>456.28</ele><time>2014-09-07T09:43:26Z</time></trkpt><trkpt lat="45.8181859832" lon="6.2078122515"><ele>457.24</ele><time>2014-09-07T09:43:41Z</time></trkpt><trkpt lat="45.8191140275" lon="6.2072860356"><ele>456.76</ele><time>2014-09-07T09:44:00Z</time></trkpt><trkpt lat="45.8197937161" lon="6.2069289666"><ele>457.24</ele><time>2014-09-07T09:44:14Z</time></trkpt><trkpt lat="45.8203733247" lon="6.2067652680"><ele>457.24</ele><time>2014-09-07T09:44:25Z</time></trkpt><trkpt lat="45.8208614867" lon="6.2067962810"><ele>456.76</ele><time>2014-09-07T09:44:34Z</time></trkpt><trkpt lat="45.8209147956" lon="6.2068174034"><ele>456.76</ele><time>2014-09-07T09:44:35Z</time></trkpt><trkpt lat="45.8210199047" lon="6.2068829499"><ele>456.76</ele><time>2014-09-07T09:44:37Z</time></trkpt><trkpt lat="45.8216075599" lon="6.2073119357"><ele>456.76</ele><time>2014-09-07T09:44:48Z</time></trkpt><trkpt lat="45.8216502238" lon="6.2073677592"><ele>456.76</ele><time>2014-09-07T09:44:49Z</time></trkpt><trkpt lat="45.8216877747" lon="6.2074307911"><ele>456.28</ele><time>2014-09-07T09:44:50Z</time></trkpt><trkpt lat="45.8220719174" lon="6.2080496270"><ele>455.80</ele><time>2014-09-07T09:45:01Z</time></trkpt><trkpt lat="45.8228947688" lon="6.2087603286"><ele>454.84</ele><time>2014-09-07T09:45:19Z</time></trkpt><trkpt lat="45.8236127626" lon="6.2088326644"><ele>455.32</ele><time>2014-09-07T09:45:32Z</time></trkpt><trkpt lat="45.8243912738" lon="6.2086276431"><ele>455.32</ele><time>2014-09-07T09:45:47Z</time></trkpt><trkpt lat="45.8252419531" lon="6.2084254716"><ele>456.28</ele><time>2014-09-07T09:46:05Z</time></trkpt><trkpt lat="45.8258415107" lon="6.2082652096"><ele>457.24</ele><time>2014-09-07T09:46:18Z</time></trkpt><trkpt lat="45.8260064665" lon="6.2081515510"><ele>457.24</ele><time>2014-09-07T09:46:22Z</time></trkpt><trkpt lat="45.8264884260" lon="6.2075353973"><ele>457.72</ele><time>2014-09-07T09:46:36Z</time></trkpt><trkpt lat="45.8266942855" lon="6.2072990276"><ele>458.21</ele><time>2014-09-07T09:46:41Z</time></trkpt><trkpt lat="45.8267851453" lon="6.2072302122"><ele>458.21</ele><time>2014-09-07T09:46:43Z</time></trkpt><trkpt lat="45.8268382866" lon="6.2072034739"><ele>458.21</ele><time>2014-09-07T09:46:44Z</time></trkpt><trkpt lat="45.8268930204" lon="6.2071848661"><ele>458.21</ele><time>2014-09-07T09:46:45Z</time></trkpt><trkpt lat="45.8275802527" lon="6.2070131209"><ele>457.24</ele><time>2014-09-07T09:46:58Z</time></trkpt><trkpt lat="45.8276266046" lon="6.2070021406"><ele>457.24</ele><time>2014-09-07T09:46:59Z</time></trkpt><trkpt lat="45.8283632901" lon="6.2068363465"><ele>457.24</ele><time>2014-09-07T09:47:14Z</time></trkpt><trkpt lat="45.8289221115" lon="6.2066609971"><ele>457.72</ele><time>2014-09-07T09:47:26Z</time></trkpt><trkpt lat="45.8298550174" lon="6.2064189278"><ele>454.36</ele><time>2014-09-07T09:47:45Z</time></trkpt><trkpt lat="45.8300710190" lon="6.2062842306"><ele>454.36</ele><time>2014-09-07T09:47:53Z</time></trkpt><trkpt lat="45.8300806582" lon="6.2062714901"><ele>454.36</ele><time>2014-09-07T09:47:54Z</time></trkpt><trkpt lat="45.8301129285" lon="6.2062269822"><ele>455.32</ele><time>2014-09-07T09:48:00Z</time></trkpt><trkpt lat="45.8301266748" lon="6.2062116433"><ele>455.32</ele><time>2014-09-07T09:48:01Z</time></trkpt><trkpt lat="45.8301874436" lon="6.2059264071"><ele>453.88</ele><time>2014-09-07T09:48:12Z</time></trkpt><trkpt lat="45.8301727753" lon="6.2058929633"><ele>452.92</ele><time>2014-09-07T09:48:23Z</time></trkpt><trkpt lat="45.8301301952" lon="6.2058548257"><ele>451.48</ele><time>2014-09-07T09:49:17Z</time></trkpt><trkpt lat="45.8301428519" lon="6.2059213780"><ele>447.63</ele><time>2014-09-07T09:50:04Z</time></trkpt><trkpt lat="45.8301297761" lon="6.2059457693"><ele>440.42</ele><time>2014-09-07T09:50:55Z</time></trkpt><trkpt lat="45.8301451989" lon="6.2059111521"><ele>445.23</ele><time>2014-09-07T09:51:42Z</time></trkpt><trkpt lat="45.8301403373" lon="6.2059276644"><ele>447.63</ele><time>2014-09-07T09:52:27Z</time></trkpt><trkpt lat="45.8301778883" lon="6.2059366331"><ele>445.23</ele><time>2014-09-07T09:53:09Z</time></trkpt><trkpt lat="45.8301651478" lon="6.2059213780"><ele>440.90</ele><time>2014-09-07T09:53:57Z</time></trkpt><trkpt lat="45.8301570173" lon="6.2059023511"><ele>437.06</ele><time>2014-09-07T09:54:36Z</time></trkpt><trkpt lat="45.8301877789" lon="6.2059094757"><ele>440.90</ele><time>2014-09-07T09:55:01Z</time></trkpt><trkpt lat="45.8301798161" lon="6.2060224637"><ele>443.31</ele><time>2014-09-07T09:55:10Z</time></trkpt><trkpt lat="45.8301721886" lon="6.2062406447"><ele>448.11</ele><time>2014-09-07T09:55:26Z</time></trkpt><trkpt lat="45.8301441092" lon="6.2062206957"><ele>450.52</ele><time>2014-09-07T09:55:33Z</time></trkpt><trkpt lat="45.8301092405" lon="6.2062562350"><ele>451.96</ele><time>2014-09-07T09:55:37Z</time></trkpt><trkpt lat="45.8301007748" lon="6.2062805425"><ele>452.44</ele><time>2014-09-07T09:55:39Z</time></trkpt><trkpt lat="45.8300598711" lon="6.2062961329"><ele>452.92</ele><time>2014-09-07T09:55:52Z</time></trkpt><trkpt lat="45.8300599549" lon="6.2062838953"><ele>453.40</ele><time>2014-09-07T09:56:02Z</time></trkpt><trkpt lat="45.8300384972" lon="6.2062338553"><ele>454.36</ele><time>2014-09-07T09:56:05Z</time></trkpt><trkpt lat="45.8300504833" lon="6.2061994895"><ele>454.36</ele><time>2014-09-07T09:56:06Z</time></trkpt><trkpt lat="45.8300606254" lon="6.2061720807"><ele>454.84</ele><time>2014-09-07T09:56:07Z</time></trkpt><trkpt lat="45.8300659899" lon="6.2061464321"><ele>454.84</ele><time>2014-09-07T09:56:08Z</time></trkpt><trkpt lat="45.8300693426" lon="6.2061108928"><ele>454.84</ele><time>2014-09-07T09:56:09Z</time></trkpt><trkpt lat="45.8300711028" lon="6.2060668878"><ele>455.32</ele><time>2014-09-07T09:56:10Z</time></trkpt><trkpt lat="45.8300684206" lon="6.2060264032"><ele>455.32</ele><time>2014-09-07T09:56:11Z</time></trkpt><trkpt lat="45.8300608769" lon="6.2059826497"><ele>455.32</ele><time>2014-09-07T09:56:12Z</time></trkpt><trkpt lat="45.8300485555" lon="6.2059419975"><ele>455.32</ele><time>2014-09-07T09:56:13Z</time></trkpt><trkpt lat="45.8300261758" lon="6.2058987468"><ele>455.80</ele><time>2014-09-07T09:56:14Z</time></trkpt><trkpt lat="45.8300009463" lon="6.2058595195"><ele>455.32</ele><time>2014-09-07T09:56:15Z</time></trkpt><trkpt lat="45.8299720287" lon="6.2058194540"><ele>455.32</ele><time>2014-09-07T09:56:16Z</time></trkpt><trkpt lat="45.8296727948" lon="6.2054554280"><ele>455.32</ele><time>2014-09-07T09:56:25Z</time></trkpt><trkpt lat="45.8291159850" lon="6.2047920842"><ele>456.28</ele><time>2014-09-07T09:56:42Z</time></trkpt><trkpt lat="45.8286259789" lon="6.2041731644"><ele>455.80</ele><time>2014-09-07T09:56:57Z</time></trkpt><trkpt lat="45.8283114899" lon="6.2035993394"><ele>455.80</ele><time>2014-09-07T09:57:11Z</time></trkpt><trkpt lat="45.8279144391" lon="6.2027379312"><ele>455.32</ele><time>2014-09-07T09:57:28Z</time></trkpt><trkpt lat="45.8278651536" lon="6.2026294693"><ele>455.80</ele><time>2014-09-07T09:57:30Z</time></trkpt><trkpt lat="45.8277821727" lon="6.2024070974"><ele>455.80</ele><time>2014-09-07T09:57:34Z</time></trkpt><trkpt lat="45.8276794944" lon="6.2014924642"><ele>454.36</ele><time>2014-09-07T09:57:49Z</time></trkpt><trkpt lat="45.8276441228" lon="6.2000608351"><ele>453.88</ele><time>2014-09-07T09:58:10Z</time></trkpt><trkpt lat="45.8275848627" lon="6.1989558488"><ele>450.52</ele><time>2014-09-07T09:58:25Z</time></trkpt><trkpt lat="45.8275317214" lon="6.1979927681"><ele>450.52</ele><time>2014-09-07T09:58:38Z</time></trkpt><trkpt lat="45.8275188133" lon="6.1964771524"><ele>449.07</ele><time>2014-09-07T09:58:58Z</time></trkpt><trkpt lat="45.8275631536" lon="6.1962650903"><ele>449.55</ele><time>2014-09-07T09:59:01Z</time></trkpt><trkpt lat="45.8275848627" lon="6.1961898208"><ele>450.03</ele><time>2014-09-07T09:59:02Z</time></trkpt><trkpt lat="45.8275977708" lon="6.1961349193"><ele>450.03</ele><time>2014-09-07T09:59:03Z</time></trkpt><trkpt lat="45.8277469687" lon="6.1953136604"><ele>451.00</ele><time>2014-09-07T09:59:17Z</time></trkpt><trkpt lat="45.8278214000" lon="6.1948797293"><ele>451.96</ele><time>2014-09-07T09:59:27Z</time></trkpt><trkpt lat="45.8278644830" lon="6.1946742050"><ele>451.96</ele><time>2014-09-07T09:59:31Z</time></trkpt><trkpt lat="45.8280060533" lon="6.1939043272"><ele>453.88</ele><time>2014-09-07T09:59:46Z</time></trkpt><trkpt lat="45.8280886151" lon="6.1935257167"><ele>454.36</ele><time>2014-09-07T09:59:53Z</time></trkpt><trkpt lat="45.8281019423" lon="6.1934698932"><ele>454.36</ele><time>2014-09-07T09:59:54Z</time></trkpt><trkpt lat="45.8282622881" lon="6.1926285177"><ele>454.36</ele><time>2014-09-07T10:00:09Z</time></trkpt><trkpt lat="45.8282977436" lon="6.1924550124"><ele>454.36</ele><time>2014-09-07T10:00:12Z</time></trkpt><trkpt lat="45.8283863403" lon="6.1919627432"><ele>453.88</ele><time>2014-09-07T10:00:20Z</time></trkpt><trkpt lat="45.8283933811" lon="6.1919026449"><ele>453.88</ele><time>2014-09-07T10:00:21Z</time></trkpt><trkpt lat="45.8284021821" lon="6.1918444745"><ele>453.88</ele><time>2014-09-07T10:00:22Z</time></trkpt><trkpt lat="45.8284255676" lon="6.1917301454"><ele>453.88</ele><time>2014-09-07T10:00:24Z</time></trkpt><trkpt lat="45.8284739312" lon="6.1914966255"><ele>453.88</ele><time>2014-09-07T10:00:28Z</time></trkpt><trkpt lat="45.8285936248" lon="6.1909143347"><ele>454.36</ele><time>2014-09-07T10:00:39Z</time></trkpt><trkpt lat="45.8286019228" lon="6.1908558290"><ele>454.36</ele><time>2014-09-07T10:00:40Z</time></trkpt><trkpt lat="45.8286143281" lon="6.1907972395"><ele>454.36</ele><time>2014-09-07T10:00:41Z</time></trkpt><trkpt lat="45.8286271524" lon="6.1907371413"><ele>454.36</ele><time>2014-09-07T10:00:42Z</time></trkpt><trkpt lat="45.8286390547" lon="6.1906776298"><ele>454.36</ele><time>2014-09-07T10:00:43Z</time></trkpt><trkpt lat="45.8286506217" lon="6.1906192079"><ele>454.36</ele><time>2014-09-07T10:00:44Z</time></trkpt><trkpt lat="45.8286593389" lon="6.1905601993"><ele>454.36</ele><time>2014-09-07T10:00:45Z</time></trkpt><trkpt lat="45.8288431540" lon="6.1895875633"><ele>455.80</ele><time>2014-09-07T10:01:02Z</time></trkpt><trkpt lat="45.8288868237" lon="6.1893599946"><ele>456.28</ele><time>2014-09-07T10:01:06Z</time></trkpt><trkpt lat="45.8289005700" lon="6.1892431509"><ele>456.28</ele><time>2014-09-07T10:01:08Z</time></trkpt><trkpt lat="45.8289143164" lon="6.1891864892"><ele>456.28</ele><time>2014-09-07T10:01:09Z</time></trkpt><trkpt lat="45.8290704712" lon="6.1884767096"><ele>455.80</ele><time>2014-09-07T10:01:20Z</time></trkpt><trkpt lat="45.8292563818" lon="6.1875101086"><ele>452.44</ele><time>2014-09-07T10:01:33Z</time></trkpt><trkpt lat="45.8294649236" lon="6.1864741892"><ele>450.03</ele><time>2014-09-07T10:01:47Z</time></trkpt><trkpt lat="45.8296670951" lon="6.1854165606"><ele>453.40</ele><time>2014-09-07T10:02:02Z</time></trkpt><trkpt lat="45.8298748825" lon="6.1842498835"><ele>455.80</ele><time>2014-09-07T10:02:19Z</time></trkpt><trkpt lat="45.8299520798" lon="6.1838648189"><ele>455.80</ele><time>2014-09-07T10:02:25Z</time></trkpt><trkpt lat="45.8301566821" lon="6.1828355212"><ele>456.28</ele><time>2014-09-07T10:02:41Z</time></trkpt><trkpt lat="45.8303389046" lon="6.1818785593"><ele>457.24</ele><time>2014-09-07T10:02:57Z</time></trkpt><trkpt lat="45.8304215502" lon="6.1814641580"><ele>457.24</ele><time>2014-09-07T10:03:04Z</time></trkpt><trkpt lat="45.8304324467" lon="6.1814019643"><ele>457.24</ele><time>2014-09-07T10:03:05Z</time></trkpt><trkpt lat="45.8304404933" lon="6.1813383456"><ele>457.24</ele><time>2014-09-07T10:03:06Z</time></trkpt><trkpt lat="45.8304490428" lon="6.1812771577"><ele>457.24</ele><time>2014-09-07T10:03:07Z</time></trkpt><trkpt lat="45.8304596879" lon="6.1812179815"><ele>457.24</ele><time>2014-09-07T10:03:08Z</time></trkpt><trkpt lat="45.8305364661" lon="6.1807251256"><ele>457.24</ele><time>2014-09-07T10:03:18Z</time></trkpt><trkpt lat="45.8305248991" lon="6.1806996446"><ele>458.21</ele><time>2014-09-07T10:03:29Z</time></trkpt><trkpt lat="45.8305163495" lon="6.1806907598"><ele>458.69</ele><time>2014-09-07T10:03:36Z</time></trkpt><trkpt lat="45.8305175230" lon="6.1806691345"><ele>458.69</ele><time>2014-09-07T10:03:37Z</time></trkpt><trkpt lat="45.8305234741" lon="6.1806418933"><ele>459.17</ele><time>2014-09-07T10:03:38Z</time></trkpt><trkpt lat="45.8306601830" lon="6.1799554154"><ele>458.69</ele><time>2014-09-07T10:03:51Z</time></trkpt><trkpt lat="45.8308802079" lon="6.1789345834"><ele>459.17</ele><time>2014-09-07T10:04:07Z</time></trkpt><trkpt lat="45.8309207764" lon="6.1789000500"><ele>459.17</ele><time>2014-09-07T10:04:08Z</time></trkpt><trkpt lat="45.8309559803" lon="6.1788696237"><ele>459.17</ele><time>2014-09-07T10:04:09Z</time></trkpt><trkpt lat="45.8309895918" lon="6.1788276304"><ele>459.17</ele><time>2014-09-07T10:04:10Z</time></trkpt><trkpt lat="45.8310170844" lon="6.1787785124"><ele>459.17</ele><time>2014-09-07T10:04:11Z</time></trkpt><trkpt lat="45.8310331777" lon="6.1787201744"><ele>459.17</ele><time>2014-09-07T10:04:12Z</time></trkpt><trkpt lat="45.8310364466" lon="6.1786470003"><ele>458.69</ele><time>2014-09-07T10:04:13Z</time></trkpt><trkpt lat="45.8310325071" lon="6.1785926018"><ele>458.69</ele><time>2014-09-07T10:04:14Z</time></trkpt><trkpt lat="45.8310273103" lon="6.1785242893"><ele>458.69</ele><time>2014-09-07T10:04:15Z</time></trkpt><trkpt lat="45.8310316689" lon="6.1783369537"><ele>459.17</ele><time>2014-09-07T10:04:18Z</time></trkpt><trkpt lat="45.8310555574" lon="6.1780773662"><ele>459.17</ele><time>2014-09-07T10:04:22Z</time></trkpt><trkpt lat="45.8310672920" lon="6.1780129094"><ele>459.17</ele><time>2014-09-07T10:04:23Z</time></trkpt><trkpt lat="45.8310830500" lon="6.1779506318"><ele>459.17</ele><time>2014-09-07T10:04:24Z</time></trkpt><trkpt lat="45.8311588224" lon="6.1776453629"><ele>459.65</ele><time>2014-09-07T10:04:29Z</time></trkpt><trkpt lat="45.8312832937" lon="6.1769060791"><ele>460.13</ele><time>2014-09-07T10:04:41Z</time></trkpt><trkpt lat="45.8312988840" lon="6.1768446397"><ele>460.13</ele><time>2014-09-07T10:04:42Z</time></trkpt><trkpt lat="45.8314971160" lon="6.1758988257"><ele>459.65</ele><time>2014-09-07T10:04:58Z</time></trkpt><trkpt lat="45.8316492476" lon="6.1752579454"><ele>460.13</ele><time>2014-09-07T10:05:12Z</time></trkpt><trkpt lat="45.8316703700" lon="6.1750647426"><ele>460.13</ele><time>2014-09-07T10:05:16Z</time></trkpt><trkpt lat="45.8316658437" lon="6.1750410218"><ele>460.13</ele><time>2014-09-07T10:05:17Z</time></trkpt><trkpt lat="45.8316555340" lon="6.1750144511"><ele>460.61</ele><time>2014-09-07T10:05:25Z</time></trkpt><trkpt lat="45.8316596411" lon="6.1749904789"><ele>460.13</ele><time>2014-09-07T10:05:26Z</time></trkpt><trkpt lat="45.8317625709" lon="6.1745620798"><ele>460.13</ele><time>2014-09-07T10:05:38Z</time></trkpt><trkpt lat="45.8318499103" lon="6.1741074454"><ele>460.61</ele><time>2014-09-07T10:05:50Z</time></trkpt><trkpt lat="45.8320453763" lon="6.1731094122"><ele>462.53</ele><time>2014-09-07T10:06:07Z</time></trkpt><trkpt lat="45.8322300296" lon="6.1724733096"><ele>465.42</ele><time>2014-09-07T10:06:20Z</time></trkpt><trkpt lat="45.8322528284" lon="6.1724107806"><ele>465.42</ele><time>2014-09-07T10:06:21Z</time></trkpt><trkpt lat="45.8322597854" lon="6.1723536998"><ele>465.42</ele><time>2014-09-07T10:06:22Z</time></trkpt><trkpt lat="45.8322562650" lon="6.1722869799"><ele>465.90</ele><time>2014-09-07T10:06:23Z</time></trkpt><trkpt lat="45.8322480507" lon="6.1722234450"><ele>465.90</ele><time>2014-09-07T10:06:24Z</time></trkpt><trkpt lat="45.8322440274" lon="6.1721542943"><ele>465.90</ele><time>2014-09-07T10:06:25Z</time></trkpt><trkpt lat="45.8322515711" lon="6.1720691342"><ele>465.90</ele><time>2014-09-07T10:06:26Z</time></trkpt><trkpt lat="45.8322742861" lon="6.1719851475"><ele>465.90</ele><time>2014-09-07T10:06:28Z</time></trkpt><trkpt lat="45.8322882000" lon="6.1719263066"><ele>465.90</ele><time>2014-09-07T10:06:29Z</time></trkpt><trkpt lat="45.8323172014" lon="6.1718286574"><ele>465.90</ele><time>2014-09-07T10:06:30Z</time></trkpt><trkpt lat="45.8324081451" lon="6.1713486258"><ele>465.90</ele><time>2014-09-07T10:06:37Z</time></trkpt><trkpt lat="45.8325326163" lon="6.1706712842"><ele>465.90</ele><time>2014-09-07T10:06:47Z</time></trkpt><trkpt lat="45.8325822372" lon="6.1704055779"><ele>465.90</ele><time>2014-09-07T10:06:51Z</time></trkpt><trkpt lat="45.8327578381" lon="6.1694846582"><ele>464.45</ele><time>2014-09-07T10:07:05Z</time></trkpt><trkpt lat="45.8328587562" lon="6.1689335480"><ele>465.42</ele><time>2014-09-07T10:07:13Z</time></trkpt><trkpt lat="45.8328714967" lon="6.1688631400"><ele>465.42</ele><time>2014-09-07T10:07:14Z</time></trkpt><trkpt lat="45.8331444114" lon="6.1674094666"><ele>466.86</ele><time>2014-09-07T10:07:35Z</time></trkpt><trkpt lat="45.8332770132" lon="6.1667303648"><ele>468.78</ele><time>2014-09-07T10:07:45Z</time></trkpt><trkpt lat="45.8332895022" lon="6.1666557658"><ele>469.26</ele><time>2014-09-07T10:07:46Z</time></trkpt><trkpt lat="45.8335127123" lon="6.1654952075"><ele>469.26</ele><time>2014-09-07T10:08:04Z</time></trkpt><trkpt lat="45.8336322382" lon="6.1648724321"><ele>469.74</ele><time>2014-09-07T10:08:18Z</time></trkpt><trkpt lat="45.8336407878" lon="6.1648124177"><ele>469.26</ele><time>2014-09-07T10:08:21Z</time></trkpt><trkpt lat="45.8336574677" lon="6.1647085659"><ele>469.74</ele><time>2014-09-07T10:08:31Z</time></trkpt><trkpt lat="45.8338454738" lon="6.1640484072"><ele>468.30</ele><time>2014-09-07T10:08:45Z</time></trkpt><trkpt lat="45.8341584541" lon="6.1633001547"><ele>470.70</ele><time>2014-09-07T10:09:00Z</time></trkpt><trkpt lat="45.8344146051" lon="6.1628044490"><ele>470.70</ele><time>2014-09-07T10:09:09Z</time></trkpt><trkpt lat="45.8344499767" lon="6.1627741065"><ele>470.22</ele><time>2014-09-07T10:09:10Z</time></trkpt><trkpt lat="45.8344782237" lon="6.1627515592"><ele>470.22</ele><time>2014-09-07T10:09:11Z</time></trkpt><trkpt lat="45.8344956581" lon="6.1627332028"><ele>470.22</ele><time>2014-09-07T10:09:12Z</time></trkpt><trkpt lat="45.8345039561" lon="6.1627156008"><ele>470.70</ele><time>2014-09-07T10:09:13Z</time></trkpt><trkpt lat="45.8345109969" lon="6.1626996752"><ele>471.18</ele><time>2014-09-07T10:09:14Z</time></trkpt><trkpt lat="45.8345203009" lon="6.1626853421"><ele>471.18</ele><time>2014-09-07T10:09:15Z</time></trkpt><trkpt lat="45.8345317841" lon="6.1626764573"><ele>471.66</ele><time>2014-09-07T10:09:16Z</time></trkpt><trkpt lat="45.8345878590" lon="6.1625462025"><ele>471.18</ele><time>2014-09-07T10:09:31Z</time></trkpt><trkpt lat="45.8345893677" lon="6.1625134293"><ele>471.18</ele><time>2014-09-07T10:09:32Z</time></trkpt><trkpt lat="45.8345998451" lon="6.1624847632"><ele>471.18</ele><time>2014-09-07T10:09:33Z</time></trkpt><trkpt lat="45.8346186206" lon="6.1624500621"><ele>471.18</ele><time>2014-09-07T10:09:34Z</time></trkpt><trkpt lat="45.8346344624" lon="6.1624244973"><ele>470.70</ele><time>2014-09-07T10:09:35Z</time></trkpt><trkpt lat="45.8347891923" lon="6.1622198112"><ele>470.22</ele><time>2014-09-07T10:09:41Z</time></trkpt><trkpt lat="45.8348215465" lon="6.1621776503"><ele>469.74</ele><time>2014-09-07T10:09:42Z</time></trkpt><trkpt lat="45.8353937790" lon="6.1613684613"><ele>472.14</ele><time>2014-09-07T10:09:59Z</time></trkpt><trkpt lat="45.8357828669" lon="6.1609246396"><ele>471.18</ele><time>2014-09-07T10:10:09Z</time></trkpt><trkpt lat="45.8358537778" lon="6.1608660500"><ele>470.70</ele><time>2014-09-07T10:10:11Z</time></trkpt><trkpt lat="45.8358961064" lon="6.1608502083"><ele>470.70</ele><time>2014-09-07T10:10:12Z</time></trkpt><trkpt lat="45.8359385189" lon="6.1608439218"><ele>470.70</ele><time>2014-09-07T10:10:13Z</time></trkpt><trkpt lat="45.8359806798" lon="6.1608374678"><ele>470.70</ele><time>2014-09-07T10:10:14Z</time></trkpt><trkpt lat="45.8360281214" lon="6.1608177703"><ele>470.70</ele><time>2014-09-07T10:10:15Z</time></trkpt><trkpt lat="45.8360626549" lon="6.1607843265"><ele>470.22</ele><time>2014-09-07T10:10:16Z</time></trkpt><trkpt lat="45.8360898960" lon="6.1607302632"><ele>470.70</ele><time>2014-09-07T10:10:17Z</time></trkpt><trkpt lat="45.8361105155" lon="6.1606704164"><ele>470.70</ele><time>2014-09-07T10:10:18Z</time></trkpt><trkpt lat="45.8361288719" lon="6.1606038641"><ele>470.22</ele><time>2014-09-07T10:10:19Z</time></trkpt><trkpt lat="45.8361681830" lon="6.1604911275"><ele>469.74</ele><time>2014-09-07T10:10:21Z</time></trkpt><trkpt lat="45.8361989446" lon="6.1604393274"><ele>469.26</ele><time>2014-09-07T10:10:22Z</time></trkpt><trkpt lat="45.8362349030" lon="6.1603923049"><ele>469.26</ele><time>2014-09-07T10:10:23Z</time></trkpt><trkpt lat="45.8370166831" lon="6.1594304815"><ele>466.38</ele><time>2014-09-07T10:10:42Z</time></trkpt><trkpt lat="45.8379001357" lon="6.1583379842"><ele>464.45</ele><time>2014-09-07T10:11:02Z</time></trkpt><trkpt lat="45.8386432752" lon="6.1573753227"><ele>463.49</ele><time>2014-09-07T10:11:19Z</time></trkpt><trkpt lat="45.8393730037" lon="6.1564366333"><ele>464.45</ele><time>2014-09-07T10:11:37Z</time></trkpt><trkpt lat="45.8401431330" lon="6.1554561183"><ele>464.45</ele><time>2014-09-07T10:11:56Z</time></trkpt><trkpt lat="45.8407776430" lon="6.1546394695"><ele>463.97</ele><time>2014-09-07T10:12:12Z</time></trkpt><trkpt lat="45.8416771889" lon="6.1534970161"><ele>464.45</ele><time>2014-09-07T10:12:34Z</time></trkpt><trkpt lat="45.8427132759" lon="6.1521886848"><ele>464.93</ele><time>2014-09-07T10:13:00Z</time></trkpt><trkpt lat="45.8430222329" lon="6.1518104095"><ele>465.42</ele><time>2014-09-07T10:13:08Z</time></trkpt><trkpt lat="45.8432294335" lon="6.1516059749"><ele>465.90</ele><time>2014-09-07T10:13:13Z</time></trkpt><trkpt lat="45.8433081396" lon="6.1515499000"><ele>465.90</ele><time>2014-09-07T10:13:15Z</time></trkpt><trkpt lat="45.8433505520" lon="6.1515172943"><ele>465.90</ele><time>2014-09-07T10:13:16Z</time></trkpt><trkpt lat="45.8433975745" lon="6.1514925677"><ele>465.90</ele><time>2014-09-07T10:13:17Z</time></trkpt><trkpt lat="45.8434431721" lon="6.1514655780"><ele>465.42</ele><time>2014-09-07T10:13:18Z</time></trkpt><trkpt lat="45.8434843272" lon="6.1514235847"><ele>464.93</ele><time>2014-09-07T10:13:19Z</time></trkpt><trkpt lat="45.8435171004" lon="6.1513696890"><ele>464.93</ele><time>2014-09-07T10:13:20Z</time></trkpt><trkpt lat="45.8435439225" lon="6.1513124406"><ele>464.45</ele><time>2014-09-07T10:13:21Z</time></trkpt><trkpt lat="45.8436017577" lon="6.1512121931"><ele>464.45</ele><time>2014-09-07T10:13:23Z</time></trkpt><trkpt lat="45.8436358720" lon="6.1511666793"><ele>464.45</ele><time>2014-09-07T10:13:24Z</time></trkpt><trkpt lat="45.8437688090" lon="6.1509837862"><ele>464.45</ele><time>2014-09-07T10:13:28Z</time></trkpt><trkpt lat="45.8438025881" lon="6.1509411223"><ele>463.97</ele><time>2014-09-07T10:13:29Z</time></trkpt><trkpt lat="45.8440834656" lon="6.1505931057"><ele>463.97</ele><time>2014-09-07T10:13:37Z</time></trkpt><trkpt lat="45.8445774112" lon="6.1499423347"><ele>463.97</ele><time>2014-09-07T10:13:52Z</time></trkpt><trkpt lat="45.8446494117" lon="6.1499289237"><ele>463.49</ele><time>2014-09-07T10:13:54Z</time></trkpt><trkpt lat="45.8446761500" lon="6.1499602720"><ele>463.49</ele><time>2014-09-07T10:13:55Z</time></trkpt><trkpt lat="45.8447826840" lon="6.1501213722"><ele>462.53</ele><time>2014-09-07T10:13:59Z</time></trkpt><trkpt lat="45.8450540062" lon="6.1505048443"><ele>461.57</ele><time>2014-09-07T10:14:09Z</time></trkpt><trkpt lat="45.8450716082" lon="6.1504979711"><ele>461.57</ele><time>2014-09-07T10:14:10Z</time></trkpt><trkpt lat="45.8450875338" lon="6.1504955404"><ele>461.57</ele><time>2014-09-07T10:14:11Z</time></trkpt><trkpt lat="45.8451048844" lon="6.1505051795"><ele>461.57</ele><time>2014-09-07T10:14:12Z</time></trkpt><trkpt lat="45.8451217320" lon="6.1505158246"><ele>461.57</ele><time>2014-09-07T10:14:13Z</time></trkpt><trkpt lat="45.8451373223" lon="6.1505243741"><ele>461.57</ele><time>2014-09-07T10:14:14Z</time></trkpt><trkpt lat="45.8451682515" lon="6.1505252961"><ele>462.53</ele><time>2014-09-07T10:14:24Z</time></trkpt><trkpt lat="45.8451624680" lon="6.1505224463"><ele>459.65</ele><time>2014-09-07T10:14:57Z</time></trkpt><trkpt lat="45.8451409265" lon="6.1505427305"><ele>460.13</ele><time>2014-09-07T10:15:26Z</time></trkpt><trkpt lat="45.8451372385" lon="6.1505341809"><ele>457.72</ele><time>2014-09-07T10:15:58Z</time></trkpt><trkpt lat="45.8451462071" lon="6.1505588237"><ele>458.21</ele><time>2014-09-07T10:16:27Z</time></trkpt><trkpt lat="45.8451622166" lon="6.1505232006"><ele>456.76</ele><time>2014-09-07T10:16:48Z</time></trkpt><trkpt lat="45.8451503981" lon="6.1505057663"><ele>454.36</ele><time>2014-09-07T10:17:20Z</time></trkpt><trkpt lat="45.8451467101" lon="6.1505220272"><ele>452.44</ele><time>2014-09-07T10:17:39Z</time></trkpt><trkpt lat="45.8451322932" lon="6.1505202670"><ele>450.52</ele><time>2014-09-07T10:18:06Z</time></trkpt><trkpt lat="45.8451151941" lon="6.1505264696"><ele>450.52</ele><time>2014-09-07T10:18:35Z</time></trkpt><trkpt lat="45.8451059740" lon="6.1505410541"><ele>451.48</ele><time>2014-09-07T10:19:02Z</time></trkpt><trkpt lat="45.8450927306" lon="6.1505457480"><ele>451.00</ele><time>2014-09-07T10:19:41Z</time></trkpt><trkpt lat="45.8451115899" lon="6.1505215243"><ele>451.96</ele><time>2014-09-07T10:20:14Z</time></trkpt><trkpt lat="45.8451167867" lon="6.1505190097"><ele>452.44</ele><time>2014-09-07T10:20:40Z</time></trkpt><trkpt lat="45.8451123443" lon="6.1505346000"><ele>453.40</ele><time>2014-09-07T10:21:03Z</time></trkpt><trkpt lat="45.8451252524" lon="6.1505428143"><ele>453.40</ele><time>2014-09-07T10:21:33Z</time></trkpt><trkpt lat="45.8451332990" lon="6.1505345162"><ele>453.88</ele><time>2014-09-07T10:22:01Z</time></trkpt><trkpt lat="45.8451393340" lon="6.1505168304"><ele>454.36</ele><time>2014-09-07T10:22:30Z</time></trkpt><trkpt lat="45.8451403398" lon="6.1505017430"><ele>452.44</ele><time>2014-09-07T10:23:04Z</time></trkpt><trkpt lat="45.8451244980" lon="6.1505061015"><ele>449.55</ele><time>2014-09-07T10:23:34Z</time></trkpt><trkpt lat="45.8451052196" lon="6.1505041737"><ele>446.67</ele><time>2014-09-07T10:23:59Z</time></trkpt><trkpt lat="45.8451101650" lon="6.1505051795"><ele>446.19</ele><time>2014-09-07T10:24:29Z</time></trkpt><trkpt lat="45.8451123443" lon="6.1505045928"><ele>451.00</ele><time>2014-09-07T10:25:01Z</time></trkpt><trkpt lat="45.8451372385" lon="6.1505101249"><ele>453.40</ele><time>2014-09-07T10:25:25Z</time></trkpt><trkpt lat="45.8451259229" lon="6.1505195964"><ele>454.36</ele><time>2014-09-07T10:25:55Z</time></trkpt><trkpt lat="45.8451357298" lon="6.1504837219"><ele>452.44</ele><time>2014-09-07T10:26:27Z</time></trkpt><trkpt lat="45.8451521583" lon="6.1504657008"><ele>453.40</ele><time>2014-09-07T10:27:00Z</time></trkpt><trkpt lat="45.8451512363" lon="6.1504754238"><ele>456.28</ele><time>2014-09-07T10:27:33Z</time></trkpt><trkpt lat="45.8451652341" lon="6.1504905112"><ele>461.09</ele><time>2014-09-07T10:28:08Z</time></trkpt><trkpt lat="45.8451239113" lon="6.1504986417"><ele>460.13</ele><time>2014-09-07T10:28:42Z</time></trkpt><trkpt lat="45.8450953290" lon="6.1505202670"><ele>460.13</ele><time>2014-09-07T10:29:19Z</time></trkpt><trkpt lat="45.8450530004" lon="6.1505507771"><ele>463.49</ele><time>2014-09-07T10:29:54Z</time></trkpt><trkpt lat="45.8451096620" lon="6.1505371984"><ele>459.65</ele><time>2014-09-07T10:30:33Z</time></trkpt><trkpt lat="45.8451066446" lon="6.1505592428"><ele>464.45</ele><time>2014-09-07T10:31:07Z</time></trkpt><trkpt lat="45.8450783975" lon="6.1505590752"><ele>466.86</ele><time>2014-09-07T10:31:50Z</time></trkpt><trkpt lat="45.8450948261" lon="6.1505308282"><ele>465.42</ele><time>2014-09-07T10:32:27Z</time></trkpt><trkpt lat="45.8451361489" lon="6.1505349353"><ele>465.90</ele><time>2014-09-07T10:33:06Z</time></trkpt><trkpt lat="45.8451293595" lon="6.1505264696"><ele>464.45</ele><time>2014-09-07T10:33:49Z</time></trkpt><trkpt lat="45.8450825885" lon="6.1505149864"><ele>464.45</ele><time>2014-09-07T10:34:28Z</time></trkpt><trkpt lat="45.8450900484" lon="6.1505177524"><ele>463.97</ele><time>2014-09-07T10:34:56Z</time></trkpt><trkpt lat="45.8451050520" lon="6.1505148187"><ele>463.01</ele><time>2014-09-07T10:35:36Z</time></trkpt><trkpt lat="45.8451537509" lon="6.1505202670"><ele>456.28</ele><time>2014-09-07T10:36:24Z</time></trkpt><trkpt lat="45.8451674134" lon="6.1505271401"><ele>457.24</ele><time>2014-09-07T10:37:11Z</time></trkpt><trkpt lat="45.8451457880" lon="6.1505370308"><ele>460.13</ele><time>2014-09-07T10:37:46Z</time></trkpt><trkpt lat="45.8451568522" lon="6.1505462509"><ele>464.93</ele><time>2014-09-07T10:38:26Z</time></trkpt><trkpt lat="45.8451948222" lon="6.1505226139"><ele>465.42</ele><time>2014-09-07T10:39:07Z</time></trkpt><trkpt lat="45.8452264220" lon="6.1505439039"><ele>472.63</ele><time>2014-09-07T10:39:45Z</time></trkpt><trkpt lat="45.8450965025" lon="6.1505467538"><ele>473.59</ele><time>2014-09-07T10:40:08Z</time></trkpt><trkpt lat="45.8451069798" lon="6.1505321693"><ele>473.59</ele><time>2014-09-07T10:40:21Z</time></trkpt><trkpt lat="45.8451121766" lon="6.1505123042"><ele>469.74</ele><time>2014-09-07T10:40:39Z</time></trkpt><trkpt lat="45.8451121766" lon="6.1505056825"><ele>467.82</ele><time>2014-09-07T10:41:12Z</time></trkpt><trkpt lat="45.8450962510" lon="6.1505238712"><ele>465.90</ele><time>2014-09-07T10:41:44Z</time></trkpt><trkpt lat="45.8451068122" lon="6.1504949536"><ele>468.78</ele><time>2014-09-07T10:42:21Z</time></trkpt><trkpt lat="45.8450971730" lon="6.1505397968"><ele>468.30</ele><time>2014-09-07T10:42:58Z</time></trkpt><trkpt lat="45.8450704347" lon="6.1505351029"><ele>465.42</ele><time>2014-09-07T10:43:34Z</time></trkpt><trkpt lat="45.8450581972" lon="6.1505206861"><ele>463.01</ele><time>2014-09-07T10:44:07Z</time></trkpt><trkpt lat="45.8450986817" lon="6.1505244579"><ele>465.42</ele><time>2014-09-07T10:44:51Z</time></trkpt><trkpt lat="45.8450776432" lon="6.1505110469"><ele>468.30</ele><time>2014-09-07T10:45:24Z</time></trkpt><trkpt lat="45.8450741228" lon="6.1505744141"><ele>465.90</ele><time>2014-09-07T10:45:28Z</time></trkpt><trkpt lat="45.8450695965" lon="6.1506145634"><ele>465.42</ele><time>2014-09-07T10:45:29Z</time></trkpt><trkpt lat="45.8450669982" lon="6.1506540421"><ele>465.42</ele><time>2014-09-07T10:45:30Z</time></trkpt><trkpt lat="45.8450678363" lon="6.1506999750"><ele>464.93</ele><time>2014-09-07T10:45:31Z</time></trkpt><trkpt lat="45.8450722788" lon="6.1507434770"><ele>464.93</ele><time>2014-09-07T10:45:32Z</time></trkpt><trkpt lat="45.8450764697" lon="6.1507879850"><ele>464.45</ele><time>2014-09-07T10:45:33Z</time></trkpt><trkpt lat="45.8450776432" lon="6.1508340016"><ele>464.45</ele><time>2014-09-07T10:45:34Z</time></trkpt><trkpt lat="45.8451929782" lon="6.1514756363"><ele>461.57</ele><time>2014-09-07T10:45:48Z</time></trkpt><trkpt lat="45.8452855982" lon="6.1519303545"><ele>460.13</ele><time>2014-09-07T10:45:58Z</time></trkpt><trkpt lat="45.8453344647" lon="6.1523318477"><ele>461.09</ele><time>2014-09-07T10:46:09Z</time></trkpt><trkpt lat="45.8453467023" lon="6.1523478571"><ele>462.53</ele><time>2014-09-07T10:46:10Z</time></trkpt><trkpt lat="45.8453572635" lon="6.1523653753"><ele>463.97</ele><time>2014-09-07T10:46:11Z</time></trkpt><trkpt lat="45.8453657292" lon="6.1523854919"><ele>464.93</ele><time>2014-09-07T10:46:12Z</time></trkpt><trkpt lat="45.8453731891" lon="6.1524088774"><ele>465.42</ele><time>2014-09-07T10:46:13Z</time></trkpt><trkpt lat="45.8453767095" lon="6.1524331011"><ele>465.42</ele><time>2014-09-07T10:46:14Z</time></trkpt><trkpt lat="45.8453778829" lon="6.1524578277"><ele>465.90</ele><time>2014-09-07T10:46:15Z</time></trkpt><trkpt lat="45.8453353867" lon="6.1527467519"><ele>466.38</ele><time>2014-09-07T10:46:27Z</time></trkpt><trkpt lat="45.8453741111" lon="6.1528487597"><ele>464.45</ele><time>2014-09-07T10:46:30Z</time></trkpt><trkpt lat="45.8454461955" lon="6.1528865620"><ele>462.05</ele><time>2014-09-07T10:46:35Z</time></trkpt><trkpt lat="45.8454731014" lon="6.1528645176"><ele>462.05</ele><time>2014-09-07T10:46:36Z</time></trkpt><trkpt lat="45.8454901166" lon="6.1528538726"><ele>462.05</ele><time>2014-09-07T10:46:37Z</time></trkpt><trkpt lat="45.8455150109" lon="6.1528376956"><ele>461.57</ele><time>2014-09-07T10:46:38Z</time></trkpt><trkpt lat="45.8455414139" lon="6.1528165732"><ele>461.57</ele><time>2014-09-07T10:46:39Z</time></trkpt><trkpt lat="45.8459516242" lon="6.1524865776"><ele>459.17</ele><time>2014-09-07T10:46:52Z</time></trkpt><trkpt lat="45.8464575559" lon="6.1521414109"><ele>457.72</ele><time>2014-09-07T10:47:06Z</time></trkpt><trkpt lat="45.8472162019" lon="6.1516469624"><ele>457.72</ele><time>2014-09-07T10:47:26Z</time></trkpt><trkpt lat="45.8475288469" lon="6.1514579505"><ele>457.72</ele><time>2014-09-07T10:47:34Z</time></trkpt><trkpt lat="45.8476081397" lon="6.1513996962"><ele>457.72</ele><time>2014-09-07T10:47:36Z</time></trkpt><trkpt lat="45.8483544644" lon="6.1509264540"><ele>458.21</ele><time>2014-09-07T10:47:55Z</time></trkpt><trkpt lat="45.8490407746" lon="6.1504800338"><ele>458.21</ele><time>2014-09-07T10:48:13Z</time></trkpt><trkpt lat="45.8493695967" lon="6.1502622720"><ele>458.21</ele><time>2014-09-07T10:48:22Z</time></trkpt><trkpt lat="45.8495967463" lon="6.1501105595"><ele>458.21</ele><time>2014-09-07T10:48:28Z</time></trkpt><trkpt lat="45.8499550726" lon="6.1498840805"><ele>457.72</ele><time>2014-09-07T10:48:37Z</time></trkpt><trkpt lat="45.8499942999" lon="6.1498597730"><ele>457.72</ele><time>2014-09-07T10:48:38Z</time></trkpt><trkpt lat="45.8505773451" lon="6.1494661588"><ele>459.65</ele><time>2014-09-07T10:48:55Z</time></trkpt><trkpt lat="45.8508879784" lon="6.1492797453"><ele>460.13</ele><time>2014-09-07T10:49:06Z</time></trkpt><trkpt lat="45.8509034012" lon="6.1492947489"><ele>460.61</ele><time>2014-09-07T10:49:07Z</time></trkpt><trkpt lat="45.8509006351" lon="6.1493421067"><ele>460.13</ele><time>2014-09-07T10:49:17Z</time></trkpt><trkpt lat="45.8509004675" lon="6.1493074894"><ele>460.61</ele><time>2014-09-07T10:49:30Z</time></trkpt><trkpt lat="45.8509093523" lon="6.1493147817"><ele>461.57</ele><time>2014-09-07T10:50:11Z</time></trkpt><trkpt lat="45.8509021439" lon="6.1493578646"><ele>456.76</ele><time>2014-09-07T10:50:50Z</time></trkpt><trkpt lat="45.8509159740" lon="6.1493462138"><ele>455.32</ele><time>2014-09-07T10:51:21Z</time></trkpt><trkpt lat="45.8508982882" lon="6.1493383348"><ele>457.24</ele><time>2014-09-07T10:51:53Z</time></trkpt><trkpt lat="45.8509160578" lon="6.1493449565"><ele>456.76</ele><time>2014-09-07T10:52:19Z</time></trkpt><trkpt lat="45.8509012219" lon="6.1493255943"><ele>455.32</ele><time>2014-09-07T10:52:48Z</time></trkpt><trkpt lat="45.8508883975" lon="6.1493307073"><ele>458.69</ele><time>2014-09-07T10:53:16Z</time></trkpt><trkpt lat="45.8508998808" lon="6.1493387539"><ele>454.84</ele><time>2014-09-07T10:53:48Z</time></trkpt><trkpt lat="45.8508935105" lon="6.1493274383"><ele>457.24</ele><time>2014-09-07T10:54:22Z</time></trkpt><trkpt lat="45.8508935943" lon="6.1493276898"><ele>459.65</ele><time>2014-09-07T10:54:56Z</time></trkpt><trkpt lat="45.8508857992" lon="6.1493346468"><ele>458.69</ele><time>2014-09-07T10:55:30Z</time></trkpt><trkpt lat="45.8508823626" lon="6.1493231636"><ele>462.05</ele><time>2014-09-07T10:56:01Z</time></trkpt><trkpt lat="45.8509076759" lon="6.1493214034"><ele>458.21</ele><time>2014-09-07T10:56:27Z</time></trkpt><trkpt lat="45.8509037364" lon="6.1493141111"><ele>457.24</ele><time>2014-09-07T10:57:01Z</time></trkpt><trkpt lat="45.8508987911" lon="6.1493114289"><ele>457.24</ele><time>2014-09-07T10:57:29Z</time></trkpt><trkpt lat="45.8508746512" lon="6.1493082438"><ele>458.69</ele><time>2014-09-07T10:58:01Z</time></trkpt><trkpt lat="45.8509025630" lon="6.1493226606"><ele>454.36</ele><time>2014-09-07T10:58:27Z</time></trkpt><trkpt lat="45.8509077597" lon="6.1493395083"><ele>452.44</ele><time>2014-09-07T10:58:56Z</time></trkpt><trkpt lat="45.8508975338" lon="6.1493408494"><ele>455.32</ele><time>2014-09-07T10:59:26Z</time></trkpt><trkpt lat="45.8508841228" lon="6.1493438669"><ele>455.32</ele><time>2014-09-07T10:59:55Z</time></trkpt><trkpt lat="45.8508818597" lon="6.1493173800"><ele>458.21</ele><time>2014-09-07T11:00:36Z</time></trkpt><trkpt lat="45.8508877270" lon="6.1493200622"><ele>459.17</ele><time>2014-09-07T11:01:09Z</time></trkpt><trkpt lat="45.8508914150" lon="6.1493402626"><ele>457.24</ele><time>2014-09-07T11:01:47Z</time></trkpt><trkpt lat="45.8508718014" lon="6.1493296176"><ele>460.61</ele><time>2014-09-07T11:02:15Z</time></trkpt><trkpt lat="45.8508843742" lon="6.1493271869"><ele>455.80</ele><time>2014-09-07T11:02:54Z</time></trkpt><trkpt lat="45.8509103581" lon="6.1493533384"><ele>459.17</ele><time>2014-09-07T11:03:35Z</time></trkpt><trkpt lat="45.8509042393" lon="6.1493230797"><ele>457.72</ele><time>2014-09-07T11:04:12Z</time></trkpt><trkpt lat="45.8509128727" lon="6.1493353173"><ele>453.40</ele><time>2014-09-07T11:04:50Z</time></trkpt><trkpt lat="45.8508955222" lon="6.1493281089"><ele>455.32</ele><time>2014-09-07T11:05:32Z</time></trkpt><trkpt lat="45.8508761600" lon="6.1493175477"><ele>454.36</ele><time>2014-09-07T11:06:11Z</time></trkpt><trkpt lat="45.8508951031" lon="6.1493248399"><ele>453.40</ele><time>2014-09-07T11:06:43Z</time></trkpt><trkpt lat="45.8508707117" lon="6.1493125185"><ele>451.96</ele><time>2014-09-07T11:07:19Z</time></trkpt><trkpt lat="45.8509095199" lon="6.1493225768"><ele>459.17</ele><time>2014-09-07T11:07:51Z</time></trkpt><trkpt lat="45.8509089332" lon="6.1493203137"><ele>458.69</ele><time>2014-09-07T11:08:45Z</time></trkpt><trkpt lat="45.8508995455" lon="6.1493333057"><ele>457.24</ele><time>2014-09-07T11:09:23Z</time></trkpt><trkpt lat="45.8508953545" lon="6.1493448727"><ele>455.80</ele><time>2014-09-07T11:09:56Z</time></trkpt><trkpt lat="45.8509032335" lon="6.1493312102"><ele>457.24</ele><time>2014-09-07T11:10:41Z</time></trkpt><trkpt lat="45.8508916665" lon="6.1493157875"><ele>456.76</ele><time>2014-09-07T11:11:13Z</time></trkpt><trkpt lat="45.8508895710" lon="6.1493298691"><ele>458.21</ele><time>2014-09-07T11:11:59Z</time></trkpt><trkpt lat="45.8509092685" lon="6.1493017897"><ele>457.72</ele><time>2014-09-07T11:12:41Z</time></trkpt><trkpt lat="45.8509095199" lon="6.1493360717"><ele>458.69</ele><time>2014-09-07T11:13:17Z</time></trkpt><trkpt lat="45.8508941811" lon="6.1493184697"><ele>458.21</ele><time>2014-09-07T11:14:05Z</time></trkpt><trkpt lat="45.8509096038" lon="6.1493209004"><ele>454.84</ele><time>2014-09-07T11:14:52Z</time></trkpt><trkpt lat="45.8508911636" lon="6.1493343115"><ele>451.48</ele><time>2014-09-07T11:15:29Z</time></trkpt><trkpt lat="45.8508847933" lon="6.1493522488"><ele>451.48</ele><time>2014-09-07T11:16:12Z</time></trkpt><trkpt lat="45.8508968633" lon="6.1493412685"><ele>451.48</ele><time>2014-09-07T11:16:31Z</time></trkpt><trkpt lat="45.8508884814" lon="6.1493166257"><ele>453.40</ele><time>2014-09-07T11:16:44Z</time></trkpt><trkpt lat="45.8508988749" lon="6.1493236665"><ele>456.76</ele><time>2014-09-07T11:17:14Z</time></trkpt><trkpt lat="45.8509023115" lon="6.1493368261"><ele>455.32</ele><time>2014-09-07T11:17:53Z</time></trkpt><trkpt lat="45.8509025630" lon="6.1493225768"><ele>456.76</ele><time>2014-09-07T11:18:44Z</time></trkpt><trkpt lat="45.8508812729" lon="6.1493250076"><ele>454.84</ele><time>2014-09-07T11:19:26Z</time></trkpt><trkpt lat="45.8508768305" lon="6.1493375804"><ele>458.69</ele><time>2014-09-07T11:20:16Z</time></trkpt><trkpt lat="45.8508997131" lon="6.1493366584"><ele>457.24</ele><time>2014-09-07T11:20:58Z</time></trkpt><trkpt lat="45.8509200811" lon="6.1493268516"><ele>458.69</ele><time>2014-09-07T11:21:27Z</time></trkpt><trkpt lat="45.8509110287" lon="6.1493072379"><ele>458.21</ele><time>2014-09-07T11:21:45Z</time></trkpt><trkpt lat="45.8509116992" lon="6.1492958385"><ele>458.21</ele><time>2014-09-07T11:21:46Z</time></trkpt><trkpt lat="45.8509145491" lon="6.1492661666"><ele>457.72</ele><time>2014-09-07T11:21:48Z</time></trkpt><trkpt lat="45.8509434666" lon="6.1492110975"><ele>457.72</ele><time>2014-09-07T11:21:53Z</time></trkpt><trkpt lat="45.8509608172" lon="6.1492021289"><ele>457.72</ele><time>2014-09-07T11:21:54Z</time></trkpt><trkpt lat="45.8509777486" lon="6.1491923220"><ele>457.72</ele><time>2014-09-07T11:21:55Z</time></trkpt><trkpt lat="45.8509972785" lon="6.1491800006"><ele>457.72</ele><time>2014-09-07T11:21:56Z</time></trkpt><trkpt lat="45.8510207478" lon="6.1491664220"><ele>457.72</ele><time>2014-09-07T11:21:57Z</time></trkpt><trkpt lat="45.8513809182" lon="6.1488585547"><ele>458.69</ele><time>2014-09-07T11:22:10Z</time></trkpt><trkpt lat="45.8518786356" lon="6.1483809538"><ele>458.69</ele><time>2014-09-07T11:22:25Z</time></trkpt><trkpt lat="45.8523279056" lon="6.1479621939"><ele>456.76</ele><time>2014-09-07T11:22:38Z</time></trkpt><trkpt lat="45.8530337457" lon="6.1473130155"><ele>453.88</ele><time>2014-09-07T11:22:57Z</time></trkpt><trkpt lat="45.8535706066" lon="6.1468392704"><ele>453.88</ele><time>2014-09-07T11:23:11Z</time></trkpt><trkpt lat="45.8542183600" lon="6.1465173215"><ele>454.36</ele><time>2014-09-07T11:23:27Z</time></trkpt><trkpt lat="45.8547959570" lon="6.1464091111"><ele>453.88</ele><time>2014-09-07T11:23:39Z</time></trkpt><trkpt lat="45.8552837837" lon="6.1463565566"><ele>455.32</ele><time>2014-09-07T11:23:54Z</time></trkpt><trkpt lat="45.8557316288" lon="6.1463012360"><ele>456.28</ele><time>2014-09-07T11:24:09Z</time></trkpt><trkpt lat="45.8559358120" lon="6.1462308280"><ele>456.28</ele><time>2014-09-07T11:24:24Z</time></trkpt><trkpt lat="45.8560933918" lon="6.1461868230"><ele>457.24</ele><time>2014-09-07T11:24:34Z</time></trkpt><trkpt lat="45.8561094012" lon="6.1461857334"><ele>457.24</ele><time>2014-09-07T11:24:35Z</time></trkpt><trkpt lat="45.8562028594" lon="6.1461459193"><ele>457.72</ele><time>2014-09-07T11:24:42Z</time></trkpt><trkpt lat="45.8562071342" lon="6.1461286526"><ele>457.72</ele><time>2014-09-07T11:24:43Z</time></trkpt><trkpt lat="45.8562177792" lon="6.1461165827"><ele>458.21</ele><time>2014-09-07T11:24:44Z</time></trkpt><trkpt lat="45.8564903587" lon="6.1459347792"><ele>456.76</ele><time>2014-09-07T11:24:56Z</time></trkpt><trkpt lat="45.8569544647" lon="6.1455298495"><ele>454.84</ele><time>2014-09-07T11:25:13Z</time></trkpt><trkpt lat="45.8574094344" lon="6.1448917352"><ele>453.40</ele><time>2014-09-07T11:25:30Z</time></trkpt><trkpt lat="45.8577600494" lon="6.1442938540"><ele>451.96</ele><time>2014-09-07T11:25:44Z</time></trkpt><trkpt lat="45.8581592795" lon="6.1436922848"><ele>451.96</ele><time>2014-09-07T11:26:01Z</time></trkpt><trkpt lat="45.8588043507" lon="6.1430907995"><ele>452.44</ele><time>2014-09-07T11:26:20Z</time></trkpt><trkpt lat="45.8591946959" lon="6.1428849399"><ele>453.88</ele><time>2014-09-07T11:26:35Z</time></trkpt><trkpt lat="45.8592253737" lon="6.1428656615"><ele>453.88</ele><time>2014-09-07T11:26:37Z</time></trkpt><trkpt lat="45.8592361864" lon="6.1427719519"><ele>453.88</ele><time>2014-09-07T11:26:40Z</time></trkpt><trkpt lat="45.8592413832" lon="6.1427307967"><ele>453.88</ele><time>2014-09-07T11:26:41Z</time></trkpt><trkpt lat="45.8592278045" lon="6.1423705425"><ele>451.96</ele><time>2014-09-07T11:26:51Z</time></trkpt><trkpt lat="45.8592073526" lon="6.1422552075"><ele>452.44</ele><time>2014-09-07T11:26:59Z</time></trkpt><trkpt lat="45.8591988031" lon="6.1422386114"><ele>452.44</ele><time>2014-09-07T11:27:00Z</time></trkpt><trkpt lat="45.8591371123" lon="6.1421284731"><ele>452.44</ele><time>2014-09-07T11:27:11Z</time></trkpt><trkpt lat="45.8589807898" lon="6.1419486813"><ele>452.92</ele><time>2014-09-07T11:27:18Z</time></trkpt><trkpt lat="45.8589697257" lon="6.1419013236"><ele>452.92</ele><time>2014-09-07T11:27:19Z</time></trkpt><trkpt lat="45.8589603379" lon="6.1418559775"><ele>452.92</ele><time>2014-09-07T11:27:20Z</time></trkpt><trkpt lat="45.8589480165" lon="6.1418131460"><ele>452.92</ele><time>2014-09-07T11:27:21Z</time></trkpt><trkpt lat="45.8589289058" lon="6.1417763494"><ele>452.92</ele><time>2014-09-07T11:27:22Z</time></trkpt><trkpt lat="45.8589030895" lon="6.1417507008"><ele>452.92</ele><time>2014-09-07T11:27:23Z</time></trkpt><trkpt lat="45.8586957213" lon="6.1416564044"><ele>452.92</ele><time>2014-09-07T11:27:31Z</time></trkpt><trkpt lat="45.8586088847" lon="6.1415924504"><ele>453.88</ele><time>2014-09-07T11:27:36Z</time></trkpt><trkpt lat="45.8585086372" lon="6.1416056938"><ele>453.88</ele><time>2014-09-07T11:27:40Z</time></trkpt><trkpt lat="45.8585172705" lon="6.1418092065"><ele>454.36</ele><time>2014-09-07T11:27:48Z</time></trkpt><trkpt lat="45.8585165162" lon="6.1418385431"><ele>454.84</ele><time>2014-09-07T11:27:58Z</time></trkpt><trkpt lat="45.8585227188" lon="6.1418404710"><ele>454.36</ele><time>2014-09-07T11:28:22Z</time></trkpt><trkpt lat="45.8585297596" lon="6.1418586597"><ele>456.28</ele><time>2014-09-07T11:29:01Z</time></trkpt><trkpt lat="45.8585115708" lon="6.1418559775"><ele>455.80</ele><time>2014-09-07T11:29:30Z</time></trkpt><trkpt lat="45.8584964834" lon="6.1418660358"><ele>460.61</ele><time>2014-09-07T11:29:57Z</time></trkpt><trkpt lat="45.8585168514" lon="6.1418415606"><ele>463.01</ele><time>2014-09-07T11:30:21Z</time></trkpt><trkpt lat="45.8585038595" lon="6.1418339331"><ele>462.05</ele><time>2014-09-07T11:30:46Z</time></trkpt><trkpt lat="45.8585038595" lon="6.1418211088"><ele>460.13</ele><time>2014-09-07T11:31:10Z</time></trkpt><trkpt lat="45.8585310169" lon="6.1418016627"><ele>458.21</ele><time>2014-09-07T11:31:18Z</time></trkpt><trkpt lat="45.8588248864" lon="6.1418728251"><ele>457.24</ele><time>2014-09-07T11:31:32Z</time></trkpt><trkpt lat="45.8588468470" lon="6.1418579053"><ele>457.24</ele><time>2014-09-07T11:31:33Z</time></trkpt><trkpt lat="45.8589186799" lon="6.1418939475"><ele>457.24</ele><time>2014-09-07T11:31:37Z</time></trkpt><trkpt lat="45.8589232899" lon="6.1419169139"><ele>457.24</ele><time>2014-09-07T11:31:38Z</time></trkpt><trkpt lat="45.8589265589" lon="6.1419436522"><ele>457.24</ele><time>2014-09-07T11:31:39Z</time></trkpt><trkpt lat="45.8589405566" lon="6.1420734879"><ele>457.24</ele><time>2014-09-07T11:31:49Z</time></trkpt><trkpt lat="45.8589531295" lon="6.1421361845"><ele>457.24</ele><time>2014-09-07T11:31:58Z</time></trkpt><trkpt lat="45.8589734137" lon="6.1421505176"><ele>457.24</ele><time>2014-09-07T11:31:59Z</time></trkpt><trkpt lat="45.8590170834" lon="6.1421605758"><ele>457.24</ele><time>2014-09-07T11:32:01Z</time></trkpt><trkpt lat="45.8594297245" lon="6.1420188379"><ele>456.28</ele><time>2014-09-07T11:32:13Z</time></trkpt><trkpt lat="45.8602458704" lon="6.1417051870"><ele>458.21</ele><time>2014-09-07T11:32:35Z</time></trkpt><trkpt lat="45.8608152531" lon="6.1415089667"><ele>459.17</ele><time>2014-09-07T11:32:51Z</time></trkpt><trkpt lat="45.8614935167" lon="6.1412516423"><ele>461.57</ele><time>2014-09-07T11:33:11Z</time></trkpt><trkpt lat="45.8621725347" lon="6.1409985926"><ele>463.01</ele><time>2014-09-07T11:33:31Z</time></trkpt><trkpt lat="45.8625168633" lon="6.1409230717"><ele>463.01</ele><time>2014-09-07T11:33:41Z</time></trkpt><trkpt lat="45.8626793884" lon="6.1407905538"><ele>463.49</ele><time>2014-09-07T11:33:46Z</time></trkpt><trkpt lat="45.8627205435" lon="6.1407842673"><ele>463.49</ele><time>2014-09-07T11:33:47Z</time></trkpt><trkpt lat="45.8634557202" lon="6.1405686010"><ele>463.49</ele><time>2014-09-07T11:34:03Z</time></trkpt><trkpt lat="45.8641721215" lon="6.1402725521"><ele>462.05</ele><time>2014-09-07T11:34:18Z</time></trkpt><trkpt lat="45.8642574493" lon="6.1402420420"><ele>462.05</ele><time>2014-09-07T11:34:20Z</time></trkpt><trkpt lat="45.8643836807" lon="6.1402041558"><ele>462.05</ele><time>2014-09-07T11:34:23Z</time></trkpt><trkpt lat="45.8651360404" lon="6.1399101187"><ele>463.01</ele><time>2014-09-07T11:34:40Z</time></trkpt><trkpt lat="45.8651790395" lon="6.1399018206"><ele>462.53</ele><time>2014-09-07T11:34:41Z</time></trkpt><trkpt lat="45.8656542096" lon="6.1398336757"><ele>461.57</ele><time>2014-09-07T11:34:51Z</time></trkpt><trkpt lat="45.8658611588" lon="6.1398357712"><ele>461.57</ele><time>2014-09-07T11:34:55Z</time></trkpt><trkpt lat="45.8668167796" lon="6.1400274653"><ele>459.17</ele><time>2014-09-07T11:35:13Z</time></trkpt><trkpt lat="45.8677316643" lon="6.1402124539"><ele>458.21</ele><time>2014-09-07T11:35:32Z</time></trkpt><trkpt lat="45.8683661744" lon="6.1403334048"><ele>459.65</ele><time>2014-09-07T11:35:49Z</time></trkpt><trkpt lat="45.8688881155" lon="6.1404385976"><ele>462.05</ele><time>2014-09-07T11:36:05Z</time></trkpt><trkpt lat="45.8695014194" lon="6.1405543517"><ele>463.97</ele><time>2014-09-07T11:36:24Z</time></trkpt><trkpt lat="45.8700629231" lon="6.1406783201"><ele>466.38</ele><time>2014-09-07T11:36:41Z</time></trkpt><trkpt lat="45.8707683440" lon="6.1408168729"><ele>467.34</ele><time>2014-09-07T11:36:59Z</time></trkpt><trkpt lat="45.8715999126" lon="6.1409944016"><ele>467.82</ele><time>2014-09-07T11:37:16Z</time></trkpt><trkpt lat="45.8727890532" lon="6.1412910372"><ele>463.01</ele><time>2014-09-07T11:37:35Z</time></trkpt><trkpt lat="45.8738873340" lon="6.1415736750"><ele>461.57</ele><time>2014-09-07T11:37:52Z</time></trkpt><trkpt lat="45.8743860573" lon="6.1416335218"><ele>461.57</ele><time>2014-09-07T11:38:04Z</time></trkpt><trkpt lat="45.8744272124" lon="6.1416235473"><ele>461.57</ele><time>2014-09-07T11:38:14Z</time></trkpt><trkpt lat="45.8744091075" lon="6.1415874213"><ele>461.57</ele><time>2014-09-07T11:38:43Z</time></trkpt><trkpt lat="45.8744084369" lon="6.1415852420"><ele>463.97</ele><time>2014-09-07T11:39:05Z</time></trkpt><trkpt lat="45.8743966185" lon="6.1415264849"><ele>464.93</ele><time>2014-09-07T11:39:33Z</time></trkpt><trkpt lat="45.8743848838" lon="6.1415019259"><ele>466.86</ele><time>2014-09-07T11:40:03Z</time></trkpt><trkpt lat="45.8743804414" lon="6.1415046081"><ele>466.86</ele><time>2014-09-07T11:40:18Z</time></trkpt><trkpt lat="45.8743738197" lon="6.1414461024"><ele>468.78</ele><time>2014-09-07T11:40:50Z</time></trkpt><trkpt lat="45.8743697125" lon="6.1413730122"><ele>470.22</ele><time>2014-09-07T11:41:23Z</time></trkpt><trkpt lat="45.8743707184" lon="6.1413805559"><ele>467.82</ele><time>2014-09-07T11:41:53Z</time></trkpt><trkpt lat="45.8743756637" lon="6.1413885187"><ele>467.34</ele><time>2014-09-07T11:42:24Z</time></trkpt><trkpt lat="45.8743787650" lon="6.1414153408"><ele>466.38</ele><time>2014-09-07T11:42:45Z</time></trkpt><trkpt lat="45.8743730653" lon="6.1413807236"><ele>467.82</ele><time>2014-09-07T11:43:05Z</time></trkpt><trkpt lat="45.8743824530" lon="6.1414073780"><ele>466.86</ele><time>2014-09-07T11:43:29Z</time></trkpt><trkpt lat="45.8743875660" lon="6.1414533108"><ele>467.34</ele><time>2014-09-07T11:43:54Z</time></trkpt><trkpt lat="45.8743810281" lon="6.1414454319"><ele>469.74</ele><time>2014-09-07T11:44:09Z</time></trkpt><trkpt lat="45.8743693773" lon="6.1414652970"><ele>470.70</ele><time>2014-09-07T11:44:30Z</time></trkpt><trkpt lat="45.8743733168" lon="6.1414791271"><ele>470.70</ele><time>2014-09-07T11:44:57Z</time></trkpt><trkpt lat="45.8743627556" lon="6.1414567474"><ele>475.03</ele><time>2014-09-07T11:45:20Z</time></trkpt><trkpt lat="45.8743682038" lon="6.1415212881"><ele>471.66</ele><time>2014-09-07T11:45:40Z</time></trkpt><trkpt lat="45.8743573073" lon="6.1415013392"><ele>473.11</ele><time>2014-09-07T11:46:08Z</time></trkpt><trkpt lat="45.8743493445" lon="6.1414891016"><ele>473.59</ele><time>2014-09-07T11:46:35Z</time></trkpt><trkpt lat="45.8743965346" lon="6.1414699908"><ele>477.43</ele><time>2014-09-07T11:47:01Z</time></trkpt><trkpt lat="45.8746583015" lon="6.1415372975"><ele>473.59</ele><time>2014-09-07T11:47:11Z</time></trkpt><trkpt lat="45.8752425201" lon="6.1416277383"><ele>467.34</ele><time>2014-09-07T11:47:27Z</time></trkpt><trkpt lat="45.8756817318" lon="6.1416266486"><ele>467.34</ele><time>2014-09-07T11:47:42Z</time></trkpt><trkpt lat="45.8761315886" lon="6.1416260619"><ele>468.30</ele><time>2014-09-07T11:47:58Z</time></trkpt><trkpt lat="45.8764787670" lon="6.1416480225"><ele>467.82</ele><time>2014-09-07T11:48:11Z</time></trkpt><trkpt lat="45.8769523446" lon="6.1416755989"><ele>467.34</ele><time>2014-09-07T11:48:29Z</time></trkpt><trkpt lat="45.8773710206" lon="6.1417081207"><ele>469.74</ele><time>2014-09-07T11:48:45Z</time></trkpt><trkpt lat="45.8779270761" lon="6.1417089589"><ele>469.26</ele><time>2014-09-07T11:49:02Z</time></trkpt><trkpt lat="45.8786899131" lon="6.1417567357"><ele>467.34</ele><time>2014-09-07T11:49:21Z</time></trkpt><trkpt lat="45.8794627246" lon="6.1417933647"><ele>465.42</ele><time>2014-09-07T11:49:38Z</time></trkpt><trkpt lat="45.8797633834" lon="6.1417936161"><ele>465.42</ele><time>2014-09-07T11:49:44Z</time></trkpt><trkpt lat="45.8798121661" lon="6.1417929456"><ele>465.42</ele><time>2014-09-07T11:49:45Z</time></trkpt><trkpt lat="45.8808529470" lon="6.1418796144"><ele>461.09</ele><time>2014-09-07T11:50:04Z</time></trkpt><trkpt lat="45.8815032989" lon="6.1419608351"><ele>459.65</ele><time>2014-09-07T11:50:15Z</time></trkpt><trkpt lat="45.8817972522" lon="6.1419834662"><ele>458.21</ele><time>2014-09-07T11:50:25Z</time></trkpt><trkpt lat="45.8824506216" lon="6.1419634335"><ele>455.32</ele><time>2014-09-07T11:50:38Z</time></trkpt><trkpt lat="45.8830818627" lon="6.1420259625"><ele>454.36</ele><time>2014-09-07T11:50:52Z</time></trkpt><trkpt lat="45.8836176340" lon="6.1420998070"><ele>457.24</ele><time>2014-09-07T11:51:05Z</time></trkpt><trkpt lat="45.8842820674" lon="6.1422532797"><ele>457.72</ele><time>2014-09-07T11:51:22Z</time></trkpt><trkpt lat="45.8850426413" lon="6.1423821934"><ele>455.32</ele><time>2014-09-07T11:51:42Z</time></trkpt><trkpt lat="45.8856748883" lon="6.1425910704"><ele>454.84</ele><time>2014-09-07T11:51:58Z</time></trkpt><trkpt lat="45.8858322166" lon="6.1426667590"><ele>454.84</ele><time>2014-09-07T11:52:02Z</time></trkpt><trkpt lat="45.8858730365" lon="6.1426887196"><ele>454.84</ele><time>2014-09-07T11:52:03Z</time></trkpt><trkpt lat="45.8859107550" lon="6.1427100934"><ele>454.84</ele><time>2014-09-07T11:52:04Z</time></trkpt><trkpt lat="45.8859477192" lon="6.1427326407"><ele>454.84</ele><time>2014-09-07T11:52:05Z</time></trkpt><trkpt lat="45.8859855216" lon="6.1427566968"><ele>454.84</ele><time>2014-09-07T11:52:06Z</time></trkpt><trkpt lat="45.8860263415" lon="6.1427825969"><ele>454.36</ele><time>2014-09-07T11:52:07Z</time></trkpt><trkpt lat="45.8867019229" lon="6.1431389116"><ele>453.88</ele><time>2014-09-07T11:52:24Z</time></trkpt><trkpt lat="45.8871521987" lon="6.1433259957"><ele>453.40</ele><time>2014-09-07T11:52:35Z</time></trkpt><trkpt lat="45.8871924318" lon="6.1433378980"><ele>453.40</ele><time>2014-09-07T11:52:36Z</time></trkpt><trkpt lat="45.8873158973" lon="6.1433806457"><ele>453.88</ele><time>2014-09-07T11:52:39Z</time></trkpt><trkpt lat="45.8880633116" lon="6.1435878463"><ele>455.80</ele><time>2014-09-07T11:52:58Z</time></trkpt><trkpt lat="45.8886509668" lon="6.1436600983"><ele>456.28</ele><time>2014-09-07T11:53:13Z</time></trkpt><trkpt lat="45.8894324955" lon="6.1436355393"><ele>455.80</ele><time>2014-09-07T11:53:32Z</time></trkpt><trkpt lat="45.8898363356" lon="6.1435137503"><ele>455.80</ele><time>2014-09-07T11:53:42Z</time></trkpt><trkpt lat="45.8899825159" lon="6.1434071325"><ele>455.80</ele><time>2014-09-07T11:53:46Z</time></trkpt><trkpt lat="45.8901561890" lon="6.1432171986"><ele>455.32</ele><time>2014-09-07T11:53:51Z</time></trkpt><trkpt lat="45.8905114140" lon="6.1424194928"><ele>453.40</ele><time>2014-09-07T11:54:07Z</time></trkpt><trkpt lat="45.8905691653" lon="6.1420827080"><ele>451.96</ele><time>2014-09-07T11:54:14Z</time></trkpt><trkpt lat="45.8905886114" lon="6.1420562211"><ele>451.96</ele><time>2014-09-07T11:54:15Z</time></trkpt><trkpt lat="45.8906027768" lon="6.1420384515"><ele>452.44</ele><time>2014-09-07T11:54:16Z</time></trkpt><trkpt lat="45.8905650582" lon="6.1419814546"><ele>457.24</ele><time>2014-09-07T11:54:29Z</time></trkpt><trkpt lat="45.8905953169" lon="6.1419865675"><ele>453.88</ele><time>2014-09-07T11:54:56Z</time></trkpt><trkpt lat="45.8905717637" lon="6.1419932730"><ele>457.24</ele><time>2014-09-07T11:55:18Z</time></trkpt><trkpt lat="45.8905719314" lon="6.1419961229"><ele>455.80</ele><time>2014-09-07T11:55:36Z</time></trkpt><trkpt lat="45.8905653935" lon="6.1419790238"><ele>455.80</ele><time>2014-09-07T11:55:37Z</time></trkpt><trkpt lat="45.8905632142" lon="6.1419420596"><ele>455.32</ele><time>2014-09-07T11:55:39Z</time></trkpt><trkpt lat="45.8905716799" lon="6.1418827996"><ele>455.32</ele><time>2014-09-07T11:55:40Z</time></trkpt><trkpt lat="45.8906304371" lon="6.1412674841"><ele>453.88</ele><time>2014-09-07T11:55:52Z</time></trkpt><trkpt lat="45.8908434212" lon="6.1404207442"><ele>452.92</ele><time>2014-09-07T11:56:08Z</time></trkpt><trkpt lat="45.8911017515" lon="6.1398071051"><ele>451.00</ele><time>2014-09-07T11:56:23Z</time></trkpt><trkpt lat="45.8914685436" lon="6.1392393988"><ele>451.96</ele><time>2014-09-07T11:56:37Z</time></trkpt><trkpt lat="45.8917911630" lon="6.1386540905"><ele>451.96</ele><time>2014-09-07T11:56:52Z</time></trkpt><trkpt lat="45.8921678457" lon="6.1380091868"><ele>452.44</ele><time>2014-09-07T11:57:08Z</time></trkpt><trkpt lat="45.8924626373" lon="6.1375039257"><ele>453.88</ele><time>2014-09-07T11:57:23Z</time></trkpt><trkpt lat="45.8928326983" lon="6.1368962377"><ele>452.92</ele><time>2014-09-07T11:57:41Z</time></trkpt><trkpt lat="45.8931402303" lon="6.1364953313"><ele>451.96</ele><time>2014-09-07T11:57:56Z</time></trkpt><trkpt lat="45.8934838884" lon="6.1359928362"><ele>451.48</ele><time>2014-09-07T11:58:10Z</time></trkpt><trkpt lat="45.8938547038" lon="6.1354497727"><ele>451.48</ele><time>2014-09-07T11:58:25Z</time></trkpt><trkpt lat="45.8941755630" lon="6.1349343695"><ele>451.48</ele><time>2014-09-07T11:58:40Z</time></trkpt><trkpt lat="45.8943752199" lon="6.1347164400"><ele>451.00</ele><time>2014-09-07T11:58:49Z</time></trkpt><trkpt lat="45.8946384955" lon="6.1343986820"><ele>451.48</ele><time>2014-09-07T11:59:00Z</time></trkpt><trkpt lat="45.8950007614" lon="6.1339806765"><ele>451.96</ele><time>2014-09-07T11:59:14Z</time></trkpt><trkpt lat="45.8950588480" lon="6.1339481547"><ele>451.96</ele><time>2014-09-07T11:59:16Z</time></trkpt><trkpt lat="45.8950965665" lon="6.1339677684"><ele>451.96</ele><time>2014-09-07T11:59:17Z</time></trkpt><trkpt lat="45.8951152582" lon="6.1339909025"><ele>452.44</ele><time>2014-09-07T11:59:18Z</time></trkpt><trkpt lat="45.8951424994" lon="6.1340200715"><ele>452.44</ele><time>2014-09-07T11:59:19Z</time></trkpt><trkpt lat="45.8951559942" lon="6.1340206582"><ele>452.44</ele><time>2014-09-07T11:59:20Z</time></trkpt><trkpt lat="45.8952126559" lon="6.1339810956"><ele>452.92</ele><time>2014-09-07T11:59:23Z</time></trkpt><trkpt lat="45.8955600020" lon="6.1336345877"><ele>453.40</ele><time>2014-09-07T11:59:36Z</time></trkpt><trkpt lat="45.8955901768" lon="6.1336505134"><ele>453.40</ele><time>2014-09-07T11:59:37Z</time></trkpt><trkpt lat="45.8956120536" lon="6.1336808559"><ele>453.40</ele><time>2014-09-07T11:59:38Z</time></trkpt><trkpt lat="45.8959521074" lon="6.1342717800"><ele>452.44</ele><time>2014-09-07T11:59:53Z</time></trkpt><trkpt lat="45.8962545265" lon="6.1347716767"><ele>452.44</ele><time>2014-09-07T12:00:06Z</time></trkpt><trkpt lat="45.8962858748" lon="6.1347731855"><ele>452.44</ele><time>2014-09-07T12:00:07Z</time></trkpt><trkpt lat="45.8963138703" lon="6.1347546615"><ele>452.44</ele><time>2014-09-07T12:00:08Z</time></trkpt><trkpt lat="45.8963365015" lon="6.1347292643"><ele>452.44</ele><time>2014-09-07T12:00:09Z</time></trkpt><trkpt lat="45.8963504992" lon="6.1346969102"><ele>452.44</ele><time>2014-09-07T12:00:10Z</time></trkpt><trkpt lat="45.8963486552" lon="6.1346591916"><ele>452.44</ele><time>2014-09-07T12:00:11Z</time></trkpt><trkpt lat="45.8963260241" lon="6.1346404999"><ele>451.00</ele><time>2014-09-07T12:00:19Z</time></trkpt><trkpt lat="45.8963637426" lon="6.1346726026"><ele>448.59</ele><time>2014-09-07T12:00:52Z</time></trkpt><trkpt lat="45.8963676821" lon="6.1346676573"><ele>449.07</ele><time>2014-09-07T12:01:31Z</time></trkpt><trkpt lat="45.8963847812" lon="6.1346715968"><ele>445.71</ele><time>2014-09-07T12:02:18Z</time></trkpt><trkpt lat="45.8963824343" lon="6.1346539110"><ele>441.86</ele><time>2014-09-07T12:03:00Z</time></trkpt><trkpt lat="45.8963736333" lon="6.1346422601"><ele>442.34</ele><time>2014-09-07T12:03:37Z</time></trkpt><trkpt lat="45.8963800035" lon="6.1346404161"><ele>442.82</ele><time>2014-09-07T12:04:10Z</time></trkpt><trkpt lat="45.8963681851" lon="6.1346566770"><ele>446.19</ele><time>2014-09-07T12:04:47Z</time></trkpt><trkpt lat="45.8963711187" lon="6.1346440203"><ele>447.15</ele><time>2014-09-07T12:05:27Z</time></trkpt><trkpt lat="45.8963680174" lon="6.1346734408"><ele>448.11</ele><time>2014-09-07T12:06:07Z</time></trkpt><trkpt lat="45.8963682689" lon="6.1346622929"><ele>446.19</ele><time>2014-09-07T12:06:42Z</time></trkpt><trkpt lat="45.8963560313" lon="6.1346620414"><ele>443.31</ele><time>2014-09-07T12:07:15Z</time></trkpt><trkpt lat="45.8963376749" lon="6.1346482113"><ele>443.31</ele><time>2014-09-07T12:07:59Z</time></trkpt><trkpt lat="45.8963374235" lon="6.1346401647"><ele>446.67</ele><time>2014-09-07T12:08:52Z</time></trkpt><trkpt lat="45.8963436261" lon="6.1346430145"><ele>448.11</ele><time>2014-09-07T12:09:31Z</time></trkpt><trkpt lat="45.8963458054" lon="6.1346647236"><ele>451.48</ele><time>2014-09-07T12:10:23Z</time></trkpt><trkpt lat="45.8963475656" lon="6.1346793082"><ele>451.00</ele><time>2014-09-07T12:11:13Z</time></trkpt><trkpt lat="45.8963497449" lon="6.1346667353"><ele>449.07</ele><time>2014-09-07T12:12:01Z</time></trkpt><trkpt lat="45.8963484038" lon="6.1346456967"><ele>448.59</ele><time>2014-09-07T12:12:41Z</time></trkpt><trkpt lat="45.8963660058" lon="6.1346603651"><ele>447.63</ele><time>2014-09-07T12:13:23Z</time></trkpt><trkpt lat="45.8963238448" lon="6.1346627120"><ele>451.00</ele><time>2014-09-07T12:14:04Z</time></trkpt><trkpt lat="45.8963215817" lon="6.1346616223"><ele>451.96</ele><time>2014-09-07T12:14:46Z</time></trkpt><trkpt lat="45.8963269461" lon="6.1346641369"><ele>452.44</ele><time>2014-09-07T12:15:39Z</time></trkpt><trkpt lat="45.8963211626" lon="6.1346705072"><ele>453.88</ele><time>2014-09-07T12:16:24Z</time></trkpt><trkpt lat="45.8963182289" lon="6.1347221397"><ele>461.09</ele><time>2014-09-07T12:17:00Z</time></trkpt><trkpt lat="45.8963244315" lon="6.1347340420"><ele>461.57</ele><time>2014-09-07T12:17:40Z</time></trkpt><trkpt lat="45.8963359986" lon="6.1347196251"><ele>458.69</ele><time>2014-09-07T12:18:30Z</time></trkpt><trkpt lat="45.8963341545" lon="6.1347115785"><ele>454.36</ele><time>2014-09-07T12:19:13Z</time></trkpt><trkpt lat="45.8963375911" lon="6.1347012687"><ele>455.80</ele><time>2014-09-07T12:19:54Z</time></trkpt><trkpt lat="45.8963454701" lon="6.1347059626"><ele>457.24</ele><time>2014-09-07T12:20:34Z</time></trkpt><trkpt lat="45.8963461407" lon="6.1347101536"><ele>453.88</ele><time>2014-09-07T12:21:09Z</time></trkpt><trkpt lat="45.8963376749" lon="6.1346932221"><ele>452.92</ele><time>2014-09-07T12:21:57Z</time></trkpt><trkpt lat="45.8963389322" lon="6.1346859299"><ele>451.96</ele><time>2014-09-07T12:22:44Z</time></trkpt><trkpt lat="45.8963370044" lon="6.1346710939"><ele>451.96</ele><time>2014-09-07T12:23:23Z</time></trkpt><trkpt lat="45.8963457216" lon="6.1346701719"><ele>451.48</ele><time>2014-09-07T12:24:02Z</time></trkpt><trkpt lat="45.8963387646" lon="6.1346678250"><ele>451.48</ele><time>2014-09-07T12:24:36Z</time></trkpt><trkpt lat="45.8963375911" lon="6.1346603651"><ele>451.96</ele><time>2014-09-07T12:25:10Z</time></trkpt><trkpt lat="45.8963337354" lon="6.1346628796"><ele>450.52</ele><time>2014-09-07T12:25:40Z</time></trkpt><trkpt lat="45.8963336516" lon="6.1346603651"><ele>450.52</ele><time>2014-09-07T12:26:18Z</time></trkpt><trkpt lat="45.8963426203" lon="6.1346635502"><ele>450.52</ele><time>2014-09-07T12:26:50Z</time></trkpt><trkpt lat="45.8963499963" lon="6.1346687470"><ele>452.44</ele><time>2014-09-07T12:27:31Z</time></trkpt><trkpt lat="45.8963282872" lon="6.1346868519"><ele>451.48</ele><time>2014-09-07T12:28:09Z</time></trkpt><trkpt lat="45.8963273652" lon="6.1346636340"><ele>452.92</ele><time>2014-09-07T12:28:47Z</time></trkpt><trkpt lat="45.8963196538" lon="6.1346658133"><ele>452.44</ele><time>2014-09-07T12:29:20Z</time></trkpt><trkpt lat="45.8963203244" lon="6.1346774641"><ele>454.36</ele><time>2014-09-07T12:29:57Z</time></trkpt><trkpt lat="45.8963209111" lon="6.1346949823"><ele>453.40</ele><time>2014-09-07T12:30:29Z</time></trkpt><trkpt lat="45.8962989505" lon="6.1346780509"><ele>455.80</ele><time>2014-09-07T12:31:08Z</time></trkpt><trkpt lat="45.8962958492" lon="6.1346906237"><ele>455.32</ele><time>2014-09-07T12:31:48Z</time></trkpt><trkpt lat="45.8963192347" lon="6.1347061303"><ele>455.32</ele><time>2014-09-07T12:32:23Z</time></trkpt><trkpt lat="45.8963236772" lon="6.1346919648"><ele>451.96</ele><time>2014-09-07T12:32:55Z</time></trkpt><trkpt lat="45.8963266108" lon="6.1346954014"><ele>452.44</ele><time>2014-09-07T12:33:30Z</time></trkpt><trkpt lat="45.8963291254" lon="6.1346874386"><ele>449.55</ele><time>2014-09-07T12:34:03Z</time></trkpt><trkpt lat="45.8963533491" lon="6.1346736085"><ele>449.55</ele><time>2014-09-07T12:34:41Z</time></trkpt><trkpt lat="45.8963580430" lon="6.1346772965"><ele>445.71</ele><time>2014-09-07T12:35:20Z</time></trkpt><trkpt lat="45.8963631559" lon="6.1346593592"><ele>445.71</ele><time>2014-09-07T12:35:52Z</time></trkpt><trkpt lat="45.8963580430" lon="6.1346518155"><ele>445.71</ele><time>2014-09-07T12:36:21Z</time></trkpt></trkseg><trkseg><trkpt lat="45.8980129659" lon="6.1259935610"><ele>480.32</ele><time>2014-09-07T13:27:38Z</time></trkpt><trkpt lat="45.8979857247" lon="6.1258983426"><ele>475.99</ele><time>2014-09-07T13:27:53Z</time></trkpt><trkpt lat="45.8979745768" lon="6.1257321294"><ele>476.47</ele><time>2014-09-07T13:28:08Z</time></trkpt><trkpt lat="45.8979749959" lon="6.1257124320"><ele>475.99</ele><time>2014-09-07T13:28:21Z</time></trkpt><trkpt lat="45.8979428932" lon="6.1254952569"><ele>475.99</ele><time>2014-09-07T13:28:37Z</time></trkpt><trkpt lat="45.8979270514" lon="6.1253492441"><ele>479.35</ele><time>2014-09-07T13:28:48Z</time></trkpt><trkpt lat="45.8978325874" lon="6.1252190731"><ele>482.24</ele><time>2014-09-07T13:29:07Z</time></trkpt><trkpt lat="45.8977454994" lon="6.1251611542"><ele>486.08</ele><time>2014-09-07T13:29:21Z</time></trkpt><trkpt lat="45.8976098802" lon="6.1250515189"><ele>484.16</ele><time>2014-09-07T13:29:39Z</time></trkpt><trkpt lat="45.8975130692" lon="6.1250157282"><ele>484.16</ele><time>2014-09-07T13:29:48Z</time></trkpt><trkpt lat="45.8974452596" lon="6.1249403749"><ele>483.68</ele><time>2014-09-07T13:29:57Z</time></trkpt><trkpt lat="45.8973966446" lon="6.1249411292"><ele>483.68</ele><time>2014-09-07T13:30:01Z</time></trkpt><trkpt lat="45.8973340318" lon="6.1249902472"><ele>481.76</ele><time>2014-09-07T13:30:18Z</time></trkpt><trkpt lat="45.8973125741" lon="6.1250024009"><ele>488.97</ele><time>2014-09-07T13:30:50Z</time></trkpt><trkpt lat="45.8973004203" lon="6.1250116210"><ele>486.56</ele><time>2014-09-07T13:31:14Z</time></trkpt><trkpt lat="45.8972983249" lon="6.1250193324"><ele>486.56</ele><time>2014-09-07T13:31:15Z</time></trkpt><trkpt lat="45.8973053657" lon="6.1250891536"><ele>486.56</ele><time>2014-09-07T13:31:20Z</time></trkpt><trkpt lat="45.8973416593" lon="6.1251386907"><ele>482.72</ele><time>2014-09-07T13:31:33Z</time></trkpt><trkpt lat="45.8973589260" lon="6.1251868866"><ele>482.24</ele><time>2014-09-07T13:32:01Z</time></trkpt><trkpt lat="45.8974212036" lon="6.1253301334"><ele>481.28</ele><time>2014-09-07T13:32:17Z</time></trkpt><trkpt lat="45.8974491153" lon="6.1254053190"><ele>480.80</ele><time>2014-09-07T13:32:32Z</time></trkpt><trkpt lat="45.8974787034" lon="6.1255182233"><ele>479.84</ele><time>2014-09-07T13:32:44Z</time></trkpt><trkpt lat="45.8974829782" lon="6.1255545169"><ele>478.87</ele><time>2014-09-07T13:32:56Z</time></trkpt><trkpt lat="45.8975080401" lon="6.1255680118"><ele>481.28</ele><time>2014-09-07T13:33:15Z</time></trkpt><trkpt lat="45.8975201938" lon="6.1255853623"><ele>480.80</ele><time>2014-09-07T13:33:28Z</time></trkpt><trkpt lat="45.8975057770" lon="6.1256001983"><ele>477.91</ele><time>2014-09-07T13:33:46Z</time></trkpt><trkpt lat="45.8974945452" lon="6.1256045569"><ele>478.39</ele><time>2014-09-07T13:34:20Z</time></trkpt><trkpt lat="45.8975022566" lon="6.1255864520"><ele>476.95</ele><time>2014-09-07T13:34:46Z</time></trkpt><trkpt lat="45.8974869177" lon="6.1255981028"><ele>474.07</ele><time>2014-09-07T13:35:07Z</time></trkpt><trkpt lat="45.8974941261" lon="6.1255690176"><ele>472.63</ele><time>2014-09-07T13:35:27Z</time></trkpt><trkpt lat="45.8974355366" lon="6.1254748888"><ele>477.91</ele><time>2014-09-07T13:35:40Z</time></trkpt><trkpt lat="45.8973136637" lon="6.1253839452"><ele>479.35</ele><time>2014-09-07T13:35:56Z</time></trkpt><trkpt lat="45.8971826546" lon="6.1254440434"><ele>477.91</ele><time>2014-09-07T13:36:13Z</time></trkpt><trkpt lat="45.8971644659" lon="6.1254814267"><ele>479.35</ele><time>2014-09-07T13:36:30Z</time></trkpt><trkpt lat="45.8971640468" lon="6.1254380923"><ele>477.43</ele><time>2014-09-07T13:37:01Z</time></trkpt><trkpt lat="45.8971511386" lon="6.1255049799"><ele>474.55</ele><time>2014-09-07T13:37:32Z</time></trkpt><trkpt lat="45.8971402422" lon="6.1255470570"><ele>472.63</ele><time>2014-09-07T13:37:37Z</time></trkpt><trkpt lat="45.8970849216" lon="6.1256508250"><ele>471.18</ele><time>2014-09-07T13:37:43Z</time></trkpt><trkpt lat="45.8970567584" lon="6.1256929860"><ele>470.70</ele><time>2014-09-07T13:37:45Z</time></trkpt><trkpt lat="45.8970361389" lon="6.1257217359"><ele>470.22</ele><time>2014-09-07T13:37:46Z</time></trkpt><trkpt lat="45.8968265913" lon="6.1260399967"><ele>467.34</ele><time>2014-09-07T13:37:58Z</time></trkpt><trkpt lat="45.8967374079" lon="6.1261188705"><ele>467.82</ele><time>2014-09-07T13:38:06Z</time></trkpt><trkpt lat="45.8967524115" lon="6.1261208821"><ele>470.70</ele><time>2014-09-07T13:38:23Z</time></trkpt><trkpt lat="45.8967437781" lon="6.1261021066"><ele>475.51</ele><time>2014-09-07T13:38:57Z</time></trkpt><trkpt lat="45.8967378270" lon="6.1261613667"><ele>476.47</ele><time>2014-09-07T13:39:13Z</time></trkpt><trkpt lat="45.8967391681" lon="6.1261794716"><ele>476.47</ele><time>2014-09-07T13:39:14Z</time></trkpt><trkpt lat="45.8967347257" lon="6.1261984985"><ele>476.47</ele><time>2014-09-07T13:39:15Z</time></trkpt><trkpt lat="45.8967262600" lon="6.1262212973"><ele>476.47</ele><time>2014-09-07T13:39:16Z</time></trkpt><trkpt lat="45.8967156988" lon="6.1262462754"><ele>476.47</ele><time>2014-09-07T13:39:17Z</time></trkpt><trkpt lat="45.8966763038" lon="6.1266000755"><ele>476.95</ele><time>2014-09-07T13:39:29Z</time></trkpt><trkpt lat="45.8966799919" lon="6.1266569886"><ele>477.91</ele><time>2014-09-07T13:39:39Z</time></trkpt><trkpt lat="45.8966873679" lon="6.1266508698"><ele>481.28</ele><time>2014-09-07T13:40:12Z</time></trkpt><trkpt lat="45.8966624737" lon="6.1266465113"><ele>475.51</ele><time>2014-09-07T13:40:44Z</time></trkpt><trkpt lat="45.8966499008" lon="6.1266615149"><ele>475.99</ele><time>2014-09-07T13:40:46Z</time></trkpt><trkpt lat="45.8966314606" lon="6.1266787816"><ele>476.47</ele><time>2014-09-07T13:40:48Z</time></trkpt><trkpt lat="45.8966181334" lon="6.1266903486"><ele>476.47</ele><time>2014-09-07T13:40:49Z</time></trkpt><trkpt lat="45.8966037165" lon="6.1267063580"><ele>476.47</ele><time>2014-09-07T13:40:50Z</time></trkpt><trkpt lat="45.8965866175" lon="6.1267241277"><ele>476.95</ele><time>2014-09-07T13:40:51Z</time></trkpt><trkpt lat="45.8965705242" lon="6.1267458368"><ele>476.95</ele><time>2014-09-07T13:40:52Z</time></trkpt><trkpt lat="45.8965543471" lon="6.1267688870"><ele>476.95</ele><time>2014-09-07T13:40:53Z</time></trkpt><trkpt lat="45.8963311370" lon="6.1271908320"><ele>478.39</ele><time>2014-09-07T13:41:09Z</time></trkpt><trkpt lat="45.8962033968" lon="6.1274981126"><ele>477.43</ele><time>2014-09-07T13:41:22Z</time></trkpt><trkpt lat="45.8962199092" lon="6.1275162175"><ele>477.43</ele><time>2014-09-07T13:41:23Z</time></trkpt><trkpt lat="45.8962312248" lon="6.1275252700"><ele>476.95</ele><time>2014-09-07T13:41:24Z</time></trkpt><trkpt lat="45.8962531015" lon="6.1275406089"><ele>476.95</ele><time>2014-09-07T13:41:25Z</time></trkpt><trkpt lat="45.8962772414" lon="6.1275564507"><ele>476.47</ele><time>2014-09-07T13:41:26Z</time></trkpt><trkpt lat="45.8965772297" lon="6.1277304590"><ele>473.59</ele><time>2014-09-07T13:41:37Z</time></trkpt><trkpt lat="45.8968250826" lon="6.1278032139"><ele>472.14</ele><time>2014-09-07T13:41:49Z</time></trkpt><trkpt lat="45.8968861029" lon="6.1277839355"><ele>471.66</ele><time>2014-09-07T13:42:00Z</time></trkpt><trkpt lat="45.8969511464" lon="6.1277801637"><ele>470.70</ele><time>2014-09-07T13:42:09Z</time></trkpt><trkpt lat="45.8970037010" lon="6.1278430279"><ele>472.14</ele><time>2014-09-07T13:42:23Z</time></trkpt><trkpt lat="45.8970024437" lon="6.1277743801"><ele>472.63</ele><time>2014-09-07T13:43:02Z</time></trkpt><trkpt lat="45.8970163576" lon="6.1277739611"><ele>472.63</ele><time>2014-09-07T13:43:05Z</time></trkpt><trkpt lat="45.8972628694" lon="6.1277059000"><ele>471.18</ele><time>2014-09-07T13:43:19Z</time></trkpt><trkpt lat="45.8973746002" lon="6.1276568659"><ele>471.66</ele><time>2014-09-07T13:43:27Z</time></trkpt><trkpt lat="45.8973960578" lon="6.1276352406"><ele>471.66</ele><time>2014-09-07T13:43:30Z</time></trkpt><trkpt lat="45.8974163420" lon="6.1276040599"><ele>472.63</ele><time>2014-09-07T13:43:44Z</time></trkpt><trkpt lat="45.8974383865" lon="6.1276050657"><ele>474.55</ele><time>2014-09-07T13:44:14Z</time></trkpt><trkpt lat="45.8974124864" lon="6.1275919899"><ele>473.59</ele><time>2014-09-07T13:44:41Z</time></trkpt><trkpt lat="45.8974202815" lon="6.1276072450"><ele>473.11</ele><time>2014-09-07T13:45:24Z</time></trkpt><trkpt lat="45.8974097203" lon="6.1276065744"><ele>475.99</ele><time>2014-09-07T13:45:52Z</time></trkpt><trkpt lat="45.8974274900" lon="6.1275934987"><ele>476.47</ele><time>2014-09-07T13:46:20Z</time></trkpt><trkpt lat="45.8974413201" lon="6.1275886372"><ele>476.47</ele><time>2014-09-07T13:46:21Z</time></trkpt><trkpt lat="45.8977450803" lon="6.1275030579"><ele>472.63</ele><time>2014-09-07T13:46:34Z</time></trkpt><trkpt lat="45.8978160750" lon="6.1274818517"><ele>470.70</ele><time>2014-09-07T13:46:47Z</time></trkpt><trkpt lat="45.8978719823" lon="6.1275030579"><ele>469.74</ele><time>2014-09-07T13:47:12Z</time></trkpt><trkpt lat="45.8979116287" lon="6.1274967715"><ele>464.93</ele><time>2014-09-07T13:47:28Z</time></trkpt><trkpt lat="45.8979433961" lon="6.1274857074"><ele>464.93</ele><time>2014-09-07T13:47:58Z</time></trkpt><trkpt lat="45.8980165701" lon="6.1274295487"><ele>466.38</ele><time>2014-09-07T13:48:12Z</time></trkpt><trkpt lat="45.8980853856" lon="6.1274145450"><ele>459.65</ele><time>2014-09-07T13:48:27Z</time></trkpt><trkpt lat="45.8981485013" lon="6.1274511740"><ele>461.09</ele><time>2014-09-07T13:48:46Z</time></trkpt><trkpt lat="45.8981343359" lon="6.1273137946"><ele>457.72</ele><time>2014-09-07T13:49:02Z</time></trkpt><trkpt lat="45.8981352579" lon="6.1272577196"><ele>457.24</ele><time>2014-09-07T13:49:07Z</time></trkpt><trkpt lat="45.8981987089" lon="6.1271693744"><ele>455.80</ele><time>2014-09-07T13:49:22Z</time></trkpt><trkpt lat="45.8982417081" lon="6.1270514410"><ele>456.76</ele><time>2014-09-07T13:49:38Z</time></trkpt><trkpt lat="45.8982929215" lon="6.1268729065"><ele>455.32</ele><time>2014-09-07T13:49:54Z</time></trkpt><trkpt lat="45.8983046561" lon="6.1267817952"><ele>457.24</ele><time>2014-09-07T13:50:10Z</time></trkpt><trkpt lat="45.8984075859" lon="6.1268194299"><ele>463.97</ele><time>2014-09-07T13:50:26Z</time></trkpt><trkpt lat="45.8985324763" lon="6.1267924402"><ele>465.42</ele><time>2014-09-07T13:50:43Z</time></trkpt><trkpt lat="45.8985632379" lon="6.1268112995"><ele>464.45</ele><time>2014-09-07T13:51:02Z</time></trkpt><trkpt lat="45.8985908143" lon="6.1268385407"><ele>465.42</ele><time>2014-09-07T13:51:19Z</time></trkpt><trkpt lat="45.8985666744" lon="6.1268531252"><ele>463.01</ele><time>2014-09-07T13:51:54Z</time></trkpt><trkpt lat="45.8985976875" lon="6.1268244591"><ele>461.57</ele><time>2014-09-07T13:52:28Z</time></trkpt><trkpt lat="45.8985867910" lon="6.1268195137"><ele>457.24</ele><time>2014-09-07T13:52:55Z</time></trkpt><trkpt lat="45.8985813428" lon="6.1268295720"><ele>453.88</ele><time>2014-09-07T13:53:20Z</time></trkpt><trkpt lat="45.8985711168" lon="6.1268581543"><ele>456.76</ele><time>2014-09-07T13:53:44Z</time></trkpt><trkpt lat="45.8985774033" lon="6.1268696375"><ele>457.24</ele><time>2014-09-07T13:54:11Z</time></trkpt><trkpt lat="45.8985637408" lon="6.1268899217"><ele>458.69</ele><time>2014-09-07T13:54:48Z</time></trkpt><trkpt lat="45.8985629864" lon="6.1268711463"><ele>458.21</ele><time>2014-09-07T13:55:12Z</time></trkpt><trkpt lat="45.8985687699" lon="6.1268687993"><ele>455.80</ele><time>2014-09-07T13:55:37Z</time></trkpt><trkpt lat="45.8985577058" lon="6.1268863175"><ele>455.32</ele><time>2014-09-07T13:56:02Z</time></trkpt><trkpt lat="45.8985317219" lon="6.1269025784"><ele>458.69</ele><time>2014-09-07T13:56:32Z</time></trkpt><trkpt lat="45.8985442109" lon="6.1268658657"><ele>463.01</ele><time>2014-09-07T13:56:46Z</time></trkpt><trkpt lat="45.8985860366" lon="6.1267999839"><ele>465.90</ele><time>2014-09-07T13:57:01Z</time></trkpt><trkpt lat="45.8987214882" lon="6.1267314199"><ele>463.01</ele><time>2014-09-07T13:57:18Z</time></trkpt><trkpt lat="45.8987640683" lon="6.1267264746"><ele>459.65</ele><time>2014-09-07T13:57:31Z</time></trkpt><trkpt lat="45.8987501543" lon="6.1266893428"><ele>462.53</ele><time>2014-09-07T13:57:55Z</time></trkpt><trkpt lat="45.8987388387" lon="6.1266972218"><ele>466.38</ele><time>2014-09-07T13:58:26Z</time></trkpt><trkpt lat="45.8987582009" lon="6.1266610958"><ele>464.45</ele><time>2014-09-07T13:58:46Z</time></trkpt><trkpt lat="45.8986831829" lon="6.1265397258"><ele>462.05</ele><time>2014-09-07T13:58:59Z</time></trkpt><trkpt lat="45.8986380044" lon="6.1264164280"><ele>459.65</ele><time>2014-09-07T13:59:14Z</time></trkpt><trkpt lat="45.8986623120" lon="6.1262217164"><ele>458.21</ele><time>2014-09-07T13:59:35Z</time></trkpt><trkpt lat="45.8986830153" lon="6.1260868516"><ele>456.76</ele><time>2014-09-07T13:59:50Z</time></trkpt><trkpt lat="45.8987014554" lon="6.1259269249"><ele>458.21</ele><time>2014-09-07T14:00:06Z</time></trkpt><trkpt lat="45.8986894693" lon="6.1259130947"><ele>458.69</ele><time>2014-09-07T14:00:18Z</time></trkpt><trkpt lat="45.8986958396" lon="6.1259197164"><ele>454.36</ele><time>2014-09-07T14:00:52Z</time></trkpt><trkpt lat="45.8986774832" lon="6.1258956604"><ele>455.80</ele><time>2014-09-07T14:00:58Z</time></trkpt><trkpt lat="45.8986665029" lon="6.1258879490"><ele>455.80</ele><time>2014-09-07T14:00:59Z</time></trkpt><trkpt lat="45.8986558579" lon="6.1258813273"><ele>455.80</ele><time>2014-09-07T14:01:00Z</time></trkpt><trkpt lat="45.8986383397" lon="6.1258633062"><ele>453.88</ele><time>2014-09-07T14:01:16Z</time></trkpt><trkpt lat="45.8986578695" lon="6.1258682515"><ele>454.36</ele><time>2014-09-07T14:02:07Z</time></trkpt><trkpt lat="45.8986879606" lon="6.1258884519"><ele>456.76</ele><time>2014-09-07T14:02:48Z</time></trkpt><trkpt lat="45.8986693528" lon="6.1258692574"><ele>455.80</ele><time>2014-09-07T14:03:31Z</time></trkpt><trkpt lat="45.8986775670" lon="6.1258919723"><ele>455.80</ele><time>2014-09-07T14:04:19Z</time></trkpt><trkpt lat="45.8986850269" lon="6.1258713529"><ele>453.88</ele><time>2014-09-07T14:05:02Z</time></trkpt><trkpt lat="45.8986516669" lon="6.1258739512"><ele>455.80</ele><time>2014-09-07T14:05:40Z</time></trkpt><trkpt lat="45.8986380883" lon="6.1258734483"><ele>452.44</ele><time>2014-09-07T14:06:26Z</time></trkpt><trkpt lat="45.8986292873" lon="6.1258470453"><ele>451.48</ele><time>2014-09-07T14:07:08Z</time></trkpt><trkpt lat="45.8986213244" lon="6.1258734483"><ele>453.88</ele><time>2014-09-07T14:07:46Z</time></trkpt><trkpt lat="45.8986222465" lon="6.1258736998"><ele>452.44</ele><time>2014-09-07T14:08:19Z</time></trkpt><trkpt lat="45.8986197319" lon="6.1258648988"><ele>450.03</ele><time>2014-09-07T14:08:50Z</time></trkpt><trkpt lat="45.8986276947" lon="6.1258837581"><ele>451.00</ele><time>2014-09-07T14:09:25Z</time></trkpt><trkpt lat="45.8986406866" lon="6.1258926429"><ele>451.48</ele><time>2014-09-07T14:10:04Z</time></trkpt><trkpt lat="45.8986336458" lon="6.1258659884"><ele>451.00</ele><time>2014-09-07T14:10:44Z</time></trkpt><trkpt lat="45.8986518346" lon="6.1258825846"><ele>452.92</ele><time>2014-09-07T14:11:21Z</time></trkpt><trkpt lat="45.8986778185" lon="6.1258969177"><ele>456.28</ele><time>2014-09-07T14:11:55Z</time></trkpt><trkpt lat="45.8986621443" lon="6.1258961633"><ele>455.80</ele><time>2014-09-07T14:12:26Z</time></trkpt><trkpt lat="45.8986622281" lon="6.1258780584"><ele>450.03</ele><time>2014-09-07T14:13:02Z</time></trkpt><trkpt lat="45.8986446261" lon="6.1258610431"><ele>449.55</ele><time>2014-09-07T14:13:31Z</time></trkpt><trkpt lat="45.8986295387" lon="6.1258840933"><ele>450.03</ele><time>2014-09-07T14:14:08Z</time></trkpt><trkpt lat="45.8986194804" lon="6.1258429382"><ele>447.15</ele><time>2014-09-07T14:14:45Z</time></trkpt><trkpt lat="45.8986397646" lon="6.1258800700"><ele>450.52</ele><time>2014-09-07T14:15:27Z</time></trkpt><trkpt lat="45.8986315504" lon="6.1258852668"><ele>452.44</ele><time>2014-09-07T14:15:39Z</time></trkpt></trkseg><trkseg><trkpt lat="45.9052662458" lon="6.1515010335"><ele>451.00</ele><time>2014-09-07T16:22:37Z</time></trkpt><trkpt lat="45.9052482247" lon="6.1514213216"><ele>450.03</ele><time>2014-09-07T16:23:02Z</time></trkpt><trkpt lat="45.9052643180" lon="6.1514727026"><ele>450.03</ele><time>2014-09-07T16:24:29Z</time></trkpt><trkpt lat="45.9052901343" lon="6.1514768098"><ele>451.48</ele><time>2014-09-07T16:25:04Z</time></trkpt><trkpt lat="45.9052992705" lon="6.1514841858"><ele>451.48</ele><time>2014-09-07T16:25:30Z</time></trkpt><trkpt lat="45.9053018689" lon="6.1514773127"><ele>451.48</ele><time>2014-09-07T16:25:33Z</time></trkpt><trkpt lat="45.9052913077" lon="6.1514504906"><ele>451.00</ele><time>2014-09-07T16:25:36Z</time></trkpt><trkpt lat="45.9052882064" lon="6.1513555236"><ele>451.48</ele><time>2014-09-07T16:25:41Z</time></trkpt><trkpt lat="45.9052609652" lon="6.1512707826"><ele>451.96</ele><time>2014-09-07T16:25:51Z</time></trkpt><trkpt lat="45.9052589536" lon="6.1511490773"><ele>451.96</ele><time>2014-09-07T16:25:56Z</time></trkpt><trkpt lat="45.9052564390" lon="6.1511112750"><ele>452.44</ele><time>2014-09-07T16:25:57Z</time></trkpt><trkpt lat="45.9051833488" lon="6.1506591551"><ele>451.96</ele><time>2014-09-07T16:26:11Z</time></trkpt><trkpt lat="45.9051349014" lon="6.1504206900"><ele>452.44</ele><time>2014-09-07T16:26:20Z</time></trkpt><trkpt lat="45.9051323868" lon="6.1503954604"><ele>452.44</ele><time>2014-09-07T16:26:21Z</time></trkpt><trkpt lat="45.9051332250" lon="6.1503670458"><ele>452.44</ele><time>2014-09-07T16:26:22Z</time></trkpt><trkpt lat="45.9051296208" lon="6.1503351945"><ele>452.44</ele><time>2014-09-07T16:26:23Z</time></trkpt><trkpt lat="45.9051234182" lon="6.1503051035"><ele>452.92</ele><time>2014-09-07T16:26:24Z</time></trkpt><trkpt lat="45.9051172994" lon="6.1502730846"><ele>452.92</ele><time>2014-09-07T16:26:25Z</time></trkpt><trkpt lat="45.9051126894" lon="6.1502382997"><ele>453.40</ele><time>2014-09-07T16:26:26Z</time></trkpt><trkpt lat="45.9050209913" lon="6.1495847628"><ele>453.40</ele><time>2014-09-07T16:26:43Z</time></trkpt><trkpt lat="45.9049340710" lon="6.1489515938"><ele>453.40</ele><time>2014-09-07T16:26:58Z</time></trkpt><trkpt lat="45.9048367571" lon="6.1482837237"><ele>452.92</ele><time>2014-09-07T16:27:13Z</time></trkpt><trkpt lat="45.9047279600" lon="6.1475438531"><ele>451.48</ele><time>2014-09-07T16:27:30Z</time></trkpt><trkpt lat="45.9047163930" lon="6.1475292686"><ele>451.48</ele><time>2014-09-07T16:27:32Z</time></trkpt><trkpt lat="45.9047125373" lon="6.1475100741"><ele>451.48</ele><time>2014-09-07T16:27:33Z</time></trkpt><trkpt lat="45.9047113638" lon="6.1474863533"><ele>451.48</ele><time>2014-09-07T16:27:34Z</time></trkpt><trkpt lat="45.9047073405" lon="6.1474623810"><ele>451.48</ele><time>2014-09-07T16:27:35Z</time></trkpt><trkpt lat="45.9047026467" lon="6.1474422645"><ele>451.48</ele><time>2014-09-07T16:27:36Z</time></trkpt><trkpt lat="45.9046899062" lon="6.1473482195"><ele>451.48</ele><time>2014-09-07T16:27:39Z</time></trkpt><trkpt lat="45.9046894871" lon="6.1473038793"><ele>451.48</ele><time>2014-09-07T16:27:40Z</time></trkpt><trkpt lat="45.9046863019" lon="6.1472565215"><ele>451.48</ele><time>2014-09-07T16:27:41Z</time></trkpt><trkpt lat="45.9045940172" lon="6.1462917645"><ele>450.52</ele><time>2014-09-07T16:28:00Z</time></trkpt><trkpt lat="45.9046298079" lon="6.1455501337"><ele>450.52</ele><time>2014-09-07T16:28:17Z</time></trkpt><trkpt lat="45.9047015570" lon="6.1450507399"><ele>449.55</ele><time>2014-09-07T16:28:30Z</time></trkpt><trkpt lat="45.9048070852" lon="6.1445541121"><ele>450.03</ele><time>2014-09-07T16:28:44Z</time></trkpt><trkpt lat="45.9049245995" lon="6.1441285629"><ele>451.00</ele><time>2014-09-07T16:28:56Z</time></trkpt><trkpt lat="45.9050498251" lon="6.1436062027"><ele>451.96</ele><time>2014-09-07T16:29:10Z</time></trkpt><trkpt lat="45.9050882142" lon="6.1429109238"><ele>449.07</ele><time>2014-09-07T16:29:26Z</time></trkpt><trkpt lat="45.9049952589" lon="6.1422887351"><ele>449.07</ele><time>2014-09-07T16:29:41Z</time></trkpt><trkpt lat="45.9048502520" lon="6.1417862400"><ele>450.03</ele><time>2014-09-07T16:29:54Z</time></trkpt><trkpt lat="45.9046610724" lon="6.1411517300"><ele>453.88</ele><time>2014-09-07T16:30:10Z</time></trkpt><trkpt lat="45.9046023991" lon="6.1408707686"><ele>456.28</ele><time>2014-09-07T16:30:19Z</time></trkpt><trkpt lat="45.9046024829" lon="6.1408350617"><ele>456.28</ele><time>2014-09-07T16:30:20Z</time></trkpt><trkpt lat="45.9046003874" lon="6.1407995224"><ele>456.28</ele><time>2014-09-07T16:30:21Z</time></trkpt><trkpt lat="45.9045966156" lon="6.1407693475"><ele>456.28</ele><time>2014-09-07T16:30:22Z</time></trkpt><trkpt lat="45.9045926761" lon="6.1407442018"><ele>456.76</ele><time>2014-09-07T16:30:23Z</time></trkpt><trkpt lat="45.9045832884" lon="6.1407176312"><ele>456.76</ele><time>2014-09-07T16:30:24Z</time></trkpt><trkpt lat="45.9045533650" lon="6.1406544317"><ele>457.72</ele><time>2014-09-07T16:30:34Z</time></trkpt><trkpt lat="45.9045839589" lon="6.1406116001"><ele>460.13</ele><time>2014-09-07T16:30:54Z</time></trkpt><trkpt lat="45.9045828693" lon="6.1406126898"><ele>465.42</ele><time>2014-09-07T16:31:27Z</time></trkpt><trkpt lat="45.9045713861" lon="6.1405523401"><ele>460.13</ele><time>2014-09-07T16:32:05Z</time></trkpt><trkpt lat="45.9045763314" lon="6.1405302957"><ele>459.65</ele><time>2014-09-07T16:32:08Z</time></trkpt><trkpt lat="45.9045768343" lon="6.1405177228"><ele>459.65</ele><time>2014-09-07T16:32:09Z</time></trkpt><trkpt lat="45.9045764990" lon="6.1404901464"><ele>459.65</ele><time>2014-09-07T16:32:10Z</time></trkpt><trkpt lat="45.9045742359" lon="6.1404669285"><ele>460.13</ele><time>2014-09-07T16:32:12Z</time></trkpt><trkpt lat="45.9045581426" lon="6.1404246837"><ele>460.13</ele><time>2014-09-07T16:32:13Z</time></trkpt><trkpt lat="45.9045501798" lon="6.1403976101"><ele>460.61</ele><time>2014-09-07T16:32:14Z</time></trkpt><trkpt lat="45.9045415465" lon="6.1403665971"><ele>460.61</ele><time>2014-09-07T16:32:15Z</time></trkpt><trkpt lat="45.9045323264" lon="6.1403325666"><ele>460.13</ele><time>2014-09-07T16:32:16Z</time></trkpt><trkpt lat="45.9045213461" lon="6.1402901541"><ele>460.13</ele><time>2014-09-07T16:32:17Z</time></trkpt><trkpt lat="45.9043740761" lon="6.1397177540"><ele>458.21</ele><time>2014-09-07T16:32:32Z</time></trkpt><trkpt lat="45.9042366967" lon="6.1392200366"><ele>457.24</ele><time>2014-09-07T16:32:44Z</time></trkpt><trkpt lat="45.9042174183" lon="6.1391920410"><ele>457.24</ele><time>2014-09-07T16:32:45Z</time></trkpt><trkpt lat="45.9041968826" lon="6.1391629558"><ele>457.24</ele><time>2014-09-07T16:32:46Z</time></trkpt><trkpt lat="45.9041821305" lon="6.1391347926"><ele>457.24</ele><time>2014-09-07T16:32:47Z</time></trkpt><trkpt lat="45.9041698091" lon="6.1391076352"><ele>457.24</ele><time>2014-09-07T16:32:48Z</time></trkpt><trkpt lat="45.9041555598" lon="6.1390815675"><ele>457.24</ele><time>2014-09-07T16:32:49Z</time></trkpt><trkpt lat="45.9041442443" lon="6.1390596908"><ele>457.72</ele><time>2014-09-07T16:32:50Z</time></trkpt><trkpt lat="45.9040611796" lon="6.1389488820"><ele>454.36</ele><time>2014-09-07T16:33:01Z</time></trkpt><trkpt lat="45.9040082898" lon="6.1388208065"><ele>453.88</ele><time>2014-09-07T16:33:18Z</time></trkpt><trkpt lat="45.9039970580" lon="6.1387881171"><ele>452.92</ele><time>2014-09-07T16:33:51Z</time></trkpt><trkpt lat="45.9039561544" lon="6.1387449503"><ele>452.92</ele><time>2014-09-07T16:34:21Z</time></trkpt><trkpt lat="45.9039566573" lon="6.1387292761"><ele>452.44</ele><time>2014-09-07T16:34:22Z</time></trkpt><trkpt lat="45.9039581660" lon="6.1387094110"><ele>452.44</ele><time>2014-09-07T16:34:23Z</time></trkpt><trkpt lat="45.9039567411" lon="6.1386941560"><ele>452.44</ele><time>2014-09-07T16:34:24Z</time></trkpt><trkpt lat="45.9039590042" lon="6.1386705190"><ele>452.92</ele><time>2014-09-07T16:34:25Z</time></trkpt><trkpt lat="45.9039616864" lon="6.1386488099"><ele>452.92</ele><time>2014-09-07T16:34:26Z</time></trkpt><trkpt lat="45.9039678052" lon="6.1386190541"><ele>452.92</ele><time>2014-09-07T16:34:27Z</time></trkpt><trkpt lat="45.9039753489" lon="6.1385873705"><ele>452.92</ele><time>2014-09-07T16:34:28Z</time></trkpt><trkpt lat="45.9039776959" lon="6.1385542620"><ele>452.92</ele><time>2014-09-07T16:34:29Z</time></trkpt><trkpt lat="45.9039739240" lon="6.1385203153"><ele>452.92</ele><time>2014-09-07T16:34:30Z</time></trkpt><trkpt lat="45.9039656259" lon="6.1384869553"><ele>453.40</ele><time>2014-09-07T16:34:31Z</time></trkpt><trkpt lat="45.9039548133" lon="6.1384515837"><ele>453.40</ele><time>2014-09-07T16:34:32Z</time></trkpt><trkpt lat="45.9039243869" lon="6.1380783375"><ele>454.84</ele><time>2014-09-07T16:34:41Z</time></trkpt><trkpt lat="45.9037985746" lon="6.1375578213"><ele>456.28</ele><time>2014-09-07T16:34:53Z</time></trkpt><trkpt lat="45.9036194533" lon="6.1369039491"><ele>457.72</ele><time>2014-09-07T16:35:07Z</time></trkpt><trkpt lat="45.9034561738" lon="6.1364218220"><ele>457.72</ele><time>2014-09-07T16:35:18Z</time></trkpt><trkpt lat="45.9032696765" lon="6.1358171515"><ele>457.24</ele><time>2014-09-07T16:35:29Z</time></trkpt><trkpt lat="45.9031899646" lon="6.1353036761"><ele>455.80</ele><time>2014-09-07T16:35:39Z</time></trkpt><trkpt lat="45.9030060656" lon="6.1346327048"><ele>456.28</ele><time>2014-09-07T16:35:52Z</time></trkpt><trkpt lat="45.9028071631" lon="6.1340889707"><ele>457.24</ele><time>2014-09-07T16:36:03Z</time></trkpt><trkpt lat="45.9026505053" lon="6.1335886549"><ele>458.69</ele><time>2014-09-07T16:36:12Z</time></trkpt><trkpt lat="45.9026248567" lon="6.1335329153"><ele>458.69</ele><time>2014-09-07T16:36:13Z</time></trkpt><trkpt lat="45.9026016388" lon="6.1334580649"><ele>459.17</ele><time>2014-09-07T16:36:14Z</time></trkpt><trkpt lat="45.9025861323" lon="6.1334164906"><ele>459.17</ele><time>2014-09-07T16:36:15Z</time></trkpt><trkpt lat="45.9025664348" lon="6.1333537102"><ele>459.65</ele><time>2014-09-07T16:36:16Z</time></trkpt><trkpt lat="45.9025548678" lon="6.1333145667"><ele>459.65</ele><time>2014-09-07T16:36:17Z</time></trkpt><trkpt lat="45.9024801012" lon="6.1331306677"><ele>460.13</ele><time>2014-09-07T16:36:22Z</time></trkpt><trkpt lat="45.9024606552" lon="6.1331216991"><ele>460.13</ele><time>2014-09-07T16:36:23Z</time></trkpt><trkpt lat="45.9024666063" lon="6.1331771035"><ele>460.61</ele><time>2014-09-07T16:36:28Z</time></trkpt><trkpt lat="45.9025667701" lon="6.1334302370"><ele>459.17</ele><time>2014-09-07T16:36:37Z</time></trkpt><trkpt lat="45.9025432169" lon="6.1334443185"><ele>459.17</ele><time>2014-09-07T16:36:38Z</time></trkpt><trkpt lat="45.9025133774" lon="6.1334323324"><ele>459.17</ele><time>2014-09-07T16:36:40Z</time></trkpt><trkpt lat="45.9024844598" lon="6.1334172450"><ele>459.17</ele><time>2014-09-07T16:36:41Z</time></trkpt><trkpt lat="45.9020678792" lon="6.1331324279"><ele>455.32</ele><time>2014-09-07T16:36:55Z</time></trkpt><trkpt lat="45.9018004127" lon="6.1329450086"><ele>452.92</ele><time>2014-09-07T16:37:04Z</time></trkpt></trkseg></trk><trk><name>Current Track: 07 SEP 2014 23:15</name><trkseg><trkpt lat="45.8996857423" lon="6.1305342894"><ele>456.28</ele><time>2014-09-07T21:15:03Z</time></trkpt><trkpt lat="45.8995833993" lon="6.1308331043"><ele>454.84</ele><time>2014-09-07T21:15:24Z</time></trkpt><trkpt lat="45.8996434975" lon="6.1307939608"><ele>459.17</ele><time>2014-09-07T21:15:52Z</time></trkpt><trkpt lat="45.8996714093" lon="6.1307914462"><ele>458.69</ele><time>2014-09-07T21:16:22Z</time></trkpt><trkpt lat="45.8996785339" lon="6.1308042705"><ele>457.24</ele><time>2014-09-07T21:16:54Z</time></trkpt><trkpt lat="45.8996681403" lon="6.1307745147"><ele>456.76</ele><time>2014-09-07T21:16:58Z</time></trkpt><trkpt lat="45.8996336907" lon="6.1306994129"><ele>457.24</ele><time>2014-09-07T21:17:01Z</time></trkpt><trkpt lat="45.8996155020" lon="6.1306671426"><ele>457.72</ele><time>2014-09-07T21:17:02Z</time></trkpt><trkpt lat="45.8996041864" lon="6.1306443438"><ele>458.21</ele><time>2014-09-07T21:17:03Z</time></trkpt><trkpt lat="45.8995880093" lon="6.1306107324"><ele>458.69</ele><time>2014-09-07T21:17:04Z</time></trkpt><trkpt lat="45.8995734248" lon="6.1305791326"><ele>459.17</ele><time>2014-09-07T21:17:05Z</time></trkpt><trkpt lat="45.8995616063" lon="6.1305470299"><ele>459.17</ele><time>2014-09-07T21:17:06Z</time></trkpt><trkpt lat="45.8994718362" lon="6.1303362250"><ele>461.09</ele><time>2014-09-07T21:17:14Z</time></trkpt><trkpt lat="45.8994500432" lon="6.1302912980"><ele>461.09</ele><time>2014-09-07T21:17:15Z</time></trkpt><trkpt lat="45.8994291723" lon="6.1302581895"><ele>461.57</ele><time>2014-09-07T21:17:16Z</time></trkpt><trkpt lat="45.8994153421" lon="6.1302389111"><ele>461.57</ele><time>2014-09-07T21:17:17Z</time></trkpt><trkpt lat="45.8993931301" lon="6.1302156094"><ele>461.57</ele><time>2014-09-07T21:17:18Z</time></trkpt><trkpt lat="45.8993741032" lon="6.1301954929"><ele>462.05</ele><time>2014-09-07T21:17:19Z</time></trkpt><trkpt lat="45.8993539028" lon="6.1301740352"><ele>462.05</ele><time>2014-09-07T21:17:20Z</time></trkpt><trkpt lat="45.8990330435" lon="6.1301524099"><ele>461.57</ele><time>2014-09-07T21:17:32Z</time></trkpt><trkpt lat="45.8987095021" lon="6.1298117694"><ele>461.57</ele><time>2014-09-07T21:17:47Z</time></trkpt><trkpt lat="45.8984707016" lon="6.1294895690"><ele>461.57</ele><time>2014-09-07T21:17:59Z</time></trkpt><trkpt lat="45.8984572906" lon="6.1294585560"><ele>461.57</ele><time>2014-09-07T21:18:00Z</time></trkpt><trkpt lat="45.8984500822" lon="6.1294166464"><ele>462.05</ele><time>2014-09-07T21:18:01Z</time></trkpt><trkpt lat="45.8984505851" lon="6.1293745693"><ele>462.53</ele><time>2014-09-07T21:18:03Z</time></trkpt><trkpt lat="45.8984480705" lon="6.1293252837"><ele>463.01</ele><time>2014-09-07T21:18:04Z</time></trkpt><trkpt lat="45.8984797541" lon="6.1291331705"><ele>461.57</ele><time>2014-09-07T21:18:18Z</time></trkpt><trkpt lat="45.8984936681" lon="6.1291390378"><ele>453.88</ele><time>2014-09-07T21:19:00Z</time></trkpt><trkpt lat="45.8984750602" lon="6.1290919315"><ele>451.96</ele><time>2014-09-07T21:19:49Z</time></trkpt><trkpt lat="45.8985162992" lon="6.1291227769"><ele>451.96</ele><time>2014-09-07T21:20:18Z</time></trkpt><trkpt lat="45.8984850347" lon="6.1291045044"><ele>454.36</ele><time>2014-09-07T21:21:29Z</time></trkpt><trkpt lat="45.8985037263" lon="6.1290944461"><ele>453.88</ele><time>2014-09-07T21:21:50Z</time></trkpt><trkpt lat="45.8985182270" lon="6.1290757544"><ele>453.40</ele><time>2014-09-07T21:22:21Z</time></trkpt><trkpt lat="45.8985297941" lon="6.1290483456"><ele>452.44</ele><time>2014-09-07T21:22:43Z</time></trkpt><trkpt lat="45.8985328954" lon="6.1290698871"><ele>453.88</ele><time>2014-09-07T21:22:57Z</time></trkpt><trkpt lat="45.8985309675" lon="6.1290551350"><ele>452.92</ele><time>2014-09-07T21:23:21Z</time></trkpt><trkpt lat="45.8985206578" lon="6.1290714797"><ele>454.36</ele><time>2014-09-07T21:23:43Z</time></trkpt><trkpt lat="45.8985665068" lon="6.1290723179"><ele>453.40</ele><time>2014-09-07T21:24:10Z</time></trkpt><trkpt lat="45.8985773195" lon="6.1290786043"><ele>455.80</ele><time>2014-09-07T21:24:39Z</time></trkpt><trkpt lat="45.8985639922" lon="6.1290957872"><ele>452.92</ele><time>2014-09-07T21:25:09Z</time></trkpt><trkpt lat="45.8985405229" lon="6.1290675402"><ele>453.88</ele><time>2014-09-07T21:25:34Z</time></trkpt><trkpt lat="45.8985289559" lon="6.1290556379"><ele>452.44</ele><time>2014-09-07T21:26:07Z</time></trkpt><trkpt lat="45.8985473122" lon="6.1290721502"><ele>450.03</ele><time>2014-09-07T21:26:35Z</time></trkpt><trkpt lat="45.8985564485" lon="6.1290528718"><ele>451.00</ele><time>2014-09-07T21:26:58Z</time></trkpt><trkpt lat="45.8985660877" lon="6.1290370300"><ele>450.03</ele><time>2014-09-07T21:27:10Z</time></trkpt><trkpt lat="45.8985674288" lon="6.1290422268"><ele>450.52</ele><time>2014-09-07T21:27:13Z</time></trkpt><trkpt lat="45.8985459711" lon="6.1290544644"><ele>451.00</ele><time>2014-09-07T21:27:28Z</time></trkpt><trkpt lat="45.8985378407" lon="6.1290210206"><ele>455.32</ele><time>2014-09-07T21:27:57Z</time></trkpt><trkpt lat="45.8985350747" lon="6.1290718149"><ele>452.44</ele><time>2014-09-07T21:28:24Z</time></trkpt><trkpt lat="45.8985554427" lon="6.1290796101"><ele>455.80</ele><time>2014-09-07T21:28:52Z</time></trkpt><trkpt lat="45.8985454682" lon="6.1290759221"><ele>453.88</ele><time>2014-09-07T21:29:17Z</time></trkpt><trkpt lat="45.8985699434" lon="6.1290741619"><ele>450.03</ele><time>2014-09-07T21:29:43Z</time></trkpt><trkpt lat="45.8985620644" lon="6.1290805321"><ele>450.03</ele><time>2014-09-07T21:30:19Z</time></trkpt><trkpt lat="45.8985449653" lon="6.1290343478"><ele>451.48</ele><time>2014-09-07T21:30:58Z</time></trkpt><trkpt lat="45.8985464741" lon="6.1290574819"><ele>451.00</ele><time>2014-09-07T21:31:31Z</time></trkpt><trkpt lat="45.8985345718" lon="6.1290153209"><ele>453.40</ele><time>2014-09-07T21:32:11Z</time></trkpt><trkpt lat="45.8985421993" lon="6.1290364433"><ele>454.36</ele><time>2014-09-07T21:32:34Z</time></trkpt><trkpt lat="45.8985420316" lon="6.1290112976"><ele>452.92</ele><time>2014-09-07T21:33:04Z</time></trkpt><trkpt lat="45.8985396009" lon="6.1289940309"><ele>453.40</ele><time>2014-09-07T21:33:45Z</time></trkpt><trkpt lat="45.8985494077" lon="6.1290137284"><ele>454.84</ele><time>2014-09-07T21:34:14Z</time></trkpt><trkpt lat="45.8985601366" lon="6.1290827952"><ele>452.92</ele><time>2014-09-07T21:34:47Z</time></trkpt><trkpt lat="45.8985558618" lon="6.1290669534"><ele>453.88</ele><time>2014-09-07T21:35:09Z</time></trkpt><trkpt lat="45.8985618129" lon="6.1290454958"><ele>454.84</ele><time>2014-09-07T21:35:43Z</time></trkpt><trkpt lat="45.8985515870" lon="6.1290941108"><ele>453.88</ele><time>2014-09-07T21:35:55Z</time></trkpt><trkpt lat="45.8985390142" lon="6.1290845554"><ele>454.36</ele><time>2014-09-07T21:35:57Z</time></trkpt><trkpt lat="45.8985233400" lon="6.1290810350"><ele>454.36</ele><time>2014-09-07T21:35:58Z</time></trkpt><trkpt lat="45.8985054865" lon="6.1290852260"><ele>453.88</ele><time>2014-09-07T21:35:59Z</time></trkpt><trkpt lat="45.8984804247" lon="6.1290831305"><ele>453.40</ele><time>2014-09-07T21:36:01Z</time></trkpt><trkpt lat="45.8984862082" lon="6.1290644389"><ele>453.40</ele><time>2014-09-07T21:36:02Z</time></trkpt><trkpt lat="45.8985056542" lon="6.1290562246"><ele>453.40</ele><time>2014-09-07T21:36:03Z</time></trkpt><trkpt lat="45.8985235076" lon="6.1290484294"><ele>453.40</ele><time>2014-09-07T21:36:04Z</time></trkpt><trkpt lat="45.8985502459" lon="6.1290294863"><ele>453.40</ele><time>2014-09-07T21:36:05Z</time></trkpt><trkpt lat="45.8985665906" lon="6.1290179193"><ele>453.40</ele><time>2014-09-07T21:36:06Z</time></trkpt><trkpt lat="45.8989984263" lon="6.1288040970"><ele>452.92</ele><time>2014-09-07T21:36:19Z</time></trkpt><trkpt lat="45.8990902081" lon="6.1287773587"><ele>453.40</ele><time>2014-09-07T21:36:28Z</time></trkpt><trkpt lat="45.8992405795" lon="6.1286846548"><ele>454.36</ele><time>2014-09-07T21:36:38Z</time></trkpt><trkpt lat="45.8997452538" lon="6.1283888575"><ele>453.88</ele><time>2014-09-07T21:36:53Z</time></trkpt><trkpt lat="45.9002665244" lon="6.1279916391"><ele>452.92</ele><time>2014-09-07T21:37:08Z</time></trkpt><trkpt lat="45.9006651677" lon="6.1277298722"><ele>451.00</ele><time>2014-09-07T21:37:19Z</time></trkpt><trkpt lat="45.9011016972" lon="6.1276924890"><ele>451.96</ele><time>2014-09-07T21:37:31Z</time></trkpt><trkpt lat="45.9012842551" lon="6.1281372327"><ele>453.88</ele><time>2014-09-07T21:37:41Z</time></trkpt><trkpt lat="45.9012743644" lon="6.1281555053"><ele>453.88</ele><time>2014-09-07T21:37:42Z</time></trkpt><trkpt lat="45.9012016933" lon="6.1282966565"><ele>454.36</ele><time>2014-09-07T21:37:55Z</time></trkpt><trkpt lat="45.9012221452" lon="6.1283145938"><ele>453.88</ele><time>2014-09-07T21:38:07Z</time></trkpt><trkpt lat="45.9013229795" lon="6.1282618716"><ele>455.32</ele><time>2014-09-07T21:38:16Z</time></trkpt><trkpt lat="45.9013464488" lon="6.1282985844"><ele>455.32</ele><time>2014-09-07T21:38:18Z</time></trkpt><trkpt lat="45.9013493825" lon="6.1283260770"><ele>455.32</ele><time>2014-09-07T21:38:19Z</time></trkpt><trkpt lat="45.9013513941" lon="6.1283487082"><ele>455.80</ele><time>2014-09-07T21:38:20Z</time></trkpt><trkpt lat="45.9013576806" lon="6.1283823196"><ele>455.80</ele><time>2014-09-07T21:38:21Z</time></trkpt><trkpt lat="45.9013680741" lon="6.1284189485"><ele>456.28</ele><time>2014-09-07T21:38:22Z</time></trkpt><trkpt lat="45.9013798926" lon="6.1284616962"><ele>456.28</ele><time>2014-09-07T21:38:23Z</time></trkpt><trkpt lat="45.9013929684" lon="6.1285073776"><ele>456.28</ele><time>2014-09-07T21:38:24Z</time></trkpt><trkpt lat="45.9014055412" lon="6.1285513826"><ele>456.28</ele><time>2014-09-07T21:38:25Z</time></trkpt><trkpt lat="45.9014192037" lon="6.1286021769"><ele>456.28</ele><time>2014-09-07T21:38:26Z</time></trkpt><trkpt lat="45.9014339559" lon="6.1286510434"><ele>456.76</ele><time>2014-09-07T21:38:27Z</time></trkpt><trkpt lat="45.9016008396" lon="6.1292936839"><ele>456.28</ele><time>2014-09-07T21:38:41Z</time></trkpt><trkpt lat="45.9016247280" lon="6.1293148901"><ele>456.76</ele><time>2014-09-07T21:38:48Z</time></trkpt><trkpt lat="45.9016757738" lon="6.1292905826"><ele>456.76</ele><time>2014-09-07T21:38:52Z</time></trkpt><trkpt lat="45.9016855806" lon="6.1292633414"><ele>456.76</ele><time>2014-09-07T21:38:53Z</time></trkpt><trkpt lat="45.9016835690" lon="6.1292434763"><ele>456.28</ele><time>2014-09-07T21:38:54Z</time></trkpt><trkpt lat="45.9015630372" lon="6.1287351977"><ele>459.17</ele><time>2014-09-07T21:39:08Z</time></trkpt><trkpt lat="45.9014544915" lon="6.1282918788"><ele>460.13</ele><time>2014-09-07T21:39:21Z</time></trkpt><trkpt lat="45.9013087302" lon="6.1278410163"><ele>462.05</ele><time>2014-09-07T21:39:34Z</time></trkpt><trkpt lat="45.9010315407" lon="6.1274344102"><ele>464.45</ele><time>2014-09-07T21:39:47Z</time></trkpt><trkpt lat="45.9007508308" lon="6.1275748909"><ele>463.01</ele><time>2014-09-07T21:39:55Z</time></trkpt><trkpt lat="45.9007147886" lon="6.1276017968"><ele>463.01</ele><time>2014-09-07T21:39:56Z</time></trkpt><trkpt lat="45.9003953543" lon="6.1277587898"><ele>462.05</ele><time>2014-09-07T21:40:04Z</time></trkpt><trkpt lat="45.9003677778" lon="6.1277105939"><ele>462.05</ele><time>2014-09-07T21:40:06Z</time></trkpt><trkpt lat="45.9003535286" lon="6.1276563630"><ele>462.53</ele><time>2014-09-07T21:40:07Z</time></trkpt><trkpt lat="45.9003955219" lon="6.1270480044"><ele>460.61</ele><time>2014-09-07T21:40:19Z</time></trkpt><trkpt lat="45.9003425483" lon="6.1262777913"><ele>464.93</ele><time>2014-09-07T21:40:34Z</time></trkpt><trkpt lat="45.9002895746" lon="6.1260425113"><ele>472.14</ele><time>2014-09-07T21:40:45Z</time></trkpt><trkpt lat="45.9003221802" lon="6.1261120811"><ele>472.63</ele><time>2014-09-07T21:41:02Z</time></trkpt><trkpt lat="45.9003339149" lon="6.1261042021"><ele>472.63</ele><time>2014-09-07T21:41:03Z</time></trkpt><trkpt lat="45.9003438056" lon="6.1260972451"><ele>473.11</ele><time>2014-09-07T21:41:04Z</time></trkpt><trkpt lat="45.9004906565" lon="6.1260413378"><ele>475.03</ele><time>2014-09-07T21:41:14Z</time></trkpt><trkpt lat="45.9007511660" lon="6.1259221472"><ele>477.43</ele><time>2014-09-07T21:41:26Z</time></trkpt><trkpt lat="45.9011107497" lon="6.1257011164"><ele>482.24</ele><time>2014-09-07T21:41:40Z</time></trkpt><trkpt lat="45.9014582634" lon="6.1254678480"><ele>484.16</ele><time>2014-09-07T21:41:54Z</time></trkpt><trkpt lat="45.9018982295" lon="6.1252868827"><ele>482.24</ele><time>2014-09-07T21:42:08Z</time></trkpt><trkpt lat="45.9021092858" lon="6.1252006330"><ele>486.08</ele><time>2014-09-07T21:42:18Z</time></trkpt><trkpt lat="45.9024735633" lon="6.1250339169"><ele>484.16</ele><time>2014-09-07T21:42:31Z</time></trkpt><trkpt lat="45.9029221628" lon="6.1248701345"><ele>485.12</ele><time>2014-09-07T21:42:45Z</time></trkpt><trkpt lat="45.9034339618" lon="6.1246178392"><ele>488.49</ele><time>2014-09-07T21:43:00Z</time></trkpt><trkpt lat="45.9036979079" lon="6.1245595012"><ele>481.28</ele><time>2014-09-07T21:43:11Z</time></trkpt><trkpt lat="45.9037431702" lon="6.1245790310"><ele>480.80</ele><time>2014-09-07T21:43:13Z</time></trkpt><trkpt lat="45.9038575832" lon="6.1247056816"><ele>476.95</ele><time>2014-09-07T21:43:17Z</time></trkpt><trkpt lat="45.9038820583" lon="6.1247055978"><ele>475.99</ele><time>2014-09-07T21:43:18Z</time></trkpt><trkpt lat="45.9039165918" lon="6.1246997304"><ele>475.51</ele><time>2014-09-07T21:43:19Z</time></trkpt><trkpt lat="45.9041547216" lon="6.1245520413"><ele>471.66</ele><time>2014-09-07T21:43:26Z</time></trkpt><trkpt lat="45.9043138102" lon="6.1244298331"><ele>469.26</ele><time>2014-09-07T21:43:30Z</time></trkpt><trkpt lat="45.9043875709" lon="6.1243880913"><ele>469.26</ele><time>2014-09-07T21:43:32Z</time></trkpt><trkpt lat="45.9044357669" lon="6.1243663821"><ele>468.30</ele><time>2014-09-07T21:43:33Z</time></trkpt><trkpt lat="45.9044791851" lon="6.1243479419"><ele>467.82</ele><time>2014-09-07T21:43:34Z</time></trkpt><trkpt lat="45.9045364335" lon="6.1243232992"><ele>467.82</ele><time>2014-09-07T21:43:35Z</time></trkpt><trkpt lat="45.9051514976" lon="6.1239494663"><ele>469.74</ele><time>2014-09-07T21:43:56Z</time></trkpt><trkpt lat="45.9053789824" lon="6.1238163617"><ele>471.18</ele><time>2014-09-07T21:44:16Z</time></trkpt><trkpt lat="45.9054415114" lon="6.1238526553"><ele>470.22</ele><time>2014-09-07T21:44:35Z</time></trkpt><trkpt lat="45.9054712672" lon="6.1238513142"><ele>470.22</ele><time>2014-09-07T21:44:38Z</time></trkpt><trkpt lat="45.9054887854" lon="6.1238480452"><ele>470.22</ele><time>2014-09-07T21:44:39Z</time></trkpt><trkpt lat="45.9055064712" lon="6.1238459498"><ele>470.70</ele><time>2014-09-07T21:44:40Z</time></trkpt><trkpt lat="45.9055261686" lon="6.1238477938"><ele>471.18</ele><time>2014-09-07T21:44:41Z</time></trkpt><trkpt lat="45.9056402463" lon="6.1238459498"><ele>471.66</ele><time>2014-09-07T21:44:45Z</time></trkpt><trkpt lat="45.9056694992" lon="6.1238385737"><ele>471.66</ele><time>2014-09-07T21:44:46Z</time></trkpt><trkpt lat="45.9062624350" lon="6.1238187086"><ele>472.63</ele><time>2014-09-07T21:45:02Z</time></trkpt><trkpt lat="45.9068506770" lon="6.1237949040"><ele>475.51</ele><time>2014-09-07T21:45:18Z</time></trkpt><trkpt lat="45.9073937405" lon="6.1237877794"><ele>478.87</ele><time>2014-09-07T21:45:31Z</time></trkpt><trkpt lat="45.9079062100" lon="6.1237997655"><ele>477.91</ele><time>2014-09-07T21:45:45Z</time></trkpt><trkpt lat="45.9085083660" lon="6.1238135118"><ele>478.87</ele><time>2014-09-07T21:46:00Z</time></trkpt><trkpt lat="45.9089365136" lon="6.1237928923"><ele>479.35</ele><time>2014-09-07T21:46:12Z</time></trkpt><trkpt lat="45.9094808344" lon="6.1238104943"><ele>480.80</ele><time>2014-09-07T21:46:26Z</time></trkpt><trkpt lat="45.9099961538" lon="6.1238026991"><ele>482.24</ele><time>2014-09-07T21:46:39Z</time></trkpt><trkpt lat="45.9105231240" lon="6.1238438543"><ele>483.68</ele><time>2014-09-07T21:46:53Z</time></trkpt><trkpt lat="45.9111759905" lon="6.1238005199"><ele>486.56</ele><time>2014-09-07T21:47:09Z</time></trkpt><trkpt lat="45.9116591234" lon="6.1238632165"><ele>483.20</ele><time>2014-09-07T21:47:21Z</time></trkpt><trkpt lat="45.9121399932" lon="6.1238231510"><ele>480.80</ele><time>2014-09-07T21:47:34Z</time></trkpt><trkpt lat="45.9127367847" lon="6.1238371488"><ele>479.84</ele><time>2014-09-07T21:47:49Z</time></trkpt><trkpt lat="45.9133451432" lon="6.1238135956"><ele>480.80</ele><time>2014-09-07T21:48:04Z</time></trkpt><trkpt lat="45.9138728678" lon="6.1238182895"><ele>485.12</ele><time>2014-09-07T21:48:18Z</time></trkpt><trkpt lat="45.9144041967" lon="6.1237727758"><ele>488.97</ele><time>2014-09-07T21:48:31Z</time></trkpt><trkpt lat="45.9147268999" lon="6.1237348057"><ele>488.49</ele><time>2014-09-07T21:48:39Z</time></trkpt><trkpt lat="45.9147823043" lon="6.1237586103"><ele>488.49</ele><time>2014-09-07T21:48:41Z</time></trkpt><trkpt lat="45.9148685541" lon="6.1237869412"><ele>487.53</ele><time>2014-09-07T21:48:43Z</time></trkpt><trkpt lat="45.9149253834" lon="6.1237896234"><ele>486.08</ele><time>2014-09-07T21:48:44Z</time></trkpt><trkpt lat="45.9149776027" lon="6.1237944849"><ele>485.12</ele><time>2014-09-07T21:48:45Z</time></trkpt><trkpt lat="45.9150191769" lon="6.1237995140"><ele>484.64</ele><time>2014-09-07T21:48:46Z</time></trkpt><trkpt lat="45.9156101011" lon="6.1238351371"><ele>478.87</ele><time>2014-09-07T21:49:01Z</time></trkpt><trkpt lat="45.9161006939" lon="6.1238263361"><ele>478.39</ele><time>2014-09-07T21:49:13Z</time></trkpt><trkpt lat="45.9165744390" lon="6.1238362268"><ele>478.39</ele><time>2014-09-07T21:49:25Z</time></trkpt><trkpt lat="45.9171356075" lon="6.1238339636"><ele>487.53</ele><time>2014-09-07T21:49:39Z</time></trkpt><trkpt lat="45.9177598078" lon="6.1238320358"><ele>487.05</ele><time>2014-09-07T21:49:54Z</time></trkpt><trkpt lat="45.9178503323" lon="6.1238338798"><ele>486.56</ele><time>2014-09-07T21:49:56Z</time></trkpt><trkpt lat="45.9180596285" lon="6.1238273419"><ele>485.12</ele><time>2014-09-07T21:50:01Z</time></trkpt><trkpt lat="45.9187996667" lon="6.1238358915"><ele>480.80</ele><time>2014-09-07T21:50:18Z</time></trkpt><trkpt lat="45.9190041851" lon="6.1238501407"><ele>480.32</ele><time>2014-09-07T21:50:23Z</time></trkpt><trkpt lat="45.9193382040" lon="6.1238503922"><ele>478.87</ele><time>2014-09-07T21:50:31Z</time></trkpt><trkpt lat="45.9194785170" lon="6.1238598637"><ele>478.39</ele><time>2014-09-07T21:50:34Z</time></trkpt><trkpt lat="45.9200314712" lon="6.1238612887"><ele>476.95</ele><time>2014-09-07T21:50:47Z</time></trkpt><trkpt lat="45.9202092513" lon="6.1238643061"><ele>476.95</ele><time>2014-09-07T21:50:51Z</time></trkpt><trkpt lat="45.9207860101" lon="6.1238725204"><ele>477.43</ele><time>2014-09-07T21:51:05Z</time></trkpt><trkpt lat="45.9214038402" lon="6.1238682456"><ele>475.51</ele><time>2014-09-07T21:51:21Z</time></trkpt><trkpt lat="45.9219553694" lon="6.1238883622"><ele>476.95</ele><time>2014-09-07T21:51:34Z</time></trkpt><trkpt lat="45.9226818290" lon="6.1238838360"><ele>481.76</ele><time>2014-09-07T21:51:51Z</time></trkpt><trkpt lat="45.9230372217" lon="6.1238679942"><ele>480.80</ele><time>2014-09-07T21:51:59Z</time></trkpt><trkpt lat="45.9231301770" lon="6.1238814052"><ele>480.32</ele><time>2014-09-07T21:52:01Z</time></trkpt><trkpt lat="45.9232363757" lon="6.1238741968"><ele>479.35</ele><time>2014-09-07T21:52:03Z</time></trkpt><trkpt lat="45.9232841525" lon="6.1238792259"><ele>478.87</ele><time>2014-09-07T21:52:04Z</time></trkpt><trkpt lat="45.9233252238" lon="6.1238855124"><ele>478.87</ele><time>2014-09-07T21:52:05Z</time></trkpt><trkpt lat="45.9241387714" lon="6.1239185371"><ele>477.91</ele><time>2014-09-07T21:52:22Z</time></trkpt><trkpt lat="45.9250119142" lon="6.1239037011"><ele>481.28</ele><time>2014-09-07T21:52:40Z</time></trkpt><trkpt lat="45.9259181656" lon="6.1239529867"><ele>481.28</ele><time>2014-09-07T21:52:59Z</time></trkpt><trkpt lat="45.9267297853" lon="6.1239457782"><ele>479.84</ele><time>2014-09-07T21:53:17Z</time></trkpt><trkpt lat="45.9272874333" lon="6.1239960697"><ele>475.51</ele><time>2014-09-07T21:53:33Z</time></trkpt><trkpt lat="45.9276077896" lon="6.1241121590"><ele>471.66</ele><time>2014-09-07T21:53:43Z</time></trkpt><trkpt lat="45.9277462587" lon="6.1238655634"><ele>469.74</ele><time>2014-09-07T21:53:51Z</time></trkpt><trkpt lat="45.9277439956" lon="6.1238646414"><ele>469.74</ele><time>2014-09-07T21:54:03Z</time></trkpt><trkpt lat="45.9277412295" lon="6.1238132603"><ele>468.78</ele><time>2014-09-07T21:54:08Z</time></trkpt><trkpt lat="45.9277368709" lon="6.1237834208"><ele>468.30</ele><time>2014-09-07T21:54:09Z</time></trkpt><trkpt lat="45.9275616053" lon="6.1235367414"><ele>467.34</ele><time>2014-09-07T21:54:20Z</time></trkpt><trkpt lat="45.9273129981" lon="6.1236241646"><ele>466.38</ele><time>2014-09-07T21:54:32Z</time></trkpt><trkpt lat="45.9273215476" lon="6.1236392520"><ele>466.38</ele><time>2014-09-07T21:54:45Z</time></trkpt><trkpt lat="45.9273153450" lon="6.1236508191"><ele>466.38</ele><time>2014-09-07T21:54:46Z</time></trkpt><trkpt lat="45.9273075499" lon="6.1236654036"><ele>466.38</ele><time>2014-09-07T21:54:47Z</time></trkpt><trkpt lat="45.9273017664" lon="6.1236876156"><ele>465.90</ele><time>2014-09-07T21:54:48Z</time></trkpt><trkpt lat="45.9272961505" lon="6.1237151083"><ele>465.90</ele><time>2014-09-07T21:54:49Z</time></trkpt><trkpt lat="45.9273979068" lon="6.1241145059"><ele>465.90</ele><time>2014-09-07T21:55:01Z</time></trkpt><trkpt lat="45.9276745096" lon="6.1240578443"><ele>464.93</ele><time>2014-09-07T21:55:09Z</time></trkpt><trkpt lat="45.9278519545" lon="6.1239119153"><ele>463.97</ele><time>2014-09-07T21:55:14Z</time></trkpt><trkpt lat="45.9279221110" lon="6.1238934752"><ele>463.97</ele><time>2014-09-07T21:55:16Z</time></trkpt><trkpt lat="45.9279620089" lon="6.1238888651"><ele>463.97</ele><time>2014-09-07T21:55:17Z</time></trkpt><trkpt lat="45.9285960998" lon="6.1238943972"><ele>464.45</ele><time>2014-09-07T21:55:33Z</time></trkpt><trkpt lat="45.9289352316" lon="6.1238924693"><ele>463.97</ele><time>2014-09-07T21:55:41Z</time></trkpt><trkpt lat="45.9295206238" lon="6.1239497177"><ele>463.97</ele><time>2014-09-07T21:55:55Z</time></trkpt><trkpt lat="45.9298436623" lon="6.1239280924"><ele>463.97</ele><time>2014-09-07T21:56:03Z</time></trkpt><trkpt lat="45.9298863262" lon="6.1239320319"><ele>463.97</ele><time>2014-09-07T21:56:04Z</time></trkpt><trkpt lat="45.9299273975" lon="6.1239424255"><ele>463.97</ele><time>2014-09-07T21:56:05Z</time></trkpt><trkpt lat="45.9299676307" lon="6.1239565071"><ele>463.97</ele><time>2014-09-07T21:56:06Z</time></trkpt><trkpt lat="45.9300063550" lon="6.1239731871"><ele>464.45</ele><time>2014-09-07T21:56:07Z</time></trkpt><trkpt lat="45.9301008191" lon="6.1240816489"><ele>464.45</ele><time>2014-09-07T21:56:10Z</time></trkpt><trkpt lat="45.9301185887" lon="6.1241349578"><ele>464.45</ele><time>2014-09-07T21:56:11Z</time></trkpt><trkpt lat="45.9301350173" lon="6.1241875961"><ele>463.97</ele><time>2014-09-07T21:56:12Z</time></trkpt><trkpt lat="45.9301612526" lon="6.1242452636"><ele>463.97</ele><time>2014-09-07T21:56:13Z</time></trkpt><trkpt lat="45.9301889967" lon="6.1242848262"><ele>463.49</ele><time>2014-09-07T21:56:14Z</time></trkpt><trkpt lat="45.9302226081" lon="6.1243198626"><ele>463.49</ele><time>2014-09-07T21:56:15Z</time></trkpt><trkpt lat="45.9302578121" lon="6.1243434157"><ele>463.49</ele><time>2014-09-07T21:56:16Z</time></trkpt><trkpt lat="45.9302920103" lon="6.1243582517"><ele>463.49</ele><time>2014-09-07T21:56:17Z</time></trkpt><trkpt lat="45.9303208441" lon="6.1243673041"><ele>463.49</ele><time>2014-09-07T21:56:18Z</time></trkpt><trkpt lat="45.9303401224" lon="6.1243734229"><ele>463.01</ele><time>2014-09-07T21:56:19Z</time></trkpt><trkpt lat="45.9304071777" lon="6.1244232114"><ele>463.01</ele><time>2014-09-07T21:56:28Z</time></trkpt><trkpt lat="45.9306443017" lon="6.1247414723"><ele>463.97</ele><time>2014-09-07T21:56:39Z</time></trkpt><trkpt lat="45.9311068151" lon="6.1255489849"><ele>463.01</ele><time>2014-09-07T21:56:58Z</time></trkpt><trkpt lat="45.9315435961" lon="6.1262699123"><ele>465.90</ele><time>2014-09-07T21:57:15Z</time></trkpt><trkpt lat="45.9319292475" lon="6.1269748304"><ele>466.86</ele><time>2014-09-07T21:57:31Z</time></trkpt><trkpt lat="45.9319630265" lon="6.1270404607"><ele>467.82</ele><time>2014-09-07T21:57:32Z</time></trkpt><trkpt lat="45.9322499391" lon="6.1274745595"><ele>471.66</ele><time>2014-09-07T21:57:45Z</time></trkpt><trkpt lat="45.9326310642" lon="6.1278307904"><ele>469.26</ele><time>2014-09-07T21:57:59Z</time></trkpt><trkpt lat="45.9329821821" lon="6.1281023640"><ele>465.90</ele><time>2014-09-07T21:58:13Z</time></trkpt><trkpt lat="45.9330917336" lon="6.1282055452"><ele>465.42</ele><time>2014-09-07T21:58:25Z</time></trkpt><trkpt lat="45.9334558435" lon="6.1282661464"><ele>465.42</ele><time>2014-09-07T21:58:37Z</time></trkpt><trkpt lat="45.9338015970" lon="6.1278810818"><ele>466.38</ele><time>2014-09-07T21:58:51Z</time></trkpt><trkpt lat="45.9341818001" lon="6.1274830252"><ele>467.34</ele><time>2014-09-07T21:59:07Z</time></trkpt><trkpt lat="45.9344933555" lon="6.1271359306"><ele>470.70</ele><time>2014-09-07T21:59:22Z</time></trkpt><trkpt lat="45.9347903263" lon="6.1267650314"><ele>471.66</ele><time>2014-09-07T21:59:36Z</time></trkpt><trkpt lat="45.9350602236" lon="6.1262022704"><ele>473.59</ele><time>2014-09-07T21:59:53Z</time></trkpt><trkpt lat="45.9351292066" lon="6.1255836021"><ele>474.07</ele><time>2014-09-07T22:00:09Z</time></trkpt><trkpt lat="45.9351608902" lon="6.1248894129"><ele>474.55</ele><time>2014-09-07T22:00:26Z</time></trkpt><trkpt lat="45.9351807553" lon="6.1244320963"><ele>476.47</ele><time>2014-09-07T22:00:38Z</time></trkpt><trkpt lat="45.9351955913" lon="6.1243155878"><ele>477.43</ele><time>2014-09-07T22:00:47Z</time></trkpt><trkpt lat="45.9351945855" lon="6.1242876761"><ele>477.43</ele><time>2014-09-07T22:00:48Z</time></trkpt><trkpt lat="45.9351961780" lon="6.1242579203"><ele>477.43</ele><time>2014-09-07T22:00:49Z</time></trkpt><trkpt lat="45.9351996984" lon="6.1242231354"><ele>477.43</ele><time>2014-09-07T22:00:50Z</time></trkpt><trkpt lat="45.9352010395" lon="6.1241921224"><ele>477.43</ele><time>2014-09-07T22:00:51Z</time></trkpt><trkpt lat="45.9352560248" lon="6.1237121746"><ele>478.87</ele><time>2014-09-07T22:01:04Z</time></trkpt><trkpt lat="45.9355296101" lon="6.1233937461"><ele>479.35</ele><time>2014-09-07T22:01:16Z</time></trkpt><trkpt lat="45.9355388302" lon="6.1233605538"><ele>479.35</ele><time>2014-09-07T22:01:17Z</time></trkpt><trkpt lat="45.9355597012" lon="6.1233196501"><ele>478.87</ele><time>2014-09-07T22:01:18Z</time></trkpt><trkpt lat="45.9355754592" lon="6.1232995335"><ele>478.87</ele><time>2014-09-07T22:01:19Z</time></trkpt><trkpt lat="45.9356289357" lon="6.1232423689"><ele>478.87</ele><time>2014-09-07T22:01:21Z</time></trkpt><trkpt lat="45.9359859210" lon="6.1227483395"><ele>477.43</ele><time>2014-09-07T22:01:38Z</time></trkpt><trkpt lat="45.9361690655" lon="6.1225919332"><ele>477.91</ele><time>2014-09-07T22:01:51Z</time></trkpt><trkpt lat="45.9362154175" lon="6.1226005666"><ele>477.91</ele><time>2014-09-07T22:01:54Z</time></trkpt><trkpt lat="45.9362286609" lon="6.1226117145"><ele>477.91</ele><time>2014-09-07T22:01:55Z</time></trkpt><trkpt lat="45.9362620208" lon="6.1226516962"><ele>477.91</ele><time>2014-09-07T22:01:57Z</time></trkpt><trkpt lat="45.9362813830" lon="6.1226847209"><ele>477.91</ele><time>2014-09-07T22:01:59Z</time></trkpt><trkpt lat="45.9362969734" lon="6.1227341741"><ele>477.91</ele><time>2014-09-07T22:02:00Z</time></trkpt><trkpt lat="45.9363151621" lon="6.1227810290"><ele>477.91</ele><time>2014-09-07T22:02:02Z</time></trkpt><trkpt lat="45.9363230411" lon="6.1228086054"><ele>477.91</ele><time>2014-09-07T22:02:03Z</time></trkpt><trkpt lat="45.9363460913" lon="6.1228443123"><ele>478.39</ele><time>2014-09-07T22:02:04Z</time></trkpt><trkpt lat="45.9363644477" lon="6.1228748225"><ele>478.39</ele><time>2014-09-07T22:02:05Z</time></trkpt><trkpt lat="45.9364770167" lon="6.1229260359"><ele>478.39</ele><time>2014-09-07T22:02:09Z</time></trkpt><trkpt lat="45.9365098737" lon="6.1229079310"><ele>478.39</ele><time>2014-09-07T22:02:11Z</time></trkpt><trkpt lat="45.9365421440" lon="6.1228832882"><ele>478.39</ele><time>2014-09-07T22:02:12Z</time></trkpt><trkpt lat="45.9368603211" lon="6.1226273887"><ele>479.35</ele><time>2014-09-07T22:02:25Z</time></trkpt><trkpt lat="45.9371887241" lon="6.1223816313"><ele>480.32</ele><time>2014-09-07T22:02:38Z</time></trkpt><trkpt lat="45.9376428556" lon="6.1221330240"><ele>482.24</ele><time>2014-09-07T22:02:54Z</time></trkpt><trkpt lat="45.9381321911" lon="6.1220320221"><ele>484.64</ele><time>2014-09-07T22:03:10Z</time></trkpt><trkpt lat="45.9387479257" lon="6.1221872550"><ele>485.12</ele><time>2014-09-07T22:03:30Z</time></trkpt><trkpt lat="45.9392194916" lon="6.1223261431"><ele>485.12</ele><time>2014-09-07T22:03:45Z</time></trkpt><trkpt lat="45.9396711085" lon="6.1224547215"><ele>484.64</ele><time>2014-09-07T22:03:59Z</time></trkpt><trkpt lat="45.9400042892" lon="6.1225492693"><ele>484.64</ele><time>2014-09-07T22:04:13Z</time></trkpt><trkpt lat="45.9400337934" lon="6.1225669552"><ele>480.80</ele><time>2014-09-07T22:04:39Z</time></trkpt><trkpt lat="45.9400562569" lon="6.1225704756"><ele>481.28</ele><time>2014-09-07T22:04:40Z</time></trkpt><trkpt lat="45.9400820732" lon="6.1225757562"><ele>481.28</ele><time>2014-09-07T22:04:41Z</time></trkpt><trkpt lat="45.9404852428" lon="6.1226715613"><ele>481.76</ele><time>2014-09-07T22:04:53Z</time></trkpt><trkpt lat="45.9410164040" lon="6.1228428036"><ele>482.72</ele><time>2014-09-07T22:05:09Z</time></trkpt><trkpt lat="45.9416000359" lon="6.1230175663"><ele>483.20</ele><time>2014-09-07T22:05:27Z</time></trkpt><trkpt lat="45.9420814924" lon="6.1231862102"><ele>482.72</ele><time>2014-09-07T22:05:44Z</time></trkpt><trkpt lat="45.9422014374" lon="6.1232157983"><ele>482.72</ele><time>2014-09-07T22:05:49Z</time></trkpt><trkpt lat="45.9422206320" lon="6.1231968552"><ele>482.24</ele><time>2014-09-07T22:05:50Z</time></trkpt><trkpt lat="45.9422376473" lon="6.1231241841"><ele>482.72</ele><time>2014-09-07T22:05:52Z</time></trkpt><trkpt lat="45.9422331210" lon="6.1229580548"><ele>483.20</ele><time>2014-09-07T22:05:57Z</time></trkpt><trkpt lat="45.9422252420" lon="6.1228787620"><ele>483.20</ele><time>2014-09-07T22:05:59Z</time></trkpt><trkpt lat="45.9422498848" lon="6.1228454858"><ele>483.20</ele><time>2014-09-07T22:06:01Z</time></trkpt><trkpt lat="45.9423890244" lon="6.1227373593"><ele>483.20</ele><time>2014-09-07T22:06:06Z</time></trkpt><trkpt lat="45.9424153436" lon="6.1227109563"><ele>483.20</ele><time>2014-09-07T22:06:07Z</time></trkpt><trkpt lat="45.9424440097" lon="6.1226902530"><ele>483.20</ele><time>2014-09-07T22:06:08Z</time></trkpt><trkpt lat="45.9424747713" lon="6.1226739921"><ele>483.20</ele><time>2014-09-07T22:06:09Z</time></trkpt><trkpt lat="45.9425072093" lon="6.1226602457"><ele>483.20</ele><time>2014-09-07T22:06:10Z</time></trkpt><trkpt lat="45.9429823793" lon="6.1226009019"><ele>487.05</ele><time>2014-09-07T22:06:24Z</time></trkpt><trkpt lat="45.9434353374" lon="6.1223709024"><ele>491.85</ele><time>2014-09-07T22:06:39Z</time></trkpt><trkpt lat="45.9435754828" lon="6.1219510529"><ele>489.93</ele><time>2014-09-07T22:06:48Z</time></trkpt><trkpt lat="45.9435752314" lon="6.1218916252"><ele>489.45</ele><time>2014-09-07T22:06:49Z</time></trkpt><trkpt lat="45.9435810149" lon="6.1216943152"><ele>488.49</ele><time>2014-09-07T22:06:52Z</time></trkpt><trkpt lat="45.9435774107" lon="6.1215042975"><ele>487.53</ele><time>2014-09-07T22:06:56Z</time></trkpt><trkpt lat="45.9435691126" lon="6.1215077341"><ele>487.53</ele><time>2014-09-07T22:06:57Z</time></trkpt><trkpt lat="45.9435641672" lon="6.1215312034"><ele>487.53</ele><time>2014-09-07T22:06:58Z</time></trkpt><trkpt lat="45.9435665980" lon="6.1215747893"><ele>487.53</ele><time>2014-09-07T22:06:59Z</time></trkpt><trkpt lat="45.9435701184" lon="6.1216149386"><ele>487.53</ele><time>2014-09-07T22:07:00Z</time></trkpt><trkpt lat="45.9436106030" lon="6.1219871789"><ele>486.56</ele><time>2014-09-07T22:07:10Z</time></trkpt><trkpt lat="45.9436292946" lon="6.1219845805"><ele>486.56</ele><time>2014-09-07T22:07:11Z</time></trkpt><trkpt lat="45.9436392691" lon="6.1219621170"><ele>487.05</ele><time>2014-09-07T22:07:12Z</time></trkpt><trkpt lat="45.9436391015" lon="6.1219514720"><ele>487.05</ele><time>2014-09-07T22:07:13Z</time></trkpt><trkpt lat="45.9436328150" lon="6.1219400726"><ele>487.05</ele><time>2014-09-07T22:07:14Z</time></trkpt><trkpt lat="45.9436221700" lon="6.1219361331"><ele>487.05</ele><time>2014-09-07T22:07:15Z</time></trkpt><trkpt lat="45.9436009638" lon="6.1219418328"><ele>486.56</ele><time>2014-09-07T22:07:16Z</time></trkpt><trkpt lat="45.9435776621" lon="6.1219594348"><ele>486.08</ele><time>2014-09-07T22:07:17Z</time></trkpt><trkpt lat="45.9435668495" lon="6.1219786294"><ele>486.08</ele><time>2014-09-07T22:07:18Z</time></trkpt><trkpt lat="45.9435551986" lon="6.1220203713"><ele>485.60</ele><time>2014-09-07T22:07:19Z</time></trkpt><trkpt lat="45.9435515106" lon="6.1220553238"><ele>485.60</ele><time>2014-09-07T22:07:20Z</time></trkpt><trkpt lat="45.9435485769" lon="6.1220885161"><ele>486.08</ele><time>2014-09-07T22:07:21Z</time></trkpt><trkpt lat="45.9435260296" lon="6.1222494487"><ele>485.60</ele><time>2014-09-07T22:07:26Z</time></trkpt><trkpt lat="45.9435350820" lon="6.1222684756"><ele>485.60</ele><time>2014-09-07T22:07:27Z</time></trkpt><trkpt lat="45.9435559530" lon="6.1222826410"><ele>485.60</ele><time>2014-09-07T22:07:28Z</time></trkpt><trkpt lat="45.9435812663" lon="6.1222983990"><ele>485.60</ele><time>2014-09-07T22:07:29Z</time></trkpt><trkpt lat="45.9435892291" lon="6.1223023385"><ele>486.08</ele><time>2014-09-07T22:07:30Z</time></trkpt><trkpt lat="45.9436070826" lon="6.1223081220"><ele>486.56</ele><time>2014-09-07T22:07:31Z</time></trkpt><trkpt lat="45.9436416999" lon="6.1223167554"><ele>487.05</ele><time>2014-09-07T22:07:33Z</time></trkpt><trkpt lat="45.9436556976" lon="6.1223126482"><ele>487.53</ele><time>2014-09-07T22:07:34Z</time></trkpt><trkpt lat="45.9436641634" lon="6.1222659610"><ele>488.97</ele><time>2014-09-07T22:07:43Z</time></trkpt><trkpt lat="45.9436554462" lon="6.1222589202"><ele>488.97</ele><time>2014-09-07T22:07:44Z</time></trkpt><trkpt lat="45.9436406102" lon="6.1222592555"><ele>488.97</ele><time>2014-09-07T22:07:45Z</time></trkpt><trkpt lat="45.9436246008" lon="6.1222677212"><ele>489.45</ele><time>2014-09-07T22:07:46Z</time></trkpt><trkpt lat="45.9436064959" lon="6.1222785339"><ele>489.45</ele><time>2014-09-07T22:07:47Z</time></trkpt><trkpt lat="45.9435867984" lon="6.1222907715"><ele>489.45</ele><time>2014-09-07T22:07:48Z</time></trkpt><trkpt lat="45.9435602278" lon="6.1223026738"><ele>488.97</ele><time>2014-09-07T22:07:49Z</time></trkpt><trkpt lat="45.9431708883" lon="6.1225285660"><ele>486.56</ele><time>2014-09-07T22:08:02Z</time></trkpt><trkpt lat="45.9427388851" lon="6.1225737445"><ele>486.08</ele><time>2014-09-07T22:08:14Z</time></trkpt><trkpt lat="45.9422049578" lon="6.1227754969"><ele>486.56</ele><time>2014-09-07T22:08:30Z</time></trkpt><trkpt lat="45.9420944005" lon="6.1229966953"><ele>487.05</ele><time>2014-09-07T22:08:37Z</time></trkpt><trkpt lat="45.9423111565" lon="6.1232179776"><ele>486.56</ele><time>2014-09-07T22:08:48Z</time></trkpt><trkpt lat="45.9428139869" lon="6.1233666725"><ele>487.05</ele><time>2014-09-07T22:09:05Z</time></trkpt><trkpt lat="45.9433523566" lon="6.1233832687"><ele>488.49</ele><time>2014-09-07T22:09:23Z</time></trkpt><trkpt lat="45.9437648300" lon="6.1231057439"><ele>489.45</ele><time>2014-09-07T22:09:38Z</time></trkpt><trkpt lat="45.9440297820" lon="6.1226308253"><ele>491.37</ele><time>2014-09-07T22:09:53Z</time></trkpt><trkpt lat="45.9441711009" lon="6.1219964828"><ele>493.29</ele><time>2014-09-07T22:10:10Z</time></trkpt><trkpt lat="45.9443223104" lon="6.1215574387"><ele>495.70</ele><time>2014-09-07T22:10:23Z</time></trkpt><trkpt lat="45.9445985779" lon="6.1211341526"><ele>498.10</ele><time>2014-09-07T22:10:39Z</time></trkpt><trkpt lat="45.9449271485" lon="6.1208000500"><ele>500.02</ele><time>2014-09-07T22:10:56Z</time></trkpt><trkpt lat="45.9452205151" lon="6.1206371058"><ele>501.95</ele><time>2014-09-07T22:11:09Z</time></trkpt><trkpt lat="45.9453739878" lon="6.1202453356"><ele>501.95</ele><time>2014-09-07T22:11:21Z</time></trkpt><trkpt lat="45.9456044901" lon="6.1198912002"><ele>501.95</ele><time>2014-09-07T22:11:33Z</time></trkpt><trkpt lat="45.9460207354" lon="6.1195006873"><ele>500.98</ele><time>2014-09-07T22:11:48Z</time></trkpt><trkpt lat="45.9462774731" lon="6.1192796566"><ele>500.50</ele><time>2014-09-07T22:11:56Z</time></trkpt><trkpt lat="45.9463089891" lon="6.1192369089"><ele>500.50</ele><time>2014-09-07T22:11:57Z</time></trkpt><trkpt lat="45.9463401698" lon="6.1191918980"><ele>500.02</ele><time>2014-09-07T22:11:58Z</time></trkpt><trkpt lat="45.9463757090" lon="6.1191504914"><ele>500.02</ele><time>2014-09-07T22:11:59Z</time></trkpt><trkpt lat="45.9464176185" lon="6.1191120185"><ele>500.02</ele><time>2014-09-07T22:12:00Z</time></trkpt><trkpt lat="45.9464555047" lon="6.1190820113"><ele>500.02</ele><time>2014-09-07T22:12:01Z</time></trkpt><trkpt lat="45.9465409163" lon="6.1190234218"><ele>499.54</ele><time>2014-09-07T22:12:03Z</time></trkpt><trkpt lat="45.9467544872" lon="6.1188410316"><ele>499.06</ele><time>2014-09-07T22:12:08Z</time></trkpt><trkpt lat="45.9467896074" lon="6.1187733058"><ele>499.06</ele><time>2014-09-07T22:12:09Z</time></trkpt><trkpt lat="45.9468160942" lon="6.1187146325"><ele>499.06</ele><time>2014-09-07T22:12:10Z</time></trkpt><trkpt lat="45.9468559921" lon="6.1186516844"><ele>498.58</ele><time>2014-09-07T22:12:12Z</time></trkpt><trkpt lat="45.9468962252" lon="6.1186350044"><ele>498.58</ele><time>2014-09-07T22:12:13Z</time></trkpt><trkpt lat="45.9469262324" lon="6.1185989622"><ele>498.58</ele><time>2014-09-07T22:12:14Z</time></trkpt><trkpt lat="45.9469463490" lon="6.1185703799"><ele>498.58</ele><time>2014-09-07T22:12:15Z</time></trkpt><trkpt lat="45.9473716468" lon="6.1180098820"><ele>499.06</ele><time>2014-09-07T22:12:31Z</time></trkpt><trkpt lat="45.9477216750" lon="6.1175575107"><ele>501.46</ele><time>2014-09-07T22:12:47Z</time></trkpt><trkpt lat="45.9479828551" lon="6.1172267608"><ele>502.43</ele><time>2014-09-07T22:13:01Z</time></trkpt><trkpt lat="45.9482908901" lon="6.1168918200"><ele>503.87</ele><time>2014-09-07T22:13:17Z</time></trkpt><trkpt lat="45.9486282617" lon="6.1165766604"><ele>504.35</ele><time>2014-09-07T22:13:31Z</time></trkpt><trkpt lat="45.9489228856" lon="6.1162615009"><ele>503.87</ele><time>2014-09-07T22:13:43Z</time></trkpt><trkpt lat="45.9492425714" lon="6.1159301642"><ele>502.91</ele><time>2014-09-07T22:13:55Z</time></trkpt><trkpt lat="45.9497508500" lon="6.1154984962"><ele>500.02</ele><time>2014-09-07T22:14:08Z</time></trkpt><trkpt lat="45.9497977048" lon="6.1154673155"><ele>499.54</ele><time>2014-09-07T22:14:09Z</time></trkpt><trkpt lat="45.9498496726" lon="6.1154394876"><ele>499.06</ele><time>2014-09-07T22:14:10Z</time></trkpt><trkpt lat="45.9499070887" lon="6.1154192872"><ele>498.58</ele><time>2014-09-07T22:14:11Z</time></trkpt><trkpt lat="45.9500240162" lon="6.1153999250"><ele>497.62</ele><time>2014-09-07T22:14:13Z</time></trkpt><trkpt lat="45.9501271136" lon="6.1154030263"><ele>497.14</ele><time>2014-09-07T22:14:15Z</time></trkpt><trkpt lat="45.9501844458" lon="6.1154137552"><ele>496.66</ele><time>2014-09-07T22:14:16Z</time></trkpt><trkpt lat="45.9502432030" lon="6.1154307704"><ele>496.18</ele><time>2014-09-07T22:14:17Z</time></trkpt><trkpt lat="45.9508634638" lon="6.1156833172"><ele>494.26</ele><time>2014-09-07T22:14:27Z</time></trkpt><trkpt lat="45.9509311058" lon="6.1157098040"><ele>492.33</ele><time>2014-09-07T22:14:28Z</time></trkpt><trkpt lat="45.9511295054" lon="6.1158156674"><ele>488.01</ele><time>2014-09-07T22:14:31Z</time></trkpt><trkpt lat="45.9511788748" lon="6.1158466805"><ele>487.05</ele><time>2014-09-07T22:14:32Z</time></trkpt><trkpt lat="45.9512419067" lon="6.1158763524"><ele>485.60</ele><time>2014-09-07T22:14:33Z</time></trkpt><trkpt lat="45.9512935393" lon="6.1158867460"><ele>485.60</ele><time>2014-09-07T22:14:34Z</time></trkpt><trkpt lat="45.9513512906" lon="6.1159024201"><ele>485.12</ele><time>2014-09-07T22:14:35Z</time></trkpt><trkpt lat="45.9514093772" lon="6.1159228720"><ele>485.12</ele><time>2014-09-07T22:14:36Z</time></trkpt><trkpt lat="45.9517687932" lon="6.1160525400"><ele>487.05</ele><time>2014-09-07T22:14:43Z</time></trkpt><trkpt lat="45.9518548753" lon="6.1160548031"><ele>487.53</ele><time>2014-09-07T22:14:45Z</time></trkpt><trkpt lat="45.9522375092" lon="6.1160764284"><ele>492.33</ele><time>2014-09-07T22:14:58Z</time></trkpt><trkpt lat="45.9523261059" lon="6.1161066871"><ele>493.29</ele><time>2014-09-07T22:15:02Z</time></trkpt><trkpt lat="45.9527470451" lon="6.1160586588"><ele>497.62</ele><time>2014-09-07T22:15:18Z</time></trkpt><trkpt lat="45.9530187026" lon="6.1158054415"><ele>501.46</ele><time>2014-09-07T22:15:30Z</time></trkpt><trkpt lat="45.9532538150" lon="6.1156357080"><ele>504.35</ele><time>2014-09-07T22:15:42Z</time></trkpt><trkpt lat="45.9535681363" lon="6.1155878473"><ele>509.16</ele><time>2014-09-07T22:15:58Z</time></trkpt><trkpt lat="45.9538242035" lon="6.1156512983"><ele>512.04</ele><time>2014-09-07T22:16:13Z</time></trkpt><trkpt lat="45.9540455695" lon="6.1156865861"><ele>515.40</ele><time>2014-09-07T22:16:27Z</time></trkpt><trkpt lat="45.9542855434" lon="6.1156377196"><ele>515.40</ele><time>2014-09-07T22:16:43Z</time></trkpt><trkpt lat="45.9545772336" lon="6.1154312734"><ele>518.29</ele><time>2014-09-07T22:17:04Z</time></trkpt><trkpt lat="45.9547497332" lon="6.1152006872"><ele>520.21</ele><time>2014-09-07T22:17:19Z</time></trkpt><trkpt lat="45.9548882023" lon="6.1148575321"><ele>521.17</ele><time>2014-09-07T22:17:37Z</time></trkpt><trkpt lat="45.9549560957" lon="6.1144722160"><ele>522.13</ele><time>2014-09-07T22:17:54Z</time></trkpt><trkpt lat="45.9549736138" lon="6.1143045779"><ele>522.61</ele><time>2014-09-07T22:18:01Z</time></trkpt><trkpt lat="45.9549742006" lon="6.1142797675"><ele>522.61</ele><time>2014-09-07T22:18:02Z</time></trkpt><trkpt lat="45.9549757093" lon="6.1142562144"><ele>522.61</ele><time>2014-09-07T22:18:03Z</time></trkpt><trkpt lat="45.9549784753" lon="6.1142298952"><ele>522.61</ele><time>2014-09-07T22:18:04Z</time></trkpt><trkpt lat="45.9549818281" lon="6.1142029054"><ele>522.61</ele><time>2014-09-07T22:18:05Z</time></trkpt><trkpt lat="45.9549833369" lon="6.1141759157"><ele>522.61</ele><time>2014-09-07T22:18:06Z</time></trkpt><trkpt lat="45.9550235700" lon="6.1137441639"><ele>524.06</ele><time>2014-09-07T22:18:22Z</time></trkpt><trkpt lat="45.9550303593" lon="6.1136612669"><ele>524.06</ele><time>2014-09-07T22:18:25Z</time></trkpt><trkpt lat="45.9550302755" lon="6.1136351153"><ele>524.06</ele><time>2014-09-07T22:18:26Z</time></trkpt><trkpt lat="45.9551088978" lon="6.1130647268"><ele>524.06</ele><time>2014-09-07T22:18:42Z</time></trkpt><trkpt lat="45.9551711753" lon="6.1125488207"><ele>524.54</ele><time>2014-09-07T22:18:57Z</time></trkpt><trkpt lat="45.9551916271" lon="6.1124720424"><ele>524.54</ele><time>2014-09-07T22:19:10Z</time></trkpt><trkpt lat="45.9552032780" lon="6.1124883033"><ele>522.61</ele><time>2014-09-07T22:19:53Z</time></trkpt><trkpt lat="45.9551795572" lon="6.1124737188"><ele>525.02</ele><time>2014-09-07T22:20:04Z</time></trkpt><trkpt lat="45.9551752824" lon="6.1124584638"><ele>524.54</ele><time>2014-09-07T22:20:05Z</time></trkpt><trkpt lat="45.9551724326" lon="6.1124343239"><ele>524.54</ele><time>2014-09-07T22:20:06Z</time></trkpt><trkpt lat="45.9551713429" lon="6.1124055739"><ele>524.54</ele><time>2014-09-07T22:20:07Z</time></trkpt><trkpt lat="45.9551753663" lon="6.1123701185"><ele>524.06</ele><time>2014-09-07T22:20:08Z</time></trkpt><trkpt lat="45.9551829100" lon="6.1123299692"><ele>524.06</ele><time>2014-09-07T22:20:09Z</time></trkpt><trkpt lat="45.9552783798" lon="6.1115026753"><ele>520.69</ele><time>2014-09-07T22:20:22Z</time></trkpt><trkpt lat="45.9552822355" lon="6.1114266515"><ele>520.21</ele><time>2014-09-07T22:20:25Z</time></trkpt><trkpt lat="45.9552582633" lon="6.1113963928"><ele>519.73</ele><time>2014-09-07T22:20:27Z</time></trkpt><trkpt lat="45.9552381467" lon="6.1113992427"><ele>519.73</ele><time>2014-09-07T22:20:28Z</time></trkpt><trkpt lat="45.9552317765" lon="6.1114191916"><ele>519.25</ele><time>2014-09-07T22:20:29Z</time></trkpt><trkpt lat="45.9552275855" lon="6.1114391405"><ele>519.25</ele><time>2014-09-07T22:20:30Z</time></trkpt><trkpt lat="45.9552176949" lon="6.1114590894"><ele>519.25</ele><time>2014-09-07T22:20:31Z</time></trkpt><trkpt lat="45.9552086424" lon="6.1114800442"><ele>519.25</ele><time>2014-09-07T22:20:32Z</time></trkpt><trkpt lat="45.9552031104" lon="6.1115047708"><ele>519.25</ele><time>2014-09-07T22:20:33Z</time></trkpt><trkpt lat="45.9551987518" lon="6.1115315929"><ele>519.25</ele><time>2014-09-07T22:20:34Z</time></trkpt><trkpt lat="45.9551855084" lon="6.1116294097"><ele>519.73</ele><time>2014-09-07T22:20:38Z</time></trkpt><trkpt lat="45.9551819041" lon="6.1116577405"><ele>519.73</ele><time>2014-09-07T22:20:39Z</time></trkpt><trkpt lat="45.9551791381" lon="6.1116798688"><ele>520.21</ele><time>2014-09-07T22:20:40Z</time></trkpt><trkpt lat="45.9551772941" lon="6.1117048468"><ele>520.21</ele><time>2014-09-07T22:20:41Z</time></trkpt><trkpt lat="45.9551747795" lon="6.1117316689"><ele>520.21</ele><time>2014-09-07T22:20:42Z</time></trkpt><trkpt lat="45.9551346302" lon="6.1121976189"><ele>522.61</ele><time>2014-09-07T22:20:57Z</time></trkpt><trkpt lat="45.9551482927" lon="6.1124549434"><ele>523.09</ele><time>2014-09-07T22:21:05Z</time></trkpt><trkpt lat="45.9551723488" lon="6.1124831066"><ele>523.58</ele><time>2014-09-07T22:21:06Z</time></trkpt><trkpt lat="45.9552417509" lon="6.1125128623"><ele>523.58</ele><time>2014-09-07T22:21:10Z</time></trkpt><trkpt lat="45.9552709199" lon="6.1125172209"><ele>523.58</ele><time>2014-09-07T22:21:11Z</time></trkpt><trkpt lat="45.9552929644" lon="6.1125209928"><ele>524.06</ele><time>2014-09-07T22:21:12Z</time></trkpt><trkpt lat="45.9553144220" lon="6.1125269439"><ele>524.06</ele><time>2014-09-07T22:21:13Z</time></trkpt><trkpt lat="45.9555290826" lon="6.1126451287"><ele>525.50</ele><time>2014-09-07T22:21:24Z</time></trkpt><trkpt lat="45.9555411525" lon="6.1126456317"><ele>525.50</ele><time>2014-09-07T22:21:25Z</time></trkpt><trkpt lat="45.9555552341" lon="6.1126493197"><ele>525.50</ele><time>2014-09-07T22:21:26Z</time></trkpt><trkpt lat="45.9555681422" lon="6.1126588751"><ele>525.50</ele><time>2014-09-07T22:21:27Z</time></trkpt><trkpt lat="45.9555787034" lon="6.1126767285"><ele>525.98</ele><time>2014-09-07T22:21:28Z</time></trkpt><trkpt lat="45.9555826429" lon="6.1126975995"><ele>525.98</ele><time>2014-09-07T22:21:29Z</time></trkpt><trkpt lat="45.9555838164" lon="6.1127193924"><ele>525.98</ele><time>2014-09-07T22:21:30Z</time></trkpt><trkpt lat="45.9555920307" lon="6.1127392575"><ele>525.98</ele><time>2014-09-07T22:21:31Z</time></trkpt><trkpt lat="45.9556046035" lon="6.1127597094"><ele>525.98</ele><time>2014-09-07T22:21:32Z</time></trkpt><trkpt lat="45.9557727445" lon="6.1130047124"><ele>528.38</ele><time>2014-09-07T22:21:46Z</time></trkpt><trkpt lat="45.9560098685" lon="6.1133310199"><ele>531.27</ele><time>2014-09-07T22:22:05Z</time></trkpt><trkpt lat="45.9562535305" lon="6.1135248095"><ele>534.15</ele><time>2014-09-07T22:22:21Z</time></trkpt><trkpt lat="45.9562690370" lon="6.1135400645"><ele>534.63</ele><time>2014-09-07T22:22:22Z</time></trkpt><trkpt lat="45.9563452285" lon="6.1135958880"><ele>534.63</ele><time>2014-09-07T22:22:27Z</time></trkpt><trkpt lat="45.9563612379" lon="6.1136124004"><ele>534.63</ele><time>2014-09-07T22:22:28Z</time></trkpt><trkpt lat="45.9564784169" lon="6.1137051042"><ele>536.55</ele><time>2014-09-07T22:22:36Z</time></trkpt><trkpt lat="45.9564931691" lon="6.1137148272"><ele>536.55</ele><time>2014-09-07T22:22:37Z</time></trkpt><trkpt lat="45.9565318935" lon="6.1137507018"><ele>537.03</ele><time>2014-09-07T22:22:40Z</time></trkpt><trkpt lat="45.9565561172" lon="6.1137631070"><ele>537.03</ele><time>2014-09-07T22:22:41Z</time></trkpt><trkpt lat="45.9566686023" lon="6.1137762666"><ele>537.51</ele><time>2014-09-07T22:22:47Z</time></trkpt><trkpt lat="45.9566861205" lon="6.1137632746"><ele>537.51</ele><time>2014-09-07T22:22:48Z</time></trkpt><trkpt lat="45.9567159601" lon="6.1137312558"><ele>537.99</ele><time>2014-09-07T22:22:50Z</time></trkpt><trkpt lat="45.9567288682" lon="6.1137138214"><ele>537.99</ele><time>2014-09-07T22:22:51Z</time></trkpt><trkpt lat="45.9567512479" lon="6.1136771925"><ele>537.99</ele><time>2014-09-07T22:22:53Z</time></trkpt><trkpt lat="45.9567567799" lon="6.1136522144"><ele>538.48</ele><time>2014-09-07T22:22:54Z</time></trkpt><trkpt lat="45.9567636531" lon="6.1136300024"><ele>538.48</ele><time>2014-09-07T22:22:55Z</time></trkpt><trkpt lat="45.9569047205" lon="6.1132402439"><ele>539.92</ele><time>2014-09-07T22:23:11Z</time></trkpt><trkpt lat="45.9569504019" lon="6.1131438520"><ele>540.40</ele><time>2014-09-07T22:23:15Z</time></trkpt><trkpt lat="45.9569682553" lon="6.1131305248"><ele>540.40</ele><time>2014-09-07T22:23:16Z</time></trkpt><trkpt lat="45.9569861088" lon="6.1131180357"><ele>540.40</ele><time>2014-09-07T22:23:17Z</time></trkpt><trkpt lat="45.9570047166" lon="6.1131120007"><ele>540.40</ele><time>2014-09-07T22:23:18Z</time></trkpt><trkpt lat="45.9570170380" lon="6.1131169461"><ele>540.88</ele><time>2014-09-07T22:23:19Z</time></trkpt><trkpt lat="45.9570307005" lon="6.1131249089"><ele>540.88</ele><time>2014-09-07T22:23:20Z</time></trkpt><trkpt lat="45.9570475481" lon="6.1131345481"><ele>540.88</ele><time>2014-09-07T22:23:21Z</time></trkpt><trkpt lat="45.9570850153" lon="6.1131825764"><ele>541.84</ele><time>2014-09-07T22:23:24Z</time></trkpt><trkpt lat="45.9570928104" lon="6.1132031959"><ele>541.84</ele><time>2014-09-07T22:23:25Z</time></trkpt><trkpt lat="45.9570812434" lon="6.1134404037"><ele>542.80</ele><time>2014-09-07T22:23:35Z</time></trkpt><trkpt lat="45.9570526611" lon="6.1137785297"><ele>543.28</ele><time>2014-09-07T22:23:50Z</time></trkpt><trkpt lat="45.9570524935" lon="6.1138019152"><ele>543.76</ele><time>2014-09-07T22:23:51Z</time></trkpt><trkpt lat="45.9570561815" lon="6.1138228700"><ele>543.76</ele><time>2014-09-07T22:23:52Z</time></trkpt><trkpt lat="45.9570591152" lon="6.1138437409"><ele>543.76</ele><time>2014-09-07T22:23:53Z</time></trkpt><trkpt lat="45.9570593666" lon="6.1138667911"><ele>544.24</ele><time>2014-09-07T22:23:54Z</time></trkpt><trkpt lat="45.9571410902" lon="6.1142003071"><ele>545.69</ele><time>2014-09-07T22:24:10Z</time></trkpt><trkpt lat="45.9572135936" lon="6.1143658496"><ele>546.65</ele><time>2014-09-07T22:24:19Z</time></trkpt><trkpt lat="45.9573333710" lon="6.1145987827"><ele>548.57</ele><time>2014-09-07T22:24:32Z</time></trkpt><trkpt lat="45.9573440161" lon="6.1146148760"><ele>548.57</ele><time>2014-09-07T22:24:33Z</time></trkpt><trkpt lat="45.9574233089" lon="6.1147832684"><ele>549.53</ele><time>2014-09-07T22:24:42Z</time></trkpt><trkpt lat="45.9574320260" lon="6.1148054805"><ele>549.53</ele><time>2014-09-07T22:24:43Z</time></trkpt><trkpt lat="45.9574419167" lon="6.1148287822"><ele>549.53</ele><time>2014-09-07T22:24:44Z</time></trkpt><trkpt lat="45.9574493766" lon="6.1148424447"><ele>550.01</ele><time>2014-09-07T22:24:45Z</time></trkpt><trkpt lat="45.9574599378" lon="6.1148582865"><ele>550.01</ele><time>2014-09-07T22:24:46Z</time></trkpt><trkpt lat="45.9574721754" lon="6.1148714460"><ele>550.01</ele><time>2014-09-07T22:24:47Z</time></trkpt><trkpt lat="45.9576057829" lon="6.1151763797"><ele>551.45</ele><time>2014-09-07T22:25:03Z</time></trkpt><trkpt lat="45.9576112311" lon="6.1151955742"><ele>551.45</ele><time>2014-09-07T22:25:04Z</time></trkpt><trkpt lat="45.9576139972" lon="6.1152168643"><ele>551.45</ele><time>2014-09-07T22:25:05Z</time></trkpt><trkpt lat="45.9576199483" lon="6.1152369808"><ele>551.45</ele><time>2014-09-07T22:25:06Z</time></trkpt><trkpt lat="45.9576253127" lon="6.1152570136"><ele>551.45</ele><time>2014-09-07T22:25:07Z</time></trkpt><trkpt lat="45.9576277435" lon="6.1152798124"><ele>551.93</ele><time>2014-09-07T22:25:08Z</time></trkpt><trkpt lat="45.9576317668" lon="6.1153031979"><ele>551.93</ele><time>2014-09-07T22:25:09Z</time></trkpt><trkpt lat="45.9576351196" lon="6.1153259128"><ele>552.41</ele><time>2014-09-07T22:25:10Z</time></trkpt><trkpt lat="45.9576859139" lon="6.1156614404"><ele>552.90</ele><time>2014-09-07T22:25:26Z</time></trkpt><trkpt lat="45.9576876741" lon="6.1157530546"><ele>553.38</ele><time>2014-09-07T22:25:30Z</time></trkpt><trkpt lat="45.9576950502" lon="6.1157737579"><ele>553.38</ele><time>2014-09-07T22:25:31Z</time></trkpt><trkpt lat="45.9576973133" lon="6.1157971434"><ele>553.38</ele><time>2014-09-07T22:25:32Z</time></trkpt><trkpt lat="45.9576974809" lon="6.1158195231"><ele>553.86</ele><time>2014-09-07T22:25:33Z</time></trkpt><trkpt lat="45.9576993249" lon="6.1158425733"><ele>553.86</ele><time>2014-09-07T22:25:34Z</time></trkpt><trkpt lat="45.9577023424" lon="6.1159292422"><ele>554.34</ele><time>2014-09-07T22:25:38Z</time></trkpt><trkpt lat="45.9576994926" lon="6.1159503646"><ele>554.82</ele><time>2014-09-07T22:25:39Z</time></trkpt><trkpt lat="45.9576976486" lon="6.1159705650"><ele>554.82</ele><time>2014-09-07T22:25:40Z</time></trkpt><trkpt lat="45.9577001631" lon="6.1159923580"><ele>554.82</ele><time>2014-09-07T22:25:41Z</time></trkpt><trkpt lat="45.9577036835" lon="6.1160157435"><ele>554.82</ele><time>2014-09-07T22:25:42Z</time></trkpt><trkpt lat="45.9577069525" lon="6.1161882430"><ele>555.30</ele><time>2014-09-07T22:25:49Z</time></trkpt><trkpt lat="45.9577150829" lon="6.1162107065"><ele>555.30</ele><time>2014-09-07T22:25:50Z</time></trkpt><trkpt lat="45.9577243868" lon="6.1162339244"><ele>555.30</ele><time>2014-09-07T22:25:51Z</time></trkpt><trkpt lat="45.9577289131" lon="6.1162524484"><ele>555.30</ele><time>2014-09-07T22:25:52Z</time></trkpt><trkpt lat="45.9577324335" lon="6.1162772588"><ele>555.30</ele><time>2014-09-07T22:25:53Z</time></trkpt><trkpt lat="45.9577699006" lon="6.1165528558"><ele>556.26</ele><time>2014-09-07T22:26:05Z</time></trkpt><trkpt lat="45.9577776119" lon="6.1165731400"><ele>556.26</ele><time>2014-09-07T22:26:06Z</time></trkpt><trkpt lat="45.9577854071" lon="6.1165944301"><ele>556.26</ele><time>2014-09-07T22:26:07Z</time></trkpt><trkpt lat="45.9577928670" lon="6.1166166421"><ele>556.26</ele><time>2014-09-07T22:26:08Z</time></trkpt><trkpt lat="45.9577990696" lon="6.1166419555"><ele>556.26</ele><time>2014-09-07T22:26:09Z</time></trkpt><trkpt lat="45.9578848165" lon="6.1170064844"><ele>557.22</ele><time>2014-09-07T22:26:25Z</time></trkpt><trkpt lat="45.9580025822" lon="6.1174030323"><ele>559.62</ele><time>2014-09-07T22:26:43Z</time></trkpt><trkpt lat="45.9580396302" lon="6.1175157689"><ele>559.62</ele><time>2014-09-07T22:26:48Z</time></trkpt><trkpt lat="45.9580487665" lon="6.1175362207"><ele>559.62</ele><time>2014-09-07T22:26:49Z</time></trkpt><trkpt lat="45.9580584895" lon="6.1175582651"><ele>559.62</ele><time>2014-09-07T22:26:50Z</time></trkpt><trkpt lat="45.9580807853" lon="6.1176003423"><ele>560.11</ele><time>2014-09-07T22:26:52Z</time></trkpt><trkpt lat="45.9580956213" lon="6.1176160164"><ele>560.59</ele><time>2014-09-07T22:26:53Z</time></trkpt><trkpt lat="45.9581095353" lon="6.1176269967"><ele>561.07</ele><time>2014-09-07T22:26:54Z</time></trkpt><trkpt lat="45.9581233654" lon="6.1176372226"><ele>562.03</ele><time>2014-09-07T22:26:55Z</time></trkpt><trkpt lat="45.9581357706" lon="6.1176516395"><ele>562.51</ele><time>2014-09-07T22:26:56Z</time></trkpt><trkpt lat="45.9581477568" lon="6.1176679842"><ele>562.99</ele><time>2014-09-07T22:26:57Z</time></trkpt><trkpt lat="45.9581578150" lon="6.1176824011"><ele>562.99</ele><time>2014-09-07T22:26:58Z</time></trkpt><trkpt lat="45.9581701364" lon="6.1176948063"><ele>563.47</ele><time>2014-09-07T22:26:59Z</time></trkpt><trkpt lat="45.9582051728" lon="6.1177392304"><ele>563.95</ele><time>2014-09-07T22:27:02Z</time></trkpt><trkpt lat="45.9582187515" lon="6.1177523900"><ele>564.43</ele><time>2014-09-07T22:27:03Z</time></trkpt><trkpt lat="45.9583504312" lon="6.1178772803"><ele>565.39</ele><time>2014-09-07T22:27:14Z</time></trkpt><trkpt lat="45.9585790057" lon="6.1181097943"><ele>568.28</ele><time>2014-09-07T22:27:30Z</time></trkpt><trkpt lat="45.9588098433" lon="6.1182277277"><ele>570.20</ele><time>2014-09-07T22:27:46Z</time></trkpt><trkpt lat="45.9589858633" lon="6.1182993930"><ele>573.08</ele><time>2014-09-07T22:27:59Z</time></trkpt><trkpt lat="45.9591960814" lon="6.1183518637"><ele>576.45</ele><time>2014-09-07T22:28:13Z</time></trkpt><trkpt lat="45.9594918787" lon="6.1184360180"><ele>579.81</ele><time>2014-09-07T22:28:27Z</time></trkpt><trkpt lat="45.9596565831" lon="6.1185319908"><ele>577.41</ele><time>2014-09-07T22:28:41Z</time></trkpt><trkpt lat="45.9596763644" lon="6.1185531970"><ele>573.08</ele><time>2014-09-07T22:29:18Z</time></trkpt><trkpt lat="45.9596728440" lon="6.1185666081"><ele>573.08</ele><time>2014-09-07T22:29:35Z</time></trkpt><trkpt lat="45.9596786276" lon="6.1185713019"><ele>574.53</ele><time>2014-09-07T22:30:06Z</time></trkpt><trkpt lat="45.9596917871" lon="6.1185797676"><ele>573.56</ele><time>2014-09-07T22:30:32Z</time></trkpt><trkpt lat="45.9597118199" lon="6.1185622495"><ele>573.08</ele><time>2014-09-07T22:31:05Z</time></trkpt><trkpt lat="45.9597246442" lon="6.1185687874"><ele>573.08</ele><time>2014-09-07T22:31:06Z</time></trkpt><trkpt lat="45.9598670527" lon="6.1186857149"><ele>572.60</ele><time>2014-09-07T22:31:15Z</time></trkpt><trkpt lat="45.9599457588" lon="6.1187768262"><ele>572.60</ele><time>2014-09-07T22:31:21Z</time></trkpt><trkpt lat="45.9599574097" lon="6.1187836993"><ele>572.60</ele><time>2014-09-07T22:31:22Z</time></trkpt><trkpt lat="45.9599709883" lon="6.1187974457"><ele>573.08</ele><time>2014-09-07T22:31:23Z</time></trkpt><trkpt lat="45.9599692281" lon="6.1188460607"><ele>573.08</ele><time>2014-09-07T22:31:33Z</time></trkpt><trkpt lat="45.9600082040" lon="6.1188640818"><ele>575.97</ele><time>2014-09-07T22:32:16Z</time></trkpt><trkpt lat="45.9600199386" lon="6.1188691109"><ele>575.49</ele><time>2014-09-07T22:32:17Z</time></trkpt><trkpt lat="45.9600335173" lon="6.1188748106"><ele>575.49</ele><time>2014-09-07T22:32:18Z</time></trkpt><trkpt lat="45.9600470960" lon="6.1188859586"><ele>575.49</ele><time>2014-09-07T22:32:19Z</time></trkpt><trkpt lat="45.9600589145" lon="6.1188968550"><ele>575.49</ele><time>2014-09-07T22:32:20Z</time></trkpt><trkpt lat="45.9600735828" lon="6.1189076677"><ele>575.01</ele><time>2014-09-07T22:32:21Z</time></trkpt><trkpt lat="45.9600903466" lon="6.1189190671"><ele>575.01</ele><time>2014-09-07T22:32:22Z</time></trkpt><trkpt lat="45.9601150732" lon="6.1189380102"><ele>575.01</ele><time>2014-09-07T22:32:24Z</time></trkpt><trkpt lat="45.9601274785" lon="6.1189516727"><ele>575.01</ele><time>2014-09-07T22:32:25Z</time></trkpt><trkpt lat="45.9601430688" lon="6.1189686041"><ele>574.53</ele><time>2014-09-07T22:32:26Z</time></trkpt><trkpt lat="45.9601601679" lon="6.1189878825"><ele>574.53</ele><time>2014-09-07T22:32:27Z</time></trkpt><trkpt lat="45.9601767641" lon="6.1190032214"><ele>574.53</ele><time>2014-09-07T22:32:28Z</time></trkpt><trkpt lat="45.9604305681" lon="6.1193173751"><ele>574.53</ele><time>2014-09-07T22:32:43Z</time></trkpt><trkpt lat="45.9606118686" lon="6.1198068783"><ele>575.49</ele><time>2014-09-07T22:32:57Z</time></trkpt><trkpt lat="45.9607513435" lon="6.1203270592"><ele>575.97</ele><time>2014-09-07T22:33:10Z</time></trkpt><trkpt lat="45.9610339813" lon="6.1207226850"><ele>575.49</ele><time>2014-09-07T22:33:25Z</time></trkpt><trkpt lat="45.9614856821" lon="6.1208331585"><ele>577.41</ele><time>2014-09-07T22:33:41Z</time></trkpt><trkpt lat="45.9619380534" lon="6.1209621560"><ele>579.81</ele><time>2014-09-07T22:33:57Z</time></trkpt><trkpt lat="45.9624086972" lon="6.1210240982"><ele>583.66</ele><time>2014-09-07T22:34:15Z</time></trkpt><trkpt lat="45.9626723081" lon="6.1210213322"><ele>585.10</ele><time>2014-09-07T22:34:27Z</time></trkpt><trkpt lat="45.9629489109" lon="6.1211881321"><ele>589.43</ele><time>2014-09-07T22:34:41Z</time></trkpt><trkpt lat="45.9631320555" lon="6.1213343963"><ele>591.35</ele><time>2014-09-07T22:34:53Z</time></trkpt><trkpt lat="45.9631487355" lon="6.1213392578"><ele>591.35</ele><time>2014-09-07T22:34:54Z</time></trkpt><trkpt lat="45.9631654155" lon="6.1213474721"><ele>591.35</ele><time>2014-09-07T22:34:55Z</time></trkpt><trkpt lat="45.9631808382" lon="6.1213550158"><ele>591.35</ele><time>2014-09-07T22:34:56Z</time></trkpt><trkpt lat="45.9631983563" lon="6.1213602964"><ele>591.35</ele><time>2014-09-07T22:34:57Z</time></trkpt><trkpt lat="45.9632177185" lon="6.1213616375"><ele>591.83</ele><time>2014-09-07T22:34:58Z</time></trkpt><trkpt lat="45.9632370807" lon="6.1213625595"><ele>591.83</ele><time>2014-09-07T22:34:59Z</time></trkpt><trkpt lat="45.9632557724" lon="6.1213649064"><ele>591.83</ele><time>2014-09-07T22:35:00Z</time></trkpt><trkpt lat="45.9634832572" lon="6.1213981826"><ele>591.83</ele><time>2014-09-07T22:35:13Z</time></trkpt><trkpt lat="45.9635344706" lon="6.1214005295"><ele>591.35</ele><time>2014-09-07T22:35:16Z</time></trkpt><trkpt lat="45.9635500610" lon="6.1214051396"><ele>590.87</ele><time>2014-09-07T22:35:17Z</time></trkpt><trkpt lat="45.9637852572" lon="6.1214784812"><ele>591.35</ele><time>2014-09-07T22:35:32Z</time></trkpt><trkpt lat="45.9638294298" lon="6.1215081532"><ele>591.83</ele><time>2014-09-07T22:35:35Z</time></trkpt><trkpt lat="45.9638463613" lon="6.1215152778"><ele>592.31</ele><time>2014-09-07T22:35:36Z</time></trkpt><trkpt lat="45.9638606105" lon="6.1215216480"><ele>592.31</ele><time>2014-09-07T22:35:37Z</time></trkpt><trkpt lat="45.9638746921" lon="6.1215305328"><ele>592.31</ele><time>2014-09-07T22:35:38Z</time></trkpt><trkpt lat="45.9638903663" lon="6.1215400882"><ele>592.79</ele><time>2014-09-07T22:35:39Z</time></trkpt><trkpt lat="45.9641805477" lon="6.1217041221"><ele>595.67</ele><time>2014-09-07T22:35:56Z</time></trkpt><trkpt lat="45.9644437395" lon="6.1218744423"><ele>598.56</ele><time>2014-09-07T22:36:11Z</time></trkpt><trkpt lat="45.9646160714" lon="6.1219722591"><ele>601.44</ele><time>2014-09-07T22:36:22Z</time></trkpt><trkpt lat="45.9646297339" lon="6.1219792999"><ele>601.92</ele><time>2014-09-07T22:36:23Z</time></trkpt><trkpt lat="45.9646439832" lon="6.1219863407"><ele>601.92</ele><time>2014-09-07T22:36:24Z</time></trkpt><trkpt lat="45.9646609146" lon="6.1219938006"><ele>601.92</ele><time>2014-09-07T22:36:25Z</time></trkpt><trkpt lat="45.9646762535" lon="6.1220029369"><ele>601.92</ele><time>2014-09-07T22:36:26Z</time></trkpt><trkpt lat="45.9646909218" lon="6.1220137496"><ele>602.40</ele><time>2014-09-07T22:36:27Z</time></trkpt><trkpt lat="45.9649511799" lon="6.1221536435"><ele>603.36</ele><time>2014-09-07T22:36:44Z</time></trkpt><trkpt lat="45.9651867952" lon="6.1222949624"><ele>604.81</ele><time>2014-09-07T22:37:00Z</time></trkpt><trkpt lat="45.9654341452" lon="6.1224306654"><ele>607.21</ele><time>2014-09-07T22:37:16Z</time></trkpt><trkpt lat="45.9656629711" lon="6.1225882452"><ele>610.57</ele><time>2014-09-07T22:37:31Z</time></trkpt><trkpt lat="45.9656778909" lon="6.1225970462"><ele>610.57</ele><time>2014-09-07T22:37:32Z</time></trkpt><trkpt lat="45.9658361413" lon="6.1227074359"><ele>611.54</ele><time>2014-09-07T22:37:44Z</time></trkpt><trkpt lat="45.9658511449" lon="6.1227116268"><ele>612.02</ele><time>2014-09-07T22:37:45Z</time></trkpt><trkpt lat="45.9658653103" lon="6.1227185838"><ele>612.02</ele><time>2014-09-07T22:37:46Z</time></trkpt><trkpt lat="45.9658788051" lon="6.1227271333"><ele>612.50</ele><time>2014-09-07T22:37:47Z</time></trkpt><trkpt lat="45.9658937249" lon="6.1227324139"><ele>612.50</ele><time>2014-09-07T22:37:48Z</time></trkpt><trkpt lat="45.9659083094" lon="6.1227319110"><ele>612.50</ele><time>2014-09-07T22:37:49Z</time></trkpt><trkpt lat="45.9659233969" lon="6.1227304023"><ele>612.98</ele><time>2014-09-07T22:37:50Z</time></trkpt><trkpt lat="45.9659397416" lon="6.1227319948"><ele>612.98</ele><time>2014-09-07T22:37:51Z</time></trkpt><trkpt lat="45.9659574274" lon="6.1227314081"><ele>612.98</ele><time>2014-09-07T22:37:52Z</time></trkpt><trkpt lat="45.9659726825" lon="6.1227281392"><ele>612.98</ele><time>2014-09-07T22:37:53Z</time></trkpt><trkpt lat="45.9661135823" lon="6.1227064300"><ele>612.98</ele><time>2014-09-07T22:38:02Z</time></trkpt><trkpt lat="45.9661259037" lon="6.1227027420"><ele>612.50</ele><time>2014-09-07T22:38:03Z</time></trkpt><trkpt lat="45.9661405720" lon="6.1227086931"><ele>612.50</ele><time>2014-09-07T22:38:04Z</time></trkpt><trkpt lat="45.9661535639" lon="6.1227164045"><ele>612.98</ele><time>2014-09-07T22:38:05Z</time></trkpt><trkpt lat="45.9661689866" lon="6.1227217689"><ele>612.98</ele><time>2014-09-07T22:38:06Z</time></trkpt><trkpt lat="45.9661869239" lon="6.1227250379"><ele>612.98</ele><time>2014-09-07T22:38:07Z</time></trkpt><trkpt lat="45.9661997482" lon="6.1227246188"><ele>612.98</ele><time>2014-09-07T22:38:08Z</time></trkpt><trkpt lat="45.9662150033" lon="6.1227182485"><ele>613.46</ele><time>2014-09-07T22:38:09Z</time></trkpt><trkpt lat="45.9662304260" lon="6.1227100343"><ele>613.46</ele><time>2014-09-07T22:38:10Z</time></trkpt><trkpt lat="45.9662465192" lon="6.1227056757"><ele>613.46</ele><time>2014-09-07T22:38:11Z</time></trkpt><trkpt lat="45.9662626963" lon="6.1227039155"><ele>613.46</ele><time>2014-09-07T22:38:12Z</time></trkpt><trkpt lat="45.9662878420" lon="6.1227054242"><ele>613.94</ele><time>2014-09-07T22:38:14Z</time></trkpt><trkpt lat="45.9663525503" lon="6.1227132194"><ele>613.94</ele><time>2014-09-07T22:38:27Z</time></trkpt><trkpt lat="45.9663713258" lon="6.1227008980"><ele>613.46</ele><time>2014-09-07T22:38:35Z</time></trkpt><trkpt lat="45.9663844015" lon="6.1226991378"><ele>613.46</ele><time>2014-09-07T22:38:36Z</time></trkpt><trkpt lat="45.9664015006" lon="6.1226960365"><ele>613.46</ele><time>2014-09-07T22:38:37Z</time></trkpt><trkpt lat="45.9664137382" lon="6.1226868164"><ele>613.46</ele><time>2014-09-07T22:38:38Z</time></trkpt><trkpt lat="45.9664315917" lon="6.1226763390"><ele>613.46</ele><time>2014-09-07T22:38:39Z</time></trkpt><trkpt lat="45.9664538037" lon="6.1226675380"><ele>613.94</ele><time>2014-09-07T22:38:40Z</time></trkpt><trkpt lat="45.9667375311" lon="6.1226389557"><ele>619.23</ele><time>2014-09-07T22:38:53Z</time></trkpt><trkpt lat="45.9670908283" lon="6.1228112876"><ele>623.55</ele><time>2014-09-07T22:39:07Z</time></trkpt><trkpt lat="45.9672006313" lon="6.1231080070"><ele>621.15</ele><time>2014-09-07T22:39:19Z</time></trkpt><trkpt lat="45.9672087617" lon="6.1231486592"><ele>620.67</ele><time>2014-09-07T22:39:21Z</time></trkpt><trkpt lat="45.9672098514" lon="6.1231769063"><ele>619.71</ele><time>2014-09-07T22:39:22Z</time></trkpt><trkpt lat="45.9672170598" lon="6.1231997050"><ele>619.71</ele><time>2014-09-07T22:39:23Z</time></trkpt><trkpt lat="45.9672270343" lon="6.1232134514"><ele>619.23</ele><time>2014-09-07T22:39:24Z</time></trkpt><trkpt lat="45.9672429599" lon="6.1232712027"><ele>618.75</ele><time>2014-09-07T22:39:27Z</time></trkpt><trkpt lat="45.9672468156" lon="6.1232945882"><ele>618.75</ele><time>2014-09-07T22:39:28Z</time></trkpt><trkpt lat="45.9672488272" lon="6.1233121064"><ele>618.75</ele><time>2014-09-07T22:39:29Z</time></trkpt><trkpt lat="45.9672619868" lon="6.1233538482"><ele>617.78</ele><time>2014-09-07T22:39:31Z</time></trkpt><trkpt lat="45.9672872163" lon="6.1234732065"><ele>617.30</ele><time>2014-09-07T22:39:37Z</time></trkpt><trkpt lat="45.9672938380" lon="6.1234886292"><ele>617.30</ele><time>2014-09-07T22:39:38Z</time></trkpt><trkpt lat="45.9673011303" lon="6.1235100869"><ele>616.82</ele><time>2014-09-07T22:39:39Z</time></trkpt><trkpt lat="45.9673041478" lon="6.1235286947"><ele>616.82</ele><time>2014-09-07T22:39:40Z</time></trkpt><trkpt lat="45.9673100989" lon="6.1235524155"><ele>616.82</ele><time>2014-09-07T22:39:41Z</time></trkpt><trkpt lat="45.9673582949" lon="6.1237355601"><ele>616.82</ele><time>2014-09-07T22:39:50Z</time></trkpt><trkpt lat="45.9673686884" lon="6.1237596162"><ele>617.30</ele><time>2014-09-07T22:39:52Z</time></trkpt><trkpt lat="45.9673880506" lon="6.1238296889"><ele>616.34</ele><time>2014-09-07T22:40:05Z</time></trkpt><trkpt lat="45.9673732985" lon="6.1238533258"><ele>616.34</ele><time>2014-09-07T22:40:32Z</time></trkpt><trkpt lat="45.9673541039" lon="6.1238837522"><ele>618.75</ele><time>2014-09-07T22:41:18Z</time></trkpt><trkpt lat="45.9673849493" lon="6.1238651443"><ele>616.34</ele><time>2014-09-07T22:42:05Z</time></trkpt><trkpt lat="45.9674320556" lon="6.1238693353"><ele>616.34</ele><time>2014-09-07T22:42:12Z</time></trkpt><trkpt lat="45.9674407728" lon="6.1238783877"><ele>616.34</ele><time>2014-09-07T22:42:13Z</time></trkpt><trkpt lat="45.9676318802" lon="6.1239270866"><ele>618.26</ele><time>2014-09-07T22:42:27Z</time></trkpt><trkpt lat="45.9677902982" lon="6.1237702612"><ele>619.23</ele><time>2014-09-07T22:42:42Z</time></trkpt><trkpt lat="45.9678493906" lon="6.1236845143"><ele>620.19</ele><time>2014-09-07T22:42:48Z</time></trkpt><trkpt lat="45.9678562637" lon="6.1236644816"><ele>620.19</ele><time>2014-09-07T22:42:49Z</time></trkpt><trkpt lat="45.9678631369" lon="6.1236453708"><ele>620.19</ele><time>2014-09-07T22:42:50Z</time></trkpt><trkpt lat="45.9678705968" lon="6.1236245837"><ele>620.67</ele><time>2014-09-07T22:42:51Z</time></trkpt><trkpt lat="45.9678767994" lon="6.1236072332"><ele>620.67</ele><time>2014-09-07T22:42:52Z</time></trkpt><trkpt lat="45.9678853489" lon="6.1235903017"><ele>620.67</ele><time>2014-09-07T22:42:53Z</time></trkpt><trkpt lat="45.9678945690" lon="6.1235765554"><ele>620.67</ele><time>2014-09-07T22:42:54Z</time></trkpt><trkpt lat="45.9679384064" lon="6.1235006992"><ele>621.63</ele><time>2014-09-07T22:42:59Z</time></trkpt><trkpt lat="45.9679511469" lon="6.1234707758"><ele>622.11</ele><time>2014-09-07T22:43:01Z</time></trkpt><trkpt lat="45.9679612890" lon="6.1234586220"><ele>622.11</ele><time>2014-09-07T22:43:02Z</time></trkpt><trkpt lat="45.9679705929" lon="6.1234442890"><ele>622.59</ele><time>2014-09-07T22:43:03Z</time></trkpt><trkpt lat="45.9679753706" lon="6.1234276928"><ele>622.59</ele><time>2014-09-07T22:43:04Z</time></trkpt><trkpt lat="45.9679819085" lon="6.1234101746"><ele>622.59</ele><time>2014-09-07T22:43:05Z</time></trkpt><trkpt lat="45.9679885302" lon="6.1233951710"><ele>623.07</ele><time>2014-09-07T22:43:06Z</time></trkpt><trkpt lat="45.9679956548" lon="6.1233760603"><ele>623.07</ele><time>2014-09-07T22:43:07Z</time></trkpt><trkpt lat="45.9679978341" lon="6.1233571172"><ele>623.55</ele><time>2014-09-07T22:43:08Z</time></trkpt><trkpt lat="45.9680015221" lon="6.1233346537"><ele>623.55</ele><time>2014-09-07T22:43:09Z</time></trkpt><trkpt lat="45.9680070542" lon="6.1233174708"><ele>624.03</ele><time>2014-09-07T22:43:10Z</time></trkpt><trkpt lat="45.9682031907" lon="6.1231116112"><ele>625.96</ele><time>2014-09-07T22:43:26Z</time></trkpt><trkpt lat="45.9683686495" lon="6.1231309734"><ele>626.92</ele><time>2014-09-07T22:43:37Z</time></trkpt><trkpt lat="45.9683883470" lon="6.1231365055"><ele>626.92</ele><time>2014-09-07T22:43:38Z</time></trkpt><trkpt lat="45.9684016742" lon="6.1231397744"><ele>626.92</ele><time>2014-09-07T22:43:39Z</time></trkpt><trkpt lat="45.9684209526" lon="6.1231431272"><ele>626.92</ele><time>2014-09-07T22:43:40Z</time></trkpt><trkpt lat="45.9684341960" lon="6.1231444683"><ele>626.92</ele><time>2014-09-07T22:43:41Z</time></trkpt><trkpt lat="45.9686510358" lon="6.1232175585"><ele>629.32</ele><time>2014-09-07T22:43:56Z</time></trkpt><trkpt lat="45.9686659556" lon="6.1232200731"><ele>629.32</ele><time>2014-09-07T22:43:57Z</time></trkpt><trkpt lat="45.9686807916" lon="6.1232265271"><ele>629.80</ele><time>2014-09-07T22:43:58Z</time></trkpt><trkpt lat="45.9686960466" lon="6.1232319754"><ele>629.80</ele><time>2014-09-07T22:43:59Z</time></trkpt><trkpt lat="45.9687102959" lon="6.1232342385"><ele>629.80</ele><time>2014-09-07T22:44:00Z</time></trkpt><trkpt lat="45.9687250480" lon="6.1232355796"><ele>630.28</ele><time>2014-09-07T22:44:01Z</time></trkpt><trkpt lat="45.9687381238" lon="6.1232385132"><ele>630.28</ele><time>2014-09-07T22:44:02Z</time></trkpt><trkpt lat="45.9687502775" lon="6.1232432071"><ele>630.28</ele><time>2014-09-07T22:44:03Z</time></trkpt><trkpt lat="45.9690499306" lon="6.1232292932"><ele>632.20</ele><time>2014-09-07T22:44:22Z</time></trkpt><trkpt lat="45.9693065844" lon="6.1233028024"><ele>631.72</ele><time>2014-09-07T22:44:35Z</time></trkpt><trkpt lat="45.9695513360" lon="6.1234613042"><ele>632.68</ele><time>2014-09-07T22:44:48Z</time></trkpt><trkpt lat="45.9698697645" lon="6.1237483006"><ele>633.65</ele><time>2014-09-07T22:45:04Z</time></trkpt><trkpt lat="45.9700943995" lon="6.1239808146"><ele>633.17</ele><time>2014-09-07T22:45:14Z</time></trkpt><trkpt lat="45.9703814797" lon="6.1242544837"><ele>633.17</ele><time>2014-09-07T22:45:28Z</time></trkpt><trkpt lat="45.9706210345" lon="6.1244849861"><ele>633.17</ele><time>2014-09-07T22:45:42Z</time></trkpt><trkpt lat="45.9709278960" lon="6.1246867385"><ele>635.57</ele><time>2014-09-07T22:45:58Z</time></trkpt><trkpt lat="45.9712777566" lon="6.1247734074"><ele>635.57</ele><time>2014-09-07T22:46:12Z</time></trkpt><trkpt lat="45.9717278648" lon="6.1248072702"><ele>639.41</ele><time>2014-09-07T22:46:27Z</time></trkpt><trkpt lat="45.9722479619" lon="6.1248636805"><ele>640.86</ele><time>2014-09-07T22:46:44Z</time></trkpt><trkpt lat="45.9726760257" lon="6.1250486691"><ele>641.34</ele><time>2014-09-07T22:46:59Z</time></trkpt><trkpt lat="45.9731298219" lon="6.1252609827"><ele>641.34</ele><time>2014-09-07T22:47:15Z</time></trkpt><trkpt lat="45.9734283015" lon="6.1254369188"><ele>639.89</ele><time>2014-09-07T22:47:28Z</time></trkpt><trkpt lat="45.9737722110" lon="6.1255903915"><ele>638.45</ele><time>2014-09-07T22:47:41Z</time></trkpt><trkpt lat="45.9738143720" lon="6.1255846079"><ele>638.45</ele><time>2014-09-07T22:47:48Z</time></trkpt><trkpt lat="45.9738313872" lon="6.1255887989"><ele>638.45</ele><time>2014-09-07T22:47:49Z</time></trkpt><trkpt lat="45.9738510009" lon="6.1255925708"><ele>638.45</ele><time>2014-09-07T22:47:50Z</time></trkpt><trkpt lat="45.9738748055" lon="6.1256000306"><ele>637.97</ele><time>2014-09-07T22:47:51Z</time></trkpt><trkpt lat="45.9739005379" lon="6.1256106757"><ele>637.97</ele><time>2014-09-07T22:47:52Z</time></trkpt><trkpt lat="45.9739307966" lon="6.1256334744"><ele>637.49</ele><time>2014-09-07T22:47:53Z</time></trkpt><trkpt lat="45.9739572834" lon="6.1256565247"><ele>637.01</ele><time>2014-09-07T22:47:54Z</time></trkpt><trkpt lat="45.9739855304" lon="6.1256817542"><ele>637.01</ele><time>2014-09-07T22:47:55Z</time></trkpt><trkpt lat="45.9741558507" lon="6.1258126795"><ele>636.05</ele><time>2014-09-07T22:48:00Z</time></trkpt><trkpt lat="45.9741910547" lon="6.1258405074"><ele>635.57</ele><time>2014-09-07T22:48:01Z</time></trkpt><trkpt lat="45.9745773766" lon="6.1260187905"><ele>636.53</ele><time>2014-09-07T22:48:13Z</time></trkpt><trkpt lat="45.9750568215" lon="6.1260316987"><ele>637.01</ele><time>2014-09-07T22:48:28Z</time></trkpt><trkpt lat="45.9755816963" lon="6.1260214727"><ele>635.57</ele><time>2014-09-07T22:48:42Z</time></trkpt><trkpt lat="45.9760828502" lon="6.1261146795"><ele>636.05</ele><time>2014-09-07T22:48:56Z</time></trkpt><trkpt lat="45.9766982496" lon="6.1262443475"><ele>637.01</ele><time>2014-09-07T22:49:13Z</time></trkpt><trkpt lat="45.9771381319" lon="6.1263473611"><ele>636.53</ele><time>2014-09-07T22:49:28Z</time></trkpt><trkpt lat="45.9771620203" lon="6.1263573356"><ele>637.97</ele><time>2014-09-07T22:49:51Z</time></trkpt><trkpt lat="45.9771766886" lon="6.1263578385"><ele>637.49</ele><time>2014-09-07T22:49:52Z</time></trkpt><trkpt lat="45.9771951288" lon="6.1263557430"><ele>637.49</ele><time>2014-09-07T22:49:53Z</time></trkpt><trkpt lat="45.9775954485" lon="6.1263360456"><ele>636.05</ele><time>2014-09-07T22:50:05Z</time></trkpt><trkpt lat="45.9782716166" lon="6.1262517236"><ele>633.65</ele><time>2014-09-07T22:50:20Z</time></trkpt><trkpt lat="45.9787201323" lon="6.1261679884"><ele>633.65</ele><time>2014-09-07T22:50:34Z</time></trkpt><trkpt lat="45.9790119063" lon="6.1261231452"><ele>632.68</ele><time>2014-09-07T22:50:44Z</time></trkpt><trkpt lat="45.9795943648" lon="6.1262097303"><ele>631.24</ele><time>2014-09-07T22:50:58Z</time></trkpt><trkpt lat="45.9801039845" lon="6.1260441877"><ele>630.28</ele><time>2014-09-07T22:51:12Z</time></trkpt><trkpt lat="45.9806075692" lon="6.1259369832"><ele>630.76</ele><time>2014-09-07T22:51:27Z</time></trkpt><trkpt lat="45.9811850823" lon="6.1259168666"><ele>630.28</ele><time>2014-09-07T22:51:44Z</time></trkpt><trkpt lat="45.9818656929" lon="6.1259674933"><ele>629.32</ele><time>2014-09-07T22:52:02Z</time></trkpt><trkpt lat="45.9823251050" lon="6.1260519829"><ele>630.76</ele><time>2014-09-07T22:52:16Z</time></trkpt><trkpt lat="45.9824826848" lon="6.1261429265"><ele>629.80</ele><time>2014-09-07T22:52:21Z</time></trkpt><trkpt lat="45.9830511454" lon="6.1265741754"><ele>627.88</ele><time>2014-09-07T22:52:33Z</time></trkpt><trkpt lat="45.9835605137" lon="6.1269992217"><ele>627.40</ele><time>2014-09-07T22:52:46Z</time></trkpt><trkpt lat="45.9836062789" lon="6.1270519439"><ele>628.36</ele><time>2014-09-07T22:52:49Z</time></trkpt><trkpt lat="45.9836141579" lon="6.1270673666"><ele>628.36</ele><time>2014-09-07T22:52:50Z</time></trkpt><trkpt lat="45.9836274013" lon="6.1270749103"><ele>628.36</ele><time>2014-09-07T22:52:51Z</time></trkpt><trkpt lat="45.9837471787" lon="6.1270801071"><ele>629.32</ele><time>2014-09-07T22:52:58Z</time></trkpt><trkpt lat="45.9837751742" lon="6.1270509381"><ele>629.32</ele><time>2014-09-07T22:52:59Z</time></trkpt><trkpt lat="45.9840497654" lon="6.1267811246"><ele>631.24</ele><time>2014-09-07T22:53:13Z</time></trkpt><trkpt lat="45.9843744803" lon="6.1266209465"><ele>632.20</ele><time>2014-09-07T22:53:28Z</time></trkpt><trkpt lat="45.9848053101" lon="6.1265526339"><ele>632.20</ele><time>2014-09-07T22:53:43Z</time></trkpt><trkpt lat="45.9852905385" lon="6.1264839023"><ele>631.24</ele><time>2014-09-07T22:53:59Z</time></trkpt><trkpt lat="45.9857499506" lon="6.1264414899"><ele>631.24</ele><time>2014-09-07T22:54:14Z</time></trkpt><trkpt lat="45.9861521982" lon="6.1263761111"><ele>636.05</ele><time>2014-09-07T22:54:27Z</time></trkpt><trkpt lat="45.9866892267" lon="6.1262185313"><ele>642.30</ele><time>2014-09-07T22:54:45Z</time></trkpt><trkpt lat="45.9872089885" lon="6.1261087283"><ele>641.82</ele><time>2014-09-07T22:55:02Z</time></trkpt><trkpt lat="45.9876018483" lon="6.1259629671"><ele>640.38</ele><time>2014-09-07T22:55:17Z</time></trkpt><trkpt lat="45.9878486954" lon="6.1258791480"><ele>639.89</ele><time>2014-09-07T22:55:29Z</time></trkpt><trkpt lat="45.9880034253" lon="6.1254465580"><ele>638.93</ele><time>2014-09-07T22:55:43Z</time></trkpt><trkpt lat="45.9883789346" lon="6.1251087673"><ele>638.93</ele><time>2014-09-07T22:55:58Z</time></trkpt><trkpt lat="45.9887173120" lon="6.1248915922"><ele>639.89</ele><time>2014-09-07T22:56:11Z</time></trkpt><trkpt lat="45.9890686814" lon="6.1246511154"><ele>641.34</ele><time>2014-09-07T22:56:26Z</time></trkpt><trkpt lat="45.9894929733" lon="6.1243763566"><ele>642.30</ele><time>2014-09-07T22:56:43Z</time></trkpt><trkpt lat="45.9900398087" lon="6.1241000891"><ele>641.82</ele><time>2014-09-07T22:56:59Z</time></trkpt><trkpt lat="45.9905292280" lon="6.1238680780"><ele>642.78</ele><time>2014-09-07T22:57:14Z</time></trkpt><trkpt lat="45.9911690187" lon="6.1235263478"><ele>642.30</ele><time>2014-09-07T22:57:34Z</time></trkpt><trkpt lat="45.9916700888" lon="6.1232551932"><ele>642.78</ele><time>2014-09-07T22:57:50Z</time></trkpt><trkpt lat="45.9921414033" lon="6.1228353437"><ele>642.30</ele><time>2014-09-07T22:58:06Z</time></trkpt><trkpt lat="45.9926148970" lon="6.1222010851"><ele>641.82</ele><time>2014-09-07T22:58:24Z</time></trkpt><trkpt lat="45.9931169730" lon="6.1217894498"><ele>641.34</ele><time>2014-09-07T22:58:40Z</time></trkpt><trkpt lat="45.9934250917" lon="6.1217351351"><ele>640.38</ele><time>2014-09-07T22:58:51Z</time></trkpt><trkpt lat="45.9934495669" lon="6.1217310280"><ele>640.38</ele><time>2014-09-07T22:58:52Z</time></trkpt><trkpt lat="45.9934718627" lon="6.1217135098"><ele>640.38</ele><time>2014-09-07T22:58:53Z</time></trkpt><trkpt lat="45.9934901353" lon="6.1216804013"><ele>639.89</ele><time>2014-09-07T22:58:54Z</time></trkpt><trkpt lat="45.9935039654" lon="6.1216505617"><ele>639.89</ele><time>2014-09-07T22:58:55Z</time></trkpt><trkpt lat="45.9935217351" lon="6.1216240749"><ele>639.89</ele><time>2014-09-07T22:58:56Z</time></trkpt><trkpt lat="45.9935431089" lon="6.1216021981"><ele>639.89</ele><time>2014-09-07T22:58:57Z</time></trkpt><trkpt lat="45.9935652371" lon="6.1215865240"><ele>639.89</ele><time>2014-09-07T22:58:58Z</time></trkpt><trkpt lat="45.9935882036" lon="6.1215721909"><ele>639.41</ele><time>2014-09-07T22:58:59Z</time></trkpt><trkpt lat="45.9936232399" lon="6.1215558462"><ele>639.41</ele><time>2014-09-07T22:59:00Z</time></trkpt><trkpt lat="45.9936616290" lon="6.1215380765"><ele>639.41</ele><time>2014-09-07T22:59:01Z</time></trkpt><trkpt lat="45.9936814941" lon="6.1215317901"><ele>639.41</ele><time>2014-09-07T22:59:02Z</time></trkpt><trkpt lat="45.9937090706" lon="6.1215274315"><ele>639.41</ele><time>2014-09-07T22:59:03Z</time></trkpt><trkpt lat="45.9937432688" lon="6.1215243302"><ele>639.89</ele><time>2014-09-07T22:59:04Z</time></trkpt><trkpt lat="45.9941766132" lon="6.1215083208"><ele>639.41</ele><time>2014-09-07T22:59:16Z</time></trkpt><trkpt lat="45.9946703073" lon="6.1214365717"><ele>638.93</ele><time>2014-09-07T22:59:28Z</time></trkpt><trkpt lat="45.9947625920" lon="6.1214140244"><ele>639.41</ele><time>2014-09-07T22:59:30Z</time></trkpt><trkpt lat="45.9947939403" lon="6.1214054748"><ele>639.41</ele><time>2014-09-07T22:59:31Z</time></trkpt><trkpt lat="45.9953099303" lon="6.1211400200"><ele>640.86</ele><time>2014-09-07T22:59:46Z</time></trkpt><trkpt lat="45.9954472259" lon="6.1210411973"><ele>640.86</ele><time>2014-09-07T22:59:50Z</time></trkpt><trkpt lat="45.9955264349" lon="6.1210144591"><ele>640.86</ele><time>2014-09-07T22:59:52Z</time></trkpt><trkpt lat="45.9955696855" lon="6.1210013833"><ele>640.86</ele><time>2014-09-07T22:59:53Z</time></trkpt><trkpt lat="45.9956100024" lon="6.1209880561"><ele>640.86</ele><time>2014-09-07T22:59:54Z</time></trkpt><trkpt lat="45.9957794845" lon="6.1209587194"><ele>641.34</ele><time>2014-09-07T22:59:58Z</time></trkpt><trkpt lat="45.9965134040" lon="6.1208675243"><ele>643.74</ele><time>2014-09-07T23:00:17Z</time></trkpt><trkpt lat="45.9970200062" lon="6.1207194999"><ele>645.66</ele><time>2014-09-07T23:00:33Z</time></trkpt><trkpt lat="45.9974923264" lon="6.1205314938"><ele>646.62</ele><time>2014-09-07T23:00:49Z</time></trkpt><trkpt lat="45.9978979267" lon="6.1203636043"><ele>647.59</ele><time>2014-09-07T23:01:04Z</time></trkpt><trkpt lat="45.9982860927" lon="6.1202114727"><ele>646.62</ele><time>2014-09-07T23:01:19Z</time></trkpt><trkpt lat="45.9984632861" lon="6.1201621033"><ele>646.62</ele><time>2014-09-07T23:01:27Z</time></trkpt><trkpt lat="45.9985233843" lon="6.1201890931"><ele>646.62</ele><time>2014-09-07T23:01:31Z</time></trkpt><trkpt lat="45.9985378850" lon="6.1202037614"><ele>646.62</ele><time>2014-09-07T23:01:32Z</time></trkpt><trkpt lat="45.9985534754" lon="6.1202121433"><ele>646.14</ele><time>2014-09-07T23:01:33Z</time></trkpt><trkpt lat="45.9985691495" lon="6.1202210281"><ele>646.14</ele><time>2014-09-07T23:01:34Z</time></trkpt><trkpt lat="45.9985846560" lon="6.1202282365"><ele>646.14</ele><time>2014-09-07T23:01:35Z</time></trkpt><trkpt lat="45.9985984024" lon="6.1202387139"><ele>646.14</ele><time>2014-09-07T23:01:36Z</time></trkpt><trkpt lat="45.9987725783" lon="6.1204002332"><ele>645.66</ele><time>2014-09-07T23:01:50Z</time></trkpt><trkpt lat="45.9987750929" lon="6.1204277258"><ele>647.59</ele><time>2014-09-07T23:02:02Z</time></trkpt><trkpt lat="45.9987876657" lon="6.1204462498"><ele>647.10</ele><time>2014-09-07T23:02:37Z</time></trkpt><trkpt lat="45.9987901803" lon="6.1204177514"><ele>645.66</ele><time>2014-09-07T23:03:24Z</time></trkpt><trkpt lat="45.9986293316" lon="6.1210486572"><ele>645.18</ele><time>2014-09-07T23:04:07Z</time></trkpt><trkpt lat="45.9986016713" lon="6.1210905667"><ele>645.18</ele><time>2014-09-07T23:04:18Z</time></trkpt><trkpt lat="45.9985714126" lon="6.1210878007"><ele>647.10</ele><time>2014-09-07T23:04:38Z</time></trkpt><trkpt lat="45.9985640366" lon="6.1211074982"><ele>648.07</ele><time>2014-09-07T23:05:06Z</time></trkpt><trkpt lat="45.9985788725" lon="6.1210943386"><ele>650.47</ele><time>2014-09-07T23:05:31Z</time></trkpt><trkpt lat="45.9985726699" lon="6.1210934166"><ele>650.95</ele><time>2014-09-07T23:05:51Z</time></trkpt><trkpt lat="45.9985855781" lon="6.1210822687"><ele>651.91</ele><time>2014-09-07T23:06:21Z</time></trkpt><trkpt lat="45.9986004978" lon="6.1210970208"><ele>653.35</ele><time>2014-09-07T23:06:50Z</time></trkpt><trkpt lat="45.9986179322" lon="6.1211101804"><ele>650.95</ele><time>2014-09-07T23:07:23Z</time></trkpt><trkpt lat="45.9986204468" lon="6.1211123597"><ele>648.55</ele><time>2014-09-07T23:08:00Z</time></trkpt><trkpt lat="45.9986092988" lon="6.1211048998"><ele>648.07</ele><time>2014-09-07T23:08:41Z</time></trkpt><trkpt lat="45.9986062814" lon="6.1210776586"><ele>650.47</ele><time>2014-09-07T23:09:19Z</time></trkpt><trkpt lat="45.9985604323" lon="6.1210753117"><ele>651.43</ele><time>2014-09-07T23:09:59Z</time></trkpt><trkpt lat="45.9986004978" lon="6.1210913211"><ele>648.55</ele><time>2014-09-07T23:10:44Z</time></trkpt><trkpt lat="45.9985893499" lon="6.1211020499"><ele>649.99</ele><time>2014-09-07T23:11:21Z</time></trkpt><trkpt lat="45.9986007493" lon="6.1210789997"><ele>648.07</ele><time>2014-09-07T23:11:57Z</time></trkpt><trkpt lat="45.9986212850" lon="6.1210650858"><ele>648.07</ele><time>2014-09-07T23:12:12Z</time></trkpt><trkpt lat="45.9986333549" lon="6.1210170574"><ele>648.07</ele><time>2014-09-07T23:12:15Z</time></trkpt><trkpt lat="45.9986506216" lon="6.1209976114"><ele>648.07</ele><time>2014-09-07T23:12:17Z</time></trkpt><trkpt lat="45.9986763541" lon="6.1209879722"><ele>648.55</ele><time>2014-09-07T23:12:18Z</time></trkpt><trkpt lat="45.9986860771" lon="6.1209696997"><ele>648.55</ele><time>2014-09-07T23:12:19Z</time></trkpt><trkpt lat="45.9986880049" lon="6.1209426261"><ele>648.55</ele><time>2014-09-07T23:12:20Z</time></trkpt><trkpt lat="45.9987349436" lon="6.1208127905"><ele>647.59</ele><time>2014-09-07T23:12:26Z</time></trkpt><trkpt lat="45.9987414815" lon="6.1207922548"><ele>647.59</ele><time>2014-09-07T23:12:27Z</time></trkpt><trkpt lat="45.9987569880" lon="6.1207383592"><ele>648.07</ele><time>2014-09-07T23:12:30Z</time></trkpt><trkpt lat="45.9987507015" lon="6.1207286362"><ele>648.07</ele><time>2014-09-07T23:12:31Z</time></trkpt><trkpt lat="45.9987401403" lon="6.1207281332"><ele>647.59</ele><time>2014-09-07T23:12:32Z</time></trkpt><trkpt lat="45.9987277351" lon="6.1207365151"><ele>647.10</ele><time>2014-09-07T23:12:33Z</time></trkpt><trkpt lat="45.9987205267" lon="6.1207506806"><ele>646.62</ele><time>2014-09-07T23:12:34Z</time></trkpt><trkpt lat="45.9987123124" lon="6.1207691208"><ele>646.62</ele><time>2014-09-07T23:12:35Z</time></trkpt><trkpt lat="45.9987039305" lon="6.1207925063"><ele>646.62</ele><time>2014-09-07T23:12:36Z</time></trkpt><trkpt lat="45.9986989852" lon="6.1208214238"><ele>646.14</ele><time>2014-09-07T23:12:37Z</time></trkpt><trkpt lat="45.9986951295" lon="6.1208544485"><ele>646.14</ele><time>2014-09-07T23:12:38Z</time></trkpt><trkpt lat="45.9986895137" lon="6.1208885629"><ele>646.14</ele><time>2014-09-07T23:12:39Z</time></trkpt><trkpt lat="45.9985130746" lon="6.1215543374"><ele>644.70</ele><time>2014-09-07T23:12:52Z</time></trkpt><trkpt lat="45.9984875098" lon="6.1220276635"><ele>643.26</ele><time>2014-09-07T23:12:59Z</time></trkpt><trkpt lat="45.9984964784" lon="6.1220987421"><ele>642.78</ele><time>2014-09-07T23:13:00Z</time></trkpt><trkpt lat="45.9985812195" lon="6.1227481719"><ele>639.89</ele><time>2014-09-07T23:13:09Z</time></trkpt><trkpt lat="45.9986671340" lon="6.1230638344"><ele>637.97</ele><time>2014-09-07T23:13:16Z</time></trkpt><trkpt lat="45.9987037629" lon="6.1230790056"><ele>637.97</ele><time>2014-09-07T23:13:17Z</time></trkpt><trkpt lat="45.9987452533" lon="6.1230799276"><ele>637.97</ele><time>2014-09-07T23:13:18Z</time></trkpt><trkpt lat="45.9991054237" lon="6.1229024827"><ele>638.45</ele><time>2014-09-07T23:13:30Z</time></trkpt><trkpt lat="45.9994887281" lon="6.1226756684"><ele>638.45</ele><time>2014-09-07T23:13:45Z</time></trkpt><trkpt lat="45.9998954181" lon="6.1224334314"><ele>638.45</ele><time>2014-09-07T23:14:00Z</time></trkpt><trkpt lat="46.0003570933" lon="6.1221539788"><ele>637.97</ele><time>2014-09-07T23:14:15Z</time></trkpt><trkpt lat="46.0008418187" lon="6.1218710057"><ele>637.97</ele><time>2014-09-07T23:14:30Z</time></trkpt><trkpt lat="46.0013124626" lon="6.1215612106"><ele>638.93</ele><time>2014-09-07T23:14:45Z</time></trkpt><trkpt lat="46.0017267801" lon="6.1213411856"><ele>639.89</ele><time>2014-09-07T23:14:59Z</time></trkpt><trkpt lat="46.0021012835" lon="6.1210857891"><ele>639.89</ele><time>2014-09-07T23:15:13Z</time></trkpt><trkpt lat="46.0024217237" lon="6.1208752356"><ele>640.38</ele><time>2014-09-07T23:15:25Z</time></trkpt><trkpt lat="46.0027113184" lon="6.1207070109"><ele>641.34</ele><time>2014-09-07T23:15:37Z</time></trkpt><trkpt lat="46.0031256359" lon="6.1204600800"><ele>641.34</ele><time>2014-09-07T23:15:54Z</time></trkpt><trkpt lat="46.0035683680" lon="6.1201986484"><ele>642.30</ele><time>2014-09-07T23:16:12Z</time></trkpt><trkpt lat="46.0035933461" lon="6.1201954633"><ele>642.78</ele><time>2014-09-07T23:16:13Z</time></trkpt><trkpt lat="46.0036206711" lon="6.1201833934"><ele>642.78</ele><time>2014-09-07T23:16:14Z</time></trkpt><trkpt lat="46.0036447272" lon="6.1201651208"><ele>642.78</ele><time>2014-09-07T23:16:15Z</time></trkpt><trkpt lat="46.0036659334" lon="6.1201541405"><ele>642.78</ele><time>2014-09-07T23:16:16Z</time></trkpt><trkpt lat="46.0036933422" lon="6.1201411486"><ele>642.78</ele><time>2014-09-07T23:16:17Z</time></trkpt><trkpt lat="46.0037193261" lon="6.1201237980"><ele>642.30</ele><time>2014-09-07T23:16:18Z</time></trkpt><trkpt lat="46.0041033011" lon="6.1198818125"><ele>643.74</ele><time>2014-09-07T23:16:34Z</time></trkpt><trkpt lat="46.0045169480" lon="6.1196692474"><ele>644.70</ele><time>2014-09-07T23:16:51Z</time></trkpt><trkpt lat="46.0048740171" lon="6.1194537487"><ele>645.66</ele><time>2014-09-07T23:17:06Z</time></trkpt><trkpt lat="46.0052801203" lon="6.1192136072"><ele>645.66</ele><time>2014-09-07T23:17:22Z</time></trkpt><trkpt lat="46.0056101996" lon="6.1189655028"><ele>646.62</ele><time>2014-09-07T23:17:36Z</time></trkpt><trkpt lat="46.0060215835" lon="6.1187044904"><ele>648.55</ele><time>2014-09-07T23:17:53Z</time></trkpt><trkpt lat="46.0063925665" lon="6.1184763350"><ele>650.95</ele><time>2014-09-07T23:18:08Z</time></trkpt><trkpt lat="46.0067864321" lon="6.1182418093"><ele>651.91</ele><time>2014-09-07T23:18:24Z</time></trkpt><trkpt lat="46.0071999114" lon="6.1179886758"><ele>652.87</ele><time>2014-09-07T23:18:41Z</time></trkpt><trkpt lat="46.0075045098" lon="6.1177772004"><ele>653.35</ele><time>2014-09-07T23:18:55Z</time></trkpt><trkpt lat="46.0078200884" lon="6.1173722707"><ele>653.35</ele><time>2014-09-07T23:19:11Z</time></trkpt><trkpt lat="46.0081007145" lon="6.1168785766"><ele>653.83</ele><time>2014-09-07T23:19:29Z</time></trkpt><trkpt lat="46.0083354078" lon="6.1164652649"><ele>655.28</ele><time>2014-09-07T23:19:44Z</time></trkpt><trkpt lat="46.0085285269" lon="6.1161095370"><ele>655.28</ele><time>2014-09-07T23:19:57Z</time></trkpt><trkpt lat="46.0087864380" lon="6.1156482808"><ele>656.24</ele><time>2014-09-07T23:20:14Z</time></trkpt><trkpt lat="46.0090751108" lon="6.1151360627"><ele>657.68</ele><time>2014-09-07T23:20:32Z</time></trkpt><trkpt lat="46.0092749353" lon="6.1147312168"><ele>658.64</ele><time>2014-09-07T23:20:46Z</time></trkpt><trkpt lat="46.0094273183" lon="6.1142381094"><ele>662.01</ele><time>2014-09-07T23:21:01Z</time></trkpt><trkpt lat="46.0095803719" lon="6.1136544775"><ele>663.93</ele><time>2014-09-07T23:21:18Z</time></trkpt><trkpt lat="46.0097776819" lon="6.1130874418"><ele>663.93</ele><time>2014-09-07T23:21:34Z</time></trkpt><trkpt lat="46.0100823641" lon="6.1125857010"><ele>665.37</ele><time>2014-09-07T23:21:51Z</time></trkpt><trkpt lat="46.0103137884" lon="6.1121558771"><ele>664.89</ele><time>2014-09-07T23:22:05Z</time></trkpt><trkpt lat="46.0105612222" lon="6.1116464250"><ele>664.41</ele><time>2014-09-07T23:22:19Z</time></trkpt><trkpt lat="46.0107853543" lon="6.1111528147"><ele>665.37</ele><time>2014-09-07T23:22:31Z</time></trkpt><trkpt lat="46.0109074786" lon="6.1110677384"><ele>664.41</ele><time>2014-09-07T23:22:41Z</time></trkpt><trkpt lat="46.0109276790" lon="6.1110733543"><ele>664.41</ele><time>2014-09-07T23:22:42Z</time></trkpt><trkpt lat="46.0109538306" lon="6.1110805627"><ele>664.41</ele><time>2014-09-07T23:22:43Z</time></trkpt><trkpt lat="46.0109815747" lon="6.1110885255"><ele>664.89</ele><time>2014-09-07T23:22:44Z</time></trkpt><trkpt lat="46.0110003501" lon="6.1110938899"><ele>664.89</ele><time>2014-09-07T23:22:45Z</time></trkpt><trkpt lat="46.0113088042" lon="6.1111877672"><ele>664.89</ele><time>2014-09-07T23:22:58Z</time></trkpt><trkpt lat="46.0113259871" lon="6.1111795530"><ele>664.41</ele><time>2014-09-07T23:23:04Z</time></trkpt><trkpt lat="46.0113378055" lon="6.1111745238"><ele>664.89</ele><time>2014-09-07T23:23:05Z</time></trkpt><trkpt lat="46.0113523901" lon="6.1111710034"><ele>664.89</ele><time>2014-09-07T23:23:06Z</time></trkpt><trkpt lat="46.0113704950" lon="6.1111755297"><ele>665.37</ele><time>2014-09-07T23:23:07Z</time></trkpt><trkpt lat="46.0113907792" lon="6.1111829057"><ele>665.37</ele><time>2014-09-07T23:23:08Z</time></trkpt><trkpt lat="46.0117837228" lon="6.1113195308"><ele>665.85</ele><time>2014-09-07T23:23:23Z</time></trkpt><trkpt lat="46.0123122018" lon="6.1114715785"><ele>665.37</ele><time>2014-09-07T23:23:40Z</time></trkpt><trkpt lat="46.0127530061" lon="6.1115821358"><ele>664.41</ele><time>2014-09-07T23:23:55Z</time></trkpt><trkpt lat="46.0130478814" lon="6.1116926931"><ele>664.89</ele><time>2014-09-07T23:24:09Z</time></trkpt><trkpt lat="46.0130527429" lon="6.1117178388"><ele>664.89</ele><time>2014-09-07T23:24:10Z</time></trkpt><trkpt lat="46.0130556766" lon="6.1117332615"><ele>664.89</ele><time>2014-09-07T23:24:11Z</time></trkpt><trkpt lat="46.0130580235" lon="6.1117563955"><ele>664.89</ele><time>2014-09-07T23:24:12Z</time></trkpt><trkpt lat="46.0130526591" lon="6.1117770988"><ele>664.89</ele><time>2014-09-07T23:24:13Z</time></trkpt><trkpt lat="46.0130457021" lon="6.1118078604"><ele>664.89</ele><time>2014-09-07T23:24:15Z</time></trkpt><trkpt lat="46.0131215584" lon="6.1120466609"><ele>665.85</ele><time>2014-09-07T23:24:27Z</time></trkpt><trkpt lat="46.0135383066" lon="6.1119106226"><ele>667.29</ele><time>2014-09-07T23:24:43Z</time></trkpt><trkpt lat="46.0138355289" lon="6.1117267236"><ele>668.73</ele><time>2014-09-07T23:24:57Z</time></trkpt><trkpt lat="46.0140839685" lon="6.1114953831"><ele>670.18</ele><time>2014-09-07T23:25:12Z</time></trkpt><trkpt lat="46.0142744891" lon="6.1112318560"><ele>671.14</ele><time>2014-09-07T23:25:26Z</time></trkpt><trkpt lat="46.0144096054" lon="6.1109979171"><ele>672.58</ele><time>2014-09-07T23:25:38Z</time></trkpt><trkpt lat="46.0144606512" lon="6.1108988430"><ele>672.58</ele><time>2014-09-07T23:25:43Z</time></trkpt><trkpt lat="46.0145441350" lon="6.1107167043"><ele>673.06</ele><time>2014-09-07T23:25:52Z</time></trkpt><trkpt lat="46.0145676881" lon="6.1106258444"><ele>673.54</ele><time>2014-09-07T23:25:56Z</time></trkpt><trkpt lat="46.0147020500" lon="6.1101779155"><ele>675.94</ele><time>2014-09-07T23:26:14Z</time></trkpt><trkpt lat="46.0147861205" lon="6.1098200083"><ele>677.39</ele><time>2014-09-07T23:26:28Z</time></trkpt><trkpt lat="46.0148899723" lon="6.1093400605"><ele>678.83</ele><time>2014-09-07T23:26:47Z</time></trkpt><trkpt lat="46.0149064846" lon="6.1092951335"><ele>679.31</ele><time>2014-09-07T23:26:49Z</time></trkpt><trkpt lat="46.0150190536" lon="6.1087976675"><ele>679.79</ele><time>2014-09-07T23:27:09Z</time></trkpt><trkpt lat="46.0151150264" lon="6.1083665863"><ele>681.71</ele><time>2014-09-07T23:27:26Z</time></trkpt><trkpt lat="46.0152266733" lon="6.1078579724"><ele>684.12</ele><time>2014-09-07T23:27:46Z</time></trkpt><trkpt lat="46.0153068881" lon="6.1074880790"><ele>685.56</ele><time>2014-09-07T23:28:01Z</time></trkpt><trkpt lat="46.0154032800" lon="6.1070610210"><ele>687.48</ele><time>2014-09-07T23:28:18Z</time></trkpt><trkpt lat="46.0154148471" lon="6.1069838237"><ele>687.96</ele><time>2014-09-07T23:28:21Z</time></trkpt><trkpt lat="46.0155213811" lon="6.1065332964"><ele>689.88</ele><time>2014-09-07T23:28:39Z</time></trkpt><trkpt lat="46.0156598501" lon="6.1060432065"><ele>691.81</ele><time>2014-09-07T23:28:58Z</time></trkpt><trkpt lat="46.0156711657" lon="6.1059930827"><ele>691.81</ele><time>2014-09-07T23:29:00Z</time></trkpt><trkpt lat="46.0157093033" lon="6.1058403645"><ele>692.29</ele><time>2014-09-07T23:29:06Z</time></trkpt><trkpt lat="46.0158127360" lon="6.1054533720"><ele>694.21</ele><time>2014-09-07T23:29:21Z</time></trkpt><trkpt lat="46.0159189347" lon="6.1050653737"><ele>696.13</ele><time>2014-09-07T23:29:36Z</time></trkpt><trkpt lat="46.0160200205" lon="6.1046533193"><ele>698.53</ele><time>2014-09-07T23:29:52Z</time></trkpt><trkpt lat="46.0161423124" lon="6.1042529996"><ele>700.46</ele><time>2014-09-07T23:30:08Z</time></trkpt><trkpt lat="46.0161611717" lon="6.1042098328"><ele>700.94</ele><time>2014-09-07T23:30:10Z</time></trkpt><trkpt lat="46.0161794443" lon="6.1041869503"><ele>700.94</ele><time>2014-09-07T23:30:11Z</time></trkpt><trkpt lat="46.0161922686" lon="6.1041732877"><ele>700.94</ele><time>2014-09-07T23:30:12Z</time></trkpt><trkpt lat="46.0163660254" lon="6.1039341521"><ele>700.94</ele><time>2014-09-07T23:30:24Z</time></trkpt><trkpt lat="46.0163855553" lon="6.1039076652"><ele>700.94</ele><time>2014-09-07T23:30:25Z</time></trkpt><trkpt lat="46.0164022353" lon="6.1038859561"><ele>700.46</ele><time>2014-09-07T23:30:26Z</time></trkpt><trkpt lat="46.0166926682" lon="6.1037388537"><ele>701.42</ele><time>2014-09-07T23:30:39Z</time></trkpt><trkpt lat="46.0169539321" lon="6.1036483292"><ele>702.86</ele><time>2014-09-07T23:30:53Z</time></trkpt><trkpt lat="46.0172640625" lon="6.1035453156"><ele>705.26</ele><time>2014-09-07T23:31:10Z</time></trkpt><trkpt lat="46.0175353847" lon="6.1034526117"><ele>707.67</ele><time>2014-09-07T23:31:25Z</time></trkpt><trkpt lat="46.0178336967" lon="6.1033446528"><ele>709.59</ele><time>2014-09-07T23:31:43Z</time></trkpt><trkpt lat="46.0178476945" lon="6.1033428088"><ele>709.59</ele><time>2014-09-07T23:31:44Z</time></trkpt><trkpt lat="46.0178591777" lon="6.1033411324"><ele>709.59</ele><time>2014-09-07T23:31:45Z</time></trkpt><trkpt lat="46.0179264843" lon="6.1033630092"><ele>709.11</ele><time>2014-09-07T23:31:56Z</time></trkpt><trkpt lat="46.0179180186" lon="6.1033737380"><ele>709.59</ele><time>2014-09-07T23:32:13Z</time></trkpt><trkpt lat="46.0179087985" lon="6.1033610813"><ele>708.63</ele><time>2014-09-07T23:32:29Z</time></trkpt><trkpt lat="46.0178922024" lon="6.1034112051"><ele>710.07</ele><time>2014-09-07T23:32:53Z</time></trkpt><trkpt lat="46.0178675596" lon="6.1034096126"><ele>711.99</ele><time>2014-09-07T23:33:25Z</time></trkpt><trkpt lat="46.0178846586" lon="6.1034158990"><ele>712.47</ele><time>2014-09-07T23:34:04Z</time></trkpt><trkpt lat="46.0178803839" lon="6.1034247000"><ele>712.47</ele><time>2014-09-07T23:34:33Z</time></trkpt><trkpt lat="46.0178833175" lon="6.1034053378"><ele>715.84</ele><time>2014-09-07T23:35:11Z</time></trkpt><trkpt lat="46.0178903583" lon="6.1033967882"><ele>713.92</ele><time>2014-09-07T23:35:55Z</time></trkpt><trkpt lat="46.0179435834" lon="6.1033122987"><ele>712.47</ele><time>2014-09-07T23:36:08Z</time></trkpt><trkpt lat="46.0182019975" lon="6.1031967960"><ele>712.95</ele><time>2014-09-07T23:36:21Z</time></trkpt><trkpt lat="46.0184351820" lon="6.1031524558"><ele>713.92</ele><time>2014-09-07T23:36:33Z</time></trkpt><trkpt lat="46.0184884071" lon="6.1031338479"><ele>713.92</ele><time>2014-09-07T23:36:37Z</time></trkpt><trkpt lat="46.0186664388" lon="6.1031203531"><ele>714.40</ele><time>2014-09-07T23:36:47Z</time></trkpt><trkpt lat="46.0189264454" lon="6.1030986439"><ele>715.84</ele><time>2014-09-07T23:37:01Z</time></trkpt><trkpt lat="46.0192317981" lon="6.1031434033"><ele>716.80</ele><time>2014-09-07T23:37:17Z</time></trkpt><trkpt lat="46.0195283499" lon="6.1032206845"><ele>718.72</ele><time>2014-09-07T23:37:32Z</time></trkpt><trkpt lat="46.0198414978" lon="6.1032864824"><ele>720.16</ele><time>2014-09-07T23:37:49Z</time></trkpt><trkpt lat="46.0201490298" lon="6.1033388693"><ele>722.09</ele><time>2014-09-07T23:38:07Z</time></trkpt><trkpt lat="46.0202489421" lon="6.1033593211"><ele>723.05</ele><time>2014-09-07T23:38:13Z</time></trkpt><trkpt lat="46.0205604974" lon="6.1034200899"><ele>725.45</ele><time>2014-09-07T23:38:31Z</time></trkpt><trkpt lat="46.0208732262" lon="6.1034437269"><ele>724.97</ele><time>2014-09-07T23:38:49Z</time></trkpt><trkpt lat="46.0211707000" lon="6.1034482531"><ele>725.93</ele><time>2014-09-07T23:39:07Z</time></trkpt><trkpt lat="46.0214174632" lon="6.1033861432"><ele>727.37</ele><time>2014-09-07T23:39:21Z</time></trkpt><trkpt lat="46.0217095725" lon="6.1032866500"><ele>727.86</ele><time>2014-09-07T23:39:39Z</time></trkpt><trkpt lat="46.0219469480" lon="6.1031513661"><ele>728.82</ele><time>2014-09-07T23:39:54Z</time></trkpt><trkpt lat="46.0222073738" lon="6.1029687244"><ele>730.26</ele><time>2014-09-07T23:40:11Z</time></trkpt><trkpt lat="46.0223522130" lon="6.1028188560"><ele>731.70</ele><time>2014-09-07T23:40:21Z</time></trkpt><trkpt lat="46.0226053465" lon="6.1025736015"><ele>733.62</ele><time>2014-09-07T23:40:38Z</time></trkpt><trkpt lat="46.0227179993" lon="6.1024586856"><ele>734.10</ele><time>2014-09-07T23:40:46Z</time></trkpt><trkpt lat="46.0229700431" lon="6.1022427678"><ele>735.55</ele><time>2014-09-07T23:41:02Z</time></trkpt><trkpt lat="46.0232248530" lon="6.1020462122"><ele>737.95</ele><time>2014-09-07T23:41:19Z</time></trkpt><trkpt lat="46.0235241707" lon="6.1019305419"><ele>739.87</ele><time>2014-09-07T23:41:32Z</time></trkpt><trkpt lat="46.0238653142" lon="6.1019198131"><ele>742.28</ele><time>2014-09-07T23:41:48Z</time></trkpt><trkpt lat="46.0240202118" lon="6.1019278597"><ele>743.24</ele><time>2014-09-07T23:41:56Z</time></trkpt><trkpt lat="46.0240815673" lon="6.1019254290"><ele>743.72</ele><time>2014-09-07T23:42:00Z</time></trkpt><trkpt lat="46.0244108085" lon="6.1019373313"><ele>744.20</ele><time>2014-09-07T23:42:18Z</time></trkpt><trkpt lat="46.0247080307" lon="6.1019082461"><ele>746.12</ele><time>2014-09-07T23:42:34Z</time></trkpt><trkpt lat="46.0248288978" lon="6.1018629000"><ele>746.60</ele><time>2014-09-07T23:42:41Z</time></trkpt><trkpt lat="46.0249348450" lon="6.1018022150"><ele>746.60</ele><time>2014-09-07T23:42:46Z</time></trkpt><trkpt lat="46.0252236854" lon="6.1015676055"><ele>747.08</ele><time>2014-09-07T23:43:01Z</time></trkpt><trkpt lat="46.0255224165" lon="6.1012153141"><ele>749.00</ele><time>2014-09-07T23:43:18Z</time></trkpt><trkpt lat="46.0257936548" lon="6.1008898448"><ele>749.97</ele><time>2014-09-07T23:43:34Z</time></trkpt><trkpt lat="46.0261065513" lon="6.1006458476"><ele>751.89</ele><time>2014-09-07T23:43:49Z</time></trkpt><trkpt lat="46.0264178552" lon="6.1005519703"><ele>753.33</ele><time>2014-09-07T23:44:04Z</time></trkpt><trkpt lat="46.0267545562" lon="6.1005433369"><ele>755.73</ele><time>2014-09-07T23:44:19Z</time></trkpt><trkpt lat="46.0271351784" lon="6.1007397249"><ele>757.66</ele><time>2014-09-07T23:44:36Z</time></trkpt><trkpt lat="46.0274068359" lon="6.1010330915"><ele>757.18</ele><time>2014-09-07T23:44:48Z</time></trkpt><trkpt lat="46.0276111029" lon="6.1014396138"><ele>757.66</ele><time>2014-09-07T23:45:02Z</time></trkpt><trkpt lat="46.0277209897" lon="6.1018774007"><ele>759.58</ele><time>2014-09-07T23:45:16Z</time></trkpt><trkpt lat="46.0277501587" lon="6.1024449393"><ele>760.54</ele><time>2014-09-07T23:45:33Z</time></trkpt><trkpt lat="46.0276814271" lon="6.1029157508"><ele>761.50</ele><time>2014-09-07T23:45:48Z</time></trkpt><trkpt lat="46.0276198201" lon="6.1032389570"><ele>761.98</ele><time>2014-09-07T23:45:59Z</time></trkpt><trkpt lat="46.0276006255" lon="6.1033816170"><ele>761.98</ele><time>2014-09-07T23:46:04Z</time></trkpt><trkpt lat="46.0275340732" lon="6.1037575454"><ele>763.42</ele><time>2014-09-07T23:46:16Z</time></trkpt><trkpt lat="46.0275132861" lon="6.1038228404"><ele>764.87</ele><time>2014-09-07T23:46:26Z</time></trkpt><trkpt lat="46.0274983663" lon="6.1038226727"><ele>763.90</ele><time>2014-09-07T23:46:46Z</time></trkpt><trkpt lat="46.0275037307" lon="6.1037948448"><ele>766.79</ele><time>2014-09-07T23:47:26Z</time></trkpt><trkpt lat="46.0274915770" lon="6.1038147938"><ele>767.27</ele><time>2014-09-07T23:48:12Z</time></trkpt><trkpt lat="46.0274737235" lon="6.1037936714"><ele>771.60</ele><time>2014-09-07T23:49:00Z</time></trkpt><trkpt lat="46.0274817701" lon="6.1038215831"><ele>773.04</ele><time>2014-09-07T23:49:19Z</time></trkpt><trkpt lat="46.0274773277" lon="6.1040154565"><ele>770.15</ele><time>2014-09-07T23:49:30Z</time></trkpt><trkpt lat="46.0274737235" lon="6.1040379200"><ele>770.15</ele><time>2014-09-07T23:49:31Z</time></trkpt><trkpt lat="46.0274839494" lon="6.1043007765"><ele>767.75</ele><time>2014-09-07T23:49:41Z</time></trkpt><trkpt lat="46.0276040621" lon="6.1047625355"><ele>765.83</ele><time>2014-09-07T23:49:56Z</time></trkpt><trkpt lat="46.0277761426" lon="6.1051215325"><ele>766.79</ele><time>2014-09-07T23:50:08Z</time></trkpt><trkpt lat="46.0280462075" lon="6.1054428108"><ele>767.75</ele><time>2014-09-07T23:50:22Z</time></trkpt><trkpt lat="46.0283665638" lon="6.1056279670"><ele>768.71</ele><time>2014-09-07T23:50:37Z</time></trkpt><trkpt lat="46.0286956374" lon="6.1056670267"><ele>768.71</ele><time>2014-09-07T23:50:52Z</time></trkpt><trkpt lat="46.0290818755" lon="6.1056371871"><ele>770.15</ele><time>2014-09-07T23:51:10Z</time></trkpt><trkpt lat="46.0291221086" lon="6.1056344211"><ele>770.63</ele><time>2014-09-07T23:51:13Z</time></trkpt><trkpt lat="46.0292357672" lon="6.1056233570"><ele>771.60</ele><time>2014-09-07T23:51:28Z</time></trkpt><trkpt lat="46.0292610805" lon="6.1056296434"><ele>774.00</ele><time>2014-09-07T23:52:01Z</time></trkpt><trkpt lat="46.0292768385" lon="6.1056268774"><ele>773.04</ele><time>2014-09-07T23:52:14Z</time></trkpt><trkpt lat="46.0293182451" lon="6.1056132149"><ele>773.04</ele><time>2014-09-07T23:52:17Z</time></trkpt><trkpt lat="46.0296054091" lon="6.1056137178"><ele>773.04</ele><time>2014-09-07T23:52:32Z</time></trkpt><trkpt lat="46.0299069900" lon="6.1055960320"><ele>774.96</ele><time>2014-09-07T23:52:48Z</time></trkpt><trkpt lat="46.0301737860" lon="6.1055670306"><ele>776.40</ele><time>2014-09-07T23:53:02Z</time></trkpt><trkpt lat="46.0303452797" lon="6.1055640969"><ele>777.36</ele><time>2014-09-07T23:53:12Z</time></trkpt><trkpt lat="46.0303614568" lon="6.1055689584"><ele>777.84</ele><time>2014-09-07T23:53:13Z</time></trkpt><trkpt lat="46.0303775501" lon="6.1055684555"><ele>777.84</ele><time>2014-09-07T23:53:14Z</time></trkpt><trkpt lat="46.0303931404" lon="6.1055662762"><ele>777.84</ele><time>2014-09-07T23:53:15Z</time></trkpt><trkpt lat="46.0304071382" lon="6.1055621691"><ele>777.84</ele><time>2014-09-07T23:53:16Z</time></trkpt><trkpt lat="46.0304231476" lon="6.1055568047"><ele>777.84</ele><time>2014-09-07T23:53:17Z</time></trkpt><trkpt lat="46.0306740180" lon="6.1055517755"><ele>779.29</ele><time>2014-09-07T23:53:32Z</time></trkpt><trkpt lat="46.0309341922" lon="6.1055472493"><ele>781.21</ele><time>2014-09-07T23:53:49Z</time></trkpt><trkpt lat="46.0309855733" lon="6.1055624206"><ele>782.17</ele><time>2014-09-07T23:53:53Z</time></trkpt><trkpt lat="46.0309940390" lon="6.1055516079"><ele>781.69</ele><time>2014-09-07T23:53:54Z</time></trkpt><trkpt lat="46.0309844837" lon="6.1055420525"><ele>781.69</ele><time>2014-09-07T23:53:55Z</time></trkpt><trkpt lat="46.0309703182" lon="6.1055272166"><ele>781.69</ele><time>2014-09-07T23:53:56Z</time></trkpt><trkpt lat="46.0309659597" lon="6.1055148114"><ele>781.69</ele><time>2014-09-07T23:53:57Z</time></trkpt><trkpt lat="46.0309631098" lon="6.1054909229"><ele>781.69</ele><time>2014-09-07T23:53:58Z</time></trkpt><trkpt lat="46.0309627745" lon="6.1054683756"><ele>781.69</ele><time>2014-09-07T23:53:59Z</time></trkpt><trkpt lat="46.0310340207" lon="6.1050735041"><ele>779.77</ele><time>2014-09-07T23:54:11Z</time></trkpt><trkpt lat="46.0311405547" lon="6.1048537306"><ele>778.81</ele><time>2014-09-07T23:54:20Z</time></trkpt><trkpt lat="46.0311415605" lon="6.1048357934"><ele>779.29</ele><time>2014-09-07T23:54:30Z</time></trkpt><trkpt lat="46.0311637726" lon="6.1048435047"><ele>779.29</ele><time>2014-09-07T23:54:33Z</time></trkpt><trkpt lat="46.0311740823" lon="6.1048444267"><ele>779.29</ele><time>2014-09-07T23:54:34Z</time></trkpt><trkpt lat="46.0311864875" lon="6.1048220471"><ele>779.29</ele><time>2014-09-07T23:54:46Z</time></trkpt><trkpt lat="46.0312169138" lon="6.1048350390"><ele>780.25</ele><time>2014-09-07T23:55:18Z</time></trkpt><trkpt lat="46.0311908461" lon="6.1048341170"><ele>779.29</ele><time>2014-09-07T23:55:48Z</time></trkpt><trkpt lat="46.0311869904" lon="6.1048341170"><ele>777.36</ele><time>2014-09-07T23:56:28Z</time></trkpt><trkpt lat="46.0311772674" lon="6.1048331112"><ele>776.40</ele><time>2014-09-07T23:57:03Z</time></trkpt><trkpt lat="46.0311797820" lon="6.1048030201"><ele>777.36</ele><time>2014-09-07T23:57:38Z</time></trkpt><trkpt lat="46.0311933607" lon="6.1048274115"><ele>779.29</ele><time>2014-09-07T23:58:20Z</time></trkpt><trkpt lat="46.0312051792" lon="6.1048418283"><ele>778.32</ele><time>2014-09-07T23:58:56Z</time></trkpt><trkpt lat="46.0311716516" lon="6.1048228852"><ele>778.32</ele><time>2014-09-07T23:59:37Z</time></trkpt><trkpt lat="46.0311637726" lon="6.1048485339"><ele>781.69</ele><time>2014-09-08T00:00:16Z</time></trkpt><trkpt lat="46.0311891697" lon="6.1048362125"><ele>778.32</ele><time>2014-09-08T00:00:56Z</time></trkpt><trkpt lat="46.0311843920" lon="6.1048194487"><ele>780.73</ele><time>2014-09-08T00:01:33Z</time></trkpt><trkpt lat="46.0311904270" lon="6.1048102286"><ele>777.84</ele><time>2014-09-08T00:02:15Z</time></trkpt><trkpt lat="46.0311970487" lon="6.1048296746"><ele>779.77</ele><time>2014-09-08T00:02:56Z</time></trkpt><trkpt lat="46.0311807878" lon="6.1048092227"><ele>778.81</ele><time>2014-09-08T00:03:27Z</time></trkpt><trkpt lat="46.0311964620" lon="6.1048228014"><ele>778.81</ele><time>2014-09-08T00:03:57Z</time></trkpt><trkpt lat="46.0312109627" lon="6.1048310157"><ele>776.40</ele><time>2014-09-08T00:04:42Z</time></trkpt><trkpt lat="46.0311767645" lon="6.1048186943"><ele>775.44</ele><time>2014-09-08T00:05:19Z</time></trkpt><trkpt lat="46.0311772674" lon="6.1048131622"><ele>778.81</ele><time>2014-09-08T00:05:55Z</time></trkpt><trkpt lat="46.0311935283" lon="6.1048147548"><ele>783.13</ele><time>2014-09-08T00:06:31Z</time></trkpt><trkpt lat="46.0312388744" lon="6.1048677284"><ele>786.50</ele><time>2014-09-08T00:07:05Z</time></trkpt><trkpt lat="46.0311852302" lon="6.1048388109"><ele>784.09</ele><time>2014-09-08T00:07:30Z</time></trkpt><trkpt lat="46.0311895888" lon="6.1048248131"><ele>778.81</ele><time>2014-09-08T00:08:01Z</time></trkpt><trkpt lat="46.0311989766" lon="6.1047927942"><ele>777.84</ele><time>2014-09-08T00:08:31Z</time></trkpt><trkpt lat="46.0311789438" lon="6.1047766171"><ele>777.84</ele><time>2014-09-08T00:08:38Z</time></trkpt><trkpt lat="46.0311643593" lon="6.1047818139"><ele>777.84</ele><time>2014-09-08T00:08:39Z</time></trkpt><trkpt lat="46.0311482660" lon="6.1047770362"><ele>778.32</ele><time>2014-09-08T00:08:40Z</time></trkpt><trkpt lat="46.0311395489" lon="6.1047663074"><ele>778.32</ele><time>2014-09-08T00:08:41Z</time></trkpt><trkpt lat="46.0311298259" lon="6.1047677323"><ele>778.32</ele><time>2014-09-08T00:08:42Z</time></trkpt><trkpt lat="46.0311176721" lon="6.1047906149"><ele>778.32</ele><time>2014-09-08T00:08:43Z</time></trkpt><trkpt lat="46.0311119724" lon="6.1048124079"><ele>778.32</ele><time>2014-09-08T00:08:44Z</time></trkpt><trkpt lat="46.0311044287" lon="6.1048420798"><ele>778.32</ele><time>2014-09-08T00:08:45Z</time></trkpt><trkpt lat="46.0310929455" lon="6.1048735958"><ele>778.32</ele><time>2014-09-08T00:08:46Z</time></trkpt><trkpt lat="46.0310797859" lon="6.1049033515"><ele>778.32</ele><time>2014-09-08T00:08:47Z</time></trkpt><trkpt lat="46.0310363676" lon="6.1050170101"><ele>778.32</ele><time>2014-09-08T00:08:51Z</time></trkpt><trkpt lat="46.0310206097" lon="6.1050366238"><ele>778.32</ele><time>2014-09-08T00:08:52Z</time></trkpt><trkpt lat="46.0310077854" lon="6.1050610989"><ele>778.32</ele><time>2014-09-08T00:08:53Z</time></trkpt><trkpt lat="46.0309947096" lon="6.1050886754"><ele>778.81</ele><time>2014-09-08T00:08:54Z</time></trkpt><trkpt lat="46.0309823044" lon="6.1051139887"><ele>778.81</ele><time>2014-09-08T00:08:55Z</time></trkpt><trkpt lat="46.0309499502" lon="6.1054374464"><ele>779.77</ele><time>2014-09-08T00:09:06Z</time></trkpt><trkpt lat="46.0309616011" lon="6.1054646038"><ele>779.77</ele><time>2014-09-08T00:09:07Z</time></trkpt><trkpt lat="46.0309702344" lon="6.1054814514"><ele>779.77</ele><time>2014-09-08T00:09:08Z</time></trkpt><trkpt lat="46.0309852380" lon="6.1055032443"><ele>779.29</ele><time>2014-09-08T00:09:09Z</time></trkpt><trkpt lat="46.0310015827" lon="6.1055236962"><ele>779.77</ele><time>2014-09-08T00:09:10Z</time></trkpt><trkpt lat="46.0310187656" lon="6.1055413820"><ele>779.29</ele><time>2014-09-08T00:09:11Z</time></trkpt><trkpt lat="46.0310367867" lon="6.1055583134"><ele>779.29</ele><time>2014-09-08T00:09:12Z</time></trkpt><trkpt lat="46.0310554784" lon="6.1055719759"><ele>779.29</ele><time>2014-09-08T00:09:13Z</time></trkpt><trkpt lat="46.0310749244" lon="6.1055822019"><ele>779.77</ele><time>2014-09-08T00:09:14Z</time></trkpt><trkpt lat="46.0313940234" lon="6.1057957727"><ele>781.21</ele><time>2014-09-08T00:09:31Z</time></trkpt><trkpt lat="46.0317382682" lon="6.1060350761"><ele>783.13</ele><time>2014-09-08T00:09:48Z</time></trkpt><trkpt lat="46.0319922399" lon="6.1062095873"><ele>784.09</ele><time>2014-09-08T00:10:01Z</time></trkpt><trkpt lat="46.0323059745" lon="6.1064233258"><ele>784.57</ele><time>2014-09-08T00:10:17Z</time></trkpt><trkpt lat="46.0326317791" lon="6.1066332087"><ele>785.53</ele><time>2014-09-08T00:10:32Z</time></trkpt><trkpt lat="46.0330085456" lon="6.1068924610"><ele>786.98</ele><time>2014-09-08T00:10:46Z</time></trkpt><trkpt lat="46.0335556325" lon="6.1073715705"><ele>786.98</ele><time>2014-09-08T00:11:02Z</time></trkpt><trkpt lat="46.0337600671" lon="6.1075710598"><ele>786.50</ele><time>2014-09-08T00:11:07Z</time></trkpt><trkpt lat="46.0337888170" lon="6.1076110415"><ele>786.50</ele><time>2014-09-08T00:11:08Z</time></trkpt><trkpt lat="46.0338181537" lon="6.1076495983"><ele>786.02</ele><time>2014-09-08T00:11:09Z</time></trkpt><trkpt lat="46.0338552855" lon="6.1076870654"><ele>786.02</ele><time>2014-09-08T00:11:10Z</time></trkpt><trkpt lat="46.0338901542" lon="6.1077188328"><ele>785.53</ele><time>2014-09-08T00:11:11Z</time></trkpt><trkpt lat="46.0340484884" lon="6.1078782566"><ele>783.61</ele><time>2014-09-08T00:11:16Z</time></trkpt><trkpt lat="46.0341199022" lon="6.1079501733"><ele>783.13</ele><time>2014-09-08T00:11:18Z</time></trkpt><trkpt lat="46.0343383346" lon="6.1081930809"><ele>782.17</ele><time>2014-09-08T00:11:25Z</time></trkpt><trkpt lat="46.0348420031" lon="6.1086881999"><ele>779.77</ele><time>2014-09-08T00:11:39Z</time></trkpt><trkpt lat="46.0349611938" lon="6.1087980866"><ele>779.29</ele><time>2014-09-08T00:11:49Z</time></trkpt><trkpt lat="46.0350401513" lon="6.1088678241"><ele>778.81</ele><time>2014-09-08T00:12:11Z</time></trkpt><trkpt lat="46.0350461025" lon="6.1088725179"><ele>778.81</ele><time>2014-09-08T00:12:12Z</time></trkpt><trkpt lat="46.0350542329" lon="6.1088818219"><ele>778.81</ele><time>2014-09-08T00:12:13Z</time></trkpt><trkpt lat="46.0350980703" lon="6.1089106556"><ele>778.81</ele><time>2014-09-08T00:12:16Z</time></trkpt><trkpt lat="46.0351303406" lon="6.1089140084"><ele>778.32</ele><time>2014-09-08T00:12:17Z</time></trkpt><trkpt lat="46.0351568274" lon="6.1089078896"><ele>778.32</ele><time>2014-09-08T00:12:18Z</time></trkpt><trkpt lat="46.0351859126" lon="6.1088915449"><ele>778.32</ele><time>2014-09-08T00:12:19Z</time></trkpt><trkpt lat="46.0352221224" lon="6.1088607833"><ele>778.32</ele><time>2014-09-08T00:12:20Z</time></trkpt><trkpt lat="46.0352461785" lon="6.1088318657"><ele>777.84</ele><time>2014-09-08T00:12:21Z</time></trkpt><trkpt lat="46.0352656245" lon="6.1088032834"><ele>777.84</ele><time>2014-09-08T00:12:22Z</time></trkpt><trkpt lat="46.0352913570" lon="6.1087634694"><ele>777.84</ele><time>2014-09-08T00:12:23Z</time></trkpt><trkpt lat="46.0356314946" lon="6.1084073223"><ele>779.29</ele><time>2014-09-08T00:12:34Z</time></trkpt><trkpt lat="46.0362274479" lon="6.1078486685"><ele>777.36</ele><time>2014-09-08T00:12:50Z</time></trkpt><trkpt lat="46.0364320502" lon="6.1076558009"><ele>776.40</ele><time>2014-09-08T00:12:59Z</time></trkpt><trkpt lat="46.0364337265" lon="6.1076528672"><ele>776.40</ele><time>2014-09-08T00:13:04Z</time></trkpt><trkpt lat="46.0364257637" lon="6.1076433957"><ele>776.40</ele><time>2014-09-08T00:13:05Z</time></trkpt><trkpt lat="46.0364144482" lon="6.1076490954"><ele>776.40</ele><time>2014-09-08T00:13:06Z</time></trkpt><trkpt lat="46.0364036355" lon="6.1076665297"><ele>776.40</ele><time>2014-09-08T00:13:07Z</time></trkpt><trkpt lat="46.0363722034" lon="6.1077144742"><ele>776.40</ele><time>2014-09-08T00:13:09Z</time></trkpt><trkpt lat="46.0363504104" lon="6.1077335849"><ele>776.40</ele><time>2014-09-08T00:13:10Z</time></trkpt><trkpt lat="46.0363328923" lon="6.1077457387"><ele>776.40</ele><time>2014-09-08T00:13:11Z</time></trkpt><trkpt lat="46.0363107640" lon="6.1077652685"><ele>776.40</ele><time>2014-09-08T00:13:12Z</time></trkpt><trkpt lat="46.0362950899" lon="6.1077919230"><ele>776.40</ele><time>2014-09-08T00:13:13Z</time></trkpt><trkpt lat="46.0362767335" lon="6.1078207567"><ele>776.40</ele><time>2014-09-08T00:13:14Z</time></trkpt><trkpt lat="46.0362548567" lon="6.1078406218"><ele>775.92</ele><time>2014-09-08T00:13:15Z</time></trkpt><trkpt lat="46.0362295434" lon="6.1078635883"><ele>775.92</ele><time>2014-09-08T00:13:16Z</time></trkpt><trkpt lat="46.0362017155" lon="6.1078851297"><ele>776.40</ele><time>2014-09-08T00:13:17Z</time></trkpt><trkpt lat="46.0358022340" lon="6.1081522610"><ele>774.48</ele><time>2014-09-08T00:13:31Z</time></trkpt><trkpt lat="46.0353780258" lon="6.1085571069"><ele>773.52</ele><time>2014-09-08T00:13:49Z</time></trkpt><trkpt lat="46.0350986570" lon="6.1088218912"><ele>774.48</ele><time>2014-09-08T00:14:01Z</time></trkpt><trkpt lat="46.0350911133" lon="6.1088887788"><ele>774.96</ele><time>2014-09-08T00:14:03Z</time></trkpt><trkpt lat="46.0350943822" lon="6.1089419201"><ele>774.96</ele><time>2014-09-08T00:14:04Z</time></trkpt><trkpt lat="46.0351133253" lon="6.1089929659"><ele>775.44</ele><time>2014-09-08T00:14:05Z</time></trkpt><trkpt lat="46.0351295862" lon="6.1090254039"><ele>775.44</ele><time>2014-09-08T00:14:06Z</time></trkpt><trkpt lat="46.0351392254" lon="6.1090580933"><ele>775.44</ele><time>2014-09-08T00:14:07Z</time></trkpt><trkpt lat="46.0351396445" lon="6.1090905312"><ele>775.44</ele><time>2014-09-08T00:14:08Z</time></trkpt><trkpt lat="46.0351367947" lon="6.1091242265"><ele>775.92</ele><time>2014-09-08T00:14:09Z</time></trkpt><trkpt lat="46.0351312626" lon="6.1091595981"><ele>775.44</ele><time>2014-09-08T00:14:10Z</time></trkpt><trkpt lat="46.0351233836" lon="6.1091959756"><ele>775.44</ele><time>2014-09-08T00:14:11Z</time></trkpt><trkpt lat="46.0350269079" lon="6.1099821981"><ele>775.92</ele><time>2014-09-08T00:14:28Z</time></trkpt><trkpt lat="46.0351909418" lon="6.1107685883"><ele>777.36</ele><time>2014-09-08T00:14:44Z</time></trkpt><trkpt lat="46.0353546403" lon="6.1112686526"><ele>776.88</ele><time>2014-09-08T00:14:56Z</time></trkpt><trkpt lat="46.0353507847" lon="6.1112241447"><ele>777.36</ele><time>2014-09-08T00:14:58Z</time></trkpt><trkpt lat="46.0352794547" lon="6.1108480487"><ele>776.88</ele><time>2014-09-08T00:15:07Z</time></trkpt><trkpt lat="46.0353127308" lon="6.1108175386"><ele>776.88</ele><time>2014-09-08T00:15:08Z</time></trkpt><trkpt lat="46.0355847236" lon="6.1106683407"><ele>778.81</ele><time>2014-09-08T00:15:20Z</time></trkpt><trkpt lat="46.0358267091" lon="6.1104121059"><ele>781.69</ele><time>2014-09-08T00:15:35Z</time></trkpt><trkpt lat="46.0358331632" lon="6.1103854515"><ele>781.69</ele><time>2014-09-08T00:15:36Z</time></trkpt><trkpt lat="46.0358631704" lon="6.1099859700"><ele>782.17</ele><time>2014-09-08T00:15:50Z</time></trkpt><trkpt lat="46.0359204188" lon="6.1095310841"><ele>784.57</ele><time>2014-09-08T00:16:05Z</time></trkpt><trkpt lat="46.0360949300" lon="6.1091619451"><ele>787.46</ele><time>2014-09-08T00:16:21Z</time></trkpt><trkpt lat="46.0361969378" lon="6.1089642998"><ele>788.90</ele><time>2014-09-08T00:16:31Z</time></trkpt><trkpt lat="46.0363588762" lon="6.1087003537"><ele>790.34</ele><time>2014-09-08T00:16:45Z</time></trkpt><trkpt lat="46.0365942400" lon="6.1082820967"><ele>791.78</ele><time>2014-09-08T00:17:01Z</time></trkpt><trkpt lat="46.0367710982" lon="6.1079537775"><ele>791.78</ele><time>2014-09-08T00:17:15Z</time></trkpt><trkpt lat="46.0368599463" lon="6.1078552902"><ele>792.26</ele><time>2014-09-08T00:17:24Z</time></trkpt><trkpt lat="46.0369082261" lon="6.1078767478"><ele>791.78</ele><time>2014-09-08T00:17:41Z</time></trkpt><trkpt lat="46.0369023588" lon="6.1079103593"><ele>790.82</ele><time>2014-09-08T00:17:59Z</time></trkpt><trkpt lat="46.0369337909" lon="6.1079532746"><ele>793.71</ele><time>2014-09-08T00:18:33Z</time></trkpt><trkpt lat="46.0369152669" lon="6.1079183221"><ele>795.63</ele><time>2014-09-08T00:19:02Z</time></trkpt><trkpt lat="46.0368801467" lon="6.1078640074"><ele>798.03</ele><time>2014-09-08T00:19:29Z</time></trkpt><trkpt lat="46.0368777160" lon="6.1078351736"><ele>800.44</ele><time>2014-09-08T00:19:53Z</time></trkpt><trkpt lat="46.0368953180" lon="6.1078824475"><ele>800.44</ele><time>2014-09-08T00:20:36Z</time></trkpt><trkpt lat="46.0368958209" lon="6.1079011392"><ele>799.47</ele><time>2014-09-08T00:21:10Z</time></trkpt><trkpt lat="46.0369012691" lon="6.1078802682"><ele>798.03</ele><time>2014-09-08T00:21:32Z</time></trkpt><trkpt lat="46.0368894506" lon="6.1079216748"><ele>800.92</ele><time>2014-09-08T00:21:58Z</time></trkpt><trkpt lat="46.0368879419" lon="6.1079164781"><ele>797.07</ele><time>2014-09-08T00:22:36Z</time></trkpt><trkpt lat="46.0368929710" lon="6.1079095211"><ele>795.63</ele><time>2014-09-08T00:23:10Z</time></trkpt><trkpt lat="46.0369119141" lon="6.1079313140"><ele>794.19</ele><time>2014-09-08T00:23:48Z</time></trkpt><trkpt lat="46.0368847568" lon="6.1079076771"><ele>797.55</ele><time>2014-09-08T00:24:14Z</time></trkpt><trkpt lat="46.0368845053" lon="6.1079047434"><ele>798.51</ele><time>2014-09-08T00:24:41Z</time></trkpt><trkpt lat="46.0369252414" lon="6.1079054140"><ele>799.95</ele><time>2014-09-08T00:25:05Z</time></trkpt><trkpt lat="46.0369136743" lon="6.1078986246"><ele>799.95</ele><time>2014-09-08T00:25:19Z</time></trkpt><trkpt lat="46.0369090643" lon="6.1078552064"><ele>798.51</ele><time>2014-09-08T00:25:43Z</time></trkpt><trkpt lat="46.0369213019" lon="6.1078859679"><ele>793.71</ele><time>2014-09-08T00:26:03Z</time></trkpt><trkpt lat="46.0368886963" lon="6.1078574695"><ele>793.22</ele><time>2014-09-08T00:26:26Z</time></trkpt><trkpt lat="46.0369181167" lon="6.1078261212"><ele>793.71</ele><time>2014-09-08T00:26:37Z</time></trkpt><trkpt lat="46.0369216371" lon="6.1078118719"><ele>793.71</ele><time>2014-09-08T00:26:38Z</time></trkpt><trkpt lat="46.0369298514" lon="6.1077940185"><ele>793.71</ele><time>2014-09-08T00:26:39Z</time></trkpt><trkpt lat="46.0370751936" lon="6.1075473391"><ele>793.71</ele><time>2014-09-08T00:26:52Z</time></trkpt><trkpt lat="46.0372779518" lon="6.1073641945"><ele>794.19</ele><time>2014-09-08T00:27:03Z</time></trkpt><trkpt lat="46.0372982360" lon="6.1073499452"><ele>794.19</ele><time>2014-09-08T00:27:04Z</time></trkpt><trkpt lat="46.0375987273" lon="6.1070452631"><ele>796.59</ele><time>2014-09-08T00:27:19Z</time></trkpt><trkpt lat="46.0377274733" lon="6.1068605259"><ele>798.51</ele><time>2014-09-08T00:27:29Z</time></trkpt><trkpt lat="46.0377358552" lon="6.1068402417"><ele>798.51</ele><time>2014-09-08T00:27:30Z</time></trkpt><trkpt lat="46.0377480090" lon="6.1068190355"><ele>798.99</ele><time>2014-09-08T00:27:31Z</time></trkpt><trkpt lat="46.0379497614" lon="6.1065455340"><ele>800.44</ele><time>2014-09-08T00:27:46Z</time></trkpt><trkpt lat="46.0379715543" lon="6.1065295245"><ele>799.95</ele><time>2014-09-08T00:28:14Z</time></trkpt><trkpt lat="46.0381042399" lon="6.1063281074"><ele>800.44</ele><time>2014-09-08T00:28:24Z</time></trkpt><trkpt lat="46.0383626539" lon="6.1059532687"><ele>803.80</ele><time>2014-09-08T00:28:40Z</time></trkpt><trkpt lat="46.0385685973" lon="6.1056713015"><ele>805.24</ele><time>2014-09-08T00:28:55Z</time></trkpt><trkpt lat="46.0387317091" lon="6.1053587403"><ele>807.16</ele><time>2014-09-08T00:29:11Z</time></trkpt><trkpt lat="46.0388130136" lon="6.1049738433"><ele>808.13</ele><time>2014-09-08T00:29:27Z</time></trkpt><trkpt lat="46.0388453677" lon="6.1045980826"><ele>807.64</ele><time>2014-09-08T00:29:41Z</time></trkpt><trkpt lat="46.0388436075" lon="6.1045746971"><ele>807.64</ele><time>2014-09-08T00:29:42Z</time></trkpt><trkpt lat="46.0388426017" lon="6.1045511439"><ele>807.64</ele><time>2014-09-08T00:29:43Z</time></trkpt><trkpt lat="46.0388799850" lon="6.1042802408"><ele>808.13</ele><time>2014-09-08T00:29:54Z</time></trkpt><trkpt lat="46.0388913844" lon="6.1042615492"><ele>808.13</ele><time>2014-09-08T00:29:55Z</time></trkpt><trkpt lat="46.0389016941" lon="6.1042436957"><ele>808.13</ele><time>2014-09-08T00:29:56Z</time></trkpt><trkpt lat="46.0389111657" lon="6.1042267643"><ele>808.13</ele><time>2014-09-08T00:29:57Z</time></trkpt><trkpt lat="46.0389208887" lon="6.1042120960"><ele>808.13</ele><time>2014-09-08T00:29:58Z</time></trkpt><trkpt lat="46.0389362276" lon="6.1041987687"><ele>809.57</ele><time>2014-09-08T00:30:09Z</time></trkpt><trkpt lat="46.0389346350" lon="6.1041826755"><ele>809.57</ele><time>2014-09-08T00:30:43Z</time></trkpt><trkpt lat="46.0389206372" lon="6.1041402631"><ele>810.05</ele><time>2014-09-08T00:30:58Z</time></trkpt><trkpt lat="46.0389090702" lon="6.1041411851"><ele>809.57</ele><time>2014-09-08T00:30:59Z</time></trkpt><trkpt lat="46.0388940666" lon="6.1041551828"><ele>809.57</ele><time>2014-09-08T00:31:00Z</time></trkpt><trkpt lat="46.0388843436" lon="6.1041837651"><ele>809.09</ele><time>2014-09-08T00:31:02Z</time></trkpt><trkpt lat="46.0388245806" lon="6.1043845955"><ele>808.61</ele><time>2014-09-08T00:31:11Z</time></trkpt><trkpt lat="46.0388156120" lon="6.1043865234"><ele>808.13</ele><time>2014-09-08T00:31:32Z</time></trkpt><trkpt lat="46.0388156120" lon="6.1043924745"><ele>806.68</ele><time>2014-09-08T00:31:50Z</time></trkpt><trkpt lat="46.0388198029" lon="6.1044142675"><ele>806.68</ele><time>2014-09-08T00:31:51Z</time></trkpt><trkpt lat="46.0388217308" lon="6.1044422630"><ele>806.68</ele><time>2014-09-08T00:31:52Z</time></trkpt><trkpt lat="46.0388079844" lon="6.1050201952"><ele>804.28</ele><time>2014-09-08T00:32:03Z</time></trkpt><trkpt lat="46.0387949087" lon="6.1050889269"><ele>804.28</ele><time>2014-09-08T00:32:04Z</time></trkpt><trkpt lat="46.0386880394" lon="6.1054491811"><ele>802.84</ele><time>2014-09-08T00:32:09Z</time></trkpt><trkpt lat="46.0386522487" lon="6.1055202596"><ele>802.36</ele><time>2014-09-08T00:32:10Z</time></trkpt><trkpt lat="46.0386106744" lon="6.1055871472"><ele>801.88</ele><time>2014-09-08T00:32:11Z</time></trkpt><trkpt lat="46.0379780922" lon="6.1064784788"><ele>799.95</ele><time>2014-09-08T00:32:26Z</time></trkpt><trkpt lat="46.0373899341" lon="6.1072327662"><ele>794.19</ele><time>2014-09-08T00:32:40Z</time></trkpt><trkpt lat="46.0368651431" lon="6.1077657714"><ele>793.71</ele><time>2014-09-08T00:32:51Z</time></trkpt><trkpt lat="46.0367976688" lon="6.1078736465"><ele>794.19</ele><time>2014-09-08T00:32:53Z</time></trkpt><trkpt lat="46.0364278592" lon="6.1085427739"><ele>793.71</ele><time>2014-09-08T00:33:08Z</time></trkpt><trkpt lat="46.0361602250" lon="6.1090052873"><ele>793.22</ele><time>2014-09-08T00:33:18Z</time></trkpt><trkpt lat="46.0359409545" lon="6.1094128154"><ele>790.82</ele><time>2014-09-08T00:33:24Z</time></trkpt><trkpt lat="46.0359103605" lon="6.1095039267"><ele>790.34</ele><time>2014-09-08T00:33:25Z</time></trkpt><trkpt lat="46.0358890705" lon="6.1095988937"><ele>789.38</ele><time>2014-09-08T00:33:26Z</time></trkpt><trkpt lat="46.0358617455" lon="6.1097723991"><ele>787.94</ele><time>2014-09-08T00:33:28Z</time></trkpt><trkpt lat="46.0358589794" lon="6.1098495126"><ele>787.46</ele><time>2014-09-08T00:33:29Z</time></trkpt><trkpt lat="46.0358578060" lon="6.1099966150"><ele>786.02</ele><time>2014-09-08T00:33:31Z</time></trkpt><trkpt lat="46.0358222667" lon="6.1103400216"><ele>783.61</ele><time>2014-09-08T00:33:36Z</time></trkpt><trkpt lat="46.0358080175" lon="6.1104015447"><ele>783.13</ele><time>2014-09-08T00:33:37Z</time></trkpt><trkpt lat="46.0357863922" lon="6.1104562785"><ele>782.65</ele><time>2014-09-08T00:33:38Z</time></trkpt><trkpt lat="46.0357560497" lon="6.1104980204"><ele>782.17</ele><time>2014-09-08T00:33:39Z</time></trkpt><trkpt lat="46.0357210133" lon="6.1105307937"><ele>781.21</ele><time>2014-09-08T00:33:40Z</time></trkpt><trkpt lat="46.0356826242" lon="6.1105608847"><ele>781.21</ele><time>2014-09-08T00:33:41Z</time></trkpt><trkpt lat="46.0356422234" lon="6.1105913948"><ele>780.73</ele><time>2014-09-08T00:33:42Z</time></trkpt><trkpt lat="46.0356008168" lon="6.1106217373"><ele>780.73</ele><time>2014-09-08T00:33:43Z</time></trkpt><trkpt lat="46.0355569795" lon="6.1106451228"><ele>780.25</ele><time>2014-09-08T00:33:44Z</time></trkpt><trkpt lat="46.0355150700" lon="6.1106648203"><ele>779.77</ele><time>2014-09-08T00:33:45Z</time></trkpt><trkpt lat="46.0354777705" lon="6.1106871162"><ele>779.29</ele><time>2014-09-08T00:33:46Z</time></trkpt><trkpt lat="46.0354457516" lon="6.1107096635"><ele>779.29</ele><time>2014-09-08T00:33:47Z</time></trkpt><trkpt lat="46.0353498627" lon="6.1107774731"><ele>778.32</ele><time>2014-09-08T00:33:51Z</time></trkpt><trkpt lat="46.0353268124" lon="6.1107724439"><ele>778.32</ele><time>2014-09-08T00:33:52Z</time></trkpt><trkpt lat="46.0353003256" lon="6.1107630562"><ele>778.32</ele><time>2014-09-08T00:33:53Z</time></trkpt><trkpt lat="46.0352724977" lon="6.1107454542"><ele>778.32</ele><time>2014-09-08T00:33:54Z</time></trkpt><trkpt lat="46.0352401435" lon="6.1107160337"><ele>777.84</ele><time>2014-09-08T00:33:56Z</time></trkpt><trkpt lat="46.0352100525" lon="6.1106814165"><ele>777.84</ele><time>2014-09-08T00:33:57Z</time></trkpt><trkpt lat="46.0351976473" lon="6.1106657423"><ele>777.84</ele><time>2014-09-08T00:33:58Z</time></trkpt><trkpt lat="46.0351864155" lon="6.1106374953"><ele>777.84</ele><time>2014-09-08T00:33:59Z</time></trkpt><trkpt lat="46.0351779498" lon="6.1106014531"><ele>777.36</ele><time>2014-09-08T00:34:00Z</time></trkpt><trkpt lat="46.0351683106" lon="6.1105631478"><ele>777.36</ele><time>2014-09-08T00:34:01Z</time></trkpt><trkpt lat="46.0350598488" lon="6.1098503508"><ele>775.92</ele><time>2014-09-08T00:34:15Z</time></trkpt><trkpt lat="46.0351833142" lon="6.1090552434"><ele>775.44</ele><time>2014-09-08T00:34:30Z</time></trkpt><trkpt lat="46.0353794508" lon="6.1086456198"><ele>775.44</ele><time>2014-09-08T00:34:41Z</time></trkpt><trkpt lat="46.0359333269" lon="6.1081209965"><ele>775.92</ele><time>2014-09-08T00:34:57Z</time></trkpt><trkpt lat="46.0362450499" lon="6.1078214273"><ele>775.44</ele><time>2014-09-08T00:35:05Z</time></trkpt><trkpt lat="46.0362812597" lon="6.1077816971"><ele>775.92</ele><time>2014-09-08T00:35:06Z</time></trkpt><trkpt lat="46.0365925636" lon="6.1074347701"><ele>777.36</ele><time>2014-09-08T00:35:18Z</time></trkpt><trkpt lat="46.0367378220" lon="6.1072517931"><ele>777.36</ele><time>2014-09-08T00:35:23Z</time></trkpt><trkpt lat="46.0367713496" lon="6.1072087940"><ele>777.84</ele><time>2014-09-08T00:35:24Z</time></trkpt><trkpt lat="46.0369454417" lon="6.1069726758"><ele>777.84</ele><time>2014-09-08T00:35:29Z</time></trkpt><trkpt lat="46.0375827178" lon="6.1059940048"><ele>776.88</ele><time>2014-09-08T00:35:46Z</time></trkpt><trkpt lat="46.0381294694" lon="6.1046160199"><ele>771.11</ele><time>2014-09-08T00:36:03Z</time></trkpt><trkpt lat="46.0385497380" lon="6.1031070258"><ele>766.31</ele><time>2014-09-08T00:36:19Z</time></trkpt><trkpt lat="46.0393975675" lon="6.1016314756"><ele>761.50</ele><time>2014-09-08T00:36:37Z</time></trkpt><trkpt lat="46.0402645916" lon="6.1001878604"><ele>758.14</ele><time>2014-09-08T00:36:56Z</time></trkpt><trkpt lat="46.0410877783" lon="6.0989053454"><ele>756.21</ele><time>2014-09-08T00:37:15Z</time></trkpt><trkpt lat="46.0418939497" lon="6.0982215498"><ele>754.77</ele><time>2014-09-08T00:37:30Z</time></trkpt><trkpt lat="46.0428854451" lon="6.0974467266"><ele>753.81</ele><time>2014-09-08T00:37:49Z</time></trkpt><trkpt lat="46.0432241578" lon="6.0969964508"><ele>753.33</ele><time>2014-09-08T00:37:57Z</time></trkpt><trkpt lat="46.0438877530" lon="6.0959126707"><ele>751.89</ele><time>2014-09-08T00:38:15Z</time></trkpt><trkpt lat="46.0446557868" lon="6.0946822912"><ele>748.52</ele><time>2014-09-08T00:38:33Z</time></trkpt><trkpt lat="46.0456068814" lon="6.0931936651"><ele>742.76</ele><time>2014-09-08T00:38:51Z</time></trkpt><trkpt lat="46.0465998016" lon="6.0915902909"><ele>737.95</ele><time>2014-09-08T00:39:10Z</time></trkpt><trkpt lat="46.0470501613" lon="6.0907910764"><ele>739.39</ele><time>2014-09-08T00:39:23Z</time></trkpt><trkpt lat="46.0474094935" lon="6.0904740728"><ele>740.83</ele><time>2014-09-08T00:39:34Z</time></trkpt><trkpt lat="46.0475065559" lon="6.0903914273"><ele>741.31</ele><time>2014-09-08T00:39:40Z</time></trkpt><trkpt lat="46.0477730166" lon="6.0903030820"><ele>741.31</ele><time>2014-09-08T00:39:51Z</time></trkpt><trkpt lat="46.0479431693" lon="6.0897986591"><ele>742.28</ele><time>2014-09-08T00:40:04Z</time></trkpt><trkpt lat="46.0481611826" lon="6.0894057993"><ele>745.16</ele><time>2014-09-08T00:40:19Z</time></trkpt><trkpt lat="46.0481804609" lon="6.0893960763"><ele>745.16</ele><time>2014-09-08T00:40:20Z</time></trkpt><trkpt lat="46.0481993202" lon="6.0893823300"><ele>745.16</ele><time>2014-09-08T00:40:21Z</time></trkpt><trkpt lat="46.0483614262" lon="6.0892856866"><ele>747.56</ele><time>2014-09-08T00:40:30Z</time></trkpt><trkpt lat="46.0483786929" lon="6.0892891232"><ele>747.56</ele><time>2014-09-08T00:40:31Z</time></trkpt><trkpt lat="46.0484371148" lon="6.0892845131"><ele>748.52</ele><time>2014-09-08T00:40:46Z</time></trkpt><trkpt lat="46.0484589916" lon="6.0892571043"><ele>748.52</ele><time>2014-09-08T00:40:52Z</time></trkpt><trkpt lat="46.0484702233" lon="6.0892406758"><ele>748.52</ele><time>2014-09-08T00:40:53Z</time></trkpt><trkpt lat="46.0484871548" lon="6.0892317072"><ele>748.52</ele><time>2014-09-08T00:40:54Z</time></trkpt><trkpt lat="46.0485073552" lon="6.0892321263"><ele>748.52</ele><time>2014-09-08T00:40:55Z</time></trkpt><trkpt lat="46.0485262144" lon="6.0892341379"><ele>748.52</ele><time>2014-09-08T00:40:56Z</time></trkpt><trkpt lat="46.0485454928" lon="6.0892306175"><ele>749.00</ele><time>2014-09-08T00:40:57Z</time></trkpt><trkpt lat="46.0485655256" lon="6.0892254207"><ele>749.00</ele><time>2014-09-08T00:40:58Z</time></trkpt><trkpt lat="46.0485860612" lon="6.0892174579"><ele>749.00</ele><time>2014-09-08T00:40:59Z</time></trkpt><trkpt lat="46.0489074234" lon="6.0891539231"><ele>751.89</ele><time>2014-09-08T00:41:16Z</time></trkpt><trkpt lat="46.0491724592" lon="6.0891277716"><ele>755.25</ele><time>2014-09-08T00:41:31Z</time></trkpt><trkpt lat="46.0493985191" lon="6.0891447868"><ele>757.18</ele><time>2014-09-08T00:41:45Z</time></trkpt><trkpt lat="46.0496058036" lon="6.0891821701"><ele>759.10</ele><time>2014-09-08T00:41:58Z</time></trkpt><trkpt lat="46.0497895349" lon="6.0892334674"><ele>761.50</ele><time>2014-09-08T00:42:09Z</time></trkpt><trkpt lat="46.0498053767" lon="6.0892349761"><ele>761.50</ele><time>2014-09-08T00:42:10Z</time></trkpt><trkpt lat="46.0498213861" lon="6.0892334674"><ele>761.50</ele><time>2014-09-08T00:42:11Z</time></trkpt><trkpt lat="46.0498327017" lon="6.0892283544"><ele>761.50</ele><time>2014-09-08T00:42:12Z</time></trkpt><trkpt lat="46.0498491302" lon="6.0892273486"><ele>761.50</ele><time>2014-09-08T00:42:13Z</time></trkpt><trkpt lat="46.0498802271" lon="6.0892313719"><ele>761.98</ele><time>2014-09-08T00:42:15Z</time></trkpt><trkpt lat="46.0501106456" lon="6.0892248340"><ele>763.90</ele><time>2014-09-08T00:42:30Z</time></trkpt><trkpt lat="46.0503325984" lon="6.0891693458"><ele>765.83</ele><time>2014-09-08T00:42:45Z</time></trkpt><trkpt lat="46.0505693033" lon="6.0890618898"><ele>768.23</ele><time>2014-09-08T00:43:02Z</time></trkpt><trkpt lat="46.0506316647" lon="6.0889857821"><ele>769.19</ele><time>2014-09-08T00:43:08Z</time></trkpt><trkpt lat="46.0506443214" lon="6.0889946669"><ele>769.19</ele><time>2014-09-08T00:43:09Z</time></trkpt><trkpt lat="46.0506542958" lon="6.0889975168"><ele>769.19</ele><time>2014-09-08T00:43:10Z</time></trkpt><trkpt lat="46.0506666172" lon="6.0889965948"><ele>769.67</ele><time>2014-09-08T00:43:11Z</time></trkpt><trkpt lat="46.0506819561" lon="6.0890026297"><ele>770.15</ele><time>2014-09-08T00:43:12Z</time></trkpt><trkpt lat="46.0506953672" lon="6.0890228301"><ele>770.15</ele><time>2014-09-08T00:43:14Z</time></trkpt><trkpt lat="46.0507248715" lon="6.0890753847"><ele>770.63</ele><time>2014-09-08T00:43:17Z</time></trkpt><trkpt lat="46.0507365223" lon="6.0890855268"><ele>771.11</ele><time>2014-09-08T00:43:18Z</time></trkpt><trkpt lat="46.0507506877" lon="6.0890940763"><ele>771.11</ele><time>2014-09-08T00:43:19Z</time></trkpt><trkpt lat="46.0507651884" lon="6.0891004466"><ele>771.11</ele><time>2014-09-08T00:43:20Z</time></trkpt><trkpt lat="46.0507792700" lon="6.0891037155"><ele>771.11</ele><time>2014-09-08T00:43:21Z</time></trkpt><trkpt lat="46.0509013943" lon="6.0891417693"><ele>772.56</ele><time>2014-09-08T00:43:33Z</time></trkpt><trkpt lat="46.0511192400" lon="6.0891652387"><ele>775.44</ele><time>2014-09-08T00:43:50Z</time></trkpt><trkpt lat="46.0514039733" lon="6.0892089084"><ele>776.40</ele><time>2014-09-08T00:44:12Z</time></trkpt><trkpt lat="46.0515803285" lon="6.0892119259"><ele>777.84</ele><time>2014-09-08T00:44:27Z</time></trkpt><trkpt lat="46.0515926499" lon="6.0892111715"><ele>778.32</ele><time>2014-09-08T00:44:28Z</time></trkpt><trkpt lat="46.0516054742" lon="6.0892107524"><ele>778.32</ele><time>2014-09-08T00:44:29Z</time></trkpt><trkpt lat="46.0516871978" lon="6.0892219841"><ele>777.36</ele><time>2014-09-08T00:44:39Z</time></trkpt><trkpt lat="46.0519728530" lon="6.0892334674"><ele>779.29</ele><time>2014-09-08T00:44:56Z</time></trkpt><trkpt lat="46.0522440914" lon="6.0892884526"><ele>780.73</ele><time>2014-09-08T00:45:13Z</time></trkpt><trkpt lat="46.0524698161" lon="6.0893850960"><ele>783.61</ele><time>2014-09-08T00:45:28Z</time></trkpt><trkpt lat="46.0526030883" lon="6.0894135106"><ele>784.57</ele><time>2014-09-08T00:45:37Z</time></trkpt><trkpt lat="46.0526190978" lon="6.0894139297"><ele>785.05</ele><time>2014-09-08T00:45:38Z</time></trkpt><trkpt lat="46.0528621729" lon="6.0894477088"><ele>789.38</ele><time>2014-09-08T00:45:52Z</time></trkpt><trkpt lat="46.0529113747" lon="6.0894552525"><ele>789.86</ele><time>2014-09-08T00:45:55Z</time></trkpt><trkpt lat="46.0529252887" lon="6.0894494690"><ele>790.34</ele><time>2014-09-08T00:45:56Z</time></trkpt><trkpt lat="46.0529389512" lon="6.0894504748"><ele>790.34</ele><time>2014-09-08T00:45:57Z</time></trkpt><trkpt lat="46.0529539548" lon="6.0894543305"><ele>790.34</ele><time>2014-09-08T00:45:58Z</time></trkpt><trkpt lat="46.0529731493" lon="6.0894569289"><ele>790.34</ele><time>2014-09-08T00:45:59Z</time></trkpt><trkpt lat="46.0529884882" lon="6.0894600302"><ele>790.34</ele><time>2014-09-08T00:46:00Z</time></trkpt><trkpt lat="46.0530057549" lon="6.0894649755"><ele>790.82</ele><time>2014-09-08T00:46:01Z</time></trkpt><trkpt lat="46.0530183278" lon="6.0894667357"><ele>791.30</ele><time>2014-09-08T00:46:02Z</time></trkpt><trkpt lat="46.0530350916" lon="6.0894682445"><ele>791.30</ele><time>2014-09-08T00:46:03Z</time></trkpt><trkpt lat="46.0530511849" lon="6.0894687474"><ele>791.78</ele><time>2014-09-08T00:46:04Z</time></trkpt><trkpt lat="46.0530666076" lon="6.0894674901"><ele>792.26</ele><time>2014-09-08T00:46:05Z</time></trkpt><trkpt lat="46.0530904122" lon="6.0894531570"><ele>793.22</ele><time>2014-09-08T00:46:16Z</time></trkpt><trkpt lat="46.0530945193" lon="6.0894669034"><ele>792.74</ele><time>2014-09-08T00:46:47Z</time></trkpt><trkpt lat="46.0531579703" lon="6.0894596949"><ele>793.22</ele><time>2014-09-08T00:47:04Z</time></trkpt><trkpt lat="46.0532046575" lon="6.0894721001"><ele>794.19</ele><time>2014-09-08T00:47:07Z</time></trkpt><trkpt lat="46.0532241035" lon="6.0894700047"><ele>794.19</ele><time>2014-09-08T00:47:08Z</time></trkpt><trkpt lat="46.0534727946" lon="6.0895530693"><ele>796.11</ele><time>2014-09-08T00:47:21Z</time></trkpt><trkpt lat="46.0536189750" lon="6.0896014329"><ele>797.07</ele><time>2014-09-08T00:47:30Z</time></trkpt><trkpt lat="46.0536328889" lon="6.0896061268"><ele>797.07</ele><time>2014-09-08T00:47:31Z</time></trkpt><trkpt lat="46.0536453780" lon="6.0896143410"><ele>797.07</ele><time>2014-09-08T00:47:32Z</time></trkpt><trkpt lat="46.0536604654" lon="6.0896238964"><ele>797.07</ele><time>2014-09-08T00:47:33Z</time></trkpt><trkpt lat="46.0536763072" lon="6.0896321107"><ele>797.07</ele><time>2014-09-08T00:47:34Z</time></trkpt><trkpt lat="46.0536932386" lon="6.0896373913"><ele>797.55</ele><time>2014-09-08T00:47:35Z</time></trkpt><trkpt lat="46.0537101701" lon="6.0896440968"><ele>797.55</ele><time>2014-09-08T00:47:36Z</time></trkpt><trkpt lat="46.0537265986" lon="6.0896539036"><ele>798.03</ele><time>2014-09-08T00:47:37Z</time></trkpt><trkpt lat="46.0539316200" lon="6.0897849128"><ele>799.47</ele><time>2014-09-08T00:47:50Z</time></trkpt><trkpt lat="46.0540321190" lon="6.0898219608"><ele>801.40</ele><time>2014-09-08T00:47:56Z</time></trkpt><trkpt lat="46.0540493019" lon="6.0898264870"><ele>801.88</ele><time>2014-09-08T00:47:57Z</time></trkpt><trkpt lat="46.0542876832" lon="6.0897865053"><ele>804.28</ele><time>2014-09-08T00:48:11Z</time></trkpt><trkpt lat="46.0545108095" lon="6.0896225553"><ele>805.72</ele><time>2014-09-08T00:48:26Z</time></trkpt><trkpt lat="46.0545845702" lon="6.0895697493"><ele>805.72</ele><time>2014-09-08T00:48:31Z</time></trkpt><trkpt lat="46.0545965564" lon="6.0895534884"><ele>805.72</ele><time>2014-09-08T00:48:32Z</time></trkpt><trkpt lat="46.0546101350" lon="6.0895394068"><ele>805.72</ele><time>2014-09-08T00:48:33Z</time></trkpt><trkpt lat="46.0546257254" lon="6.0895312764"><ele>805.72</ele><time>2014-09-08T00:48:34Z</time></trkpt><trkpt lat="46.0546413157" lon="6.0895270854"><ele>806.20</ele><time>2014-09-08T00:48:35Z</time></trkpt><trkpt lat="46.0548328422" lon="6.0894028656"><ele>807.16</ele><time>2014-09-08T00:48:48Z</time></trkpt><trkpt lat="46.0549221933" lon="6.0893818270"><ele>807.16</ele><time>2014-09-08T00:48:54Z</time></trkpt><trkpt lat="46.0549368616" lon="6.0893716849"><ele>807.64</ele><time>2014-09-08T00:48:55Z</time></trkpt><trkpt lat="46.0549507756" lon="6.0893670749"><ele>807.64</ele><time>2014-09-08T00:48:56Z</time></trkpt><trkpt lat="46.0549670365" lon="6.0893647280"><ele>807.64</ele><time>2014-09-08T00:48:57Z</time></trkpt><trkpt lat="46.0549833812" lon="6.0893605370"><ele>807.64</ele><time>2014-09-08T00:48:58Z</time></trkpt><trkpt lat="46.0551859718" lon="6.0893193819"><ele>809.09</ele><time>2014-09-08T00:49:11Z</time></trkpt><trkpt lat="46.0552017298" lon="6.0893218126"><ele>809.09</ele><time>2014-09-08T00:49:12Z</time></trkpt><trkpt lat="46.0552179068" lon="6.0893238243"><ele>809.09</ele><time>2014-09-08T00:49:13Z</time></trkpt><trkpt lat="46.0552336648" lon="6.0893249139"><ele>809.57</ele><time>2014-09-08T00:49:14Z</time></trkpt><trkpt lat="46.0552492552" lon="6.0893248301"><ele>809.57</ele><time>2014-09-08T00:49:15Z</time></trkpt><trkpt lat="46.0552776698" lon="6.0893296078"><ele>809.57</ele><time>2014-09-08T00:49:17Z</time></trkpt><trkpt lat="46.0552905779" lon="6.0893331282"><ele>809.57</ele><time>2014-09-08T00:49:18Z</time></trkpt><trkpt lat="46.0553053301" lon="6.0893312842"><ele>809.57</ele><time>2014-09-08T00:49:19Z</time></trkpt><trkpt lat="46.0553189088" lon="6.0893312003"><ele>810.05</ele><time>2014-09-08T00:49:20Z</time></trkpt><trkpt lat="46.0553324874" lon="6.0893322062"><ele>810.05</ele><time>2014-09-08T00:49:21Z</time></trkpt><trkpt lat="46.0554491635" lon="6.0893602017"><ele>811.01</ele><time>2014-09-08T00:49:29Z</time></trkpt><trkpt lat="46.0554654244" lon="6.0893689189"><ele>811.01</ele><time>2014-09-08T00:49:30Z</time></trkpt><trkpt lat="46.0555158835" lon="6.0893835872"><ele>811.49</ele><time>2014-09-08T00:49:34Z</time></trkpt><trkpt lat="46.0555567034" lon="6.0894092359"><ele>812.45</ele><time>2014-09-08T00:49:37Z</time></trkpt><trkpt lat="46.0555714555" lon="6.0894149356"><ele>812.93</ele><time>2014-09-08T00:49:38Z</time></trkpt><trkpt lat="46.0558156203" lon="6.0894998442"><ele>814.37</ele><time>2014-09-08T00:49:55Z</time></trkpt><trkpt lat="46.0558282770" lon="6.0895099025"><ele>814.37</ele><time>2014-09-08T00:49:56Z</time></trkpt><trkpt lat="46.0558422748" lon="6.0895203799"><ele>814.37</ele><time>2014-09-08T00:49:57Z</time></trkpt><trkpt lat="46.0558569431" lon="6.0895274207"><ele>814.85</ele><time>2014-09-08T00:49:58Z</time></trkpt><trkpt lat="46.0558711924" lon="6.0895335395"><ele>814.85</ele><time>2014-09-08T00:49:59Z</time></trkpt><trkpt lat="46.0558859445" lon="6.0895370599"><ele>814.85</ele><time>2014-09-08T00:50:00Z</time></trkpt><trkpt lat="46.0558995232" lon="6.0895387363"><ele>815.34</ele><time>2014-09-08T00:50:01Z</time></trkpt><trkpt lat="46.0559144430" lon="6.0895384010"><ele>815.34</ele><time>2014-09-08T00:50:02Z</time></trkpt><trkpt lat="46.0559313744" lon="6.0895293485"><ele>815.34</ele><time>2014-09-08T00:50:03Z</time></trkpt><trkpt lat="46.0559995193" lon="6.0895327851"><ele>815.82</ele><time>2014-09-08T00:50:07Z</time></trkpt><trkpt lat="46.0562369786" lon="6.0893958248"><ele>817.26</ele><time>2014-09-08T00:50:22Z</time></trkpt><trkpt lat="46.0562509764" lon="6.0893844254"><ele>817.26</ele><time>2014-09-08T00:50:23Z</time></trkpt><trkpt lat="46.0562674049" lon="6.0893788934"><ele>817.26</ele><time>2014-09-08T00:50:24Z</time></trkpt><trkpt lat="46.0562816542" lon="6.0893740319"><ele>817.74</ele><time>2014-09-08T00:50:25Z</time></trkpt><trkpt lat="46.0565475281" lon="6.0891105887"><ele>819.66</ele><time>2014-09-08T00:50:45Z</time></trkpt><trkpt lat="46.0566845722" lon="6.0889832675"><ele>820.14</ele><time>2014-09-08T00:50:55Z</time></trkpt><trkpt lat="46.0567807127" lon="6.0888601374"><ele>821.10</ele><time>2014-09-08T00:51:03Z</time></trkpt><trkpt lat="46.0567952134" lon="6.0888507497"><ele>821.10</ele><time>2014-09-08T00:51:04Z</time></trkpt><trkpt lat="46.0568097979" lon="6.0888388474"><ele>821.10</ele><time>2014-09-08T00:51:05Z</time></trkpt><trkpt lat="46.0568258073" lon="6.0888292082"><ele>821.10</ele><time>2014-09-08T00:51:06Z</time></trkpt><trkpt lat="46.0568408947" lon="6.0888197366"><ele>821.58</ele><time>2014-09-08T00:51:07Z</time></trkpt><trkpt lat="46.0568535514" lon="6.0888082534"><ele>821.58</ele><time>2014-09-08T00:51:08Z</time></trkpt><trkpt lat="46.0568684712" lon="6.0887989495"><ele>821.58</ele><time>2014-09-08T00:51:09Z</time></trkpt><trkpt lat="46.0568832234" lon="6.0887947585"><ele>821.58</ele><time>2014-09-08T00:51:10Z</time></trkpt><trkpt lat="46.0570097063" lon="6.0887582134"><ele>821.10</ele><time>2014-09-08T00:51:19Z</time></trkpt><trkpt lat="46.0570242070" lon="6.0887617338"><ele>821.10</ele><time>2014-09-08T00:51:20Z</time></trkpt><trkpt lat="46.0570372827" lon="6.0887582134"><ele>821.10</ele><time>2014-09-08T00:51:21Z</time></trkpt><trkpt lat="46.0570496880" lon="6.0887580458"><ele>821.10</ele><time>2014-09-08T00:51:22Z</time></trkpt><trkpt lat="46.0570629314" lon="6.0887607280"><ele>821.58</ele><time>2014-09-08T00:51:23Z</time></trkpt><trkpt lat="46.0570759233" lon="6.0887644999"><ele>822.06</ele><time>2014-09-08T00:51:24Z</time></trkpt><trkpt lat="46.0570894182" lon="6.0887671821"><ele>822.06</ele><time>2014-09-08T00:51:25Z</time></trkpt><trkpt lat="46.0571285617" lon="6.0887655057"><ele>822.55</ele><time>2014-09-08T00:51:28Z</time></trkpt><trkpt lat="46.0571431462" lon="6.0887738038"><ele>823.03</ele><time>2014-09-08T00:51:29Z</time></trkpt><trkpt lat="46.0571585689" lon="6.0887830239"><ele>823.51</ele><time>2014-09-08T00:51:30Z</time></trkpt><trkpt lat="46.0571742430" lon="6.0887929983"><ele>823.99</ele><time>2014-09-08T00:51:31Z</time></trkpt><trkpt lat="46.0571874026" lon="6.0888038948"><ele>824.47</ele><time>2014-09-08T00:51:32Z</time></trkpt><trkpt lat="46.0572011489" lon="6.0888153780"><ele>824.95</ele><time>2014-09-08T00:51:33Z</time></trkpt><trkpt lat="46.0572130512" lon="6.0888282862"><ele>824.95</ele><time>2014-09-08T00:51:34Z</time></trkpt><trkpt lat="46.0572618339" lon="6.0888712015"><ele>825.91</ele><time>2014-09-08T00:51:38Z</time></trkpt><trkpt lat="46.0572870634" lon="6.0888838582"><ele>824.95</ele><time>2014-09-08T00:51:51Z</time></trkpt><trkpt lat="46.0573003907" lon="6.0889002029"><ele>825.43</ele><time>2014-09-08T00:52:17Z</time></trkpt><trkpt lat="46.0573184118" lon="6.0888950899"><ele>824.95</ele><time>2014-09-08T00:52:19Z</time></trkpt><trkpt lat="46.0573286377" lon="6.0888998676"><ele>825.43</ele><time>2014-09-08T00:52:20Z</time></trkpt><trkpt lat="46.0573390312" lon="6.0889102612"><ele>825.43</ele><time>2014-09-08T00:52:21Z</time></trkpt><trkpt lat="46.0573511850" lon="6.0889185593"><ele>825.43</ele><time>2014-09-08T00:52:22Z</time></trkpt><trkpt lat="46.0573655181" lon="6.0889292881"><ele>825.91</ele><time>2014-09-08T00:52:23Z</time></trkpt><trkpt lat="46.0573796835" lon="6.0889407713"><ele>826.39</ele><time>2014-09-08T00:52:24Z</time></trkpt><trkpt lat="46.0573943518" lon="6.0889459681"><ele>826.39</ele><time>2014-09-08T00:52:25Z</time></trkpt><trkpt lat="46.0574071761" lon="6.0889530089"><ele>826.87</ele><time>2014-09-08T00:52:26Z</time></trkpt><trkpt lat="46.0574168991" lon="6.0889690183"><ele>826.87</ele><time>2014-09-08T00:52:27Z</time></trkpt><trkpt lat="46.0574262869" lon="6.0889868718"><ele>827.35</ele><time>2014-09-08T00:52:28Z</time></trkpt><trkpt lat="46.0574360099" lon="6.0890007019"><ele>827.35</ele><time>2014-09-08T00:52:29Z</time></trkpt><trkpt lat="46.0574475769" lon="6.0890150350"><ele>827.83</ele><time>2014-09-08T00:52:30Z</time></trkpt><trkpt lat="46.0574710462" lon="6.0890419409"><ele>827.83</ele><time>2014-09-08T00:52:32Z</time></trkpt><trkpt lat="46.0574861336" lon="6.0890512448"><ele>828.31</ele><time>2014-09-08T00:52:33Z</time></trkpt><trkpt lat="46.0575002991" lon="6.0890625603"><ele>828.31</ele><time>2014-09-08T00:52:34Z</time></trkpt><trkpt lat="46.0575144645" lon="6.0890732892"><ele>828.79</ele><time>2014-09-08T00:52:35Z</time></trkpt><trkpt lat="46.0575293005" lon="6.0890814196"><ele>828.79</ele><time>2014-09-08T00:52:36Z</time></trkpt><trkpt lat="46.0575428791" lon="6.0890928190"><ele>828.79</ele><time>2014-09-08T00:52:37Z</time></trkpt><trkpt lat="46.0575565416" lon="6.0891023744"><ele>828.79</ele><time>2014-09-08T00:52:38Z</time></trkpt><trkpt lat="46.0575728025" lon="6.0891157854"><ele>829.27</ele><time>2014-09-08T00:52:39Z</time></trkpt><trkpt lat="46.0575846210" lon="6.0891246703"><ele>829.27</ele><time>2014-09-08T00:52:40Z</time></trkpt><trkpt lat="46.0575992055" lon="6.0891308729"><ele>829.27</ele><time>2014-09-08T00:52:41Z</time></trkpt><trkpt lat="46.0576138739" lon="6.0891402606"><ele>829.27</ele><time>2014-09-08T00:52:42Z</time></trkpt><trkpt lat="46.0576323140" lon="6.0891509056"><ele>829.27</ele><time>2014-09-08T00:52:43Z</time></trkpt><trkpt lat="46.0576458089" lon="6.0891600419"><ele>829.76</ele><time>2014-09-08T00:52:44Z</time></trkpt><trkpt lat="46.0576618183" lon="6.0891680885"><ele>829.76</ele><time>2014-09-08T00:52:45Z</time></trkpt><trkpt lat="46.0576784983" lon="6.0891712736"><ele>829.76</ele><time>2014-09-08T00:52:46Z</time></trkpt><trkpt lat="46.0577375069" lon="6.0891927313"><ele>830.72</ele><time>2014-09-08T00:52:50Z</time></trkpt><trkpt lat="46.0579406843" lon="6.0891820025"><ele>832.16</ele><time>2014-09-08T00:53:03Z</time></trkpt><trkpt lat="46.0579546820" lon="6.0891713575"><ele>832.16</ele><time>2014-09-08T00:53:04Z</time></trkpt><trkpt lat="46.0579695180" lon="6.0891638976"><ele>832.16</ele><time>2014-09-08T00:53:05Z</time></trkpt><trkpt lat="46.0579817556" lon="6.0891533364"><ele>832.16</ele><time>2014-09-08T00:53:06Z</time></trkpt><trkpt lat="46.0579912271" lon="6.0891368240"><ele>832.16</ele><time>2014-09-08T00:53:07Z</time></trkpt><trkpt lat="46.0580027942" lon="6.0891204793"><ele>832.16</ele><time>2014-09-08T00:53:08Z</time></trkpt><trkpt lat="46.0580607969" lon="6.0890336428"><ele>832.64</ele><time>2014-09-08T00:53:13Z</time></trkpt><trkpt lat="46.0580698494" lon="6.0890141129"><ele>832.64</ele><time>2014-09-08T00:53:14Z</time></trkpt><trkpt lat="46.0580815841" lon="6.0889995284"><ele>832.64</ele><time>2014-09-08T00:53:15Z</time></trkpt><trkpt lat="46.0582283512" lon="6.0888406914"><ele>834.08</ele><time>2014-09-08T00:53:26Z</time></trkpt><trkpt lat="46.0582372360" lon="6.0888227541"><ele>834.08</ele><time>2014-09-08T00:53:27Z</time></trkpt><trkpt lat="46.0582471266" lon="6.0888054874"><ele>834.08</ele><time>2014-09-08T00:53:28Z</time></trkpt><trkpt lat="46.0584735218" lon="6.0886386037"><ele>836.00</ele><time>2014-09-08T00:53:45Z</time></trkpt><trkpt lat="46.0584988352" lon="6.0886173975"><ele>836.96</ele><time>2014-09-08T00:53:58Z</time></trkpt><trkpt lat="46.0585268307" lon="6.0886042379"><ele>837.45</ele><time>2014-09-08T00:54:28Z</time></trkpt><trkpt lat="46.0585372243" lon="6.0885904077"><ele>837.45</ele><time>2014-09-08T00:54:29Z</time></trkpt><trkpt lat="46.0585508868" lon="6.0885832831"><ele>837.93</ele><time>2014-09-08T00:54:30Z</time></trkpt><trkpt lat="46.0585663933" lon="6.0885846242"><ele>837.93</ele><time>2014-09-08T00:54:31Z</time></trkpt><trkpt lat="46.0585825704" lon="6.0885855462"><ele>837.93</ele><time>2014-09-08T00:54:32Z</time></trkpt><trkpt lat="46.0585980769" lon="6.0885828640"><ele>837.93</ele><time>2014-09-08T00:54:33Z</time></trkpt><trkpt lat="46.0586130805" lon="6.0885783378"><ele>838.41</ele><time>2014-09-08T00:54:34Z</time></trkpt><trkpt lat="46.0586274974" lon="6.0885709617"><ele>838.41</ele><time>2014-09-08T00:54:35Z</time></trkpt><trkpt lat="46.0586424172" lon="6.0885592271"><ele>838.41</ele><time>2014-09-08T00:54:36Z</time></trkpt><trkpt lat="46.0586582590" lon="6.0885480791"><ele>838.41</ele><time>2014-09-08T00:54:37Z</time></trkpt><trkpt lat="46.0586734302" lon="6.0885384399"><ele>838.41</ele><time>2014-09-08T00:54:38Z</time></trkpt><trkpt lat="46.0586899426" lon="6.0885301419"><ele>838.89</ele><time>2014-09-08T00:54:39Z</time></trkpt><trkpt lat="46.0587042756" lon="6.0885216761"><ele>838.89</ele><time>2014-09-08T00:54:40Z</time></trkpt><trkpt lat="46.0587191116" lon="6.0885108635"><ele>838.89</ele><time>2014-09-08T00:54:41Z</time></trkpt><trkpt lat="46.0587352887" lon="6.0885032360"><ele>838.89</ele><time>2014-09-08T00:54:42Z</time></trkpt><trkpt lat="46.0587496217" lon="6.0885009728"><ele>839.37</ele><time>2014-09-08T00:54:43Z</time></trkpt><trkpt lat="46.0587640386" lon="6.0885003861"><ele>839.37</ele><time>2014-09-08T00:54:44Z</time></trkpt><trkpt lat="46.0588093009" lon="6.0884906631"><ele>839.37</ele><time>2014-09-08T00:54:47Z</time></trkpt><trkpt lat="46.0588259809" lon="6.0884878132"><ele>839.37</ele><time>2014-09-08T00:54:48Z</time></trkpt><trkpt lat="46.0589179303" lon="6.0884548724"><ele>840.33</ele><time>2014-09-08T00:54:54Z</time></trkpt><trkpt lat="46.0589323472" lon="6.0884478316"><ele>840.33</ele><time>2014-09-08T00:54:55Z</time></trkpt><trkpt lat="46.0590576567" lon="6.0883801896"><ele>841.29</ele><time>2014-09-08T00:55:03Z</time></trkpt><trkpt lat="46.0592590738" lon="6.0883104522"><ele>842.73</ele><time>2014-09-08T00:55:16Z</time></trkpt><trkpt lat="46.0595170688" lon="6.0882372782"><ele>845.14</ele><time>2014-09-08T00:55:32Z</time></trkpt><trkpt lat="46.0597627424" lon="6.0881697200"><ele>847.06</ele><time>2014-09-08T00:55:48Z</time></trkpt><trkpt lat="46.0597760696" lon="6.0881668702"><ele>847.06</ele><time>2014-09-08T00:55:49Z</time></trkpt><trkpt lat="46.0600364953" lon="6.0881695524"><ele>847.54</ele><time>2014-09-08T00:56:05Z</time></trkpt><trkpt lat="46.0603656527" lon="6.0881534591"><ele>848.02</ele><time>2014-09-08T00:56:20Z</time></trkpt><trkpt lat="46.0607288405" lon="6.0880906787"><ele>849.46</ele><time>2014-09-08T00:56:35Z</time></trkpt><trkpt lat="46.0611116420" lon="6.0879755951"><ele>850.42</ele><time>2014-09-08T00:56:49Z</time></trkpt><trkpt lat="46.0613169987" lon="6.0880677961"><ele>851.87</ele><time>2014-09-08T00:57:00Z</time></trkpt><trkpt lat="46.0613302421" lon="6.0880833026"><ele>851.87</ele><time>2014-09-08T00:57:01Z</time></trkpt><trkpt lat="46.0613437369" lon="6.0880998150"><ele>851.87</ele><time>2014-09-08T00:57:02Z</time></trkpt><trkpt lat="46.0614042543" lon="6.0881773476"><ele>852.83</ele><time>2014-09-08T00:57:07Z</time></trkpt><trkpt lat="46.0615191702" lon="6.0884920880"><ele>855.71</ele><time>2014-09-08T00:57:23Z</time></trkpt><trkpt lat="46.0615233611" lon="6.0885095224"><ele>855.71</ele><time>2014-09-08T00:57:24Z</time></trkpt><trkpt lat="46.0615513567" lon="6.0886265337"><ele>857.15</ele><time>2014-09-08T00:57:30Z</time></trkpt><trkpt lat="46.0616666079" lon="6.0888803378"><ele>859.08</ele><time>2014-09-08T00:57:43Z</time></trkpt><trkpt lat="46.0618722998" lon="6.0890608840"><ele>860.04</ele><time>2014-09-08T00:57:56Z</time></trkpt><trkpt lat="46.0622638185" lon="6.0889783222"><ele>860.52</ele><time>2014-09-08T00:58:13Z</time></trkpt><trkpt lat="46.0625579394" lon="6.0885581374"><ele>861.00</ele><time>2014-09-08T00:58:31Z</time></trkpt><trkpt lat="46.0626805667" lon="6.0884117056"><ele>861.00</ele><time>2014-09-08T00:58:39Z</time></trkpt><trkpt lat="46.0626995936" lon="6.0884056706"><ele>860.52</ele><time>2014-09-08T00:58:40Z</time></trkpt><trkpt lat="46.0627196264" lon="6.0883961152"><ele>860.52</ele><time>2014-09-08T00:58:41Z</time></trkpt><trkpt lat="46.0627404973" lon="6.0883876495"><ele>861.00</ele><time>2014-09-08T00:58:42Z</time></trkpt><trkpt lat="46.0627621226" lon="6.0883808602"><ele>861.00</ele><time>2014-09-08T00:58:43Z</time></trkpt><trkpt lat="46.0630817246" lon="6.0884187464"><ele>862.92</ele><time>2014-09-08T00:58:57Z</time></trkpt><trkpt lat="46.0634354409" lon="6.0885029007"><ele>862.92</ele><time>2014-09-08T00:59:12Z</time></trkpt><trkpt lat="46.0638539493" lon="6.0886115301"><ele>864.84</ele><time>2014-09-08T00:59:30Z</time></trkpt><trkpt lat="46.0642401874" lon="6.0886333231"><ele>867.25</ele><time>2014-09-08T00:59:45Z</time></trkpt><trkpt lat="46.0645838454" lon="6.0886614863"><ele>871.09</ele><time>2014-09-08T00:59:59Z</time></trkpt><trkpt lat="46.0649082251" lon="6.0886060819"><ele>873.01</ele><time>2014-09-08T01:00:13Z</time></trkpt><trkpt lat="46.0650306009" lon="6.0886323173"><ele>874.46</ele><time>2014-09-08T01:00:20Z</time></trkpt><trkpt lat="46.0650422517" lon="6.0886370949"><ele>874.94</ele><time>2014-09-08T01:00:21Z</time></trkpt><trkpt lat="46.0650826525" lon="6.0886493325"><ele>874.94</ele><time>2014-09-08T01:00:26Z</time></trkpt><trkpt lat="46.0653930344" lon="6.0885617416"><ele>874.94</ele><time>2014-09-08T01:00:39Z</time></trkpt><trkpt lat="46.0658288095" lon="6.0885448940"><ele>874.46</ele><time>2014-09-08T01:00:53Z</time></trkpt><trkpt lat="46.0663497448" lon="6.0884557106"><ele>874.46</ele><time>2014-09-08T01:01:10Z</time></trkpt><trkpt lat="46.0666495655" lon="6.0881646909"><ele>875.42</ele><time>2014-09-08T01:01:25Z</time></trkpt><trkpt lat="46.0668404214" lon="6.0878451727"><ele>876.86</ele><time>2014-09-08T01:01:38Z</time></trkpt><trkpt lat="46.0669335444" lon="6.0875414126"><ele>878.30</ele><time>2014-09-08T01:01:49Z</time></trkpt><trkpt lat="46.0670435987" lon="6.0871998500"><ele>878.78</ele><time>2014-09-08T01:02:02Z</time></trkpt><trkpt lat="46.0670196265" lon="6.0867826827"><ele>876.38</ele><time>2014-09-08T01:02:18Z</time></trkpt><trkpt lat="46.0670142621" lon="6.0867677629"><ele>876.38</ele><time>2014-09-08T01:02:19Z</time></trkpt><trkpt lat="46.0670080595" lon="6.0867497418"><ele>876.38</ele><time>2014-09-08T01:02:20Z</time></trkpt><trkpt lat="46.0670032818" lon="6.0867309663"><ele>876.38</ele><time>2014-09-08T01:02:21Z</time></trkpt><trkpt lat="46.0669965763" lon="6.0867158789"><ele>876.38</ele><time>2014-09-08T01:02:22Z</time></trkpt><trkpt lat="46.0669815727" lon="6.0867048148"><ele>875.42</ele><time>2014-09-08T01:02:35Z</time></trkpt><trkpt lat="46.0669954028" lon="6.0867139511"><ele>877.34</ele><time>2014-09-08T01:03:03Z</time></trkpt><trkpt lat="46.0669915471" lon="6.0867197346"><ele>877.34</ele><time>2014-09-08T01:03:42Z</time></trkpt><trkpt lat="46.0669860989" lon="6.0867080837"><ele>875.42</ele><time>2014-09-08T01:04:15Z</time></trkpt><trkpt lat="46.0669588577" lon="6.0866364185"><ele>876.38</ele><time>2014-09-08T01:04:38Z</time></trkpt><trkpt lat="46.0667952430" lon="6.0862340871"><ele>875.42</ele><time>2014-09-08T01:04:51Z</time></trkpt><trkpt lat="46.0666729510" lon="6.0856408160"><ele>875.42</ele><time>2014-09-08T01:05:04Z</time></trkpt><trkpt lat="46.0666407645" lon="6.0852834117"><ele>874.94</ele><time>2014-09-08T01:05:11Z</time></trkpt><trkpt lat="46.0666393396" lon="6.0852241516"><ele>874.46</ele><time>2014-09-08T01:05:12Z</time></trkpt><trkpt lat="46.0666363221" lon="6.0844790842"><ele>871.57</ele><time>2014-09-08T01:05:22Z</time></trkpt><trkpt lat="46.0666480567" lon="6.0843932535"><ele>871.09</ele><time>2014-09-08T01:05:23Z</time></trkpt><trkpt lat="46.0666658264" lon="6.0843051597"><ele>871.09</ele><time>2014-09-08T01:05:24Z</time></trkpt><trkpt lat="46.0667967517" lon="6.0839188378"><ele>869.65</ele><time>2014-09-08T01:05:30Z</time></trkpt><trkpt lat="46.0669465363" lon="6.0836668778"><ele>869.17</ele><time>2014-09-08T01:05:40Z</time></trkpt><trkpt lat="46.0669481289" lon="6.0836677998"><ele>870.61</ele><time>2014-09-08T01:06:06Z</time></trkpt><trkpt lat="46.0669463687" lon="6.0836734157"><ele>872.53</ele><time>2014-09-08T01:06:35Z</time></trkpt><trkpt lat="46.0669466201" lon="6.0836714040"><ele>871.09</ele><time>2014-09-08T01:07:11Z</time></trkpt><trkpt lat="46.0669460334" lon="6.0836609267"><ele>872.05</ele><time>2014-09-08T01:07:55Z</time></trkpt><trkpt lat="46.0669808183" lon="6.0836092941"><ele>872.05</ele><time>2014-09-08T01:08:25Z</time></trkpt><trkpt lat="46.0672430880" lon="6.0831914563"><ele>870.13</ele><time>2014-09-08T01:08:36Z</time></trkpt><trkpt lat="46.0674155876" lon="6.0830632970"><ele>868.69</ele><time>2014-09-08T01:08:41Z</time></trkpt><trkpt lat="46.0674590059" lon="6.0830478743"><ele>868.69</ele><time>2014-09-08T01:08:42Z</time></trkpt><trkpt lat="46.0675058607" lon="6.0830411687"><ele>868.21</ele><time>2014-09-08T01:08:43Z</time></trkpt><trkpt lat="46.0675548948" lon="6.0830419231"><ele>867.73</ele><time>2014-09-08T01:08:44Z</time></trkpt><trkpt lat="46.0676052701" lon="6.0830510594"><ele>867.25</ele><time>2014-09-08T01:08:45Z</time></trkpt><trkpt lat="46.0676556453" lon="6.0830690805"><ele>866.77</ele><time>2014-09-08T01:08:46Z</time></trkpt><trkpt lat="46.0677062720" lon="6.0830921307"><ele>865.80</ele><time>2014-09-08T01:08:47Z</time></trkpt><trkpt lat="46.0677590780" lon="6.0831140913"><ele>865.32</ele><time>2014-09-08T01:08:48Z</time></trkpt><trkpt lat="46.0678132251" lon="6.0831352137"><ele>864.84</ele><time>2014-09-08T01:08:49Z</time></trkpt><trkpt lat="46.0678653605" lon="6.0831627063"><ele>864.36</ele><time>2014-09-08T01:08:50Z</time></trkpt><trkpt lat="46.0679178312" lon="6.0831948929"><ele>863.88</ele><time>2014-09-08T01:08:51Z</time></trkpt><trkpt lat="46.0686567798" lon="6.0837683827"><ele>854.75</ele><time>2014-09-08T01:09:04Z</time></trkpt><trkpt lat="46.0688986816" lon="6.0840382800"><ele>851.87</ele><time>2014-09-08T01:09:09Z</time></trkpt><trkpt lat="46.0690067243" lon="6.0841262899"><ele>850.42</ele><time>2014-09-08T01:09:11Z</time></trkpt><trkpt lat="46.0698480997" lon="6.0847073235"><ele>840.81</ele><time>2014-09-08T01:09:25Z</time></trkpt><trkpt lat="46.0701209307" lon="6.0849928949"><ele>837.93</ele><time>2014-09-08T01:09:29Z</time></trkpt><trkpt lat="46.0705115274" lon="6.0855906922"><ele>833.12</ele><time>2014-09-08T01:09:37Z</time></trkpt><trkpt lat="46.0708874557" lon="6.0864634160"><ele>826.39</ele><time>2014-09-08T01:09:49Z</time></trkpt><trkpt lat="46.0709331371" lon="6.0865283757"><ele>825.91</ele><time>2014-09-08T01:09:50Z</time></trkpt><trkpt lat="46.0709873680" lon="6.0865883064"><ele>825.43</ele><time>2014-09-08T01:09:51Z</time></trkpt><trkpt lat="46.0710382462" lon="6.0866318084"><ele>824.95</ele><time>2014-09-08T01:09:52Z</time></trkpt><trkpt lat="46.0711029544" lon="6.0866733827"><ele>823.99</ele><time>2014-09-08T01:09:53Z</time></trkpt><trkpt lat="46.0711596999" lon="6.0867041443"><ele>823.51</ele><time>2014-09-08T01:09:54Z</time></trkpt><trkpt lat="46.0721112974" lon="6.0869464651"><ele>814.85</ele><time>2014-09-08T01:10:08Z</time></trkpt><trkpt lat="46.0730335582" lon="6.0870860238"><ele>806.68</ele><time>2014-09-08T01:10:21Z</time></trkpt><trkpt lat="46.0738948826" lon="6.0872441903"><ele>796.11</ele><time>2014-09-08T01:10:34Z</time></trkpt><trkpt lat="46.0739536397" lon="6.0872402508"><ele>795.15</ele><time>2014-09-08T01:10:35Z</time></trkpt><trkpt lat="46.0740083735" lon="6.0872248281"><ele>794.67</ele><time>2014-09-08T01:10:36Z</time></trkpt><trkpt lat="46.0740578268" lon="6.0871958267"><ele>794.19</ele><time>2014-09-08T01:10:37Z</time></trkpt><trkpt lat="46.0741032567" lon="6.0871591978"><ele>793.71</ele><time>2014-09-08T01:10:38Z</time></trkpt><trkpt lat="46.0741417296" lon="6.0871197190"><ele>793.22</ele><time>2014-09-08T01:10:39Z</time></trkpt><trkpt lat="46.0741745867" lon="6.0870794859"><ele>792.74</ele><time>2014-09-08T01:10:40Z</time></trkpt><trkpt lat="46.0742015764" lon="6.0870398395"><ele>792.26</ele><time>2014-09-08T01:10:41Z</time></trkpt><trkpt lat="46.0742254648" lon="6.0870051384"><ele>792.26</ele><time>2014-09-08T01:10:42Z</time></trkpt><trkpt lat="46.0742475092" lon="6.0869741254"><ele>792.26</ele><time>2014-09-08T01:10:43Z</time></trkpt><trkpt lat="46.0744162370" lon="6.0869229957"><ele>791.30</ele><time>2014-09-08T01:10:52Z</time></trkpt><trkpt lat="46.0744299833" lon="6.0869383346"><ele>791.30</ele><time>2014-09-08T01:10:53Z</time></trkpt><trkpt lat="46.0744461603" lon="6.0869732033"><ele>790.82</ele><time>2014-09-08T01:10:54Z</time></trkpt><trkpt lat="46.0744791012" lon="6.0876420792"><ele>788.42</ele><time>2014-09-08T01:11:06Z</time></trkpt><trkpt lat="46.0744725633" lon="6.0891205631"><ele>783.13</ele><time>2014-09-08T01:11:21Z</time></trkpt><trkpt lat="46.0747239366" lon="6.0908447206"><ele>777.36</ele><time>2014-09-08T01:11:36Z</time></trkpt><trkpt lat="46.0753033776" lon="6.0920474399"><ele>771.60</ele><time>2014-09-08T01:11:49Z</time></trkpt><trkpt lat="46.0762602556" lon="6.0933733732"><ele>766.31</ele><time>2014-09-08T01:12:07Z</time></trkpt><trkpt lat="46.0771970171" lon="6.0946827102"><ele>760.54</ele><time>2014-09-08T01:12:22Z</time></trkpt><trkpt lat="46.0783699807" lon="6.0963115655"><ele>752.37</ele><time>2014-09-08T01:12:39Z</time></trkpt><trkpt lat="46.0795801599" lon="6.0979013611"><ele>744.68</ele><time>2014-09-08T01:12:57Z</time></trkpt><trkpt lat="46.0806337651" lon="6.0990144778"><ele>738.91</ele><time>2014-09-08T01:13:12Z</time></trkpt><trkpt lat="46.0816811677" lon="6.0998921469"><ele>733.62</ele><time>2014-09-08T01:13:27Z</time></trkpt><trkpt lat="46.0826766863" lon="6.1001932248"><ele>729.30</ele><time>2014-09-08T01:13:41Z</time></trkpt><trkpt lat="46.0834764875" lon="6.1004329473"><ele>725.45</ele><time>2014-09-08T01:13:54Z</time></trkpt><trkpt lat="46.0843135044" lon="6.1008675490"><ele>720.16</ele><time>2014-09-08T01:14:08Z</time></trkpt><trkpt lat="46.0844782926" lon="6.1009734962"><ele>718.72</ele><time>2014-09-08T01:14:18Z</time></trkpt><trkpt lat="46.0844839085" lon="6.1009828839"><ele>718.24</ele><time>2014-09-08T01:14:19Z</time></trkpt><trkpt lat="46.0844858363" lon="6.1010093708"><ele>717.28</ele><time>2014-09-08T01:14:33Z</time></trkpt><trkpt lat="46.0844849143" lon="6.1010209378"><ele>718.24</ele><time>2014-09-08T01:15:02Z</time></trkpt><trkpt lat="46.0844792984" lon="6.1010077782"><ele>718.72</ele><time>2014-09-08T01:15:44Z</time></trkpt><trkpt lat="46.0844818968" lon="6.1009998992"><ele>716.80</ele><time>2014-09-08T01:16:13Z</time></trkpt><trkpt lat="46.0844821483" lon="6.1010062695"><ele>717.28</ele><time>2014-09-08T01:17:00Z</time></trkpt><trkpt lat="46.0844838247" lon="6.1010060180"><ele>717.76</ele><time>2014-09-08T01:17:36Z</time></trkpt><trkpt lat="46.0844884347" lon="6.1010070238"><ele>719.20</ele><time>2014-09-08T01:18:12Z</time></trkpt><trkpt lat="46.0844916198" lon="6.1010047607"><ele>718.24</ele><time>2014-09-08T01:18:34Z</time></trkpt><trkpt lat="46.0845098086" lon="6.1010103766"><ele>718.24</ele><time>2014-09-08T01:18:47Z</time></trkpt><trkpt lat="46.0845227167" lon="6.1010174174"><ele>718.24</ele><time>2014-09-08T01:18:48Z</time></trkpt><trkpt lat="46.0845392291" lon="6.1010270566"><ele>718.24</ele><time>2014-09-08T01:18:49Z</time></trkpt><trkpt lat="46.0845578369" lon="6.1010391265"><ele>718.24</ele><time>2014-09-08T01:18:50Z</time></trkpt><trkpt lat="46.0845797975" lon="6.1010509450"><ele>718.24</ele><time>2014-09-08T01:18:51Z</time></trkpt><trkpt lat="46.0846056137" lon="6.1010603327"><ele>717.76</ele><time>2014-09-08T01:18:52Z</time></trkpt><trkpt lat="46.0846336931" lon="6.1010719836"><ele>717.76</ele><time>2014-09-08T01:18:53Z</time></trkpt><trkpt lat="46.0846651252" lon="6.1010918487"><ele>717.76</ele><time>2014-09-08T01:18:54Z</time></trkpt><trkpt lat="46.0850612540" lon="6.1013116222"><ele>716.32</ele><time>2014-09-08T01:19:03Z</time></trkpt><trkpt lat="46.0852813628" lon="6.1016126163"><ele>714.88</ele><time>2014-09-08T01:19:13Z</time></trkpt><trkpt lat="46.0853889864" lon="6.1017216649"><ele>714.40</ele><time>2014-09-08T01:19:16Z</time></trkpt><trkpt lat="46.0854322370" lon="6.1017385125"><ele>714.40</ele><time>2014-09-08T01:19:17Z</time></trkpt><trkpt lat="46.0854878929" lon="6.1017375905"><ele>714.40</ele><time>2014-09-08T01:19:18Z</time></trkpt><trkpt lat="46.0855382681" lon="6.1017232575"><ele>714.40</ele><time>2014-09-08T01:19:19Z</time></trkpt><trkpt lat="46.0856168903" lon="6.1017020512"><ele>713.92</ele><time>2014-09-08T01:19:21Z</time></trkpt><trkpt lat="46.0856733844" lon="6.1016970221"><ele>713.92</ele><time>2014-09-08T01:19:22Z</time></trkpt><trkpt lat="46.0857575387" lon="6.1017111875"><ele>713.44</ele><time>2014-09-08T01:19:23Z</time></trkpt><trkpt lat="46.0858084168" lon="6.1017266940"><ele>713.44</ele><time>2014-09-08T01:19:24Z</time></trkpt><trkpt lat="46.0858664196" lon="6.1017464753"><ele>712.95</ele><time>2014-09-08T01:19:25Z</time></trkpt><trkpt lat="46.0868938733" lon="6.1021810770"><ele>708.15</ele><time>2014-09-08T01:19:40Z</time></trkpt><trkpt lat="46.0882122628" lon="6.1024430953"><ele>703.34</ele><time>2014-09-08T01:19:56Z</time></trkpt><trkpt lat="46.0893863160" lon="6.1023789737"><ele>698.53</ele><time>2014-09-08T01:20:09Z</time></trkpt><trkpt lat="46.0907162726" lon="6.1025771219"><ele>693.73</ele><time>2014-09-08T01:20:23Z</time></trkpt><trkpt lat="46.0920406971" lon="6.1032226123"><ele>686.52</ele><time>2014-09-08T01:20:37Z</time></trkpt><trkpt lat="46.0931020975" lon="6.1037860438"><ele>682.19</ele><time>2014-09-08T01:20:51Z</time></trkpt><trkpt lat="46.0932019260" lon="6.1038267799"><ele>681.71</ele><time>2014-09-08T01:20:53Z</time></trkpt><trkpt lat="46.0934107192" lon="6.1039197352"><ele>680.27</ele><time>2014-09-08T01:21:02Z</time></trkpt><trkpt lat="46.0934263933" lon="6.1039300449"><ele>680.27</ele><time>2014-09-08T01:21:20Z</time></trkpt><trkpt lat="46.0937970411" lon="6.1040014587"><ele>680.75</ele><time>2014-09-08T01:21:30Z</time></trkpt><trkpt lat="46.0946149472" lon="6.1040528398"><ele>677.39</ele><time>2014-09-08T01:21:43Z</time></trkpt><trkpt lat="46.0959278885" lon="6.1039884668"><ele>669.70</ele><time>2014-09-08T01:21:58Z</time></trkpt><trkpt lat="46.0972771235" lon="6.1039226688"><ele>662.97</ele><time>2014-09-08T01:22:12Z</time></trkpt><trkpt lat="46.0984753165" lon="6.1038677674"><ele>658.64</ele><time>2014-09-08T01:22:28Z</time></trkpt><trkpt lat="46.0993128363" lon="6.1039349902"><ele>657.20</ele><time>2014-09-08T01:22:42Z</time></trkpt><trkpt lat="46.0994426720" lon="6.1039746366"><ele>657.20</ele><time>2014-09-08T01:22:45Z</time></trkpt><trkpt lat="46.0994891915" lon="6.1039734632"><ele>657.20</ele><time>2014-09-08T01:22:46Z</time></trkpt><trkpt lat="46.0995377228" lon="6.1039614771"><ele>656.72</ele><time>2014-09-08T01:22:47Z</time></trkpt><trkpt lat="46.0995838232" lon="6.1039421149"><ele>656.72</ele><time>2014-09-08T01:22:48Z</time></trkpt><trkpt lat="46.0996353719" lon="6.1039170530"><ele>656.72</ele><time>2014-09-08T01:22:49Z</time></trkpt><trkpt lat="46.0996956378" lon="6.1038977746"><ele>656.72</ele><time>2014-09-08T01:22:50Z</time></trkpt><trkpt lat="46.0997306742" lon="6.1038965173"><ele>656.24</ele><time>2014-09-08T01:22:51Z</time></trkpt><trkpt lat="46.0997810494" lon="6.1039057374"><ele>656.24</ele><time>2014-09-08T01:22:52Z</time></trkpt><trkpt lat="46.0998290777" lon="6.1039245129"><ele>656.24</ele><time>2014-09-08T01:22:53Z</time></trkpt><trkpt lat="46.0998800397" lon="6.1039539333"><ele>656.24</ele><time>2014-09-08T01:22:54Z</time></trkpt><trkpt lat="46.0999333486" lon="6.1039818451"><ele>655.76</ele><time>2014-09-08T01:22:55Z</time></trkpt><trkpt lat="46.0999753419" lon="6.1040026322"><ele>655.76</ele><time>2014-09-08T01:22:56Z</time></trkpt><trkpt lat="46.1006935034" lon="6.1042590346"><ele>656.72</ele><time>2014-09-08T01:23:11Z</time></trkpt><trkpt lat="46.1008318886" lon="6.1042892933"><ele>657.20</ele><time>2014-09-08T01:23:14Z</time></trkpt><trkpt lat="46.1016344558" lon="6.1044931412"><ele>657.68</ele><time>2014-09-08T01:23:31Z</time></trkpt><trkpt lat="46.1026668549" lon="6.1047596019"><ele>655.76</ele><time>2014-09-08T01:23:51Z</time></trkpt><trkpt lat="46.1036725156" lon="6.1049880926"><ele>655.28</ele><time>2014-09-08T01:24:09Z</time></trkpt><trkpt lat="46.1044197623" lon="6.1051885877"><ele>654.80</ele><time>2014-09-08T01:24:22Z</time></trkpt><trkpt lat="46.1054897960" lon="6.1057469901"><ele>653.35</ele><time>2014-09-08T01:24:39Z</time></trkpt><trkpt lat="46.1063496955" lon="6.1065708473"><ele>649.99</ele><time>2014-09-08T01:24:53Z</time></trkpt><trkpt lat="46.1074022111" lon="6.1073900107"><ele>646.14</ele><time>2014-09-08T01:25:07Z</time></trkpt><trkpt lat="46.1084668804" lon="6.1078004725"><ele>640.38</ele><time>2014-09-08T01:25:19Z</time></trkpt><trkpt lat="46.1100939754" lon="6.1079140473"><ele>629.32</ele><time>2014-09-08T01:25:34Z</time></trkpt><trkpt lat="46.1121122539" lon="6.1079922505"><ele>615.38</ele><time>2014-09-08T01:25:51Z</time></trkpt><trkpt lat="46.1135170609" lon="6.1080562044"><ele>605.29</ele><time>2014-09-08T01:26:04Z</time></trkpt><trkpt lat="46.1146584246" lon="6.1081365868"><ele>595.67</ele><time>2014-09-08T01:26:17Z</time></trkpt><trkpt lat="46.1157266982" lon="6.1082552746"><ele>589.43</ele><time>2014-09-08T01:26:30Z</time></trkpt><trkpt lat="46.1168131605" lon="6.1089064647"><ele>583.66</ele><time>2014-09-08T01:26:47Z</time></trkpt><trkpt lat="46.1177085154" lon="6.1096496042"><ele>582.22</ele><time>2014-09-08T01:27:03Z</time></trkpt><trkpt lat="46.1185201351" lon="6.1103048176"><ele>580.29</ele><time>2014-09-08T01:27:17Z</time></trkpt><trkpt lat="46.1192974728" lon="6.1109253298"><ele>578.85</ele><time>2014-09-08T01:27:31Z</time></trkpt><trkpt lat="46.1203227472" lon="6.1116449162"><ele>576.93</ele><time>2014-09-08T01:27:47Z</time></trkpt><trkpt lat="46.1215003207" lon="6.1124117766"><ele>570.68</ele><time>2014-09-08T01:28:02Z</time></trkpt><trkpt lat="46.1227202229" lon="6.1132110748"><ele>564.43</ele><time>2014-09-08T01:28:16Z</time></trkpt><trkpt lat="46.1240291409" lon="6.1142640095"><ele>555.30</ele><time>2014-09-08T01:28:32Z</time></trkpt><trkpt lat="46.1246794090" lon="6.1152529065"><ele>551.45</ele><time>2014-09-08T01:28:43Z</time></trkpt><trkpt lat="46.1247886252" lon="6.1154517252"><ele>550.49</ele><time>2014-09-08T01:28:48Z</time></trkpt><trkpt lat="46.1248037964" lon="6.1154579278"><ele>550.49</ele><time>2014-09-08T01:28:49Z</time></trkpt><trkpt lat="46.1248173751" lon="6.1154675670"><ele>550.49</ele><time>2014-09-08T01:28:50Z</time></trkpt><trkpt lat="46.1248257570" lon="6.1154896114"><ele>550.49</ele><time>2014-09-08T01:28:51Z</time></trkpt><trkpt lat="46.1248304509" lon="6.1155132484"><ele>550.49</ele><time>2014-09-08T01:28:52Z</time></trkpt><trkpt lat="46.1249772180" lon="6.1158480216"><ele>549.53</ele><time>2014-09-08T01:29:01Z</time></trkpt><trkpt lat="46.1250254139" lon="6.1159606744"><ele>549.53</ele><time>2014-09-08T01:29:03Z</time></trkpt><trkpt lat="46.1255241372" lon="6.1167871300"><ele>548.57</ele><time>2014-09-08T01:29:18Z</time></trkpt><trkpt lat="46.1261665262" lon="6.1174282618"><ele>548.09</ele><time>2014-09-08T01:29:32Z</time></trkpt><trkpt lat="46.1269328836" lon="6.1183773447"><ele>545.69</ele><time>2014-09-08T01:29:49Z</time></trkpt><trkpt lat="46.1276541464" lon="6.1195763759"><ele>542.32</ele><time>2014-09-08T01:30:05Z</time></trkpt><trkpt lat="46.1282210983" lon="6.1203065235"><ele>538.96</ele><time>2014-09-08T01:30:15Z</time></trkpt><trkpt lat="46.1292490549" lon="6.1208545323"><ele>534.63</ele><time>2014-09-08T01:30:28Z</time></trkpt><trkpt lat="46.1303297337" lon="6.1214061454"><ele>531.27</ele><time>2014-09-08T01:30:42Z</time></trkpt><trkpt lat="46.1312414333" lon="6.1222243030"><ele>528.38</ele><time>2014-09-08T01:30:57Z</time></trkpt><trkpt lat="46.1322351918" lon="6.1233384255"><ele>525.02</ele><time>2014-09-08T01:31:15Z</time></trkpt><trkpt lat="46.1331218295" lon="6.1242318526"><ele>522.61</ele><time>2014-09-08T01:31:32Z</time></trkpt><trkpt lat="46.1333602108" lon="6.1243872531"><ele>522.13</ele><time>2014-09-08T01:31:37Z</time></trkpt><trkpt lat="46.1333961692" lon="6.1244355328"><ele>522.13</ele><time>2014-09-08T01:31:38Z</time></trkpt><trkpt lat="46.1334224045" lon="6.1244914401"><ele>522.13</ele><time>2014-09-08T01:31:39Z</time></trkpt><trkpt lat="46.1334484722" lon="6.1245704815"><ele>522.13</ele><time>2014-09-08T01:31:40Z</time></trkpt><trkpt lat="46.1334700976" lon="6.1246242933"><ele>522.13</ele><time>2014-09-08T01:31:41Z</time></trkpt><trkpt lat="46.1336410884" lon="6.1247998103"><ele>521.65</ele><time>2014-09-08T01:31:46Z</time></trkpt><trkpt lat="46.1336702574" lon="6.1248183344"><ele>521.65</ele><time>2014-09-08T01:31:47Z</time></trkpt><trkpt lat="46.1337661464" lon="6.1249113735"><ele>521.65</ele><time>2014-09-08T01:31:55Z</time></trkpt><trkpt lat="46.1337842513" lon="6.1249310710"><ele>524.54</ele><time>2014-09-08T01:32:35Z</time></trkpt><trkpt lat="46.1339539010" lon="6.1252378486"><ele>524.06</ele><time>2014-09-08T01:32:44Z</time></trkpt><trkpt lat="46.1340185255" lon="6.1253324803"><ele>523.58</ele><time>2014-09-08T01:32:46Z</time></trkpt><trkpt lat="46.1341704894" lon="6.1255297065"><ele>522.61</ele><time>2014-09-08T01:32:50Z</time></trkpt><trkpt lat="46.1351591349" lon="6.1265972257"><ele>519.25</ele><time>2014-09-08T01:33:12Z</time></trkpt><trkpt lat="46.1359435972" lon="6.1270635109"><ele>517.33</ele><time>2014-09-08T01:33:25Z</time></trkpt><trkpt lat="46.1367474217" lon="6.1274454743"><ele>513.96</ele><time>2014-09-08T01:33:38Z</time></trkpt><trkpt lat="46.1374913156" lon="6.1277528387"><ele>509.64</ele><time>2014-09-08T01:33:50Z</time></trkpt><trkpt lat="46.1376196425" lon="6.1278354842"><ele>508.67</ele><time>2014-09-08T01:33:53Z</time></trkpt><trkpt lat="46.1378203053" lon="6.1279726960"><ele>506.75</ele><time>2014-09-08T01:34:03Z</time></trkpt><trkpt lat="46.1378080677" lon="6.1279718578"><ele>506.27</ele><time>2014-09-08T01:34:45Z</time></trkpt><trkpt lat="46.1379001848" lon="6.1280606221"><ele>506.27</ele><time>2014-09-08T01:35:07Z</time></trkpt><trkpt lat="46.1379068904" lon="6.1280927248"><ele>505.79</ele><time>2014-09-08T01:35:09Z</time></trkpt><trkpt lat="46.1379192118" lon="6.1281125899"><ele>505.31</ele><time>2014-09-08T01:35:21Z</time></trkpt><trkpt lat="46.1380102392" lon="6.1285678949"><ele>504.83</ele><time>2014-09-08T01:35:33Z</time></trkpt><trkpt lat="46.1380757857" lon="6.1288820487"><ele>506.27</ele><time>2014-09-08T01:35:44Z</time></trkpt><trkpt lat="46.1380862631" lon="6.1288825516"><ele>506.27</ele><time>2014-09-08T01:35:45Z</time></trkpt><trkpt lat="46.1380924657" lon="6.1288559809"><ele>506.27</ele><time>2014-09-08T01:35:46Z</time></trkpt><trkpt lat="46.1380902026" lon="6.1288269795"><ele>506.27</ele><time>2014-09-08T01:35:47Z</time></trkpt><trkpt lat="46.1380869336" lon="6.1288009118"><ele>506.27</ele><time>2014-09-08T01:35:48Z</time></trkpt><trkpt lat="46.1380808149" lon="6.1287673842"><ele>506.27</ele><time>2014-09-08T01:35:49Z</time></trkpt><trkpt lat="46.1379993428" lon="6.1281505600"><ele>505.79</ele><time>2014-09-08T01:36:00Z</time></trkpt><trkpt lat="46.1380041204" lon="6.1281254981"><ele>505.79</ele><time>2014-09-08T01:36:01Z</time></trkpt><trkpt lat="46.1379949842" lon="6.1281487159"><ele>510.60</ele><time>2014-09-08T01:36:14Z</time></trkpt><trkpt lat="46.1379958224" lon="6.1281431839"><ele>512.04</ele><time>2014-09-08T01:36:20Z</time></trkpt><trkpt lat="46.1380028632" lon="6.1281272583"><ele>512.52</ele><time>2014-09-08T01:36:21Z</time></trkpt><trkpt lat="46.1380206328" lon="6.1281105783"><ele>512.52</ele><time>2014-09-08T01:36:22Z</time></trkpt><trkpt lat="46.1380705051" lon="6.1281015258"><ele>513.00</ele><time>2014-09-08T01:36:25Z</time></trkpt><trkpt lat="46.1380920466" lon="6.1281191278"><ele>513.48</ele><time>2014-09-08T01:36:26Z</time></trkpt><trkpt lat="46.1382860877" lon="6.1281712633"><ele>513.48</ele><time>2014-09-08T01:36:31Z</time></trkpt><trkpt lat="46.1386545561" lon="6.1284160987"><ele>510.12</ele><time>2014-09-08T01:36:39Z</time></trkpt><trkpt lat="46.1392665189" lon="6.1291866470"><ele>500.02</ele><time>2014-09-08T01:36:53Z</time></trkpt><trkpt lat="46.1393049918" lon="6.1292418838"><ele>499.54</ele><time>2014-09-08T01:36:54Z</time></trkpt><trkpt lat="46.1393388547" lon="6.1292990483"><ele>499.06</ele><time>2014-09-08T01:36:55Z</time></trkpt><trkpt lat="46.1393717118" lon="6.1293640081"><ele>499.06</ele><time>2014-09-08T01:36:56Z</time></trkpt><trkpt lat="46.1394118611" lon="6.1294654291"><ele>498.10</ele><time>2014-09-08T01:36:58Z</time></trkpt><trkpt lat="46.1395196524" lon="6.1297939997"><ele>496.18</ele><time>2014-09-08T01:37:02Z</time></trkpt><trkpt lat="46.1395544372" lon="6.1298578698"><ele>495.70</ele><time>2014-09-08T01:37:03Z</time></trkpt><trkpt lat="46.1395875458" lon="6.1299204826"><ele>495.22</ele><time>2014-09-08T01:37:04Z</time></trkpt><trkpt lat="46.1400998477" lon="6.1309192702"><ele>492.33</ele><time>2014-09-08T01:37:20Z</time></trkpt><trkpt lat="46.1404559109" lon="6.1313920934"><ele>491.37</ele><time>2014-09-08T01:37:32Z</time></trkpt><trkpt lat="46.1405048613" lon="6.1313814484"><ele>491.37</ele><time>2014-09-08T01:37:34Z</time></trkpt><trkpt lat="46.1406622734" lon="6.1313621700"><ele>491.37</ele><time>2014-09-08T01:37:38Z</time></trkpt><trkpt lat="46.1407008301" lon="6.1313729826"><ele>491.37</ele><time>2014-09-08T01:37:39Z</time></trkpt><trkpt lat="46.1407453381" lon="6.1313946079"><ele>491.37</ele><time>2014-09-08T01:37:40Z</time></trkpt><trkpt lat="46.1407766026" lon="6.1314203404"><ele>490.89</ele><time>2014-09-08T01:37:41Z</time></trkpt><trkpt lat="46.1408087052" lon="6.1314527784"><ele>490.89</ele><time>2014-09-08T01:37:42Z</time></trkpt><trkpt lat="46.1408434063" lon="6.1314846296"><ele>490.89</ele><time>2014-09-08T01:37:43Z</time></trkpt><trkpt lat="46.1408758443" lon="6.1315183248"><ele>490.89</ele><time>2014-09-08T01:37:44Z</time></trkpt><trkpt lat="46.1413945165" lon="6.1320884619"><ele>490.89</ele><time>2014-09-08T01:38:00Z</time></trkpt><trkpt lat="46.1416672636" lon="6.1323177069"><ele>492.33</ele><time>2014-09-08T01:38:12Z</time></trkpt><trkpt lat="46.1418007035" lon="6.1324296053"><ele>492.33</ele><time>2014-09-08T01:38:23Z</time></trkpt><trkpt lat="46.1418125220" lon="6.1324337963"><ele>492.81</ele><time>2014-09-08T01:38:24Z</time></trkpt><trkpt lat="46.1418235023" lon="6.1324325390"><ele>492.81</ele><time>2014-09-08T01:38:25Z</time></trkpt><trkpt lat="46.1418241728" lon="6.1324021965"><ele>493.29</ele><time>2014-09-08T01:38:27Z</time></trkpt><trkpt lat="46.1418102589" lon="6.1323839240"><ele>493.29</ele><time>2014-09-08T01:38:29Z</time></trkpt><trkpt lat="46.1416198220" lon="6.1322259251"><ele>492.81</ele><time>2014-09-08T01:38:35Z</time></trkpt><trkpt lat="46.1410461646" lon="6.1316546984"><ele>490.89</ele><time>2014-09-08T01:38:48Z</time></trkpt><trkpt lat="46.1405738443" lon="6.1312322505"><ele>491.85</ele><time>2014-09-08T01:39:03Z</time></trkpt><trkpt lat="46.1404482834" lon="6.1312858947"><ele>491.37</ele><time>2014-09-08T01:39:10Z</time></trkpt><trkpt lat="46.1404426675" lon="6.1313119624"><ele>491.37</ele><time>2014-09-08T01:39:11Z</time></trkpt><trkpt lat="46.1404223833" lon="6.1313180812"><ele>491.37</ele><time>2014-09-08T01:39:13Z</time></trkpt><trkpt lat="46.1403890233" lon="6.1312747467"><ele>491.37</ele><time>2014-09-08T01:39:14Z</time></trkpt><trkpt lat="46.1403751094" lon="6.1312277243"><ele>491.85</ele><time>2014-09-08T01:39:16Z</time></trkpt><trkpt lat="46.1403509695" lon="6.1311762594"><ele>491.85</ele><time>2014-09-08T01:39:17Z</time></trkpt><trkpt lat="46.1403273325" lon="6.1311417259"><ele>491.85</ele><time>2014-09-08T01:39:18Z</time></trkpt><trkpt lat="46.1402996723" lon="6.1311085336"><ele>491.85</ele><time>2014-09-08T01:39:19Z</time></trkpt><trkpt lat="46.1402723473" lon="6.1310755927"><ele>491.85</ele><time>2014-09-08T01:39:20Z</time></trkpt><trkpt lat="46.1402431782" lon="6.1310429871"><ele>491.85</ele><time>2014-09-08T01:39:21Z</time></trkpt><trkpt lat="46.1402137578" lon="6.1310076155"><ele>491.85</ele><time>2014-09-08T01:39:22Z</time></trkpt><trkpt lat="46.1401853431" lon="6.1309727468"><ele>491.85</ele><time>2014-09-08T01:39:23Z</time></trkpt><trkpt lat="46.1401548330" lon="6.1309387162"><ele>491.85</ele><time>2014-09-08T01:39:24Z</time></trkpt><trkpt lat="46.1397963390" lon="6.1303213891"><ele>493.29</ele><time>2014-09-08T01:39:40Z</time></trkpt><trkpt lat="46.1395505816" lon="6.1297954246"><ele>495.22</ele><time>2014-09-08T01:39:54Z</time></trkpt><trkpt lat="46.1395422835" lon="6.1297756433"><ele>495.70</ele><time>2014-09-08T01:40:06Z</time></trkpt><trkpt lat="46.1395298783" lon="6.1297830194"><ele>496.18</ele><time>2014-09-08T01:40:39Z</time></trkpt><trkpt lat="46.1395119410" lon="6.1297778226"><ele>495.70</ele><time>2014-09-08T01:40:44Z</time></trkpt><trkpt lat="46.1395040620" lon="6.1297656689"><ele>495.70</ele><time>2014-09-08T01:40:45Z</time></trkpt><trkpt lat="46.1394980270" lon="6.1297458876"><ele>495.70</ele><time>2014-09-08T01:40:46Z</time></trkpt><trkpt lat="46.1394927464" lon="6.1297156289"><ele>495.70</ele><time>2014-09-08T01:40:47Z</time></trkpt><trkpt lat="46.1394878849" lon="6.1296831071"><ele>495.70</ele><time>2014-09-08T01:40:48Z</time></trkpt><trkpt lat="46.1394846998" lon="6.1296455562"><ele>495.70</ele><time>2014-09-08T01:40:49Z</time></trkpt><trkpt lat="46.1394842807" lon="6.1296091788"><ele>495.70</ele><time>2014-09-08T01:40:50Z</time></trkpt><trkpt lat="46.1393489130" lon="6.1292924266"><ele>497.14</ele><time>2014-09-08T01:41:01Z</time></trkpt><trkpt lat="46.1390891578" lon="6.1289104633"><ele>499.06</ele><time>2014-09-08T01:41:16Z</time></trkpt><trkpt lat="46.1388173327" lon="6.1285373010"><ele>501.95</ele><time>2014-09-08T01:41:33Z</time></trkpt><trkpt lat="46.1386002414" lon="6.1282883584"><ele>501.95</ele><time>2014-09-08T01:41:47Z</time></trkpt><trkpt lat="46.1383785401" lon="6.1280828342"><ele>502.43</ele><time>2014-09-08T01:42:01Z</time></trkpt><trkpt lat="46.1383414082" lon="6.1280622147"><ele>501.95</ele><time>2014-09-08T01:42:14Z</time></trkpt><trkpt lat="46.1383272428" lon="6.1280705966"><ele>500.98</ele><time>2014-09-08T01:42:31Z</time></trkpt><trkpt lat="46.1382852495" lon="6.1280488875"><ele>501.46</ele><time>2014-09-08T01:42:43Z</time></trkpt><trkpt lat="46.1382631212" lon="6.1280507315"><ele>500.98</ele><time>2014-09-08T01:42:46Z</time></trkpt><trkpt lat="46.1382504646" lon="6.1280497257"><ele>500.98</ele><time>2014-09-08T01:42:47Z</time></trkpt><trkpt lat="46.1380327865" lon="6.1279882863"><ele>502.91</ele><time>2014-09-08T01:43:03Z</time></trkpt><trkpt lat="46.1380151846" lon="6.1279753782"><ele>503.39</ele><time>2014-09-08T01:43:04Z</time></trkpt><trkpt lat="46.1379894521" lon="6.1279576086"><ele>504.35</ele><time>2014-09-08T01:43:06Z</time></trkpt><trkpt lat="46.1379591096" lon="6.1279098317"><ele>507.23</ele><time>2014-09-08T01:43:18Z</time></trkpt><trkpt lat="46.1379620433" lon="6.1279054731"><ele>509.64</ele><time>2014-09-08T01:43:56Z</time></trkpt><trkpt lat="46.1379604507" lon="6.1279047187"><ele>509.16</ele><time>2014-09-08T01:44:31Z</time></trkpt><trkpt lat="46.1379696708" lon="6.1279383302"><ele>508.19</ele><time>2014-09-08T01:44:48Z</time></trkpt><trkpt lat="46.1379488837" lon="6.1279412638"><ele>506.75</ele><time>2014-09-08T01:45:04Z</time></trkpt><trkpt lat="46.1379401665" lon="6.1279636435"><ele>506.75</ele><time>2014-09-08T01:45:05Z</time></trkpt><trkpt lat="46.1379200500" lon="6.1279573571"><ele>506.75</ele><time>2014-09-08T01:45:07Z</time></trkpt><trkpt lat="46.1379070580" lon="6.1279419344"><ele>507.23</ele><time>2014-09-08T01:45:08Z</time></trkpt><trkpt lat="46.1378436908" lon="6.1279063951"><ele>507.71</ele><time>2014-09-08T01:45:11Z</time></trkpt><trkpt lat="46.1377598718" lon="6.1278625578"><ele>507.23</ele><time>2014-09-08T01:45:17Z</time></trkpt><trkpt lat="46.1377424374" lon="6.1278514098"><ele>507.23</ele><time>2014-09-08T01:45:18Z</time></trkpt><trkpt lat="46.1377239972" lon="6.1278426088"><ele>507.23</ele><time>2014-09-08T01:45:19Z</time></trkpt><trkpt lat="46.1377053894" lon="6.1278357357"><ele>507.71</ele><time>2014-09-08T01:45:20Z</time></trkpt><trkpt lat="46.1376876198" lon="6.1278263479"><ele>507.71</ele><time>2014-09-08T01:45:21Z</time></trkpt><trkpt lat="46.1376691796" lon="6.1278160382"><ele>507.71</ele><time>2014-09-08T01:45:22Z</time></trkpt><trkpt lat="46.1376503203" lon="6.1278079078"><ele>508.19</ele><time>2014-09-08T01:45:23Z</time></trkpt><trkpt lat="46.1376326345" lon="6.1278020404"><ele>508.19</ele><time>2014-09-08T01:45:24Z</time></trkpt><trkpt lat="46.1373963486" lon="6.1276639905"><ele>511.08</ele><time>2014-09-08T01:45:38Z</time></trkpt><trkpt lat="46.1371805146" lon="6.1275834404"><ele>512.52</ele><time>2014-09-08T01:45:50Z</time></trkpt><trkpt lat="46.1368790176" lon="6.1274594720"><ele>513.48</ele><time>2014-09-08T01:46:06Z</time></trkpt><trkpt lat="46.1366265547" lon="6.1273209192"><ele>513.96</ele><time>2014-09-08T01:46:20Z</time></trkpt><trkpt lat="46.1365695577" lon="6.1273013055"><ele>514.92</ele><time>2014-09-08T01:46:23Z</time></trkpt><trkpt lat="46.1363081262" lon="6.1271853838"><ele>516.37</ele><time>2014-09-08T01:46:37Z</time></trkpt><trkpt lat="46.1362895183" lon="6.1271759961"><ele>516.37</ele><time>2014-09-08T01:46:38Z</time></trkpt><trkpt lat="46.1362706590" lon="6.1271667760"><ele>516.37</ele><time>2014-09-08T01:46:39Z</time></trkpt><trkpt lat="46.1358969938" lon="6.1269986350"><ele>518.29</ele><time>2014-09-08T01:46:58Z</time></trkpt><trkpt lat="46.1356286053" lon="6.1268266384"><ele>520.21</ele><time>2014-09-08T01:47:12Z</time></trkpt><trkpt lat="46.1352895573" lon="6.1266524624"><ele>520.69</ele><time>2014-09-08T01:47:27Z</time></trkpt><trkpt lat="46.1351733003" lon="6.1265768576"><ele>520.69</ele><time>2014-09-08T01:47:32Z</time></trkpt><trkpt lat="46.1351618171" lon="6.1265696492"><ele>520.69</ele><time>2014-09-08T01:47:33Z</time></trkpt><trkpt lat="46.1351490766" lon="6.1265738402"><ele>520.69</ele><time>2014-09-08T01:47:34Z</time></trkpt><trkpt lat="46.1351452209" lon="6.1265880894"><ele>520.69</ele><time>2014-09-08T01:47:35Z</time></trkpt><trkpt lat="46.1351574585" lon="6.1266068649"><ele>520.69</ele><time>2014-09-08T01:47:36Z</time></trkpt><trkpt lat="46.1351825204" lon="6.1266122293"><ele>520.69</ele><time>2014-09-08T01:47:38Z</time></trkpt><trkpt lat="46.1352246813" lon="6.1265710741"><ele>520.69</ele><time>2014-09-08T01:47:39Z</time></trkpt><trkpt lat="46.1352449656" lon="6.1265213694"><ele>520.69</ele><time>2014-09-08T01:47:41Z</time></trkpt><trkpt lat="46.1352565326" lon="6.1264652945"><ele>520.69</ele><time>2014-09-08T01:47:42Z</time></trkpt><trkpt lat="46.1352657527" lon="6.1264184397"><ele>520.69</ele><time>2014-09-08T01:47:43Z</time></trkpt><trkpt lat="46.1354017910" lon="6.1258970853"><ele>521.17</ele><time>2014-09-08T01:47:57Z</time></trkpt><trkpt lat="46.1355124321" lon="6.1254815944"><ele>521.65</ele><time>2014-09-08T01:48:11Z</time></trkpt><trkpt lat="46.1355282739" lon="6.1253219191"><ele>521.17</ele><time>2014-09-08T01:48:18Z</time></trkpt><trkpt lat="46.1355391704" lon="6.1252450570"><ele>520.69</ele><time>2014-09-08T01:48:26Z</time></trkpt><trkpt lat="46.1356063094" lon="6.1251399480"><ele>520.21</ele><time>2014-09-08T01:48:35Z</time></trkpt><trkpt lat="46.1357151065" lon="6.1246617604"><ele>521.17</ele><time>2014-09-08T01:48:47Z</time></trkpt><trkpt lat="46.1359078065" lon="6.1240389012"><ele>520.21</ele><time>2014-09-08T01:49:00Z</time></trkpt><trkpt lat="46.1360946391" lon="6.1233451311"><ele>519.73</ele><time>2014-09-08T01:49:15Z</time></trkpt><trkpt lat="46.1361858342" lon="6.1229770817"><ele>519.73</ele><time>2014-09-08T01:49:21Z</time></trkpt><trkpt lat="46.1362121534" lon="6.1228308175"><ele>520.21</ele><time>2014-09-08T01:49:23Z</time></trkpt><trkpt lat="46.1362298392" lon="6.1227708030"><ele>520.21</ele><time>2014-09-08T01:49:24Z</time></trkpt><trkpt lat="46.1362457648" lon="6.1227102857"><ele>520.21</ele><time>2014-09-08T01:49:25Z</time></trkpt><trkpt lat="46.1362580862" lon="6.1226548813"><ele>520.21</ele><time>2014-09-08T01:49:26Z</time></trkpt><trkpt lat="46.1362721678" lon="6.1225865688"><ele>520.21</ele><time>2014-09-08T01:49:27Z</time></trkpt><trkpt lat="46.1363707390" lon="6.1222291645"><ele>520.21</ele><time>2014-09-08T01:49:32Z</time></trkpt><trkpt lat="46.1364155822" lon="6.1219795514"><ele>519.25</ele><time>2014-09-08T01:49:36Z</time></trkpt><trkpt lat="46.1366695538" lon="6.1211778224"><ele>520.21</ele><time>2014-09-08T01:49:51Z</time></trkpt><trkpt lat="46.1369251180" lon="6.1209754832"><ele>521.65</ele><time>2014-09-08T01:50:03Z</time></trkpt><trkpt lat="46.1374390963" lon="6.1207647622"><ele>523.09</ele><time>2014-09-08T01:50:20Z</time></trkpt><trkpt lat="46.1378572695" lon="6.1205985490"><ele>522.61</ele><time>2014-09-08T01:50:35Z</time></trkpt><trkpt lat="46.1379420105" lon="6.1205604952"><ele>522.61</ele><time>2014-09-08T01:50:37Z</time></trkpt><trkpt lat="46.1380841676" lon="6.1204246245"><ele>522.13</ele><time>2014-09-08T01:50:41Z</time></trkpt><trkpt lat="46.1381205451" lon="6.1203359440"><ele>521.65</ele><time>2014-09-08T01:50:42Z</time></trkpt><trkpt lat="46.1385113094" lon="6.1193818320"><ele>517.81</ele><time>2014-09-08T01:50:56Z</time></trkpt><trkpt lat="46.1386221182" lon="6.1191552691"><ele>517.33</ele><time>2014-09-08T01:51:04Z</time></trkpt><trkpt lat="46.1388899200" lon="6.1184437294"><ele>516.85</ele><time>2014-09-08T01:51:17Z</time></trkpt><trkpt lat="46.1391311511" lon="6.1178185232"><ele>515.40</ele><time>2014-09-08T01:51:27Z</time></trkpt><trkpt lat="46.1391428020" lon="6.1177435890"><ele>515.40</ele><time>2014-09-08T01:51:28Z</time></trkpt><trkpt lat="46.1391250324" lon="6.1176285893"><ele>514.92</ele><time>2014-09-08T01:51:30Z</time></trkpt><trkpt lat="46.1390684545" lon="6.1175569240"><ele>514.92</ele><time>2014-09-08T01:51:32Z</time></trkpt><trkpt lat="46.1390162352" lon="6.1175104044"><ele>514.92</ele><time>2014-09-08T01:51:33Z</time></trkpt><trkpt lat="46.1389791034" lon="6.1174789723"><ele>514.92</ele><time>2014-09-08T01:51:34Z</time></trkpt><trkpt lat="46.1384384707" lon="6.1170360725"><ele>515.40</ele><time>2014-09-08T01:51:50Z</time></trkpt><trkpt lat="46.1382974032" lon="6.1167006288"><ele>515.88</ele><time>2014-09-08T01:51:59Z</time></trkpt><trkpt lat="46.1384286638" lon="6.1163067631"><ele>515.40</ele><time>2014-09-08T01:52:07Z</time></trkpt><trkpt lat="46.1386738345" lon="6.1157005001"><ele>515.40</ele><time>2014-09-08T01:52:17Z</time></trkpt><trkpt lat="46.1387323402" lon="6.1155745201"><ele>514.92</ele><time>2014-09-08T01:52:19Z</time></trkpt><trkpt lat="46.1388725694" lon="6.1152201332"><ele>514.44</ele><time>2014-09-08T01:52:24Z</time></trkpt><trkpt lat="46.1390246172" lon="6.1147483159"><ele>513.48</ele><time>2014-09-08T01:52:31Z</time></trkpt><trkpt lat="46.1390270479" lon="6.1146718729"><ele>513.48</ele><time>2014-09-08T01:52:32Z</time></trkpt><trkpt lat="46.1390158162" lon="6.1145994533"><ele>513.00</ele><time>2014-09-08T01:52:33Z</time></trkpt><trkpt lat="46.1389774270" lon="6.1145163886"><ele>513.00</ele><time>2014-09-08T01:52:34Z</time></trkpt><trkpt lat="46.1389477551" lon="6.1144875549"><ele>513.00</ele><time>2014-09-08T01:52:35Z</time></trkpt><trkpt lat="46.1389093660" lon="6.1144601461"><ele>513.00</ele><time>2014-09-08T01:52:36Z</time></trkpt><trkpt lat="46.1388667021" lon="6.1144387722"><ele>513.00</ele><time>2014-09-08T01:52:37Z</time></trkpt><trkpt lat="46.1388226971" lon="6.1144220922"><ele>512.52</ele><time>2014-09-08T01:52:38Z</time></trkpt><trkpt lat="46.1386926100" lon="6.1143718008"><ele>512.52</ele><time>2014-09-08T01:52:41Z</time></trkpt><trkpt lat="46.1382333655" lon="6.1142226867"><ele>513.96</ele><time>2014-09-08T01:52:55Z</time></trkpt><trkpt lat="46.1379556730" lon="6.1140958685"><ele>515.88</ele><time>2014-09-08T01:53:09Z</time></trkpt><trkpt lat="46.1379607022" lon="6.1140946113"><ele>516.37</ele><time>2014-09-08T01:53:39Z</time></trkpt></trkseg><trkseg><trkpt lat="46.1377734505" lon="6.1141429748"><ele>476.95</ele><time>2014-09-08T01:55:56Z</time></trkpt><trkpt lat="46.1379379034" lon="6.1140980478"><ele>516.37</ele><time>2014-09-08T01:56:25Z</time></trkpt><trkpt lat="46.1379422620" lon="6.1140812840"><ele>516.85</ele><time>2014-09-08T01:57:00Z</time></trkpt><trkpt lat="46.1379449442" lon="6.1141064297"><ele>517.81</ele><time>2014-09-08T01:57:36Z</time></trkpt><trkpt lat="46.1379490513" lon="6.1140803620"><ele>518.29</ele><time>2014-09-08T01:58:15Z</time></trkpt><trkpt lat="46.1379680783" lon="6.1140912585"><ele>516.37</ele><time>2014-09-08T01:59:00Z</time></trkpt><trkpt lat="46.1379500572" lon="6.1140951980"><ele>519.73</ele><time>2014-09-08T01:59:27Z</time></trkpt><trkpt lat="46.1379319523" lon="6.1141081061"><ele>519.25</ele><time>2014-09-08T01:59:49Z</time></trkpt><trkpt lat="46.1379022803" lon="6.1140908394"><ele>519.25</ele><time>2014-09-08T01:59:53Z</time></trkpt><trkpt lat="46.1378798168" lon="6.1140924320"><ele>519.25</ele><time>2014-09-08T01:59:55Z</time></trkpt><trkpt lat="46.1377165373" lon="6.1140221916"><ele>518.29</ele><time>2014-09-08T02:00:05Z</time></trkpt><trkpt lat="46.1377001926" lon="6.1140074395"><ele>518.29</ele><time>2014-09-08T02:00:06Z</time></trkpt><trkpt lat="46.1376825068" lon="6.1139958724"><ele>518.29</ele><time>2014-09-08T02:00:07Z</time></trkpt><trkpt lat="46.1374805868" lon="6.1136723310"><ele>517.33</ele><time>2014-09-08T02:00:19Z</time></trkpt><trkpt lat="46.1374869570" lon="6.1135626119"><ele>517.33</ele><time>2014-09-08T02:00:22Z</time></trkpt><trkpt lat="46.1374718696" lon="6.1135719158"><ele>515.88</ele><time>2014-09-08T02:00:32Z</time></trkpt><trkpt lat="46.1375045590" lon="6.1135349516"><ele>515.88</ele><time>2014-09-08T02:00:43Z</time></trkpt><trkpt lat="46.1375126895" lon="6.1135121528"><ele>515.88</ele><time>2014-09-08T02:00:45Z</time></trkpt><trkpt lat="46.1376722809" lon="6.1130881961"><ele>514.92</ele><time>2014-09-08T02:00:56Z</time></trkpt><trkpt lat="46.1378783081" lon="6.1123671010"><ele>513.48</ele><time>2014-09-08T02:01:12Z</time></trkpt><trkpt lat="46.1379612889" lon="6.1119003128"><ele>513.00</ele><time>2014-09-08T02:01:21Z</time></trkpt><trkpt lat="46.1379695870" lon="6.1118421424"><ele>513.00</ele><time>2014-09-08T02:01:22Z</time></trkpt><trkpt lat="46.1379988398" lon="6.1116600875"><ele>512.52</ele><time>2014-09-08T02:01:25Z</time></trkpt><trkpt lat="46.1380166933" lon="6.1114767753"><ele>512.04</ele><time>2014-09-08T02:01:28Z</time></trkpt><trkpt lat="46.1380208004" lon="6.1114145815"><ele>512.04</ele><time>2014-09-08T02:01:29Z</time></trkpt><trkpt lat="46.1380274221" lon="6.1112884339"><ele>512.04</ele><time>2014-09-08T02:01:31Z</time></trkpt><trkpt lat="46.1380251590" lon="6.1109395791"><ele>511.56</ele><time>2014-09-08T02:01:36Z</time></trkpt><trkpt lat="46.1380199622" lon="6.1108669918"><ele>511.56</ele><time>2014-09-08T02:01:37Z</time></trkpt><trkpt lat="46.1380111612" lon="6.1107975058"><ele>511.08</ele><time>2014-09-08T02:01:38Z</time></trkpt><trkpt lat="46.1379959900" lon="6.1106771417"><ele>510.60</ele><time>2014-09-08T02:01:40Z</time></trkpt><trkpt lat="46.1379904579" lon="6.1095906794"><ele>507.71</ele><time>2014-09-08T02:01:54Z</time></trkpt><trkpt lat="46.1380558368" lon="6.1087397486"><ele>505.79</ele><time>2014-09-08T02:02:06Z</time></trkpt><trkpt lat="46.1380718462" lon="6.1085609626"><ele>505.31</ele><time>2014-09-08T02:02:09Z</time></trkpt><trkpt lat="46.1380837485" lon="6.1085010320"><ele>505.31</ele><time>2014-09-08T02:02:10Z</time></trkpt><trkpt lat="46.1381010152" lon="6.1084439512"><ele>505.31</ele><time>2014-09-08T02:02:11Z</time></trkpt><trkpt lat="46.1381218024" lon="6.1083945818"><ele>505.31</ele><time>2014-09-08T02:02:12Z</time></trkpt><trkpt lat="46.1381497141" lon="6.1083553545"><ele>505.31</ele><time>2014-09-08T02:02:13Z</time></trkpt><trkpt lat="46.1381859239" lon="6.1083344836"><ele>505.31</ele><time>2014-09-08T02:02:14Z</time></trkpt><trkpt lat="46.1382233072" lon="6.1083268560"><ele>505.79</ele><time>2014-09-08T02:02:15Z</time></trkpt><trkpt lat="46.1382649653" lon="6.1083214916"><ele>505.79</ele><time>2014-09-08T02:02:16Z</time></trkpt><trkpt lat="46.1383077130" lon="6.1083129421"><ele>505.79</ele><time>2014-09-08T02:02:17Z</time></trkpt><trkpt lat="46.1388092861" lon="6.1081182305"><ele>505.31</ele><time>2014-09-08T02:02:29Z</time></trkpt><trkpt lat="46.1391722225" lon="6.1080080923"><ele>504.83</ele><time>2014-09-08T02:02:37Z</time></trkpt><trkpt lat="46.1392221786" lon="6.1079790071"><ele>504.83</ele><time>2014-09-08T02:02:38Z</time></trkpt><trkpt lat="46.1392703746" lon="6.1079434678"><ele>504.83</ele><time>2014-09-08T02:02:39Z</time></trkpt><trkpt lat="46.1393184029" lon="6.1079069227"><ele>504.83</ele><time>2014-09-08T02:02:40Z</time></trkpt><trkpt lat="46.1393676046" lon="6.1078722216"><ele>504.35</ele><time>2014-09-08T02:02:41Z</time></trkpt><trkpt lat="46.1401486304" lon="6.1073667090"><ele>504.83</ele><time>2014-09-08T02:02:57Z</time></trkpt><trkpt lat="46.1410094518" lon="6.1068461929"><ele>506.75</ele><time>2014-09-08T02:03:14Z</time></trkpt><trkpt lat="46.1410547979" lon="6.1068367213"><ele>506.75</ele><time>2014-09-08T02:03:16Z</time></trkpt><trkpt lat="46.1410710588" lon="6.1068719253"><ele>506.27</ele><time>2014-09-08T02:03:17Z</time></trkpt><trkpt lat="46.1410566419" lon="6.1069276650"><ele>505.79</ele><time>2014-09-08T02:03:19Z</time></trkpt><trkpt lat="46.1410186719" lon="6.1069716699"><ele>505.31</ele><time>2014-09-08T02:03:20Z</time></trkpt><trkpt lat="46.1409880780" lon="6.1070069578"><ele>504.83</ele><time>2014-09-08T02:03:21Z</time></trkpt><trkpt lat="46.1406245548" lon="6.1075356044"><ele>500.50</ele><time>2014-09-08T02:03:32Z</time></trkpt><trkpt lat="46.1406451743" lon="6.1078837048"><ele>497.62</ele><time>2014-09-08T02:03:40Z</time></trkpt><trkpt lat="46.1407201923" lon="6.1079096887"><ele>497.14</ele><time>2014-09-08T02:03:42Z</time></trkpt><trkpt lat="46.1407615989" lon="6.1079001334"><ele>496.66</ele><time>2014-09-08T02:03:43Z</time></trkpt><trkpt lat="46.1408063583" lon="6.1078781728"><ele>496.18</ele><time>2014-09-08T02:03:44Z</time></trkpt><trkpt lat="46.1408502795" lon="6.1078432202"><ele>495.70</ele><time>2014-09-08T02:03:45Z</time></trkpt><trkpt lat="46.1408932786" lon="6.1078024004"><ele>495.22</ele><time>2014-09-08T02:03:46Z</time></trkpt><trkpt lat="46.1415542755" lon="6.1071998253"><ele>490.89</ele><time>2014-09-08T02:04:00Z</time></trkpt><trkpt lat="46.1422988400" lon="6.1066669878"><ele>483.20</ele><time>2014-09-08T02:04:16Z</time></trkpt><trkpt lat="46.1427863315" lon="6.1065208074"><ele>479.84</ele><time>2014-09-08T02:04:27Z</time></trkpt><trkpt lat="46.1428031791" lon="6.1065159459"><ele>479.84</ele><time>2014-09-08T02:04:28Z</time></trkpt><trkpt lat="46.1428166740" lon="6.1065102462"><ele>479.84</ele><time>2014-09-08T02:04:29Z</time></trkpt><trkpt lat="46.1428336054" lon="6.1065138504"><ele>479.84</ele><time>2014-09-08T02:04:30Z</time></trkpt><trkpt lat="46.1428557336" lon="6.1065419298"><ele>479.84</ele><time>2014-09-08T02:04:31Z</time></trkpt><trkpt lat="46.1428793706" lon="6.1065976694"><ele>479.84</ele><time>2014-09-08T02:04:33Z</time></trkpt><trkpt lat="46.1428812146" lon="6.1066640541"><ele>479.35</ele><time>2014-09-08T02:04:34Z</time></trkpt><trkpt lat="46.1428777780" lon="6.1067235656"><ele>479.84</ele><time>2014-09-08T02:04:35Z</time></trkpt><trkpt lat="46.1428781133" lon="6.1067711748"><ele>479.35</ele><time>2014-09-08T02:04:36Z</time></trkpt><trkpt lat="46.1428813823" lon="6.1068299320"><ele>479.35</ele><time>2014-09-08T02:04:37Z</time></trkpt><trkpt lat="46.1428907700" lon="6.1069528107"><ele>478.87</ele><time>2014-09-08T02:04:39Z</time></trkpt><trkpt lat="46.1428903509" lon="6.1070174351"><ele>478.87</ele><time>2014-09-08T02:04:40Z</time></trkpt><trkpt lat="46.1428758502" lon="6.1073975544"><ele>478.87</ele><time>2014-09-08T02:04:46Z</time></trkpt><trkpt lat="46.1428755987" lon="6.1074547190"><ele>478.87</ele><time>2014-09-08T02:04:47Z</time></trkpt><trkpt lat="46.1428504530" lon="6.1080573779"><ele>479.35</ele><time>2014-09-08T02:05:00Z</time></trkpt><trkpt lat="46.1428280734" lon="6.1081919912"><ele>478.87</ele><time>2014-09-08T02:05:11Z</time></trkpt><trkpt lat="46.1428227089" lon="6.1082056537"><ele>478.87</ele><time>2014-09-08T02:05:28Z</time></trkpt><trkpt lat="46.1428256426" lon="6.1082221661"><ele>478.39</ele><time>2014-09-08T02:05:29Z</time></trkpt><trkpt lat="46.1428280734" lon="6.1082443781"><ele>478.39</ele><time>2014-09-08T02:05:30Z</time></trkpt><trkpt lat="46.1428282410" lon="6.1082726251"><ele>478.39</ele><time>2014-09-08T02:05:31Z</time></trkpt><trkpt lat="46.1428247206" lon="6.1083067395"><ele>478.39</ele><time>2014-09-08T02:05:32Z</time></trkpt><trkpt lat="46.1428227928" lon="6.1083465535"><ele>478.39</ele><time>2014-09-08T02:05:33Z</time></trkpt><trkpt lat="46.1428221222" lon="6.1083895527"><ele>478.39</ele><time>2014-09-08T02:05:34Z</time></trkpt><trkpt lat="46.1428206973" lon="6.1084333062"><ele>478.87</ele><time>2014-09-08T02:05:35Z</time></trkpt><trkpt lat="46.1427946296" lon="6.1089933850"><ele>478.39</ele><time>2014-09-08T02:05:46Z</time></trkpt><trkpt lat="46.1427942105" lon="6.1090570036"><ele>478.39</ele><time>2014-09-08T02:05:47Z</time></trkpt><trkpt lat="46.1427370459" lon="6.1102266144"><ele>478.39</ele><time>2014-09-08T02:06:05Z</time></trkpt><trkpt lat="46.1426806357" lon="6.1114968918"><ele>478.39</ele><time>2014-09-08T02:06:24Z</time></trkpt><trkpt lat="46.1426398158" lon="6.1125131976"><ele>477.91</ele><time>2014-09-08T02:06:39Z</time></trkpt><trkpt lat="46.1426316015" lon="6.1127141956"><ele>477.91</ele><time>2014-09-08T02:06:42Z</time></trkpt><trkpt lat="46.1426224653" lon="6.1128498148"><ele>477.91</ele><time>2014-09-08T02:06:44Z</time></trkpt><trkpt lat="46.1425577570" lon="6.1141549610"><ele>478.39</ele><time>2014-09-08T02:07:04Z</time></trkpt><trkpt lat="46.1425059568" lon="6.1151324585"><ele>478.87</ele><time>2014-09-08T02:07:20Z</time></trkpt><trkpt lat="46.1425022688" lon="6.1152483802"><ele>479.35</ele><time>2014-09-08T02:07:22Z</time></trkpt><trkpt lat="46.1424657237" lon="6.1162330862"><ele>479.35</ele><time>2014-09-08T02:07:38Z</time></trkpt><trkpt lat="46.1424431764" lon="6.1167369224"><ele>479.35</ele><time>2014-09-08T02:07:46Z</time></trkpt><trkpt lat="46.1424187850" lon="6.1169924866"><ele>479.35</ele><time>2014-09-08T02:07:50Z</time></trkpt><trkpt lat="46.1423551664" lon="6.1182846408"><ele>481.28</ele><time>2014-09-08T02:08:10Z</time></trkpt><trkpt lat="46.1423286796" lon="6.1190208234"><ele>481.76</ele><time>2014-09-08T02:08:22Z</time></trkpt><trkpt lat="46.1423328705" lon="6.1190799996"><ele>481.76</ele><time>2014-09-08T02:08:23Z</time></trkpt><trkpt lat="46.1423338763" lon="6.1191381700"><ele>481.76</ele><time>2014-09-08T02:08:24Z</time></trkpt><trkpt lat="46.1423312780" lon="6.1191970948"><ele>481.28</ele><time>2014-09-08T02:08:25Z</time></trkpt><trkpt lat="46.1423303559" lon="6.1192552652"><ele>481.28</ele><time>2014-09-08T02:08:26Z</time></trkpt><trkpt lat="46.1423306074" lon="6.1193113402"><ele>481.76</ele><time>2014-09-08T02:08:27Z</time></trkpt><trkpt lat="46.1423288472" lon="6.1193641461"><ele>481.76</ele><time>2014-09-08T02:08:28Z</time></trkpt><trkpt lat="46.1423446052" lon="6.1196630448"><ele>481.76</ele><time>2014-09-08T02:08:36Z</time></trkpt><trkpt lat="46.1423378997" lon="6.1196846701"><ele>481.76</ele><time>2014-09-08T02:08:37Z</time></trkpt><trkpt lat="46.1423243210" lon="6.1196787190"><ele>481.76</ele><time>2014-09-08T02:08:38Z</time></trkpt><trkpt lat="46.1423249915" lon="6.1196491309"><ele>482.24</ele><time>2014-09-08T02:08:40Z</time></trkpt><trkpt lat="46.1423389055" lon="6.1195330415"><ele>481.76</ele><time>2014-09-08T02:08:44Z</time></trkpt><trkpt lat="46.1423277576" lon="6.1195140984"><ele>481.76</ele><time>2014-09-08T02:08:45Z</time></trkpt><trkpt lat="46.1423096526" lon="6.1195243243"><ele>481.76</ele><time>2014-09-08T02:08:46Z</time></trkpt><trkpt lat="46.1423048750" lon="6.1195589416"><ele>481.76</ele><time>2014-09-08T02:08:47Z</time></trkpt><trkpt lat="46.1423062161" lon="6.1196007673"><ele>482.24</ele><time>2014-09-08T02:08:48Z</time></trkpt><trkpt lat="46.1423045397" lon="6.1196231470"><ele>482.24</ele><time>2014-09-08T02:08:49Z</time></trkpt><trkpt lat="46.1423000973" lon="6.1196676549"><ele>482.24</ele><time>2014-09-08T02:08:50Z</time></trkpt><trkpt lat="46.1422648933" lon="6.1204193439"><ele>482.72</ele><time>2014-09-08T02:09:05Z</time></trkpt><trkpt lat="46.1421159469" lon="6.1214835104"><ele>482.72</ele><time>2014-09-08T02:09:22Z</time></trkpt><trkpt lat="46.1420624703" lon="6.1217310280"><ele>483.20</ele><time>2014-09-08T02:09:26Z</time></trkpt><trkpt lat="46.1416931637" lon="6.1227858905"><ele>484.16</ele><time>2014-09-08T02:09:44Z</time></trkpt><trkpt lat="46.1414658464" lon="6.1232602224"><ele>485.12</ele><time>2014-09-08T02:09:53Z</time></trkpt><trkpt lat="46.1414071731" lon="6.1233461369"><ele>485.60</ele><time>2014-09-08T02:09:55Z</time></trkpt><trkpt lat="46.1412738170" lon="6.1235909723"><ele>485.60</ele><time>2014-09-08T02:10:00Z</time></trkpt><trkpt lat="46.1408944521" lon="6.1241950560"><ele>486.08</ele><time>2014-09-08T02:10:15Z</time></trkpt><trkpt lat="46.1406284943" lon="6.1246567313"><ele>488.01</ele><time>2014-09-08T02:10:27Z</time></trkpt><trkpt lat="46.1403761990" lon="6.1250510998"><ele>490.41</ele><time>2014-09-08T02:10:40Z</time></trkpt><trkpt lat="46.1401389912" lon="6.1255026329"><ele>493.77</ele><time>2014-09-08T02:10:55Z</time></trkpt><trkpt lat="46.1398958322" lon="6.1258809920"><ele>494.74</ele><time>2014-09-08T02:11:09Z</time></trkpt><trkpt lat="46.1397022102" lon="6.1262179445"><ele>496.66</ele><time>2014-09-08T02:11:22Z</time></trkpt><trkpt lat="46.1393898167" lon="6.1267525423"><ele>499.54</ele><time>2014-09-08T02:11:41Z</time></trkpt><trkpt lat="46.1391365156" lon="6.1271821149"><ele>501.46</ele><time>2014-09-08T02:11:57Z</time></trkpt><trkpt lat="46.1389205139" lon="6.1275696941"><ele>502.43</ele><time>2014-09-08T02:12:11Z</time></trkpt><trkpt lat="46.1387324240" lon="6.1280194670"><ele>503.87</ele><time>2014-09-08T02:12:25Z</time></trkpt><trkpt lat="46.1388165783" lon="6.1285685655"><ele>501.46</ele><time>2014-09-08T02:12:37Z</time></trkpt><trkpt lat="46.1388451606" lon="6.1286116485"><ele>500.98</ele><time>2014-09-08T02:12:38Z</time></trkpt><trkpt lat="46.1393314786" lon="6.1292930972"><ele>496.66</ele><time>2014-09-08T02:12:52Z</time></trkpt><trkpt lat="46.1393602286" lon="6.1293509323"><ele>496.18</ele><time>2014-09-08T02:12:53Z</time></trkpt><trkpt lat="46.1393843684" lon="6.1294106115"><ele>495.70</ele><time>2014-09-08T02:12:54Z</time></trkpt><trkpt lat="46.1394515075" lon="6.1296073347"><ele>494.74</ele><time>2014-09-08T02:12:57Z</time></trkpt><trkpt lat="46.1395116895" lon="6.1297988612"><ele>494.26</ele><time>2014-09-08T02:13:00Z</time></trkpt><trkpt lat="46.1399262585" lon="6.1306716688"><ele>492.33</ele><time>2014-09-08T02:13:16Z</time></trkpt><trkpt lat="46.1401484627" lon="6.1309817992"><ele>491.85</ele><time>2014-09-08T02:13:24Z</time></trkpt><trkpt lat="46.1401808169" lon="6.1310202722"><ele>491.85</ele><time>2014-09-08T02:13:25Z</time></trkpt><trkpt lat="46.1405673902" lon="6.1313527822"><ele>492.81</ele><time>2014-09-08T02:13:38Z</time></trkpt><trkpt lat="46.1406373791" lon="6.1313640140"><ele>492.33</ele><time>2014-09-08T02:13:39Z</time></trkpt><trkpt lat="46.1407168396" lon="6.1313984636"><ele>492.33</ele><time>2014-09-08T02:13:41Z</time></trkpt><trkpt lat="46.1407644488" lon="6.1314346734"><ele>491.85</ele><time>2014-09-08T02:13:42Z</time></trkpt><trkpt lat="46.1407928634" lon="6.1314616632"><ele>491.85</ele><time>2014-09-08T02:13:43Z</time></trkpt><trkpt lat="46.1408293247" lon="6.1314988788"><ele>491.85</ele><time>2014-09-08T02:13:44Z</time></trkpt><trkpt lat="46.1408636067" lon="6.1315318197"><ele>491.85</ele><time>2014-09-08T02:13:45Z</time></trkpt><trkpt lat="46.1414165609" lon="6.1320737936"><ele>491.37</ele><time>2014-09-08T02:14:03Z</time></trkpt><trkpt lat="46.1416966841" lon="6.1323382426"><ele>492.81</ele><time>2014-09-08T02:14:18Z</time></trkpt><trkpt lat="46.1417167168" lon="6.1323616281"><ele>492.33</ele><time>2014-09-08T02:14:46Z</time></trkpt><trkpt lat="46.1418810021" lon="6.1324619595"><ele>493.29</ele><time>2014-09-08T02:14:57Z</time></trkpt><trkpt lat="46.1419598758" lon="6.1324864347"><ele>492.81</ele><time>2014-09-08T02:15:11Z</time></trkpt><trkpt lat="46.1419706047" lon="6.1325306073"><ele>492.81</ele><time>2014-09-08T02:15:23Z</time></trkpt><trkpt lat="46.1419678386" lon="6.1325616203"><ele>491.85</ele><time>2014-09-08T02:15:30Z</time></trkpt><trkpt lat="46.1419690959" lon="6.1325772107"><ele>491.85</ele><time>2014-09-08T02:15:31Z</time></trkpt><trkpt lat="46.1419706885" lon="6.1325944774"><ele>491.85</ele><time>2014-09-08T02:15:32Z</time></trkpt><trkpt lat="46.1419797409" lon="6.1326140072"><ele>491.85</ele><time>2014-09-08T02:15:33Z</time></trkpt><trkpt lat="46.1419954989" lon="6.1326347105"><ele>492.33</ele><time>2014-09-08T02:15:34Z</time></trkpt><trkpt lat="46.1420141067" lon="6.1326566711"><ele>492.33</ele><time>2014-09-08T02:15:35Z</time></trkpt><trkpt lat="46.1427663825" lon="6.1335999705"><ele>492.81</ele><time>2014-09-08T02:16:02Z</time></trkpt><trkpt lat="46.1428931169" lon="6.1337578017"><ele>491.85</ele><time>2014-09-08T02:16:05Z</time></trkpt><trkpt lat="46.1435720511" lon="6.1346941441"><ele>487.05</ele><time>2014-09-08T02:16:21Z</time></trkpt><trkpt lat="46.1442663241" lon="6.1355718132"><ele>483.20</ele><time>2014-09-08T02:16:35Z</time></trkpt><trkpt lat="46.1447202880" lon="6.1360439658"><ele>483.68</ele><time>2014-09-08T02:16:47Z</time></trkpt><trkpt lat="46.1447847448" lon="6.1361415312"><ele>483.68</ele><time>2014-09-08T02:16:55Z</time></trkpt><trkpt lat="46.1447905283" lon="6.1361366697"><ele>486.08</ele><time>2014-09-08T02:17:34Z</time></trkpt><trkpt lat="46.1448053643" lon="6.1361365020"><ele>486.56</ele><time>2014-09-08T02:18:15Z</time></trkpt><trkpt lat="46.1447900254" lon="6.1361357477"><ele>486.08</ele><time>2014-09-08T02:18:46Z</time></trkpt><trkpt lat="46.1447970662" lon="6.1361495778"><ele>486.56</ele><time>2014-09-08T02:18:47Z</time></trkpt><trkpt lat="46.1448039394" lon="6.1361613963"><ele>486.56</ele><time>2014-09-08T02:18:48Z</time></trkpt><trkpt lat="46.1448190268" lon="6.1361748911"><ele>486.56</ele><time>2014-09-08T02:18:49Z</time></trkpt><trkpt lat="46.1448401492" lon="6.1361936666"><ele>486.08</ele><time>2014-09-08T02:18:50Z</time></trkpt><trkpt lat="46.1451356951" lon="6.1364397593"><ele>485.60</ele><time>2014-09-08T02:19:02Z</time></trkpt><trkpt lat="46.1451638583" lon="6.1364082433"><ele>485.60</ele><time>2014-09-08T02:19:03Z</time></trkpt><trkpt lat="46.1451814603" lon="6.1363714468"><ele>485.60</ele><time>2014-09-08T02:19:05Z</time></trkpt><trkpt lat="46.1452001520" lon="6.1363332253"><ele>485.60</ele><time>2014-09-08T02:19:06Z</time></trkpt><trkpt lat="46.1452110484" lon="6.1362997815"><ele>486.08</ele><time>2014-09-08T02:19:07Z</time></trkpt><trkpt lat="46.1454649363" lon="6.1359333247"><ele>486.56</ele><time>2014-09-08T02:19:19Z</time></trkpt><trkpt lat="46.1459274497" lon="6.1353866570"><ele>486.56</ele><time>2014-09-08T02:19:32Z</time></trkpt><trkpt lat="46.1464782245" lon="6.1345386598"><ele>483.68</ele><time>2014-09-08T02:19:46Z</time></trkpt><trkpt lat="46.1467123311" lon="6.1340808403"><ele>482.24</ele><time>2014-09-08T02:19:53Z</time></trkpt><trkpt lat="46.1467485409" lon="6.1340158805"><ele>481.76</ele><time>2014-09-08T02:19:54Z</time></trkpt><trkpt lat="46.1467792187" lon="6.1339482386"><ele>481.76</ele><time>2014-09-08T02:19:55Z</time></trkpt><trkpt lat="46.1468426697" lon="6.1338092666"><ele>481.76</ele><time>2014-09-08T02:19:57Z</time></trkpt><trkpt lat="46.1470913608" lon="6.1332456674"><ele>480.80</ele><time>2014-09-08T02:20:05Z</time></trkpt><trkpt lat="46.1475349311" lon="6.1319895554"><ele>479.84</ele><time>2014-09-08T02:20:22Z</time></trkpt><trkpt lat="46.1478562932" lon="6.1310413107"><ele>479.35</ele><time>2014-09-08T02:20:37Z</time></trkpt><trkpt lat="46.1479131225" lon="6.1308697332"><ele>479.84</ele><time>2014-09-08T02:20:40Z</time></trkpt><trkpt lat="46.1481591314" lon="6.1301488895"><ele>480.80</ele><time>2014-09-08T02:20:53Z</time></trkpt><trkpt lat="46.1485597864" lon="6.1289265566"><ele>478.87</ele><time>2014-09-08T02:21:11Z</time></trkpt><trkpt lat="46.1490548216" lon="6.1277478933"><ele>477.43</ele><time>2014-09-08T02:21:28Z</time></trkpt><trkpt lat="46.1495232023" lon="6.1267192662"><ele>476.47</ele><time>2014-09-08T02:21:43Z</time></trkpt><trkpt lat="46.1500412039" lon="6.1255116854"><ele>475.99</ele><time>2014-09-08T02:22:01Z</time></trkpt><trkpt lat="46.1505541764" lon="6.1243943777"><ele>475.03</ele><time>2014-09-08T02:22:18Z</time></trkpt><trkpt lat="46.1510296818" lon="6.1229454819"><ele>476.95</ele><time>2014-09-08T02:22:41Z</time></trkpt><trkpt lat="46.1513066199" lon="6.1223212816"><ele>478.87</ele><time>2014-09-08T02:22:55Z</time></trkpt><trkpt lat="46.1514115613" lon="6.1223471817"><ele>479.35</ele><time>2014-09-08T02:22:58Z</time></trkpt><trkpt lat="46.1514512915" lon="6.1223636102"><ele>479.35</ele><time>2014-09-08T02:22:59Z</time></trkpt><trkpt lat="46.1521058343" lon="6.1226260476"><ele>477.91</ele><time>2014-09-08T02:23:13Z</time></trkpt><trkpt lat="46.1530473735" lon="6.1230220087"><ele>474.55</ele><time>2014-09-08T02:23:27Z</time></trkpt><trkpt lat="46.1543293018" lon="6.1235722806"><ele>468.78</ele><time>2014-09-08T02:23:43Z</time></trkpt><trkpt lat="46.1555939633" lon="6.1241154280"><ele>464.45</ele><time>2014-09-08T02:23:59Z</time></trkpt><trkpt lat="46.1562856380" lon="6.1244354490"><ele>463.97</ele><time>2014-09-08T02:24:10Z</time></trkpt><trkpt lat="46.1563199200" lon="6.1244616844"><ele>463.97</ele><time>2014-09-08T02:24:11Z</time></trkpt><trkpt lat="46.1568504944" lon="6.1250286363"><ele>464.45</ele><time>2014-09-08T02:24:23Z</time></trkpt><trkpt lat="46.1569025461" lon="6.1251092702"><ele>464.45</ele><time>2014-09-08T02:24:25Z</time></trkpt><trkpt lat="46.1569347326" lon="6.1251562089"><ele>464.45</ele><time>2014-09-08T02:24:26Z</time></trkpt><trkpt lat="46.1571657378" lon="6.1255442072"><ele>463.97</ele><time>2014-09-08T02:24:34Z</time></trkpt><trkpt lat="46.1574808136" lon="6.1259819102"><ele>463.97</ele><time>2014-09-08T02:24:44Z</time></trkpt><trkpt lat="46.1575206276" lon="6.1260201316"><ele>463.97</ele><time>2014-09-08T02:24:45Z</time></trkpt><trkpt lat="46.1575647164" lon="6.1260488816"><ele>463.49</ele><time>2014-09-08T02:24:46Z</time></trkpt><trkpt lat="46.1576143373" lon="6.1260627117"><ele>463.49</ele><time>2014-09-08T02:24:47Z</time></trkpt><trkpt lat="46.1576814763" lon="6.1260490492"><ele>463.49</ele><time>2014-09-08T02:24:48Z</time></trkpt><trkpt lat="46.1577253975" lon="6.1260147672"><ele>463.49</ele><time>2014-09-08T02:24:49Z</time></trkpt><trkpt lat="46.1577585060" lon="6.1259708460"><ele>463.97</ele><time>2014-09-08T02:24:50Z</time></trkpt><trkpt lat="46.1577969790" lon="6.1259059701"><ele>463.97</ele><time>2014-09-08T02:24:51Z</time></trkpt><trkpt lat="46.1578279082" lon="6.1258320417"><ele>463.49</ele><time>2014-09-08T02:24:52Z</time></trkpt><trkpt lat="46.1578597594" lon="6.1257503182"><ele>463.49</ele><time>2014-09-08T02:24:53Z</time></trkpt><trkpt lat="46.1581870727" lon="6.1248955317"><ele>459.17</ele><time>2014-09-08T02:25:03Z</time></trkpt><trkpt lat="46.1582288984" lon="6.1248454079"><ele>458.69</ele><time>2014-09-08T02:25:04Z</time></trkpt><trkpt lat="46.1582837161" lon="6.1248130538"><ele>458.21</ele><time>2014-09-08T02:25:05Z</time></trkpt><trkpt lat="46.1583357677" lon="6.1248024926"><ele>457.72</ele><time>2014-09-08T02:25:06Z</time></trkpt><trkpt lat="46.1583998892" lon="6.1248065159"><ele>456.76</ele><time>2014-09-08T02:25:07Z</time></trkpt><trkpt lat="46.1584744882" lon="6.1248191725"><ele>456.28</ele><time>2014-09-08T02:25:08Z</time></trkpt><trkpt lat="46.1596351303" lon="6.1250561289"><ele>450.52</ele><time>2014-09-08T02:25:23Z</time></trkpt><trkpt lat="46.1607812718" lon="6.1251407862"><ele>444.27</ele><time>2014-09-08T02:25:37Z</time></trkpt><trkpt lat="46.1608603969" lon="6.1251522694"><ele>443.79</ele><time>2014-09-08T02:25:38Z</time></trkpt><trkpt lat="46.1609080900" lon="6.1251692846"><ele>443.79</ele><time>2014-09-08T02:25:39Z</time></trkpt><trkpt lat="46.1609868798" lon="6.1252060812"><ele>443.31</ele><time>2014-09-08T02:25:40Z</time></trkpt><trkpt lat="46.1610659212" lon="6.1252615694"><ele>443.31</ele><time>2014-09-08T02:25:41Z</time></trkpt><trkpt lat="46.1611444596" lon="6.1253349110"><ele>442.82</ele><time>2014-09-08T02:25:42Z</time></trkpt><trkpt lat="46.1612369120" lon="6.1254276987"><ele>442.34</ele><time>2014-09-08T02:25:43Z</time></trkpt><trkpt lat="46.1619936302" lon="6.1261970736"><ele>436.58</ele><time>2014-09-08T02:25:54Z</time></trkpt><trkpt lat="46.1620552372" lon="6.1262277514"><ele>436.58</ele><time>2014-09-08T02:25:55Z</time></trkpt><trkpt lat="46.1621223763" lon="6.1262405757"><ele>436.10</ele><time>2014-09-08T02:25:56Z</time></trkpt><trkpt lat="46.1621920299" lon="6.1262404080"><ele>435.61</ele><time>2014-09-08T02:25:57Z</time></trkpt><trkpt lat="46.1622647848" lon="6.1262261588"><ele>435.61</ele><time>2014-09-08T02:25:58Z</time></trkpt><trkpt lat="46.1623535492" lon="6.1262006778"><ele>434.65</ele><time>2014-09-08T02:25:59Z</time></trkpt><trkpt lat="46.1624081153" lon="6.1261942238"><ele>434.65</ele><time>2014-09-08T02:26:00Z</time></trkpt><trkpt lat="46.1625020765" lon="6.1262069643"><ele>434.17</ele><time>2014-09-08T02:26:01Z</time></trkpt><trkpt lat="46.1625747476" lon="6.1262487900"><ele>433.69</ele><time>2014-09-08T02:26:02Z</time></trkpt><trkpt lat="46.1626275536" lon="6.1263021827"><ele>433.21</ele><time>2014-09-08T02:26:03Z</time></trkpt><trkpt lat="46.1626801919" lon="6.1263744347"><ele>432.73</ele><time>2014-09-08T02:26:04Z</time></trkpt><trkpt lat="46.1627242807" lon="6.1264408194"><ele>432.73</ele><time>2014-09-08T02:26:05Z</time></trkpt><trkpt lat="46.1631359160" lon="6.1271510180"><ele>429.85</ele><time>2014-09-08T02:26:14Z</time></trkpt><trkpt lat="46.1631821003" lon="6.1272029020"><ele>429.37</ele><time>2014-09-08T02:26:15Z</time></trkpt><trkpt lat="46.1632362474" lon="6.1272324901"><ele>429.37</ele><time>2014-09-08T02:26:16Z</time></trkpt><trkpt lat="46.1632784922" lon="6.1272384413"><ele>428.89</ele><time>2014-09-08T02:26:17Z</time></trkpt><trkpt lat="46.1633207370" lon="6.1272378545"><ele>428.89</ele><time>2014-09-08T02:26:18Z</time></trkpt><trkpt lat="46.1633727886" lon="6.1272274610"><ele>428.89</ele><time>2014-09-08T02:26:19Z</time></trkpt><trkpt lat="46.1634256784" lon="6.1272087693"><ele>428.89</ele><time>2014-09-08T02:26:20Z</time></trkpt><trkpt lat="46.1642135773" lon="6.1268219445"><ele>427.92</ele><time>2014-09-08T02:26:33Z</time></trkpt><trkpt lat="46.1652206630" lon="6.1262991652"><ele>423.12</ele><time>2014-09-08T02:26:48Z</time></trkpt><trkpt lat="46.1661832407" lon="6.1259136815"><ele>419.27</ele><time>2014-09-08T02:27:02Z</time></trkpt><trkpt lat="46.1675763130" lon="6.1254237592"><ele>417.83</ele><time>2014-09-08T02:27:22Z</time></trkpt><trkpt lat="46.1687652022" lon="6.1250080168"><ele>416.39</ele><time>2014-09-08T02:27:39Z</time></trkpt><trkpt lat="46.1701085698" lon="6.1244812980"><ele>413.50</ele><time>2014-09-08T02:27:59Z</time></trkpt><trkpt lat="46.1712102871" lon="6.1241505481"><ele>412.06</ele><time>2014-09-08T02:28:18Z</time></trkpt><trkpt lat="46.1713749077" lon="6.1241570022"><ele>412.06</ele><time>2014-09-08T02:28:21Z</time></trkpt><trkpt lat="46.1714961100" lon="6.1241872609"><ele>411.58</ele><time>2014-09-08T02:28:25Z</time></trkpt><trkpt lat="46.1715323199" lon="6.1241755262"><ele>412.06</ele><time>2014-09-08T02:28:27Z</time></trkpt><trkpt lat="46.1715743132" lon="6.1239818204"><ele>410.62</ele><time>2014-09-08T02:28:33Z</time></trkpt><trkpt lat="46.1715933401" lon="6.1239453591"><ele>410.14</ele><time>2014-09-08T02:28:34Z</time></trkpt><trkpt lat="46.1716216709" lon="6.1239302717"><ele>410.14</ele><time>2014-09-08T02:28:36Z</time></trkpt><trkpt lat="46.1716479063" lon="6.1239317805"><ele>409.66</ele><time>2014-09-08T02:28:37Z</time></trkpt><trkpt lat="46.1716665141" lon="6.1239283439"><ele>410.14</ele><time>2014-09-08T02:28:38Z</time></trkpt><trkpt lat="46.1716929171" lon="6.1239151005"><ele>410.14</ele><time>2014-09-08T02:28:39Z</time></trkpt><trkpt lat="46.1720478907" lon="6.1237815768"><ele>411.10</ele><time>2014-09-08T02:28:50Z</time></trkpt><trkpt lat="46.1720836814" lon="6.1237449478"><ele>411.10</ele><time>2014-09-08T02:28:51Z</time></trkpt><trkpt lat="46.1721090786" lon="6.1237032898"><ele>411.10</ele><time>2014-09-08T02:28:52Z</time></trkpt><trkpt lat="46.1721328832" lon="6.1236546747"><ele>411.10</ele><time>2014-09-08T02:28:53Z</time></trkpt><trkpt lat="46.1721586157" lon="6.1236038804"><ele>411.10</ele><time>2014-09-08T02:28:54Z</time></trkpt><trkpt lat="46.1721876170" lon="6.1235580314"><ele>411.58</ele><time>2014-09-08T02:28:55Z</time></trkpt><trkpt lat="46.1722264253" lon="6.1235199776"><ele>411.58</ele><time>2014-09-08T02:28:56Z</time></trkpt><trkpt lat="46.1722749565" lon="6.1234968435"><ele>411.58</ele><time>2014-09-08T02:28:57Z</time></trkpt><trkpt lat="46.1723104119" lon="6.1234854441"><ele>411.58</ele><time>2014-09-08T02:28:58Z</time></trkpt><trkpt lat="46.1723598652" lon="6.1234707758"><ele>411.58</ele><time>2014-09-08T02:28:59Z</time></trkpt><trkpt lat="46.1727243941" lon="6.1233909801"><ele>412.54</ele><time>2014-09-08T02:29:07Z</time></trkpt><trkpt lat="46.1732289847" lon="6.1232061591"><ele>413.02</ele><time>2014-09-08T02:29:18Z</time></trkpt><trkpt lat="46.1734012328" lon="6.1231643334"><ele>413.02</ele><time>2014-09-08T02:29:22Z</time></trkpt><trkpt lat="46.1734426394" lon="6.1231593881"><ele>413.02</ele><time>2014-09-08T02:29:23Z</time></trkpt><trkpt lat="46.1737019755" lon="6.1231311411"><ele>412.54</ele><time>2014-09-08T02:29:28Z</time></trkpt><trkpt lat="46.1737489980" lon="6.1231192388"><ele>412.54</ele><time>2014-09-08T02:29:29Z</time></trkpt><trkpt lat="46.1747990828" lon="6.1228193343"><ele>413.50</ele><time>2014-09-08T02:29:50Z</time></trkpt><trkpt lat="46.1754630972" lon="6.1225822940"><ele>413.50</ele><time>2014-09-08T02:30:04Z</time></trkpt><trkpt lat="46.1755041685" lon="6.1225625966"><ele>413.50</ele><time>2014-09-08T02:30:05Z</time></trkpt><trkpt lat="46.1756315734" lon="6.1225614231"><ele>413.98</ele><time>2014-09-08T02:30:09Z</time></trkpt><trkpt lat="46.1760991160" lon="6.1227655225"><ele>411.10</ele><time>2014-09-08T02:30:24Z</time></trkpt><trkpt lat="46.1765390821" lon="6.1226095352"><ele>411.10</ele><time>2014-09-08T02:30:33Z</time></trkpt><trkpt lat="46.1773103010" lon="6.1223737523"><ele>410.14</ele><time>2014-09-08T02:30:48Z</time></trkpt><trkpt lat="46.1781184841" lon="6.1221308447"><ele>409.66</ele><time>2014-09-08T02:31:03Z</time></trkpt><trkpt lat="46.1789049581" lon="6.1218783818"><ele>412.06</ele><time>2014-09-08T02:31:19Z</time></trkpt><trkpt lat="46.1795593332" lon="6.1216898728"><ele>411.58</ele><time>2014-09-08T02:31:32Z</time></trkpt><trkpt lat="46.1802517623" lon="6.1214919761"><ele>410.62</ele><time>2014-09-08T02:31:46Z</time></trkpt><trkpt lat="46.1807921436" lon="6.1213323008"><ele>410.14</ele><time>2014-09-08T02:31:57Z</time></trkpt><trkpt lat="46.1814725026" lon="6.1211317219"><ele>409.18</ele><time>2014-09-08T02:32:13Z</time></trkpt><trkpt lat="46.1822467390" lon="6.1208207533"><ele>409.66</ele><time>2014-09-08T02:32:30Z</time></trkpt><trkpt lat="46.1828448717" lon="6.1205619201"><ele>411.10</ele><time>2014-09-08T02:32:43Z</time></trkpt><trkpt lat="46.1829431076" lon="6.1205225252"><ele>411.10</ele><time>2014-09-08T02:32:50Z</time></trkpt><trkpt lat="46.1830987595" lon="6.1204894166"><ele>410.14</ele><time>2014-09-08T02:33:06Z</time></trkpt><trkpt lat="46.1834427528" lon="6.1204282288"><ele>410.62</ele><time>2014-09-08T02:33:15Z</time></trkpt><trkpt lat="46.1840678751" lon="6.1202984769"><ele>410.62</ele><time>2014-09-08T02:33:30Z</time></trkpt><trkpt lat="46.1844822764" lon="6.1198858358"><ele>410.62</ele><time>2014-09-08T02:33:44Z</time></trkpt><trkpt lat="46.1847395170" lon="6.1193302833"><ele>411.10</ele><time>2014-09-08T02:34:02Z</time></trkpt><trkpt lat="46.1849313788" lon="6.1189116910"><ele>412.06</ele><time>2014-09-08T02:34:18Z</time></trkpt><trkpt lat="46.1851103324" lon="6.1185465753"><ele>412.54</ele><time>2014-09-08T02:34:33Z</time></trkpt><trkpt lat="46.1852867715" lon="6.1181532126"><ele>415.91</ele><time>2014-09-08T02:34:48Z</time></trkpt><trkpt lat="46.1855006777" lon="6.1177832354"><ele>417.35</ele><time>2014-09-08T02:35:02Z</time></trkpt><trkpt lat="46.1857587565" lon="6.1174226459"><ele>419.75</ele><time>2014-09-08T02:35:18Z</time></trkpt><trkpt lat="46.1860087048" lon="6.1171084084"><ele>421.68</ele><time>2014-09-08T02:35:34Z</time></trkpt><trkpt lat="46.1862532049" lon="6.1168041453"><ele>423.12</ele><time>2014-09-08T02:35:47Z</time></trkpt><trkpt lat="46.1865616590" lon="6.1164355930"><ele>427.44</ele><time>2014-09-08T02:36:03Z</time></trkpt><trkpt lat="46.1868532654" lon="6.1160641070"><ele>428.89</ele><time>2014-09-08T02:36:17Z</time></trkpt><trkpt lat="46.1873155273" lon="6.1156181060"><ele>426.96</ele><time>2014-09-08T02:36:34Z</time></trkpt><trkpt lat="46.1878473591" lon="6.1150433589"><ele>428.40</ele><time>2014-09-08T02:36:52Z</time></trkpt><trkpt lat="46.1882046796" lon="6.1147168837"><ele>429.37</ele><time>2014-09-08T02:37:07Z</time></trkpt><trkpt lat="46.1883015744" lon="6.1146598868"><ele>429.85</ele><time>2014-09-08T02:37:19Z</time></trkpt><trkpt lat="46.1882877443" lon="6.1146520078"><ele>430.81</ele><time>2014-09-08T02:37:41Z</time></trkpt><trkpt lat="46.1883563083" lon="6.1146248505"><ele>432.25</ele><time>2014-09-08T02:38:14Z</time></trkpt><trkpt lat="46.1885683704" lon="6.1143985391"><ele>433.21</ele><time>2014-09-08T02:38:25Z</time></trkpt><trkpt lat="46.1887030676" lon="6.1139906757"><ele>432.25</ele><time>2014-09-08T02:38:35Z</time></trkpt><trkpt lat="46.1889777426" lon="6.1136335228"><ele>430.81</ele><time>2014-09-08T02:38:48Z</time></trkpt><trkpt lat="46.1893650703" lon="6.1132316105"><ele>429.85</ele><time>2014-09-08T02:39:01Z</time></trkpt><trkpt lat="46.1894419324" lon="6.1131679080"><ele>428.89</ele><time>2014-09-08T02:39:03Z</time></trkpt><trkpt lat="46.1894794833" lon="6.1131367274"><ele>428.40</ele><time>2014-09-08T02:39:04Z</time></trkpt><trkpt lat="46.1897757836" lon="6.1128445342"><ele>429.37</ele><time>2014-09-08T02:39:12Z</time></trkpt><trkpt lat="46.1898129992" lon="6.1128081568"><ele>429.37</ele><time>2014-09-08T02:39:13Z</time></trkpt><trkpt lat="46.1900823936" lon="6.1126017943"><ele>430.33</ele><time>2014-09-08T02:39:20Z</time></trkpt><trkpt lat="46.1901642010" lon="6.1125578731"><ele>430.81</ele><time>2014-09-08T02:39:22Z</time></trkpt><trkpt lat="46.1903694738" lon="6.1124282051"><ele>438.98</ele><time>2014-09-08T02:39:27Z</time></trkpt><trkpt lat="46.1904073600" lon="6.1124188174"><ele>439.94</ele><time>2014-09-08T02:39:28Z</time></trkpt><trkpt lat="46.1905078590" lon="6.1124051549"><ele>440.90</ele><time>2014-09-08T02:39:30Z</time></trkpt><trkpt lat="46.1908473261" lon="6.1123285443"><ele>439.46</ele><time>2014-09-08T02:39:38Z</time></trkpt><trkpt lat="46.1908907443" lon="6.1123101879"><ele>438.98</ele><time>2014-09-08T02:39:39Z</time></trkpt><trkpt lat="46.1909305584" lon="6.1122906581"><ele>438.98</ele><time>2014-09-08T02:39:40Z</time></trkpt><trkpt lat="46.1910123657" lon="6.1122550350"><ele>438.50</ele><time>2014-09-08T02:39:42Z</time></trkpt><trkpt lat="46.1910549458" lon="6.1122474913"><ele>438.02</ele><time>2014-09-08T02:39:43Z</time></trkpt><trkpt lat="46.1917661503" lon="6.1122386903"><ele>435.61</ele><time>2014-09-08T02:39:59Z</time></trkpt><trkpt lat="46.1918120831" lon="6.1122389417"><ele>436.10</ele><time>2014-09-08T02:40:00Z</time></trkpt><trkpt lat="46.1922806315" lon="6.1122412886"><ele>438.50</ele><time>2014-09-08T02:40:14Z</time></trkpt><trkpt lat="46.1928910017" lon="6.1122933403"><ele>437.06</ele><time>2014-09-08T02:40:28Z</time></trkpt><trkpt lat="46.1936060619" lon="6.1123529356"><ele>430.81</ele><time>2014-09-08T02:40:44Z</time></trkpt><trkpt lat="46.1944329366" lon="6.1124246009"><ele>426.48</ele><time>2014-09-08T02:41:02Z</time></trkpt><trkpt lat="46.1947932746" lon="6.1124805920"><ele>425.04</ele><time>2014-09-08T02:41:10Z</time></trkpt><trkpt lat="46.1948348489" lon="6.1124921590"><ele>425.04</ele><time>2014-09-08T02:41:11Z</time></trkpt><trkpt lat="46.1948832124" lon="6.1125003733"><ele>425.04</ele><time>2014-09-08T02:41:12Z</time></trkpt><trkpt lat="46.1949256249" lon="6.1125023849"><ele>425.04</ele><time>2014-09-08T02:41:13Z</time></trkpt><trkpt lat="46.1949571408" lon="6.1125020497"><ele>425.04</ele><time>2014-09-08T02:41:14Z</time></trkpt><trkpt lat="46.1952286307" lon="6.1124978587"><ele>425.04</ele><time>2014-09-08T02:41:20Z</time></trkpt><trkpt lat="46.1954486556" lon="6.1124999542"><ele>425.04</ele><time>2014-09-08T02:41:25Z</time></trkpt><trkpt lat="46.1961276736" lon="6.1123669334"><ele>424.56</ele><time>2014-09-08T02:41:42Z</time></trkpt><trkpt lat="46.1967949569" lon="6.1119614169"><ele>422.64</ele><time>2014-09-08T02:41:58Z</time></trkpt><trkpt lat="46.1970624235" lon="6.1118056811"><ele>421.68</ele><time>2014-09-08T02:42:03Z</time></trkpt><trkpt lat="46.1971099488" lon="6.1117779370"><ele>421.19</ele><time>2014-09-08T02:42:04Z</time></trkpt><trkpt lat="46.1971555464" lon="6.1117575690"><ele>421.19</ele><time>2014-09-08T02:42:05Z</time></trkpt><trkpt lat="46.1972519383" lon="6.1117225327"><ele>421.19</ele><time>2014-09-08T02:42:07Z</time></trkpt><trkpt lat="46.1976162996" lon="6.1116199382"><ele>420.71</ele><time>2014-09-08T02:42:15Z</time></trkpt><trkpt lat="46.1984589323" lon="6.1114768591"><ele>421.19</ele><time>2014-09-08T02:42:33Z</time></trkpt><trkpt lat="46.1993792653" lon="6.1113108136"><ele>422.16</ele><time>2014-09-08T02:42:53Z</time></trkpt><trkpt lat="46.2000333052" lon="6.1111964844"><ele>422.64</ele><time>2014-09-08T02:43:09Z</time></trkpt><trkpt lat="46.2006765325" lon="6.1110822391"><ele>423.60</ele><time>2014-09-08T02:43:26Z</time></trkpt><trkpt lat="46.2012853101" lon="6.1109618749"><ele>425.52</ele><time>2014-09-08T02:43:43Z</time></trkpt><trkpt lat="46.2019538507" lon="6.1108543351"><ele>424.56</ele><time>2014-09-08T02:44:02Z</time></trkpt><trkpt lat="46.2025627960" lon="6.1107442807"><ele>424.08</ele><time>2014-09-08T02:44:20Z</time></trkpt><trkpt lat="46.2031735014" lon="6.1106406804"><ele>425.52</ele><time>2014-09-08T02:44:38Z</time></trkpt><trkpt lat="46.2036691234" lon="6.1105443723"><ele>426.00</ele><time>2014-09-08T02:44:53Z</time></trkpt><trkpt lat="46.2041478977" lon="6.1104614753"><ele>429.37</ele><time>2014-09-08T02:45:09Z</time></trkpt><trkpt lat="46.2046552543" lon="6.1103637423"><ele>432.73</ele><time>2014-09-08T02:45:26Z</time></trkpt><trkpt lat="46.2049243972" lon="6.1103058234"><ele>433.21</ele><time>2014-09-08T02:45:38Z</time></trkpt><trkpt lat="46.2052688934" lon="6.1102422886"><ele>435.13</ele><time>2014-09-08T02:45:51Z</time></trkpt><trkpt lat="46.2057725620" lon="6.1101243552"><ele>437.54</ele><time>2014-09-08T02:46:09Z</time></trkpt><trkpt lat="46.2060685270" lon="6.1101477407"><ele>440.42</ele><time>2014-09-08T02:46:20Z</time></trkpt><trkpt lat="46.2064671703" lon="6.1100331601"><ele>440.42</ele><time>2014-09-08T02:46:33Z</time></trkpt><trkpt lat="46.2069824059" lon="6.1099443957"><ele>438.50</ele><time>2014-09-08T02:46:47Z</time></trkpt><trkpt lat="46.2075237930" lon="6.1098366044"><ele>440.90</ele><time>2014-09-08T02:47:01Z</time></trkpt><trkpt lat="46.2076891679" lon="6.1097973771"><ele>442.82</ele><time>2014-09-08T02:47:05Z</time></trkpt><trkpt lat="46.2081739772" lon="6.1097060982"><ele>444.75</ele><time>2014-09-08T02:47:16Z</time></trkpt><trkpt lat="46.2082179822" lon="6.1096967943"><ele>444.75</ele><time>2014-09-08T02:47:17Z</time></trkpt><trkpt lat="46.2084763125" lon="6.1096651945"><ele>445.23</ele><time>2014-09-08T02:47:23Z</time></trkpt><trkpt lat="46.2090345472" lon="6.1095802020"><ele>446.19</ele><time>2014-09-08T02:47:37Z</time></trkpt><trkpt lat="46.2095044367" lon="6.1094931141"><ele>445.23</ele><time>2014-09-08T02:47:49Z</time></trkpt><trkpt lat="46.2100231089" lon="6.1093730852"><ele>444.75</ele><time>2014-09-08T02:48:04Z</time></trkpt><trkpt lat="46.2105397694" lon="6.1092160922"><ele>445.71</ele><time>2014-09-08T02:48:20Z</time></trkpt><trkpt lat="46.2110125087" lon="6.1090798024"><ele>441.38</ele><time>2014-09-08T02:48:37Z</time></trkpt><trkpt lat="46.2112133391" lon="6.1090595182"><ele>442.82</ele><time>2014-09-08T02:48:51Z</time></trkpt><trkpt lat="46.2112722639" lon="6.1090146750"><ele>439.46</ele><time>2014-09-08T02:49:15Z</time></trkpt><trkpt lat="46.2112936378" lon="6.1090230569"><ele>439.46</ele><time>2014-09-08T02:49:16Z</time></trkpt><trkpt lat="46.2113042828" lon="6.1090367194"><ele>439.94</ele><time>2014-09-08T02:49:17Z</time></trkpt><trkpt lat="46.2113208789" lon="6.1090600211"><ele>439.94</ele><time>2014-09-08T02:49:18Z</time></trkpt><trkpt lat="46.2113429233" lon="6.1090883520"><ele>439.94</ele><time>2014-09-08T02:49:19Z</time></trkpt><trkpt lat="46.2113605253" lon="6.1091129947"><ele>440.42</ele><time>2014-09-08T02:49:20Z</time></trkpt><trkpt lat="46.2113839108" lon="6.1091564968"><ele>440.42</ele><time>2014-09-08T02:49:21Z</time></trkpt><trkpt lat="46.2114061229" lon="6.1092016753"><ele>440.90</ele><time>2014-09-08T02:49:23Z</time></trkpt><trkpt lat="46.2116372120" lon="6.1096882448"><ele>438.50</ele><time>2014-09-08T02:49:36Z</time></trkpt><trkpt lat="46.2116295844" lon="6.1096991412"><ele>436.58</ele><time>2014-09-08T02:49:48Z</time></trkpt><trkpt lat="46.2116383854" lon="6.1097072717"><ele>433.21</ele><time>2014-09-08T02:50:08Z</time></trkpt><trkpt lat="46.2116248067" lon="6.1097303219"><ele>433.21</ele><time>2014-09-08T02:50:09Z</time></trkpt><trkpt lat="46.2116096355" lon="6.1097625084"><ele>433.21</ele><time>2014-09-08T02:50:10Z</time></trkpt><trkpt lat="46.2115960568" lon="6.1098048370"><ele>433.21</ele><time>2014-09-08T02:50:11Z</time></trkpt><trkpt lat="46.2115857471" lon="6.1098517757"><ele>433.21</ele><time>2014-09-08T02:50:12Z</time></trkpt><trkpt lat="46.2115780357" lon="6.1099034920"><ele>433.21</ele><time>2014-09-08T02:50:13Z</time></trkpt><trkpt lat="46.2115508784" lon="6.1100720521"><ele>432.73</ele><time>2014-09-08T02:50:16Z</time></trkpt><trkpt lat="46.2115348689" lon="6.1101306416"><ele>432.73</ele><time>2014-09-08T02:50:17Z</time></trkpt><trkpt lat="46.2114393152" lon="6.1104291212"><ele>432.25</ele><time>2014-09-08T02:50:24Z</time></trkpt><trkpt lat="46.2114476971" lon="6.1104574520"><ele>432.25</ele><time>2014-09-08T02:50:25Z</time></trkpt><trkpt lat="46.2114960607" lon="6.1104961764"><ele>433.21</ele><time>2014-09-08T02:50:27Z</time></trkpt><trkpt lat="46.2115222123" lon="6.1104812566"><ele>433.69</ele><time>2014-09-08T02:50:28Z</time></trkpt><trkpt lat="46.2115394790" lon="6.1104606371"><ele>433.69</ele><time>2014-09-08T02:50:29Z</time></trkpt><trkpt lat="46.2115637027" lon="6.1104314681"><ele>434.17</ele><time>2014-09-08T02:50:30Z</time></trkpt><trkpt lat="46.2116979808" lon="6.1101111118"><ele>438.98</ele><time>2014-09-08T02:50:41Z</time></trkpt><trkpt lat="46.2119720690" lon="6.1101763230"><ele>442.34</ele><time>2014-09-08T02:50:51Z</time></trkpt><trkpt lat="46.2125495821" lon="6.1105336435"><ele>445.23</ele><time>2014-09-08T02:51:08Z</time></trkpt><trkpt lat="46.2130517419" lon="6.1107758805"><ele>448.11</ele><time>2014-09-08T02:51:22Z</time></trkpt><trkpt lat="46.2135717552" lon="6.1108817440"><ele>453.40</ele><time>2014-09-08T02:51:36Z</time></trkpt><trkpt lat="46.2141548004" lon="6.1108564306"><ele>453.88</ele><time>2014-09-08T02:51:51Z</time></trkpt><trkpt lat="46.2146869674" lon="6.1107702646"><ele>454.36</ele><time>2014-09-08T02:52:05Z</time></trkpt><trkpt lat="46.2152888719" lon="6.1106291134"><ele>449.55</ele><time>2014-09-08T02:52:20Z</time></trkpt><trkpt lat="46.2159192748" lon="6.1104722042"><ele>448.11</ele><time>2014-09-08T02:52:37Z</time></trkpt><trkpt lat="46.2164703850" lon="6.1104320548"><ele>445.71</ele><time>2014-09-08T02:52:53Z</time></trkpt><trkpt lat="46.2165577244" lon="6.1104687676"><ele>446.19</ele><time>2014-09-08T02:52:56Z</time></trkpt><trkpt lat="46.2165801041" lon="6.1104613915"><ele>446.19</ele><time>2014-09-08T02:52:57Z</time></trkpt><trkpt lat="46.2169594690" lon="6.1103813443"><ele>445.71</ele><time>2014-09-08T02:53:12Z</time></trkpt><trkpt lat="46.2172954995" lon="6.1104096752"><ele>444.75</ele><time>2014-09-08T02:53:27Z</time></trkpt><trkpt lat="46.2175621279" lon="6.1104229186"><ele>445.71</ele><time>2014-09-08T02:53:41Z</time></trkpt><trkpt lat="46.2178913690" lon="6.1105054803"><ele>447.15</ele><time>2014-09-08T02:53:57Z</time></trkpt><trkpt lat="46.2182520423" lon="6.1106904689"><ele>448.11</ele><time>2014-09-08T02:54:12Z</time></trkpt><trkpt lat="46.2186709698" lon="6.1110265832"><ele>448.11</ele><time>2014-09-08T02:54:27Z</time></trkpt><trkpt lat="46.2190690264" lon="6.1115477700"><ele>449.55</ele><time>2014-09-08T02:54:40Z</time></trkpt><trkpt lat="46.2191198207" lon="6.1116558965"><ele>450.52</ele><time>2014-09-08T02:54:42Z</time></trkpt><trkpt lat="46.2194851041" lon="6.1123832781"><ele>450.52</ele><time>2014-09-08T02:54:55Z</time></trkpt><trkpt lat="46.2195187155" lon="6.1124262773"><ele>450.52</ele><time>2014-09-08T02:54:56Z</time></trkpt><trkpt lat="46.2196011934" lon="6.1125243455"><ele>451.00</ele><time>2014-09-08T02:54:58Z</time></trkpt><trkpt lat="46.2196931429" lon="6.1126580369"><ele>451.96</ele><time>2014-09-08T02:55:01Z</time></trkpt><trkpt lat="46.2200336158" lon="6.1133822333"><ele>452.92</ele><time>2014-09-08T02:55:15Z</time></trkpt><trkpt lat="46.2201351207" lon="6.1135941278"><ele>452.44</ele><time>2014-09-08T02:55:27Z</time></trkpt><trkpt lat="46.2202400621" lon="6.1137468461"><ele>451.48</ele><time>2014-09-08T02:55:46Z</time></trkpt><trkpt lat="46.2205576524" lon="6.1134803854"><ele>449.55</ele><time>2014-09-08T02:55:55Z</time></trkpt><trkpt lat="46.2212007958" lon="6.1125675123"><ele>454.36</ele><time>2014-09-08T02:56:12Z</time></trkpt><trkpt lat="46.2218175363" lon="6.1113921180"><ele>448.11</ele><time>2014-09-08T02:56:30Z</time></trkpt><trkpt lat="46.2226084527" lon="6.1102974415"><ele>441.86</ele><time>2014-09-08T02:56:47Z</time></trkpt><trkpt lat="46.2229127157" lon="6.1099423841"><ele>440.90</ele><time>2014-09-08T02:56:54Z</time></trkpt><trkpt lat="46.2234069966" lon="6.1093956325"><ele>440.90</ele><time>2014-09-08T02:57:09Z</time></trkpt><trkpt lat="46.2234848645" lon="6.1093216203"><ele>442.82</ele><time>2014-09-08T02:57:16Z</time></trkpt><trkpt lat="46.2234948389" lon="6.1093063653"><ele>443.31</ele><time>2014-09-08T02:57:17Z</time></trkpt><trkpt lat="46.2238146923" lon="6.1088595260"><ele>450.03</ele><time>2014-09-08T02:57:29Z</time></trkpt><trkpt lat="46.2242242321" lon="6.1083254311"><ele>453.40</ele><time>2014-09-08T02:57:41Z</time></trkpt><trkpt lat="46.2249160744" lon="6.1073614284"><ele>450.52</ele><time>2014-09-08T02:57:57Z</time></trkpt><trkpt lat="46.2257502414" lon="6.1061594635"><ele>445.23</ele><time>2014-09-08T02:58:15Z</time></trkpt><trkpt lat="46.2264171895" lon="6.1052206066"><ele>444.27</ele><time>2014-09-08T02:58:30Z</time></trkpt><trkpt lat="46.2268336024" lon="6.1046230607"><ele>444.75</ele><time>2014-09-08T02:58:42Z</time></trkpt><trkpt lat="46.2268666271" lon="6.1045771278"><ele>443.79</ele><time>2014-09-08T02:58:43Z</time></trkpt><trkpt lat="46.2274528574" lon="6.1037777457"><ele>437.06</ele><time>2014-09-08T02:59:03Z</time></trkpt><trkpt lat="46.2279533409" lon="6.1032834649"><ele>435.13</ele><time>2014-09-08T02:59:19Z</time></trkpt><trkpt lat="46.2279925682" lon="6.1032992229"><ele>435.13</ele><time>2014-09-08T02:59:20Z</time></trkpt><trkpt lat="46.2280303705" lon="6.1033260450"><ele>434.65</ele><time>2014-09-08T02:59:21Z</time></trkpt><trkpt lat="46.2280688435" lon="6.1033738218"><ele>434.65</ele><time>2014-09-08T02:59:22Z</time></trkpt><trkpt lat="46.2280965876" lon="6.1034200899"><ele>434.65</ele><time>2014-09-08T02:59:23Z</time></trkpt><trkpt lat="46.2281171232" lon="6.1034542043"><ele>434.17</ele><time>2014-09-08T02:59:24Z</time></trkpt><trkpt lat="46.2283498887" lon="6.1037929170"><ele>435.13</ele><time>2014-09-08T02:59:32Z</time></trkpt><trkpt lat="46.2284695823" lon="6.1039512511"><ele>434.17</ele><time>2014-09-08T02:59:36Z</time></trkpt><trkpt lat="46.2287165970" lon="6.1044683307"><ele>431.77</ele><time>2014-09-08T02:59:48Z</time></trkpt><trkpt lat="46.2288760208" lon="6.1048704106"><ele>429.37</ele><time>2014-09-08T02:59:55Z</time></trkpt><trkpt lat="46.2289090455" lon="6.1049383879"><ele>428.89</ele><time>2014-09-08T02:59:56Z</time></trkpt><trkpt lat="46.2290610094" lon="6.1052210256"><ele>427.92</ele><time>2014-09-08T03:00:00Z</time></trkpt><trkpt lat="46.2290876638" lon="6.1052832194"><ele>427.44</ele><time>2014-09-08T03:00:01Z</time></trkpt><trkpt lat="46.2291988917" lon="6.1054453254"><ele>426.96</ele><time>2014-09-08T03:00:04Z</time></trkpt><trkpt lat="46.2292380352" lon="6.1054692976"><ele>426.96</ele><time>2014-09-08T03:00:05Z</time></trkpt><trkpt lat="46.2292621750" lon="6.1055031605"><ele>426.96</ele><time>2014-09-08T03:00:06Z</time></trkpt><trkpt lat="46.2292835489" lon="6.1055423878"><ele>427.44</ele><time>2014-09-08T03:00:07Z</time></trkpt><trkpt lat="46.2293058448" lon="6.1055852193"><ele>427.92</ele><time>2014-09-08T03:00:08Z</time></trkpt><trkpt lat="46.2293207645" lon="6.1056219321"><ele>427.92</ele><time>2014-09-08T03:00:09Z</time></trkpt><trkpt lat="46.2293328345" lon="6.1056650151"><ele>428.89</ele><time>2014-09-08T03:00:10Z</time></trkpt><trkpt lat="46.2293453235" lon="6.1057024822"><ele>429.85</ele><time>2014-09-08T03:00:11Z</time></trkpt><trkpt lat="46.2293532025" lon="6.1057419609"><ele>430.81</ele><time>2014-09-08T03:00:12Z</time></trkpt><trkpt lat="46.2293302361" lon="6.1061018799"><ele>447.15</ele><time>2014-09-08T03:00:22Z</time></trkpt><trkpt lat="46.2293521129" lon="6.1065249983"><ele>444.75</ele><time>2014-09-08T03:00:33Z</time></trkpt><trkpt lat="46.2294162344" lon="6.1068627052"><ele>446.67</ele><time>2014-09-08T03:00:45Z</time></trkpt><trkpt lat="46.2296197470" lon="6.1072683055"><ele>446.67</ele><time>2014-09-08T03:00:59Z</time></trkpt><trkpt lat="46.2298036460" lon="6.1075046752"><ele>445.71</ele><time>2014-09-08T03:01:09Z</time></trkpt><trkpt lat="46.2298243493" lon="6.1075146496"><ele>445.23</ele><time>2014-09-08T03:01:10Z</time></trkpt><trkpt lat="46.2298453040" lon="6.1075206846"><ele>444.27</ele><time>2014-09-08T03:01:11Z</time></trkpt><trkpt lat="46.2298639957" lon="6.1075230315"><ele>443.79</ele><time>2014-09-08T03:01:12Z</time></trkpt><trkpt lat="46.2298630737" lon="6.1074967962"><ele>442.34</ele><time>2014-09-08T03:01:15Z</time></trkpt><trkpt lat="46.2298875488" lon="6.1074576527"><ele>435.61</ele><time>2014-09-08T03:01:26Z</time></trkpt><trkpt lat="46.2298911531" lon="6.1074379552"><ele>429.37</ele><time>2014-09-08T03:01:43Z</time></trkpt><trkpt lat="46.2298836093" lon="6.1074375361"><ele>421.19</ele><time>2014-09-08T03:02:07Z</time></trkpt><trkpt lat="46.2298917398" lon="6.1077311542"><ele>416.87</ele><time>2014-09-08T03:02:21Z</time></trkpt></trkseg></trk></gpx>